<?xml version="1.0" encoding="UTF-8" standalone="no" ?>
<gpx xmlns="http://www.topografix.com/GPX/1/1" xmlns:xsi="http://www.w3.org/2001/XMLSchema-instance" xsi:schemaLocation="http://www.topografix.com/GPX/1/1 http://www.topografix.com/GPX/1/1/gpx.xsd" version="1.1" creator="VisuGPX - https://www.visugpx.com">
  <metadata>
    <name>Mont Pourri 3776m</name>
  </metadata>
  <trk>
    <name><![CDATA[Mont Pourri 3776m]]></name>
    <trkseg>
      <trkpt lat="45.57088" lon="6.83233">
        <ele>2135.4</ele>
        <time>2021-03-30T05:21:28Z</time>
      </trkpt>
      <trkpt lat="45.57088" lon="6.83233">
        <ele>2135.4</ele>
        <time>2021-03-30T05:21:29Z</time>
      </trkpt>
      <trkpt lat="45.57089" lon="6.83235">
        <ele>2135.3</ele>
        <time>2021-03-30T05:21:30Z</time>
      </trkpt>
      <trkpt lat="45.57089" lon="6.83235">
        <ele>2135.3</ele>
        <time>2021-03-30T05:21:31Z</time>
      </trkpt>
      <trkpt lat="45.57089" lon="6.83235">
        <ele>2135.3</ele>
        <time>2021-03-30T05:21:32Z</time>
      </trkpt>
      <trkpt lat="45.57089" lon="6.83235">
        <ele>2135.3</ele>
        <time>2021-03-30T05:21:33Z</time>
      </trkpt>
      <trkpt lat="45.57089" lon="6.83235">
        <ele>2135.3</ele>
        <time>2021-03-30T05:21:34Z</time>
      </trkpt>
      <trkpt lat="45.57089" lon="6.83235">
        <ele>2135.3</ele>
        <time>2021-03-30T05:21:35Z</time>
      </trkpt>
      <trkpt lat="45.57089" lon="6.83235">
        <ele>2135.3</ele>
        <time>2021-03-30T05:21:36Z</time>
      </trkpt>
      <trkpt lat="45.57089" lon="6.83235">
        <ele>2135.3</ele>
        <time>2021-03-30T05:21:37Z</time>
      </trkpt>
      <trkpt lat="45.57089" lon="6.83235">
        <ele>2135.3</ele>
        <time>2021-03-30T05:21:38Z</time>
      </trkpt>
      <trkpt lat="45.57091" lon="6.83235">
        <ele>2135.3</ele>
        <time>2021-03-30T05:21:55Z</time>
      </trkpt>
      <trkpt lat="45.57091" lon="6.83235">
        <ele>2135.2</ele>
        <time>2021-03-30T05:21:56Z</time>
      </trkpt>
      <trkpt lat="45.57091" lon="6.83235">
        <ele>2135.2</ele>
        <time>2021-03-30T05:21:57Z</time>
      </trkpt>
      <trkpt lat="45.57091" lon="6.83235">
        <ele>2135.2</ele>
        <time>2021-03-30T05:21:58Z</time>
      </trkpt>
      <trkpt lat="45.57091" lon="6.83235">
        <ele>2135.2</ele>
        <time>2021-03-30T05:21:59Z</time>
      </trkpt>
      <trkpt lat="45.57091" lon="6.83235">
        <ele>2135.2</ele>
        <time>2021-03-30T05:22:00Z</time>
      </trkpt>
      <trkpt lat="45.57091" lon="6.83235">
        <ele>2135.2</ele>
        <time>2021-03-30T05:22:01Z</time>
      </trkpt>
      <trkpt lat="45.57091" lon="6.83235">
        <ele>2135.2</ele>
        <time>2021-03-30T05:22:02Z</time>
      </trkpt>
      <trkpt lat="45.57091" lon="6.83235">
        <ele>2135.2</ele>
        <time>2021-03-30T05:22:03Z</time>
      </trkpt>
      <trkpt lat="45.57091" lon="6.83237">
        <ele>2135.2</ele>
        <time>2021-03-30T05:22:04Z</time>
      </trkpt>
      <trkpt lat="45.57091" lon="6.83237">
        <ele>2135.2</ele>
        <time>2021-03-30T05:22:05Z</time>
      </trkpt>
      <trkpt lat="45.57086" lon="6.83232">
        <ele>2134.9</ele>
        <time>2021-03-30T05:22:22Z</time>
      </trkpt>
      <trkpt lat="45.57086" lon="6.83231">
        <ele>2134.9</ele>
        <time>2021-03-30T05:22:23Z</time>
      </trkpt>
      <trkpt lat="45.57085" lon="6.8323">
        <ele>2134.8</ele>
        <time>2021-03-30T05:22:24Z</time>
      </trkpt>
      <trkpt lat="45.57086" lon="6.8323">
        <ele>2134.8</ele>
        <time>2021-03-30T05:22:25Z</time>
      </trkpt>
      <trkpt lat="45.57086" lon="6.8323">
        <ele>2134.8</ele>
        <time>2021-03-30T05:22:26Z</time>
      </trkpt>
      <trkpt lat="45.57085" lon="6.83229">
        <ele>2134.8</ele>
        <time>2021-03-30T05:22:27Z</time>
      </trkpt>
      <trkpt lat="45.57085" lon="6.83229">
        <ele>2134.8</ele>
        <time>2021-03-30T05:22:28Z</time>
      </trkpt>
      <trkpt lat="45.57084" lon="6.83229">
        <ele>2134.7</ele>
        <time>2021-03-30T05:22:29Z</time>
      </trkpt>
      <trkpt lat="45.57084" lon="6.83229">
        <ele>2134.7</ele>
        <time>2021-03-30T05:22:30Z</time>
      </trkpt>
      <trkpt lat="45.57083" lon="6.83228">
        <ele>2134.7</ele>
        <time>2021-03-30T05:22:31Z</time>
      </trkpt>
      <trkpt lat="45.57082" lon="6.83228">
        <ele>2134.6</ele>
        <time>2021-03-30T05:22:32Z</time>
      </trkpt>
      <trkpt lat="45.57082" lon="6.83229">
        <ele>2134.6</ele>
        <time>2021-03-30T05:22:33Z</time>
      </trkpt>
      <trkpt lat="45.57081" lon="6.83228">
        <ele>2134.6</ele>
        <time>2021-03-30T05:22:34Z</time>
      </trkpt>
      <trkpt lat="45.5708" lon="6.83228">
        <ele>2134.5</ele>
        <time>2021-03-30T05:22:35Z</time>
      </trkpt>
      <trkpt lat="45.5708" lon="6.83228">
        <ele>2134.5</ele>
        <time>2021-03-30T05:22:36Z</time>
      </trkpt>
      <trkpt lat="45.57079" lon="6.83228">
        <ele>2134.5</ele>
        <time>2021-03-30T05:22:37Z</time>
      </trkpt>
      <trkpt lat="45.57079" lon="6.83228">
        <ele>2134.4</ele>
        <time>2021-03-30T05:22:38Z</time>
      </trkpt>
      <trkpt lat="45.57078" lon="6.83227">
        <ele>2134.4</ele>
        <time>2021-03-30T05:22:39Z</time>
      </trkpt>
      <trkpt lat="45.57078" lon="6.83227">
        <ele>2134.4</ele>
        <time>2021-03-30T05:22:40Z</time>
      </trkpt>
      <trkpt lat="45.57078" lon="6.83226">
        <ele>2134.4</ele>
        <time>2021-03-30T05:22:41Z</time>
      </trkpt>
      <trkpt lat="45.57078" lon="6.83226">
        <ele>2134.3</ele>
        <time>2021-03-30T05:22:42Z</time>
      </trkpt>
      <trkpt lat="45.57077" lon="6.83225">
        <ele>2134.3</ele>
        <time>2021-03-30T05:22:43Z</time>
      </trkpt>
      <trkpt lat="45.57077" lon="6.83225">
        <ele>2134.3</ele>
        <time>2021-03-30T05:22:44Z</time>
      </trkpt>
      <trkpt lat="45.57077" lon="6.83225">
        <ele>2134.3</ele>
        <time>2021-03-30T05:22:45Z</time>
      </trkpt>
      <trkpt lat="45.57077" lon="6.83224">
        <ele>2134.3</ele>
        <time>2021-03-30T05:22:46Z</time>
      </trkpt>
      <trkpt lat="45.57076" lon="6.83224">
        <ele>2134.2</ele>
        <time>2021-03-30T05:22:47Z</time>
      </trkpt>
      <trkpt lat="45.57076" lon="6.83223">
        <ele>2134.2</ele>
        <time>2021-03-30T05:22:48Z</time>
      </trkpt>
      <trkpt lat="45.57075" lon="6.83222">
        <ele>2134.1</ele>
        <time>2021-03-30T05:22:49Z</time>
      </trkpt>
      <trkpt lat="45.57075" lon="6.83221">
        <ele>2134.1</ele>
        <time>2021-03-30T05:22:50Z</time>
      </trkpt>
      <trkpt lat="45.57074" lon="6.83221">
        <ele>2134</ele>
        <time>2021-03-30T05:22:51Z</time>
      </trkpt>
      <trkpt lat="45.57073" lon="6.8322">
        <ele>2134</ele>
        <time>2021-03-30T05:22:52Z</time>
      </trkpt>
      <trkpt lat="45.57073" lon="6.83219">
        <ele>2133.9</ele>
        <time>2021-03-30T05:22:53Z</time>
      </trkpt>
      <trkpt lat="45.57072" lon="6.83219">
        <ele>2133.9</ele>
        <time>2021-03-30T05:22:54Z</time>
      </trkpt>
      <trkpt lat="45.57072" lon="6.83218">
        <ele>2133.9</ele>
        <time>2021-03-30T05:22:55Z</time>
      </trkpt>
      <trkpt lat="45.57072" lon="6.83218">
        <ele>2133.9</ele>
        <time>2021-03-30T05:22:56Z</time>
      </trkpt>
      <trkpt lat="45.57072" lon="6.83218">
        <ele>2133.9</ele>
        <time>2021-03-30T05:22:57Z</time>
      </trkpt>
      <trkpt lat="45.57071" lon="6.83217">
        <ele>2133.8</ele>
        <time>2021-03-30T05:22:58Z</time>
      </trkpt>
      <trkpt lat="45.57071" lon="6.83217">
        <ele>2133.8</ele>
        <time>2021-03-30T05:22:59Z</time>
      </trkpt>
      <trkpt lat="45.57071" lon="6.83216">
        <ele>2133.8</ele>
        <time>2021-03-30T05:23:00Z</time>
      </trkpt>
      <trkpt lat="45.57071" lon="6.83216">
        <ele>2133.8</ele>
        <time>2021-03-30T05:23:01Z</time>
      </trkpt>
      <trkpt lat="45.5707" lon="6.83216">
        <ele>2133.7</ele>
        <time>2021-03-30T05:23:02Z</time>
      </trkpt>
      <trkpt lat="45.5707" lon="6.83215">
        <ele>2133.7</ele>
        <time>2021-03-30T05:23:03Z</time>
      </trkpt>
      <trkpt lat="45.5707" lon="6.83215">
        <ele>2133.7</ele>
        <time>2021-03-30T05:23:04Z</time>
      </trkpt>
      <trkpt lat="45.5707" lon="6.83215">
        <ele>2133.7</ele>
        <time>2021-03-30T05:23:11Z</time>
      </trkpt>
      <trkpt lat="45.57069" lon="6.83214">
        <ele>2133.6</ele>
        <time>2021-03-30T05:23:12Z</time>
      </trkpt>
      <trkpt lat="45.57069" lon="6.83214">
        <ele>2133.6</ele>
        <time>2021-03-30T05:23:13Z</time>
      </trkpt>
      <trkpt lat="45.57069" lon="6.83213">
        <ele>2133.6</ele>
        <time>2021-03-30T05:23:14Z</time>
      </trkpt>
      <trkpt lat="45.57068" lon="6.83212">
        <ele>2133.5</ele>
        <time>2021-03-30T05:23:15Z</time>
      </trkpt>
      <trkpt lat="45.57067" lon="6.83211">
        <ele>2133.5</ele>
        <time>2021-03-30T05:23:16Z</time>
      </trkpt>
      <trkpt lat="45.57067" lon="6.8321">
        <ele>2133.4</ele>
        <time>2021-03-30T05:23:17Z</time>
      </trkpt>
      <trkpt lat="45.57066" lon="6.83208">
        <ele>2133.3</ele>
        <time>2021-03-30T05:23:18Z</time>
      </trkpt>
      <trkpt lat="45.57066" lon="6.83207">
        <ele>2133.3</ele>
        <time>2021-03-30T05:23:19Z</time>
      </trkpt>
      <trkpt lat="45.57065" lon="6.83205">
        <ele>2133.2</ele>
        <time>2021-03-30T05:23:20Z</time>
      </trkpt>
      <trkpt lat="45.57064" lon="6.83204">
        <ele>2133.1</ele>
        <time>2021-03-30T05:23:21Z</time>
      </trkpt>
      <trkpt lat="45.57064" lon="6.83203">
        <ele>2133.1</ele>
        <time>2021-03-30T05:23:22Z</time>
      </trkpt>
      <trkpt lat="45.57063" lon="6.83202">
        <ele>2133</ele>
        <time>2021-03-30T05:23:23Z</time>
      </trkpt>
      <trkpt lat="45.57063" lon="6.83201">
        <ele>2132.9</ele>
        <time>2021-03-30T05:23:24Z</time>
      </trkpt>
      <trkpt lat="45.57062" lon="6.832">
        <ele>2132.9</ele>
        <time>2021-03-30T05:23:25Z</time>
      </trkpt>
      <trkpt lat="45.57061" lon="6.83199">
        <ele>2132.8</ele>
        <time>2021-03-30T05:23:26Z</time>
      </trkpt>
      <trkpt lat="45.57061" lon="6.83198">
        <ele>2132.8</ele>
        <time>2021-03-30T05:23:27Z</time>
      </trkpt>
      <trkpt lat="45.5706" lon="6.83197">
        <ele>2132.7</ele>
        <time>2021-03-30T05:23:28Z</time>
      </trkpt>
      <trkpt lat="45.57059" lon="6.83196">
        <ele>2132.6</ele>
        <time>2021-03-30T05:23:29Z</time>
      </trkpt>
      <trkpt lat="45.57059" lon="6.83195">
        <ele>2132.6</ele>
        <time>2021-03-30T05:23:30Z</time>
      </trkpt>
      <trkpt lat="45.57058" lon="6.83194">
        <ele>2132.5</ele>
        <time>2021-03-30T05:23:31Z</time>
      </trkpt>
      <trkpt lat="45.57057" lon="6.83193">
        <ele>2132.4</ele>
        <time>2021-03-30T05:23:32Z</time>
      </trkpt>
      <trkpt lat="45.57056" lon="6.83192">
        <ele>2132.4</ele>
        <time>2021-03-30T05:23:33Z</time>
      </trkpt>
      <trkpt lat="45.57056" lon="6.83191">
        <ele>2132.3</ele>
        <time>2021-03-30T05:23:34Z</time>
      </trkpt>
      <trkpt lat="45.57055" lon="6.83189">
        <ele>2132.2</ele>
        <time>2021-03-30T05:23:35Z</time>
      </trkpt>
      <trkpt lat="45.57054" lon="6.83188">
        <ele>2132.2</ele>
        <time>2021-03-30T05:23:36Z</time>
      </trkpt>
      <trkpt lat="45.57053" lon="6.83187">
        <ele>2132.2</ele>
        <time>2021-03-30T05:23:37Z</time>
      </trkpt>
      <trkpt lat="45.57052" lon="6.83186">
        <ele>2132.2</ele>
        <time>2021-03-30T05:23:38Z</time>
      </trkpt>
      <trkpt lat="45.57051" lon="6.83185">
        <ele>2132.2</ele>
        <time>2021-03-30T05:23:39Z</time>
      </trkpt>
      <trkpt lat="45.5705" lon="6.83184">
        <ele>2132.2</ele>
        <time>2021-03-30T05:23:40Z</time>
      </trkpt>
      <trkpt lat="45.57049" lon="6.83183">
        <ele>2132.2</ele>
        <time>2021-03-30T05:23:41Z</time>
      </trkpt>
      <trkpt lat="45.57048" lon="6.83182">
        <ele>2132.2</ele>
        <time>2021-03-30T05:23:42Z</time>
      </trkpt>
      <trkpt lat="45.57048" lon="6.83181">
        <ele>2132.2</ele>
        <time>2021-03-30T05:23:43Z</time>
      </trkpt>
      <trkpt lat="45.57047" lon="6.8318">
        <ele>2132.2</ele>
        <time>2021-03-30T05:23:44Z</time>
      </trkpt>
      <trkpt lat="45.57046" lon="6.8318">
        <ele>2132.2</ele>
        <time>2021-03-30T05:23:45Z</time>
      </trkpt>
      <trkpt lat="45.57046" lon="6.8318">
        <ele>2132.2</ele>
        <time>2021-03-30T05:23:46Z</time>
      </trkpt>
      <trkpt lat="45.57045" lon="6.83179">
        <ele>2132.2</ele>
        <time>2021-03-30T05:23:47Z</time>
      </trkpt>
      <trkpt lat="45.57044" lon="6.83179">
        <ele>2132.2</ele>
        <time>2021-03-30T05:23:48Z</time>
      </trkpt>
      <trkpt lat="45.57043" lon="6.83178">
        <ele>2132.2</ele>
        <time>2021-03-30T05:23:49Z</time>
      </trkpt>
      <trkpt lat="45.57042" lon="6.83178">
        <ele>2132.2</ele>
        <time>2021-03-30T05:23:50Z</time>
      </trkpt>
      <trkpt lat="45.57042" lon="6.83177">
        <ele>2132.2</ele>
        <time>2021-03-30T05:23:51Z</time>
      </trkpt>
      <trkpt lat="45.57041" lon="6.83176">
        <ele>2132.2</ele>
        <time>2021-03-30T05:23:52Z</time>
      </trkpt>
      <trkpt lat="45.5704" lon="6.83176">
        <ele>2132.2</ele>
        <time>2021-03-30T05:23:53Z</time>
      </trkpt>
      <trkpt lat="45.57038" lon="6.83175">
        <ele>2132.2</ele>
        <time>2021-03-30T05:23:54Z</time>
      </trkpt>
      <trkpt lat="45.57037" lon="6.83174">
        <ele>2132.2</ele>
        <time>2021-03-30T05:23:55Z</time>
      </trkpt>
      <trkpt lat="45.57036" lon="6.83173">
        <ele>2132.2</ele>
        <time>2021-03-30T05:23:56Z</time>
      </trkpt>
      <trkpt lat="45.57035" lon="6.83173">
        <ele>2132.3</ele>
        <time>2021-03-30T05:23:57Z</time>
      </trkpt>
      <trkpt lat="45.57034" lon="6.83173">
        <ele>2132.3</ele>
        <time>2021-03-30T05:23:58Z</time>
      </trkpt>
      <trkpt lat="45.57034" lon="6.83173">
        <ele>2132.3</ele>
        <time>2021-03-30T05:23:59Z</time>
      </trkpt>
      <trkpt lat="45.57033" lon="6.83173">
        <ele>2132.3</ele>
        <time>2021-03-30T05:24:00Z</time>
      </trkpt>
      <trkpt lat="45.57032" lon="6.83173">
        <ele>2132.3</ele>
        <time>2021-03-30T05:24:01Z</time>
      </trkpt>
      <trkpt lat="45.57031" lon="6.83173">
        <ele>2132.3</ele>
        <time>2021-03-30T05:24:02Z</time>
      </trkpt>
      <trkpt lat="45.57031" lon="6.83173">
        <ele>2132.4</ele>
        <time>2021-03-30T05:24:03Z</time>
      </trkpt>
      <trkpt lat="45.5703" lon="6.83173">
        <ele>2132.4</ele>
        <time>2021-03-30T05:24:04Z</time>
      </trkpt>
      <trkpt lat="45.57028" lon="6.83173">
        <ele>2132.6</ele>
        <time>2021-03-30T05:24:05Z</time>
      </trkpt>
      <trkpt lat="45.57028" lon="6.83173">
        <ele>2132.6</ele>
        <time>2021-03-30T05:24:06Z</time>
      </trkpt>
      <trkpt lat="45.57027" lon="6.83173">
        <ele>2132.7</ele>
        <time>2021-03-30T05:24:07Z</time>
      </trkpt>
      <trkpt lat="45.57026" lon="6.83173">
        <ele>2132.7</ele>
        <time>2021-03-30T05:24:08Z</time>
      </trkpt>
      <trkpt lat="45.57025" lon="6.83173">
        <ele>2132.8</ele>
        <time>2021-03-30T05:24:09Z</time>
      </trkpt>
      <trkpt lat="45.57025" lon="6.83173">
        <ele>2132.8</ele>
        <time>2021-03-30T05:24:10Z</time>
      </trkpt>
      <trkpt lat="45.57024" lon="6.83174">
        <ele>2132.9</ele>
        <time>2021-03-30T05:24:11Z</time>
      </trkpt>
      <trkpt lat="45.57023" lon="6.83174">
        <ele>2132.9</ele>
        <time>2021-03-30T05:24:12Z</time>
      </trkpt>
      <trkpt lat="45.57022" lon="6.83174">
        <ele>2133</ele>
        <time>2021-03-30T05:24:13Z</time>
      </trkpt>
      <trkpt lat="45.57022" lon="6.83174">
        <ele>2133</ele>
        <time>2021-03-30T05:24:14Z</time>
      </trkpt>
      <trkpt lat="45.57021" lon="6.83175">
        <ele>2133.1</ele>
        <time>2021-03-30T05:24:15Z</time>
      </trkpt>
      <trkpt lat="45.5702" lon="6.83175">
        <ele>2133.1</ele>
        <time>2021-03-30T05:24:16Z</time>
      </trkpt>
      <trkpt lat="45.5702" lon="6.83174">
        <ele>2133.2</ele>
        <time>2021-03-30T05:24:17Z</time>
      </trkpt>
      <trkpt lat="45.57018" lon="6.83174">
        <ele>2133.3</ele>
        <time>2021-03-30T05:24:18Z</time>
      </trkpt>
      <trkpt lat="45.57018" lon="6.83174">
        <ele>2133.3</ele>
        <time>2021-03-30T05:24:19Z</time>
      </trkpt>
      <trkpt lat="45.57017" lon="6.83174">
        <ele>2133.4</ele>
        <time>2021-03-30T05:24:20Z</time>
      </trkpt>
      <trkpt lat="45.57016" lon="6.83174">
        <ele>2133.4</ele>
        <time>2021-03-30T05:24:21Z</time>
      </trkpt>
      <trkpt lat="45.57015" lon="6.83173">
        <ele>2133.5</ele>
        <time>2021-03-30T05:24:22Z</time>
      </trkpt>
      <trkpt lat="45.57014" lon="6.83173">
        <ele>2133.6</ele>
        <time>2021-03-30T05:24:23Z</time>
      </trkpt>
      <trkpt lat="45.57013" lon="6.83173">
        <ele>2133.7</ele>
        <time>2021-03-30T05:24:24Z</time>
      </trkpt>
      <trkpt lat="45.57012" lon="6.83172">
        <ele>2133.7</ele>
        <time>2021-03-30T05:24:25Z</time>
      </trkpt>
      <trkpt lat="45.57011" lon="6.83172">
        <ele>2133.8</ele>
        <time>2021-03-30T05:24:26Z</time>
      </trkpt>
      <trkpt lat="45.57009" lon="6.83171">
        <ele>2133.9</ele>
        <time>2021-03-30T05:24:27Z</time>
      </trkpt>
      <trkpt lat="45.57008" lon="6.83171">
        <ele>2133.9</ele>
        <time>2021-03-30T05:24:28Z</time>
      </trkpt>
      <trkpt lat="45.57007" lon="6.8317">
        <ele>2134</ele>
        <time>2021-03-30T05:24:29Z</time>
      </trkpt>
      <trkpt lat="45.57006" lon="6.8317">
        <ele>2134.1</ele>
        <time>2021-03-30T05:24:30Z</time>
      </trkpt>
      <trkpt lat="45.57005" lon="6.8317">
        <ele>2134.2</ele>
        <time>2021-03-30T05:24:31Z</time>
      </trkpt>
      <trkpt lat="45.57004" lon="6.8317">
        <ele>2134.2</ele>
        <time>2021-03-30T05:24:32Z</time>
      </trkpt>
      <trkpt lat="45.57003" lon="6.83169">
        <ele>2134.3</ele>
        <time>2021-03-30T05:24:33Z</time>
      </trkpt>
      <trkpt lat="45.57001" lon="6.83169">
        <ele>2134.4</ele>
        <time>2021-03-30T05:24:34Z</time>
      </trkpt>
      <trkpt lat="45.57001" lon="6.83169">
        <ele>2134.4</ele>
        <time>2021-03-30T05:24:35Z</time>
      </trkpt>
      <trkpt lat="45.57" lon="6.83168">
        <ele>2134.5</ele>
        <time>2021-03-30T05:24:36Z</time>
      </trkpt>
      <trkpt lat="45.56999" lon="6.83168">
        <ele>2134.5</ele>
        <time>2021-03-30T05:24:37Z</time>
      </trkpt>
      <trkpt lat="45.56998" lon="6.83168">
        <ele>2134.6</ele>
        <time>2021-03-30T05:24:38Z</time>
      </trkpt>
      <trkpt lat="45.56997" lon="6.83168">
        <ele>2134.7</ele>
        <time>2021-03-30T05:24:39Z</time>
      </trkpt>
      <trkpt lat="45.56996" lon="6.83167">
        <ele>2134.7</ele>
        <time>2021-03-30T05:24:40Z</time>
      </trkpt>
      <trkpt lat="45.56996" lon="6.83167">
        <ele>2134.8</ele>
        <time>2021-03-30T05:24:41Z</time>
      </trkpt>
      <trkpt lat="45.56995" lon="6.83166">
        <ele>2134.8</ele>
        <time>2021-03-30T05:24:42Z</time>
      </trkpt>
      <trkpt lat="45.56994" lon="6.83166">
        <ele>2134.9</ele>
        <time>2021-03-30T05:24:43Z</time>
      </trkpt>
      <trkpt lat="45.56993" lon="6.83165">
        <ele>2135</ele>
        <time>2021-03-30T05:24:44Z</time>
      </trkpt>
      <trkpt lat="45.56992" lon="6.83164">
        <ele>2135</ele>
        <time>2021-03-30T05:24:45Z</time>
      </trkpt>
      <trkpt lat="45.56991" lon="6.83163">
        <ele>2135.1</ele>
        <time>2021-03-30T05:24:46Z</time>
      </trkpt>
      <trkpt lat="45.56991" lon="6.83162">
        <ele>2135.1</ele>
        <time>2021-03-30T05:24:47Z</time>
      </trkpt>
      <trkpt lat="45.5699" lon="6.83162">
        <ele>2135.2</ele>
        <time>2021-03-30T05:24:48Z</time>
      </trkpt>
      <trkpt lat="45.56989" lon="6.83161">
        <ele>2135.3</ele>
        <time>2021-03-30T05:24:49Z</time>
      </trkpt>
      <trkpt lat="45.56988" lon="6.8316">
        <ele>2135.3</ele>
        <time>2021-03-30T05:24:50Z</time>
      </trkpt>
      <trkpt lat="45.56988" lon="6.8316">
        <ele>2135.4</ele>
        <time>2021-03-30T05:24:51Z</time>
      </trkpt>
      <trkpt lat="45.56987" lon="6.83159">
        <ele>2135.4</ele>
        <time>2021-03-30T05:24:52Z</time>
      </trkpt>
      <trkpt lat="45.56986" lon="6.83158">
        <ele>2135.5</ele>
        <time>2021-03-30T05:24:53Z</time>
      </trkpt>
      <trkpt lat="45.56986" lon="6.83157">
        <ele>2135.6</ele>
        <time>2021-03-30T05:24:54Z</time>
      </trkpt>
      <trkpt lat="45.56985" lon="6.83156">
        <ele>2135.6</ele>
        <time>2021-03-30T05:24:55Z</time>
      </trkpt>
      <trkpt lat="45.56984" lon="6.83156">
        <ele>2135.7</ele>
        <time>2021-03-30T05:24:56Z</time>
      </trkpt>
      <trkpt lat="45.56983" lon="6.83155">
        <ele>2135.8</ele>
        <time>2021-03-30T05:24:57Z</time>
      </trkpt>
      <trkpt lat="45.56982" lon="6.83154">
        <ele>2135.8</ele>
        <time>2021-03-30T05:24:58Z</time>
      </trkpt>
      <trkpt lat="45.56982" lon="6.83154">
        <ele>2135.9</ele>
        <time>2021-03-30T05:24:59Z</time>
      </trkpt>
      <trkpt lat="45.56981" lon="6.83153">
        <ele>2135.9</ele>
        <time>2021-03-30T05:25:00Z</time>
      </trkpt>
      <trkpt lat="45.5698" lon="6.83153">
        <ele>2136</ele>
        <time>2021-03-30T05:25:01Z</time>
      </trkpt>
      <trkpt lat="45.5698" lon="6.83152">
        <ele>2136.1</ele>
        <time>2021-03-30T05:25:02Z</time>
      </trkpt>
      <trkpt lat="45.56979" lon="6.83151">
        <ele>2136.1</ele>
        <time>2021-03-30T05:25:03Z</time>
      </trkpt>
      <trkpt lat="45.56978" lon="6.8315">
        <ele>2136.2</ele>
        <time>2021-03-30T05:25:04Z</time>
      </trkpt>
      <trkpt lat="45.56977" lon="6.8315">
        <ele>2136.3</ele>
        <time>2021-03-30T05:25:05Z</time>
      </trkpt>
      <trkpt lat="45.56976" lon="6.83149">
        <ele>2136.3</ele>
        <time>2021-03-30T05:25:06Z</time>
      </trkpt>
      <trkpt lat="45.56975" lon="6.83148">
        <ele>2136.4</ele>
        <time>2021-03-30T05:25:07Z</time>
      </trkpt>
      <trkpt lat="45.56975" lon="6.83148">
        <ele>2136.5</ele>
        <time>2021-03-30T05:25:08Z</time>
      </trkpt>
      <trkpt lat="45.56974" lon="6.83147">
        <ele>2136.5</ele>
        <time>2021-03-30T05:25:09Z</time>
      </trkpt>
      <trkpt lat="45.56973" lon="6.83147">
        <ele>2136.6</ele>
        <time>2021-03-30T05:25:10Z</time>
      </trkpt>
      <trkpt lat="45.56972" lon="6.83146">
        <ele>2136.7</ele>
        <time>2021-03-30T05:25:11Z</time>
      </trkpt>
      <trkpt lat="45.56971" lon="6.83146">
        <ele>2136.8</ele>
        <time>2021-03-30T05:25:12Z</time>
      </trkpt>
      <trkpt lat="45.5697" lon="6.83145">
        <ele>2136.8</ele>
        <time>2021-03-30T05:25:13Z</time>
      </trkpt>
      <trkpt lat="45.56969" lon="6.83144">
        <ele>2136.9</ele>
        <time>2021-03-30T05:25:14Z</time>
      </trkpt>
      <trkpt lat="45.56968" lon="6.83143">
        <ele>2137</ele>
        <time>2021-03-30T05:25:15Z</time>
      </trkpt>
      <trkpt lat="45.56968" lon="6.83142">
        <ele>2137</ele>
        <time>2021-03-30T05:25:16Z</time>
      </trkpt>
      <trkpt lat="45.56967" lon="6.83142">
        <ele>2137.1</ele>
        <time>2021-03-30T05:25:17Z</time>
      </trkpt>
      <trkpt lat="45.56966" lon="6.83141">
        <ele>2137.1</ele>
        <time>2021-03-30T05:25:18Z</time>
      </trkpt>
      <trkpt lat="45.56966" lon="6.83141">
        <ele>2137.2</ele>
        <time>2021-03-30T05:25:19Z</time>
      </trkpt>
      <trkpt lat="45.56965" lon="6.8314">
        <ele>2137.2</ele>
        <time>2021-03-30T05:25:20Z</time>
      </trkpt>
      <trkpt lat="45.56964" lon="6.8314">
        <ele>2137.3</ele>
        <time>2021-03-30T05:25:21Z</time>
      </trkpt>
      <trkpt lat="45.56964" lon="6.8314">
        <ele>2137.3</ele>
        <time>2021-03-30T05:25:22Z</time>
      </trkpt>
      <trkpt lat="45.56963" lon="6.83139">
        <ele>2137.4</ele>
        <time>2021-03-30T05:25:23Z</time>
      </trkpt>
      <trkpt lat="45.56962" lon="6.83139">
        <ele>2137.5</ele>
        <time>2021-03-30T05:25:24Z</time>
      </trkpt>
      <trkpt lat="45.56961" lon="6.83139">
        <ele>2137.5</ele>
        <time>2021-03-30T05:25:25Z</time>
      </trkpt>
      <trkpt lat="45.5696" lon="6.83138">
        <ele>2137.6</ele>
        <time>2021-03-30T05:25:26Z</time>
      </trkpt>
      <trkpt lat="45.56959" lon="6.83138">
        <ele>2137.7</ele>
        <time>2021-03-30T05:25:27Z</time>
      </trkpt>
      <trkpt lat="45.56958" lon="6.83138">
        <ele>2137.8</ele>
        <time>2021-03-30T05:25:28Z</time>
      </trkpt>
      <trkpt lat="45.56957" lon="6.83137">
        <ele>2137.8</ele>
        <time>2021-03-30T05:25:29Z</time>
      </trkpt>
      <trkpt lat="45.56956" lon="6.83137">
        <ele>2137.9</ele>
        <time>2021-03-30T05:25:30Z</time>
      </trkpt>
      <trkpt lat="45.56954" lon="6.83137">
        <ele>2138</ele>
        <time>2021-03-30T05:25:31Z</time>
      </trkpt>
      <trkpt lat="45.56953" lon="6.83136">
        <ele>2138.1</ele>
        <time>2021-03-30T05:25:32Z</time>
      </trkpt>
      <trkpt lat="45.56952" lon="6.83136">
        <ele>2138.1</ele>
        <time>2021-03-30T05:25:33Z</time>
      </trkpt>
      <trkpt lat="45.56951" lon="6.83136">
        <ele>2138.2</ele>
        <time>2021-03-30T05:25:34Z</time>
      </trkpt>
      <trkpt lat="45.5695" lon="6.83135">
        <ele>2138.3</ele>
        <time>2021-03-30T05:25:35Z</time>
      </trkpt>
      <trkpt lat="45.56949" lon="6.83135">
        <ele>2138.3</ele>
        <time>2021-03-30T05:25:36Z</time>
      </trkpt>
      <trkpt lat="45.56948" lon="6.83135">
        <ele>2138.4</ele>
        <time>2021-03-30T05:25:37Z</time>
      </trkpt>
      <trkpt lat="45.56947" lon="6.83135">
        <ele>2138.5</ele>
        <time>2021-03-30T05:25:38Z</time>
      </trkpt>
      <trkpt lat="45.56946" lon="6.83135">
        <ele>2138.6</ele>
        <time>2021-03-30T05:25:39Z</time>
      </trkpt>
      <trkpt lat="45.56945" lon="6.83135">
        <ele>2138.6</ele>
        <time>2021-03-30T05:25:40Z</time>
      </trkpt>
      <trkpt lat="45.56944" lon="6.83135">
        <ele>2138.7</ele>
        <time>2021-03-30T05:25:41Z</time>
      </trkpt>
      <trkpt lat="45.56943" lon="6.83134">
        <ele>2138.8</ele>
        <time>2021-03-30T05:25:42Z</time>
      </trkpt>
      <trkpt lat="45.56943" lon="6.83134">
        <ele>2138.8</ele>
        <time>2021-03-30T05:25:43Z</time>
      </trkpt>
      <trkpt lat="45.56942" lon="6.83134">
        <ele>2138.8</ele>
        <time>2021-03-30T05:25:44Z</time>
      </trkpt>
      <trkpt lat="45.56942" lon="6.83134">
        <ele>2138.9</ele>
        <time>2021-03-30T05:25:45Z</time>
      </trkpt>
      <trkpt lat="45.56941" lon="6.83134">
        <ele>2138.9</ele>
        <time>2021-03-30T05:25:46Z</time>
      </trkpt>
      <trkpt lat="45.56941" lon="6.83134">
        <ele>2139</ele>
        <time>2021-03-30T05:25:47Z</time>
      </trkpt>
      <trkpt lat="45.5694" lon="6.83134">
        <ele>2139</ele>
        <time>2021-03-30T05:25:48Z</time>
      </trkpt>
      <trkpt lat="45.5694" lon="6.83134">
        <ele>2139</ele>
        <time>2021-03-30T05:25:49Z</time>
      </trkpt>
      <trkpt lat="45.56939" lon="6.83133">
        <ele>2139.1</ele>
        <time>2021-03-30T05:25:50Z</time>
      </trkpt>
      <trkpt lat="45.56938" lon="6.83133">
        <ele>2139.1</ele>
        <time>2021-03-30T05:25:51Z</time>
      </trkpt>
      <trkpt lat="45.56938" lon="6.83133">
        <ele>2139.1</ele>
        <time>2021-03-30T05:25:52Z</time>
      </trkpt>
      <trkpt lat="45.56937" lon="6.83133">
        <ele>2139.2</ele>
        <time>2021-03-30T05:25:53Z</time>
      </trkpt>
      <trkpt lat="45.56937" lon="6.83133">
        <ele>2139.2</ele>
        <time>2021-03-30T05:26:09Z</time>
      </trkpt>
      <trkpt lat="45.56936" lon="6.83133">
        <ele>2139.3</ele>
        <time>2021-03-30T05:26:10Z</time>
      </trkpt>
      <trkpt lat="45.56936" lon="6.83133">
        <ele>2139.3</ele>
        <time>2021-03-30T05:26:11Z</time>
      </trkpt>
      <trkpt lat="45.56935" lon="6.83133">
        <ele>2139.3</ele>
        <time>2021-03-30T05:26:12Z</time>
      </trkpt>
      <trkpt lat="45.56934" lon="6.83132">
        <ele>2139.4</ele>
        <time>2021-03-30T05:26:13Z</time>
      </trkpt>
      <trkpt lat="45.56933" lon="6.83132">
        <ele>2139.5</ele>
        <time>2021-03-30T05:26:14Z</time>
      </trkpt>
      <trkpt lat="45.56932" lon="6.83132">
        <ele>2139.6</ele>
        <time>2021-03-30T05:26:15Z</time>
      </trkpt>
      <trkpt lat="45.56931" lon="6.83131">
        <ele>2139.7</ele>
        <time>2021-03-30T05:26:16Z</time>
      </trkpt>
      <trkpt lat="45.5693" lon="6.83131">
        <ele>2139.7</ele>
        <time>2021-03-30T05:26:17Z</time>
      </trkpt>
      <trkpt lat="45.56929" lon="6.83131">
        <ele>2139.8</ele>
        <time>2021-03-30T05:26:18Z</time>
      </trkpt>
      <trkpt lat="45.56928" lon="6.8313">
        <ele>2139.9</ele>
        <time>2021-03-30T05:26:19Z</time>
      </trkpt>
      <trkpt lat="45.56927" lon="6.8313">
        <ele>2139.9</ele>
        <time>2021-03-30T05:26:20Z</time>
      </trkpt>
      <trkpt lat="45.56926" lon="6.8313">
        <ele>2140</ele>
        <time>2021-03-30T05:26:21Z</time>
      </trkpt>
      <trkpt lat="45.56925" lon="6.83129">
        <ele>2140.1</ele>
        <time>2021-03-30T05:26:22Z</time>
      </trkpt>
      <trkpt lat="45.56924" lon="6.83129">
        <ele>2140.2</ele>
        <time>2021-03-30T05:26:23Z</time>
      </trkpt>
      <trkpt lat="45.56923" lon="6.83129">
        <ele>2140.3</ele>
        <time>2021-03-30T05:26:24Z</time>
      </trkpt>
      <trkpt lat="45.56922" lon="6.83129">
        <ele>2140.4</ele>
        <time>2021-03-30T05:26:25Z</time>
      </trkpt>
      <trkpt lat="45.56921" lon="6.83129">
        <ele>2140.5</ele>
        <time>2021-03-30T05:26:26Z</time>
      </trkpt>
      <trkpt lat="45.5692" lon="6.83128">
        <ele>2140.6</ele>
        <time>2021-03-30T05:26:27Z</time>
      </trkpt>
      <trkpt lat="45.56919" lon="6.83128">
        <ele>2140.7</ele>
        <time>2021-03-30T05:26:28Z</time>
      </trkpt>
      <trkpt lat="45.56918" lon="6.83128">
        <ele>2140.8</ele>
        <time>2021-03-30T05:26:29Z</time>
      </trkpt>
      <trkpt lat="45.56917" lon="6.83128">
        <ele>2140.9</ele>
        <time>2021-03-30T05:26:30Z</time>
      </trkpt>
      <trkpt lat="45.56916" lon="6.83127">
        <ele>2141</ele>
        <time>2021-03-30T05:26:31Z</time>
      </trkpt>
      <trkpt lat="45.56915" lon="6.83127">
        <ele>2141.1</ele>
        <time>2021-03-30T05:26:32Z</time>
      </trkpt>
      <trkpt lat="45.56914" lon="6.83127">
        <ele>2141.2</ele>
        <time>2021-03-30T05:26:33Z</time>
      </trkpt>
      <trkpt lat="45.56913" lon="6.83127">
        <ele>2141.3</ele>
        <time>2021-03-30T05:26:34Z</time>
      </trkpt>
      <trkpt lat="45.56912" lon="6.83126">
        <ele>2141.4</ele>
        <time>2021-03-30T05:26:35Z</time>
      </trkpt>
      <trkpt lat="45.56911" lon="6.83126">
        <ele>2141.5</ele>
        <time>2021-03-30T05:26:36Z</time>
      </trkpt>
      <trkpt lat="45.5691" lon="6.83125">
        <ele>2141.6</ele>
        <time>2021-03-30T05:26:37Z</time>
      </trkpt>
      <trkpt lat="45.5691" lon="6.83125">
        <ele>2141.6</ele>
        <time>2021-03-30T05:26:38Z</time>
      </trkpt>
      <trkpt lat="45.56909" lon="6.83125">
        <ele>2141.7</ele>
        <time>2021-03-30T05:26:39Z</time>
      </trkpt>
      <trkpt lat="45.56908" lon="6.83124">
        <ele>2141.8</ele>
        <time>2021-03-30T05:26:40Z</time>
      </trkpt>
      <trkpt lat="45.56907" lon="6.83124">
        <ele>2141.9</ele>
        <time>2021-03-30T05:26:41Z</time>
      </trkpt>
      <trkpt lat="45.56906" lon="6.83123">
        <ele>2142</ele>
        <time>2021-03-30T05:26:42Z</time>
      </trkpt>
      <trkpt lat="45.56905" lon="6.83123">
        <ele>2142.1</ele>
        <time>2021-03-30T05:26:43Z</time>
      </trkpt>
      <trkpt lat="45.56904" lon="6.83122">
        <ele>2142.2</ele>
        <time>2021-03-30T05:26:44Z</time>
      </trkpt>
      <trkpt lat="45.56903" lon="6.83122">
        <ele>2142.3</ele>
        <time>2021-03-30T05:26:45Z</time>
      </trkpt>
      <trkpt lat="45.56903" lon="6.83121">
        <ele>2142.3</ele>
        <time>2021-03-30T05:26:46Z</time>
      </trkpt>
      <trkpt lat="45.56902" lon="6.83121">
        <ele>2142.4</ele>
        <time>2021-03-30T05:26:47Z</time>
      </trkpt>
      <trkpt lat="45.56901" lon="6.83121">
        <ele>2142.5</ele>
        <time>2021-03-30T05:26:48Z</time>
      </trkpt>
      <trkpt lat="45.569" lon="6.8312">
        <ele>2142.6</ele>
        <time>2021-03-30T05:26:49Z</time>
      </trkpt>
      <trkpt lat="45.56899" lon="6.8312">
        <ele>2142.6</ele>
        <time>2021-03-30T05:26:50Z</time>
      </trkpt>
      <trkpt lat="45.56898" lon="6.83119">
        <ele>2142.7</ele>
        <time>2021-03-30T05:26:51Z</time>
      </trkpt>
      <trkpt lat="45.56897" lon="6.83119">
        <ele>2142.8</ele>
        <time>2021-03-30T05:26:52Z</time>
      </trkpt>
      <trkpt lat="45.56896" lon="6.83119">
        <ele>2142.9</ele>
        <time>2021-03-30T05:26:53Z</time>
      </trkpt>
      <trkpt lat="45.56895" lon="6.83118">
        <ele>2143</ele>
        <time>2021-03-30T05:26:54Z</time>
      </trkpt>
      <trkpt lat="45.56895" lon="6.83118">
        <ele>2143.1</ele>
        <time>2021-03-30T05:26:55Z</time>
      </trkpt>
      <trkpt lat="45.56894" lon="6.83117">
        <ele>2143.2</ele>
        <time>2021-03-30T05:26:56Z</time>
      </trkpt>
      <trkpt lat="45.56893" lon="6.83117">
        <ele>2143.3</ele>
        <time>2021-03-30T05:26:57Z</time>
      </trkpt>
      <trkpt lat="45.56892" lon="6.83116">
        <ele>2143.3</ele>
        <time>2021-03-30T05:26:58Z</time>
      </trkpt>
      <trkpt lat="45.56891" lon="6.83116">
        <ele>2143.4</ele>
        <time>2021-03-30T05:26:59Z</time>
      </trkpt>
      <trkpt lat="45.5689" lon="6.83115">
        <ele>2143.5</ele>
        <time>2021-03-30T05:27:00Z</time>
      </trkpt>
      <trkpt lat="45.56889" lon="6.83115">
        <ele>2143.5</ele>
        <time>2021-03-30T05:27:01Z</time>
      </trkpt>
      <trkpt lat="45.56888" lon="6.83115">
        <ele>2143.6</ele>
        <time>2021-03-30T05:27:02Z</time>
      </trkpt>
      <trkpt lat="45.56887" lon="6.83115">
        <ele>2143.7</ele>
        <time>2021-03-30T05:27:03Z</time>
      </trkpt>
      <trkpt lat="45.56887" lon="6.83114">
        <ele>2143.8</ele>
        <time>2021-03-30T05:27:04Z</time>
      </trkpt>
      <trkpt lat="45.56886" lon="6.83114">
        <ele>2143.9</ele>
        <time>2021-03-30T05:27:05Z</time>
      </trkpt>
      <trkpt lat="45.56885" lon="6.83113">
        <ele>2143.9</ele>
        <time>2021-03-30T05:27:06Z</time>
      </trkpt>
      <trkpt lat="45.56884" lon="6.83113">
        <ele>2144</ele>
        <time>2021-03-30T05:27:07Z</time>
      </trkpt>
      <trkpt lat="45.56883" lon="6.83112">
        <ele>2144.1</ele>
        <time>2021-03-30T05:27:08Z</time>
      </trkpt>
      <trkpt lat="45.56882" lon="6.83111">
        <ele>2144.2</ele>
        <time>2021-03-30T05:27:09Z</time>
      </trkpt>
      <trkpt lat="45.56881" lon="6.83111">
        <ele>2144.2</ele>
        <time>2021-03-30T05:27:10Z</time>
      </trkpt>
      <trkpt lat="45.5688" lon="6.8311">
        <ele>2144.3</ele>
        <time>2021-03-30T05:27:11Z</time>
      </trkpt>
      <trkpt lat="45.56879" lon="6.8311">
        <ele>2144.4</ele>
        <time>2021-03-30T05:27:12Z</time>
      </trkpt>
      <trkpt lat="45.56878" lon="6.8311">
        <ele>2144.5</ele>
        <time>2021-03-30T05:27:13Z</time>
      </trkpt>
      <trkpt lat="45.56877" lon="6.83109">
        <ele>2144.6</ele>
        <time>2021-03-30T05:27:14Z</time>
      </trkpt>
      <trkpt lat="45.56876" lon="6.83109">
        <ele>2144.7</ele>
        <time>2021-03-30T05:27:15Z</time>
      </trkpt>
      <trkpt lat="45.56875" lon="6.83109">
        <ele>2144.7</ele>
        <time>2021-03-30T05:27:16Z</time>
      </trkpt>
      <trkpt lat="45.56874" lon="6.83108">
        <ele>2144.8</ele>
        <time>2021-03-30T05:27:17Z</time>
      </trkpt>
      <trkpt lat="45.56874" lon="6.83108">
        <ele>2144.9</ele>
        <time>2021-03-30T05:27:18Z</time>
      </trkpt>
      <trkpt lat="45.56873" lon="6.83108">
        <ele>2145</ele>
        <time>2021-03-30T05:27:19Z</time>
      </trkpt>
      <trkpt lat="45.56872" lon="6.83107">
        <ele>2145</ele>
        <time>2021-03-30T05:27:20Z</time>
      </trkpt>
      <trkpt lat="45.56871" lon="6.83107">
        <ele>2145.1</ele>
        <time>2021-03-30T05:27:21Z</time>
      </trkpt>
      <trkpt lat="45.5687" lon="6.83106">
        <ele>2145.2</ele>
        <time>2021-03-30T05:27:22Z</time>
      </trkpt>
      <trkpt lat="45.56869" lon="6.83106">
        <ele>2145.3</ele>
        <time>2021-03-30T05:27:23Z</time>
      </trkpt>
      <trkpt lat="45.56868" lon="6.83106">
        <ele>2145.3</ele>
        <time>2021-03-30T05:27:24Z</time>
      </trkpt>
      <trkpt lat="45.56867" lon="6.83105">
        <ele>2145.4</ele>
        <time>2021-03-30T05:27:25Z</time>
      </trkpt>
      <trkpt lat="45.56866" lon="6.83105">
        <ele>2145.5</ele>
        <time>2021-03-30T05:27:26Z</time>
      </trkpt>
      <trkpt lat="45.56865" lon="6.83105">
        <ele>2145.6</ele>
        <time>2021-03-30T05:27:27Z</time>
      </trkpt>
      <trkpt lat="45.56864" lon="6.83104">
        <ele>2145.6</ele>
        <time>2021-03-30T05:27:28Z</time>
      </trkpt>
      <trkpt lat="45.56864" lon="6.83104">
        <ele>2145.7</ele>
        <time>2021-03-30T05:27:29Z</time>
      </trkpt>
      <trkpt lat="45.56863" lon="6.83104">
        <ele>2145.8</ele>
        <time>2021-03-30T05:27:30Z</time>
      </trkpt>
      <trkpt lat="45.56862" lon="6.83104">
        <ele>2145.8</ele>
        <time>2021-03-30T05:27:31Z</time>
      </trkpt>
      <trkpt lat="45.56861" lon="6.83103">
        <ele>2145.9</ele>
        <time>2021-03-30T05:27:32Z</time>
      </trkpt>
      <trkpt lat="45.5686" lon="6.83103">
        <ele>2146</ele>
        <time>2021-03-30T05:27:33Z</time>
      </trkpt>
      <trkpt lat="45.56859" lon="6.83103">
        <ele>2146</ele>
        <time>2021-03-30T05:27:34Z</time>
      </trkpt>
      <trkpt lat="45.56859" lon="6.83102">
        <ele>2146</ele>
        <time>2021-03-30T05:27:35Z</time>
      </trkpt>
      <trkpt lat="45.56859" lon="6.83102">
        <ele>2146</ele>
        <time>2021-03-30T05:27:36Z</time>
      </trkpt>
      <trkpt lat="45.56859" lon="6.83102">
        <ele>2146.1</ele>
        <time>2021-03-30T05:27:37Z</time>
      </trkpt>
      <trkpt lat="45.56858" lon="6.83102">
        <ele>2146.2</ele>
        <time>2021-03-30T05:27:38Z</time>
      </trkpt>
      <trkpt lat="45.56857" lon="6.83102">
        <ele>2146.2</ele>
        <time>2021-03-30T05:27:39Z</time>
      </trkpt>
      <trkpt lat="45.56856" lon="6.83101">
        <ele>2146.3</ele>
        <time>2021-03-30T05:27:40Z</time>
      </trkpt>
      <trkpt lat="45.56855" lon="6.83101">
        <ele>2146.4</ele>
        <time>2021-03-30T05:27:41Z</time>
      </trkpt>
      <trkpt lat="45.56854" lon="6.831">
        <ele>2146.5</ele>
        <time>2021-03-30T05:27:42Z</time>
      </trkpt>
      <trkpt lat="45.56853" lon="6.83099">
        <ele>2146.5</ele>
        <time>2021-03-30T05:27:43Z</time>
      </trkpt>
      <trkpt lat="45.56853" lon="6.83099">
        <ele>2146.6</ele>
        <time>2021-03-30T05:27:44Z</time>
      </trkpt>
      <trkpt lat="45.56852" lon="6.83098">
        <ele>2146.7</ele>
        <time>2021-03-30T05:27:45Z</time>
      </trkpt>
      <trkpt lat="45.56851" lon="6.83098">
        <ele>2146.7</ele>
        <time>2021-03-30T05:27:46Z</time>
      </trkpt>
      <trkpt lat="45.56851" lon="6.83097">
        <ele>2146.8</ele>
        <time>2021-03-30T05:27:47Z</time>
      </trkpt>
      <trkpt lat="45.5685" lon="6.83097">
        <ele>2146.8</ele>
        <time>2021-03-30T05:27:48Z</time>
      </trkpt>
      <trkpt lat="45.56849" lon="6.83096">
        <ele>2146.9</ele>
        <time>2021-03-30T05:27:49Z</time>
      </trkpt>
      <trkpt lat="45.56848" lon="6.83096">
        <ele>2147</ele>
        <time>2021-03-30T05:27:50Z</time>
      </trkpt>
      <trkpt lat="45.56847" lon="6.83095">
        <ele>2147.1</ele>
        <time>2021-03-30T05:27:51Z</time>
      </trkpt>
      <trkpt lat="45.56846" lon="6.83094">
        <ele>2147.2</ele>
        <time>2021-03-30T05:27:52Z</time>
      </trkpt>
      <trkpt lat="45.56845" lon="6.83094">
        <ele>2147.2</ele>
        <time>2021-03-30T05:27:53Z</time>
      </trkpt>
      <trkpt lat="45.56844" lon="6.83094">
        <ele>2147.3</ele>
        <time>2021-03-30T05:27:54Z</time>
      </trkpt>
      <trkpt lat="45.56843" lon="6.83093">
        <ele>2147.4</ele>
        <time>2021-03-30T05:27:55Z</time>
      </trkpt>
      <trkpt lat="45.56842" lon="6.83093">
        <ele>2147.5</ele>
        <time>2021-03-30T05:27:56Z</time>
      </trkpt>
      <trkpt lat="45.56842" lon="6.83092">
        <ele>2147.5</ele>
        <time>2021-03-30T05:27:57Z</time>
      </trkpt>
      <trkpt lat="45.56841" lon="6.83091">
        <ele>2147.6</ele>
        <time>2021-03-30T05:27:58Z</time>
      </trkpt>
      <trkpt lat="45.5684" lon="6.83091">
        <ele>2147.7</ele>
        <time>2021-03-30T05:27:59Z</time>
      </trkpt>
      <trkpt lat="45.56839" lon="6.83091">
        <ele>2147.7</ele>
        <time>2021-03-30T05:28:00Z</time>
      </trkpt>
      <trkpt lat="45.56839" lon="6.8309">
        <ele>2147.8</ele>
        <time>2021-03-30T05:28:01Z</time>
      </trkpt>
      <trkpt lat="45.56838" lon="6.83089">
        <ele>2147.9</ele>
        <time>2021-03-30T05:28:02Z</time>
      </trkpt>
      <trkpt lat="45.56837" lon="6.83089">
        <ele>2148</ele>
        <time>2021-03-30T05:28:03Z</time>
      </trkpt>
      <trkpt lat="45.56836" lon="6.83088">
        <ele>2148</ele>
        <time>2021-03-30T05:28:04Z</time>
      </trkpt>
      <trkpt lat="45.56835" lon="6.83088">
        <ele>2148.1</ele>
        <time>2021-03-30T05:28:05Z</time>
      </trkpt>
      <trkpt lat="45.56834" lon="6.83087">
        <ele>2148.2</ele>
        <time>2021-03-30T05:28:06Z</time>
      </trkpt>
      <trkpt lat="45.56833" lon="6.83087">
        <ele>2148.3</ele>
        <time>2021-03-30T05:28:07Z</time>
      </trkpt>
      <trkpt lat="45.56832" lon="6.83086">
        <ele>2148.4</ele>
        <time>2021-03-30T05:28:08Z</time>
      </trkpt>
      <trkpt lat="45.56832" lon="6.83086">
        <ele>2148.5</ele>
        <time>2021-03-30T05:28:09Z</time>
      </trkpt>
      <trkpt lat="45.56831" lon="6.83086">
        <ele>2148.6</ele>
        <time>2021-03-30T05:28:10Z</time>
      </trkpt>
      <trkpt lat="45.5683" lon="6.83085">
        <ele>2148.6</ele>
        <time>2021-03-30T05:28:11Z</time>
      </trkpt>
      <trkpt lat="45.56829" lon="6.83085">
        <ele>2148.7</ele>
        <time>2021-03-30T05:28:12Z</time>
      </trkpt>
      <trkpt lat="45.56828" lon="6.83084">
        <ele>2148.8</ele>
        <time>2021-03-30T05:28:13Z</time>
      </trkpt>
      <trkpt lat="45.56827" lon="6.83084">
        <ele>2148.9</ele>
        <time>2021-03-30T05:28:14Z</time>
      </trkpt>
      <trkpt lat="45.56826" lon="6.83083">
        <ele>2149</ele>
        <time>2021-03-30T05:28:15Z</time>
      </trkpt>
      <trkpt lat="45.56825" lon="6.83083">
        <ele>2149.1</ele>
        <time>2021-03-30T05:28:16Z</time>
      </trkpt>
      <trkpt lat="45.56824" lon="6.83082">
        <ele>2149.2</ele>
        <time>2021-03-30T05:28:17Z</time>
      </trkpt>
      <trkpt lat="45.56823" lon="6.83082">
        <ele>2149.3</ele>
        <time>2021-03-30T05:28:18Z</time>
      </trkpt>
      <trkpt lat="45.56822" lon="6.83081">
        <ele>2149.4</ele>
        <time>2021-03-30T05:28:19Z</time>
      </trkpt>
      <trkpt lat="45.56822" lon="6.83081">
        <ele>2149.4</ele>
        <time>2021-03-30T05:28:20Z</time>
      </trkpt>
      <trkpt lat="45.56821" lon="6.8308">
        <ele>2149.5</ele>
        <time>2021-03-30T05:28:21Z</time>
      </trkpt>
      <trkpt lat="45.5682" lon="6.8308">
        <ele>2149.6</ele>
        <time>2021-03-30T05:28:22Z</time>
      </trkpt>
      <trkpt lat="45.5682" lon="6.83079">
        <ele>2149.6</ele>
        <time>2021-03-30T05:28:23Z</time>
      </trkpt>
      <trkpt lat="45.56819" lon="6.83079">
        <ele>2149.7</ele>
        <time>2021-03-30T05:28:24Z</time>
      </trkpt>
      <trkpt lat="45.56818" lon="6.83078">
        <ele>2149.8</ele>
        <time>2021-03-30T05:28:25Z</time>
      </trkpt>
      <trkpt lat="45.56817" lon="6.83078">
        <ele>2149.9</ele>
        <time>2021-03-30T05:28:26Z</time>
      </trkpt>
      <trkpt lat="45.56816" lon="6.83077">
        <ele>2150</ele>
        <time>2021-03-30T05:28:27Z</time>
      </trkpt>
      <trkpt lat="45.56816" lon="6.83076">
        <ele>2150.1</ele>
        <time>2021-03-30T05:28:28Z</time>
      </trkpt>
      <trkpt lat="45.56815" lon="6.83076">
        <ele>2150.2</ele>
        <time>2021-03-30T05:28:29Z</time>
      </trkpt>
      <trkpt lat="45.56814" lon="6.83075">
        <ele>2150.2</ele>
        <time>2021-03-30T05:28:30Z</time>
      </trkpt>
      <trkpt lat="45.56813" lon="6.83075">
        <ele>2150.3</ele>
        <time>2021-03-30T05:28:31Z</time>
      </trkpt>
      <trkpt lat="45.56812" lon="6.83074">
        <ele>2150.4</ele>
        <time>2021-03-30T05:28:32Z</time>
      </trkpt>
      <trkpt lat="45.56811" lon="6.83073">
        <ele>2150.5</ele>
        <time>2021-03-30T05:28:33Z</time>
      </trkpt>
      <trkpt lat="45.5681" lon="6.83073">
        <ele>2150.7</ele>
        <time>2021-03-30T05:28:34Z</time>
      </trkpt>
      <trkpt lat="45.56809" lon="6.83072">
        <ele>2150.7</ele>
        <time>2021-03-30T05:28:35Z</time>
      </trkpt>
      <trkpt lat="45.56808" lon="6.83072">
        <ele>2150.8</ele>
        <time>2021-03-30T05:28:36Z</time>
      </trkpt>
      <trkpt lat="45.56808" lon="6.83071">
        <ele>2150.8</ele>
        <time>2021-03-30T05:28:37Z</time>
      </trkpt>
      <trkpt lat="45.56807" lon="6.83071">
        <ele>2150.9</ele>
        <time>2021-03-30T05:28:38Z</time>
      </trkpt>
      <trkpt lat="45.56806" lon="6.8307">
        <ele>2151</ele>
        <time>2021-03-30T05:28:39Z</time>
      </trkpt>
      <trkpt lat="45.56805" lon="6.83069">
        <ele>2151.1</ele>
        <time>2021-03-30T05:28:40Z</time>
      </trkpt>
      <trkpt lat="45.56804" lon="6.83069">
        <ele>2151.2</ele>
        <time>2021-03-30T05:28:41Z</time>
      </trkpt>
      <trkpt lat="45.56804" lon="6.83068">
        <ele>2151.2</ele>
        <time>2021-03-30T05:28:42Z</time>
      </trkpt>
      <trkpt lat="45.56803" lon="6.83068">
        <ele>2151.3</ele>
        <time>2021-03-30T05:28:43Z</time>
      </trkpt>
      <trkpt lat="45.56802" lon="6.83067">
        <ele>2151.4</ele>
        <time>2021-03-30T05:28:44Z</time>
      </trkpt>
      <trkpt lat="45.56801" lon="6.83066">
        <ele>2151.5</ele>
        <time>2021-03-30T05:28:45Z</time>
      </trkpt>
      <trkpt lat="45.568" lon="6.83066">
        <ele>2151.6</ele>
        <time>2021-03-30T05:28:46Z</time>
      </trkpt>
      <trkpt lat="45.56799" lon="6.83065">
        <ele>2151.6</ele>
        <time>2021-03-30T05:28:47Z</time>
      </trkpt>
      <trkpt lat="45.56799" lon="6.83065">
        <ele>2151.7</ele>
        <time>2021-03-30T05:28:48Z</time>
      </trkpt>
      <trkpt lat="45.56798" lon="6.83065">
        <ele>2151.8</ele>
        <time>2021-03-30T05:28:49Z</time>
      </trkpt>
      <trkpt lat="45.56797" lon="6.83064">
        <ele>2151.8</ele>
        <time>2021-03-30T05:28:50Z</time>
      </trkpt>
      <trkpt lat="45.56796" lon="6.83063">
        <ele>2151.9</ele>
        <time>2021-03-30T05:28:51Z</time>
      </trkpt>
      <trkpt lat="45.56795" lon="6.83063">
        <ele>2152</ele>
        <time>2021-03-30T05:28:52Z</time>
      </trkpt>
      <trkpt lat="45.56795" lon="6.83062">
        <ele>2152.1</ele>
        <time>2021-03-30T05:28:53Z</time>
      </trkpt>
      <trkpt lat="45.56794" lon="6.83062">
        <ele>2152.1</ele>
        <time>2021-03-30T05:28:54Z</time>
      </trkpt>
      <trkpt lat="45.56793" lon="6.83061">
        <ele>2152.2</ele>
        <time>2021-03-30T05:28:55Z</time>
      </trkpt>
      <trkpt lat="45.56793" lon="6.83061">
        <ele>2152.3</ele>
        <time>2021-03-30T05:28:56Z</time>
      </trkpt>
      <trkpt lat="45.56792" lon="6.8306">
        <ele>2152.3</ele>
        <time>2021-03-30T05:28:57Z</time>
      </trkpt>
      <trkpt lat="45.56791" lon="6.83059">
        <ele>2152.4</ele>
        <time>2021-03-30T05:28:58Z</time>
      </trkpt>
      <trkpt lat="45.5679" lon="6.83058">
        <ele>2152.5</ele>
        <time>2021-03-30T05:28:59Z</time>
      </trkpt>
      <trkpt lat="45.5679" lon="6.83057">
        <ele>2152.6</ele>
        <time>2021-03-30T05:29:00Z</time>
      </trkpt>
      <trkpt lat="45.56789" lon="6.83056">
        <ele>2152.7</ele>
        <time>2021-03-30T05:29:01Z</time>
      </trkpt>
      <trkpt lat="45.56788" lon="6.83056">
        <ele>2152.7</ele>
        <time>2021-03-30T05:29:02Z</time>
      </trkpt>
      <trkpt lat="45.56788" lon="6.83055">
        <ele>2152.8</ele>
        <time>2021-03-30T05:29:03Z</time>
      </trkpt>
      <trkpt lat="45.56787" lon="6.83054">
        <ele>2152.9</ele>
        <time>2021-03-30T05:29:04Z</time>
      </trkpt>
      <trkpt lat="45.56786" lon="6.83054">
        <ele>2153</ele>
        <time>2021-03-30T05:29:05Z</time>
      </trkpt>
      <trkpt lat="45.56785" lon="6.83053">
        <ele>2153</ele>
        <time>2021-03-30T05:29:06Z</time>
      </trkpt>
      <trkpt lat="45.56785" lon="6.83052">
        <ele>2153.1</ele>
        <time>2021-03-30T05:29:07Z</time>
      </trkpt>
      <trkpt lat="45.56783" lon="6.83051">
        <ele>2153.2</ele>
        <time>2021-03-30T05:29:08Z</time>
      </trkpt>
      <trkpt lat="45.56783" lon="6.8305">
        <ele>2153.3</ele>
        <time>2021-03-30T05:29:09Z</time>
      </trkpt>
      <trkpt lat="45.56782" lon="6.8305">
        <ele>2153.4</ele>
        <time>2021-03-30T05:29:10Z</time>
      </trkpt>
      <trkpt lat="45.56782" lon="6.83049">
        <ele>2153.4</ele>
        <time>2021-03-30T05:29:11Z</time>
      </trkpt>
      <trkpt lat="45.56781" lon="6.83048">
        <ele>2153.5</ele>
        <time>2021-03-30T05:29:12Z</time>
      </trkpt>
      <trkpt lat="45.5678" lon="6.83048">
        <ele>2153.6</ele>
        <time>2021-03-30T05:29:13Z</time>
      </trkpt>
      <trkpt lat="45.56779" lon="6.83047">
        <ele>2153.6</ele>
        <time>2021-03-30T05:29:14Z</time>
      </trkpt>
      <trkpt lat="45.56779" lon="6.83047">
        <ele>2153.7</ele>
        <time>2021-03-30T05:29:15Z</time>
      </trkpt>
      <trkpt lat="45.56778" lon="6.83046">
        <ele>2153.8</ele>
        <time>2021-03-30T05:29:16Z</time>
      </trkpt>
      <trkpt lat="45.56777" lon="6.83045">
        <ele>2153.8</ele>
        <time>2021-03-30T05:29:17Z</time>
      </trkpt>
      <trkpt lat="45.56776" lon="6.83044">
        <ele>2153.9</ele>
        <time>2021-03-30T05:29:18Z</time>
      </trkpt>
      <trkpt lat="45.56776" lon="6.83043">
        <ele>2154</ele>
        <time>2021-03-30T05:29:19Z</time>
      </trkpt>
      <trkpt lat="45.56775" lon="6.83042">
        <ele>2154.1</ele>
        <time>2021-03-30T05:29:20Z</time>
      </trkpt>
      <trkpt lat="45.56774" lon="6.83041">
        <ele>2154.1</ele>
        <time>2021-03-30T05:29:21Z</time>
      </trkpt>
      <trkpt lat="45.56774" lon="6.8304">
        <ele>2154.2</ele>
        <time>2021-03-30T05:29:22Z</time>
      </trkpt>
      <trkpt lat="45.56773" lon="6.83039">
        <ele>2154.3</ele>
        <time>2021-03-30T05:29:23Z</time>
      </trkpt>
      <trkpt lat="45.56773" lon="6.83038">
        <ele>2154.3</ele>
        <time>2021-03-30T05:29:24Z</time>
      </trkpt>
      <trkpt lat="45.56772" lon="6.83037">
        <ele>2154.4</ele>
        <time>2021-03-30T05:29:25Z</time>
      </trkpt>
      <trkpt lat="45.56772" lon="6.83036">
        <ele>2154.5</ele>
        <time>2021-03-30T05:29:26Z</time>
      </trkpt>
      <trkpt lat="45.56771" lon="6.83035">
        <ele>2154.5</ele>
        <time>2021-03-30T05:29:27Z</time>
      </trkpt>
      <trkpt lat="45.56771" lon="6.83034">
        <ele>2154.6</ele>
        <time>2021-03-30T05:29:28Z</time>
      </trkpt>
      <trkpt lat="45.5677" lon="6.83033">
        <ele>2154.6</ele>
        <time>2021-03-30T05:29:29Z</time>
      </trkpt>
      <trkpt lat="45.5677" lon="6.83032">
        <ele>2154.7</ele>
        <time>2021-03-30T05:29:30Z</time>
      </trkpt>
      <trkpt lat="45.56769" lon="6.83031">
        <ele>2154.8</ele>
        <time>2021-03-30T05:29:31Z</time>
      </trkpt>
      <trkpt lat="45.56768" lon="6.8303">
        <ele>2154.8</ele>
        <time>2021-03-30T05:29:32Z</time>
      </trkpt>
      <trkpt lat="45.56768" lon="6.83029">
        <ele>2154.9</ele>
        <time>2021-03-30T05:29:33Z</time>
      </trkpt>
      <trkpt lat="45.56767" lon="6.83028">
        <ele>2155</ele>
        <time>2021-03-30T05:29:34Z</time>
      </trkpt>
      <trkpt lat="45.56766" lon="6.83027">
        <ele>2155</ele>
        <time>2021-03-30T05:29:35Z</time>
      </trkpt>
      <trkpt lat="45.56766" lon="6.83026">
        <ele>2155.1</ele>
        <time>2021-03-30T05:29:36Z</time>
      </trkpt>
      <trkpt lat="45.56765" lon="6.83024">
        <ele>2155.2</ele>
        <time>2021-03-30T05:29:37Z</time>
      </trkpt>
      <trkpt lat="45.56765" lon="6.83023">
        <ele>2155.2</ele>
        <time>2021-03-30T05:29:38Z</time>
      </trkpt>
      <trkpt lat="45.56764" lon="6.83022">
        <ele>2155.3</ele>
        <time>2021-03-30T05:29:39Z</time>
      </trkpt>
      <trkpt lat="45.56763" lon="6.83021">
        <ele>2155.3</ele>
        <time>2021-03-30T05:29:40Z</time>
      </trkpt>
      <trkpt lat="45.56763" lon="6.8302">
        <ele>2155.4</ele>
        <time>2021-03-30T05:29:41Z</time>
      </trkpt>
      <trkpt lat="45.56762" lon="6.83019">
        <ele>2155.5</ele>
        <time>2021-03-30T05:29:42Z</time>
      </trkpt>
      <trkpt lat="45.56762" lon="6.83018">
        <ele>2155.5</ele>
        <time>2021-03-30T05:29:43Z</time>
      </trkpt>
      <trkpt lat="45.56761" lon="6.83017">
        <ele>2155.6</ele>
        <time>2021-03-30T05:29:44Z</time>
      </trkpt>
      <trkpt lat="45.5676" lon="6.83016">
        <ele>2155.7</ele>
        <time>2021-03-30T05:29:45Z</time>
      </trkpt>
      <trkpt lat="45.5676" lon="6.83014">
        <ele>2155.7</ele>
        <time>2021-03-30T05:29:46Z</time>
      </trkpt>
      <trkpt lat="45.56759" lon="6.83013">
        <ele>2155.8</ele>
        <time>2021-03-30T05:29:47Z</time>
      </trkpt>
      <trkpt lat="45.56759" lon="6.83013">
        <ele>2155.8</ele>
        <time>2021-03-30T05:29:48Z</time>
      </trkpt>
      <trkpt lat="45.56758" lon="6.83012">
        <ele>2155.9</ele>
        <time>2021-03-30T05:29:49Z</time>
      </trkpt>
      <trkpt lat="45.56757" lon="6.83011">
        <ele>2155.9</ele>
        <time>2021-03-30T05:29:50Z</time>
      </trkpt>
      <trkpt lat="45.56757" lon="6.8301">
        <ele>2156</ele>
        <time>2021-03-30T05:29:51Z</time>
      </trkpt>
      <trkpt lat="45.56756" lon="6.83009">
        <ele>2156.1</ele>
        <time>2021-03-30T05:29:52Z</time>
      </trkpt>
      <trkpt lat="45.56756" lon="6.83009">
        <ele>2156.1</ele>
        <time>2021-03-30T05:29:53Z</time>
      </trkpt>
      <trkpt lat="45.56755" lon="6.83008">
        <ele>2156.1</ele>
        <time>2021-03-30T05:29:54Z</time>
      </trkpt>
      <trkpt lat="45.56754" lon="6.83006">
        <ele>2156.1</ele>
        <time>2021-03-30T05:29:55Z</time>
      </trkpt>
      <trkpt lat="45.56754" lon="6.83005">
        <ele>2156.1</ele>
        <time>2021-03-30T05:29:56Z</time>
      </trkpt>
      <trkpt lat="45.56753" lon="6.83003">
        <ele>2156.1</ele>
        <time>2021-03-30T05:29:57Z</time>
      </trkpt>
      <trkpt lat="45.56752" lon="6.83002">
        <ele>2156.1</ele>
        <time>2021-03-30T05:29:58Z</time>
      </trkpt>
      <trkpt lat="45.56752" lon="6.83001">
        <ele>2156.1</ele>
        <time>2021-03-30T05:29:59Z</time>
      </trkpt>
      <trkpt lat="45.56751" lon="6.82999">
        <ele>2156.1</ele>
        <time>2021-03-30T05:30:00Z</time>
      </trkpt>
      <trkpt lat="45.56751" lon="6.82998">
        <ele>2156.1</ele>
        <time>2021-03-30T05:30:01Z</time>
      </trkpt>
      <trkpt lat="45.5675" lon="6.82996">
        <ele>2156.1</ele>
        <time>2021-03-30T05:30:02Z</time>
      </trkpt>
      <trkpt lat="45.5675" lon="6.82995">
        <ele>2156.1</ele>
        <time>2021-03-30T05:30:03Z</time>
      </trkpt>
      <trkpt lat="45.56749" lon="6.82993">
        <ele>2156.1</ele>
        <time>2021-03-30T05:30:04Z</time>
      </trkpt>
      <trkpt lat="45.56749" lon="6.82992">
        <ele>2156.2</ele>
        <time>2021-03-30T05:30:05Z</time>
      </trkpt>
      <trkpt lat="45.56749" lon="6.8299">
        <ele>2156.3</ele>
        <time>2021-03-30T05:30:06Z</time>
      </trkpt>
      <trkpt lat="45.56748" lon="6.82989">
        <ele>2156.4</ele>
        <time>2021-03-30T05:30:07Z</time>
      </trkpt>
      <trkpt lat="45.56748" lon="6.82987">
        <ele>2156.5</ele>
        <time>2021-03-30T05:30:08Z</time>
      </trkpt>
      <trkpt lat="45.56748" lon="6.82985">
        <ele>2156.6</ele>
        <time>2021-03-30T05:30:09Z</time>
      </trkpt>
      <trkpt lat="45.56747" lon="6.82984">
        <ele>2156.6</ele>
        <time>2021-03-30T05:30:10Z</time>
      </trkpt>
      <trkpt lat="45.56747" lon="6.82983">
        <ele>2156.7</ele>
        <time>2021-03-30T05:30:11Z</time>
      </trkpt>
      <trkpt lat="45.56747" lon="6.82981">
        <ele>2156.8</ele>
        <time>2021-03-30T05:30:12Z</time>
      </trkpt>
      <trkpt lat="45.56747" lon="6.8298">
        <ele>2156.9</ele>
        <time>2021-03-30T05:30:13Z</time>
      </trkpt>
      <trkpt lat="45.56747" lon="6.82978">
        <ele>2156.9</ele>
        <time>2021-03-30T05:30:14Z</time>
      </trkpt>
      <trkpt lat="45.56747" lon="6.82976">
        <ele>2157</ele>
        <time>2021-03-30T05:30:15Z</time>
      </trkpt>
      <trkpt lat="45.56747" lon="6.82975">
        <ele>2157.1</ele>
        <time>2021-03-30T05:30:16Z</time>
      </trkpt>
      <trkpt lat="45.56747" lon="6.82974">
        <ele>2157.2</ele>
        <time>2021-03-30T05:30:17Z</time>
      </trkpt>
      <trkpt lat="45.56747" lon="6.82972">
        <ele>2157.2</ele>
        <time>2021-03-30T05:30:18Z</time>
      </trkpt>
      <trkpt lat="45.56747" lon="6.82971">
        <ele>2157.3</ele>
        <time>2021-03-30T05:30:19Z</time>
      </trkpt>
      <trkpt lat="45.56747" lon="6.82971">
        <ele>2157.3</ele>
        <time>2021-03-30T05:30:20Z</time>
      </trkpt>
      <trkpt lat="45.56747" lon="6.8297">
        <ele>2157.4</ele>
        <time>2021-03-30T05:30:21Z</time>
      </trkpt>
      <trkpt lat="45.56747" lon="6.82969">
        <ele>2157.4</ele>
        <time>2021-03-30T05:30:22Z</time>
      </trkpt>
      <trkpt lat="45.56747" lon="6.82969">
        <ele>2157.4</ele>
        <time>2021-03-30T05:30:23Z</time>
      </trkpt>
      <trkpt lat="45.56747" lon="6.82968">
        <ele>2157.5</ele>
        <time>2021-03-30T05:30:24Z</time>
      </trkpt>
      <trkpt lat="45.56746" lon="6.82967">
        <ele>2157.5</ele>
        <time>2021-03-30T05:30:25Z</time>
      </trkpt>
      <trkpt lat="45.56746" lon="6.82967">
        <ele>2157.5</ele>
        <time>2021-03-30T05:30:26Z</time>
      </trkpt>
      <trkpt lat="45.56746" lon="6.82966">
        <ele>2157.6</ele>
        <time>2021-03-30T05:30:27Z</time>
      </trkpt>
      <trkpt lat="45.56746" lon="6.82966">
        <ele>2157.6</ele>
        <time>2021-03-30T05:30:28Z</time>
      </trkpt>
      <trkpt lat="45.56746" lon="6.82965">
        <ele>2157.6</ele>
        <time>2021-03-30T05:30:55Z</time>
      </trkpt>
      <trkpt lat="45.56746" lon="6.82964">
        <ele>2157.7</ele>
        <time>2021-03-30T05:30:56Z</time>
      </trkpt>
      <trkpt lat="45.56746" lon="6.82964">
        <ele>2157.7</ele>
        <time>2021-03-30T05:30:57Z</time>
      </trkpt>
      <trkpt lat="45.56747" lon="6.82962">
        <ele>2157.8</ele>
        <time>2021-03-30T05:30:58Z</time>
      </trkpt>
      <trkpt lat="45.56747" lon="6.82961">
        <ele>2157.9</ele>
        <time>2021-03-30T05:30:59Z</time>
      </trkpt>
      <trkpt lat="45.56747" lon="6.82959">
        <ele>2158</ele>
        <time>2021-03-30T05:31:00Z</time>
      </trkpt>
      <trkpt lat="45.56747" lon="6.82958">
        <ele>2158</ele>
        <time>2021-03-30T05:31:01Z</time>
      </trkpt>
      <trkpt lat="45.56747" lon="6.82957">
        <ele>2158.1</ele>
        <time>2021-03-30T05:31:02Z</time>
      </trkpt>
      <trkpt lat="45.56747" lon="6.82956">
        <ele>2158.2</ele>
        <time>2021-03-30T05:31:03Z</time>
      </trkpt>
      <trkpt lat="45.56747" lon="6.82954">
        <ele>2158.2</ele>
        <time>2021-03-30T05:31:04Z</time>
      </trkpt>
      <trkpt lat="45.56747" lon="6.82953">
        <ele>2158.3</ele>
        <time>2021-03-30T05:31:05Z</time>
      </trkpt>
      <trkpt lat="45.56747" lon="6.82952">
        <ele>2158.4</ele>
        <time>2021-03-30T05:31:06Z</time>
      </trkpt>
      <trkpt lat="45.56747" lon="6.8295">
        <ele>2158.5</ele>
        <time>2021-03-30T05:31:07Z</time>
      </trkpt>
      <trkpt lat="45.56747" lon="6.82948">
        <ele>2158.6</ele>
        <time>2021-03-30T05:31:08Z</time>
      </trkpt>
      <trkpt lat="45.56747" lon="6.82947">
        <ele>2158.6</ele>
        <time>2021-03-30T05:31:09Z</time>
      </trkpt>
      <trkpt lat="45.56747" lon="6.82945">
        <ele>2158.8</ele>
        <time>2021-03-30T05:31:10Z</time>
      </trkpt>
      <trkpt lat="45.56747" lon="6.82943">
        <ele>2158.9</ele>
        <time>2021-03-30T05:31:11Z</time>
      </trkpt>
      <trkpt lat="45.56747" lon="6.82941">
        <ele>2159</ele>
        <time>2021-03-30T05:31:12Z</time>
      </trkpt>
      <trkpt lat="45.56746" lon="6.82939">
        <ele>2159.1</ele>
        <time>2021-03-30T05:31:13Z</time>
      </trkpt>
      <trkpt lat="45.56746" lon="6.82938">
        <ele>2159.1</ele>
        <time>2021-03-30T05:31:14Z</time>
      </trkpt>
      <trkpt lat="45.56746" lon="6.82936">
        <ele>2159.2</ele>
        <time>2021-03-30T05:31:15Z</time>
      </trkpt>
      <trkpt lat="45.56746" lon="6.82935">
        <ele>2159.3</ele>
        <time>2021-03-30T05:31:16Z</time>
      </trkpt>
      <trkpt lat="45.56746" lon="6.82933">
        <ele>2159.4</ele>
        <time>2021-03-30T05:31:17Z</time>
      </trkpt>
      <trkpt lat="45.56746" lon="6.82932">
        <ele>2159.5</ele>
        <time>2021-03-30T05:31:18Z</time>
      </trkpt>
      <trkpt lat="45.56746" lon="6.82931">
        <ele>2159.5</ele>
        <time>2021-03-30T05:31:19Z</time>
      </trkpt>
      <trkpt lat="45.56746" lon="6.8293">
        <ele>2159.6</ele>
        <time>2021-03-30T05:31:20Z</time>
      </trkpt>
      <trkpt lat="45.56746" lon="6.82929">
        <ele>2159.6</ele>
        <time>2021-03-30T05:31:21Z</time>
      </trkpt>
      <trkpt lat="45.56746" lon="6.82927">
        <ele>2159.7</ele>
        <time>2021-03-30T05:31:22Z</time>
      </trkpt>
      <trkpt lat="45.56746" lon="6.82926">
        <ele>2159.8</ele>
        <time>2021-03-30T05:31:23Z</time>
      </trkpt>
      <trkpt lat="45.56746" lon="6.82925">
        <ele>2159.8</ele>
        <time>2021-03-30T05:31:24Z</time>
      </trkpt>
      <trkpt lat="45.56746" lon="6.82924">
        <ele>2159.9</ele>
        <time>2021-03-30T05:31:25Z</time>
      </trkpt>
      <trkpt lat="45.56746" lon="6.82923">
        <ele>2160</ele>
        <time>2021-03-30T05:31:26Z</time>
      </trkpt>
      <trkpt lat="45.56746" lon="6.82921">
        <ele>2160</ele>
        <time>2021-03-30T05:31:27Z</time>
      </trkpt>
      <trkpt lat="45.56745" lon="6.8292">
        <ele>2160.1</ele>
        <time>2021-03-30T05:31:28Z</time>
      </trkpt>
      <trkpt lat="45.56745" lon="6.82918">
        <ele>2160.2</ele>
        <time>2021-03-30T05:31:29Z</time>
      </trkpt>
      <trkpt lat="45.56745" lon="6.82917">
        <ele>2160.2</ele>
        <time>2021-03-30T05:31:30Z</time>
      </trkpt>
      <trkpt lat="45.56744" lon="6.82916">
        <ele>2160.3</ele>
        <time>2021-03-30T05:31:31Z</time>
      </trkpt>
      <trkpt lat="45.56744" lon="6.82915">
        <ele>2160.4</ele>
        <time>2021-03-30T05:31:32Z</time>
      </trkpt>
      <trkpt lat="45.56743" lon="6.82914">
        <ele>2160.4</ele>
        <time>2021-03-30T05:31:33Z</time>
      </trkpt>
      <trkpt lat="45.56743" lon="6.82913">
        <ele>2160.5</ele>
        <time>2021-03-30T05:31:34Z</time>
      </trkpt>
      <trkpt lat="45.56742" lon="6.82911">
        <ele>2160.6</ele>
        <time>2021-03-30T05:31:35Z</time>
      </trkpt>
      <trkpt lat="45.56742" lon="6.8291">
        <ele>2160.7</ele>
        <time>2021-03-30T05:31:36Z</time>
      </trkpt>
      <trkpt lat="45.56741" lon="6.82909">
        <ele>2160.7</ele>
        <time>2021-03-30T05:31:37Z</time>
      </trkpt>
      <trkpt lat="45.5674" lon="6.82907">
        <ele>2160.8</ele>
        <time>2021-03-30T05:31:38Z</time>
      </trkpt>
      <trkpt lat="45.5674" lon="6.82906">
        <ele>2160.9</ele>
        <time>2021-03-30T05:31:39Z</time>
      </trkpt>
      <trkpt lat="45.56739" lon="6.82905">
        <ele>2160.9</ele>
        <time>2021-03-30T05:31:40Z</time>
      </trkpt>
      <trkpt lat="45.56739" lon="6.82903">
        <ele>2161</ele>
        <time>2021-03-30T05:31:41Z</time>
      </trkpt>
      <trkpt lat="45.56738" lon="6.82902">
        <ele>2161</ele>
        <time>2021-03-30T05:31:42Z</time>
      </trkpt>
      <trkpt lat="45.56738" lon="6.82901">
        <ele>2161.1</ele>
        <time>2021-03-30T05:31:43Z</time>
      </trkpt>
      <trkpt lat="45.56737" lon="6.829">
        <ele>2161.1</ele>
        <time>2021-03-30T05:31:44Z</time>
      </trkpt>
      <trkpt lat="45.56736" lon="6.82899">
        <ele>2161.2</ele>
        <time>2021-03-30T05:31:45Z</time>
      </trkpt>
      <trkpt lat="45.56736" lon="6.82898">
        <ele>2161.3</ele>
        <time>2021-03-30T05:31:46Z</time>
      </trkpt>
      <trkpt lat="45.56735" lon="6.82896">
        <ele>2161.3</ele>
        <time>2021-03-30T05:31:47Z</time>
      </trkpt>
      <trkpt lat="45.56735" lon="6.82895">
        <ele>2161.4</ele>
        <time>2021-03-30T05:31:48Z</time>
      </trkpt>
      <trkpt lat="45.56734" lon="6.82894">
        <ele>2161.4</ele>
        <time>2021-03-30T05:31:49Z</time>
      </trkpt>
      <trkpt lat="45.56734" lon="6.82893">
        <ele>2161.5</ele>
        <time>2021-03-30T05:31:50Z</time>
      </trkpt>
      <trkpt lat="45.56733" lon="6.82892">
        <ele>2161.5</ele>
        <time>2021-03-30T05:31:51Z</time>
      </trkpt>
      <trkpt lat="45.56732" lon="6.82891">
        <ele>2161.6</ele>
        <time>2021-03-30T05:31:52Z</time>
      </trkpt>
      <trkpt lat="45.56731" lon="6.8289">
        <ele>2161.6</ele>
        <time>2021-03-30T05:31:53Z</time>
      </trkpt>
      <trkpt lat="45.56731" lon="6.8289">
        <ele>2161.7</ele>
        <time>2021-03-30T05:31:54Z</time>
      </trkpt>
      <trkpt lat="45.5673" lon="6.82889">
        <ele>2161.7</ele>
        <time>2021-03-30T05:31:55Z</time>
      </trkpt>
      <trkpt lat="45.56729" lon="6.82888">
        <ele>2161.8</ele>
        <time>2021-03-30T05:31:56Z</time>
      </trkpt>
      <trkpt lat="45.56729" lon="6.82887">
        <ele>2161.8</ele>
        <time>2021-03-30T05:31:57Z</time>
      </trkpt>
      <trkpt lat="45.56728" lon="6.82887">
        <ele>2161.9</ele>
        <time>2021-03-30T05:31:58Z</time>
      </trkpt>
      <trkpt lat="45.56727" lon="6.82886">
        <ele>2162</ele>
        <time>2021-03-30T05:31:59Z</time>
      </trkpt>
      <trkpt lat="45.56726" lon="6.82885">
        <ele>2162</ele>
        <time>2021-03-30T05:32:00Z</time>
      </trkpt>
      <trkpt lat="45.56725" lon="6.82885">
        <ele>2162.1</ele>
        <time>2021-03-30T05:32:01Z</time>
      </trkpt>
      <trkpt lat="45.56724" lon="6.82884">
        <ele>2162.1</ele>
        <time>2021-03-30T05:32:02Z</time>
      </trkpt>
      <trkpt lat="45.56724" lon="6.82883">
        <ele>2162.2</ele>
        <time>2021-03-30T05:32:03Z</time>
      </trkpt>
      <trkpt lat="45.56723" lon="6.82882">
        <ele>2162.3</ele>
        <time>2021-03-30T05:32:04Z</time>
      </trkpt>
      <trkpt lat="45.56722" lon="6.82882">
        <ele>2162.3</ele>
        <time>2021-03-30T05:32:05Z</time>
      </trkpt>
      <trkpt lat="45.56721" lon="6.82881">
        <ele>2162.4</ele>
        <time>2021-03-30T05:32:06Z</time>
      </trkpt>
      <trkpt lat="45.5672" lon="6.8288">
        <ele>2162.5</ele>
        <time>2021-03-30T05:32:07Z</time>
      </trkpt>
      <trkpt lat="45.56719" lon="6.8288">
        <ele>2162.5</ele>
        <time>2021-03-30T05:32:08Z</time>
      </trkpt>
      <trkpt lat="45.56718" lon="6.82879">
        <ele>2162.6</ele>
        <time>2021-03-30T05:32:09Z</time>
      </trkpt>
      <trkpt lat="45.56717" lon="6.82878">
        <ele>2162.7</ele>
        <time>2021-03-30T05:32:10Z</time>
      </trkpt>
      <trkpt lat="45.56716" lon="6.82877">
        <ele>2162.7</ele>
        <time>2021-03-30T05:32:11Z</time>
      </trkpt>
      <trkpt lat="45.56715" lon="6.82877">
        <ele>2162.8</ele>
        <time>2021-03-30T05:32:12Z</time>
      </trkpt>
      <trkpt lat="45.56715" lon="6.82876">
        <ele>2162.8</ele>
        <time>2021-03-30T05:32:13Z</time>
      </trkpt>
      <trkpt lat="45.56714" lon="6.82875">
        <ele>2162.9</ele>
        <time>2021-03-30T05:32:14Z</time>
      </trkpt>
      <trkpt lat="45.56713" lon="6.82875">
        <ele>2163</ele>
        <time>2021-03-30T05:32:15Z</time>
      </trkpt>
      <trkpt lat="45.56712" lon="6.82874">
        <ele>2163</ele>
        <time>2021-03-30T05:32:16Z</time>
      </trkpt>
      <trkpt lat="45.56711" lon="6.82873">
        <ele>2163.1</ele>
        <time>2021-03-30T05:32:17Z</time>
      </trkpt>
      <trkpt lat="45.5671" lon="6.82873">
        <ele>2163.1</ele>
        <time>2021-03-30T05:32:18Z</time>
      </trkpt>
      <trkpt lat="45.56709" lon="6.82872">
        <ele>2163.2</ele>
        <time>2021-03-30T05:32:19Z</time>
      </trkpt>
      <trkpt lat="45.56708" lon="6.82872">
        <ele>2163.3</ele>
        <time>2021-03-30T05:32:20Z</time>
      </trkpt>
      <trkpt lat="45.56707" lon="6.82871">
        <ele>2163.3</ele>
        <time>2021-03-30T05:32:21Z</time>
      </trkpt>
      <trkpt lat="45.56707" lon="6.8287">
        <ele>2163.4</ele>
        <time>2021-03-30T05:32:22Z</time>
      </trkpt>
      <trkpt lat="45.56706" lon="6.82869">
        <ele>2163.4</ele>
        <time>2021-03-30T05:32:23Z</time>
      </trkpt>
      <trkpt lat="45.56705" lon="6.82869">
        <ele>2163.5</ele>
        <time>2021-03-30T05:32:24Z</time>
      </trkpt>
      <trkpt lat="45.56704" lon="6.82868">
        <ele>2163.5</ele>
        <time>2021-03-30T05:32:25Z</time>
      </trkpt>
      <trkpt lat="45.56703" lon="6.82868">
        <ele>2163.6</ele>
        <time>2021-03-30T05:32:26Z</time>
      </trkpt>
      <trkpt lat="45.56702" lon="6.82867">
        <ele>2163.7</ele>
        <time>2021-03-30T05:32:27Z</time>
      </trkpt>
      <trkpt lat="45.56701" lon="6.82867">
        <ele>2163.7</ele>
        <time>2021-03-30T05:32:28Z</time>
      </trkpt>
      <trkpt lat="45.567" lon="6.82867">
        <ele>2163.8</ele>
        <time>2021-03-30T05:32:29Z</time>
      </trkpt>
      <trkpt lat="45.56699" lon="6.82867">
        <ele>2163.8</ele>
        <time>2021-03-30T05:32:30Z</time>
      </trkpt>
      <trkpt lat="45.56699" lon="6.82866">
        <ele>2163.9</ele>
        <time>2021-03-30T05:32:31Z</time>
      </trkpt>
      <trkpt lat="45.56698" lon="6.82866">
        <ele>2163.9</ele>
        <time>2021-03-30T05:32:32Z</time>
      </trkpt>
      <trkpt lat="45.56697" lon="6.82865">
        <ele>2164</ele>
        <time>2021-03-30T05:32:33Z</time>
      </trkpt>
      <trkpt lat="45.56696" lon="6.82865">
        <ele>2164</ele>
        <time>2021-03-30T05:32:34Z</time>
      </trkpt>
      <trkpt lat="45.56695" lon="6.82864">
        <ele>2164.1</ele>
        <time>2021-03-30T05:32:35Z</time>
      </trkpt>
      <trkpt lat="45.56694" lon="6.82864">
        <ele>2164.1</ele>
        <time>2021-03-30T05:32:36Z</time>
      </trkpt>
      <trkpt lat="45.56693" lon="6.82863">
        <ele>2164.2</ele>
        <time>2021-03-30T05:32:37Z</time>
      </trkpt>
      <trkpt lat="45.56692" lon="6.82863">
        <ele>2164.2</ele>
        <time>2021-03-30T05:32:38Z</time>
      </trkpt>
      <trkpt lat="45.56692" lon="6.82862">
        <ele>2164.3</ele>
        <time>2021-03-30T05:32:39Z</time>
      </trkpt>
      <trkpt lat="45.56691" lon="6.82861">
        <ele>2164.3</ele>
        <time>2021-03-30T05:32:40Z</time>
      </trkpt>
      <trkpt lat="45.5669" lon="6.8286">
        <ele>2164.4</ele>
        <time>2021-03-30T05:32:41Z</time>
      </trkpt>
      <trkpt lat="45.56689" lon="6.8286">
        <ele>2164.5</ele>
        <time>2021-03-30T05:32:42Z</time>
      </trkpt>
      <trkpt lat="45.56688" lon="6.82859">
        <ele>2164.5</ele>
        <time>2021-03-30T05:32:43Z</time>
      </trkpt>
      <trkpt lat="45.56687" lon="6.82858">
        <ele>2164.6</ele>
        <time>2021-03-30T05:32:44Z</time>
      </trkpt>
      <trkpt lat="45.56686" lon="6.82858">
        <ele>2164.7</ele>
        <time>2021-03-30T05:32:45Z</time>
      </trkpt>
      <trkpt lat="45.56685" lon="6.82857">
        <ele>2164.7</ele>
        <time>2021-03-30T05:32:46Z</time>
      </trkpt>
      <trkpt lat="45.56684" lon="6.82856">
        <ele>2164.8</ele>
        <time>2021-03-30T05:32:47Z</time>
      </trkpt>
      <trkpt lat="45.56683" lon="6.82856">
        <ele>2164.9</ele>
        <time>2021-03-30T05:32:48Z</time>
      </trkpt>
      <trkpt lat="45.56682" lon="6.82855">
        <ele>2164.9</ele>
        <time>2021-03-30T05:32:49Z</time>
      </trkpt>
      <trkpt lat="45.56681" lon="6.82854">
        <ele>2165</ele>
        <time>2021-03-30T05:32:50Z</time>
      </trkpt>
      <trkpt lat="45.5668" lon="6.82854">
        <ele>2165.1</ele>
        <time>2021-03-30T05:32:51Z</time>
      </trkpt>
      <trkpt lat="45.56679" lon="6.82853">
        <ele>2165.2</ele>
        <time>2021-03-30T05:32:52Z</time>
      </trkpt>
      <trkpt lat="45.56678" lon="6.82852">
        <ele>2165.2</ele>
        <time>2021-03-30T05:32:53Z</time>
      </trkpt>
      <trkpt lat="45.56677" lon="6.82852">
        <ele>2165.3</ele>
        <time>2021-03-30T05:32:54Z</time>
      </trkpt>
      <trkpt lat="45.56676" lon="6.82851">
        <ele>2165.4</ele>
        <time>2021-03-30T05:32:55Z</time>
      </trkpt>
      <trkpt lat="45.56675" lon="6.8285">
        <ele>2165.5</ele>
        <time>2021-03-30T05:32:56Z</time>
      </trkpt>
      <trkpt lat="45.56674" lon="6.82849">
        <ele>2165.6</ele>
        <time>2021-03-30T05:32:57Z</time>
      </trkpt>
      <trkpt lat="45.56673" lon="6.82848">
        <ele>2165.7</ele>
        <time>2021-03-30T05:32:58Z</time>
      </trkpt>
      <trkpt lat="45.56672" lon="6.82846">
        <ele>2165.8</ele>
        <time>2021-03-30T05:32:59Z</time>
      </trkpt>
      <trkpt lat="45.56671" lon="6.82845">
        <ele>2165.9</ele>
        <time>2021-03-30T05:33:00Z</time>
      </trkpt>
      <trkpt lat="45.5667" lon="6.82845">
        <ele>2166</ele>
        <time>2021-03-30T05:33:01Z</time>
      </trkpt>
      <trkpt lat="45.56669" lon="6.82844">
        <ele>2166</ele>
        <time>2021-03-30T05:33:02Z</time>
      </trkpt>
      <trkpt lat="45.56668" lon="6.82843">
        <ele>2166.1</ele>
        <time>2021-03-30T05:33:03Z</time>
      </trkpt>
      <trkpt lat="45.56667" lon="6.82842">
        <ele>2166.2</ele>
        <time>2021-03-30T05:33:04Z</time>
      </trkpt>
      <trkpt lat="45.56667" lon="6.82841">
        <ele>2166.3</ele>
        <time>2021-03-30T05:33:05Z</time>
      </trkpt>
      <trkpt lat="45.56666" lon="6.8284">
        <ele>2166.4</ele>
        <time>2021-03-30T05:33:06Z</time>
      </trkpt>
      <trkpt lat="45.56665" lon="6.8284">
        <ele>2166.4</ele>
        <time>2021-03-30T05:33:07Z</time>
      </trkpt>
      <trkpt lat="45.56664" lon="6.82839">
        <ele>2166.5</ele>
        <time>2021-03-30T05:33:08Z</time>
      </trkpt>
      <trkpt lat="45.56664" lon="6.82838">
        <ele>2166.6</ele>
        <time>2021-03-30T05:33:09Z</time>
      </trkpt>
      <trkpt lat="45.56663" lon="6.82837">
        <ele>2166.7</ele>
        <time>2021-03-30T05:33:10Z</time>
      </trkpt>
      <trkpt lat="45.56662" lon="6.82835">
        <ele>2166.8</ele>
        <time>2021-03-30T05:33:11Z</time>
      </trkpt>
      <trkpt lat="45.56661" lon="6.82835">
        <ele>2166.9</ele>
        <time>2021-03-30T05:33:12Z</time>
      </trkpt>
      <trkpt lat="45.5666" lon="6.82833">
        <ele>2166.9</ele>
        <time>2021-03-30T05:33:13Z</time>
      </trkpt>
      <trkpt lat="45.56659" lon="6.82832">
        <ele>2167.1</ele>
        <time>2021-03-30T05:33:14Z</time>
      </trkpt>
      <trkpt lat="45.56659" lon="6.82831">
        <ele>2167.1</ele>
        <time>2021-03-30T05:33:15Z</time>
      </trkpt>
      <trkpt lat="45.56658" lon="6.8283">
        <ele>2167.2</ele>
        <time>2021-03-30T05:33:16Z</time>
      </trkpt>
      <trkpt lat="45.56657" lon="6.82829">
        <ele>2167.3</ele>
        <time>2021-03-30T05:33:17Z</time>
      </trkpt>
      <trkpt lat="45.56657" lon="6.82828">
        <ele>2167.4</ele>
        <time>2021-03-30T05:33:18Z</time>
      </trkpt>
      <trkpt lat="45.56656" lon="6.82827">
        <ele>2167.4</ele>
        <time>2021-03-30T05:33:19Z</time>
      </trkpt>
      <trkpt lat="45.56656" lon="6.82826">
        <ele>2167.5</ele>
        <time>2021-03-30T05:33:20Z</time>
      </trkpt>
      <trkpt lat="45.56655" lon="6.82825">
        <ele>2167.6</ele>
        <time>2021-03-30T05:33:21Z</time>
      </trkpt>
      <trkpt lat="45.56654" lon="6.82824">
        <ele>2167.7</ele>
        <time>2021-03-30T05:33:22Z</time>
      </trkpt>
      <trkpt lat="45.56654" lon="6.82823">
        <ele>2167.8</ele>
        <time>2021-03-30T05:33:23Z</time>
      </trkpt>
      <trkpt lat="45.56653" lon="6.82823">
        <ele>2167.8</ele>
        <time>2021-03-30T05:33:24Z</time>
      </trkpt>
      <trkpt lat="45.56653" lon="6.82822">
        <ele>2167.9</ele>
        <time>2021-03-30T05:33:25Z</time>
      </trkpt>
      <trkpt lat="45.56652" lon="6.82821">
        <ele>2168</ele>
        <time>2021-03-30T05:33:26Z</time>
      </trkpt>
      <trkpt lat="45.56651" lon="6.8282">
        <ele>2168.1</ele>
        <time>2021-03-30T05:33:27Z</time>
      </trkpt>
      <trkpt lat="45.56651" lon="6.82819">
        <ele>2168.1</ele>
        <time>2021-03-30T05:33:28Z</time>
      </trkpt>
      <trkpt lat="45.5665" lon="6.82818">
        <ele>2168.2</ele>
        <time>2021-03-30T05:33:29Z</time>
      </trkpt>
      <trkpt lat="45.5665" lon="6.82816">
        <ele>2168.3</ele>
        <time>2021-03-30T05:33:30Z</time>
      </trkpt>
      <trkpt lat="45.56649" lon="6.82815">
        <ele>2168.4</ele>
        <time>2021-03-30T05:33:31Z</time>
      </trkpt>
      <trkpt lat="45.56649" lon="6.82814">
        <ele>2168.5</ele>
        <time>2021-03-30T05:33:32Z</time>
      </trkpt>
      <trkpt lat="45.56648" lon="6.82813">
        <ele>2168.6</ele>
        <time>2021-03-30T05:33:33Z</time>
      </trkpt>
      <trkpt lat="45.56648" lon="6.82812">
        <ele>2168.7</ele>
        <time>2021-03-30T05:33:34Z</time>
      </trkpt>
      <trkpt lat="45.56648" lon="6.82811">
        <ele>2168.7</ele>
        <time>2021-03-30T05:33:35Z</time>
      </trkpt>
      <trkpt lat="45.56647" lon="6.82809">
        <ele>2168.8</ele>
        <time>2021-03-30T05:33:36Z</time>
      </trkpt>
      <trkpt lat="45.56647" lon="6.82808">
        <ele>2168.9</ele>
        <time>2021-03-30T05:33:37Z</time>
      </trkpt>
      <trkpt lat="45.56647" lon="6.82807">
        <ele>2169</ele>
        <time>2021-03-30T05:33:38Z</time>
      </trkpt>
      <trkpt lat="45.56646" lon="6.82805">
        <ele>2169.1</ele>
        <time>2021-03-30T05:33:39Z</time>
      </trkpt>
      <trkpt lat="45.56646" lon="6.82804">
        <ele>2169.2</ele>
        <time>2021-03-30T05:33:40Z</time>
      </trkpt>
      <trkpt lat="45.56646" lon="6.82802">
        <ele>2169.3</ele>
        <time>2021-03-30T05:33:41Z</time>
      </trkpt>
      <trkpt lat="45.56646" lon="6.82801">
        <ele>2169.4</ele>
        <time>2021-03-30T05:33:42Z</time>
      </trkpt>
      <trkpt lat="45.56646" lon="6.82799">
        <ele>2169.5</ele>
        <time>2021-03-30T05:33:43Z</time>
      </trkpt>
      <trkpt lat="45.56646" lon="6.82797">
        <ele>2169.6</ele>
        <time>2021-03-30T05:33:44Z</time>
      </trkpt>
      <trkpt lat="45.56645" lon="6.82796">
        <ele>2169.7</ele>
        <time>2021-03-30T05:33:45Z</time>
      </trkpt>
      <trkpt lat="45.56645" lon="6.82795">
        <ele>2169.8</ele>
        <time>2021-03-30T05:33:46Z</time>
      </trkpt>
      <trkpt lat="45.56645" lon="6.82793">
        <ele>2169.9</ele>
        <time>2021-03-30T05:33:47Z</time>
      </trkpt>
      <trkpt lat="45.56645" lon="6.82791">
        <ele>2170.2</ele>
        <time>2021-03-30T05:33:48Z</time>
      </trkpt>
      <trkpt lat="45.56645" lon="6.8279">
        <ele>2170.3</ele>
        <time>2021-03-30T05:33:49Z</time>
      </trkpt>
      <trkpt lat="45.56645" lon="6.82788">
        <ele>2170.4</ele>
        <time>2021-03-30T05:33:50Z</time>
      </trkpt>
      <trkpt lat="45.56645" lon="6.82787">
        <ele>2170.5</ele>
        <time>2021-03-30T05:33:51Z</time>
      </trkpt>
      <trkpt lat="45.56645" lon="6.82785">
        <ele>2170.6</ele>
        <time>2021-03-30T05:33:52Z</time>
      </trkpt>
      <trkpt lat="45.56645" lon="6.82783">
        <ele>2170.6</ele>
        <time>2021-03-30T05:33:53Z</time>
      </trkpt>
      <trkpt lat="45.56645" lon="6.82782">
        <ele>2170.7</ele>
        <time>2021-03-30T05:33:54Z</time>
      </trkpt>
      <trkpt lat="45.56645" lon="6.8278">
        <ele>2170.8</ele>
        <time>2021-03-30T05:33:55Z</time>
      </trkpt>
      <trkpt lat="45.56645" lon="6.82779">
        <ele>2170.9</ele>
        <time>2021-03-30T05:33:56Z</time>
      </trkpt>
      <trkpt lat="45.56645" lon="6.82777">
        <ele>2170.9</ele>
        <time>2021-03-30T05:33:57Z</time>
      </trkpt>
      <trkpt lat="45.56645" lon="6.82776">
        <ele>2171</ele>
        <time>2021-03-30T05:33:58Z</time>
      </trkpt>
      <trkpt lat="45.56645" lon="6.82774">
        <ele>2171.1</ele>
        <time>2021-03-30T05:33:59Z</time>
      </trkpt>
      <trkpt lat="45.56646" lon="6.82773">
        <ele>2171.2</ele>
        <time>2021-03-30T05:34:00Z</time>
      </trkpt>
      <trkpt lat="45.56646" lon="6.82771">
        <ele>2171.3</ele>
        <time>2021-03-30T05:34:01Z</time>
      </trkpt>
      <trkpt lat="45.56646" lon="6.8277">
        <ele>2171.3</ele>
        <time>2021-03-30T05:34:02Z</time>
      </trkpt>
      <trkpt lat="45.56646" lon="6.82768">
        <ele>2171.4</ele>
        <time>2021-03-30T05:34:03Z</time>
      </trkpt>
      <trkpt lat="45.56646" lon="6.82766">
        <ele>2171.5</ele>
        <time>2021-03-30T05:34:04Z</time>
      </trkpt>
      <trkpt lat="45.56646" lon="6.82765">
        <ele>2171.6</ele>
        <time>2021-03-30T05:34:05Z</time>
      </trkpt>
      <trkpt lat="45.56647" lon="6.82763">
        <ele>2171.6</ele>
        <time>2021-03-30T05:34:06Z</time>
      </trkpt>
      <trkpt lat="45.56647" lon="6.82762">
        <ele>2171.7</ele>
        <time>2021-03-30T05:34:07Z</time>
      </trkpt>
      <trkpt lat="45.56647" lon="6.8276">
        <ele>2171.8</ele>
        <time>2021-03-30T05:34:08Z</time>
      </trkpt>
      <trkpt lat="45.56647" lon="6.82759">
        <ele>2171.9</ele>
        <time>2021-03-30T05:34:09Z</time>
      </trkpt>
      <trkpt lat="45.56648" lon="6.82757">
        <ele>2171.9</ele>
        <time>2021-03-30T05:34:10Z</time>
      </trkpt>
      <trkpt lat="45.56648" lon="6.82756">
        <ele>2172</ele>
        <time>2021-03-30T05:34:11Z</time>
      </trkpt>
      <trkpt lat="45.56648" lon="6.82754">
        <ele>2172.1</ele>
        <time>2021-03-30T05:34:12Z</time>
      </trkpt>
      <trkpt lat="45.56648" lon="6.82754">
        <ele>2172.1</ele>
        <time>2021-03-30T05:34:13Z</time>
      </trkpt>
      <trkpt lat="45.56648" lon="6.82752">
        <ele>2172.2</ele>
        <time>2021-03-30T05:34:14Z</time>
      </trkpt>
      <trkpt lat="45.56649" lon="6.82751">
        <ele>2172.2</ele>
        <time>2021-03-30T05:34:15Z</time>
      </trkpt>
      <trkpt lat="45.56649" lon="6.8275">
        <ele>2172.3</ele>
        <time>2021-03-30T05:34:16Z</time>
      </trkpt>
      <trkpt lat="45.56649" lon="6.82749">
        <ele>2172.3</ele>
        <time>2021-03-30T05:34:17Z</time>
      </trkpt>
      <trkpt lat="45.56649" lon="6.82747">
        <ele>2172.4</ele>
        <time>2021-03-30T05:34:18Z</time>
      </trkpt>
      <trkpt lat="45.56649" lon="6.82746">
        <ele>2172.4</ele>
        <time>2021-03-30T05:34:19Z</time>
      </trkpt>
      <trkpt lat="45.56649" lon="6.82745">
        <ele>2172.5</ele>
        <time>2021-03-30T05:34:20Z</time>
      </trkpt>
      <trkpt lat="45.56649" lon="6.82743">
        <ele>2172.6</ele>
        <time>2021-03-30T05:34:21Z</time>
      </trkpt>
      <trkpt lat="45.56649" lon="6.82742">
        <ele>2172.6</ele>
        <time>2021-03-30T05:34:22Z</time>
      </trkpt>
      <trkpt lat="45.56649" lon="6.8274">
        <ele>2172.7</ele>
        <time>2021-03-30T05:34:23Z</time>
      </trkpt>
      <trkpt lat="45.56649" lon="6.82739">
        <ele>2172.7</ele>
        <time>2021-03-30T05:34:24Z</time>
      </trkpt>
      <trkpt lat="45.56649" lon="6.82737">
        <ele>2172.8</ele>
        <time>2021-03-30T05:34:25Z</time>
      </trkpt>
      <trkpt lat="45.56649" lon="6.82736">
        <ele>2172.9</ele>
        <time>2021-03-30T05:34:26Z</time>
      </trkpt>
      <trkpt lat="45.56649" lon="6.82735">
        <ele>2172.9</ele>
        <time>2021-03-30T05:34:27Z</time>
      </trkpt>
      <trkpt lat="45.56649" lon="6.82733">
        <ele>2173</ele>
        <time>2021-03-30T05:34:28Z</time>
      </trkpt>
      <trkpt lat="45.56649" lon="6.82732">
        <ele>2173</ele>
        <time>2021-03-30T05:34:29Z</time>
      </trkpt>
      <trkpt lat="45.5665" lon="6.82731">
        <ele>2173.1</ele>
        <time>2021-03-30T05:34:30Z</time>
      </trkpt>
      <trkpt lat="45.5665" lon="6.82729">
        <ele>2173.1</ele>
        <time>2021-03-30T05:34:31Z</time>
      </trkpt>
      <trkpt lat="45.5665" lon="6.82728">
        <ele>2173.2</ele>
        <time>2021-03-30T05:34:32Z</time>
      </trkpt>
      <trkpt lat="45.5665" lon="6.82726">
        <ele>2173.2</ele>
        <time>2021-03-30T05:34:33Z</time>
      </trkpt>
      <trkpt lat="45.5665" lon="6.82725">
        <ele>2173.3</ele>
        <time>2021-03-30T05:34:34Z</time>
      </trkpt>
      <trkpt lat="45.5665" lon="6.82723">
        <ele>2173.3</ele>
        <time>2021-03-30T05:34:35Z</time>
      </trkpt>
      <trkpt lat="45.5665" lon="6.82722">
        <ele>2173.4</ele>
        <time>2021-03-30T05:34:36Z</time>
      </trkpt>
      <trkpt lat="45.5665" lon="6.82721">
        <ele>2173.4</ele>
        <time>2021-03-30T05:34:37Z</time>
      </trkpt>
      <trkpt lat="45.5665" lon="6.82719">
        <ele>2173.5</ele>
        <time>2021-03-30T05:34:38Z</time>
      </trkpt>
      <trkpt lat="45.56651" lon="6.82718">
        <ele>2173.5</ele>
        <time>2021-03-30T05:34:39Z</time>
      </trkpt>
      <trkpt lat="45.56651" lon="6.82716">
        <ele>2173.6</ele>
        <time>2021-03-30T05:34:40Z</time>
      </trkpt>
      <trkpt lat="45.56652" lon="6.82715">
        <ele>2173.7</ele>
        <time>2021-03-30T05:34:41Z</time>
      </trkpt>
      <trkpt lat="45.56652" lon="6.82713">
        <ele>2173.7</ele>
        <time>2021-03-30T05:34:42Z</time>
      </trkpt>
      <trkpt lat="45.56652" lon="6.82712">
        <ele>2173.8</ele>
        <time>2021-03-30T05:34:43Z</time>
      </trkpt>
      <trkpt lat="45.56652" lon="6.8271">
        <ele>2173.8</ele>
        <time>2021-03-30T05:34:44Z</time>
      </trkpt>
      <trkpt lat="45.56653" lon="6.82708">
        <ele>2174.2</ele>
        <time>2021-03-30T05:34:45Z</time>
      </trkpt>
      <trkpt lat="45.56653" lon="6.82707">
        <ele>2174.2</ele>
        <time>2021-03-30T05:34:46Z</time>
      </trkpt>
      <trkpt lat="45.56653" lon="6.82706">
        <ele>2174.3</ele>
        <time>2021-03-30T05:34:47Z</time>
      </trkpt>
      <trkpt lat="45.56652" lon="6.82704">
        <ele>2174.4</ele>
        <time>2021-03-30T05:34:48Z</time>
      </trkpt>
      <trkpt lat="45.56652" lon="6.82703">
        <ele>2174.5</ele>
        <time>2021-03-30T05:34:49Z</time>
      </trkpt>
      <trkpt lat="45.56652" lon="6.82702">
        <ele>2174.6</ele>
        <time>2021-03-30T05:34:50Z</time>
      </trkpt>
      <trkpt lat="45.56652" lon="6.827">
        <ele>2174.6</ele>
        <time>2021-03-30T05:34:51Z</time>
      </trkpt>
      <trkpt lat="45.56652" lon="6.82699">
        <ele>2174.7</ele>
        <time>2021-03-30T05:34:52Z</time>
      </trkpt>
      <trkpt lat="45.56652" lon="6.82698">
        <ele>2174.8</ele>
        <time>2021-03-30T05:34:53Z</time>
      </trkpt>
      <trkpt lat="45.56652" lon="6.82696">
        <ele>2174.9</ele>
        <time>2021-03-30T05:34:54Z</time>
      </trkpt>
      <trkpt lat="45.56652" lon="6.82695">
        <ele>2174.9</ele>
        <time>2021-03-30T05:34:55Z</time>
      </trkpt>
      <trkpt lat="45.56652" lon="6.82694">
        <ele>2175</ele>
        <time>2021-03-30T05:34:56Z</time>
      </trkpt>
      <trkpt lat="45.56652" lon="6.82693">
        <ele>2175.1</ele>
        <time>2021-03-30T05:34:57Z</time>
      </trkpt>
      <trkpt lat="45.56652" lon="6.82691">
        <ele>2175.1</ele>
        <time>2021-03-30T05:34:58Z</time>
      </trkpt>
      <trkpt lat="45.56651" lon="6.8269">
        <ele>2175.2</ele>
        <time>2021-03-30T05:34:59Z</time>
      </trkpt>
      <trkpt lat="45.56651" lon="6.82689">
        <ele>2175.2</ele>
        <time>2021-03-30T05:35:00Z</time>
      </trkpt>
      <trkpt lat="45.56651" lon="6.82688">
        <ele>2175.3</ele>
        <time>2021-03-30T05:35:01Z</time>
      </trkpt>
      <trkpt lat="45.56651" lon="6.82686">
        <ele>2175.4</ele>
        <time>2021-03-30T05:35:02Z</time>
      </trkpt>
      <trkpt lat="45.56651" lon="6.82685">
        <ele>2175.4</ele>
        <time>2021-03-30T05:35:03Z</time>
      </trkpt>
      <trkpt lat="45.56651" lon="6.82684">
        <ele>2175.5</ele>
        <time>2021-03-30T05:35:04Z</time>
      </trkpt>
      <trkpt lat="45.5665" lon="6.82682">
        <ele>2175.5</ele>
        <time>2021-03-30T05:35:05Z</time>
      </trkpt>
      <trkpt lat="45.5665" lon="6.82681">
        <ele>2175.6</ele>
        <time>2021-03-30T05:35:06Z</time>
      </trkpt>
      <trkpt lat="45.5665" lon="6.8268">
        <ele>2175.6</ele>
        <time>2021-03-30T05:35:07Z</time>
      </trkpt>
      <trkpt lat="45.5665" lon="6.82679">
        <ele>2175.7</ele>
        <time>2021-03-30T05:35:08Z</time>
      </trkpt>
      <trkpt lat="45.5665" lon="6.82678">
        <ele>2175.7</ele>
        <time>2021-03-30T05:35:09Z</time>
      </trkpt>
      <trkpt lat="45.56649" lon="6.82676">
        <ele>2175.8</ele>
        <time>2021-03-30T05:35:10Z</time>
      </trkpt>
      <trkpt lat="45.56649" lon="6.82675">
        <ele>2175.8</ele>
        <time>2021-03-30T05:35:11Z</time>
      </trkpt>
      <trkpt lat="45.56649" lon="6.82675">
        <ele>2175.9</ele>
        <time>2021-03-30T05:35:12Z</time>
      </trkpt>
      <trkpt lat="45.56648" lon="6.82673">
        <ele>2175.9</ele>
        <time>2021-03-30T05:35:13Z</time>
      </trkpt>
      <trkpt lat="45.56647" lon="6.82672">
        <ele>2176</ele>
        <time>2021-03-30T05:35:14Z</time>
      </trkpt>
      <trkpt lat="45.56647" lon="6.82671">
        <ele>2176</ele>
        <time>2021-03-30T05:35:15Z</time>
      </trkpt>
      <trkpt lat="45.56646" lon="6.8267">
        <ele>2176.1</ele>
        <time>2021-03-30T05:35:16Z</time>
      </trkpt>
      <trkpt lat="45.56645" lon="6.82669">
        <ele>2176.1</ele>
        <time>2021-03-30T05:35:17Z</time>
      </trkpt>
      <trkpt lat="45.56645" lon="6.82668">
        <ele>2176.1</ele>
        <time>2021-03-30T05:35:18Z</time>
      </trkpt>
      <trkpt lat="45.56644" lon="6.82667">
        <ele>2176.2</ele>
        <time>2021-03-30T05:35:19Z</time>
      </trkpt>
      <trkpt lat="45.56643" lon="6.82666">
        <ele>2176.2</ele>
        <time>2021-03-30T05:35:20Z</time>
      </trkpt>
      <trkpt lat="45.56642" lon="6.82664">
        <ele>2176.3</ele>
        <time>2021-03-30T05:35:21Z</time>
      </trkpt>
      <trkpt lat="45.56641" lon="6.82663">
        <ele>2176.3</ele>
        <time>2021-03-30T05:35:22Z</time>
      </trkpt>
      <trkpt lat="45.56641" lon="6.82662">
        <ele>2176.4</ele>
        <time>2021-03-30T05:35:23Z</time>
      </trkpt>
      <trkpt lat="45.56639" lon="6.8266">
        <ele>2176.4</ele>
        <time>2021-03-30T05:35:24Z</time>
      </trkpt>
      <trkpt lat="45.56638" lon="6.8266">
        <ele>2176.5</ele>
        <time>2021-03-30T05:35:25Z</time>
      </trkpt>
      <trkpt lat="45.56638" lon="6.82659">
        <ele>2176.5</ele>
        <time>2021-03-30T05:35:26Z</time>
      </trkpt>
      <trkpt lat="45.56637" lon="6.82658">
        <ele>2176.5</ele>
        <time>2021-03-30T05:35:27Z</time>
      </trkpt>
      <trkpt lat="45.56636" lon="6.82657">
        <ele>2176.5</ele>
        <time>2021-03-30T05:35:28Z</time>
      </trkpt>
      <trkpt lat="45.56635" lon="6.82656">
        <ele>2176.6</ele>
        <time>2021-03-30T05:35:29Z</time>
      </trkpt>
      <trkpt lat="45.56634" lon="6.82656">
        <ele>2176.6</ele>
        <time>2021-03-30T05:35:30Z</time>
      </trkpt>
      <trkpt lat="45.56633" lon="6.82655">
        <ele>2176.6</ele>
        <time>2021-03-30T05:35:31Z</time>
      </trkpt>
      <trkpt lat="45.56632" lon="6.82654">
        <ele>2176.6</ele>
        <time>2021-03-30T05:35:32Z</time>
      </trkpt>
      <trkpt lat="45.56631" lon="6.82653">
        <ele>2176.7</ele>
        <time>2021-03-30T05:35:33Z</time>
      </trkpt>
      <trkpt lat="45.5663" lon="6.82652">
        <ele>2176.7</ele>
        <time>2021-03-30T05:35:34Z</time>
      </trkpt>
      <trkpt lat="45.5663" lon="6.82651">
        <ele>2176.7</ele>
        <time>2021-03-30T05:35:35Z</time>
      </trkpt>
      <trkpt lat="45.56629" lon="6.8265">
        <ele>2176.7</ele>
        <time>2021-03-30T05:35:36Z</time>
      </trkpt>
      <trkpt lat="45.56628" lon="6.82649">
        <ele>2176.8</ele>
        <time>2021-03-30T05:35:37Z</time>
      </trkpt>
      <trkpt lat="45.56628" lon="6.82649">
        <ele>2176.8</ele>
        <time>2021-03-30T05:35:38Z</time>
      </trkpt>
      <trkpt lat="45.56628" lon="6.82648">
        <ele>2176.8</ele>
        <time>2021-03-30T05:35:39Z</time>
      </trkpt>
      <trkpt lat="45.56627" lon="6.82647">
        <ele>2176.8</ele>
        <time>2021-03-30T05:35:40Z</time>
      </trkpt>
      <trkpt lat="45.56627" lon="6.82646">
        <ele>2176.8</ele>
        <time>2021-03-30T05:35:41Z</time>
      </trkpt>
      <trkpt lat="45.56627" lon="6.82645">
        <ele>2176.8</ele>
        <time>2021-03-30T05:35:42Z</time>
      </trkpt>
      <trkpt lat="45.56626" lon="6.82644">
        <ele>2176.8</ele>
        <time>2021-03-30T05:35:43Z</time>
      </trkpt>
      <trkpt lat="45.56625" lon="6.82643">
        <ele>2176.8</ele>
        <time>2021-03-30T05:35:44Z</time>
      </trkpt>
      <trkpt lat="45.56624" lon="6.82642">
        <ele>2176.9</ele>
        <time>2021-03-30T05:35:45Z</time>
      </trkpt>
      <trkpt lat="45.56623" lon="6.82642">
        <ele>2176.9</ele>
        <time>2021-03-30T05:35:46Z</time>
      </trkpt>
      <trkpt lat="45.56621" lon="6.8264">
        <ele>2176.9</ele>
        <time>2021-03-30T05:35:47Z</time>
      </trkpt>
      <trkpt lat="45.5662" lon="6.8264">
        <ele>2176.9</ele>
        <time>2021-03-30T05:35:48Z</time>
      </trkpt>
      <trkpt lat="45.56619" lon="6.82639">
        <ele>2176.9</ele>
        <time>2021-03-30T05:35:49Z</time>
      </trkpt>
      <trkpt lat="45.56618" lon="6.82638">
        <ele>2176.9</ele>
        <time>2021-03-30T05:35:50Z</time>
      </trkpt>
      <trkpt lat="45.56617" lon="6.82638">
        <ele>2177</ele>
        <time>2021-03-30T05:35:51Z</time>
      </trkpt>
      <trkpt lat="45.56616" lon="6.82637">
        <ele>2177</ele>
        <time>2021-03-30T05:35:52Z</time>
      </trkpt>
      <trkpt lat="45.56615" lon="6.82637">
        <ele>2177</ele>
        <time>2021-03-30T05:35:53Z</time>
      </trkpt>
      <trkpt lat="45.56615" lon="6.82636">
        <ele>2177</ele>
        <time>2021-03-30T05:35:54Z</time>
      </trkpt>
      <trkpt lat="45.56614" lon="6.82635">
        <ele>2177</ele>
        <time>2021-03-30T05:35:55Z</time>
      </trkpt>
      <trkpt lat="45.56613" lon="6.82634">
        <ele>2177</ele>
        <time>2021-03-30T05:35:56Z</time>
      </trkpt>
      <trkpt lat="45.56612" lon="6.82634">
        <ele>2177</ele>
        <time>2021-03-30T05:35:57Z</time>
      </trkpt>
      <trkpt lat="45.56611" lon="6.82633">
        <ele>2177</ele>
        <time>2021-03-30T05:35:58Z</time>
      </trkpt>
      <trkpt lat="45.5661" lon="6.82632">
        <ele>2177</ele>
        <time>2021-03-30T05:35:59Z</time>
      </trkpt>
      <trkpt lat="45.56609" lon="6.82632">
        <ele>2177</ele>
        <time>2021-03-30T05:36:00Z</time>
      </trkpt>
      <trkpt lat="45.56609" lon="6.82631">
        <ele>2177.1</ele>
        <time>2021-03-30T05:36:01Z</time>
      </trkpt>
      <trkpt lat="45.56608" lon="6.82631">
        <ele>2177.1</ele>
        <time>2021-03-30T05:36:02Z</time>
      </trkpt>
      <trkpt lat="45.56608" lon="6.82631">
        <ele>2177.1</ele>
        <time>2021-03-30T05:36:03Z</time>
      </trkpt>
      <trkpt lat="45.56607" lon="6.8263">
        <ele>2177.1</ele>
        <time>2021-03-30T05:36:04Z</time>
      </trkpt>
      <trkpt lat="45.56606" lon="6.8263">
        <ele>2177.1</ele>
        <time>2021-03-30T05:36:05Z</time>
      </trkpt>
      <trkpt lat="45.56605" lon="6.82629">
        <ele>2177.1</ele>
        <time>2021-03-30T05:36:06Z</time>
      </trkpt>
      <trkpt lat="45.56605" lon="6.82628">
        <ele>2177.1</ele>
        <time>2021-03-30T05:36:07Z</time>
      </trkpt>
      <trkpt lat="45.56604" lon="6.82627">
        <ele>2177.1</ele>
        <time>2021-03-30T05:36:08Z</time>
      </trkpt>
      <trkpt lat="45.56603" lon="6.82627">
        <ele>2177.1</ele>
        <time>2021-03-30T05:36:09Z</time>
      </trkpt>
      <trkpt lat="45.56602" lon="6.82626">
        <ele>2177.1</ele>
        <time>2021-03-30T05:36:10Z</time>
      </trkpt>
      <trkpt lat="45.56601" lon="6.82625">
        <ele>2177.1</ele>
        <time>2021-03-30T05:36:11Z</time>
      </trkpt>
      <trkpt lat="45.566" lon="6.82624">
        <ele>2177.1</ele>
        <time>2021-03-30T05:36:12Z</time>
      </trkpt>
      <trkpt lat="45.56599" lon="6.82623">
        <ele>2177.2</ele>
        <time>2021-03-30T05:36:13Z</time>
      </trkpt>
      <trkpt lat="45.56598" lon="6.82622">
        <ele>2177.2</ele>
        <time>2021-03-30T05:36:14Z</time>
      </trkpt>
      <trkpt lat="45.56598" lon="6.82622">
        <ele>2177.2</ele>
        <time>2021-03-30T05:36:15Z</time>
      </trkpt>
      <trkpt lat="45.56596" lon="6.8262">
        <ele>2177.2</ele>
        <time>2021-03-30T05:36:16Z</time>
      </trkpt>
      <trkpt lat="45.56595" lon="6.82619">
        <ele>2177.2</ele>
        <time>2021-03-30T05:36:17Z</time>
      </trkpt>
      <trkpt lat="45.56595" lon="6.82618">
        <ele>2177.2</ele>
        <time>2021-03-30T05:36:18Z</time>
      </trkpt>
      <trkpt lat="45.56594" lon="6.82617">
        <ele>2177.2</ele>
        <time>2021-03-30T05:36:19Z</time>
      </trkpt>
      <trkpt lat="45.56593" lon="6.82616">
        <ele>2177.2</ele>
        <time>2021-03-30T05:36:20Z</time>
      </trkpt>
      <trkpt lat="45.56592" lon="6.82615">
        <ele>2177.3</ele>
        <time>2021-03-30T05:36:21Z</time>
      </trkpt>
      <trkpt lat="45.56591" lon="6.82614">
        <ele>2177.3</ele>
        <time>2021-03-30T05:36:22Z</time>
      </trkpt>
      <trkpt lat="45.5659" lon="6.82613">
        <ele>2177.3</ele>
        <time>2021-03-30T05:36:23Z</time>
      </trkpt>
      <trkpt lat="45.5659" lon="6.82613">
        <ele>2177.3</ele>
        <time>2021-03-30T05:36:24Z</time>
      </trkpt>
      <trkpt lat="45.56588" lon="6.82612">
        <ele>2177.3</ele>
        <time>2021-03-30T05:36:25Z</time>
      </trkpt>
      <trkpt lat="45.56588" lon="6.82611">
        <ele>2177.3</ele>
        <time>2021-03-30T05:36:26Z</time>
      </trkpt>
      <trkpt lat="45.56587" lon="6.82611">
        <ele>2177.3</ele>
        <time>2021-03-30T05:36:27Z</time>
      </trkpt>
      <trkpt lat="45.56586" lon="6.8261">
        <ele>2177.3</ele>
        <time>2021-03-30T05:36:28Z</time>
      </trkpt>
      <trkpt lat="45.56585" lon="6.82609">
        <ele>2177.4</ele>
        <time>2021-03-30T05:36:29Z</time>
      </trkpt>
      <trkpt lat="45.56584" lon="6.82608">
        <ele>2177.4</ele>
        <time>2021-03-30T05:36:30Z</time>
      </trkpt>
      <trkpt lat="45.56583" lon="6.82607">
        <ele>2177.4</ele>
        <time>2021-03-30T05:36:31Z</time>
      </trkpt>
      <trkpt lat="45.56582" lon="6.82606">
        <ele>2177.4</ele>
        <time>2021-03-30T05:36:32Z</time>
      </trkpt>
      <trkpt lat="45.56581" lon="6.82606">
        <ele>2177.4</ele>
        <time>2021-03-30T05:36:33Z</time>
      </trkpt>
      <trkpt lat="45.5658" lon="6.82605">
        <ele>2177.4</ele>
        <time>2021-03-30T05:36:34Z</time>
      </trkpt>
      <trkpt lat="45.56579" lon="6.82604">
        <ele>2177.4</ele>
        <time>2021-03-30T05:36:35Z</time>
      </trkpt>
      <trkpt lat="45.56578" lon="6.82603">
        <ele>2177.5</ele>
        <time>2021-03-30T05:36:36Z</time>
      </trkpt>
      <trkpt lat="45.56577" lon="6.82602">
        <ele>2177.5</ele>
        <time>2021-03-30T05:36:37Z</time>
      </trkpt>
      <trkpt lat="45.56576" lon="6.82602">
        <ele>2177.5</ele>
        <time>2021-03-30T05:36:38Z</time>
      </trkpt>
      <trkpt lat="45.56575" lon="6.82601">
        <ele>2177.5</ele>
        <time>2021-03-30T05:36:39Z</time>
      </trkpt>
      <trkpt lat="45.56574" lon="6.826">
        <ele>2177.5</ele>
        <time>2021-03-30T05:36:40Z</time>
      </trkpt>
      <trkpt lat="45.56573" lon="6.82599">
        <ele>2177.5</ele>
        <time>2021-03-30T05:36:41Z</time>
      </trkpt>
      <trkpt lat="45.56572" lon="6.82598">
        <ele>2177.6</ele>
        <time>2021-03-30T05:36:42Z</time>
      </trkpt>
      <trkpt lat="45.56571" lon="6.82597">
        <ele>2177.6</ele>
        <time>2021-03-30T05:36:43Z</time>
      </trkpt>
      <trkpt lat="45.5657" lon="6.82597">
        <ele>2177.6</ele>
        <time>2021-03-30T05:36:44Z</time>
      </trkpt>
      <trkpt lat="45.56569" lon="6.82596">
        <ele>2177.6</ele>
        <time>2021-03-30T05:36:45Z</time>
      </trkpt>
      <trkpt lat="45.56568" lon="6.82595">
        <ele>2177.6</ele>
        <time>2021-03-30T05:36:46Z</time>
      </trkpt>
      <trkpt lat="45.56567" lon="6.82594">
        <ele>2177.6</ele>
        <time>2021-03-30T05:36:47Z</time>
      </trkpt>
      <trkpt lat="45.56566" lon="6.82593">
        <ele>2177.7</ele>
        <time>2021-03-30T05:36:48Z</time>
      </trkpt>
      <trkpt lat="45.56565" lon="6.82592">
        <ele>2177.7</ele>
        <time>2021-03-30T05:36:49Z</time>
      </trkpt>
      <trkpt lat="45.56565" lon="6.82591">
        <ele>2177.7</ele>
        <time>2021-03-30T05:36:50Z</time>
      </trkpt>
      <trkpt lat="45.56563" lon="6.8259">
        <ele>2177.7</ele>
        <time>2021-03-30T05:36:51Z</time>
      </trkpt>
      <trkpt lat="45.56562" lon="6.82589">
        <ele>2177.8</ele>
        <time>2021-03-30T05:36:52Z</time>
      </trkpt>
      <trkpt lat="45.56561" lon="6.82588">
        <ele>2177.8</ele>
        <time>2021-03-30T05:36:53Z</time>
      </trkpt>
      <trkpt lat="45.5656" lon="6.82587">
        <ele>2177.8</ele>
        <time>2021-03-30T05:36:54Z</time>
      </trkpt>
      <trkpt lat="45.56559" lon="6.82585">
        <ele>2177.8</ele>
        <time>2021-03-30T05:36:55Z</time>
      </trkpt>
      <trkpt lat="45.56558" lon="6.82585">
        <ele>2177.8</ele>
        <time>2021-03-30T05:36:56Z</time>
      </trkpt>
      <trkpt lat="45.56557" lon="6.82584">
        <ele>2177.8</ele>
        <time>2021-03-30T05:36:57Z</time>
      </trkpt>
      <trkpt lat="45.56556" lon="6.82583">
        <ele>2177.9</ele>
        <time>2021-03-30T05:36:58Z</time>
      </trkpt>
      <trkpt lat="45.56555" lon="6.82582">
        <ele>2177.9</ele>
        <time>2021-03-30T05:36:59Z</time>
      </trkpt>
      <trkpt lat="45.56554" lon="6.82581">
        <ele>2177.9</ele>
        <time>2021-03-30T05:37:00Z</time>
      </trkpt>
      <trkpt lat="45.56553" lon="6.82581">
        <ele>2177.9</ele>
        <time>2021-03-30T05:37:01Z</time>
      </trkpt>
      <trkpt lat="45.56552" lon="6.8258">
        <ele>2177.9</ele>
        <time>2021-03-30T05:37:02Z</time>
      </trkpt>
      <trkpt lat="45.56551" lon="6.82579">
        <ele>2177.9</ele>
        <time>2021-03-30T05:37:03Z</time>
      </trkpt>
      <trkpt lat="45.5655" lon="6.82578">
        <ele>2177.9</ele>
        <time>2021-03-30T05:37:04Z</time>
      </trkpt>
      <trkpt lat="45.5655" lon="6.82578">
        <ele>2178</ele>
        <time>2021-03-30T05:37:05Z</time>
      </trkpt>
      <trkpt lat="45.56549" lon="6.82577">
        <ele>2178</ele>
        <time>2021-03-30T05:37:06Z</time>
      </trkpt>
      <trkpt lat="45.56548" lon="6.82576">
        <ele>2178</ele>
        <time>2021-03-30T05:37:07Z</time>
      </trkpt>
      <trkpt lat="45.56547" lon="6.82575">
        <ele>2178</ele>
        <time>2021-03-30T05:37:08Z</time>
      </trkpt>
      <trkpt lat="45.56546" lon="6.82574">
        <ele>2178</ele>
        <time>2021-03-30T05:37:09Z</time>
      </trkpt>
      <trkpt lat="45.56545" lon="6.82574">
        <ele>2178</ele>
        <time>2021-03-30T05:37:10Z</time>
      </trkpt>
      <trkpt lat="45.56544" lon="6.82573">
        <ele>2178</ele>
        <time>2021-03-30T05:37:11Z</time>
      </trkpt>
      <trkpt lat="45.56543" lon="6.82573">
        <ele>2178.1</ele>
        <time>2021-03-30T05:37:12Z</time>
      </trkpt>
      <trkpt lat="45.56542" lon="6.82572">
        <ele>2178.1</ele>
        <time>2021-03-30T05:37:13Z</time>
      </trkpt>
      <trkpt lat="45.56542" lon="6.82571">
        <ele>2178.1</ele>
        <time>2021-03-30T05:37:14Z</time>
      </trkpt>
      <trkpt lat="45.56541" lon="6.82571">
        <ele>2178.1</ele>
        <time>2021-03-30T05:37:15Z</time>
      </trkpt>
      <trkpt lat="45.5654" lon="6.8257">
        <ele>2178.1</ele>
        <time>2021-03-30T05:37:16Z</time>
      </trkpt>
      <trkpt lat="45.56539" lon="6.82569">
        <ele>2178.2</ele>
        <time>2021-03-30T05:37:17Z</time>
      </trkpt>
      <trkpt lat="45.56538" lon="6.82569">
        <ele>2178.2</ele>
        <time>2021-03-30T05:37:18Z</time>
      </trkpt>
      <trkpt lat="45.56537" lon="6.82568">
        <ele>2178.2</ele>
        <time>2021-03-30T05:37:19Z</time>
      </trkpt>
      <trkpt lat="45.56536" lon="6.82567">
        <ele>2178.2</ele>
        <time>2021-03-30T05:37:20Z</time>
      </trkpt>
      <trkpt lat="45.56535" lon="6.82567">
        <ele>2178.2</ele>
        <time>2021-03-30T05:37:21Z</time>
      </trkpt>
      <trkpt lat="45.56534" lon="6.82566">
        <ele>2178.3</ele>
        <time>2021-03-30T05:37:22Z</time>
      </trkpt>
      <trkpt lat="45.56534" lon="6.82566">
        <ele>2178.3</ele>
        <time>2021-03-30T05:37:23Z</time>
      </trkpt>
      <trkpt lat="45.56533" lon="6.82565">
        <ele>2178.3</ele>
        <time>2021-03-30T05:37:24Z</time>
      </trkpt>
      <trkpt lat="45.56531" lon="6.82564">
        <ele>2178.3</ele>
        <time>2021-03-30T05:37:25Z</time>
      </trkpt>
      <trkpt lat="45.56531" lon="6.82563">
        <ele>2178.3</ele>
        <time>2021-03-30T05:37:26Z</time>
      </trkpt>
      <trkpt lat="45.5653" lon="6.82563">
        <ele>2178.4</ele>
        <time>2021-03-30T05:37:27Z</time>
      </trkpt>
      <trkpt lat="45.56529" lon="6.82562">
        <ele>2178.4</ele>
        <time>2021-03-30T05:37:28Z</time>
      </trkpt>
      <trkpt lat="45.56528" lon="6.82561">
        <ele>2178.4</ele>
        <time>2021-03-30T05:37:29Z</time>
      </trkpt>
      <trkpt lat="45.56527" lon="6.8256">
        <ele>2178.5</ele>
        <time>2021-03-30T05:37:30Z</time>
      </trkpt>
      <trkpt lat="45.56526" lon="6.8256">
        <ele>2178.5</ele>
        <time>2021-03-30T05:37:31Z</time>
      </trkpt>
      <trkpt lat="45.56525" lon="6.82559">
        <ele>2178.5</ele>
        <time>2021-03-30T05:37:32Z</time>
      </trkpt>
      <trkpt lat="45.56524" lon="6.82558">
        <ele>2178.5</ele>
        <time>2021-03-30T05:37:33Z</time>
      </trkpt>
      <trkpt lat="45.56523" lon="6.82558">
        <ele>2178.6</ele>
        <time>2021-03-30T05:37:34Z</time>
      </trkpt>
      <trkpt lat="45.56522" lon="6.82557">
        <ele>2178.6</ele>
        <time>2021-03-30T05:37:35Z</time>
      </trkpt>
      <trkpt lat="45.56522" lon="6.82556">
        <ele>2178.6</ele>
        <time>2021-03-30T05:37:36Z</time>
      </trkpt>
      <trkpt lat="45.56521" lon="6.82555">
        <ele>2178.6</ele>
        <time>2021-03-30T05:37:37Z</time>
      </trkpt>
      <trkpt lat="45.5652" lon="6.82555">
        <ele>2178.7</ele>
        <time>2021-03-30T05:37:38Z</time>
      </trkpt>
      <trkpt lat="45.56519" lon="6.82554">
        <ele>2178.7</ele>
        <time>2021-03-30T05:37:39Z</time>
      </trkpt>
      <trkpt lat="45.56518" lon="6.82553">
        <ele>2178.7</ele>
        <time>2021-03-30T05:37:40Z</time>
      </trkpt>
      <trkpt lat="45.56517" lon="6.82552">
        <ele>2178.7</ele>
        <time>2021-03-30T05:37:41Z</time>
      </trkpt>
      <trkpt lat="45.56516" lon="6.82551">
        <ele>2178.8</ele>
        <time>2021-03-30T05:37:42Z</time>
      </trkpt>
      <trkpt lat="45.56515" lon="6.8255">
        <ele>2178.8</ele>
        <time>2021-03-30T05:37:43Z</time>
      </trkpt>
      <trkpt lat="45.56514" lon="6.82549">
        <ele>2178.8</ele>
        <time>2021-03-30T05:37:44Z</time>
      </trkpt>
      <trkpt lat="45.56513" lon="6.82548">
        <ele>2178.9</ele>
        <time>2021-03-30T05:37:45Z</time>
      </trkpt>
      <trkpt lat="45.56513" lon="6.82547">
        <ele>2178.9</ele>
        <time>2021-03-30T05:37:46Z</time>
      </trkpt>
      <trkpt lat="45.56512" lon="6.82546">
        <ele>2178.9</ele>
        <time>2021-03-30T05:37:47Z</time>
      </trkpt>
      <trkpt lat="45.56511" lon="6.82545">
        <ele>2178.9</ele>
        <time>2021-03-30T05:37:48Z</time>
      </trkpt>
      <trkpt lat="45.5651" lon="6.82545">
        <ele>2179</ele>
        <time>2021-03-30T05:37:49Z</time>
      </trkpt>
      <trkpt lat="45.56509" lon="6.82544">
        <ele>2179</ele>
        <time>2021-03-30T05:37:50Z</time>
      </trkpt>
      <trkpt lat="45.56508" lon="6.82543">
        <ele>2179</ele>
        <time>2021-03-30T05:37:51Z</time>
      </trkpt>
      <trkpt lat="45.56507" lon="6.82542">
        <ele>2179</ele>
        <time>2021-03-30T05:37:52Z</time>
      </trkpt>
      <trkpt lat="45.56506" lon="6.82541">
        <ele>2179.1</ele>
        <time>2021-03-30T05:37:53Z</time>
      </trkpt>
      <trkpt lat="45.56505" lon="6.8254">
        <ele>2179.1</ele>
        <time>2021-03-30T05:37:54Z</time>
      </trkpt>
      <trkpt lat="45.56505" lon="6.8254">
        <ele>2179.1</ele>
        <time>2021-03-30T05:37:55Z</time>
      </trkpt>
      <trkpt lat="45.56504" lon="6.82539">
        <ele>2179.1</ele>
        <time>2021-03-30T05:37:56Z</time>
      </trkpt>
      <trkpt lat="45.56503" lon="6.82538">
        <ele>2179.2</ele>
        <time>2021-03-30T05:37:57Z</time>
      </trkpt>
      <trkpt lat="45.56502" lon="6.82537">
        <ele>2179.2</ele>
        <time>2021-03-30T05:37:58Z</time>
      </trkpt>
      <trkpt lat="45.56501" lon="6.82536">
        <ele>2179.2</ele>
        <time>2021-03-30T05:37:59Z</time>
      </trkpt>
      <trkpt lat="45.565" lon="6.82535">
        <ele>2179.3</ele>
        <time>2021-03-30T05:38:00Z</time>
      </trkpt>
      <trkpt lat="45.56499" lon="6.82534">
        <ele>2179.3</ele>
        <time>2021-03-30T05:38:01Z</time>
      </trkpt>
      <trkpt lat="45.56498" lon="6.82534">
        <ele>2179.3</ele>
        <time>2021-03-30T05:38:02Z</time>
      </trkpt>
      <trkpt lat="45.56497" lon="6.82533">
        <ele>2179.4</ele>
        <time>2021-03-30T05:38:03Z</time>
      </trkpt>
      <trkpt lat="45.56496" lon="6.82531">
        <ele>2179.4</ele>
        <time>2021-03-30T05:38:04Z</time>
      </trkpt>
      <trkpt lat="45.56495" lon="6.8253">
        <ele>2179.4</ele>
        <time>2021-03-30T05:38:05Z</time>
      </trkpt>
      <trkpt lat="45.56494" lon="6.8253">
        <ele>2179.5</ele>
        <time>2021-03-30T05:38:06Z</time>
      </trkpt>
      <trkpt lat="45.56493" lon="6.82529">
        <ele>2179.5</ele>
        <time>2021-03-30T05:38:07Z</time>
      </trkpt>
      <trkpt lat="45.56493" lon="6.82528">
        <ele>2179.5</ele>
        <time>2021-03-30T05:38:08Z</time>
      </trkpt>
      <trkpt lat="45.56492" lon="6.82526">
        <ele>2179.6</ele>
        <time>2021-03-30T05:38:09Z</time>
      </trkpt>
      <trkpt lat="45.5649" lon="6.82525">
        <ele>2179.6</ele>
        <time>2021-03-30T05:38:10Z</time>
      </trkpt>
      <trkpt lat="45.56489" lon="6.82524">
        <ele>2179.7</ele>
        <time>2021-03-30T05:38:11Z</time>
      </trkpt>
      <trkpt lat="45.56489" lon="6.82523">
        <ele>2179.7</ele>
        <time>2021-03-30T05:38:12Z</time>
      </trkpt>
      <trkpt lat="45.56488" lon="6.82522">
        <ele>2179.7</ele>
        <time>2021-03-30T05:38:13Z</time>
      </trkpt>
      <trkpt lat="45.56487" lon="6.82521">
        <ele>2179.8</ele>
        <time>2021-03-30T05:38:14Z</time>
      </trkpt>
      <trkpt lat="45.56486" lon="6.8252">
        <ele>2179.8</ele>
        <time>2021-03-30T05:38:15Z</time>
      </trkpt>
      <trkpt lat="45.56485" lon="6.82519">
        <ele>2179.8</ele>
        <time>2021-03-30T05:38:16Z</time>
      </trkpt>
      <trkpt lat="45.56484" lon="6.82519">
        <ele>2179.9</ele>
        <time>2021-03-30T05:38:17Z</time>
      </trkpt>
      <trkpt lat="45.56483" lon="6.82518">
        <ele>2179.9</ele>
        <time>2021-03-30T05:38:18Z</time>
      </trkpt>
      <trkpt lat="45.56482" lon="6.82518">
        <ele>2180</ele>
        <time>2021-03-30T05:38:19Z</time>
      </trkpt>
      <trkpt lat="45.56481" lon="6.82517">
        <ele>2180</ele>
        <time>2021-03-30T05:38:20Z</time>
      </trkpt>
      <trkpt lat="45.5648" lon="6.82516">
        <ele>2180</ele>
        <time>2021-03-30T05:38:21Z</time>
      </trkpt>
      <trkpt lat="45.56479" lon="6.82515">
        <ele>2180</ele>
        <time>2021-03-30T05:38:22Z</time>
      </trkpt>
      <trkpt lat="45.56478" lon="6.82514">
        <ele>2180.1</ele>
        <time>2021-03-30T05:38:23Z</time>
      </trkpt>
      <trkpt lat="45.56477" lon="6.82514">
        <ele>2180.1</ele>
        <time>2021-03-30T05:38:24Z</time>
      </trkpt>
      <trkpt lat="45.56476" lon="6.82513">
        <ele>2180.1</ele>
        <time>2021-03-30T05:38:25Z</time>
      </trkpt>
      <trkpt lat="45.56476" lon="6.82512">
        <ele>2180.2</ele>
        <time>2021-03-30T05:38:26Z</time>
      </trkpt>
      <trkpt lat="45.56475" lon="6.82512">
        <ele>2180.2</ele>
        <time>2021-03-30T05:38:27Z</time>
      </trkpt>
      <trkpt lat="45.56474" lon="6.82511">
        <ele>2180.2</ele>
        <time>2021-03-30T05:38:28Z</time>
      </trkpt>
      <trkpt lat="45.56473" lon="6.8251">
        <ele>2180.3</ele>
        <time>2021-03-30T05:38:29Z</time>
      </trkpt>
      <trkpt lat="45.56472" lon="6.82509">
        <ele>2180.3</ele>
        <time>2021-03-30T05:38:30Z</time>
      </trkpt>
      <trkpt lat="45.56471" lon="6.82508">
        <ele>2180.3</ele>
        <time>2021-03-30T05:38:31Z</time>
      </trkpt>
      <trkpt lat="45.5647" lon="6.82508">
        <ele>2180.4</ele>
        <time>2021-03-30T05:38:32Z</time>
      </trkpt>
      <trkpt lat="45.56469" lon="6.82507">
        <ele>2180.4</ele>
        <time>2021-03-30T05:38:33Z</time>
      </trkpt>
      <trkpt lat="45.56468" lon="6.82506">
        <ele>2180.4</ele>
        <time>2021-03-30T05:38:34Z</time>
      </trkpt>
      <trkpt lat="45.56467" lon="6.82505">
        <ele>2180.5</ele>
        <time>2021-03-30T05:38:35Z</time>
      </trkpt>
      <trkpt lat="45.56466" lon="6.82505">
        <ele>2180.5</ele>
        <time>2021-03-30T05:38:36Z</time>
      </trkpt>
      <trkpt lat="45.56465" lon="6.82504">
        <ele>2180.5</ele>
        <time>2021-03-30T05:38:37Z</time>
      </trkpt>
      <trkpt lat="45.56464" lon="6.82503">
        <ele>2180.5</ele>
        <time>2021-03-30T05:38:38Z</time>
      </trkpt>
      <trkpt lat="45.56463" lon="6.82503">
        <ele>2180.6</ele>
        <time>2021-03-30T05:38:39Z</time>
      </trkpt>
      <trkpt lat="45.56463" lon="6.82502">
        <ele>2180.6</ele>
        <time>2021-03-30T05:38:40Z</time>
      </trkpt>
      <trkpt lat="45.56462" lon="6.82502">
        <ele>2180.6</ele>
        <time>2021-03-30T05:38:41Z</time>
      </trkpt>
      <trkpt lat="45.56461" lon="6.82501">
        <ele>2180.6</ele>
        <time>2021-03-30T05:38:42Z</time>
      </trkpt>
      <trkpt lat="45.5646" lon="6.825">
        <ele>2180.6</ele>
        <time>2021-03-30T05:38:43Z</time>
      </trkpt>
      <trkpt lat="45.56459" lon="6.825">
        <ele>2180.6</ele>
        <time>2021-03-30T05:38:44Z</time>
      </trkpt>
      <trkpt lat="45.56459" lon="6.82499">
        <ele>2180.6</ele>
        <time>2021-03-30T05:38:45Z</time>
      </trkpt>
      <trkpt lat="45.56458" lon="6.82498">
        <ele>2180.6</ele>
        <time>2021-03-30T05:38:46Z</time>
      </trkpt>
      <trkpt lat="45.56457" lon="6.82498">
        <ele>2180.7</ele>
        <time>2021-03-30T05:38:47Z</time>
      </trkpt>
      <trkpt lat="45.56456" lon="6.82497">
        <ele>2180.7</ele>
        <time>2021-03-30T05:38:48Z</time>
      </trkpt>
      <trkpt lat="45.56455" lon="6.82496">
        <ele>2180.7</ele>
        <time>2021-03-30T05:38:49Z</time>
      </trkpt>
      <trkpt lat="45.56454" lon="6.82496">
        <ele>2180.7</ele>
        <time>2021-03-30T05:38:50Z</time>
      </trkpt>
      <trkpt lat="45.56453" lon="6.82495">
        <ele>2180.8</ele>
        <time>2021-03-30T05:38:51Z</time>
      </trkpt>
      <trkpt lat="45.56453" lon="6.82494">
        <ele>2180.9</ele>
        <time>2021-03-30T05:38:52Z</time>
      </trkpt>
      <trkpt lat="45.56452" lon="6.82493">
        <ele>2181.1</ele>
        <time>2021-03-30T05:38:53Z</time>
      </trkpt>
      <trkpt lat="45.56451" lon="6.82493">
        <ele>2181.2</ele>
        <time>2021-03-30T05:38:54Z</time>
      </trkpt>
      <trkpt lat="45.5645" lon="6.82492">
        <ele>2181.3</ele>
        <time>2021-03-30T05:38:55Z</time>
      </trkpt>
      <trkpt lat="45.56449" lon="6.82491">
        <ele>2181.4</ele>
        <time>2021-03-30T05:38:56Z</time>
      </trkpt>
      <trkpt lat="45.56448" lon="6.82491">
        <ele>2181.5</ele>
        <time>2021-03-30T05:38:57Z</time>
      </trkpt>
      <trkpt lat="45.56447" lon="6.8249">
        <ele>2181.6</ele>
        <time>2021-03-30T05:38:58Z</time>
      </trkpt>
      <trkpt lat="45.56446" lon="6.8249">
        <ele>2181.7</ele>
        <time>2021-03-30T05:38:59Z</time>
      </trkpt>
      <trkpt lat="45.56445" lon="6.82489">
        <ele>2181.8</ele>
        <time>2021-03-30T05:39:00Z</time>
      </trkpt>
      <trkpt lat="45.56444" lon="6.82488">
        <ele>2181.9</ele>
        <time>2021-03-30T05:39:01Z</time>
      </trkpt>
      <trkpt lat="45.56443" lon="6.82488">
        <ele>2182</ele>
        <time>2021-03-30T05:39:02Z</time>
      </trkpt>
      <trkpt lat="45.56442" lon="6.82487">
        <ele>2182.1</ele>
        <time>2021-03-30T05:39:03Z</time>
      </trkpt>
      <trkpt lat="45.56442" lon="6.82487">
        <ele>2182.2</ele>
        <time>2021-03-30T05:39:04Z</time>
      </trkpt>
      <trkpt lat="45.56441" lon="6.82486">
        <ele>2182.3</ele>
        <time>2021-03-30T05:39:05Z</time>
      </trkpt>
      <trkpt lat="45.5644" lon="6.82486">
        <ele>2182.4</ele>
        <time>2021-03-30T05:39:06Z</time>
      </trkpt>
      <trkpt lat="45.56439" lon="6.82486">
        <ele>2182.5</ele>
        <time>2021-03-30T05:39:07Z</time>
      </trkpt>
      <trkpt lat="45.56437" lon="6.82485">
        <ele>2182.7</ele>
        <time>2021-03-30T05:39:08Z</time>
      </trkpt>
      <trkpt lat="45.56437" lon="6.82484">
        <ele>2182.8</ele>
        <time>2021-03-30T05:39:09Z</time>
      </trkpt>
      <trkpt lat="45.56436" lon="6.82484">
        <ele>2182.8</ele>
        <time>2021-03-30T05:39:10Z</time>
      </trkpt>
      <trkpt lat="45.56435" lon="6.82484">
        <ele>2182.9</ele>
        <time>2021-03-30T05:39:11Z</time>
      </trkpt>
      <trkpt lat="45.56435" lon="6.82483">
        <ele>2183</ele>
        <time>2021-03-30T05:39:12Z</time>
      </trkpt>
      <trkpt lat="45.56434" lon="6.82483">
        <ele>2183.1</ele>
        <time>2021-03-30T05:39:13Z</time>
      </trkpt>
      <trkpt lat="45.56433" lon="6.82482">
        <ele>2183.2</ele>
        <time>2021-03-30T05:39:14Z</time>
      </trkpt>
      <trkpt lat="45.56432" lon="6.82481">
        <ele>2183.3</ele>
        <time>2021-03-30T05:39:15Z</time>
      </trkpt>
      <trkpt lat="45.56432" lon="6.82481">
        <ele>2183.4</ele>
        <time>2021-03-30T05:39:16Z</time>
      </trkpt>
      <trkpt lat="45.56431" lon="6.8248">
        <ele>2183.5</ele>
        <time>2021-03-30T05:39:17Z</time>
      </trkpt>
      <trkpt lat="45.5643" lon="6.8248">
        <ele>2183.5</ele>
        <time>2021-03-30T05:39:18Z</time>
      </trkpt>
      <trkpt lat="45.56429" lon="6.8248">
        <ele>2183.6</ele>
        <time>2021-03-30T05:39:19Z</time>
      </trkpt>
      <trkpt lat="45.56428" lon="6.82479">
        <ele>2183.7</ele>
        <time>2021-03-30T05:39:20Z</time>
      </trkpt>
      <trkpt lat="45.56428" lon="6.82479">
        <ele>2183.8</ele>
        <time>2021-03-30T05:39:21Z</time>
      </trkpt>
      <trkpt lat="45.56427" lon="6.82479">
        <ele>2183.9</ele>
        <time>2021-03-30T05:39:22Z</time>
      </trkpt>
      <trkpt lat="45.56426" lon="6.82478">
        <ele>2184</ele>
        <time>2021-03-30T05:39:23Z</time>
      </trkpt>
      <trkpt lat="45.56425" lon="6.82478">
        <ele>2184.1</ele>
        <time>2021-03-30T05:39:24Z</time>
      </trkpt>
      <trkpt lat="45.56424" lon="6.82478">
        <ele>2184.2</ele>
        <time>2021-03-30T05:39:25Z</time>
      </trkpt>
      <trkpt lat="45.56423" lon="6.82477">
        <ele>2184.3</ele>
        <time>2021-03-30T05:39:26Z</time>
      </trkpt>
      <trkpt lat="45.56422" lon="6.82477">
        <ele>2184.4</ele>
        <time>2021-03-30T05:39:27Z</time>
      </trkpt>
      <trkpt lat="45.56421" lon="6.82477">
        <ele>2184.5</ele>
        <time>2021-03-30T05:39:28Z</time>
      </trkpt>
      <trkpt lat="45.56421" lon="6.82476">
        <ele>2184.6</ele>
        <time>2021-03-30T05:39:29Z</time>
      </trkpt>
      <trkpt lat="45.5642" lon="6.82476">
        <ele>2184.7</ele>
        <time>2021-03-30T05:39:30Z</time>
      </trkpt>
      <trkpt lat="45.56419" lon="6.82476">
        <ele>2184.8</ele>
        <time>2021-03-30T05:39:31Z</time>
      </trkpt>
      <trkpt lat="45.56418" lon="6.82475">
        <ele>2184.8</ele>
        <time>2021-03-30T05:39:32Z</time>
      </trkpt>
      <trkpt lat="45.56417" lon="6.82475">
        <ele>2184.9</ele>
        <time>2021-03-30T05:39:33Z</time>
      </trkpt>
      <trkpt lat="45.56416" lon="6.82475">
        <ele>2185</ele>
        <time>2021-03-30T05:39:34Z</time>
      </trkpt>
      <trkpt lat="45.56416" lon="6.82475">
        <ele>2185.1</ele>
        <time>2021-03-30T05:39:35Z</time>
      </trkpt>
      <trkpt lat="45.56415" lon="6.82474">
        <ele>2185.2</ele>
        <time>2021-03-30T05:39:36Z</time>
      </trkpt>
      <trkpt lat="45.56414" lon="6.82474">
        <ele>2185.3</ele>
        <time>2021-03-30T05:39:37Z</time>
      </trkpt>
      <trkpt lat="45.56413" lon="6.82474">
        <ele>2185.4</ele>
        <time>2021-03-30T05:39:38Z</time>
      </trkpt>
      <trkpt lat="45.56412" lon="6.82473">
        <ele>2185.5</ele>
        <time>2021-03-30T05:39:39Z</time>
      </trkpt>
      <trkpt lat="45.56411" lon="6.82473">
        <ele>2185.6</ele>
        <time>2021-03-30T05:39:40Z</time>
      </trkpt>
      <trkpt lat="45.5641" lon="6.82473">
        <ele>2185.7</ele>
        <time>2021-03-30T05:39:41Z</time>
      </trkpt>
      <trkpt lat="45.56409" lon="6.82472">
        <ele>2185.8</ele>
        <time>2021-03-30T05:39:42Z</time>
      </trkpt>
      <trkpt lat="45.56409" lon="6.82472">
        <ele>2185.9</ele>
        <time>2021-03-30T05:39:43Z</time>
      </trkpt>
      <trkpt lat="45.56407" lon="6.82471">
        <ele>2186</ele>
        <time>2021-03-30T05:39:44Z</time>
      </trkpt>
      <trkpt lat="45.56407" lon="6.82471">
        <ele>2186.1</ele>
        <time>2021-03-30T05:39:45Z</time>
      </trkpt>
      <trkpt lat="45.56406" lon="6.82471">
        <ele>2186.2</ele>
        <time>2021-03-30T05:39:46Z</time>
      </trkpt>
      <trkpt lat="45.56405" lon="6.82471">
        <ele>2186.3</ele>
        <time>2021-03-30T05:39:47Z</time>
      </trkpt>
      <trkpt lat="45.56404" lon="6.8247">
        <ele>2186.4</ele>
        <time>2021-03-30T05:39:48Z</time>
      </trkpt>
      <trkpt lat="45.56403" lon="6.8247">
        <ele>2186.5</ele>
        <time>2021-03-30T05:39:49Z</time>
      </trkpt>
      <trkpt lat="45.56402" lon="6.8247">
        <ele>2186.6</ele>
        <time>2021-03-30T05:39:50Z</time>
      </trkpt>
      <trkpt lat="45.56401" lon="6.82469">
        <ele>2186.7</ele>
        <time>2021-03-30T05:39:51Z</time>
      </trkpt>
      <trkpt lat="45.564" lon="6.82469">
        <ele>2186.8</ele>
        <time>2021-03-30T05:39:52Z</time>
      </trkpt>
      <trkpt lat="45.56399" lon="6.82469">
        <ele>2186.9</ele>
        <time>2021-03-30T05:39:53Z</time>
      </trkpt>
      <trkpt lat="45.56398" lon="6.82469">
        <ele>2187</ele>
        <time>2021-03-30T05:39:54Z</time>
      </trkpt>
      <trkpt lat="45.56397" lon="6.82468">
        <ele>2187.1</ele>
        <time>2021-03-30T05:39:55Z</time>
      </trkpt>
      <trkpt lat="45.56396" lon="6.82468">
        <ele>2187.2</ele>
        <time>2021-03-30T05:39:56Z</time>
      </trkpt>
      <trkpt lat="45.56395" lon="6.82468">
        <ele>2187.3</ele>
        <time>2021-03-30T05:39:57Z</time>
      </trkpt>
      <trkpt lat="45.56394" lon="6.82467">
        <ele>2187.3</ele>
        <time>2021-03-30T05:39:58Z</time>
      </trkpt>
      <trkpt lat="45.56393" lon="6.82467">
        <ele>2187.4</ele>
        <time>2021-03-30T05:39:59Z</time>
      </trkpt>
      <trkpt lat="45.56392" lon="6.82466">
        <ele>2187.5</ele>
        <time>2021-03-30T05:40:00Z</time>
      </trkpt>
      <trkpt lat="45.56391" lon="6.82466">
        <ele>2187.6</ele>
        <time>2021-03-30T05:40:01Z</time>
      </trkpt>
      <trkpt lat="45.5639" lon="6.82465">
        <ele>2187.7</ele>
        <time>2021-03-30T05:40:02Z</time>
      </trkpt>
      <trkpt lat="45.56389" lon="6.82465">
        <ele>2187.8</ele>
        <time>2021-03-30T05:40:03Z</time>
      </trkpt>
      <trkpt lat="45.56388" lon="6.82465">
        <ele>2187.8</ele>
        <time>2021-03-30T05:40:04Z</time>
      </trkpt>
      <trkpt lat="45.56388" lon="6.82464">
        <ele>2187.9</ele>
        <time>2021-03-30T05:40:05Z</time>
      </trkpt>
      <trkpt lat="45.56387" lon="6.82464">
        <ele>2188</ele>
        <time>2021-03-30T05:40:06Z</time>
      </trkpt>
      <trkpt lat="45.56386" lon="6.82463">
        <ele>2188.1</ele>
        <time>2021-03-30T05:40:07Z</time>
      </trkpt>
      <trkpt lat="45.56385" lon="6.82463">
        <ele>2188.2</ele>
        <time>2021-03-30T05:40:08Z</time>
      </trkpt>
      <trkpt lat="45.56384" lon="6.82463">
        <ele>2188.2</ele>
        <time>2021-03-30T05:40:09Z</time>
      </trkpt>
      <trkpt lat="45.56383" lon="6.82463">
        <ele>2188.3</ele>
        <time>2021-03-30T05:40:10Z</time>
      </trkpt>
      <trkpt lat="45.56382" lon="6.82462">
        <ele>2188.4</ele>
        <time>2021-03-30T05:40:11Z</time>
      </trkpt>
      <trkpt lat="45.56381" lon="6.82462">
        <ele>2188.5</ele>
        <time>2021-03-30T05:40:12Z</time>
      </trkpt>
      <trkpt lat="45.5638" lon="6.82462">
        <ele>2188.5</ele>
        <time>2021-03-30T05:40:13Z</time>
      </trkpt>
      <trkpt lat="45.56379" lon="6.82462">
        <ele>2188.6</ele>
        <time>2021-03-30T05:40:14Z</time>
      </trkpt>
      <trkpt lat="45.56377" lon="6.82462">
        <ele>2188.7</ele>
        <time>2021-03-30T05:40:15Z</time>
      </trkpt>
      <trkpt lat="45.56377" lon="6.82462">
        <ele>2188.8</ele>
        <time>2021-03-30T05:40:16Z</time>
      </trkpt>
      <trkpt lat="45.56376" lon="6.82462">
        <ele>2188.8</ele>
        <time>2021-03-30T05:40:17Z</time>
      </trkpt>
      <trkpt lat="45.56375" lon="6.82462">
        <ele>2188.9</ele>
        <time>2021-03-30T05:40:18Z</time>
      </trkpt>
      <trkpt lat="45.56374" lon="6.82462">
        <ele>2188.9</ele>
        <time>2021-03-30T05:40:19Z</time>
      </trkpt>
      <trkpt lat="45.56373" lon="6.82462">
        <ele>2189</ele>
        <time>2021-03-30T05:40:20Z</time>
      </trkpt>
      <trkpt lat="45.56372" lon="6.82461">
        <ele>2189.1</ele>
        <time>2021-03-30T05:40:21Z</time>
      </trkpt>
      <trkpt lat="45.56371" lon="6.82461">
        <ele>2189.1</ele>
        <time>2021-03-30T05:40:22Z</time>
      </trkpt>
      <trkpt lat="45.56371" lon="6.82461">
        <ele>2189.2</ele>
        <time>2021-03-30T05:40:23Z</time>
      </trkpt>
      <trkpt lat="45.5637" lon="6.82461">
        <ele>2189.3</ele>
        <time>2021-03-30T05:40:24Z</time>
      </trkpt>
      <trkpt lat="45.56368" lon="6.82461">
        <ele>2189.4</ele>
        <time>2021-03-30T05:40:25Z</time>
      </trkpt>
      <trkpt lat="45.56367" lon="6.82461">
        <ele>2189.4</ele>
        <time>2021-03-30T05:40:26Z</time>
      </trkpt>
      <trkpt lat="45.56367" lon="6.82461">
        <ele>2189.4</ele>
        <time>2021-03-30T05:40:27Z</time>
      </trkpt>
      <trkpt lat="45.56366" lon="6.82461">
        <ele>2189.5</ele>
        <time>2021-03-30T05:40:28Z</time>
      </trkpt>
      <trkpt lat="45.56365" lon="6.82461">
        <ele>2189.5</ele>
        <time>2021-03-30T05:40:29Z</time>
      </trkpt>
      <trkpt lat="45.56364" lon="6.82461">
        <ele>2189.6</ele>
        <time>2021-03-30T05:40:30Z</time>
      </trkpt>
      <trkpt lat="45.56363" lon="6.82461">
        <ele>2189.7</ele>
        <time>2021-03-30T05:40:31Z</time>
      </trkpt>
      <trkpt lat="45.56362" lon="6.82461">
        <ele>2189.7</ele>
        <time>2021-03-30T05:40:32Z</time>
      </trkpt>
      <trkpt lat="45.56361" lon="6.82461">
        <ele>2189.8</ele>
        <time>2021-03-30T05:40:33Z</time>
      </trkpt>
      <trkpt lat="45.5636" lon="6.82461">
        <ele>2189.8</ele>
        <time>2021-03-30T05:40:34Z</time>
      </trkpt>
      <trkpt lat="45.5636" lon="6.82461">
        <ele>2189.9</ele>
        <time>2021-03-30T05:40:35Z</time>
      </trkpt>
      <trkpt lat="45.56359" lon="6.8246">
        <ele>2190</ele>
        <time>2021-03-30T05:40:36Z</time>
      </trkpt>
      <trkpt lat="45.56358" lon="6.8246">
        <ele>2190</ele>
        <time>2021-03-30T05:40:37Z</time>
      </trkpt>
      <trkpt lat="45.56357" lon="6.8246">
        <ele>2190.1</ele>
        <time>2021-03-30T05:40:38Z</time>
      </trkpt>
      <trkpt lat="45.56356" lon="6.82459">
        <ele>2190.1</ele>
        <time>2021-03-30T05:40:39Z</time>
      </trkpt>
      <trkpt lat="45.56355" lon="6.82459">
        <ele>2190.2</ele>
        <time>2021-03-30T05:40:40Z</time>
      </trkpt>
      <trkpt lat="45.56354" lon="6.82458">
        <ele>2190.2</ele>
        <time>2021-03-30T05:40:41Z</time>
      </trkpt>
      <trkpt lat="45.56353" lon="6.82458">
        <ele>2190.3</ele>
        <time>2021-03-30T05:40:42Z</time>
      </trkpt>
      <trkpt lat="45.56352" lon="6.82458">
        <ele>2190.4</ele>
        <time>2021-03-30T05:40:43Z</time>
      </trkpt>
      <trkpt lat="45.56351" lon="6.82457">
        <ele>2190.4</ele>
        <time>2021-03-30T05:40:44Z</time>
      </trkpt>
      <trkpt lat="45.5635" lon="6.82457">
        <ele>2190.5</ele>
        <time>2021-03-30T05:40:45Z</time>
      </trkpt>
      <trkpt lat="45.56349" lon="6.82457">
        <ele>2190.6</ele>
        <time>2021-03-30T05:40:46Z</time>
      </trkpt>
      <trkpt lat="45.56348" lon="6.82457">
        <ele>2190.6</ele>
        <time>2021-03-30T05:40:47Z</time>
      </trkpt>
      <trkpt lat="45.56347" lon="6.82457">
        <ele>2190.7</ele>
        <time>2021-03-30T05:40:48Z</time>
      </trkpt>
      <trkpt lat="45.56346" lon="6.82457">
        <ele>2190.8</ele>
        <time>2021-03-30T05:40:49Z</time>
      </trkpt>
      <trkpt lat="45.56345" lon="6.82457">
        <ele>2190.8</ele>
        <time>2021-03-30T05:40:50Z</time>
      </trkpt>
      <trkpt lat="45.56344" lon="6.82456">
        <ele>2190.9</ele>
        <time>2021-03-30T05:40:51Z</time>
      </trkpt>
      <trkpt lat="45.56343" lon="6.82456">
        <ele>2191</ele>
        <time>2021-03-30T05:40:52Z</time>
      </trkpt>
      <trkpt lat="45.56342" lon="6.82456">
        <ele>2191</ele>
        <time>2021-03-30T05:40:53Z</time>
      </trkpt>
      <trkpt lat="45.56341" lon="6.82456">
        <ele>2191.1</ele>
        <time>2021-03-30T05:40:54Z</time>
      </trkpt>
      <trkpt lat="45.5634" lon="6.82456">
        <ele>2191.2</ele>
        <time>2021-03-30T05:40:55Z</time>
      </trkpt>
      <trkpt lat="45.56339" lon="6.82456">
        <ele>2191.2</ele>
        <time>2021-03-30T05:40:56Z</time>
      </trkpt>
      <trkpt lat="45.56338" lon="6.82456">
        <ele>2191.3</ele>
        <time>2021-03-30T05:40:57Z</time>
      </trkpt>
      <trkpt lat="45.56337" lon="6.82456">
        <ele>2191.3</ele>
        <time>2021-03-30T05:40:58Z</time>
      </trkpt>
      <trkpt lat="45.56336" lon="6.82455">
        <ele>2191.4</ele>
        <time>2021-03-30T05:40:59Z</time>
      </trkpt>
      <trkpt lat="45.56334" lon="6.82455">
        <ele>2191.5</ele>
        <time>2021-03-30T05:41:00Z</time>
      </trkpt>
      <trkpt lat="45.56333" lon="6.82455">
        <ele>2191.6</ele>
        <time>2021-03-30T05:41:01Z</time>
      </trkpt>
      <trkpt lat="45.56332" lon="6.82455">
        <ele>2191.6</ele>
        <time>2021-03-30T05:41:02Z</time>
      </trkpt>
      <trkpt lat="45.56331" lon="6.82455">
        <ele>2191.7</ele>
        <time>2021-03-30T05:41:03Z</time>
      </trkpt>
      <trkpt lat="45.56331" lon="6.82455">
        <ele>2191.7</ele>
        <time>2021-03-30T05:41:04Z</time>
      </trkpt>
      <trkpt lat="45.56329" lon="6.82455">
        <ele>2191.8</ele>
        <time>2021-03-30T05:41:05Z</time>
      </trkpt>
      <trkpt lat="45.56329" lon="6.82455">
        <ele>2191.9</ele>
        <time>2021-03-30T05:41:06Z</time>
      </trkpt>
      <trkpt lat="45.56328" lon="6.82455">
        <ele>2191.9</ele>
        <time>2021-03-30T05:41:07Z</time>
      </trkpt>
      <trkpt lat="45.56327" lon="6.82455">
        <ele>2192</ele>
        <time>2021-03-30T05:41:08Z</time>
      </trkpt>
      <trkpt lat="45.56326" lon="6.82455">
        <ele>2192</ele>
        <time>2021-03-30T05:41:09Z</time>
      </trkpt>
      <trkpt lat="45.56325" lon="6.82455">
        <ele>2192.1</ele>
        <time>2021-03-30T05:41:10Z</time>
      </trkpt>
      <trkpt lat="45.56324" lon="6.82455">
        <ele>2192.2</ele>
        <time>2021-03-30T05:41:11Z</time>
      </trkpt>
      <trkpt lat="45.56324" lon="6.82455">
        <ele>2192.2</ele>
        <time>2021-03-30T05:41:12Z</time>
      </trkpt>
      <trkpt lat="45.56323" lon="6.82455">
        <ele>2192.3</ele>
        <time>2021-03-30T05:41:13Z</time>
      </trkpt>
      <trkpt lat="45.56322" lon="6.82455">
        <ele>2192.3</ele>
        <time>2021-03-30T05:41:14Z</time>
      </trkpt>
      <trkpt lat="45.56321" lon="6.82455">
        <ele>2192.4</ele>
        <time>2021-03-30T05:41:15Z</time>
      </trkpt>
      <trkpt lat="45.5632" lon="6.82455">
        <ele>2192.4</ele>
        <time>2021-03-30T05:41:16Z</time>
      </trkpt>
      <trkpt lat="45.56319" lon="6.82455">
        <ele>2192.5</ele>
        <time>2021-03-30T05:41:17Z</time>
      </trkpt>
      <trkpt lat="45.56318" lon="6.82455">
        <ele>2192.6</ele>
        <time>2021-03-30T05:41:18Z</time>
      </trkpt>
      <trkpt lat="45.56317" lon="6.82455">
        <ele>2192.6</ele>
        <time>2021-03-30T05:41:19Z</time>
      </trkpt>
      <trkpt lat="45.56317" lon="6.82455">
        <ele>2192.7</ele>
        <time>2021-03-30T05:41:20Z</time>
      </trkpt>
      <trkpt lat="45.56316" lon="6.82455">
        <ele>2192.7</ele>
        <time>2021-03-30T05:41:21Z</time>
      </trkpt>
      <trkpt lat="45.56315" lon="6.82455">
        <ele>2192.8</ele>
        <time>2021-03-30T05:41:22Z</time>
      </trkpt>
      <trkpt lat="45.56314" lon="6.82456">
        <ele>2192.8</ele>
        <time>2021-03-30T05:41:23Z</time>
      </trkpt>
      <trkpt lat="45.56313" lon="6.82456">
        <ele>2192.9</ele>
        <time>2021-03-30T05:41:24Z</time>
      </trkpt>
      <trkpt lat="45.56313" lon="6.82456">
        <ele>2193</ele>
        <time>2021-03-30T05:41:25Z</time>
      </trkpt>
      <trkpt lat="45.56312" lon="6.82456">
        <ele>2193</ele>
        <time>2021-03-30T05:41:26Z</time>
      </trkpt>
      <trkpt lat="45.56311" lon="6.82456">
        <ele>2193.1</ele>
        <time>2021-03-30T05:41:27Z</time>
      </trkpt>
      <trkpt lat="45.5631" lon="6.82456">
        <ele>2193.2</ele>
        <time>2021-03-30T05:41:28Z</time>
      </trkpt>
      <trkpt lat="45.56309" lon="6.82456">
        <ele>2193.2</ele>
        <time>2021-03-30T05:41:29Z</time>
      </trkpt>
      <trkpt lat="45.56309" lon="6.82456">
        <ele>2193.3</ele>
        <time>2021-03-30T05:41:30Z</time>
      </trkpt>
      <trkpt lat="45.56308" lon="6.82456">
        <ele>2193.3</ele>
        <time>2021-03-30T05:41:31Z</time>
      </trkpt>
      <trkpt lat="45.56307" lon="6.82457">
        <ele>2193.4</ele>
        <time>2021-03-30T05:41:32Z</time>
      </trkpt>
      <trkpt lat="45.56306" lon="6.82457">
        <ele>2193.5</ele>
        <time>2021-03-30T05:41:33Z</time>
      </trkpt>
      <trkpt lat="45.56305" lon="6.82457">
        <ele>2193.5</ele>
        <time>2021-03-30T05:41:34Z</time>
      </trkpt>
      <trkpt lat="45.56304" lon="6.82457">
        <ele>2193.6</ele>
        <time>2021-03-30T05:41:35Z</time>
      </trkpt>
      <trkpt lat="45.56304" lon="6.82457">
        <ele>2193.7</ele>
        <time>2021-03-30T05:41:36Z</time>
      </trkpt>
      <trkpt lat="45.56303" lon="6.82457">
        <ele>2193.7</ele>
        <time>2021-03-30T05:41:37Z</time>
      </trkpt>
      <trkpt lat="45.56302" lon="6.82456">
        <ele>2193.8</ele>
        <time>2021-03-30T05:41:38Z</time>
      </trkpt>
      <trkpt lat="45.56301" lon="6.82457">
        <ele>2193.9</ele>
        <time>2021-03-30T05:41:39Z</time>
      </trkpt>
      <trkpt lat="45.56301" lon="6.82457">
        <ele>2193.9</ele>
        <time>2021-03-30T05:41:40Z</time>
      </trkpt>
      <trkpt lat="45.563" lon="6.82457">
        <ele>2194</ele>
        <time>2021-03-30T05:41:41Z</time>
      </trkpt>
      <trkpt lat="45.56299" lon="6.82457">
        <ele>2194.1</ele>
        <time>2021-03-30T05:41:42Z</time>
      </trkpt>
      <trkpt lat="45.56298" lon="6.82457">
        <ele>2194.2</ele>
        <time>2021-03-30T05:41:43Z</time>
      </trkpt>
      <trkpt lat="45.56296" lon="6.82458">
        <ele>2194.4</ele>
        <time>2021-03-30T05:41:44Z</time>
      </trkpt>
      <trkpt lat="45.56296" lon="6.82458">
        <ele>2194.4</ele>
        <time>2021-03-30T05:41:45Z</time>
      </trkpt>
      <trkpt lat="45.56295" lon="6.82458">
        <ele>2194.5</ele>
        <time>2021-03-30T05:41:46Z</time>
      </trkpt>
      <trkpt lat="45.56294" lon="6.82458">
        <ele>2194.6</ele>
        <time>2021-03-30T05:41:47Z</time>
      </trkpt>
      <trkpt lat="45.56293" lon="6.82458">
        <ele>2194.6</ele>
        <time>2021-03-30T05:41:48Z</time>
      </trkpt>
      <trkpt lat="45.56292" lon="6.82458">
        <ele>2194.7</ele>
        <time>2021-03-30T05:41:49Z</time>
      </trkpt>
      <trkpt lat="45.56292" lon="6.82459">
        <ele>2194.8</ele>
        <time>2021-03-30T05:41:50Z</time>
      </trkpt>
      <trkpt lat="45.56291" lon="6.82459">
        <ele>2194.9</ele>
        <time>2021-03-30T05:41:51Z</time>
      </trkpt>
      <trkpt lat="45.5629" lon="6.82459">
        <ele>2195</ele>
        <time>2021-03-30T05:41:52Z</time>
      </trkpt>
      <trkpt lat="45.56289" lon="6.82459">
        <ele>2195.1</ele>
        <time>2021-03-30T05:41:53Z</time>
      </trkpt>
      <trkpt lat="45.56288" lon="6.82459">
        <ele>2195.2</ele>
        <time>2021-03-30T05:41:54Z</time>
      </trkpt>
      <trkpt lat="45.56287" lon="6.82459">
        <ele>2195.3</ele>
        <time>2021-03-30T05:41:55Z</time>
      </trkpt>
      <trkpt lat="45.56287" lon="6.82458">
        <ele>2195.4</ele>
        <time>2021-03-30T05:41:56Z</time>
      </trkpt>
      <trkpt lat="45.56286" lon="6.82458">
        <ele>2195.5</ele>
        <time>2021-03-30T05:41:57Z</time>
      </trkpt>
      <trkpt lat="45.56285" lon="6.82458">
        <ele>2195.6</ele>
        <time>2021-03-30T05:41:58Z</time>
      </trkpt>
      <trkpt lat="45.56284" lon="6.82458">
        <ele>2195.7</ele>
        <time>2021-03-30T05:41:59Z</time>
      </trkpt>
      <trkpt lat="45.56283" lon="6.82458">
        <ele>2195.8</ele>
        <time>2021-03-30T05:42:00Z</time>
      </trkpt>
      <trkpt lat="45.56282" lon="6.82458">
        <ele>2195.8</ele>
        <time>2021-03-30T05:42:01Z</time>
      </trkpt>
      <trkpt lat="45.56281" lon="6.82458">
        <ele>2196</ele>
        <time>2021-03-30T05:42:02Z</time>
      </trkpt>
      <trkpt lat="45.5628" lon="6.82458">
        <ele>2196.1</ele>
        <time>2021-03-30T05:42:03Z</time>
      </trkpt>
      <trkpt lat="45.56279" lon="6.82458">
        <ele>2196.2</ele>
        <time>2021-03-30T05:42:04Z</time>
      </trkpt>
      <trkpt lat="45.56278" lon="6.82458">
        <ele>2196.3</ele>
        <time>2021-03-30T05:42:05Z</time>
      </trkpt>
      <trkpt lat="45.56278" lon="6.82458">
        <ele>2196.4</ele>
        <time>2021-03-30T05:42:06Z</time>
      </trkpt>
      <trkpt lat="45.56277" lon="6.82458">
        <ele>2196.5</ele>
        <time>2021-03-30T05:42:07Z</time>
      </trkpt>
      <trkpt lat="45.56276" lon="6.82458">
        <ele>2196.6</ele>
        <time>2021-03-30T05:42:08Z</time>
      </trkpt>
      <trkpt lat="45.56275" lon="6.82458">
        <ele>2196.7</ele>
        <time>2021-03-30T05:42:09Z</time>
      </trkpt>
      <trkpt lat="45.56274" lon="6.82457">
        <ele>2196.8</ele>
        <time>2021-03-30T05:42:10Z</time>
      </trkpt>
      <trkpt lat="45.56273" lon="6.82457">
        <ele>2196.9</ele>
        <time>2021-03-30T05:42:11Z</time>
      </trkpt>
      <trkpt lat="45.56272" lon="6.82457">
        <ele>2197.1</ele>
        <time>2021-03-30T05:42:12Z</time>
      </trkpt>
      <trkpt lat="45.56271" lon="6.82457">
        <ele>2197.2</ele>
        <time>2021-03-30T05:42:13Z</time>
      </trkpt>
      <trkpt lat="45.5627" lon="6.82457">
        <ele>2197.3</ele>
        <time>2021-03-30T05:42:14Z</time>
      </trkpt>
      <trkpt lat="45.56269" lon="6.82457">
        <ele>2197.4</ele>
        <time>2021-03-30T05:42:15Z</time>
      </trkpt>
      <trkpt lat="45.56268" lon="6.82456">
        <ele>2197.5</ele>
        <time>2021-03-30T05:42:16Z</time>
      </trkpt>
      <trkpt lat="45.56267" lon="6.82456">
        <ele>2197.8</ele>
        <time>2021-03-30T05:42:17Z</time>
      </trkpt>
      <trkpt lat="45.56266" lon="6.82456">
        <ele>2197.8</ele>
        <time>2021-03-30T05:42:18Z</time>
      </trkpt>
      <trkpt lat="45.56265" lon="6.82456">
        <ele>2197.8</ele>
        <time>2021-03-30T05:42:19Z</time>
      </trkpt>
      <trkpt lat="45.56265" lon="6.82456">
        <ele>2198</ele>
        <time>2021-03-30T05:42:20Z</time>
      </trkpt>
      <trkpt lat="45.56264" lon="6.82456">
        <ele>2198</ele>
        <time>2021-03-30T05:42:21Z</time>
      </trkpt>
      <trkpt lat="45.56263" lon="6.82457">
        <ele>2198</ele>
        <time>2021-03-30T05:42:22Z</time>
      </trkpt>
      <trkpt lat="45.56262" lon="6.82457">
        <ele>2198.3</ele>
        <time>2021-03-30T05:42:23Z</time>
      </trkpt>
      <trkpt lat="45.56261" lon="6.82457">
        <ele>2198.3</ele>
        <time>2021-03-30T05:42:24Z</time>
      </trkpt>
      <trkpt lat="45.5626" lon="6.82457">
        <ele>2198.3</ele>
        <time>2021-03-30T05:42:25Z</time>
      </trkpt>
      <trkpt lat="45.5626" lon="6.82457">
        <ele>2198.3</ele>
        <time>2021-03-30T05:42:26Z</time>
      </trkpt>
      <trkpt lat="45.56259" lon="6.82457">
        <ele>2198.6</ele>
        <time>2021-03-30T05:42:27Z</time>
      </trkpt>
      <trkpt lat="45.56258" lon="6.82457">
        <ele>2198.6</ele>
        <time>2021-03-30T05:42:28Z</time>
      </trkpt>
      <trkpt lat="45.56257" lon="6.82456">
        <ele>2198.6</ele>
        <time>2021-03-30T05:42:29Z</time>
      </trkpt>
      <trkpt lat="45.56256" lon="6.82456">
        <ele>2198.9</ele>
        <time>2021-03-30T05:42:30Z</time>
      </trkpt>
      <trkpt lat="45.56255" lon="6.82456">
        <ele>2198.9</ele>
        <time>2021-03-30T05:42:31Z</time>
      </trkpt>
      <trkpt lat="45.56255" lon="6.82456">
        <ele>2198.9</ele>
        <time>2021-03-30T05:42:32Z</time>
      </trkpt>
      <trkpt lat="45.56254" lon="6.82456">
        <ele>2198.9</ele>
        <time>2021-03-30T05:42:33Z</time>
      </trkpt>
      <trkpt lat="45.56253" lon="6.82456">
        <ele>2199.2</ele>
        <time>2021-03-30T05:42:34Z</time>
      </trkpt>
      <trkpt lat="45.56252" lon="6.82456">
        <ele>2199.2</ele>
        <time>2021-03-30T05:42:35Z</time>
      </trkpt>
      <trkpt lat="45.56251" lon="6.82456">
        <ele>2199.2</ele>
        <time>2021-03-30T05:42:36Z</time>
      </trkpt>
      <trkpt lat="45.5625" lon="6.82456">
        <ele>2199.2</ele>
        <time>2021-03-30T05:42:37Z</time>
      </trkpt>
      <trkpt lat="45.56249" lon="6.82456">
        <ele>2199.6</ele>
        <time>2021-03-30T05:42:38Z</time>
      </trkpt>
      <trkpt lat="45.56249" lon="6.82456">
        <ele>2199.6</ele>
        <time>2021-03-30T05:42:39Z</time>
      </trkpt>
      <trkpt lat="45.56248" lon="6.82456">
        <ele>2199.6</ele>
        <time>2021-03-30T05:42:40Z</time>
      </trkpt>
      <trkpt lat="45.56247" lon="6.82456">
        <ele>2200</ele>
        <time>2021-03-30T05:42:41Z</time>
      </trkpt>
      <trkpt lat="45.56246" lon="6.82456">
        <ele>2200</ele>
        <time>2021-03-30T05:42:42Z</time>
      </trkpt>
      <trkpt lat="45.56245" lon="6.82456">
        <ele>2200</ele>
        <time>2021-03-30T05:42:43Z</time>
      </trkpt>
      <trkpt lat="45.56244" lon="6.82456">
        <ele>2200</ele>
        <time>2021-03-30T05:42:44Z</time>
      </trkpt>
      <trkpt lat="45.56243" lon="6.82456">
        <ele>2200.3</ele>
        <time>2021-03-30T05:42:45Z</time>
      </trkpt>
      <trkpt lat="45.56242" lon="6.82456">
        <ele>2200.3</ele>
        <time>2021-03-30T05:42:46Z</time>
      </trkpt>
      <trkpt lat="45.56242" lon="6.82456">
        <ele>2200.3</ele>
        <time>2021-03-30T05:42:47Z</time>
      </trkpt>
      <trkpt lat="45.56241" lon="6.82455">
        <ele>2200.6</ele>
        <time>2021-03-30T05:42:48Z</time>
      </trkpt>
      <trkpt lat="45.5624" lon="6.82455">
        <ele>2200.6</ele>
        <time>2021-03-30T05:42:49Z</time>
      </trkpt>
      <trkpt lat="45.56239" lon="6.82455">
        <ele>2200.6</ele>
        <time>2021-03-30T05:42:50Z</time>
      </trkpt>
      <trkpt lat="45.56238" lon="6.82455">
        <ele>2200.6</ele>
        <time>2021-03-30T05:42:51Z</time>
      </trkpt>
      <trkpt lat="45.56237" lon="6.82455">
        <ele>2200.9</ele>
        <time>2021-03-30T05:42:52Z</time>
      </trkpt>
      <trkpt lat="45.56236" lon="6.82455">
        <ele>2200.9</ele>
        <time>2021-03-30T05:42:53Z</time>
      </trkpt>
      <trkpt lat="45.56236" lon="6.82455">
        <ele>2200.9</ele>
        <time>2021-03-30T05:42:54Z</time>
      </trkpt>
      <trkpt lat="45.56235" lon="6.82454">
        <ele>2201.2</ele>
        <time>2021-03-30T05:42:55Z</time>
      </trkpt>
      <trkpt lat="45.56234" lon="6.82454">
        <ele>2201.2</ele>
        <time>2021-03-30T05:42:56Z</time>
      </trkpt>
      <trkpt lat="45.56233" lon="6.82454">
        <ele>2201.2</ele>
        <time>2021-03-30T05:42:57Z</time>
      </trkpt>
      <trkpt lat="45.56232" lon="6.82454">
        <ele>2201.5</ele>
        <time>2021-03-30T05:42:58Z</time>
      </trkpt>
      <trkpt lat="45.56231" lon="6.82453">
        <ele>2201.5</ele>
        <time>2021-03-30T05:42:59Z</time>
      </trkpt>
      <trkpt lat="45.5623" lon="6.82453">
        <ele>2201.5</ele>
        <time>2021-03-30T05:43:00Z</time>
      </trkpt>
      <trkpt lat="45.5623" lon="6.82453">
        <ele>2201.5</ele>
        <time>2021-03-30T05:43:01Z</time>
      </trkpt>
      <trkpt lat="45.56229" lon="6.82453">
        <ele>2201.8</ele>
        <time>2021-03-30T05:43:02Z</time>
      </trkpt>
      <trkpt lat="45.56228" lon="6.82453">
        <ele>2202</ele>
        <time>2021-03-30T05:43:03Z</time>
      </trkpt>
      <trkpt lat="45.56227" lon="6.82452">
        <ele>2202</ele>
        <time>2021-03-30T05:43:04Z</time>
      </trkpt>
      <trkpt lat="45.56226" lon="6.82452">
        <ele>2202</ele>
        <time>2021-03-30T05:43:05Z</time>
      </trkpt>
      <trkpt lat="45.56226" lon="6.82452">
        <ele>2202.3</ele>
        <time>2021-03-30T05:43:06Z</time>
      </trkpt>
      <trkpt lat="45.56225" lon="6.82452">
        <ele>2202.3</ele>
        <time>2021-03-30T05:43:07Z</time>
      </trkpt>
      <trkpt lat="45.56224" lon="6.82452">
        <ele>2202.3</ele>
        <time>2021-03-30T05:43:08Z</time>
      </trkpt>
      <trkpt lat="45.56223" lon="6.82452">
        <ele>2202.4</ele>
        <time>2021-03-30T05:43:09Z</time>
      </trkpt>
      <trkpt lat="45.56223" lon="6.82452">
        <ele>2202.8</ele>
        <time>2021-03-30T05:43:10Z</time>
      </trkpt>
      <trkpt lat="45.56222" lon="6.82452">
        <ele>2202.8</ele>
        <time>2021-03-30T05:43:11Z</time>
      </trkpt>
      <trkpt lat="45.56221" lon="6.82452">
        <ele>2202.8</ele>
        <time>2021-03-30T05:43:12Z</time>
      </trkpt>
      <trkpt lat="45.5622" lon="6.82452">
        <ele>2203.1</ele>
        <time>2021-03-30T05:43:13Z</time>
      </trkpt>
      <trkpt lat="45.56219" lon="6.82452">
        <ele>2203.1</ele>
        <time>2021-03-30T05:43:14Z</time>
      </trkpt>
      <trkpt lat="45.56219" lon="6.82452">
        <ele>2203.2</ele>
        <time>2021-03-30T05:43:15Z</time>
      </trkpt>
      <trkpt lat="45.56218" lon="6.82451">
        <ele>2203.2</ele>
        <time>2021-03-30T05:43:16Z</time>
      </trkpt>
      <trkpt lat="45.56217" lon="6.82451">
        <ele>2203.5</ele>
        <time>2021-03-30T05:43:17Z</time>
      </trkpt>
      <trkpt lat="45.56216" lon="6.82451">
        <ele>2203.5</ele>
        <time>2021-03-30T05:43:18Z</time>
      </trkpt>
      <trkpt lat="45.56215" lon="6.82451">
        <ele>2203.5</ele>
        <time>2021-03-30T05:43:19Z</time>
      </trkpt>
      <trkpt lat="45.56215" lon="6.8245">
        <ele>2203.5</ele>
        <time>2021-03-30T05:43:20Z</time>
      </trkpt>
      <trkpt lat="45.56214" lon="6.8245">
        <ele>2203.9</ele>
        <time>2021-03-30T05:43:21Z</time>
      </trkpt>
      <trkpt lat="45.56213" lon="6.8245">
        <ele>2203.9</ele>
        <time>2021-03-30T05:43:22Z</time>
      </trkpt>
      <trkpt lat="45.56212" lon="6.8245">
        <ele>2203.9</ele>
        <time>2021-03-30T05:43:23Z</time>
      </trkpt>
      <trkpt lat="45.56211" lon="6.82449">
        <ele>2204.2</ele>
        <time>2021-03-30T05:43:24Z</time>
      </trkpt>
      <trkpt lat="45.5621" lon="6.82449">
        <ele>2204.2</ele>
        <time>2021-03-30T05:43:25Z</time>
      </trkpt>
      <trkpt lat="45.56209" lon="6.82449">
        <ele>2204.2</ele>
        <time>2021-03-30T05:43:26Z</time>
      </trkpt>
      <trkpt lat="45.56208" lon="6.82449">
        <ele>2204.3</ele>
        <time>2021-03-30T05:43:27Z</time>
      </trkpt>
      <trkpt lat="45.56207" lon="6.82449">
        <ele>2204.6</ele>
        <time>2021-03-30T05:43:28Z</time>
      </trkpt>
      <trkpt lat="45.56207" lon="6.82449">
        <ele>2204.6</ele>
        <time>2021-03-30T05:43:29Z</time>
      </trkpt>
      <trkpt lat="45.56206" lon="6.82449">
        <ele>2204.6</ele>
        <time>2021-03-30T05:43:30Z</time>
      </trkpt>
      <trkpt lat="45.56205" lon="6.82449">
        <ele>2204.9</ele>
        <time>2021-03-30T05:43:31Z</time>
      </trkpt>
      <trkpt lat="45.56204" lon="6.82448">
        <ele>2204.9</ele>
        <time>2021-03-30T05:43:32Z</time>
      </trkpt>
      <trkpt lat="45.56203" lon="6.82448">
        <ele>2205.1</ele>
        <time>2021-03-30T05:43:33Z</time>
      </trkpt>
      <trkpt lat="45.56202" lon="6.82448">
        <ele>2205.4</ele>
        <time>2021-03-30T05:43:34Z</time>
      </trkpt>
      <trkpt lat="45.56201" lon="6.82448">
        <ele>2205.4</ele>
        <time>2021-03-30T05:43:35Z</time>
      </trkpt>
      <trkpt lat="45.562" lon="6.82448">
        <ele>2205.4</ele>
        <time>2021-03-30T05:43:36Z</time>
      </trkpt>
      <trkpt lat="45.562" lon="6.82448">
        <ele>2205.4</ele>
        <time>2021-03-30T05:43:37Z</time>
      </trkpt>
      <trkpt lat="45.56199" lon="6.82447">
        <ele>2205.8</ele>
        <time>2021-03-30T05:43:38Z</time>
      </trkpt>
      <trkpt lat="45.56198" lon="6.82447">
        <ele>2205.9</ele>
        <time>2021-03-30T05:43:39Z</time>
      </trkpt>
      <trkpt lat="45.56197" lon="6.82447">
        <ele>2205.9</ele>
        <time>2021-03-30T05:43:40Z</time>
      </trkpt>
      <trkpt lat="45.56196" lon="6.82446">
        <ele>2206.3</ele>
        <time>2021-03-30T05:43:41Z</time>
      </trkpt>
      <trkpt lat="45.56195" lon="6.82446">
        <ele>2206.3</ele>
        <time>2021-03-30T05:43:42Z</time>
      </trkpt>
      <trkpt lat="45.56194" lon="6.82446">
        <ele>2206.3</ele>
        <time>2021-03-30T05:43:43Z</time>
      </trkpt>
      <trkpt lat="45.56193" lon="6.82445">
        <ele>2206.3</ele>
        <time>2021-03-30T05:43:44Z</time>
      </trkpt>
      <trkpt lat="45.56192" lon="6.82445">
        <ele>2206.8</ele>
        <time>2021-03-30T05:43:45Z</time>
      </trkpt>
      <trkpt lat="45.56192" lon="6.82445">
        <ele>2206.8</ele>
        <time>2021-03-30T05:43:46Z</time>
      </trkpt>
      <trkpt lat="45.56191" lon="6.82444">
        <ele>2206.8</ele>
        <time>2021-03-30T05:43:47Z</time>
      </trkpt>
      <trkpt lat="45.5619" lon="6.82444">
        <ele>2207.3</ele>
        <time>2021-03-30T05:43:48Z</time>
      </trkpt>
      <trkpt lat="45.56189" lon="6.82444">
        <ele>2207.3</ele>
        <time>2021-03-30T05:43:49Z</time>
      </trkpt>
      <trkpt lat="45.56188" lon="6.82443">
        <ele>2207.4</ele>
        <time>2021-03-30T05:43:50Z</time>
      </trkpt>
      <trkpt lat="45.56187" lon="6.82443">
        <ele>2207.4</ele>
        <time>2021-03-30T05:43:51Z</time>
      </trkpt>
      <trkpt lat="45.56186" lon="6.82442">
        <ele>2207.9</ele>
        <time>2021-03-30T05:43:52Z</time>
      </trkpt>
      <trkpt lat="45.56185" lon="6.82442">
        <ele>2207.9</ele>
        <time>2021-03-30T05:43:53Z</time>
      </trkpt>
      <trkpt lat="45.56185" lon="6.82442">
        <ele>2207.9</ele>
        <time>2021-03-30T05:43:54Z</time>
      </trkpt>
      <trkpt lat="45.56184" lon="6.82441">
        <ele>2208.4</ele>
        <time>2021-03-30T05:43:55Z</time>
      </trkpt>
      <trkpt lat="45.56183" lon="6.82441">
        <ele>2208.5</ele>
        <time>2021-03-30T05:43:56Z</time>
      </trkpt>
      <trkpt lat="45.56182" lon="6.82441">
        <ele>2208.5</ele>
        <time>2021-03-30T05:43:57Z</time>
      </trkpt>
      <trkpt lat="45.56181" lon="6.8244">
        <ele>2208.5</ele>
        <time>2021-03-30T05:43:58Z</time>
      </trkpt>
      <trkpt lat="45.5618" lon="6.8244">
        <ele>2208.9</ele>
        <time>2021-03-30T05:43:59Z</time>
      </trkpt>
      <trkpt lat="45.56179" lon="6.8244">
        <ele>2209</ele>
        <time>2021-03-30T05:44:00Z</time>
      </trkpt>
      <trkpt lat="45.56179" lon="6.82439">
        <ele>2209</ele>
        <time>2021-03-30T05:44:01Z</time>
      </trkpt>
      <trkpt lat="45.56178" lon="6.82439">
        <ele>2209.6</ele>
        <time>2021-03-30T05:44:02Z</time>
      </trkpt>
      <trkpt lat="45.56177" lon="6.82438">
        <ele>2209.6</ele>
        <time>2021-03-30T05:44:03Z</time>
      </trkpt>
      <trkpt lat="45.56176" lon="6.82438">
        <ele>2209.6</ele>
        <time>2021-03-30T05:44:04Z</time>
      </trkpt>
      <trkpt lat="45.56175" lon="6.82438">
        <ele>2209.6</ele>
        <time>2021-03-30T05:44:05Z</time>
      </trkpt>
      <trkpt lat="45.56174" lon="6.82437">
        <ele>2210.2</ele>
        <time>2021-03-30T05:44:06Z</time>
      </trkpt>
      <trkpt lat="45.56173" lon="6.82437">
        <ele>2210.2</ele>
        <time>2021-03-30T05:44:07Z</time>
      </trkpt>
      <trkpt lat="45.56173" lon="6.82437">
        <ele>2210.3</ele>
        <time>2021-03-30T05:44:08Z</time>
      </trkpt>
      <trkpt lat="45.56172" lon="6.82436">
        <ele>2210.9</ele>
        <time>2021-03-30T05:44:09Z</time>
      </trkpt>
      <trkpt lat="45.56171" lon="6.82436">
        <ele>2210.9</ele>
        <time>2021-03-30T05:44:10Z</time>
      </trkpt>
      <trkpt lat="45.5617" lon="6.82435">
        <ele>2211</ele>
        <time>2021-03-30T05:44:11Z</time>
      </trkpt>
      <trkpt lat="45.5617" lon="6.82435">
        <ele>2211</ele>
        <time>2021-03-30T05:44:12Z</time>
      </trkpt>
      <trkpt lat="45.56169" lon="6.82435">
        <ele>2211.6</ele>
        <time>2021-03-30T05:44:13Z</time>
      </trkpt>
      <trkpt lat="45.56168" lon="6.82435">
        <ele>2211.7</ele>
        <time>2021-03-30T05:44:14Z</time>
      </trkpt>
      <trkpt lat="45.56167" lon="6.82434">
        <ele>2211.7</ele>
        <time>2021-03-30T05:44:15Z</time>
      </trkpt>
      <trkpt lat="45.56166" lon="6.82434">
        <ele>2211.7</ele>
        <time>2021-03-30T05:44:16Z</time>
      </trkpt>
      <trkpt lat="45.56165" lon="6.82433">
        <ele>2212.4</ele>
        <time>2021-03-30T05:44:17Z</time>
      </trkpt>
      <trkpt lat="45.56165" lon="6.82433">
        <ele>2212.4</ele>
        <time>2021-03-30T05:44:18Z</time>
      </trkpt>
      <trkpt lat="45.56164" lon="6.82432">
        <ele>2212.4</ele>
        <time>2021-03-30T05:44:19Z</time>
      </trkpt>
      <trkpt lat="45.56163" lon="6.82432">
        <ele>2213.2</ele>
        <time>2021-03-30T05:44:20Z</time>
      </trkpt>
      <trkpt lat="45.56162" lon="6.82432">
        <ele>2213.2</ele>
        <time>2021-03-30T05:44:21Z</time>
      </trkpt>
      <trkpt lat="45.56161" lon="6.82431">
        <ele>2213.3</ele>
        <time>2021-03-30T05:44:22Z</time>
      </trkpt>
      <trkpt lat="45.56161" lon="6.82431">
        <ele>2213.3</ele>
        <time>2021-03-30T05:44:23Z</time>
      </trkpt>
      <trkpt lat="45.5616" lon="6.8243">
        <ele>2214</ele>
        <time>2021-03-30T05:44:24Z</time>
      </trkpt>
      <trkpt lat="45.56159" lon="6.8243">
        <ele>2214</ele>
        <time>2021-03-30T05:44:25Z</time>
      </trkpt>
      <trkpt lat="45.56158" lon="6.82429">
        <ele>2214.1</ele>
        <time>2021-03-30T05:44:26Z</time>
      </trkpt>
      <trkpt lat="45.56157" lon="6.82429">
        <ele>2214.1</ele>
        <time>2021-03-30T05:44:27Z</time>
      </trkpt>
      <trkpt lat="45.56156" lon="6.82428">
        <ele>2214.7</ele>
        <time>2021-03-30T05:44:28Z</time>
      </trkpt>
      <trkpt lat="45.56156" lon="6.82427">
        <ele>2214.7</ele>
        <time>2021-03-30T05:44:29Z</time>
      </trkpt>
      <trkpt lat="45.56155" lon="6.82427">
        <ele>2214.8</ele>
        <time>2021-03-30T05:44:30Z</time>
      </trkpt>
      <trkpt lat="45.56154" lon="6.82426">
        <ele>2215.4</ele>
        <time>2021-03-30T05:44:31Z</time>
      </trkpt>
      <trkpt lat="45.56153" lon="6.82425">
        <ele>2215.5</ele>
        <time>2021-03-30T05:44:32Z</time>
      </trkpt>
      <trkpt lat="45.56152" lon="6.82425">
        <ele>2215.5</ele>
        <time>2021-03-30T05:44:33Z</time>
      </trkpt>
      <trkpt lat="45.56151" lon="6.82424">
        <ele>2215.5</ele>
        <time>2021-03-30T05:44:34Z</time>
      </trkpt>
      <trkpt lat="45.5615" lon="6.82423">
        <ele>2216.1</ele>
        <time>2021-03-30T05:44:35Z</time>
      </trkpt>
      <trkpt lat="45.56149" lon="6.82423">
        <ele>2216.1</ele>
        <time>2021-03-30T05:44:36Z</time>
      </trkpt>
      <trkpt lat="45.56148" lon="6.82423">
        <ele>2216.3</ele>
        <time>2021-03-30T05:44:37Z</time>
      </trkpt>
      <trkpt lat="45.56148" lon="6.82422">
        <ele>2217</ele>
        <time>2021-03-30T05:44:38Z</time>
      </trkpt>
      <trkpt lat="45.56147" lon="6.82422">
        <ele>2217</ele>
        <time>2021-03-30T05:44:39Z</time>
      </trkpt>
      <trkpt lat="45.56146" lon="6.82422">
        <ele>2217</ele>
        <time>2021-03-30T05:44:40Z</time>
      </trkpt>
      <trkpt lat="45.56145" lon="6.82421">
        <ele>2217</ele>
        <time>2021-03-30T05:44:41Z</time>
      </trkpt>
      <trkpt lat="45.56145" lon="6.82421">
        <ele>2217.7</ele>
        <time>2021-03-30T05:44:42Z</time>
      </trkpt>
      <trkpt lat="45.56144" lon="6.8242">
        <ele>2217.7</ele>
        <time>2021-03-30T05:44:43Z</time>
      </trkpt>
      <trkpt lat="45.56143" lon="6.8242">
        <ele>2217.7</ele>
        <time>2021-03-30T05:44:44Z</time>
      </trkpt>
      <trkpt lat="45.56141" lon="6.82419">
        <ele>2218.4</ele>
        <time>2021-03-30T05:44:45Z</time>
      </trkpt>
      <trkpt lat="45.56141" lon="6.82419">
        <ele>2218.4</ele>
        <time>2021-03-30T05:44:46Z</time>
      </trkpt>
      <trkpt lat="45.5614" lon="6.82419">
        <ele>2218.4</ele>
        <time>2021-03-30T05:44:47Z</time>
      </trkpt>
      <trkpt lat="45.56139" lon="6.82419">
        <ele>2218.4</ele>
        <time>2021-03-30T05:44:48Z</time>
      </trkpt>
      <trkpt lat="45.56139" lon="6.82418">
        <ele>2219.2</ele>
        <time>2021-03-30T05:44:49Z</time>
      </trkpt>
      <trkpt lat="45.56138" lon="6.82418">
        <ele>2219.3</ele>
        <time>2021-03-30T05:44:50Z</time>
      </trkpt>
      <trkpt lat="45.56137" lon="6.82418">
        <ele>2219.3</ele>
        <time>2021-03-30T05:44:51Z</time>
      </trkpt>
      <trkpt lat="45.56136" lon="6.82417">
        <ele>2219.3</ele>
        <time>2021-03-30T05:44:52Z</time>
      </trkpt>
      <trkpt lat="45.56135" lon="6.82417">
        <ele>2220.1</ele>
        <time>2021-03-30T05:44:53Z</time>
      </trkpt>
      <trkpt lat="45.56135" lon="6.82416">
        <ele>2220.1</ele>
        <time>2021-03-30T05:44:54Z</time>
      </trkpt>
      <trkpt lat="45.56134" lon="6.82416">
        <ele>2220.1</ele>
        <time>2021-03-30T05:44:55Z</time>
      </trkpt>
      <trkpt lat="45.56133" lon="6.82415">
        <ele>2220.1</ele>
        <time>2021-03-30T05:44:56Z</time>
      </trkpt>
      <trkpt lat="45.56132" lon="6.82414">
        <ele>2220.7</ele>
        <time>2021-03-30T05:44:57Z</time>
      </trkpt>
      <trkpt lat="45.56131" lon="6.82414">
        <ele>2220.9</ele>
        <time>2021-03-30T05:44:58Z</time>
      </trkpt>
      <trkpt lat="45.56131" lon="6.82413">
        <ele>2220.9</ele>
        <time>2021-03-30T05:44:59Z</time>
      </trkpt>
      <trkpt lat="45.5613" lon="6.82413">
        <ele>2221.6</ele>
        <time>2021-03-30T05:45:00Z</time>
      </trkpt>
      <trkpt lat="45.56129" lon="6.82412">
        <ele>2221.6</ele>
        <time>2021-03-30T05:45:01Z</time>
      </trkpt>
      <trkpt lat="45.56129" lon="6.82411">
        <ele>2221.6</ele>
        <time>2021-03-30T05:45:02Z</time>
      </trkpt>
      <trkpt lat="45.56128" lon="6.82411">
        <ele>2221.6</ele>
        <time>2021-03-30T05:45:03Z</time>
      </trkpt>
      <trkpt lat="45.56127" lon="6.8241">
        <ele>2221.6</ele>
        <time>2021-03-30T05:45:04Z</time>
      </trkpt>
      <trkpt lat="45.56126" lon="6.82409">
        <ele>2222.4</ele>
        <time>2021-03-30T05:45:05Z</time>
      </trkpt>
      <trkpt lat="45.56125" lon="6.82409">
        <ele>2222.4</ele>
        <time>2021-03-30T05:45:06Z</time>
      </trkpt>
      <trkpt lat="45.56125" lon="6.82408">
        <ele>2222.4</ele>
        <time>2021-03-30T05:45:07Z</time>
      </trkpt>
      <trkpt lat="45.56124" lon="6.82408">
        <ele>2223</ele>
        <time>2021-03-30T05:45:08Z</time>
      </trkpt>
      <trkpt lat="45.56123" lon="6.82407">
        <ele>2223</ele>
        <time>2021-03-30T05:45:09Z</time>
      </trkpt>
      <trkpt lat="45.56122" lon="6.82406">
        <ele>2223</ele>
        <time>2021-03-30T05:45:10Z</time>
      </trkpt>
      <trkpt lat="45.56122" lon="6.82406">
        <ele>2223</ele>
        <time>2021-03-30T05:45:11Z</time>
      </trkpt>
      <trkpt lat="45.56121" lon="6.82405">
        <ele>2223.8</ele>
        <time>2021-03-30T05:45:12Z</time>
      </trkpt>
      <trkpt lat="45.5612" lon="6.82404">
        <ele>2223.8</ele>
        <time>2021-03-30T05:45:13Z</time>
      </trkpt>
      <trkpt lat="45.56119" lon="6.82404">
        <ele>2223.8</ele>
        <time>2021-03-30T05:45:14Z</time>
      </trkpt>
      <trkpt lat="45.56119" lon="6.82403">
        <ele>2223.8</ele>
        <time>2021-03-30T05:45:15Z</time>
      </trkpt>
      <trkpt lat="45.56118" lon="6.82403">
        <ele>2224.5</ele>
        <time>2021-03-30T05:45:16Z</time>
      </trkpt>
      <trkpt lat="45.56117" lon="6.82402">
        <ele>2224.5</ele>
        <time>2021-03-30T05:45:17Z</time>
      </trkpt>
      <trkpt lat="45.56116" lon="6.82402">
        <ele>2224.5</ele>
        <time>2021-03-30T05:45:18Z</time>
      </trkpt>
      <trkpt lat="45.56115" lon="6.82401">
        <ele>2224.6</ele>
        <time>2021-03-30T05:45:19Z</time>
      </trkpt>
      <trkpt lat="45.56115" lon="6.824">
        <ele>2225.2</ele>
        <time>2021-03-30T05:45:20Z</time>
      </trkpt>
      <trkpt lat="45.56114" lon="6.82399">
        <ele>2225.2</ele>
        <time>2021-03-30T05:45:21Z</time>
      </trkpt>
      <trkpt lat="45.56113" lon="6.82399">
        <ele>2225.2</ele>
        <time>2021-03-30T05:45:22Z</time>
      </trkpt>
      <trkpt lat="45.56112" lon="6.82398">
        <ele>2225.2</ele>
        <time>2021-03-30T05:45:23Z</time>
      </trkpt>
      <trkpt lat="45.56112" lon="6.82397">
        <ele>2225.9</ele>
        <time>2021-03-30T05:45:24Z</time>
      </trkpt>
      <trkpt lat="45.56111" lon="6.82397">
        <ele>2226</ele>
        <time>2021-03-30T05:45:25Z</time>
      </trkpt>
      <trkpt lat="45.5611" lon="6.82396">
        <ele>2226</ele>
        <time>2021-03-30T05:45:26Z</time>
      </trkpt>
      <trkpt lat="45.5611" lon="6.82396">
        <ele>2226</ele>
        <time>2021-03-30T05:45:27Z</time>
      </trkpt>
      <trkpt lat="45.56109" lon="6.82395">
        <ele>2226.6</ele>
        <time>2021-03-30T05:45:28Z</time>
      </trkpt>
      <trkpt lat="45.56108" lon="6.82395">
        <ele>2226.6</ele>
        <time>2021-03-30T05:45:29Z</time>
      </trkpt>
      <trkpt lat="45.56108" lon="6.82394">
        <ele>2226.6</ele>
        <time>2021-03-30T05:45:30Z</time>
      </trkpt>
      <trkpt lat="45.56107" lon="6.82393">
        <ele>2226.6</ele>
        <time>2021-03-30T05:45:31Z</time>
      </trkpt>
      <trkpt lat="45.56106" lon="6.82393">
        <ele>2226.6</ele>
        <time>2021-03-30T05:45:32Z</time>
      </trkpt>
      <trkpt lat="45.56106" lon="6.82392">
        <ele>2227.3</ele>
        <time>2021-03-30T05:45:33Z</time>
      </trkpt>
      <trkpt lat="45.56105" lon="6.82391">
        <ele>2227.3</ele>
        <time>2021-03-30T05:45:34Z</time>
      </trkpt>
      <trkpt lat="45.56105" lon="6.82391">
        <ele>2227.3</ele>
        <time>2021-03-30T05:45:35Z</time>
      </trkpt>
      <trkpt lat="45.56104" lon="6.8239">
        <ele>2227.3</ele>
        <time>2021-03-30T05:45:36Z</time>
      </trkpt>
      <trkpt lat="45.56103" lon="6.82389">
        <ele>2227.3</ele>
        <time>2021-03-30T05:45:37Z</time>
      </trkpt>
      <trkpt lat="45.56103" lon="6.82389">
        <ele>2227.9</ele>
        <time>2021-03-30T05:45:38Z</time>
      </trkpt>
      <trkpt lat="45.56102" lon="6.82388">
        <ele>2228.1</ele>
        <time>2021-03-30T05:45:39Z</time>
      </trkpt>
      <trkpt lat="45.56101" lon="6.82388">
        <ele>2228.1</ele>
        <time>2021-03-30T05:45:40Z</time>
      </trkpt>
      <trkpt lat="45.56101" lon="6.82387">
        <ele>2228.1</ele>
        <time>2021-03-30T05:45:41Z</time>
      </trkpt>
      <trkpt lat="45.561" lon="6.82386">
        <ele>2228.1</ele>
        <time>2021-03-30T05:45:42Z</time>
      </trkpt>
      <trkpt lat="45.561" lon="6.82385">
        <ele>2228.6</ele>
        <time>2021-03-30T05:45:43Z</time>
      </trkpt>
      <trkpt lat="45.56099" lon="6.82385">
        <ele>2228.6</ele>
        <time>2021-03-30T05:45:44Z</time>
      </trkpt>
      <trkpt lat="45.56099" lon="6.82384">
        <ele>2228.6</ele>
        <time>2021-03-30T05:45:45Z</time>
      </trkpt>
      <trkpt lat="45.56098" lon="6.82383">
        <ele>2228.7</ele>
        <time>2021-03-30T05:45:46Z</time>
      </trkpt>
      <trkpt lat="45.56097" lon="6.82383">
        <ele>2228.7</ele>
        <time>2021-03-30T05:45:47Z</time>
      </trkpt>
      <trkpt lat="45.56097" lon="6.82383">
        <ele>2229.3</ele>
        <time>2021-03-30T05:45:48Z</time>
      </trkpt>
      <trkpt lat="45.56096" lon="6.82382">
        <ele>2229.3</ele>
        <time>2021-03-30T05:45:49Z</time>
      </trkpt>
      <trkpt lat="45.56096" lon="6.82382">
        <ele>2229.3</ele>
        <time>2021-03-30T05:45:50Z</time>
      </trkpt>
      <trkpt lat="45.56095" lon="6.82382">
        <ele>2229.3</ele>
        <time>2021-03-30T05:45:51Z</time>
      </trkpt>
      <trkpt lat="45.56094" lon="6.82382">
        <ele>2229.3</ele>
        <time>2021-03-30T05:45:52Z</time>
      </trkpt>
      <trkpt lat="45.56094" lon="6.82381">
        <ele>2229.8</ele>
        <time>2021-03-30T05:45:53Z</time>
      </trkpt>
      <trkpt lat="45.56093" lon="6.82381">
        <ele>2229.8</ele>
        <time>2021-03-30T05:45:54Z</time>
      </trkpt>
      <trkpt lat="45.56092" lon="6.82381">
        <ele>2229.8</ele>
        <time>2021-03-30T05:45:55Z</time>
      </trkpt>
      <trkpt lat="45.56091" lon="6.8238">
        <ele>2229.8</ele>
        <time>2021-03-30T05:45:56Z</time>
      </trkpt>
      <trkpt lat="45.56091" lon="6.8238">
        <ele>2230.4</ele>
        <time>2021-03-30T05:45:57Z</time>
      </trkpt>
      <trkpt lat="45.5609" lon="6.82379">
        <ele>2230.5</ele>
        <time>2021-03-30T05:45:58Z</time>
      </trkpt>
      <trkpt lat="45.56089" lon="6.82379">
        <ele>2230.5</ele>
        <time>2021-03-30T05:45:59Z</time>
      </trkpt>
      <trkpt lat="45.56089" lon="6.82378">
        <ele>2230.5</ele>
        <time>2021-03-30T05:46:00Z</time>
      </trkpt>
      <trkpt lat="45.56088" lon="6.82377">
        <ele>2230.5</ele>
        <time>2021-03-30T05:46:01Z</time>
      </trkpt>
      <trkpt lat="45.56088" lon="6.82377">
        <ele>2231.1</ele>
        <time>2021-03-30T05:46:02Z</time>
      </trkpt>
      <trkpt lat="45.56087" lon="6.82376">
        <ele>2231.1</ele>
        <time>2021-03-30T05:46:03Z</time>
      </trkpt>
      <trkpt lat="45.56087" lon="6.82376">
        <ele>2231.1</ele>
        <time>2021-03-30T05:46:04Z</time>
      </trkpt>
      <trkpt lat="45.56086" lon="6.82375">
        <ele>2231.2</ele>
        <time>2021-03-30T05:46:05Z</time>
      </trkpt>
      <trkpt lat="45.56085" lon="6.82374">
        <ele>2231.2</ele>
        <time>2021-03-30T05:46:06Z</time>
      </trkpt>
      <trkpt lat="45.56085" lon="6.82373">
        <ele>2231.2</ele>
        <time>2021-03-30T05:46:07Z</time>
      </trkpt>
      <trkpt lat="45.56084" lon="6.82372">
        <ele>2231.8</ele>
        <time>2021-03-30T05:46:08Z</time>
      </trkpt>
      <trkpt lat="45.56084" lon="6.82372">
        <ele>2231.8</ele>
        <time>2021-03-30T05:46:09Z</time>
      </trkpt>
      <trkpt lat="45.56083" lon="6.82371">
        <ele>2231.9</ele>
        <time>2021-03-30T05:46:10Z</time>
      </trkpt>
      <trkpt lat="45.56082" lon="6.8237">
        <ele>2231.9</ele>
        <time>2021-03-30T05:46:11Z</time>
      </trkpt>
      <trkpt lat="45.56082" lon="6.82369">
        <ele>2232.4</ele>
        <time>2021-03-30T05:46:12Z</time>
      </trkpt>
      <trkpt lat="45.56081" lon="6.82368">
        <ele>2232.4</ele>
        <time>2021-03-30T05:46:13Z</time>
      </trkpt>
      <trkpt lat="45.5608" lon="6.82367">
        <ele>2232.4</ele>
        <time>2021-03-30T05:46:14Z</time>
      </trkpt>
      <trkpt lat="45.5608" lon="6.82366">
        <ele>2232.6</ele>
        <time>2021-03-30T05:46:15Z</time>
      </trkpt>
      <trkpt lat="45.56079" lon="6.82365">
        <ele>2232.6</ele>
        <time>2021-03-30T05:46:16Z</time>
      </trkpt>
      <trkpt lat="45.56079" lon="6.82365">
        <ele>2233.1</ele>
        <time>2021-03-30T05:46:17Z</time>
      </trkpt>
      <trkpt lat="45.56078" lon="6.82364">
        <ele>2233.1</ele>
        <time>2021-03-30T05:46:18Z</time>
      </trkpt>
      <trkpt lat="45.56078" lon="6.82364">
        <ele>2233.1</ele>
        <time>2021-03-30T05:46:19Z</time>
      </trkpt>
      <trkpt lat="45.56077" lon="6.82363">
        <ele>2233.1</ele>
        <time>2021-03-30T05:46:20Z</time>
      </trkpt>
      <trkpt lat="45.56077" lon="6.82362">
        <ele>2233.2</ele>
        <time>2021-03-30T05:46:21Z</time>
      </trkpt>
      <trkpt lat="45.56076" lon="6.82361">
        <ele>2233.2</ele>
        <time>2021-03-30T05:46:22Z</time>
      </trkpt>
      <trkpt lat="45.56076" lon="6.8236">
        <ele>2233.7</ele>
        <time>2021-03-30T05:46:23Z</time>
      </trkpt>
      <trkpt lat="45.56075" lon="6.8236">
        <ele>2233.7</ele>
        <time>2021-03-30T05:46:24Z</time>
      </trkpt>
      <trkpt lat="45.56075" lon="6.82359">
        <ele>2233.7</ele>
        <time>2021-03-30T05:46:25Z</time>
      </trkpt>
      <trkpt lat="45.56074" lon="6.82358">
        <ele>2233.8</ele>
        <time>2021-03-30T05:46:26Z</time>
      </trkpt>
      <trkpt lat="45.56074" lon="6.82357">
        <ele>2233.8</ele>
        <time>2021-03-30T05:46:27Z</time>
      </trkpt>
      <trkpt lat="45.56073" lon="6.82356">
        <ele>2233.8</ele>
        <time>2021-03-30T05:46:28Z</time>
      </trkpt>
      <trkpt lat="45.56073" lon="6.82356">
        <ele>2234.1</ele>
        <time>2021-03-30T05:46:29Z</time>
      </trkpt>
      <trkpt lat="45.56072" lon="6.82355">
        <ele>2234.1</ele>
        <time>2021-03-30T05:46:30Z</time>
      </trkpt>
      <trkpt lat="45.56072" lon="6.82354">
        <ele>2234.3</ele>
        <time>2021-03-30T05:46:31Z</time>
      </trkpt>
      <trkpt lat="45.56071" lon="6.82353">
        <ele>2234.3</ele>
        <time>2021-03-30T05:46:32Z</time>
      </trkpt>
      <trkpt lat="45.56071" lon="6.82352">
        <ele>2234.3</ele>
        <time>2021-03-30T05:46:33Z</time>
      </trkpt>
      <trkpt lat="45.5607" lon="6.82351">
        <ele>2234.3</ele>
        <time>2021-03-30T05:46:34Z</time>
      </trkpt>
      <trkpt lat="45.5607" lon="6.8235">
        <ele>2234.6</ele>
        <time>2021-03-30T05:46:35Z</time>
      </trkpt>
      <trkpt lat="45.56069" lon="6.8235">
        <ele>2234.7</ele>
        <time>2021-03-30T05:46:36Z</time>
      </trkpt>
      <trkpt lat="45.56069" lon="6.82349">
        <ele>2234.7</ele>
        <time>2021-03-30T05:46:37Z</time>
      </trkpt>
      <trkpt lat="45.56068" lon="6.82348">
        <ele>2234.7</ele>
        <time>2021-03-30T05:46:38Z</time>
      </trkpt>
      <trkpt lat="45.56068" lon="6.82346">
        <ele>2234.7</ele>
        <time>2021-03-30T05:46:39Z</time>
      </trkpt>
      <trkpt lat="45.56067" lon="6.82345">
        <ele>2234.8</ele>
        <time>2021-03-30T05:46:40Z</time>
      </trkpt>
      <trkpt lat="45.56067" lon="6.82344">
        <ele>2234.8</ele>
        <time>2021-03-30T05:46:41Z</time>
      </trkpt>
      <trkpt lat="45.56066" lon="6.82343">
        <ele>2235.1</ele>
        <time>2021-03-30T05:46:42Z</time>
      </trkpt>
      <trkpt lat="45.56066" lon="6.82342">
        <ele>2235.1</ele>
        <time>2021-03-30T05:46:43Z</time>
      </trkpt>
      <trkpt lat="45.56065" lon="6.82341">
        <ele>2235.2</ele>
        <time>2021-03-30T05:46:44Z</time>
      </trkpt>
      <trkpt lat="45.56065" lon="6.8234">
        <ele>2235.2</ele>
        <time>2021-03-30T05:46:45Z</time>
      </trkpt>
      <trkpt lat="45.56064" lon="6.82339">
        <ele>2235.2</ele>
        <time>2021-03-30T05:46:46Z</time>
      </trkpt>
      <trkpt lat="45.56063" lon="6.82338">
        <ele>2235.6</ele>
        <time>2021-03-30T05:46:47Z</time>
      </trkpt>
      <trkpt lat="45.56063" lon="6.82337">
        <ele>2235.6</ele>
        <time>2021-03-30T05:46:48Z</time>
      </trkpt>
      <trkpt lat="45.56062" lon="6.82336">
        <ele>2235.7</ele>
        <time>2021-03-30T05:46:49Z</time>
      </trkpt>
      <trkpt lat="45.56062" lon="6.82336">
        <ele>2235.7</ele>
        <time>2021-03-30T05:46:50Z</time>
      </trkpt>
      <trkpt lat="45.56061" lon="6.82335">
        <ele>2235.7</ele>
        <time>2021-03-30T05:46:51Z</time>
      </trkpt>
      <trkpt lat="45.56061" lon="6.82334">
        <ele>2236</ele>
        <time>2021-03-30T05:46:52Z</time>
      </trkpt>
      <trkpt lat="45.5606" lon="6.82333">
        <ele>2236</ele>
        <time>2021-03-30T05:46:53Z</time>
      </trkpt>
      <trkpt lat="45.5606" lon="6.82332">
        <ele>2236.1</ele>
        <time>2021-03-30T05:46:54Z</time>
      </trkpt>
      <trkpt lat="45.56059" lon="6.82332">
        <ele>2236.1</ele>
        <time>2021-03-30T05:46:55Z</time>
      </trkpt>
      <trkpt lat="45.56058" lon="6.82331">
        <ele>2236.1</ele>
        <time>2021-03-30T05:46:56Z</time>
      </trkpt>
      <trkpt lat="45.56058" lon="6.82329">
        <ele>2236.5</ele>
        <time>2021-03-30T05:46:57Z</time>
      </trkpt>
      <trkpt lat="45.56057" lon="6.82329">
        <ele>2236.5</ele>
        <time>2021-03-30T05:46:58Z</time>
      </trkpt>
      <trkpt lat="45.56057" lon="6.82328">
        <ele>2236.6</ele>
        <time>2021-03-30T05:46:59Z</time>
      </trkpt>
      <trkpt lat="45.56056" lon="6.82327">
        <ele>2236.6</ele>
        <time>2021-03-30T05:47:00Z</time>
      </trkpt>
      <trkpt lat="45.56056" lon="6.82326">
        <ele>2236.6</ele>
        <time>2021-03-30T05:47:01Z</time>
      </trkpt>
      <trkpt lat="45.56055" lon="6.82326">
        <ele>2236.6</ele>
        <time>2021-03-30T05:47:02Z</time>
      </trkpt>
      <trkpt lat="45.56055" lon="6.82325">
        <ele>2236.9</ele>
        <time>2021-03-30T05:47:03Z</time>
      </trkpt>
      <trkpt lat="45.56054" lon="6.82324">
        <ele>2236.9</ele>
        <time>2021-03-30T05:47:04Z</time>
      </trkpt>
      <trkpt lat="45.56054" lon="6.82323">
        <ele>2237</ele>
        <time>2021-03-30T05:47:05Z</time>
      </trkpt>
      <trkpt lat="45.56053" lon="6.82322">
        <ele>2237</ele>
        <time>2021-03-30T05:47:06Z</time>
      </trkpt>
      <trkpt lat="45.56053" lon="6.82322">
        <ele>2237</ele>
        <time>2021-03-30T05:47:07Z</time>
      </trkpt>
      <trkpt lat="45.56052" lon="6.82321">
        <ele>2237</ele>
        <time>2021-03-30T05:47:08Z</time>
      </trkpt>
      <trkpt lat="45.56052" lon="6.8232">
        <ele>2237.3</ele>
        <time>2021-03-30T05:47:09Z</time>
      </trkpt>
      <trkpt lat="45.56051" lon="6.82319">
        <ele>2237.4</ele>
        <time>2021-03-30T05:47:10Z</time>
      </trkpt>
      <trkpt lat="45.56051" lon="6.82318">
        <ele>2237.4</ele>
        <time>2021-03-30T05:47:11Z</time>
      </trkpt>
      <trkpt lat="45.5605" lon="6.82318">
        <ele>2237.4</ele>
        <time>2021-03-30T05:47:12Z</time>
      </trkpt>
      <trkpt lat="45.5605" lon="6.82317">
        <ele>2237.4</ele>
        <time>2021-03-30T05:47:13Z</time>
      </trkpt>
      <trkpt lat="45.56049" lon="6.82316">
        <ele>2237.4</ele>
        <time>2021-03-30T05:47:14Z</time>
      </trkpt>
      <trkpt lat="45.56049" lon="6.82316">
        <ele>2237.7</ele>
        <time>2021-03-30T05:47:15Z</time>
      </trkpt>
      <trkpt lat="45.56048" lon="6.82315">
        <ele>2237.8</ele>
        <time>2021-03-30T05:47:16Z</time>
      </trkpt>
      <trkpt lat="45.56047" lon="6.82314">
        <ele>2237.8</ele>
        <time>2021-03-30T05:47:17Z</time>
      </trkpt>
      <trkpt lat="45.56047" lon="6.82313">
        <ele>2237.8</ele>
        <time>2021-03-30T05:47:18Z</time>
      </trkpt>
      <trkpt lat="45.56046" lon="6.82312">
        <ele>2237.8</ele>
        <time>2021-03-30T05:47:19Z</time>
      </trkpt>
      <trkpt lat="45.56045" lon="6.82311">
        <ele>2238.1</ele>
        <time>2021-03-30T05:47:20Z</time>
      </trkpt>
      <trkpt lat="45.56045" lon="6.8231">
        <ele>2238.2</ele>
        <time>2021-03-30T05:47:21Z</time>
      </trkpt>
      <trkpt lat="45.56044" lon="6.8231">
        <ele>2238.2</ele>
        <time>2021-03-30T05:47:22Z</time>
      </trkpt>
      <trkpt lat="45.56044" lon="6.82309">
        <ele>2238.2</ele>
        <time>2021-03-30T05:47:23Z</time>
      </trkpt>
      <trkpt lat="45.56043" lon="6.82307">
        <ele>2238.2</ele>
        <time>2021-03-30T05:47:24Z</time>
      </trkpt>
      <trkpt lat="45.56042" lon="6.82306">
        <ele>2238.6</ele>
        <time>2021-03-30T05:47:25Z</time>
      </trkpt>
      <trkpt lat="45.56042" lon="6.82305">
        <ele>2238.6</ele>
        <time>2021-03-30T05:47:26Z</time>
      </trkpt>
      <trkpt lat="45.56041" lon="6.82304">
        <ele>2238.6</ele>
        <time>2021-03-30T05:47:27Z</time>
      </trkpt>
      <trkpt lat="45.56041" lon="6.82303">
        <ele>2238.6</ele>
        <time>2021-03-30T05:47:28Z</time>
      </trkpt>
      <trkpt lat="45.5604" lon="6.82302">
        <ele>2238.7</ele>
        <time>2021-03-30T05:47:29Z</time>
      </trkpt>
      <trkpt lat="45.5604" lon="6.82301">
        <ele>2239.1</ele>
        <time>2021-03-30T05:47:30Z</time>
      </trkpt>
      <trkpt lat="45.56039" lon="6.823">
        <ele>2239.1</ele>
        <time>2021-03-30T05:47:31Z</time>
      </trkpt>
      <trkpt lat="45.56039" lon="6.823">
        <ele>2239.1</ele>
        <time>2021-03-30T05:47:32Z</time>
      </trkpt>
      <trkpt lat="45.56038" lon="6.82299">
        <ele>2239.1</ele>
        <time>2021-03-30T05:47:33Z</time>
      </trkpt>
      <trkpt lat="45.56038" lon="6.82298">
        <ele>2239.2</ele>
        <time>2021-03-30T05:47:34Z</time>
      </trkpt>
      <trkpt lat="45.56037" lon="6.82297">
        <ele>2239.2</ele>
        <time>2021-03-30T05:47:35Z</time>
      </trkpt>
      <trkpt lat="45.56037" lon="6.82296">
        <ele>2239.5</ele>
        <time>2021-03-30T05:47:36Z</time>
      </trkpt>
      <trkpt lat="45.56036" lon="6.82295">
        <ele>2239.5</ele>
        <time>2021-03-30T05:47:37Z</time>
      </trkpt>
      <trkpt lat="45.56036" lon="6.82294">
        <ele>2239.5</ele>
        <time>2021-03-30T05:47:38Z</time>
      </trkpt>
      <trkpt lat="45.56035" lon="6.82293">
        <ele>2239.6</ele>
        <time>2021-03-30T05:47:39Z</time>
      </trkpt>
      <trkpt lat="45.56034" lon="6.82292">
        <ele>2239.6</ele>
        <time>2021-03-30T05:47:40Z</time>
      </trkpt>
      <trkpt lat="45.56034" lon="6.82291">
        <ele>2240.1</ele>
        <time>2021-03-30T05:47:41Z</time>
      </trkpt>
      <trkpt lat="45.56033" lon="6.82291">
        <ele>2240.1</ele>
        <time>2021-03-30T05:47:42Z</time>
      </trkpt>
      <trkpt lat="45.56033" lon="6.8229">
        <ele>2240.1</ele>
        <time>2021-03-30T05:47:43Z</time>
      </trkpt>
      <trkpt lat="45.56032" lon="6.8229">
        <ele>2240.2</ele>
        <time>2021-03-30T05:47:44Z</time>
      </trkpt>
      <trkpt lat="45.56032" lon="6.82289">
        <ele>2240.2</ele>
        <time>2021-03-30T05:47:45Z</time>
      </trkpt>
      <trkpt lat="45.56031" lon="6.82288">
        <ele>2240.2</ele>
        <time>2021-03-30T05:47:46Z</time>
      </trkpt>
      <trkpt lat="45.5603" lon="6.82287">
        <ele>2240.6</ele>
        <time>2021-03-30T05:47:47Z</time>
      </trkpt>
      <trkpt lat="45.5603" lon="6.82286">
        <ele>2240.6</ele>
        <time>2021-03-30T05:47:48Z</time>
      </trkpt>
      <trkpt lat="45.56029" lon="6.82286">
        <ele>2240.6</ele>
        <time>2021-03-30T05:47:49Z</time>
      </trkpt>
      <trkpt lat="45.56029" lon="6.82285">
        <ele>2240.7</ele>
        <time>2021-03-30T05:47:50Z</time>
      </trkpt>
      <trkpt lat="45.56028" lon="6.82284">
        <ele>2240.7</ele>
        <time>2021-03-30T05:47:51Z</time>
      </trkpt>
      <trkpt lat="45.56028" lon="6.82283">
        <ele>2241.2</ele>
        <time>2021-03-30T05:47:52Z</time>
      </trkpt>
      <trkpt lat="45.56027" lon="6.82282">
        <ele>2241.2</ele>
        <time>2021-03-30T05:47:53Z</time>
      </trkpt>
      <trkpt lat="45.56027" lon="6.82281">
        <ele>2241.2</ele>
        <time>2021-03-30T05:47:54Z</time>
      </trkpt>
      <trkpt lat="45.56026" lon="6.8228">
        <ele>2241.3</ele>
        <time>2021-03-30T05:47:55Z</time>
      </trkpt>
      <trkpt lat="45.56026" lon="6.8228">
        <ele>2241.3</ele>
        <time>2021-03-30T05:47:56Z</time>
      </trkpt>
      <trkpt lat="45.56025" lon="6.82279">
        <ele>2241.3</ele>
        <time>2021-03-30T05:47:57Z</time>
      </trkpt>
      <trkpt lat="45.56024" lon="6.82278">
        <ele>2241.8</ele>
        <time>2021-03-30T05:47:58Z</time>
      </trkpt>
      <trkpt lat="45.56024" lon="6.82277">
        <ele>2241.8</ele>
        <time>2021-03-30T05:47:59Z</time>
      </trkpt>
      <trkpt lat="45.56023" lon="6.82276">
        <ele>2241.9</ele>
        <time>2021-03-30T05:48:00Z</time>
      </trkpt>
      <trkpt lat="45.56023" lon="6.82275">
        <ele>2241.9</ele>
        <time>2021-03-30T05:48:01Z</time>
      </trkpt>
      <trkpt lat="45.56022" lon="6.82274">
        <ele>2241.9</ele>
        <time>2021-03-30T05:48:02Z</time>
      </trkpt>
      <trkpt lat="45.56022" lon="6.82274">
        <ele>2242.8</ele>
        <time>2021-03-30T05:48:03Z</time>
      </trkpt>
      <trkpt lat="45.56021" lon="6.82273">
        <ele>2242.8</ele>
        <time>2021-03-30T05:48:04Z</time>
      </trkpt>
      <trkpt lat="45.56021" lon="6.82273">
        <ele>2242.8</ele>
        <time>2021-03-30T05:48:05Z</time>
      </trkpt>
      <trkpt lat="45.5602" lon="6.82272">
        <ele>2242.9</ele>
        <time>2021-03-30T05:48:06Z</time>
      </trkpt>
      <trkpt lat="45.5602" lon="6.82271">
        <ele>2242.9</ele>
        <time>2021-03-30T05:48:07Z</time>
      </trkpt>
      <trkpt lat="45.56019" lon="6.8227">
        <ele>2242.9</ele>
        <time>2021-03-30T05:48:08Z</time>
      </trkpt>
      <trkpt lat="45.56019" lon="6.82269">
        <ele>2243.5</ele>
        <time>2021-03-30T05:48:09Z</time>
      </trkpt>
      <trkpt lat="45.56018" lon="6.82268">
        <ele>2243.6</ele>
        <time>2021-03-30T05:48:10Z</time>
      </trkpt>
      <trkpt lat="45.56018" lon="6.82267">
        <ele>2243.6</ele>
        <time>2021-03-30T05:48:11Z</time>
      </trkpt>
      <trkpt lat="45.56017" lon="6.82266">
        <ele>2243.6</ele>
        <time>2021-03-30T05:48:12Z</time>
      </trkpt>
      <trkpt lat="45.56017" lon="6.82265">
        <ele>2243.6</ele>
        <time>2021-03-30T05:48:13Z</time>
      </trkpt>
      <trkpt lat="45.56017" lon="6.82265">
        <ele>2243.6</ele>
        <time>2021-03-30T05:48:14Z</time>
      </trkpt>
      <trkpt lat="45.56016" lon="6.82264">
        <ele>2243.6</ele>
        <time>2021-03-30T05:48:15Z</time>
      </trkpt>
      <trkpt lat="45.56016" lon="6.82263">
        <ele>2244.3</ele>
        <time>2021-03-30T05:48:16Z</time>
      </trkpt>
      <trkpt lat="45.56015" lon="6.82263">
        <ele>2244.3</ele>
        <time>2021-03-30T05:48:17Z</time>
      </trkpt>
      <trkpt lat="45.56015" lon="6.82262">
        <ele>2244.3</ele>
        <time>2021-03-30T05:48:18Z</time>
      </trkpt>
      <trkpt lat="45.56014" lon="6.82261">
        <ele>2244.3</ele>
        <time>2021-03-30T05:48:19Z</time>
      </trkpt>
      <trkpt lat="45.56014" lon="6.82261">
        <ele>2244.3</ele>
        <time>2021-03-30T05:48:20Z</time>
      </trkpt>
      <trkpt lat="45.56014" lon="6.8226">
        <ele>2244.3</ele>
        <time>2021-03-30T05:48:21Z</time>
      </trkpt>
      <trkpt lat="45.56013" lon="6.82259">
        <ele>2244.5</ele>
        <time>2021-03-30T05:48:22Z</time>
      </trkpt>
      <trkpt lat="45.56013" lon="6.82258">
        <ele>2245.1</ele>
        <time>2021-03-30T05:48:23Z</time>
      </trkpt>
      <trkpt lat="45.56012" lon="6.82258">
        <ele>2245.1</ele>
        <time>2021-03-30T05:48:24Z</time>
      </trkpt>
      <trkpt lat="45.56012" lon="6.82257">
        <ele>2245.1</ele>
        <time>2021-03-30T05:48:25Z</time>
      </trkpt>
      <trkpt lat="45.56011" lon="6.82256">
        <ele>2245.1</ele>
        <time>2021-03-30T05:48:26Z</time>
      </trkpt>
      <trkpt lat="45.56011" lon="6.82255">
        <ele>2245.3</ele>
        <time>2021-03-30T05:48:27Z</time>
      </trkpt>
      <trkpt lat="45.5601" lon="6.82254">
        <ele>2245.3</ele>
        <time>2021-03-30T05:48:28Z</time>
      </trkpt>
      <trkpt lat="45.5601" lon="6.82253">
        <ele>2245.8</ele>
        <time>2021-03-30T05:48:29Z</time>
      </trkpt>
      <trkpt lat="45.56009" lon="6.82252">
        <ele>2245.8</ele>
        <time>2021-03-30T05:48:30Z</time>
      </trkpt>
      <trkpt lat="45.56009" lon="6.82252">
        <ele>2245.9</ele>
        <time>2021-03-30T05:48:31Z</time>
      </trkpt>
      <trkpt lat="45.56008" lon="6.82251">
        <ele>2246.1</ele>
        <time>2021-03-30T05:48:32Z</time>
      </trkpt>
      <trkpt lat="45.56008" lon="6.8225">
        <ele>2246.2</ele>
        <time>2021-03-30T05:48:33Z</time>
      </trkpt>
      <trkpt lat="45.56007" lon="6.82249">
        <ele>2246.4</ele>
        <time>2021-03-30T05:48:34Z</time>
      </trkpt>
      <trkpt lat="45.56006" lon="6.82249">
        <ele>2246.5</ele>
        <time>2021-03-30T05:48:35Z</time>
      </trkpt>
      <trkpt lat="45.56006" lon="6.82248">
        <ele>2246.6</ele>
        <time>2021-03-30T05:48:36Z</time>
      </trkpt>
      <trkpt lat="45.56005" lon="6.82247">
        <ele>2246.8</ele>
        <time>2021-03-30T05:48:37Z</time>
      </trkpt>
      <trkpt lat="45.56005" lon="6.82246">
        <ele>2246.9</ele>
        <time>2021-03-30T05:48:38Z</time>
      </trkpt>
      <trkpt lat="45.56004" lon="6.82246">
        <ele>2247</ele>
        <time>2021-03-30T05:48:39Z</time>
      </trkpt>
      <trkpt lat="45.56004" lon="6.82245">
        <ele>2247.1</ele>
        <time>2021-03-30T05:48:40Z</time>
      </trkpt>
      <trkpt lat="45.56003" lon="6.82245">
        <ele>2247.3</ele>
        <time>2021-03-30T05:48:41Z</time>
      </trkpt>
      <trkpt lat="45.56003" lon="6.82244">
        <ele>2247.4</ele>
        <time>2021-03-30T05:48:42Z</time>
      </trkpt>
      <trkpt lat="45.56002" lon="6.82243">
        <ele>2247.5</ele>
        <time>2021-03-30T05:48:43Z</time>
      </trkpt>
      <trkpt lat="45.56002" lon="6.82242">
        <ele>2247.6</ele>
        <time>2021-03-30T05:48:44Z</time>
      </trkpt>
      <trkpt lat="45.56002" lon="6.82242">
        <ele>2247.7</ele>
        <time>2021-03-30T05:48:45Z</time>
      </trkpt>
      <trkpt lat="45.56001" lon="6.82241">
        <ele>2247.8</ele>
        <time>2021-03-30T05:48:46Z</time>
      </trkpt>
      <trkpt lat="45.56001" lon="6.8224">
        <ele>2248</ele>
        <time>2021-03-30T05:48:47Z</time>
      </trkpt>
      <trkpt lat="45.56" lon="6.82239">
        <ele>2248.1</ele>
        <time>2021-03-30T05:48:48Z</time>
      </trkpt>
      <trkpt lat="45.56" lon="6.82238">
        <ele>2248.2</ele>
        <time>2021-03-30T05:48:49Z</time>
      </trkpt>
      <trkpt lat="45.55999" lon="6.82237">
        <ele>2248.4</ele>
        <time>2021-03-30T05:48:50Z</time>
      </trkpt>
      <trkpt lat="45.55999" lon="6.82236">
        <ele>2248.5</ele>
        <time>2021-03-30T05:48:51Z</time>
      </trkpt>
      <trkpt lat="45.55998" lon="6.82235">
        <ele>2248.7</ele>
        <time>2021-03-30T05:48:52Z</time>
      </trkpt>
      <trkpt lat="45.55998" lon="6.82235">
        <ele>2248.8</ele>
        <time>2021-03-30T05:48:53Z</time>
      </trkpt>
      <trkpt lat="45.55997" lon="6.82234">
        <ele>2248.9</ele>
        <time>2021-03-30T05:48:54Z</time>
      </trkpt>
      <trkpt lat="45.55997" lon="6.82233">
        <ele>2249.1</ele>
        <time>2021-03-30T05:48:55Z</time>
      </trkpt>
      <trkpt lat="45.55996" lon="6.82232">
        <ele>2249.2</ele>
        <time>2021-03-30T05:48:56Z</time>
      </trkpt>
      <trkpt lat="45.55996" lon="6.82232">
        <ele>2249.3</ele>
        <time>2021-03-30T05:48:57Z</time>
      </trkpt>
      <trkpt lat="45.55995" lon="6.82231">
        <ele>2249.4</ele>
        <time>2021-03-30T05:48:58Z</time>
      </trkpt>
      <trkpt lat="45.55995" lon="6.82231">
        <ele>2249.5</ele>
        <time>2021-03-30T05:48:59Z</time>
      </trkpt>
      <trkpt lat="45.55994" lon="6.8223">
        <ele>2249.6</ele>
        <time>2021-03-30T05:49:00Z</time>
      </trkpt>
      <trkpt lat="45.55994" lon="6.82229">
        <ele>2249.7</ele>
        <time>2021-03-30T05:49:01Z</time>
      </trkpt>
      <trkpt lat="45.55993" lon="6.82229">
        <ele>2249.9</ele>
        <time>2021-03-30T05:49:02Z</time>
      </trkpt>
      <trkpt lat="45.55993" lon="6.82227">
        <ele>2250</ele>
        <time>2021-03-30T05:49:03Z</time>
      </trkpt>
      <trkpt lat="45.55992" lon="6.82227">
        <ele>2250.1</ele>
        <time>2021-03-30T05:49:04Z</time>
      </trkpt>
      <trkpt lat="45.55992" lon="6.82226">
        <ele>2250.3</ele>
        <time>2021-03-30T05:49:05Z</time>
      </trkpt>
      <trkpt lat="45.55991" lon="6.82225">
        <ele>2250.5</ele>
        <time>2021-03-30T05:49:06Z</time>
      </trkpt>
      <trkpt lat="45.5599" lon="6.82223">
        <ele>2250.6</ele>
        <time>2021-03-30T05:49:07Z</time>
      </trkpt>
      <trkpt lat="45.5599" lon="6.82222">
        <ele>2250.8</ele>
        <time>2021-03-30T05:49:08Z</time>
      </trkpt>
      <trkpt lat="45.55989" lon="6.82221">
        <ele>2250.9</ele>
        <time>2021-03-30T05:49:09Z</time>
      </trkpt>
      <trkpt lat="45.55989" lon="6.8222">
        <ele>2251.1</ele>
        <time>2021-03-30T05:49:10Z</time>
      </trkpt>
      <trkpt lat="45.55988" lon="6.82219">
        <ele>2251.2</ele>
        <time>2021-03-30T05:49:11Z</time>
      </trkpt>
      <trkpt lat="45.55988" lon="6.82218">
        <ele>2251.3</ele>
        <time>2021-03-30T05:49:12Z</time>
      </trkpt>
      <trkpt lat="45.55988" lon="6.82218">
        <ele>2251.4</ele>
        <time>2021-03-30T05:49:13Z</time>
      </trkpt>
      <trkpt lat="45.55987" lon="6.82217">
        <ele>2251.5</ele>
        <time>2021-03-30T05:49:14Z</time>
      </trkpt>
      <trkpt lat="45.55987" lon="6.82216">
        <ele>2251.6</ele>
        <time>2021-03-30T05:49:15Z</time>
      </trkpt>
      <trkpt lat="45.55986" lon="6.82215">
        <ele>2251.7</ele>
        <time>2021-03-30T05:49:16Z</time>
      </trkpt>
      <trkpt lat="45.55986" lon="6.82214">
        <ele>2251.9</ele>
        <time>2021-03-30T05:49:17Z</time>
      </trkpt>
      <trkpt lat="45.55985" lon="6.82214">
        <ele>2252</ele>
        <time>2021-03-30T05:49:18Z</time>
      </trkpt>
      <trkpt lat="45.55985" lon="6.82213">
        <ele>2252.1</ele>
        <time>2021-03-30T05:49:19Z</time>
      </trkpt>
      <trkpt lat="45.55984" lon="6.82212">
        <ele>2252.2</ele>
        <time>2021-03-30T05:49:20Z</time>
      </trkpt>
      <trkpt lat="45.55983" lon="6.82211">
        <ele>2252.4</ele>
        <time>2021-03-30T05:49:21Z</time>
      </trkpt>
      <trkpt lat="45.55983" lon="6.8221">
        <ele>2252.5</ele>
        <time>2021-03-30T05:49:22Z</time>
      </trkpt>
      <trkpt lat="45.55982" lon="6.8221">
        <ele>2252.6</ele>
        <time>2021-03-30T05:49:23Z</time>
      </trkpt>
      <trkpt lat="45.55982" lon="6.82209">
        <ele>2252.7</ele>
        <time>2021-03-30T05:49:24Z</time>
      </trkpt>
      <trkpt lat="45.55981" lon="6.82208">
        <ele>2252.8</ele>
        <time>2021-03-30T05:49:25Z</time>
      </trkpt>
      <trkpt lat="45.55981" lon="6.82207">
        <ele>2252.9</ele>
        <time>2021-03-30T05:49:26Z</time>
      </trkpt>
      <trkpt lat="45.5598" lon="6.82206">
        <ele>2253</ele>
        <time>2021-03-30T05:49:27Z</time>
      </trkpt>
      <trkpt lat="45.5598" lon="6.82205">
        <ele>2253.1</ele>
        <time>2021-03-30T05:49:28Z</time>
      </trkpt>
      <trkpt lat="45.55979" lon="6.82204">
        <ele>2253.2</ele>
        <time>2021-03-30T05:49:29Z</time>
      </trkpt>
      <trkpt lat="45.55979" lon="6.82203">
        <ele>2253.4</ele>
        <time>2021-03-30T05:49:30Z</time>
      </trkpt>
      <trkpt lat="45.55978" lon="6.82202">
        <ele>2253.5</ele>
        <time>2021-03-30T05:49:31Z</time>
      </trkpt>
      <trkpt lat="45.55977" lon="6.82201">
        <ele>2253.6</ele>
        <time>2021-03-30T05:49:32Z</time>
      </trkpt>
      <trkpt lat="45.55977" lon="6.82201">
        <ele>2253.8</ele>
        <time>2021-03-30T05:49:33Z</time>
      </trkpt>
      <trkpt lat="45.55976" lon="6.822">
        <ele>2253.8</ele>
        <time>2021-03-30T05:49:34Z</time>
      </trkpt>
      <trkpt lat="45.55976" lon="6.82199">
        <ele>2253.9</ele>
        <time>2021-03-30T05:49:35Z</time>
      </trkpt>
      <trkpt lat="45.55975" lon="6.82199">
        <ele>2254</ele>
        <time>2021-03-30T05:49:36Z</time>
      </trkpt>
      <trkpt lat="45.55975" lon="6.82198">
        <ele>2254.1</ele>
        <time>2021-03-30T05:49:37Z</time>
      </trkpt>
      <trkpt lat="45.55975" lon="6.82198">
        <ele>2254.1</ele>
        <time>2021-03-30T05:49:38Z</time>
      </trkpt>
      <trkpt lat="45.55974" lon="6.82197">
        <ele>2254.2</ele>
        <time>2021-03-30T05:49:39Z</time>
      </trkpt>
      <trkpt lat="45.55974" lon="6.82197">
        <ele>2254.3</ele>
        <time>2021-03-30T05:49:40Z</time>
      </trkpt>
      <trkpt lat="45.55974" lon="6.82196">
        <ele>2254.3</ele>
        <time>2021-03-30T05:49:41Z</time>
      </trkpt>
      <trkpt lat="45.55973" lon="6.82195">
        <ele>2254.4</ele>
        <time>2021-03-30T05:49:42Z</time>
      </trkpt>
      <trkpt lat="45.55973" lon="6.82194">
        <ele>2254.5</ele>
        <time>2021-03-30T05:49:43Z</time>
      </trkpt>
      <trkpt lat="45.55972" lon="6.82193">
        <ele>2254.6</ele>
        <time>2021-03-30T05:49:44Z</time>
      </trkpt>
      <trkpt lat="45.55972" lon="6.82193">
        <ele>2254.7</ele>
        <time>2021-03-30T05:49:45Z</time>
      </trkpt>
      <trkpt lat="45.55971" lon="6.82192">
        <ele>2254.7</ele>
        <time>2021-03-30T05:49:46Z</time>
      </trkpt>
      <trkpt lat="45.55971" lon="6.82192">
        <ele>2254.8</ele>
        <time>2021-03-30T05:49:47Z</time>
      </trkpt>
      <trkpt lat="45.5597" lon="6.82191">
        <ele>2254.9</ele>
        <time>2021-03-30T05:49:48Z</time>
      </trkpt>
      <trkpt lat="45.5597" lon="6.8219">
        <ele>2255</ele>
        <time>2021-03-30T05:49:49Z</time>
      </trkpt>
      <trkpt lat="45.55969" lon="6.82189">
        <ele>2255.1</ele>
        <time>2021-03-30T05:49:50Z</time>
      </trkpt>
      <trkpt lat="45.55968" lon="6.82188">
        <ele>2255.2</ele>
        <time>2021-03-30T05:49:51Z</time>
      </trkpt>
      <trkpt lat="45.55968" lon="6.82188">
        <ele>2255.3</ele>
        <time>2021-03-30T05:49:52Z</time>
      </trkpt>
      <trkpt lat="45.55967" lon="6.82187">
        <ele>2255.4</ele>
        <time>2021-03-30T05:49:53Z</time>
      </trkpt>
      <trkpt lat="45.55967" lon="6.82186">
        <ele>2255.5</ele>
        <time>2021-03-30T05:49:54Z</time>
      </trkpt>
      <trkpt lat="45.55966" lon="6.82185">
        <ele>2255.5</ele>
        <time>2021-03-30T05:49:55Z</time>
      </trkpt>
      <trkpt lat="45.55966" lon="6.82184">
        <ele>2255.6</ele>
        <time>2021-03-30T05:49:56Z</time>
      </trkpt>
      <trkpt lat="45.55965" lon="6.82183">
        <ele>2255.7</ele>
        <time>2021-03-30T05:49:57Z</time>
      </trkpt>
      <trkpt lat="45.55964" lon="6.82183">
        <ele>2255.8</ele>
        <time>2021-03-30T05:49:58Z</time>
      </trkpt>
      <trkpt lat="45.55963" lon="6.82182">
        <ele>2255.9</ele>
        <time>2021-03-30T05:49:59Z</time>
      </trkpt>
      <trkpt lat="45.55963" lon="6.82181">
        <ele>2256</ele>
        <time>2021-03-30T05:50:00Z</time>
      </trkpt>
      <trkpt lat="45.55962" lon="6.8218">
        <ele>2256.1</ele>
        <time>2021-03-30T05:50:01Z</time>
      </trkpt>
      <trkpt lat="45.55961" lon="6.82179">
        <ele>2256.2</ele>
        <time>2021-03-30T05:50:02Z</time>
      </trkpt>
      <trkpt lat="45.55961" lon="6.82178">
        <ele>2256.2</ele>
        <time>2021-03-30T05:50:03Z</time>
      </trkpt>
      <trkpt lat="45.5596" lon="6.82177">
        <ele>2256.3</ele>
        <time>2021-03-30T05:50:04Z</time>
      </trkpt>
      <trkpt lat="45.55959" lon="6.82177">
        <ele>2256.4</ele>
        <time>2021-03-30T05:50:05Z</time>
      </trkpt>
      <trkpt lat="45.55958" lon="6.82176">
        <ele>2256.5</ele>
        <time>2021-03-30T05:50:06Z</time>
      </trkpt>
      <trkpt lat="45.55958" lon="6.82175">
        <ele>2256.6</ele>
        <time>2021-03-30T05:50:07Z</time>
      </trkpt>
      <trkpt lat="45.55957" lon="6.82174">
        <ele>2256.6</ele>
        <time>2021-03-30T05:50:08Z</time>
      </trkpt>
      <trkpt lat="45.55956" lon="6.82173">
        <ele>2256.7</ele>
        <time>2021-03-30T05:50:09Z</time>
      </trkpt>
      <trkpt lat="45.55956" lon="6.82172">
        <ele>2256.8</ele>
        <time>2021-03-30T05:50:10Z</time>
      </trkpt>
      <trkpt lat="45.55955" lon="6.82171">
        <ele>2256.9</ele>
        <time>2021-03-30T05:50:11Z</time>
      </trkpt>
      <trkpt lat="45.55954" lon="6.8217">
        <ele>2256.9</ele>
        <time>2021-03-30T05:50:12Z</time>
      </trkpt>
      <trkpt lat="45.55954" lon="6.8217">
        <ele>2257</ele>
        <time>2021-03-30T05:50:13Z</time>
      </trkpt>
      <trkpt lat="45.55953" lon="6.82169">
        <ele>2257.1</ele>
        <time>2021-03-30T05:50:14Z</time>
      </trkpt>
      <trkpt lat="45.55952" lon="6.82168">
        <ele>2257.1</ele>
        <time>2021-03-30T05:50:15Z</time>
      </trkpt>
      <trkpt lat="45.55952" lon="6.82168">
        <ele>2257.2</ele>
        <time>2021-03-30T05:50:16Z</time>
      </trkpt>
      <trkpt lat="45.55951" lon="6.82167">
        <ele>2257.2</ele>
        <time>2021-03-30T05:50:17Z</time>
      </trkpt>
      <trkpt lat="45.55951" lon="6.82166">
        <ele>2257.3</ele>
        <time>2021-03-30T05:50:18Z</time>
      </trkpt>
      <trkpt lat="45.5595" lon="6.82166">
        <ele>2257.4</ele>
        <time>2021-03-30T05:50:19Z</time>
      </trkpt>
      <trkpt lat="45.55949" lon="6.82165">
        <ele>2257.4</ele>
        <time>2021-03-30T05:50:20Z</time>
      </trkpt>
      <trkpt lat="45.55948" lon="6.82164">
        <ele>2257.5</ele>
        <time>2021-03-30T05:50:21Z</time>
      </trkpt>
      <trkpt lat="45.55947" lon="6.82164">
        <ele>2257.6</ele>
        <time>2021-03-30T05:50:22Z</time>
      </trkpt>
      <trkpt lat="45.55946" lon="6.82163">
        <ele>2257.7</ele>
        <time>2021-03-30T05:50:23Z</time>
      </trkpt>
      <trkpt lat="45.55946" lon="6.82162">
        <ele>2257.7</ele>
        <time>2021-03-30T05:50:24Z</time>
      </trkpt>
      <trkpt lat="45.55944" lon="6.82161">
        <ele>2257.8</ele>
        <time>2021-03-30T05:50:25Z</time>
      </trkpt>
      <trkpt lat="45.55944" lon="6.8216">
        <ele>2257.9</ele>
        <time>2021-03-30T05:50:26Z</time>
      </trkpt>
      <trkpt lat="45.55943" lon="6.8216">
        <ele>2257.9</ele>
        <time>2021-03-30T05:50:27Z</time>
      </trkpt>
      <trkpt lat="45.55943" lon="6.82159">
        <ele>2258</ele>
        <time>2021-03-30T05:50:28Z</time>
      </trkpt>
      <trkpt lat="45.55942" lon="6.82159">
        <ele>2258.1</ele>
        <time>2021-03-30T05:50:29Z</time>
      </trkpt>
      <trkpt lat="45.55941" lon="6.82158">
        <ele>2258.1</ele>
        <time>2021-03-30T05:50:30Z</time>
      </trkpt>
      <trkpt lat="45.5594" lon="6.82157">
        <ele>2258.2</ele>
        <time>2021-03-30T05:50:31Z</time>
      </trkpt>
      <trkpt lat="45.5594" lon="6.82156">
        <ele>2258.3</ele>
        <time>2021-03-30T05:50:32Z</time>
      </trkpt>
      <trkpt lat="45.55939" lon="6.82155">
        <ele>2258.4</ele>
        <time>2021-03-30T05:50:33Z</time>
      </trkpt>
      <trkpt lat="45.55938" lon="6.82155">
        <ele>2258.4</ele>
        <time>2021-03-30T05:50:34Z</time>
      </trkpt>
      <trkpt lat="45.55938" lon="6.82154">
        <ele>2258.5</ele>
        <time>2021-03-30T05:50:35Z</time>
      </trkpt>
      <trkpt lat="45.55937" lon="6.82153">
        <ele>2258.6</ele>
        <time>2021-03-30T05:50:36Z</time>
      </trkpt>
      <trkpt lat="45.55936" lon="6.82152">
        <ele>2258.7</ele>
        <time>2021-03-30T05:50:37Z</time>
      </trkpt>
      <trkpt lat="45.55935" lon="6.82151">
        <ele>2258.8</ele>
        <time>2021-03-30T05:50:38Z</time>
      </trkpt>
      <trkpt lat="45.55934" lon="6.8215">
        <ele>2258.8</ele>
        <time>2021-03-30T05:50:39Z</time>
      </trkpt>
      <trkpt lat="45.55934" lon="6.82149">
        <ele>2258.9</ele>
        <time>2021-03-30T05:50:40Z</time>
      </trkpt>
      <trkpt lat="45.55933" lon="6.82148">
        <ele>2259</ele>
        <time>2021-03-30T05:50:41Z</time>
      </trkpt>
      <trkpt lat="45.55932" lon="6.82147">
        <ele>2259.1</ele>
        <time>2021-03-30T05:50:42Z</time>
      </trkpt>
      <trkpt lat="45.55931" lon="6.82147">
        <ele>2259.2</ele>
        <time>2021-03-30T05:50:43Z</time>
      </trkpt>
      <trkpt lat="45.55931" lon="6.82146">
        <ele>2259.2</ele>
        <time>2021-03-30T05:50:44Z</time>
      </trkpt>
      <trkpt lat="45.5593" lon="6.82145">
        <ele>2259.3</ele>
        <time>2021-03-30T05:50:45Z</time>
      </trkpt>
      <trkpt lat="45.55929" lon="6.82145">
        <ele>2259.4</ele>
        <time>2021-03-30T05:50:46Z</time>
      </trkpt>
      <trkpt lat="45.55928" lon="6.82144">
        <ele>2259.5</ele>
        <time>2021-03-30T05:50:47Z</time>
      </trkpt>
      <trkpt lat="45.55928" lon="6.82143">
        <ele>2259.6</ele>
        <time>2021-03-30T05:50:48Z</time>
      </trkpt>
      <trkpt lat="45.55927" lon="6.82143">
        <ele>2259.6</ele>
        <time>2021-03-30T05:50:49Z</time>
      </trkpt>
      <trkpt lat="45.55926" lon="6.82142">
        <ele>2259.7</ele>
        <time>2021-03-30T05:50:50Z</time>
      </trkpt>
      <trkpt lat="45.55925" lon="6.82142">
        <ele>2259.8</ele>
        <time>2021-03-30T05:50:51Z</time>
      </trkpt>
      <trkpt lat="45.55925" lon="6.82141">
        <ele>2259.9</ele>
        <time>2021-03-30T05:50:52Z</time>
      </trkpt>
      <trkpt lat="45.55924" lon="6.8214">
        <ele>2259.9</ele>
        <time>2021-03-30T05:50:53Z</time>
      </trkpt>
      <trkpt lat="45.55923" lon="6.8214">
        <ele>2260</ele>
        <time>2021-03-30T05:50:54Z</time>
      </trkpt>
      <trkpt lat="45.55922" lon="6.8214">
        <ele>2260.1</ele>
        <time>2021-03-30T05:50:55Z</time>
      </trkpt>
      <trkpt lat="45.55922" lon="6.82139">
        <ele>2260.2</ele>
        <time>2021-03-30T05:50:56Z</time>
      </trkpt>
      <trkpt lat="45.55921" lon="6.82139">
        <ele>2260.3</ele>
        <time>2021-03-30T05:50:57Z</time>
      </trkpt>
      <trkpt lat="45.5592" lon="6.82138">
        <ele>2260.4</ele>
        <time>2021-03-30T05:50:58Z</time>
      </trkpt>
      <trkpt lat="45.55919" lon="6.82137">
        <ele>2260.5</ele>
        <time>2021-03-30T05:50:59Z</time>
      </trkpt>
      <trkpt lat="45.55918" lon="6.82137">
        <ele>2260.6</ele>
        <time>2021-03-30T05:51:00Z</time>
      </trkpt>
      <trkpt lat="45.55918" lon="6.82136">
        <ele>2260.7</ele>
        <time>2021-03-30T05:51:01Z</time>
      </trkpt>
      <trkpt lat="45.55917" lon="6.82135">
        <ele>2260.8</ele>
        <time>2021-03-30T05:51:02Z</time>
      </trkpt>
      <trkpt lat="45.55916" lon="6.82135">
        <ele>2260.9</ele>
        <time>2021-03-30T05:51:03Z</time>
      </trkpt>
      <trkpt lat="45.55915" lon="6.82134">
        <ele>2261</ele>
        <time>2021-03-30T05:51:04Z</time>
      </trkpt>
      <trkpt lat="45.55914" lon="6.82133">
        <ele>2261.1</ele>
        <time>2021-03-30T05:51:05Z</time>
      </trkpt>
      <trkpt lat="45.55914" lon="6.82133">
        <ele>2261.2</ele>
        <time>2021-03-30T05:51:06Z</time>
      </trkpt>
      <trkpt lat="45.55913" lon="6.82132">
        <ele>2261.3</ele>
        <time>2021-03-30T05:51:07Z</time>
      </trkpt>
      <trkpt lat="45.55912" lon="6.82132">
        <ele>2261.3</ele>
        <time>2021-03-30T05:51:08Z</time>
      </trkpt>
      <trkpt lat="45.55911" lon="6.82131">
        <ele>2261.4</ele>
        <time>2021-03-30T05:51:09Z</time>
      </trkpt>
      <trkpt lat="45.55911" lon="6.8213">
        <ele>2261.5</ele>
        <time>2021-03-30T05:51:10Z</time>
      </trkpt>
      <trkpt lat="45.5591" lon="6.8213">
        <ele>2261.6</ele>
        <time>2021-03-30T05:51:11Z</time>
      </trkpt>
      <trkpt lat="45.55909" lon="6.82129">
        <ele>2261.7</ele>
        <time>2021-03-30T05:51:12Z</time>
      </trkpt>
      <trkpt lat="45.55908" lon="6.82129">
        <ele>2261.8</ele>
        <time>2021-03-30T05:51:13Z</time>
      </trkpt>
      <trkpt lat="45.55908" lon="6.82128">
        <ele>2261.9</ele>
        <time>2021-03-30T05:51:14Z</time>
      </trkpt>
      <trkpt lat="45.55907" lon="6.82128">
        <ele>2262</ele>
        <time>2021-03-30T05:51:15Z</time>
      </trkpt>
      <trkpt lat="45.55906" lon="6.82127">
        <ele>2262.1</ele>
        <time>2021-03-30T05:51:16Z</time>
      </trkpt>
      <trkpt lat="45.55905" lon="6.82127">
        <ele>2262.2</ele>
        <time>2021-03-30T05:51:17Z</time>
      </trkpt>
      <trkpt lat="45.55905" lon="6.82126">
        <ele>2262.3</ele>
        <time>2021-03-30T05:51:18Z</time>
      </trkpt>
      <trkpt lat="45.55904" lon="6.82125">
        <ele>2262.4</ele>
        <time>2021-03-30T05:51:19Z</time>
      </trkpt>
      <trkpt lat="45.55903" lon="6.82125">
        <ele>2262.5</ele>
        <time>2021-03-30T05:51:20Z</time>
      </trkpt>
      <trkpt lat="45.55903" lon="6.82125">
        <ele>2262.5</ele>
        <time>2021-03-30T05:51:21Z</time>
      </trkpt>
      <trkpt lat="45.55902" lon="6.82124">
        <ele>2262.6</ele>
        <time>2021-03-30T05:51:22Z</time>
      </trkpt>
      <trkpt lat="45.55901" lon="6.82123">
        <ele>2262.7</ele>
        <time>2021-03-30T05:51:23Z</time>
      </trkpt>
      <trkpt lat="45.55901" lon="6.82123">
        <ele>2262.8</ele>
        <time>2021-03-30T05:51:24Z</time>
      </trkpt>
      <trkpt lat="45.559" lon="6.82123">
        <ele>2262.9</ele>
        <time>2021-03-30T05:51:25Z</time>
      </trkpt>
      <trkpt lat="45.55899" lon="6.82123">
        <ele>2263</ele>
        <time>2021-03-30T05:51:26Z</time>
      </trkpt>
      <trkpt lat="45.55899" lon="6.82123">
        <ele>2263</ele>
        <time>2021-03-30T05:51:27Z</time>
      </trkpt>
      <trkpt lat="45.55898" lon="6.82123">
        <ele>2263.1</ele>
        <time>2021-03-30T05:51:28Z</time>
      </trkpt>
      <trkpt lat="45.55898" lon="6.82123">
        <ele>2263.1</ele>
        <time>2021-03-30T05:51:29Z</time>
      </trkpt>
      <trkpt lat="45.55898" lon="6.82123">
        <ele>2263.2</ele>
        <time>2021-03-30T05:51:30Z</time>
      </trkpt>
      <trkpt lat="45.55897" lon="6.82123">
        <ele>2263.2</ele>
        <time>2021-03-30T05:51:31Z</time>
      </trkpt>
      <trkpt lat="45.55897" lon="6.82123">
        <ele>2263.3</ele>
        <time>2021-03-30T05:51:32Z</time>
      </trkpt>
      <trkpt lat="45.55896" lon="6.82123">
        <ele>2263.3</ele>
        <time>2021-03-30T05:51:33Z</time>
      </trkpt>
      <trkpt lat="45.55896" lon="6.82123">
        <ele>2263.4</ele>
        <time>2021-03-30T05:51:34Z</time>
      </trkpt>
      <trkpt lat="45.55895" lon="6.82123">
        <ele>2263.4</ele>
        <time>2021-03-30T05:51:35Z</time>
      </trkpt>
      <trkpt lat="45.55895" lon="6.82123">
        <ele>2263.5</ele>
        <time>2021-03-30T05:51:36Z</time>
      </trkpt>
      <trkpt lat="45.55895" lon="6.82123">
        <ele>2263.5</ele>
        <time>2021-03-30T05:51:37Z</time>
      </trkpt>
      <trkpt lat="45.55894" lon="6.82123">
        <ele>2263.6</ele>
        <time>2021-03-30T05:51:38Z</time>
      </trkpt>
      <trkpt lat="45.55894" lon="6.82123">
        <ele>2263.6</ele>
        <time>2021-03-30T05:51:39Z</time>
      </trkpt>
      <trkpt lat="45.55893" lon="6.82123">
        <ele>2263.7</ele>
        <time>2021-03-30T05:52:20Z</time>
      </trkpt>
      <trkpt lat="45.55893" lon="6.82123">
        <ele>2263.7</ele>
        <time>2021-03-30T05:52:21Z</time>
      </trkpt>
      <trkpt lat="45.55893" lon="6.82123">
        <ele>2263.8</ele>
        <time>2021-03-30T05:52:22Z</time>
      </trkpt>
      <trkpt lat="45.55892" lon="6.82123">
        <ele>2263.9</ele>
        <time>2021-03-30T05:52:23Z</time>
      </trkpt>
      <trkpt lat="45.55891" lon="6.82122">
        <ele>2264</ele>
        <time>2021-03-30T05:52:24Z</time>
      </trkpt>
      <trkpt lat="45.5589" lon="6.82122">
        <ele>2264.1</ele>
        <time>2021-03-30T05:52:25Z</time>
      </trkpt>
      <trkpt lat="45.55889" lon="6.82122">
        <ele>2264.2</ele>
        <time>2021-03-30T05:52:26Z</time>
      </trkpt>
      <trkpt lat="45.55889" lon="6.82122">
        <ele>2264.2</ele>
        <time>2021-03-30T05:52:27Z</time>
      </trkpt>
      <trkpt lat="45.55888" lon="6.82122">
        <ele>2264.3</ele>
        <time>2021-03-30T05:52:28Z</time>
      </trkpt>
      <trkpt lat="45.55887" lon="6.82122">
        <ele>2264.4</ele>
        <time>2021-03-30T05:52:29Z</time>
      </trkpt>
      <trkpt lat="45.55887" lon="6.82122">
        <ele>2264.5</ele>
        <time>2021-03-30T05:52:30Z</time>
      </trkpt>
      <trkpt lat="45.55886" lon="6.82122">
        <ele>2264.5</ele>
        <time>2021-03-30T05:52:31Z</time>
      </trkpt>
      <trkpt lat="45.55886" lon="6.82123">
        <ele>2264.6</ele>
        <time>2021-03-30T05:52:32Z</time>
      </trkpt>
      <trkpt lat="45.55885" lon="6.82123">
        <ele>2264.7</ele>
        <time>2021-03-30T05:52:33Z</time>
      </trkpt>
      <trkpt lat="45.55884" lon="6.82123">
        <ele>2264.8</ele>
        <time>2021-03-30T05:52:34Z</time>
      </trkpt>
      <trkpt lat="45.55884" lon="6.82123">
        <ele>2264.9</ele>
        <time>2021-03-30T05:52:35Z</time>
      </trkpt>
      <trkpt lat="45.55883" lon="6.82123">
        <ele>2264.9</ele>
        <time>2021-03-30T05:52:36Z</time>
      </trkpt>
      <trkpt lat="45.55883" lon="6.82123">
        <ele>2265</ele>
        <time>2021-03-30T05:52:37Z</time>
      </trkpt>
      <trkpt lat="45.55882" lon="6.82123">
        <ele>2265.1</ele>
        <time>2021-03-30T05:52:38Z</time>
      </trkpt>
      <trkpt lat="45.55881" lon="6.82123">
        <ele>2265.2</ele>
        <time>2021-03-30T05:52:39Z</time>
      </trkpt>
      <trkpt lat="45.5588" lon="6.82122">
        <ele>2265.3</ele>
        <time>2021-03-30T05:52:40Z</time>
      </trkpt>
      <trkpt lat="45.55879" lon="6.82121">
        <ele>2265.5</ele>
        <time>2021-03-30T05:52:41Z</time>
      </trkpt>
      <trkpt lat="45.55878" lon="6.8212">
        <ele>2265.6</ele>
        <time>2021-03-30T05:52:42Z</time>
      </trkpt>
      <trkpt lat="45.55878" lon="6.82119">
        <ele>2265.7</ele>
        <time>2021-03-30T05:52:43Z</time>
      </trkpt>
      <trkpt lat="45.55877" lon="6.82118">
        <ele>2265.9</ele>
        <time>2021-03-30T05:52:44Z</time>
      </trkpt>
      <trkpt lat="45.55876" lon="6.82118">
        <ele>2266</ele>
        <time>2021-03-30T05:52:45Z</time>
      </trkpt>
      <trkpt lat="45.55875" lon="6.82117">
        <ele>2266.1</ele>
        <time>2021-03-30T05:52:46Z</time>
      </trkpt>
      <trkpt lat="45.55875" lon="6.82116">
        <ele>2266.2</ele>
        <time>2021-03-30T05:52:47Z</time>
      </trkpt>
      <trkpt lat="45.55874" lon="6.82115">
        <ele>2266.4</ele>
        <time>2021-03-30T05:52:48Z</time>
      </trkpt>
      <trkpt lat="45.55873" lon="6.82114">
        <ele>2266.5</ele>
        <time>2021-03-30T05:52:49Z</time>
      </trkpt>
      <trkpt lat="45.55872" lon="6.82114">
        <ele>2266.6</ele>
        <time>2021-03-30T05:54:35Z</time>
      </trkpt>
      <trkpt lat="45.55872" lon="6.82113">
        <ele>2266.7</ele>
        <time>2021-03-30T05:54:36Z</time>
      </trkpt>
      <trkpt lat="45.55871" lon="6.82112">
        <ele>2266.9</ele>
        <time>2021-03-30T05:54:37Z</time>
      </trkpt>
      <trkpt lat="45.5587" lon="6.82111">
        <ele>2267</ele>
        <time>2021-03-30T05:54:38Z</time>
      </trkpt>
      <trkpt lat="45.55869" lon="6.8211">
        <ele>2267.1</ele>
        <time>2021-03-30T05:54:39Z</time>
      </trkpt>
      <trkpt lat="45.55868" lon="6.8211">
        <ele>2267.2</ele>
        <time>2021-03-30T05:54:40Z</time>
      </trkpt>
      <trkpt lat="45.55868" lon="6.82109">
        <ele>2267.3</ele>
        <time>2021-03-30T05:54:41Z</time>
      </trkpt>
      <trkpt lat="45.55867" lon="6.82109">
        <ele>2267.4</ele>
        <time>2021-03-30T05:54:42Z</time>
      </trkpt>
      <trkpt lat="45.55867" lon="6.82108">
        <ele>2267.5</ele>
        <time>2021-03-30T05:54:43Z</time>
      </trkpt>
      <trkpt lat="45.55866" lon="6.82108">
        <ele>2267.6</ele>
        <time>2021-03-30T05:54:44Z</time>
      </trkpt>
      <trkpt lat="45.55865" lon="6.82107">
        <ele>2267.7</ele>
        <time>2021-03-30T05:54:45Z</time>
      </trkpt>
      <trkpt lat="45.55865" lon="6.82107">
        <ele>2267.7</ele>
        <time>2021-03-30T05:54:46Z</time>
      </trkpt>
      <trkpt lat="45.55864" lon="6.82107">
        <ele>2267.8</ele>
        <time>2021-03-30T05:54:47Z</time>
      </trkpt>
      <trkpt lat="45.55863" lon="6.82107">
        <ele>2267.9</ele>
        <time>2021-03-30T05:54:48Z</time>
      </trkpt>
      <trkpt lat="45.55863" lon="6.82107">
        <ele>2268</ele>
        <time>2021-03-30T05:54:49Z</time>
      </trkpt>
      <trkpt lat="45.55862" lon="6.82107">
        <ele>2268.2</ele>
        <time>2021-03-30T05:54:50Z</time>
      </trkpt>
      <trkpt lat="45.55861" lon="6.82107">
        <ele>2268.3</ele>
        <time>2021-03-30T05:54:51Z</time>
      </trkpt>
      <trkpt lat="45.5586" lon="6.82107">
        <ele>2268.4</ele>
        <time>2021-03-30T05:54:52Z</time>
      </trkpt>
      <trkpt lat="45.5586" lon="6.82107">
        <ele>2268.4</ele>
        <time>2021-03-30T05:54:53Z</time>
      </trkpt>
      <trkpt lat="45.55859" lon="6.82107">
        <ele>2268.5</ele>
        <time>2021-03-30T05:54:54Z</time>
      </trkpt>
      <trkpt lat="45.55858" lon="6.82107">
        <ele>2268.6</ele>
        <time>2021-03-30T05:54:55Z</time>
      </trkpt>
      <trkpt lat="45.55857" lon="6.82107">
        <ele>2268.6</ele>
        <time>2021-03-30T05:54:56Z</time>
      </trkpt>
      <trkpt lat="45.55856" lon="6.82106">
        <ele>2268.7</ele>
        <time>2021-03-30T05:54:57Z</time>
      </trkpt>
      <trkpt lat="45.55855" lon="6.82106">
        <ele>2268.8</ele>
        <time>2021-03-30T05:54:58Z</time>
      </trkpt>
      <trkpt lat="45.55854" lon="6.82106">
        <ele>2268.9</ele>
        <time>2021-03-30T05:54:59Z</time>
      </trkpt>
      <trkpt lat="45.55853" lon="6.82105">
        <ele>2268.9</ele>
        <time>2021-03-30T05:55:00Z</time>
      </trkpt>
      <trkpt lat="45.55852" lon="6.82105">
        <ele>2269</ele>
        <time>2021-03-30T05:55:01Z</time>
      </trkpt>
      <trkpt lat="45.55852" lon="6.82105">
        <ele>2269.1</ele>
        <time>2021-03-30T05:55:02Z</time>
      </trkpt>
      <trkpt lat="45.55851" lon="6.82105">
        <ele>2269.1</ele>
        <time>2021-03-30T05:55:03Z</time>
      </trkpt>
      <trkpt lat="45.5585" lon="6.82105">
        <ele>2269.2</ele>
        <time>2021-03-30T05:55:04Z</time>
      </trkpt>
      <trkpt lat="45.55849" lon="6.82104">
        <ele>2269.3</ele>
        <time>2021-03-30T05:55:05Z</time>
      </trkpt>
      <trkpt lat="45.55848" lon="6.82104">
        <ele>2269.3</ele>
        <time>2021-03-30T05:55:06Z</time>
      </trkpt>
      <trkpt lat="45.55847" lon="6.82104">
        <ele>2269.4</ele>
        <time>2021-03-30T05:55:07Z</time>
      </trkpt>
      <trkpt lat="45.55846" lon="6.82104">
        <ele>2269.5</ele>
        <time>2021-03-30T05:55:08Z</time>
      </trkpt>
      <trkpt lat="45.55845" lon="6.82104">
        <ele>2269.5</ele>
        <time>2021-03-30T05:55:09Z</time>
      </trkpt>
      <trkpt lat="45.55844" lon="6.82104">
        <ele>2269.6</ele>
        <time>2021-03-30T05:55:10Z</time>
      </trkpt>
      <trkpt lat="45.55843" lon="6.82104">
        <ele>2269.7</ele>
        <time>2021-03-30T05:55:11Z</time>
      </trkpt>
      <trkpt lat="45.55843" lon="6.82104">
        <ele>2269.7</ele>
        <time>2021-03-30T05:55:12Z</time>
      </trkpt>
      <trkpt lat="45.55842" lon="6.82104">
        <ele>2269.8</ele>
        <time>2021-03-30T05:55:13Z</time>
      </trkpt>
      <trkpt lat="45.55841" lon="6.82104">
        <ele>2269.8</ele>
        <time>2021-03-30T05:55:14Z</time>
      </trkpt>
      <trkpt lat="45.5584" lon="6.82104">
        <ele>2269.9</ele>
        <time>2021-03-30T05:55:15Z</time>
      </trkpt>
      <trkpt lat="45.55839" lon="6.82104">
        <ele>2270</ele>
        <time>2021-03-30T05:55:16Z</time>
      </trkpt>
      <trkpt lat="45.55838" lon="6.82103">
        <ele>2270.1</ele>
        <time>2021-03-30T05:55:17Z</time>
      </trkpt>
      <trkpt lat="45.55837" lon="6.82103">
        <ele>2270.2</ele>
        <time>2021-03-30T05:55:18Z</time>
      </trkpt>
      <trkpt lat="45.55836" lon="6.82103">
        <ele>2270.2</ele>
        <time>2021-03-30T05:55:19Z</time>
      </trkpt>
      <trkpt lat="45.55836" lon="6.82102">
        <ele>2270.3</ele>
        <time>2021-03-30T05:55:20Z</time>
      </trkpt>
      <trkpt lat="45.55835" lon="6.82102">
        <ele>2270.3</ele>
        <time>2021-03-30T05:55:21Z</time>
      </trkpt>
      <trkpt lat="45.55834" lon="6.82101">
        <ele>2270.4</ele>
        <time>2021-03-30T05:55:22Z</time>
      </trkpt>
      <trkpt lat="45.55833" lon="6.82101">
        <ele>2270.5</ele>
        <time>2021-03-30T05:55:23Z</time>
      </trkpt>
      <trkpt lat="45.55833" lon="6.82101">
        <ele>2270.5</ele>
        <time>2021-03-30T05:55:24Z</time>
      </trkpt>
      <trkpt lat="45.55832" lon="6.821">
        <ele>2270.6</ele>
        <time>2021-03-30T05:55:25Z</time>
      </trkpt>
      <trkpt lat="45.55831" lon="6.821">
        <ele>2270.7</ele>
        <time>2021-03-30T05:55:26Z</time>
      </trkpt>
      <trkpt lat="45.5583" lon="6.821">
        <ele>2270.7</ele>
        <time>2021-03-30T05:55:27Z</time>
      </trkpt>
      <trkpt lat="45.55829" lon="6.821">
        <ele>2270.9</ele>
        <time>2021-03-30T05:55:28Z</time>
      </trkpt>
      <trkpt lat="45.55828" lon="6.82101">
        <ele>2270.9</ele>
        <time>2021-03-30T05:55:29Z</time>
      </trkpt>
      <trkpt lat="45.55827" lon="6.82101">
        <ele>2271.1</ele>
        <time>2021-03-30T05:55:30Z</time>
      </trkpt>
      <trkpt lat="45.55827" lon="6.82101">
        <ele>2271.1</ele>
        <time>2021-03-30T05:55:31Z</time>
      </trkpt>
      <trkpt lat="45.55826" lon="6.82101">
        <ele>2271.3</ele>
        <time>2021-03-30T05:55:32Z</time>
      </trkpt>
      <trkpt lat="45.55825" lon="6.82102">
        <ele>2271.3</ele>
        <time>2021-03-30T05:55:33Z</time>
      </trkpt>
      <trkpt lat="45.55824" lon="6.82102">
        <ele>2271.3</ele>
        <time>2021-03-30T05:55:34Z</time>
      </trkpt>
      <trkpt lat="45.55823" lon="6.82102">
        <ele>2271.4</ele>
        <time>2021-03-30T05:55:35Z</time>
      </trkpt>
      <trkpt lat="45.55822" lon="6.82102">
        <ele>2271.4</ele>
        <time>2021-03-30T05:55:36Z</time>
      </trkpt>
      <trkpt lat="45.55821" lon="6.82102">
        <ele>2271.4</ele>
        <time>2021-03-30T05:55:37Z</time>
      </trkpt>
      <trkpt lat="45.55821" lon="6.82102">
        <ele>2271.4</ele>
        <time>2021-03-30T05:55:38Z</time>
      </trkpt>
      <trkpt lat="45.5582" lon="6.82102">
        <ele>2271.6</ele>
        <time>2021-03-30T05:55:39Z</time>
      </trkpt>
      <trkpt lat="45.55819" lon="6.82102">
        <ele>2271.6</ele>
        <time>2021-03-30T05:55:40Z</time>
      </trkpt>
      <trkpt lat="45.55818" lon="6.82102">
        <ele>2271.6</ele>
        <time>2021-03-30T05:55:41Z</time>
      </trkpt>
      <trkpt lat="45.55817" lon="6.82102">
        <ele>2271.7</ele>
        <time>2021-03-30T05:55:42Z</time>
      </trkpt>
      <trkpt lat="45.55817" lon="6.82102">
        <ele>2271.7</ele>
        <time>2021-03-30T05:55:43Z</time>
      </trkpt>
      <trkpt lat="45.55816" lon="6.82102">
        <ele>2271.7</ele>
        <time>2021-03-30T05:55:44Z</time>
      </trkpt>
      <trkpt lat="45.55815" lon="6.82103">
        <ele>2271.7</ele>
        <time>2021-03-30T05:55:45Z</time>
      </trkpt>
      <trkpt lat="45.55815" lon="6.82103">
        <ele>2271.7</ele>
        <time>2021-03-30T05:55:46Z</time>
      </trkpt>
      <trkpt lat="45.55814" lon="6.82103">
        <ele>2271.8</ele>
        <time>2021-03-30T05:55:47Z</time>
      </trkpt>
      <trkpt lat="45.55813" lon="6.82103">
        <ele>2271.8</ele>
        <time>2021-03-30T05:55:48Z</time>
      </trkpt>
      <trkpt lat="45.55812" lon="6.82103">
        <ele>2271.8</ele>
        <time>2021-03-30T05:55:49Z</time>
      </trkpt>
      <trkpt lat="45.55812" lon="6.82104">
        <ele>2271.8</ele>
        <time>2021-03-30T05:55:50Z</time>
      </trkpt>
      <trkpt lat="45.55811" lon="6.82104">
        <ele>2272</ele>
        <time>2021-03-30T05:55:51Z</time>
      </trkpt>
      <trkpt lat="45.5581" lon="6.82104">
        <ele>2272</ele>
        <time>2021-03-30T05:55:52Z</time>
      </trkpt>
      <trkpt lat="45.55809" lon="6.82104">
        <ele>2272</ele>
        <time>2021-03-30T05:55:53Z</time>
      </trkpt>
      <trkpt lat="45.55808" lon="6.82104">
        <ele>2272.2</ele>
        <time>2021-03-30T05:55:54Z</time>
      </trkpt>
      <trkpt lat="45.55808" lon="6.82104">
        <ele>2272.2</ele>
        <time>2021-03-30T05:55:55Z</time>
      </trkpt>
      <trkpt lat="45.55807" lon="6.82105">
        <ele>2272.2</ele>
        <time>2021-03-30T05:55:56Z</time>
      </trkpt>
      <trkpt lat="45.55806" lon="6.82105">
        <ele>2272.2</ele>
        <time>2021-03-30T05:55:57Z</time>
      </trkpt>
      <trkpt lat="45.55805" lon="6.82105">
        <ele>2272.5</ele>
        <time>2021-03-30T05:55:58Z</time>
      </trkpt>
      <trkpt lat="45.55805" lon="6.82105">
        <ele>2272.8</ele>
        <time>2021-03-30T05:55:59Z</time>
      </trkpt>
      <trkpt lat="45.55804" lon="6.82106">
        <ele>2272.8</ele>
        <time>2021-03-30T05:56:00Z</time>
      </trkpt>
      <trkpt lat="45.55803" lon="6.82106">
        <ele>2272.8</ele>
        <time>2021-03-30T05:56:01Z</time>
      </trkpt>
      <trkpt lat="45.55802" lon="6.82106">
        <ele>2273</ele>
        <time>2021-03-30T05:56:02Z</time>
      </trkpt>
      <trkpt lat="45.55801" lon="6.82106">
        <ele>2273</ele>
        <time>2021-03-30T05:56:03Z</time>
      </trkpt>
      <trkpt lat="45.55801" lon="6.82106">
        <ele>2273</ele>
        <time>2021-03-30T05:56:04Z</time>
      </trkpt>
      <trkpt lat="45.558" lon="6.82107">
        <ele>2273</ele>
        <time>2021-03-30T05:56:05Z</time>
      </trkpt>
      <trkpt lat="45.55799" lon="6.82107">
        <ele>2273.2</ele>
        <time>2021-03-30T05:56:06Z</time>
      </trkpt>
      <trkpt lat="45.55798" lon="6.82107">
        <ele>2273.2</ele>
        <time>2021-03-30T05:56:07Z</time>
      </trkpt>
      <trkpt lat="45.55798" lon="6.82107">
        <ele>2273.2</ele>
        <time>2021-03-30T05:56:08Z</time>
      </trkpt>
      <trkpt lat="45.55797" lon="6.82107">
        <ele>2273.2</ele>
        <time>2021-03-30T05:56:09Z</time>
      </trkpt>
      <trkpt lat="45.55796" lon="6.82108">
        <ele>2273.4</ele>
        <time>2021-03-30T05:56:10Z</time>
      </trkpt>
      <trkpt lat="45.55796" lon="6.82108">
        <ele>2273.4</ele>
        <time>2021-03-30T05:56:11Z</time>
      </trkpt>
      <trkpt lat="45.55795" lon="6.82108">
        <ele>2273.4</ele>
        <time>2021-03-30T05:56:12Z</time>
      </trkpt>
      <trkpt lat="45.55794" lon="6.82108">
        <ele>2273.4</ele>
        <time>2021-03-30T05:56:13Z</time>
      </trkpt>
      <trkpt lat="45.55794" lon="6.82108">
        <ele>2273.4</ele>
        <time>2021-03-30T05:56:14Z</time>
      </trkpt>
      <trkpt lat="45.55793" lon="6.82108">
        <ele>2273.6</ele>
        <time>2021-03-30T05:56:15Z</time>
      </trkpt>
      <trkpt lat="45.55792" lon="6.82109">
        <ele>2273.6</ele>
        <time>2021-03-30T05:56:16Z</time>
      </trkpt>
      <trkpt lat="45.55791" lon="6.82109">
        <ele>2273.6</ele>
        <time>2021-03-30T05:56:17Z</time>
      </trkpt>
      <trkpt lat="45.55791" lon="6.82109">
        <ele>2273.6</ele>
        <time>2021-03-30T05:56:18Z</time>
      </trkpt>
      <trkpt lat="45.5579" lon="6.82109">
        <ele>2273.8</ele>
        <time>2021-03-30T05:56:19Z</time>
      </trkpt>
      <trkpt lat="45.55789" lon="6.82109">
        <ele>2273.8</ele>
        <time>2021-03-30T05:56:20Z</time>
      </trkpt>
      <trkpt lat="45.55788" lon="6.8211">
        <ele>2274.2</ele>
        <time>2021-03-30T05:56:21Z</time>
      </trkpt>
      <trkpt lat="45.55788" lon="6.8211">
        <ele>2274.2</ele>
        <time>2021-03-30T05:56:22Z</time>
      </trkpt>
      <trkpt lat="45.55787" lon="6.8211">
        <ele>2274.4</ele>
        <time>2021-03-30T05:56:23Z</time>
      </trkpt>
      <trkpt lat="45.55786" lon="6.8211">
        <ele>2274.4</ele>
        <time>2021-03-30T05:56:24Z</time>
      </trkpt>
      <trkpt lat="45.55786" lon="6.8211">
        <ele>2274.4</ele>
        <time>2021-03-30T05:56:25Z</time>
      </trkpt>
      <trkpt lat="45.55785" lon="6.82111">
        <ele>2274.4</ele>
        <time>2021-03-30T05:56:26Z</time>
      </trkpt>
      <trkpt lat="45.55785" lon="6.82111">
        <ele>2274.4</ele>
        <time>2021-03-30T05:56:27Z</time>
      </trkpt>
      <trkpt lat="45.55784" lon="6.82111">
        <ele>2274.6</ele>
        <time>2021-03-30T05:56:28Z</time>
      </trkpt>
      <trkpt lat="45.55783" lon="6.82112">
        <ele>2274.6</ele>
        <time>2021-03-30T05:56:29Z</time>
      </trkpt>
      <trkpt lat="45.55782" lon="6.82112">
        <ele>2274.6</ele>
        <time>2021-03-30T05:56:30Z</time>
      </trkpt>
      <trkpt lat="45.55782" lon="6.82112">
        <ele>2274.6</ele>
        <time>2021-03-30T05:56:31Z</time>
      </trkpt>
      <trkpt lat="45.55781" lon="6.82113">
        <ele>2274.9</ele>
        <time>2021-03-30T05:56:32Z</time>
      </trkpt>
      <trkpt lat="45.5578" lon="6.82113">
        <ele>2274.9</ele>
        <time>2021-03-30T05:56:33Z</time>
      </trkpt>
      <trkpt lat="45.5578" lon="6.82113">
        <ele>2274.9</ele>
        <time>2021-03-30T05:56:34Z</time>
      </trkpt>
      <trkpt lat="45.55779" lon="6.82113">
        <ele>2274.9</ele>
        <time>2021-03-30T05:56:35Z</time>
      </trkpt>
      <trkpt lat="45.55778" lon="6.82114">
        <ele>2275.2</ele>
        <time>2021-03-30T05:56:36Z</time>
      </trkpt>
      <trkpt lat="45.55777" lon="6.82114">
        <ele>2275.2</ele>
        <time>2021-03-30T05:56:37Z</time>
      </trkpt>
      <trkpt lat="45.55776" lon="6.82114">
        <ele>2275.6</ele>
        <time>2021-03-30T05:56:38Z</time>
      </trkpt>
      <trkpt lat="45.55776" lon="6.82114">
        <ele>2275.6</ele>
        <time>2021-03-30T05:56:39Z</time>
      </trkpt>
      <trkpt lat="45.55775" lon="6.82114">
        <ele>2275.9</ele>
        <time>2021-03-30T05:56:40Z</time>
      </trkpt>
      <trkpt lat="45.55774" lon="6.82114">
        <ele>2275.9</ele>
        <time>2021-03-30T05:56:41Z</time>
      </trkpt>
      <trkpt lat="45.55773" lon="6.82115">
        <ele>2275.9</ele>
        <time>2021-03-30T05:56:42Z</time>
      </trkpt>
      <trkpt lat="45.55773" lon="6.82115">
        <ele>2275.9</ele>
        <time>2021-03-30T05:56:43Z</time>
      </trkpt>
      <trkpt lat="45.55772" lon="6.82115">
        <ele>2276.2</ele>
        <time>2021-03-30T05:56:44Z</time>
      </trkpt>
      <trkpt lat="45.55771" lon="6.82115">
        <ele>2276.2</ele>
        <time>2021-03-30T05:56:45Z</time>
      </trkpt>
      <trkpt lat="45.55771" lon="6.82116">
        <ele>2276.2</ele>
        <time>2021-03-30T05:56:46Z</time>
      </trkpt>
      <trkpt lat="45.5577" lon="6.82116">
        <ele>2276.2</ele>
        <time>2021-03-30T05:56:47Z</time>
      </trkpt>
      <trkpt lat="45.55769" lon="6.82116">
        <ele>2276.5</ele>
        <time>2021-03-30T05:56:48Z</time>
      </trkpt>
      <trkpt lat="45.55769" lon="6.82117">
        <ele>2276.5</ele>
        <time>2021-03-30T05:56:49Z</time>
      </trkpt>
      <trkpt lat="45.55768" lon="6.82117">
        <ele>2276.5</ele>
        <time>2021-03-30T05:56:50Z</time>
      </trkpt>
      <trkpt lat="45.55767" lon="6.82117">
        <ele>2276.5</ele>
        <time>2021-03-30T05:56:51Z</time>
      </trkpt>
      <trkpt lat="45.55767" lon="6.82118">
        <ele>2276.5</ele>
        <time>2021-03-30T05:56:52Z</time>
      </trkpt>
      <trkpt lat="45.55766" lon="6.82118">
        <ele>2277.3</ele>
        <time>2021-03-30T05:56:53Z</time>
      </trkpt>
      <trkpt lat="45.55766" lon="6.82119">
        <ele>2277.3</ele>
        <time>2021-03-30T05:56:54Z</time>
      </trkpt>
      <trkpt lat="45.55765" lon="6.82119">
        <ele>2277.3</ele>
        <time>2021-03-30T05:56:55Z</time>
      </trkpt>
      <trkpt lat="45.55764" lon="6.82119">
        <ele>2277.3</ele>
        <time>2021-03-30T05:56:56Z</time>
      </trkpt>
      <trkpt lat="45.55763" lon="6.82119">
        <ele>2277.3</ele>
        <time>2021-03-30T05:56:57Z</time>
      </trkpt>
      <trkpt lat="45.55763" lon="6.82119">
        <ele>2277.7</ele>
        <time>2021-03-30T05:56:58Z</time>
      </trkpt>
      <trkpt lat="45.55762" lon="6.82119">
        <ele>2277.7</ele>
        <time>2021-03-30T05:56:59Z</time>
      </trkpt>
      <trkpt lat="45.55761" lon="6.82119">
        <ele>2277.7</ele>
        <time>2021-03-30T05:57:00Z</time>
      </trkpt>
      <trkpt lat="45.5576" lon="6.82119">
        <ele>2277.7</ele>
        <time>2021-03-30T05:57:01Z</time>
      </trkpt>
      <trkpt lat="45.5576" lon="6.82119">
        <ele>2278.1</ele>
        <time>2021-03-30T05:57:02Z</time>
      </trkpt>
      <trkpt lat="45.55759" lon="6.8212">
        <ele>2278.1</ele>
        <time>2021-03-30T05:57:03Z</time>
      </trkpt>
      <trkpt lat="45.55759" lon="6.8212">
        <ele>2278.1</ele>
        <time>2021-03-30T05:57:04Z</time>
      </trkpt>
      <trkpt lat="45.55758" lon="6.8212">
        <ele>2278.1</ele>
        <time>2021-03-30T05:57:05Z</time>
      </trkpt>
      <trkpt lat="45.55757" lon="6.8212">
        <ele>2278.1</ele>
        <time>2021-03-30T05:57:06Z</time>
      </trkpt>
      <trkpt lat="45.55757" lon="6.82121">
        <ele>2278.5</ele>
        <time>2021-03-30T05:57:07Z</time>
      </trkpt>
      <trkpt lat="45.55756" lon="6.82121">
        <ele>2278.5</ele>
        <time>2021-03-30T05:57:08Z</time>
      </trkpt>
      <trkpt lat="45.55756" lon="6.82121">
        <ele>2278.5</ele>
        <time>2021-03-30T05:57:09Z</time>
      </trkpt>
      <trkpt lat="45.55755" lon="6.82121">
        <ele>2278.5</ele>
        <time>2021-03-30T05:57:10Z</time>
      </trkpt>
      <trkpt lat="45.55754" lon="6.82121">
        <ele>2279</ele>
        <time>2021-03-30T05:57:11Z</time>
      </trkpt>
      <trkpt lat="45.55753" lon="6.8212">
        <ele>2279</ele>
        <time>2021-03-30T05:57:12Z</time>
      </trkpt>
      <trkpt lat="45.55753" lon="6.8212">
        <ele>2279</ele>
        <time>2021-03-30T05:57:13Z</time>
      </trkpt>
      <trkpt lat="45.55752" lon="6.8212">
        <ele>2279</ele>
        <time>2021-03-30T05:57:14Z</time>
      </trkpt>
      <trkpt lat="45.55751" lon="6.8212">
        <ele>2279.6</ele>
        <time>2021-03-30T05:57:15Z</time>
      </trkpt>
      <trkpt lat="45.5575" lon="6.8212">
        <ele>2279.6</ele>
        <time>2021-03-30T05:57:16Z</time>
      </trkpt>
      <trkpt lat="45.5575" lon="6.8212">
        <ele>2279.6</ele>
        <time>2021-03-30T05:57:17Z</time>
      </trkpt>
      <trkpt lat="45.55749" lon="6.8212">
        <ele>2279.6</ele>
        <time>2021-03-30T05:57:18Z</time>
      </trkpt>
      <trkpt lat="45.55748" lon="6.8212">
        <ele>2280.1</ele>
        <time>2021-03-30T05:57:19Z</time>
      </trkpt>
      <trkpt lat="45.55747" lon="6.8212">
        <ele>2280.1</ele>
        <time>2021-03-30T05:57:20Z</time>
      </trkpt>
      <trkpt lat="45.55746" lon="6.8212">
        <ele>2280.1</ele>
        <time>2021-03-30T05:57:21Z</time>
      </trkpt>
      <trkpt lat="45.55746" lon="6.8212">
        <ele>2280.1</ele>
        <time>2021-03-30T05:57:22Z</time>
      </trkpt>
      <trkpt lat="45.55745" lon="6.8212">
        <ele>2280.7</ele>
        <time>2021-03-30T05:57:23Z</time>
      </trkpt>
      <trkpt lat="45.55744" lon="6.8212">
        <ele>2280.7</ele>
        <time>2021-03-30T05:57:24Z</time>
      </trkpt>
      <trkpt lat="45.55744" lon="6.82121">
        <ele>2280.7</ele>
        <time>2021-03-30T05:57:25Z</time>
      </trkpt>
      <trkpt lat="45.55743" lon="6.82121">
        <ele>2280.7</ele>
        <time>2021-03-30T05:57:26Z</time>
      </trkpt>
      <trkpt lat="45.55742" lon="6.82121">
        <ele>2281.3</ele>
        <time>2021-03-30T05:57:27Z</time>
      </trkpt>
      <trkpt lat="45.55742" lon="6.82121">
        <ele>2281.3</ele>
        <time>2021-03-30T05:57:28Z</time>
      </trkpt>
      <trkpt lat="45.55741" lon="6.82121">
        <ele>2281.3</ele>
        <time>2021-03-30T05:57:29Z</time>
      </trkpt>
      <trkpt lat="45.5574" lon="6.82121">
        <ele>2281.3</ele>
        <time>2021-03-30T05:57:30Z</time>
      </trkpt>
      <trkpt lat="45.5574" lon="6.82122">
        <ele>2281.3</ele>
        <time>2021-03-30T05:57:31Z</time>
      </trkpt>
      <trkpt lat="45.55739" lon="6.82122">
        <ele>2281.9</ele>
        <time>2021-03-30T05:57:32Z</time>
      </trkpt>
      <trkpt lat="45.55738" lon="6.82122">
        <ele>2281.9</ele>
        <time>2021-03-30T05:57:33Z</time>
      </trkpt>
      <trkpt lat="45.55738" lon="6.82122">
        <ele>2281.9</ele>
        <time>2021-03-30T05:57:34Z</time>
      </trkpt>
      <trkpt lat="45.55737" lon="6.82122">
        <ele>2281.9</ele>
        <time>2021-03-30T05:57:35Z</time>
      </trkpt>
      <trkpt lat="45.55736" lon="6.82122">
        <ele>2283.2</ele>
        <time>2021-03-30T05:57:36Z</time>
      </trkpt>
      <trkpt lat="45.55736" lon="6.82122">
        <ele>2283.2</ele>
        <time>2021-03-30T05:57:37Z</time>
      </trkpt>
      <trkpt lat="45.55735" lon="6.82123">
        <ele>2283.2</ele>
        <time>2021-03-30T05:57:38Z</time>
      </trkpt>
      <trkpt lat="45.55734" lon="6.82123">
        <ele>2283.2</ele>
        <time>2021-03-30T05:57:39Z</time>
      </trkpt>
      <trkpt lat="45.55733" lon="6.82123">
        <ele>2283.7</ele>
        <time>2021-03-30T05:57:40Z</time>
      </trkpt>
      <trkpt lat="45.55732" lon="6.82123">
        <ele>2283.7</ele>
        <time>2021-03-30T05:57:41Z</time>
      </trkpt>
      <trkpt lat="45.55731" lon="6.82123">
        <ele>2283.7</ele>
        <time>2021-03-30T05:57:42Z</time>
      </trkpt>
      <trkpt lat="45.5573" lon="6.82123">
        <ele>2284.3</ele>
        <time>2021-03-30T05:57:43Z</time>
      </trkpt>
      <trkpt lat="45.55729" lon="6.82123">
        <ele>2284.3</ele>
        <time>2021-03-30T05:57:44Z</time>
      </trkpt>
      <trkpt lat="45.55729" lon="6.82123">
        <ele>2284.3</ele>
        <time>2021-03-30T05:57:45Z</time>
      </trkpt>
      <trkpt lat="45.55728" lon="6.82123">
        <ele>2284.3</ele>
        <time>2021-03-30T05:57:46Z</time>
      </trkpt>
      <trkpt lat="45.55727" lon="6.82124">
        <ele>2284.9</ele>
        <time>2021-03-30T05:57:47Z</time>
      </trkpt>
      <trkpt lat="45.55726" lon="6.82124">
        <ele>2284.9</ele>
        <time>2021-03-30T05:57:48Z</time>
      </trkpt>
      <trkpt lat="45.55725" lon="6.82124">
        <ele>2284.9</ele>
        <time>2021-03-30T05:57:49Z</time>
      </trkpt>
      <trkpt lat="45.55725" lon="6.82125">
        <ele>2284.9</ele>
        <time>2021-03-30T05:57:50Z</time>
      </trkpt>
      <trkpt lat="45.55724" lon="6.82125">
        <ele>2285.6</ele>
        <time>2021-03-30T05:57:51Z</time>
      </trkpt>
      <trkpt lat="45.55723" lon="6.82125">
        <ele>2285.6</ele>
        <time>2021-03-30T05:57:52Z</time>
      </trkpt>
      <trkpt lat="45.55722" lon="6.82126">
        <ele>2285.6</ele>
        <time>2021-03-30T05:57:53Z</time>
      </trkpt>
      <trkpt lat="45.55722" lon="6.82126">
        <ele>2285.6</ele>
        <time>2021-03-30T05:57:54Z</time>
      </trkpt>
      <trkpt lat="45.55721" lon="6.82126">
        <ele>2286.3</ele>
        <time>2021-03-30T05:57:55Z</time>
      </trkpt>
      <trkpt lat="45.5572" lon="6.82127">
        <ele>2287</ele>
        <time>2021-03-30T05:57:56Z</time>
      </trkpt>
      <trkpt lat="45.5572" lon="6.82127">
        <ele>2287</ele>
        <time>2021-03-30T05:57:57Z</time>
      </trkpt>
      <trkpt lat="45.55719" lon="6.82128">
        <ele>2287</ele>
        <time>2021-03-30T05:57:58Z</time>
      </trkpt>
      <trkpt lat="45.55718" lon="6.82128">
        <ele>2287.7</ele>
        <time>2021-03-30T05:57:59Z</time>
      </trkpt>
      <trkpt lat="45.55718" lon="6.82129">
        <ele>2287.7</ele>
        <time>2021-03-30T05:58:00Z</time>
      </trkpt>
      <trkpt lat="45.55717" lon="6.82129">
        <ele>2287.7</ele>
        <time>2021-03-30T05:58:01Z</time>
      </trkpt>
      <trkpt lat="45.55716" lon="6.82129">
        <ele>2287.7</ele>
        <time>2021-03-30T05:58:02Z</time>
      </trkpt>
      <trkpt lat="45.55716" lon="6.8213">
        <ele>2287.7</ele>
        <time>2021-03-30T05:58:03Z</time>
      </trkpt>
      <trkpt lat="45.55715" lon="6.8213">
        <ele>2288.4</ele>
        <time>2021-03-30T05:58:04Z</time>
      </trkpt>
      <trkpt lat="45.55715" lon="6.8213">
        <ele>2288.4</ele>
        <time>2021-03-30T05:58:05Z</time>
      </trkpt>
      <trkpt lat="45.55714" lon="6.8213">
        <ele>2288.4</ele>
        <time>2021-03-30T05:58:06Z</time>
      </trkpt>
      <trkpt lat="45.55713" lon="6.82131">
        <ele>2288.4</ele>
        <time>2021-03-30T05:58:07Z</time>
      </trkpt>
      <trkpt lat="45.55712" lon="6.82131">
        <ele>2289.1</ele>
        <time>2021-03-30T05:58:08Z</time>
      </trkpt>
      <trkpt lat="45.55712" lon="6.82131">
        <ele>2289.8</ele>
        <time>2021-03-30T05:58:09Z</time>
      </trkpt>
      <trkpt lat="45.55711" lon="6.82132">
        <ele>2289.8</ele>
        <time>2021-03-30T05:58:10Z</time>
      </trkpt>
      <trkpt lat="45.5571" lon="6.82132">
        <ele>2289.8</ele>
        <time>2021-03-30T05:58:11Z</time>
      </trkpt>
      <trkpt lat="45.55709" lon="6.82132">
        <ele>2289.8</ele>
        <time>2021-03-30T05:58:12Z</time>
      </trkpt>
      <trkpt lat="45.55708" lon="6.82132">
        <ele>2290.5</ele>
        <time>2021-03-30T05:58:13Z</time>
      </trkpt>
      <trkpt lat="45.55708" lon="6.82132">
        <ele>2290.5</ele>
        <time>2021-03-30T05:58:14Z</time>
      </trkpt>
      <trkpt lat="45.55707" lon="6.82133">
        <ele>2290.5</ele>
        <time>2021-03-30T05:58:15Z</time>
      </trkpt>
      <trkpt lat="45.55706" lon="6.82133">
        <ele>2291.2</ele>
        <time>2021-03-30T05:58:16Z</time>
      </trkpt>
      <trkpt lat="45.55705" lon="6.82133">
        <ele>2291.2</ele>
        <time>2021-03-30T05:58:17Z</time>
      </trkpt>
      <trkpt lat="45.55704" lon="6.82133">
        <ele>2291.2</ele>
        <time>2021-03-30T05:58:18Z</time>
      </trkpt>
      <trkpt lat="45.55704" lon="6.82134">
        <ele>2291.2</ele>
        <time>2021-03-30T05:58:19Z</time>
      </trkpt>
      <trkpt lat="45.55703" lon="6.82134">
        <ele>2292</ele>
        <time>2021-03-30T05:58:20Z</time>
      </trkpt>
      <trkpt lat="45.55702" lon="6.82134">
        <ele>2292</ele>
        <time>2021-03-30T05:58:21Z</time>
      </trkpt>
      <trkpt lat="45.55701" lon="6.82134">
        <ele>2292</ele>
        <time>2021-03-30T05:58:22Z</time>
      </trkpt>
      <trkpt lat="45.557" lon="6.82134">
        <ele>2292.8</ele>
        <time>2021-03-30T05:58:23Z</time>
      </trkpt>
      <trkpt lat="45.55699" lon="6.82134">
        <ele>2292.8</ele>
        <time>2021-03-30T05:58:24Z</time>
      </trkpt>
      <trkpt lat="45.55699" lon="6.82135">
        <ele>2292.8</ele>
        <time>2021-03-30T05:58:25Z</time>
      </trkpt>
      <trkpt lat="45.55698" lon="6.82135">
        <ele>2292.8</ele>
        <time>2021-03-30T05:58:26Z</time>
      </trkpt>
      <trkpt lat="45.55696" lon="6.82136">
        <ele>2294.5</ele>
        <time>2021-03-30T05:58:27Z</time>
      </trkpt>
      <trkpt lat="45.55696" lon="6.82136">
        <ele>2294.5</ele>
        <time>2021-03-30T05:58:28Z</time>
      </trkpt>
      <trkpt lat="45.55695" lon="6.82136">
        <ele>2294.5</ele>
        <time>2021-03-30T05:58:29Z</time>
      </trkpt>
      <trkpt lat="45.55694" lon="6.82137">
        <ele>2294.5</ele>
        <time>2021-03-30T05:58:30Z</time>
      </trkpt>
      <trkpt lat="45.55693" lon="6.82137">
        <ele>2295.4</ele>
        <time>2021-03-30T05:58:31Z</time>
      </trkpt>
      <trkpt lat="45.55693" lon="6.82138">
        <ele>2295.4</ele>
        <time>2021-03-30T05:58:32Z</time>
      </trkpt>
      <trkpt lat="45.55692" lon="6.82138">
        <ele>2295.4</ele>
        <time>2021-03-30T05:58:33Z</time>
      </trkpt>
      <trkpt lat="45.55691" lon="6.82139">
        <ele>2296.2</ele>
        <time>2021-03-30T05:58:34Z</time>
      </trkpt>
      <trkpt lat="45.5569" lon="6.8214">
        <ele>2297</ele>
        <time>2021-03-30T05:58:35Z</time>
      </trkpt>
      <trkpt lat="45.5569" lon="6.8214">
        <ele>2297</ele>
        <time>2021-03-30T05:58:36Z</time>
      </trkpt>
      <trkpt lat="45.55689" lon="6.82141">
        <ele>2297</ele>
        <time>2021-03-30T05:58:37Z</time>
      </trkpt>
      <trkpt lat="45.55689" lon="6.82141">
        <ele>2297</ele>
        <time>2021-03-30T05:58:38Z</time>
      </trkpt>
      <trkpt lat="45.55688" lon="6.82142">
        <ele>2297.8</ele>
        <time>2021-03-30T05:58:39Z</time>
      </trkpt>
      <trkpt lat="45.55687" lon="6.82142">
        <ele>2297.8</ele>
        <time>2021-03-30T05:58:40Z</time>
      </trkpt>
      <trkpt lat="45.55686" lon="6.82143">
        <ele>2297.8</ele>
        <time>2021-03-30T05:58:41Z</time>
      </trkpt>
      <trkpt lat="45.55686" lon="6.82143">
        <ele>2297.8</ele>
        <time>2021-03-30T05:58:42Z</time>
      </trkpt>
      <trkpt lat="45.55685" lon="6.82143">
        <ele>2298.6</ele>
        <time>2021-03-30T05:58:43Z</time>
      </trkpt>
      <trkpt lat="45.55684" lon="6.82144">
        <ele>2299.4</ele>
        <time>2021-03-30T05:58:44Z</time>
      </trkpt>
      <trkpt lat="45.55684" lon="6.82144">
        <ele>2299.4</ele>
        <time>2021-03-30T05:58:45Z</time>
      </trkpt>
      <trkpt lat="45.55683" lon="6.82144">
        <ele>2299.4</ele>
        <time>2021-03-30T05:58:46Z</time>
      </trkpt>
      <trkpt lat="45.55682" lon="6.82144">
        <ele>2299.4</ele>
        <time>2021-03-30T05:58:47Z</time>
      </trkpt>
      <trkpt lat="45.55682" lon="6.82145">
        <ele>2300.1</ele>
        <time>2021-03-30T05:58:48Z</time>
      </trkpt>
      <trkpt lat="45.55681" lon="6.82145">
        <ele>2300.1</ele>
        <time>2021-03-30T05:58:49Z</time>
      </trkpt>
      <trkpt lat="45.55681" lon="6.82145">
        <ele>2300.1</ele>
        <time>2021-03-30T05:58:50Z</time>
      </trkpt>
      <trkpt lat="45.5568" lon="6.82146">
        <ele>2300.1</ele>
        <time>2021-03-30T05:58:51Z</time>
      </trkpt>
      <trkpt lat="45.5568" lon="6.82146">
        <ele>2300.1</ele>
        <time>2021-03-30T05:58:52Z</time>
      </trkpt>
      <trkpt lat="45.55679" lon="6.82147">
        <ele>2300.1</ele>
        <time>2021-03-30T05:58:53Z</time>
      </trkpt>
      <trkpt lat="45.55679" lon="6.82148">
        <ele>2300.8</ele>
        <time>2021-03-30T05:58:54Z</time>
      </trkpt>
      <trkpt lat="45.55678" lon="6.82148">
        <ele>2301.6</ele>
        <time>2021-03-30T05:58:55Z</time>
      </trkpt>
      <trkpt lat="45.55678" lon="6.82149">
        <ele>2301.6</ele>
        <time>2021-03-30T05:58:56Z</time>
      </trkpt>
      <trkpt lat="45.55677" lon="6.82149">
        <ele>2301.6</ele>
        <time>2021-03-30T05:58:57Z</time>
      </trkpt>
      <trkpt lat="45.55677" lon="6.8215">
        <ele>2301.6</ele>
        <time>2021-03-30T05:58:58Z</time>
      </trkpt>
      <trkpt lat="45.55676" lon="6.8215">
        <ele>2302.3</ele>
        <time>2021-03-30T05:58:59Z</time>
      </trkpt>
      <trkpt lat="45.55676" lon="6.8215">
        <ele>2302.3</ele>
        <time>2021-03-30T05:59:00Z</time>
      </trkpt>
      <trkpt lat="45.55675" lon="6.82151">
        <ele>2302.3</ele>
        <time>2021-03-30T05:59:01Z</time>
      </trkpt>
      <trkpt lat="45.55675" lon="6.82152">
        <ele>2302.3</ele>
        <time>2021-03-30T05:59:02Z</time>
      </trkpt>
      <trkpt lat="45.55674" lon="6.82152">
        <ele>2302.3</ele>
        <time>2021-03-30T05:59:03Z</time>
      </trkpt>
      <trkpt lat="45.55674" lon="6.82153">
        <ele>2303.1</ele>
        <time>2021-03-30T05:59:04Z</time>
      </trkpt>
      <trkpt lat="45.55673" lon="6.82153">
        <ele>2303.7</ele>
        <time>2021-03-30T05:59:05Z</time>
      </trkpt>
      <trkpt lat="45.55672" lon="6.82154">
        <ele>2303.7</ele>
        <time>2021-03-30T05:59:06Z</time>
      </trkpt>
      <trkpt lat="45.55672" lon="6.82155">
        <ele>2303.7</ele>
        <time>2021-03-30T05:59:07Z</time>
      </trkpt>
      <trkpt lat="45.55671" lon="6.82156">
        <ele>2303.7</ele>
        <time>2021-03-30T05:59:08Z</time>
      </trkpt>
      <trkpt lat="45.55671" lon="6.82157">
        <ele>2304.6</ele>
        <time>2021-03-30T05:59:09Z</time>
      </trkpt>
      <trkpt lat="45.5567" lon="6.82158">
        <ele>2305.2</ele>
        <time>2021-03-30T05:59:10Z</time>
      </trkpt>
      <trkpt lat="45.5567" lon="6.82158">
        <ele>2305.2</ele>
        <time>2021-03-30T05:59:11Z</time>
      </trkpt>
      <trkpt lat="45.55669" lon="6.82159">
        <ele>2305.2</ele>
        <time>2021-03-30T05:59:12Z</time>
      </trkpt>
      <trkpt lat="45.55669" lon="6.8216">
        <ele>2305.2</ele>
        <time>2021-03-30T05:59:13Z</time>
      </trkpt>
      <trkpt lat="45.55669" lon="6.82161">
        <ele>2305.2</ele>
        <time>2021-03-30T05:59:14Z</time>
      </trkpt>
      <trkpt lat="45.55668" lon="6.82161">
        <ele>2306.1</ele>
        <time>2021-03-30T05:59:15Z</time>
      </trkpt>
      <trkpt lat="45.55668" lon="6.82162">
        <ele>2306.1</ele>
        <time>2021-03-30T05:59:16Z</time>
      </trkpt>
      <trkpt lat="45.55667" lon="6.82163">
        <ele>2306.1</ele>
        <time>2021-03-30T05:59:17Z</time>
      </trkpt>
      <trkpt lat="45.55667" lon="6.82163">
        <ele>2306.6</ele>
        <time>2021-03-30T05:59:18Z</time>
      </trkpt>
      <trkpt lat="45.55666" lon="6.82163">
        <ele>2306.6</ele>
        <time>2021-03-30T05:59:19Z</time>
      </trkpt>
      <trkpt lat="45.55666" lon="6.82164">
        <ele>2306.6</ele>
        <time>2021-03-30T05:59:20Z</time>
      </trkpt>
      <trkpt lat="45.55665" lon="6.82165">
        <ele>2306.6</ele>
        <time>2021-03-30T05:59:21Z</time>
      </trkpt>
      <trkpt lat="45.55665" lon="6.82166">
        <ele>2307.6</ele>
        <time>2021-03-30T05:59:22Z</time>
      </trkpt>
      <trkpt lat="45.55665" lon="6.82166">
        <ele>2307.6</ele>
        <time>2021-03-30T05:59:23Z</time>
      </trkpt>
      <trkpt lat="45.55664" lon="6.82167">
        <ele>2308.1</ele>
        <time>2021-03-30T05:59:24Z</time>
      </trkpt>
      <trkpt lat="45.55664" lon="6.82167">
        <ele>2308.1</ele>
        <time>2021-03-30T05:59:25Z</time>
      </trkpt>
      <trkpt lat="45.55663" lon="6.82168">
        <ele>2308.1</ele>
        <time>2021-03-30T05:59:26Z</time>
      </trkpt>
      <trkpt lat="45.55663" lon="6.82168">
        <ele>2308.1</ele>
        <time>2021-03-30T05:59:27Z</time>
      </trkpt>
      <trkpt lat="45.55662" lon="6.82169">
        <ele>2308.1</ele>
        <time>2021-03-30T05:59:28Z</time>
      </trkpt>
      <trkpt lat="45.55662" lon="6.82169">
        <ele>2308.1</ele>
        <time>2021-03-30T05:59:29Z</time>
      </trkpt>
      <trkpt lat="45.55662" lon="6.8217">
        <ele>2309</ele>
        <time>2021-03-30T05:59:30Z</time>
      </trkpt>
      <trkpt lat="45.55661" lon="6.8217">
        <ele>2309.4</ele>
        <time>2021-03-30T05:59:31Z</time>
      </trkpt>
      <trkpt lat="45.5566" lon="6.82171">
        <ele>2309.4</ele>
        <time>2021-03-30T05:59:32Z</time>
      </trkpt>
      <trkpt lat="45.5566" lon="6.82171">
        <ele>2309.4</ele>
        <time>2021-03-30T05:59:33Z</time>
      </trkpt>
      <trkpt lat="45.5566" lon="6.82171">
        <ele>2309.4</ele>
        <time>2021-03-30T05:59:34Z</time>
      </trkpt>
      <trkpt lat="45.55659" lon="6.82171">
        <ele>2309.4</ele>
        <time>2021-03-30T05:59:35Z</time>
      </trkpt>
      <trkpt lat="45.55659" lon="6.82172">
        <ele>2309.4</ele>
        <time>2021-03-30T05:59:36Z</time>
      </trkpt>
      <trkpt lat="45.55658" lon="6.82172">
        <ele>2309.4</ele>
        <time>2021-03-30T05:59:37Z</time>
      </trkpt>
      <trkpt lat="45.55658" lon="6.82173">
        <ele>2309.9</ele>
        <time>2021-03-30T05:59:38Z</time>
      </trkpt>
      <trkpt lat="45.55657" lon="6.82173">
        <ele>2309.9</ele>
        <time>2021-03-30T05:59:39Z</time>
      </trkpt>
      <trkpt lat="45.55657" lon="6.82173">
        <ele>2309.9</ele>
        <time>2021-03-30T05:59:40Z</time>
      </trkpt>
      <trkpt lat="45.55656" lon="6.82173">
        <ele>2309.9</ele>
        <time>2021-03-30T05:59:41Z</time>
      </trkpt>
      <trkpt lat="45.55655" lon="6.82174">
        <ele>2310.2</ele>
        <time>2021-03-30T05:59:42Z</time>
      </trkpt>
      <trkpt lat="45.55654" lon="6.82174">
        <ele>2311.1</ele>
        <time>2021-03-30T05:59:43Z</time>
      </trkpt>
      <trkpt lat="45.55654" lon="6.82175">
        <ele>2311.1</ele>
        <time>2021-03-30T05:59:44Z</time>
      </trkpt>
      <trkpt lat="45.55653" lon="6.82175">
        <ele>2311.1</ele>
        <time>2021-03-30T05:59:45Z</time>
      </trkpt>
      <trkpt lat="45.55653" lon="6.82175">
        <ele>2311.1</ele>
        <time>2021-03-30T05:59:46Z</time>
      </trkpt>
      <trkpt lat="45.55652" lon="6.82176">
        <ele>2311.5</ele>
        <time>2021-03-30T05:59:47Z</time>
      </trkpt>
      <trkpt lat="45.55651" lon="6.82176">
        <ele>2311.5</ele>
        <time>2021-03-30T05:59:48Z</time>
      </trkpt>
      <trkpt lat="45.55651" lon="6.82176">
        <ele>2311.5</ele>
        <time>2021-03-30T05:59:49Z</time>
      </trkpt>
      <trkpt lat="45.5565" lon="6.82177">
        <ele>2311.5</ele>
        <time>2021-03-30T05:59:50Z</time>
      </trkpt>
      <trkpt lat="45.5565" lon="6.82177">
        <ele>2311.5</ele>
        <time>2021-03-30T05:59:51Z</time>
      </trkpt>
      <trkpt lat="45.55649" lon="6.82177">
        <ele>2311.8</ele>
        <time>2021-03-30T05:59:52Z</time>
      </trkpt>
      <trkpt lat="45.55649" lon="6.82178">
        <ele>2311.8</ele>
        <time>2021-03-30T05:59:53Z</time>
      </trkpt>
      <trkpt lat="45.55648" lon="6.82178">
        <ele>2311.8</ele>
        <time>2021-03-30T05:59:54Z</time>
      </trkpt>
      <trkpt lat="45.55648" lon="6.82178">
        <ele>2312.6</ele>
        <time>2021-03-30T05:59:55Z</time>
      </trkpt>
      <trkpt lat="45.55647" lon="6.82178">
        <ele>2312.6</ele>
        <time>2021-03-30T05:59:56Z</time>
      </trkpt>
      <trkpt lat="45.55646" lon="6.82178">
        <ele>2312.6</ele>
        <time>2021-03-30T05:59:57Z</time>
      </trkpt>
      <trkpt lat="45.55646" lon="6.82179">
        <ele>2313</ele>
        <time>2021-03-30T05:59:58Z</time>
      </trkpt>
      <trkpt lat="45.55645" lon="6.82179">
        <ele>2313</ele>
        <time>2021-03-30T05:59:59Z</time>
      </trkpt>
      <trkpt lat="45.55644" lon="6.82179">
        <ele>2313</ele>
        <time>2021-03-30T06:00:00Z</time>
      </trkpt>
      <trkpt lat="45.55644" lon="6.82179">
        <ele>2313</ele>
        <time>2021-03-30T06:00:01Z</time>
      </trkpt>
      <trkpt lat="45.55643" lon="6.82179">
        <ele>2313.4</ele>
        <time>2021-03-30T06:00:02Z</time>
      </trkpt>
      <trkpt lat="45.55642" lon="6.82179">
        <ele>2313.4</ele>
        <time>2021-03-30T06:00:03Z</time>
      </trkpt>
      <trkpt lat="45.55642" lon="6.8218">
        <ele>2313.4</ele>
        <time>2021-03-30T06:00:04Z</time>
      </trkpt>
      <trkpt lat="45.55641" lon="6.8218">
        <ele>2313.4</ele>
        <time>2021-03-30T06:00:05Z</time>
      </trkpt>
      <trkpt lat="45.5564" lon="6.8218">
        <ele>2313.4</ele>
        <time>2021-03-30T06:00:06Z</time>
      </trkpt>
      <trkpt lat="45.5564" lon="6.8218">
        <ele>2313.7</ele>
        <time>2021-03-30T06:00:07Z</time>
      </trkpt>
      <trkpt lat="45.55639" lon="6.82181">
        <ele>2313.7</ele>
        <time>2021-03-30T06:00:08Z</time>
      </trkpt>
      <trkpt lat="45.55639" lon="6.82181">
        <ele>2313.7</ele>
        <time>2021-03-30T06:00:09Z</time>
      </trkpt>
      <trkpt lat="45.55638" lon="6.82181">
        <ele>2313.7</ele>
        <time>2021-03-30T06:00:10Z</time>
      </trkpt>
      <trkpt lat="45.55638" lon="6.82182">
        <ele>2313.7</ele>
        <time>2021-03-30T06:00:11Z</time>
      </trkpt>
      <trkpt lat="45.55637" lon="6.82182">
        <ele>2314.1</ele>
        <time>2021-03-30T06:00:12Z</time>
      </trkpt>
      <trkpt lat="45.55636" lon="6.82182">
        <ele>2314.1</ele>
        <time>2021-03-30T06:00:13Z</time>
      </trkpt>
      <trkpt lat="45.55636" lon="6.82182">
        <ele>2314.1</ele>
        <time>2021-03-30T06:00:14Z</time>
      </trkpt>
      <trkpt lat="45.55635" lon="6.82182">
        <ele>2314.9</ele>
        <time>2021-03-30T06:00:15Z</time>
      </trkpt>
      <trkpt lat="45.55634" lon="6.82183">
        <ele>2314.9</ele>
        <time>2021-03-30T06:00:16Z</time>
      </trkpt>
      <trkpt lat="45.55634" lon="6.82183">
        <ele>2315.2</ele>
        <time>2021-03-30T06:00:17Z</time>
      </trkpt>
      <trkpt lat="45.55633" lon="6.82183">
        <ele>2315.2</ele>
        <time>2021-03-30T06:00:18Z</time>
      </trkpt>
      <trkpt lat="45.55633" lon="6.82183">
        <ele>2315.2</ele>
        <time>2021-03-30T06:00:19Z</time>
      </trkpt>
      <trkpt lat="45.55632" lon="6.82184">
        <ele>2315.2</ele>
        <time>2021-03-30T06:00:20Z</time>
      </trkpt>
      <trkpt lat="45.55631" lon="6.82184">
        <ele>2315.5</ele>
        <time>2021-03-30T06:00:21Z</time>
      </trkpt>
      <trkpt lat="45.5563" lon="6.82184">
        <ele>2315.5</ele>
        <time>2021-03-30T06:00:22Z</time>
      </trkpt>
      <trkpt lat="45.5563" lon="6.82184">
        <ele>2315.5</ele>
        <time>2021-03-30T06:00:23Z</time>
      </trkpt>
      <trkpt lat="45.55629" lon="6.82184">
        <ele>2315.5</ele>
        <time>2021-03-30T06:00:24Z</time>
      </trkpt>
      <trkpt lat="45.55629" lon="6.82184">
        <ele>2315.5</ele>
        <time>2021-03-30T06:00:25Z</time>
      </trkpt>
      <trkpt lat="45.55628" lon="6.82185">
        <ele>2315.7</ele>
        <time>2021-03-30T06:00:26Z</time>
      </trkpt>
      <trkpt lat="45.55627" lon="6.82185">
        <ele>2315.7</ele>
        <time>2021-03-30T06:00:27Z</time>
      </trkpt>
      <trkpt lat="45.55627" lon="6.82185">
        <ele>2315.7</ele>
        <time>2021-03-30T06:00:28Z</time>
      </trkpt>
      <trkpt lat="45.55626" lon="6.82186">
        <ele>2315.7</ele>
        <time>2021-03-30T06:00:29Z</time>
      </trkpt>
      <trkpt lat="45.55625" lon="6.82187">
        <ele>2315.7</ele>
        <time>2021-03-30T06:00:30Z</time>
      </trkpt>
      <trkpt lat="45.55625" lon="6.82187">
        <ele>2316.7</ele>
        <time>2021-03-30T06:00:31Z</time>
      </trkpt>
      <trkpt lat="45.55624" lon="6.82188">
        <ele>2316.7</ele>
        <time>2021-03-30T06:00:32Z</time>
      </trkpt>
      <trkpt lat="45.55623" lon="6.82188">
        <ele>2316.7</ele>
        <time>2021-03-30T06:00:33Z</time>
      </trkpt>
      <trkpt lat="45.55623" lon="6.82189">
        <ele>2316.7</ele>
        <time>2021-03-30T06:00:34Z</time>
      </trkpt>
      <trkpt lat="45.55622" lon="6.82189">
        <ele>2316.9</ele>
        <time>2021-03-30T06:00:35Z</time>
      </trkpt>
      <trkpt lat="45.55621" lon="6.82189">
        <ele>2316.9</ele>
        <time>2021-03-30T06:00:36Z</time>
      </trkpt>
      <trkpt lat="45.55621" lon="6.8219">
        <ele>2316.9</ele>
        <time>2021-03-30T06:00:37Z</time>
      </trkpt>
      <trkpt lat="45.5562" lon="6.8219">
        <ele>2316.9</ele>
        <time>2021-03-30T06:00:38Z</time>
      </trkpt>
      <trkpt lat="45.55619" lon="6.8219">
        <ele>2316.9</ele>
        <time>2021-03-30T06:00:39Z</time>
      </trkpt>
      <trkpt lat="45.55619" lon="6.8219">
        <ele>2317.1</ele>
        <time>2021-03-30T06:00:40Z</time>
      </trkpt>
      <trkpt lat="45.55618" lon="6.82191">
        <ele>2317.1</ele>
        <time>2021-03-30T06:00:41Z</time>
      </trkpt>
      <trkpt lat="45.55617" lon="6.82191">
        <ele>2317.1</ele>
        <time>2021-03-30T06:00:42Z</time>
      </trkpt>
      <trkpt lat="45.55617" lon="6.82191">
        <ele>2317.8</ele>
        <time>2021-03-30T06:00:43Z</time>
      </trkpt>
      <trkpt lat="45.55616" lon="6.82192">
        <ele>2317.8</ele>
        <time>2021-03-30T06:00:44Z</time>
      </trkpt>
      <trkpt lat="45.55616" lon="6.82192">
        <ele>2318</ele>
        <time>2021-03-30T06:00:45Z</time>
      </trkpt>
      <trkpt lat="45.55615" lon="6.82192">
        <ele>2318</ele>
        <time>2021-03-30T06:00:46Z</time>
      </trkpt>
      <trkpt lat="45.55615" lon="6.82192">
        <ele>2318</ele>
        <time>2021-03-30T06:00:47Z</time>
      </trkpt>
      <trkpt lat="45.55614" lon="6.82193">
        <ele>2318</ele>
        <time>2021-03-30T06:00:48Z</time>
      </trkpt>
      <trkpt lat="45.55614" lon="6.82193">
        <ele>2318</ele>
        <time>2021-03-30T06:00:49Z</time>
      </trkpt>
      <trkpt lat="45.55613" lon="6.82194">
        <ele>2318</ele>
        <time>2021-03-30T06:00:50Z</time>
      </trkpt>
      <trkpt lat="45.55613" lon="6.82194">
        <ele>2318.2</ele>
        <time>2021-03-30T06:00:51Z</time>
      </trkpt>
      <trkpt lat="45.55612" lon="6.82195">
        <ele>2318.2</ele>
        <time>2021-03-30T06:00:52Z</time>
      </trkpt>
      <trkpt lat="45.55612" lon="6.82195">
        <ele>2318.2</ele>
        <time>2021-03-30T06:00:53Z</time>
      </trkpt>
      <trkpt lat="45.55611" lon="6.82195">
        <ele>2319</ele>
        <time>2021-03-30T06:00:54Z</time>
      </trkpt>
      <trkpt lat="45.55611" lon="6.82196">
        <ele>2319</ele>
        <time>2021-03-30T06:00:55Z</time>
      </trkpt>
      <trkpt lat="45.5561" lon="6.82196">
        <ele>2319.2</ele>
        <time>2021-03-30T06:00:56Z</time>
      </trkpt>
      <trkpt lat="45.5561" lon="6.82197">
        <ele>2319.2</ele>
        <time>2021-03-30T06:00:57Z</time>
      </trkpt>
      <trkpt lat="45.55609" lon="6.82197">
        <ele>2319.2</ele>
        <time>2021-03-30T06:00:58Z</time>
      </trkpt>
      <trkpt lat="45.55609" lon="6.82197">
        <ele>2319.2</ele>
        <time>2021-03-30T06:00:59Z</time>
      </trkpt>
      <trkpt lat="45.55608" lon="6.82198">
        <ele>2319.2</ele>
        <time>2021-03-30T06:01:00Z</time>
      </trkpt>
      <trkpt lat="45.55607" lon="6.82198">
        <ele>2319.2</ele>
        <time>2021-03-30T06:01:01Z</time>
      </trkpt>
      <trkpt lat="45.55607" lon="6.82198">
        <ele>2319.3</ele>
        <time>2021-03-30T06:01:02Z</time>
      </trkpt>
      <trkpt lat="45.55606" lon="6.82198">
        <ele>2319.3</ele>
        <time>2021-03-30T06:01:03Z</time>
      </trkpt>
      <trkpt lat="45.55605" lon="6.82198">
        <ele>2319.3</ele>
        <time>2021-03-30T06:01:04Z</time>
      </trkpt>
      <trkpt lat="45.55604" lon="6.82199">
        <ele>2319.3</ele>
        <time>2021-03-30T06:01:05Z</time>
      </trkpt>
      <trkpt lat="45.55604" lon="6.82199">
        <ele>2319.4</ele>
        <time>2021-03-30T06:01:06Z</time>
      </trkpt>
      <trkpt lat="45.55603" lon="6.82199">
        <ele>2319.4</ele>
        <time>2021-03-30T06:01:07Z</time>
      </trkpt>
      <trkpt lat="45.55602" lon="6.82199">
        <ele>2319.4</ele>
        <time>2021-03-30T06:01:08Z</time>
      </trkpt>
      <trkpt lat="45.55602" lon="6.822">
        <ele>2320.2</ele>
        <time>2021-03-30T06:01:09Z</time>
      </trkpt>
      <trkpt lat="45.55601" lon="6.822">
        <ele>2320.3</ele>
        <time>2021-03-30T06:01:10Z</time>
      </trkpt>
      <trkpt lat="45.556" lon="6.822">
        <ele>2320.3</ele>
        <time>2021-03-30T06:01:11Z</time>
      </trkpt>
      <trkpt lat="45.55599" lon="6.822">
        <ele>2320.3</ele>
        <time>2021-03-30T06:01:12Z</time>
      </trkpt>
      <trkpt lat="45.55599" lon="6.82201">
        <ele>2320.3</ele>
        <time>2021-03-30T06:01:13Z</time>
      </trkpt>
      <trkpt lat="45.55598" lon="6.82201">
        <ele>2320.4</ele>
        <time>2021-03-30T06:01:14Z</time>
      </trkpt>
      <trkpt lat="45.55598" lon="6.82201">
        <ele>2320.4</ele>
        <time>2021-03-30T06:01:15Z</time>
      </trkpt>
      <trkpt lat="45.55597" lon="6.82201">
        <ele>2320.4</ele>
        <time>2021-03-30T06:01:16Z</time>
      </trkpt>
      <trkpt lat="45.55596" lon="6.82201">
        <ele>2320.4</ele>
        <time>2021-03-30T06:01:17Z</time>
      </trkpt>
      <trkpt lat="45.55595" lon="6.82201">
        <ele>2320.4</ele>
        <time>2021-03-30T06:01:18Z</time>
      </trkpt>
      <trkpt lat="45.55595" lon="6.82202">
        <ele>2320.4</ele>
        <time>2021-03-30T06:01:19Z</time>
      </trkpt>
      <trkpt lat="45.55594" lon="6.82202">
        <ele>2320.4</ele>
        <time>2021-03-30T06:01:20Z</time>
      </trkpt>
      <trkpt lat="45.55593" lon="6.82202">
        <ele>2320.4</ele>
        <time>2021-03-30T06:01:21Z</time>
      </trkpt>
      <trkpt lat="45.55592" lon="6.82202">
        <ele>2320.4</ele>
        <time>2021-03-30T06:01:22Z</time>
      </trkpt>
      <trkpt lat="45.55591" lon="6.82202">
        <ele>2320.5</ele>
        <time>2021-03-30T06:01:23Z</time>
      </trkpt>
      <trkpt lat="45.55591" lon="6.82203">
        <ele>2320.5</ele>
        <time>2021-03-30T06:01:24Z</time>
      </trkpt>
      <trkpt lat="45.5559" lon="6.82203">
        <ele>2320.5</ele>
        <time>2021-03-30T06:01:25Z</time>
      </trkpt>
      <trkpt lat="45.55589" lon="6.82203">
        <ele>2320.5</ele>
        <time>2021-03-30T06:01:26Z</time>
      </trkpt>
      <trkpt lat="45.55588" lon="6.82203">
        <ele>2320.6</ele>
        <time>2021-03-30T06:01:27Z</time>
      </trkpt>
      <trkpt lat="45.55588" lon="6.82203">
        <ele>2320.6</ele>
        <time>2021-03-30T06:01:28Z</time>
      </trkpt>
      <trkpt lat="45.55587" lon="6.82203">
        <ele>2320.6</ele>
        <time>2021-03-30T06:01:29Z</time>
      </trkpt>
      <trkpt lat="45.55586" lon="6.82203">
        <ele>2320.6</ele>
        <time>2021-03-30T06:01:30Z</time>
      </trkpt>
      <trkpt lat="45.55586" lon="6.82203">
        <ele>2320.7</ele>
        <time>2021-03-30T06:01:31Z</time>
      </trkpt>
      <trkpt lat="45.55585" lon="6.82203">
        <ele>2320.7</ele>
        <time>2021-03-30T06:01:32Z</time>
      </trkpt>
      <trkpt lat="45.55584" lon="6.82203">
        <ele>2320.7</ele>
        <time>2021-03-30T06:01:33Z</time>
      </trkpt>
      <trkpt lat="45.55583" lon="6.82203">
        <ele>2320.7</ele>
        <time>2021-03-30T06:01:34Z</time>
      </trkpt>
      <trkpt lat="45.55582" lon="6.82203">
        <ele>2320.7</ele>
        <time>2021-03-30T06:01:35Z</time>
      </trkpt>
      <trkpt lat="45.55581" lon="6.82203">
        <ele>2320.7</ele>
        <time>2021-03-30T06:01:36Z</time>
      </trkpt>
      <trkpt lat="45.5558" lon="6.82204">
        <ele>2320.7</ele>
        <time>2021-03-30T06:01:37Z</time>
      </trkpt>
      <trkpt lat="45.5558" lon="6.82204">
        <ele>2320.8</ele>
        <time>2021-03-30T06:01:38Z</time>
      </trkpt>
      <trkpt lat="45.55579" lon="6.82204">
        <ele>2321.6</ele>
        <time>2021-03-30T06:01:39Z</time>
      </trkpt>
      <trkpt lat="45.55578" lon="6.82204">
        <ele>2321.6</ele>
        <time>2021-03-30T06:01:40Z</time>
      </trkpt>
      <trkpt lat="45.55577" lon="6.82204">
        <ele>2321.6</ele>
        <time>2021-03-30T06:01:41Z</time>
      </trkpt>
      <trkpt lat="45.55577" lon="6.82204">
        <ele>2321.7</ele>
        <time>2021-03-30T06:01:42Z</time>
      </trkpt>
      <trkpt lat="45.55576" lon="6.82204">
        <ele>2321.7</ele>
        <time>2021-03-30T06:01:43Z</time>
      </trkpt>
      <trkpt lat="45.55575" lon="6.82205">
        <ele>2321.7</ele>
        <time>2021-03-30T06:01:44Z</time>
      </trkpt>
      <trkpt lat="45.55575" lon="6.82205">
        <ele>2321.7</ele>
        <time>2021-03-30T06:01:45Z</time>
      </trkpt>
      <trkpt lat="45.55574" lon="6.82205">
        <ele>2321.7</ele>
        <time>2021-03-30T06:01:46Z</time>
      </trkpt>
      <trkpt lat="45.55574" lon="6.82205">
        <ele>2321.7</ele>
        <time>2021-03-30T06:01:47Z</time>
      </trkpt>
      <trkpt lat="45.55573" lon="6.82205">
        <ele>2321.7</ele>
        <time>2021-03-30T06:01:48Z</time>
      </trkpt>
      <trkpt lat="45.55572" lon="6.82206">
        <ele>2321.7</ele>
        <time>2021-03-30T06:01:49Z</time>
      </trkpt>
      <trkpt lat="45.55571" lon="6.82206">
        <ele>2321.7</ele>
        <time>2021-03-30T06:01:50Z</time>
      </trkpt>
      <trkpt lat="45.55571" lon="6.82206">
        <ele>2321.8</ele>
        <time>2021-03-30T06:01:51Z</time>
      </trkpt>
      <trkpt lat="45.5557" lon="6.82207">
        <ele>2321.8</ele>
        <time>2021-03-30T06:01:52Z</time>
      </trkpt>
      <trkpt lat="45.55569" lon="6.82207">
        <ele>2321.8</ele>
        <time>2021-03-30T06:01:53Z</time>
      </trkpt>
      <trkpt lat="45.55569" lon="6.82208">
        <ele>2321.8</ele>
        <time>2021-03-30T06:01:54Z</time>
      </trkpt>
      <trkpt lat="45.55568" lon="6.82208">
        <ele>2322.7</ele>
        <time>2021-03-30T06:01:55Z</time>
      </trkpt>
      <trkpt lat="45.55567" lon="6.82209">
        <ele>2322.7</ele>
        <time>2021-03-30T06:01:56Z</time>
      </trkpt>
      <trkpt lat="45.55566" lon="6.82209">
        <ele>2322.7</ele>
        <time>2021-03-30T06:01:57Z</time>
      </trkpt>
      <trkpt lat="45.55566" lon="6.8221">
        <ele>2322.7</ele>
        <time>2021-03-30T06:01:58Z</time>
      </trkpt>
      <trkpt lat="45.55565" lon="6.8221">
        <ele>2322.7</ele>
        <time>2021-03-30T06:01:59Z</time>
      </trkpt>
      <trkpt lat="45.55564" lon="6.82211">
        <ele>2322.7</ele>
        <time>2021-03-30T06:02:00Z</time>
      </trkpt>
      <trkpt lat="45.55563" lon="6.82211">
        <ele>2322.7</ele>
        <time>2021-03-30T06:02:01Z</time>
      </trkpt>
      <trkpt lat="45.55563" lon="6.82212">
        <ele>2322.7</ele>
        <time>2021-03-30T06:02:02Z</time>
      </trkpt>
      <trkpt lat="45.55562" lon="6.82212">
        <ele>2322.7</ele>
        <time>2021-03-30T06:02:03Z</time>
      </trkpt>
      <trkpt lat="45.55561" lon="6.82213">
        <ele>2323.6</ele>
        <time>2021-03-30T06:02:04Z</time>
      </trkpt>
      <trkpt lat="45.55561" lon="6.82214">
        <ele>2323.6</ele>
        <time>2021-03-30T06:02:05Z</time>
      </trkpt>
      <trkpt lat="45.5556" lon="6.82214">
        <ele>2323.6</ele>
        <time>2021-03-30T06:02:06Z</time>
      </trkpt>
      <trkpt lat="45.55559" lon="6.82215">
        <ele>2323.6</ele>
        <time>2021-03-30T06:02:07Z</time>
      </trkpt>
      <trkpt lat="45.55558" lon="6.82216">
        <ele>2323.7</ele>
        <time>2021-03-30T06:02:08Z</time>
      </trkpt>
      <trkpt lat="45.55558" lon="6.82216">
        <ele>2323.7</ele>
        <time>2021-03-30T06:02:09Z</time>
      </trkpt>
      <trkpt lat="45.55557" lon="6.82217">
        <ele>2324.5</ele>
        <time>2021-03-30T06:02:10Z</time>
      </trkpt>
      <trkpt lat="45.55556" lon="6.82218">
        <ele>2324.5</ele>
        <time>2021-03-30T06:02:11Z</time>
      </trkpt>
      <trkpt lat="45.55556" lon="6.82218">
        <ele>2324.6</ele>
        <time>2021-03-30T06:02:12Z</time>
      </trkpt>
      <trkpt lat="45.55555" lon="6.82219">
        <ele>2324.6</ele>
        <time>2021-03-30T06:02:13Z</time>
      </trkpt>
      <trkpt lat="45.55554" lon="6.8222">
        <ele>2324.6</ele>
        <time>2021-03-30T06:02:14Z</time>
      </trkpt>
      <trkpt lat="45.55554" lon="6.8222">
        <ele>2324.6</ele>
        <time>2021-03-30T06:02:15Z</time>
      </trkpt>
      <trkpt lat="45.55553" lon="6.82221">
        <ele>2324.6</ele>
        <time>2021-03-30T06:02:16Z</time>
      </trkpt>
      <trkpt lat="45.55552" lon="6.82221">
        <ele>2325.5</ele>
        <time>2021-03-30T06:02:17Z</time>
      </trkpt>
      <trkpt lat="45.55552" lon="6.82222">
        <ele>2325.5</ele>
        <time>2021-03-30T06:02:18Z</time>
      </trkpt>
      <trkpt lat="45.55551" lon="6.82222">
        <ele>2325.5</ele>
        <time>2021-03-30T06:02:19Z</time>
      </trkpt>
      <trkpt lat="45.5555" lon="6.82223">
        <ele>2325.5</ele>
        <time>2021-03-30T06:02:20Z</time>
      </trkpt>
      <trkpt lat="45.5555" lon="6.82223">
        <ele>2325.6</ele>
        <time>2021-03-30T06:02:21Z</time>
      </trkpt>
      <trkpt lat="45.55549" lon="6.82224">
        <ele>2325.6</ele>
        <time>2021-03-30T06:02:22Z</time>
      </trkpt>
      <trkpt lat="45.55548" lon="6.82224">
        <ele>2325.6</ele>
        <time>2021-03-30T06:02:23Z</time>
      </trkpt>
      <trkpt lat="45.55547" lon="6.82225">
        <ele>2325.6</ele>
        <time>2021-03-30T06:02:24Z</time>
      </trkpt>
      <trkpt lat="45.55547" lon="6.82226">
        <ele>2326.5</ele>
        <time>2021-03-30T06:02:25Z</time>
      </trkpt>
      <trkpt lat="45.55546" lon="6.82226">
        <ele>2326.5</ele>
        <time>2021-03-30T06:02:26Z</time>
      </trkpt>
      <trkpt lat="45.55546" lon="6.82227">
        <ele>2326.5</ele>
        <time>2021-03-30T06:02:27Z</time>
      </trkpt>
      <trkpt lat="45.55545" lon="6.82228">
        <ele>2326.5</ele>
        <time>2021-03-30T06:02:28Z</time>
      </trkpt>
      <trkpt lat="45.55544" lon="6.82228">
        <ele>2326.5</ele>
        <time>2021-03-30T06:02:29Z</time>
      </trkpt>
      <trkpt lat="45.55544" lon="6.82229">
        <ele>2326.5</ele>
        <time>2021-03-30T06:02:30Z</time>
      </trkpt>
      <trkpt lat="45.55543" lon="6.8223">
        <ele>2327.3</ele>
        <time>2021-03-30T06:02:31Z</time>
      </trkpt>
      <trkpt lat="45.55543" lon="6.82231">
        <ele>2327.3</ele>
        <time>2021-03-30T06:02:32Z</time>
      </trkpt>
      <trkpt lat="45.55542" lon="6.82232">
        <ele>2327.3</ele>
        <time>2021-03-30T06:02:33Z</time>
      </trkpt>
      <trkpt lat="45.55542" lon="6.82232">
        <ele>2327.3</ele>
        <time>2021-03-30T06:02:34Z</time>
      </trkpt>
      <trkpt lat="45.55541" lon="6.82233">
        <ele>2327.3</ele>
        <time>2021-03-30T06:02:35Z</time>
      </trkpt>
      <trkpt lat="45.55541" lon="6.82234">
        <ele>2328.2</ele>
        <time>2021-03-30T06:02:36Z</time>
      </trkpt>
      <trkpt lat="45.5554" lon="6.82235">
        <ele>2328.2</ele>
        <time>2021-03-30T06:02:37Z</time>
      </trkpt>
      <trkpt lat="45.55539" lon="6.82236">
        <ele>2328.2</ele>
        <time>2021-03-30T06:02:38Z</time>
      </trkpt>
      <trkpt lat="45.55539" lon="6.82237">
        <ele>2328.2</ele>
        <time>2021-03-30T06:02:39Z</time>
      </trkpt>
      <trkpt lat="45.55538" lon="6.82238">
        <ele>2328.2</ele>
        <time>2021-03-30T06:02:40Z</time>
      </trkpt>
      <trkpt lat="45.55537" lon="6.82239">
        <ele>2329</ele>
        <time>2021-03-30T06:02:41Z</time>
      </trkpt>
      <trkpt lat="45.55536" lon="6.8224">
        <ele>2329</ele>
        <time>2021-03-30T06:02:42Z</time>
      </trkpt>
      <trkpt lat="45.55535" lon="6.82241">
        <ele>2329</ele>
        <time>2021-03-30T06:02:43Z</time>
      </trkpt>
      <trkpt lat="45.55535" lon="6.82241">
        <ele>2329</ele>
        <time>2021-03-30T06:02:44Z</time>
      </trkpt>
      <trkpt lat="45.55534" lon="6.82242">
        <ele>2329</ele>
        <time>2021-03-30T06:02:45Z</time>
      </trkpt>
      <trkpt lat="45.55533" lon="6.82243">
        <ele>2329.8</ele>
        <time>2021-03-30T06:02:46Z</time>
      </trkpt>
      <trkpt lat="45.55532" lon="6.82244">
        <ele>2329.8</ele>
        <time>2021-03-30T06:02:47Z</time>
      </trkpt>
      <trkpt lat="45.55532" lon="6.82245">
        <ele>2329.8</ele>
        <time>2021-03-30T06:02:48Z</time>
      </trkpt>
      <trkpt lat="45.55531" lon="6.82246">
        <ele>2329.8</ele>
        <time>2021-03-30T06:02:49Z</time>
      </trkpt>
      <trkpt lat="45.5553" lon="6.82247">
        <ele>2329.8</ele>
        <time>2021-03-30T06:02:50Z</time>
      </trkpt>
      <trkpt lat="45.5553" lon="6.82247">
        <ele>2330.7</ele>
        <time>2021-03-30T06:02:51Z</time>
      </trkpt>
      <trkpt lat="45.55529" lon="6.82248">
        <ele>2330.6</ele>
        <time>2021-03-30T06:02:52Z</time>
      </trkpt>
      <trkpt lat="45.55528" lon="6.82249">
        <ele>2330.6</ele>
        <time>2021-03-30T06:02:53Z</time>
      </trkpt>
      <trkpt lat="45.55527" lon="6.8225">
        <ele>2330.6</ele>
        <time>2021-03-30T06:02:54Z</time>
      </trkpt>
      <trkpt lat="45.55526" lon="6.8225">
        <ele>2330.6</ele>
        <time>2021-03-30T06:02:55Z</time>
      </trkpt>
      <trkpt lat="45.55525" lon="6.82251">
        <ele>2331.9</ele>
        <time>2021-03-30T06:02:56Z</time>
      </trkpt>
      <trkpt lat="45.55524" lon="6.82252">
        <ele>2331.9</ele>
        <time>2021-03-30T06:02:57Z</time>
      </trkpt>
      <trkpt lat="45.55524" lon="6.82253">
        <ele>2331.9</ele>
        <time>2021-03-30T06:02:58Z</time>
      </trkpt>
      <trkpt lat="45.55523" lon="6.82254">
        <ele>2331.8</ele>
        <time>2021-03-30T06:02:59Z</time>
      </trkpt>
      <trkpt lat="45.55522" lon="6.82254">
        <ele>2331.8</ele>
        <time>2021-03-30T06:03:00Z</time>
      </trkpt>
      <trkpt lat="45.55521" lon="6.82255">
        <ele>2331.8</ele>
        <time>2021-03-30T06:03:01Z</time>
      </trkpt>
      <trkpt lat="45.55521" lon="6.82256">
        <ele>2332.7</ele>
        <time>2021-03-30T06:03:02Z</time>
      </trkpt>
      <trkpt lat="45.5552" lon="6.82257">
        <ele>2332.6</ele>
        <time>2021-03-30T06:03:03Z</time>
      </trkpt>
      <trkpt lat="45.55519" lon="6.82257">
        <ele>2332.6</ele>
        <time>2021-03-30T06:03:04Z</time>
      </trkpt>
      <trkpt lat="45.55518" lon="6.82258">
        <ele>2332.6</ele>
        <time>2021-03-30T06:03:05Z</time>
      </trkpt>
      <trkpt lat="45.55517" lon="6.82259">
        <ele>2332.6</ele>
        <time>2021-03-30T06:03:06Z</time>
      </trkpt>
      <trkpt lat="45.55517" lon="6.8226">
        <ele>2332.5</ele>
        <time>2021-03-30T06:03:07Z</time>
      </trkpt>
      <trkpt lat="45.55516" lon="6.8226">
        <ele>2333.3</ele>
        <time>2021-03-30T06:03:08Z</time>
      </trkpt>
      <trkpt lat="45.55516" lon="6.82261">
        <ele>2333.3</ele>
        <time>2021-03-30T06:03:09Z</time>
      </trkpt>
      <trkpt lat="45.55515" lon="6.82262">
        <ele>2333.3</ele>
        <time>2021-03-30T06:03:10Z</time>
      </trkpt>
      <trkpt lat="45.55515" lon="6.82263">
        <ele>2333.3</ele>
        <time>2021-03-30T06:03:11Z</time>
      </trkpt>
      <trkpt lat="45.55514" lon="6.82264">
        <ele>2333.3</ele>
        <time>2021-03-30T06:03:12Z</time>
      </trkpt>
      <trkpt lat="45.55514" lon="6.82264">
        <ele>2334</ele>
        <time>2021-03-30T06:03:13Z</time>
      </trkpt>
      <trkpt lat="45.55513" lon="6.82265">
        <ele>2334</ele>
        <time>2021-03-30T06:03:14Z</time>
      </trkpt>
      <trkpt lat="45.55513" lon="6.82266">
        <ele>2334</ele>
        <time>2021-03-30T06:03:15Z</time>
      </trkpt>
      <trkpt lat="45.55513" lon="6.82267">
        <ele>2334</ele>
        <time>2021-03-30T06:03:16Z</time>
      </trkpt>
      <trkpt lat="45.55512" lon="6.82268">
        <ele>2334</ele>
        <time>2021-03-30T06:03:17Z</time>
      </trkpt>
      <trkpt lat="45.55512" lon="6.82269">
        <ele>2334.8</ele>
        <time>2021-03-30T06:03:18Z</time>
      </trkpt>
      <trkpt lat="45.55512" lon="6.8227">
        <ele>2334.8</ele>
        <time>2021-03-30T06:03:19Z</time>
      </trkpt>
      <trkpt lat="45.55511" lon="6.8227">
        <ele>2334.8</ele>
        <time>2021-03-30T06:03:20Z</time>
      </trkpt>
      <trkpt lat="45.5551" lon="6.82271">
        <ele>2334.8</ele>
        <time>2021-03-30T06:03:21Z</time>
      </trkpt>
      <trkpt lat="45.5551" lon="6.82272">
        <ele>2334.8</ele>
        <time>2021-03-30T06:03:22Z</time>
      </trkpt>
      <trkpt lat="45.5551" lon="6.82272">
        <ele>2334.8</ele>
        <time>2021-03-30T06:03:23Z</time>
      </trkpt>
      <trkpt lat="45.55509" lon="6.82273">
        <ele>2335.6</ele>
        <time>2021-03-30T06:03:24Z</time>
      </trkpt>
      <trkpt lat="45.55508" lon="6.82274">
        <ele>2335.6</ele>
        <time>2021-03-30T06:03:25Z</time>
      </trkpt>
      <trkpt lat="45.55508" lon="6.82274">
        <ele>2335.5</ele>
        <time>2021-03-30T06:03:26Z</time>
      </trkpt>
      <trkpt lat="45.55507" lon="6.82275">
        <ele>2335.5</ele>
        <time>2021-03-30T06:03:27Z</time>
      </trkpt>
      <trkpt lat="45.55507" lon="6.82275">
        <ele>2335.5</ele>
        <time>2021-03-30T06:03:28Z</time>
      </trkpt>
      <trkpt lat="45.55507" lon="6.82276">
        <ele>2335.5</ele>
        <time>2021-03-30T06:03:29Z</time>
      </trkpt>
      <trkpt lat="45.55506" lon="6.82277">
        <ele>2335.5</ele>
        <time>2021-03-30T06:03:30Z</time>
      </trkpt>
      <trkpt lat="45.55506" lon="6.82277">
        <ele>2336.4</ele>
        <time>2021-03-30T06:03:31Z</time>
      </trkpt>
      <trkpt lat="45.55505" lon="6.82278">
        <ele>2336.4</ele>
        <time>2021-03-30T06:03:32Z</time>
      </trkpt>
      <trkpt lat="45.55505" lon="6.82279">
        <ele>2336.3</ele>
        <time>2021-03-30T06:03:33Z</time>
      </trkpt>
      <trkpt lat="45.55504" lon="6.82279">
        <ele>2336.3</ele>
        <time>2021-03-30T06:03:34Z</time>
      </trkpt>
      <trkpt lat="45.55503" lon="6.8228">
        <ele>2336.3</ele>
        <time>2021-03-30T06:03:35Z</time>
      </trkpt>
      <trkpt lat="45.55503" lon="6.82281">
        <ele>2336.3</ele>
        <time>2021-03-30T06:03:36Z</time>
      </trkpt>
      <trkpt lat="45.55502" lon="6.82281">
        <ele>2337.2</ele>
        <time>2021-03-30T06:03:37Z</time>
      </trkpt>
      <trkpt lat="45.55502" lon="6.82282">
        <ele>2337.2</ele>
        <time>2021-03-30T06:03:38Z</time>
      </trkpt>
      <trkpt lat="45.55501" lon="6.82283">
        <ele>2337.2</ele>
        <time>2021-03-30T06:03:39Z</time>
      </trkpt>
      <trkpt lat="45.55501" lon="6.82284">
        <ele>2337.2</ele>
        <time>2021-03-30T06:03:40Z</time>
      </trkpt>
      <trkpt lat="45.555" lon="6.82285">
        <ele>2337.2</ele>
        <time>2021-03-30T06:03:41Z</time>
      </trkpt>
      <trkpt lat="45.555" lon="6.82285">
        <ele>2337.2</ele>
        <time>2021-03-30T06:03:42Z</time>
      </trkpt>
      <trkpt lat="45.55499" lon="6.82286">
        <ele>2338</ele>
        <time>2021-03-30T06:03:43Z</time>
      </trkpt>
      <trkpt lat="45.55499" lon="6.82287">
        <ele>2338</ele>
        <time>2021-03-30T06:03:44Z</time>
      </trkpt>
      <trkpt lat="45.55498" lon="6.82288">
        <ele>2338</ele>
        <time>2021-03-30T06:03:45Z</time>
      </trkpt>
      <trkpt lat="45.55498" lon="6.82289">
        <ele>2338</ele>
        <time>2021-03-30T06:03:46Z</time>
      </trkpt>
      <trkpt lat="45.55497" lon="6.82289">
        <ele>2338</ele>
        <time>2021-03-30T06:03:47Z</time>
      </trkpt>
      <trkpt lat="45.55497" lon="6.8229">
        <ele>2338.8</ele>
        <time>2021-03-30T06:03:48Z</time>
      </trkpt>
      <trkpt lat="45.55496" lon="6.82291">
        <ele>2338.8</ele>
        <time>2021-03-30T06:03:49Z</time>
      </trkpt>
      <trkpt lat="45.55496" lon="6.82292">
        <ele>2338.9</ele>
        <time>2021-03-30T06:03:50Z</time>
      </trkpt>
      <trkpt lat="45.55495" lon="6.82293">
        <ele>2338.9</ele>
        <time>2021-03-30T06:03:51Z</time>
      </trkpt>
      <trkpt lat="45.55495" lon="6.82294">
        <ele>2338.9</ele>
        <time>2021-03-30T06:03:52Z</time>
      </trkpt>
      <trkpt lat="45.55494" lon="6.82295">
        <ele>2339.7</ele>
        <time>2021-03-30T06:03:53Z</time>
      </trkpt>
      <trkpt lat="45.55494" lon="6.82296">
        <ele>2339.7</ele>
        <time>2021-03-30T06:03:54Z</time>
      </trkpt>
      <trkpt lat="45.55493" lon="6.82296">
        <ele>2339.7</ele>
        <time>2021-03-30T06:03:55Z</time>
      </trkpt>
      <trkpt lat="45.55492" lon="6.82297">
        <ele>2339.7</ele>
        <time>2021-03-30T06:03:56Z</time>
      </trkpt>
      <trkpt lat="45.55492" lon="6.82298">
        <ele>2339.7</ele>
        <time>2021-03-30T06:03:57Z</time>
      </trkpt>
      <trkpt lat="45.55491" lon="6.82299">
        <ele>2340.5</ele>
        <time>2021-03-30T06:03:58Z</time>
      </trkpt>
      <trkpt lat="45.55491" lon="6.82299">
        <ele>2340.5</ele>
        <time>2021-03-30T06:03:59Z</time>
      </trkpt>
      <trkpt lat="45.5549" lon="6.823">
        <ele>2340.5</ele>
        <time>2021-03-30T06:04:00Z</time>
      </trkpt>
      <trkpt lat="45.5549" lon="6.82301">
        <ele>2340.6</ele>
        <time>2021-03-30T06:04:01Z</time>
      </trkpt>
      <trkpt lat="45.55489" lon="6.82301">
        <ele>2340.6</ele>
        <time>2021-03-30T06:04:02Z</time>
      </trkpt>
      <trkpt lat="45.55489" lon="6.82302">
        <ele>2340.6</ele>
        <time>2021-03-30T06:04:03Z</time>
      </trkpt>
      <trkpt lat="45.55488" lon="6.82303">
        <ele>2341.4</ele>
        <time>2021-03-30T06:04:04Z</time>
      </trkpt>
      <trkpt lat="45.55488" lon="6.82303">
        <ele>2341.4</ele>
        <time>2021-03-30T06:04:05Z</time>
      </trkpt>
      <trkpt lat="45.55487" lon="6.82304">
        <ele>2341.4</ele>
        <time>2021-03-30T06:04:06Z</time>
      </trkpt>
      <trkpt lat="45.55487" lon="6.82305">
        <ele>2341.4</ele>
        <time>2021-03-30T06:04:07Z</time>
      </trkpt>
      <trkpt lat="45.55487" lon="6.82305">
        <ele>2341.4</ele>
        <time>2021-03-30T06:04:08Z</time>
      </trkpt>
      <trkpt lat="45.55486" lon="6.82306">
        <ele>2341.4</ele>
        <time>2021-03-30T06:04:09Z</time>
      </trkpt>
      <trkpt lat="45.55486" lon="6.82307">
        <ele>2342.2</ele>
        <time>2021-03-30T06:04:10Z</time>
      </trkpt>
      <trkpt lat="45.55486" lon="6.82308">
        <ele>2342.2</ele>
        <time>2021-03-30T06:04:11Z</time>
      </trkpt>
      <trkpt lat="45.55485" lon="6.82309">
        <ele>2342.2</ele>
        <time>2021-03-30T06:04:12Z</time>
      </trkpt>
      <trkpt lat="45.55484" lon="6.8231">
        <ele>2342.2</ele>
        <time>2021-03-30T06:04:13Z</time>
      </trkpt>
      <trkpt lat="45.55484" lon="6.82311">
        <ele>2342.2</ele>
        <time>2021-03-30T06:04:14Z</time>
      </trkpt>
      <trkpt lat="45.55483" lon="6.82311">
        <ele>2342.9</ele>
        <time>2021-03-30T06:04:15Z</time>
      </trkpt>
      <trkpt lat="45.55483" lon="6.82312">
        <ele>2342.9</ele>
        <time>2021-03-30T06:04:16Z</time>
      </trkpt>
      <trkpt lat="45.55482" lon="6.82313">
        <ele>2342.9</ele>
        <time>2021-03-30T06:04:17Z</time>
      </trkpt>
      <trkpt lat="45.55482" lon="6.82314">
        <ele>2342.9</ele>
        <time>2021-03-30T06:04:18Z</time>
      </trkpt>
      <trkpt lat="45.55481" lon="6.82314">
        <ele>2342.9</ele>
        <time>2021-03-30T06:04:19Z</time>
      </trkpt>
      <trkpt lat="45.55481" lon="6.82315">
        <ele>2342.9</ele>
        <time>2021-03-30T06:04:20Z</time>
      </trkpt>
      <trkpt lat="45.5548" lon="6.82316">
        <ele>2343.6</ele>
        <time>2021-03-30T06:04:21Z</time>
      </trkpt>
      <trkpt lat="45.55479" lon="6.82316">
        <ele>2343.6</ele>
        <time>2021-03-30T06:04:22Z</time>
      </trkpt>
      <trkpt lat="45.55479" lon="6.82317">
        <ele>2343.6</ele>
        <time>2021-03-30T06:04:23Z</time>
      </trkpt>
      <trkpt lat="45.55478" lon="6.82317">
        <ele>2343.6</ele>
        <time>2021-03-30T06:04:24Z</time>
      </trkpt>
      <trkpt lat="45.55477" lon="6.82318">
        <ele>2343.6</ele>
        <time>2021-03-30T06:04:25Z</time>
      </trkpt>
      <trkpt lat="45.55477" lon="6.82319">
        <ele>2343.6</ele>
        <time>2021-03-30T06:04:26Z</time>
      </trkpt>
      <trkpt lat="45.55476" lon="6.82319">
        <ele>2343.6</ele>
        <time>2021-03-30T06:04:27Z</time>
      </trkpt>
      <trkpt lat="45.55475" lon="6.8232">
        <ele>2343.6</ele>
        <time>2021-03-30T06:04:28Z</time>
      </trkpt>
      <trkpt lat="45.55475" lon="6.8232">
        <ele>2344.2</ele>
        <time>2021-03-30T06:04:29Z</time>
      </trkpt>
      <trkpt lat="45.55474" lon="6.82321">
        <ele>2344.2</ele>
        <time>2021-03-30T06:04:30Z</time>
      </trkpt>
      <trkpt lat="45.55474" lon="6.82322">
        <ele>2344.2</ele>
        <time>2021-03-30T06:04:31Z</time>
      </trkpt>
      <trkpt lat="45.55473" lon="6.82322">
        <ele>2344.2</ele>
        <time>2021-03-30T06:04:32Z</time>
      </trkpt>
      <trkpt lat="45.55473" lon="6.82323">
        <ele>2344.2</ele>
        <time>2021-03-30T06:04:33Z</time>
      </trkpt>
      <trkpt lat="45.55472" lon="6.82324">
        <ele>2344.9</ele>
        <time>2021-03-30T06:04:34Z</time>
      </trkpt>
      <trkpt lat="45.55472" lon="6.82325">
        <ele>2344.9</ele>
        <time>2021-03-30T06:04:35Z</time>
      </trkpt>
      <trkpt lat="45.55472" lon="6.82325">
        <ele>2344.9</ele>
        <time>2021-03-30T06:04:36Z</time>
      </trkpt>
      <trkpt lat="45.55471" lon="6.82326">
        <ele>2344.9</ele>
        <time>2021-03-30T06:04:37Z</time>
      </trkpt>
      <trkpt lat="45.55471" lon="6.82327">
        <ele>2344.9</ele>
        <time>2021-03-30T06:04:38Z</time>
      </trkpt>
      <trkpt lat="45.5547" lon="6.82327">
        <ele>2344.9</ele>
        <time>2021-03-30T06:04:39Z</time>
      </trkpt>
      <trkpt lat="45.5547" lon="6.82328">
        <ele>2344.9</ele>
        <time>2021-03-30T06:04:40Z</time>
      </trkpt>
      <trkpt lat="45.55469" lon="6.82328">
        <ele>2345.6</ele>
        <time>2021-03-30T06:04:41Z</time>
      </trkpt>
      <trkpt lat="45.55469" lon="6.82329">
        <ele>2345.5</ele>
        <time>2021-03-30T06:04:42Z</time>
      </trkpt>
      <trkpt lat="45.55468" lon="6.8233">
        <ele>2345.5</ele>
        <time>2021-03-30T06:04:43Z</time>
      </trkpt>
      <trkpt lat="45.55468" lon="6.82331">
        <ele>2345.5</ele>
        <time>2021-03-30T06:04:44Z</time>
      </trkpt>
      <trkpt lat="45.55467" lon="6.82331">
        <ele>2345.5</ele>
        <time>2021-03-30T06:04:45Z</time>
      </trkpt>
      <trkpt lat="45.55467" lon="6.82332">
        <ele>2345.5</ele>
        <time>2021-03-30T06:04:46Z</time>
      </trkpt>
      <trkpt lat="45.55466" lon="6.82333">
        <ele>2346.2</ele>
        <time>2021-03-30T06:04:47Z</time>
      </trkpt>
      <trkpt lat="45.55465" lon="6.82334">
        <ele>2346.1</ele>
        <time>2021-03-30T06:04:48Z</time>
      </trkpt>
      <trkpt lat="45.55465" lon="6.82334">
        <ele>2346.1</ele>
        <time>2021-03-30T06:04:49Z</time>
      </trkpt>
      <trkpt lat="45.55465" lon="6.82335">
        <ele>2346.1</ele>
        <time>2021-03-30T06:04:50Z</time>
      </trkpt>
      <trkpt lat="45.55464" lon="6.82336">
        <ele>2346.1</ele>
        <time>2021-03-30T06:04:51Z</time>
      </trkpt>
      <trkpt lat="45.55464" lon="6.82336">
        <ele>2346.1</ele>
        <time>2021-03-30T06:04:52Z</time>
      </trkpt>
      <trkpt lat="45.55463" lon="6.82337">
        <ele>2346.8</ele>
        <time>2021-03-30T06:04:53Z</time>
      </trkpt>
      <trkpt lat="45.55463" lon="6.82338">
        <ele>2346.7</ele>
        <time>2021-03-30T06:04:54Z</time>
      </trkpt>
      <trkpt lat="45.55462" lon="6.82338">
        <ele>2346.7</ele>
        <time>2021-03-30T06:04:55Z</time>
      </trkpt>
      <trkpt lat="45.55462" lon="6.82339">
        <ele>2346.7</ele>
        <time>2021-03-30T06:04:56Z</time>
      </trkpt>
      <trkpt lat="45.55462" lon="6.82339">
        <ele>2346.7</ele>
        <time>2021-03-30T06:04:57Z</time>
      </trkpt>
      <trkpt lat="45.55461" lon="6.8234">
        <ele>2346.7</ele>
        <time>2021-03-30T06:04:58Z</time>
      </trkpt>
      <trkpt lat="45.55461" lon="6.82341">
        <ele>2346.7</ele>
        <time>2021-03-30T06:04:59Z</time>
      </trkpt>
      <trkpt lat="45.55461" lon="6.82342">
        <ele>2347.4</ele>
        <time>2021-03-30T06:05:00Z</time>
      </trkpt>
      <trkpt lat="45.5546" lon="6.82343">
        <ele>2347.4</ele>
        <time>2021-03-30T06:05:01Z</time>
      </trkpt>
      <trkpt lat="45.5546" lon="6.82343">
        <ele>2347.3</ele>
        <time>2021-03-30T06:05:02Z</time>
      </trkpt>
      <trkpt lat="45.5546" lon="6.82344">
        <ele>2347.3</ele>
        <time>2021-03-30T06:05:03Z</time>
      </trkpt>
      <trkpt lat="45.55459" lon="6.82345">
        <ele>2347.3</ele>
        <time>2021-03-30T06:05:04Z</time>
      </trkpt>
      <trkpt lat="45.55458" lon="6.82346">
        <ele>2348</ele>
        <time>2021-03-30T06:05:05Z</time>
      </trkpt>
      <trkpt lat="45.55458" lon="6.82347">
        <ele>2348</ele>
        <time>2021-03-30T06:05:06Z</time>
      </trkpt>
      <trkpt lat="45.55458" lon="6.82348">
        <ele>2348</ele>
        <time>2021-03-30T06:05:07Z</time>
      </trkpt>
      <trkpt lat="45.55457" lon="6.82348">
        <ele>2348</ele>
        <time>2021-03-30T06:05:08Z</time>
      </trkpt>
      <trkpt lat="45.55457" lon="6.8235">
        <ele>2348</ele>
        <time>2021-03-30T06:05:09Z</time>
      </trkpt>
      <trkpt lat="45.55457" lon="6.82351">
        <ele>2348.5</ele>
        <time>2021-03-30T06:05:10Z</time>
      </trkpt>
      <trkpt lat="45.55456" lon="6.82352">
        <ele>2348.5</ele>
        <time>2021-03-30T06:05:11Z</time>
      </trkpt>
      <trkpt lat="45.55456" lon="6.82353">
        <ele>2348.5</ele>
        <time>2021-03-30T06:05:12Z</time>
      </trkpt>
      <trkpt lat="45.55456" lon="6.82354">
        <ele>2348.5</ele>
        <time>2021-03-30T06:05:13Z</time>
      </trkpt>
      <trkpt lat="45.55456" lon="6.82355">
        <ele>2349.2</ele>
        <time>2021-03-30T06:05:14Z</time>
      </trkpt>
      <trkpt lat="45.55456" lon="6.82356">
        <ele>2349.2</ele>
        <time>2021-03-30T06:05:15Z</time>
      </trkpt>
      <trkpt lat="45.55456" lon="6.82357">
        <ele>2349.2</ele>
        <time>2021-03-30T06:05:16Z</time>
      </trkpt>
      <trkpt lat="45.55456" lon="6.82358">
        <ele>2349.2</ele>
        <time>2021-03-30T06:05:17Z</time>
      </trkpt>
      <trkpt lat="45.55456" lon="6.82359">
        <ele>2349.8</ele>
        <time>2021-03-30T06:05:18Z</time>
      </trkpt>
      <trkpt lat="45.55456" lon="6.82359">
        <ele>2349.8</ele>
        <time>2021-03-30T06:05:19Z</time>
      </trkpt>
      <trkpt lat="45.55455" lon="6.8236">
        <ele>2349.8</ele>
        <time>2021-03-30T06:05:20Z</time>
      </trkpt>
      <trkpt lat="45.55455" lon="6.82361">
        <ele>2349.8</ele>
        <time>2021-03-30T06:05:21Z</time>
      </trkpt>
      <trkpt lat="45.55455" lon="6.82362">
        <ele>2349.8</ele>
        <time>2021-03-30T06:05:22Z</time>
      </trkpt>
      <trkpt lat="45.55455" lon="6.82362">
        <ele>2349.8</ele>
        <time>2021-03-30T06:05:23Z</time>
      </trkpt>
      <trkpt lat="45.55455" lon="6.82363">
        <ele>2350.4</ele>
        <time>2021-03-30T06:05:24Z</time>
      </trkpt>
      <trkpt lat="45.55455" lon="6.82365">
        <ele>2350.4</ele>
        <time>2021-03-30T06:05:25Z</time>
      </trkpt>
      <trkpt lat="45.55454" lon="6.82365">
        <ele>2350.4</ele>
        <time>2021-03-30T06:05:26Z</time>
      </trkpt>
      <trkpt lat="45.55454" lon="6.82367">
        <ele>2350.3</ele>
        <time>2021-03-30T06:05:27Z</time>
      </trkpt>
      <trkpt lat="45.55454" lon="6.82367">
        <ele>2350.9</ele>
        <time>2021-03-30T06:05:28Z</time>
      </trkpt>
      <trkpt lat="45.55454" lon="6.82368">
        <ele>2350.9</ele>
        <time>2021-03-30T06:05:29Z</time>
      </trkpt>
      <trkpt lat="45.55454" lon="6.82369">
        <ele>2350.9</ele>
        <time>2021-03-30T06:05:30Z</time>
      </trkpt>
      <trkpt lat="45.55454" lon="6.8237">
        <ele>2350.9</ele>
        <time>2021-03-30T06:05:31Z</time>
      </trkpt>
      <trkpt lat="45.55454" lon="6.8237">
        <ele>2350.9</ele>
        <time>2021-03-30T06:05:32Z</time>
      </trkpt>
      <trkpt lat="45.55454" lon="6.82371">
        <ele>2351.5</ele>
        <time>2021-03-30T06:05:33Z</time>
      </trkpt>
      <trkpt lat="45.55453" lon="6.82372">
        <ele>2351.5</ele>
        <time>2021-03-30T06:05:34Z</time>
      </trkpt>
      <trkpt lat="45.55453" lon="6.82373">
        <ele>2351.5</ele>
        <time>2021-03-30T06:05:35Z</time>
      </trkpt>
      <trkpt lat="45.55453" lon="6.82374">
        <ele>2351.5</ele>
        <time>2021-03-30T06:05:36Z</time>
      </trkpt>
      <trkpt lat="45.55453" lon="6.82375">
        <ele>2351.5</ele>
        <time>2021-03-30T06:05:37Z</time>
      </trkpt>
      <trkpt lat="45.55453" lon="6.82376">
        <ele>2352.1</ele>
        <time>2021-03-30T06:05:38Z</time>
      </trkpt>
      <trkpt lat="45.55453" lon="6.82377">
        <ele>2352.1</ele>
        <time>2021-03-30T06:05:39Z</time>
      </trkpt>
      <trkpt lat="45.55453" lon="6.82378">
        <ele>2352.1</ele>
        <time>2021-03-30T06:05:40Z</time>
      </trkpt>
      <trkpt lat="45.55453" lon="6.82379">
        <ele>2352.1</ele>
        <time>2021-03-30T06:05:41Z</time>
      </trkpt>
      <trkpt lat="45.55453" lon="6.8238">
        <ele>2352.7</ele>
        <time>2021-03-30T06:05:42Z</time>
      </trkpt>
      <trkpt lat="45.55452" lon="6.82381">
        <ele>2352.7</ele>
        <time>2021-03-30T06:05:43Z</time>
      </trkpt>
      <trkpt lat="45.55451" lon="6.82382">
        <ele>2352.7</ele>
        <time>2021-03-30T06:05:44Z</time>
      </trkpt>
      <trkpt lat="45.55451" lon="6.82383">
        <ele>2352.6</ele>
        <time>2021-03-30T06:05:45Z</time>
      </trkpt>
      <trkpt lat="45.5545" lon="6.82384">
        <ele>2352.6</ele>
        <time>2021-03-30T06:05:46Z</time>
      </trkpt>
      <trkpt lat="45.55449" lon="6.82385">
        <ele>2353.2</ele>
        <time>2021-03-30T06:05:47Z</time>
      </trkpt>
      <trkpt lat="45.55449" lon="6.82386">
        <ele>2353.2</ele>
        <time>2021-03-30T06:05:48Z</time>
      </trkpt>
      <trkpt lat="45.55448" lon="6.82387">
        <ele>2353.2</ele>
        <time>2021-03-30T06:05:49Z</time>
      </trkpt>
      <trkpt lat="45.55448" lon="6.82388">
        <ele>2353.1</ele>
        <time>2021-03-30T06:05:50Z</time>
      </trkpt>
      <trkpt lat="45.55447" lon="6.82389">
        <ele>2353.6</ele>
        <time>2021-03-30T06:05:51Z</time>
      </trkpt>
      <trkpt lat="45.55446" lon="6.8239">
        <ele>2353.6</ele>
        <time>2021-03-30T06:05:52Z</time>
      </trkpt>
      <trkpt lat="45.55446" lon="6.8239">
        <ele>2353.6</ele>
        <time>2021-03-30T06:05:53Z</time>
      </trkpt>
      <trkpt lat="45.55445" lon="6.82391">
        <ele>2353.6</ele>
        <time>2021-03-30T06:05:54Z</time>
      </trkpt>
      <trkpt lat="45.55445" lon="6.82392">
        <ele>2353.6</ele>
        <time>2021-03-30T06:05:55Z</time>
      </trkpt>
      <trkpt lat="45.55445" lon="6.82393">
        <ele>2354</ele>
        <time>2021-03-30T06:05:56Z</time>
      </trkpt>
      <trkpt lat="45.55444" lon="6.82394">
        <ele>2354</ele>
        <time>2021-03-30T06:05:57Z</time>
      </trkpt>
      <trkpt lat="45.55444" lon="6.82395">
        <ele>2354</ele>
        <time>2021-03-30T06:05:58Z</time>
      </trkpt>
      <trkpt lat="45.55443" lon="6.82396">
        <ele>2354</ele>
        <time>2021-03-30T06:05:59Z</time>
      </trkpt>
      <trkpt lat="45.55443" lon="6.82397">
        <ele>2354</ele>
        <time>2021-03-30T06:06:00Z</time>
      </trkpt>
      <trkpt lat="45.55443" lon="6.82397">
        <ele>2354.4</ele>
        <time>2021-03-30T06:06:01Z</time>
      </trkpt>
      <trkpt lat="45.55443" lon="6.82398">
        <ele>2354.4</ele>
        <time>2021-03-30T06:06:02Z</time>
      </trkpt>
      <trkpt lat="45.55443" lon="6.82398">
        <ele>2354.4</ele>
        <time>2021-03-30T06:06:03Z</time>
      </trkpt>
      <trkpt lat="45.55443" lon="6.82398">
        <ele>2354.4</ele>
        <time>2021-03-30T06:06:04Z</time>
      </trkpt>
      <trkpt lat="45.55443" lon="6.82399">
        <ele>2354.4</ele>
        <time>2021-03-30T06:06:05Z</time>
      </trkpt>
      <trkpt lat="45.55443" lon="6.82399">
        <ele>2354.4</ele>
        <time>2021-03-30T06:06:06Z</time>
      </trkpt>
      <trkpt lat="45.55442" lon="6.824">
        <ele>2354.4</ele>
        <time>2021-03-30T06:06:07Z</time>
      </trkpt>
      <trkpt lat="45.55442" lon="6.82401">
        <ele>2354.3</ele>
        <time>2021-03-30T06:06:08Z</time>
      </trkpt>
      <trkpt lat="45.55441" lon="6.82402">
        <ele>2354.7</ele>
        <time>2021-03-30T06:06:09Z</time>
      </trkpt>
      <trkpt lat="45.55441" lon="6.82403">
        <ele>2354.7</ele>
        <time>2021-03-30T06:06:10Z</time>
      </trkpt>
      <trkpt lat="45.55441" lon="6.82403">
        <ele>2354.7</ele>
        <time>2021-03-30T06:06:11Z</time>
      </trkpt>
      <trkpt lat="45.5544" lon="6.82404">
        <ele>2354.7</ele>
        <time>2021-03-30T06:06:12Z</time>
      </trkpt>
      <trkpt lat="45.5544" lon="6.82405">
        <ele>2354.7</ele>
        <time>2021-03-30T06:06:13Z</time>
      </trkpt>
      <trkpt lat="45.55439" lon="6.82406">
        <ele>2355.1</ele>
        <time>2021-03-30T06:06:14Z</time>
      </trkpt>
      <trkpt lat="45.55439" lon="6.82407">
        <ele>2355</ele>
        <time>2021-03-30T06:06:15Z</time>
      </trkpt>
      <trkpt lat="45.55439" lon="6.82408">
        <ele>2355</ele>
        <time>2021-03-30T06:06:16Z</time>
      </trkpt>
      <trkpt lat="45.55438" lon="6.82409">
        <ele>2355</ele>
        <time>2021-03-30T06:06:17Z</time>
      </trkpt>
      <trkpt lat="45.55438" lon="6.8241">
        <ele>2355.4</ele>
        <time>2021-03-30T06:06:18Z</time>
      </trkpt>
      <trkpt lat="45.55438" lon="6.82411">
        <ele>2355.4</ele>
        <time>2021-03-30T06:06:19Z</time>
      </trkpt>
      <trkpt lat="45.55437" lon="6.82412">
        <ele>2355.4</ele>
        <time>2021-03-30T06:06:20Z</time>
      </trkpt>
      <trkpt lat="45.55437" lon="6.82413">
        <ele>2355.4</ele>
        <time>2021-03-30T06:06:21Z</time>
      </trkpt>
      <trkpt lat="45.55437" lon="6.82414">
        <ele>2355.8</ele>
        <time>2021-03-30T06:06:22Z</time>
      </trkpt>
      <trkpt lat="45.55436" lon="6.82415">
        <ele>2355.8</ele>
        <time>2021-03-30T06:06:23Z</time>
      </trkpt>
      <trkpt lat="45.55436" lon="6.82416">
        <ele>2355.8</ele>
        <time>2021-03-30T06:06:24Z</time>
      </trkpt>
      <trkpt lat="45.55436" lon="6.82417">
        <ele>2355.7</ele>
        <time>2021-03-30T06:06:25Z</time>
      </trkpt>
      <trkpt lat="45.55435" lon="6.82418">
        <ele>2355.7</ele>
        <time>2021-03-30T06:06:26Z</time>
      </trkpt>
      <trkpt lat="45.55435" lon="6.8242">
        <ele>2356.1</ele>
        <time>2021-03-30T06:06:27Z</time>
      </trkpt>
      <trkpt lat="45.55434" lon="6.8242">
        <ele>2356.1</ele>
        <time>2021-03-30T06:06:28Z</time>
      </trkpt>
      <trkpt lat="45.55434" lon="6.82421">
        <ele>2356.1</ele>
        <time>2021-03-30T06:06:29Z</time>
      </trkpt>
      <trkpt lat="45.55434" lon="6.82422">
        <ele>2356.1</ele>
        <time>2021-03-30T06:06:30Z</time>
      </trkpt>
      <trkpt lat="45.55433" lon="6.82423">
        <ele>2356.5</ele>
        <time>2021-03-30T06:06:31Z</time>
      </trkpt>
      <trkpt lat="45.55433" lon="6.82424">
        <ele>2356.4</ele>
        <time>2021-03-30T06:06:32Z</time>
      </trkpt>
      <trkpt lat="45.55432" lon="6.82425">
        <ele>2356.4</ele>
        <time>2021-03-30T06:06:33Z</time>
      </trkpt>
      <trkpt lat="45.55432" lon="6.82426">
        <ele>2356.4</ele>
        <time>2021-03-30T06:06:34Z</time>
      </trkpt>
      <trkpt lat="45.55432" lon="6.82427">
        <ele>2356.9</ele>
        <time>2021-03-30T06:06:35Z</time>
      </trkpt>
      <trkpt lat="45.55432" lon="6.82428">
        <ele>2356.9</ele>
        <time>2021-03-30T06:06:36Z</time>
      </trkpt>
      <trkpt lat="45.55431" lon="6.82429">
        <ele>2356.9</ele>
        <time>2021-03-30T06:06:37Z</time>
      </trkpt>
      <trkpt lat="45.55431" lon="6.8243">
        <ele>2356.9</ele>
        <time>2021-03-30T06:06:38Z</time>
      </trkpt>
      <trkpt lat="45.55431" lon="6.8243">
        <ele>2356.9</ele>
        <time>2021-03-30T06:06:39Z</time>
      </trkpt>
      <trkpt lat="45.5543" lon="6.82431">
        <ele>2357.3</ele>
        <time>2021-03-30T06:06:40Z</time>
      </trkpt>
      <trkpt lat="45.5543" lon="6.82433">
        <ele>2357.3</ele>
        <time>2021-03-30T06:06:41Z</time>
      </trkpt>
      <trkpt lat="45.5543" lon="6.82434">
        <ele>2357.3</ele>
        <time>2021-03-30T06:06:42Z</time>
      </trkpt>
      <trkpt lat="45.55429" lon="6.82435">
        <ele>2357.3</ele>
        <time>2021-03-30T06:06:43Z</time>
      </trkpt>
      <trkpt lat="45.55429" lon="6.82436">
        <ele>2357.7</ele>
        <time>2021-03-30T06:06:44Z</time>
      </trkpt>
      <trkpt lat="45.55428" lon="6.82437">
        <ele>2357.7</ele>
        <time>2021-03-30T06:06:45Z</time>
      </trkpt>
      <trkpt lat="45.55428" lon="6.82438">
        <ele>2357.7</ele>
        <time>2021-03-30T06:06:46Z</time>
      </trkpt>
      <trkpt lat="45.55427" lon="6.82439">
        <ele>2357.7</ele>
        <time>2021-03-30T06:06:47Z</time>
      </trkpt>
      <trkpt lat="45.55426" lon="6.8244">
        <ele>2358.1</ele>
        <time>2021-03-30T06:06:48Z</time>
      </trkpt>
      <trkpt lat="45.55426" lon="6.82441">
        <ele>2358.1</ele>
        <time>2021-03-30T06:06:49Z</time>
      </trkpt>
      <trkpt lat="45.55425" lon="6.82442">
        <ele>2358.1</ele>
        <time>2021-03-30T06:06:50Z</time>
      </trkpt>
      <trkpt lat="45.55425" lon="6.82443">
        <ele>2358.1</ele>
        <time>2021-03-30T06:06:51Z</time>
      </trkpt>
      <trkpt lat="45.55425" lon="6.82444">
        <ele>2358.1</ele>
        <time>2021-03-30T06:06:52Z</time>
      </trkpt>
      <trkpt lat="45.55424" lon="6.82445">
        <ele>2358.5</ele>
        <time>2021-03-30T06:06:53Z</time>
      </trkpt>
      <trkpt lat="45.55424" lon="6.82446">
        <ele>2358.5</ele>
        <time>2021-03-30T06:06:54Z</time>
      </trkpt>
      <trkpt lat="45.55424" lon="6.82447">
        <ele>2358.4</ele>
        <time>2021-03-30T06:06:55Z</time>
      </trkpt>
      <trkpt lat="45.55424" lon="6.82448">
        <ele>2358.4</ele>
        <time>2021-03-30T06:06:56Z</time>
      </trkpt>
      <trkpt lat="45.55423" lon="6.82449">
        <ele>2358.8</ele>
        <time>2021-03-30T06:06:57Z</time>
      </trkpt>
      <trkpt lat="45.55423" lon="6.8245">
        <ele>2358.8</ele>
        <time>2021-03-30T06:06:58Z</time>
      </trkpt>
      <trkpt lat="45.55423" lon="6.82451">
        <ele>2358.8</ele>
        <time>2021-03-30T06:06:59Z</time>
      </trkpt>
      <trkpt lat="45.55423" lon="6.82452">
        <ele>2358.8</ele>
        <time>2021-03-30T06:07:00Z</time>
      </trkpt>
      <trkpt lat="45.55422" lon="6.82453">
        <ele>2359.1</ele>
        <time>2021-03-30T06:07:01Z</time>
      </trkpt>
      <trkpt lat="45.55422" lon="6.82454">
        <ele>2359.1</ele>
        <time>2021-03-30T06:07:02Z</time>
      </trkpt>
      <trkpt lat="45.55422" lon="6.82455">
        <ele>2359.1</ele>
        <time>2021-03-30T06:07:03Z</time>
      </trkpt>
      <trkpt lat="45.55421" lon="6.82457">
        <ele>2359.1</ele>
        <time>2021-03-30T06:07:04Z</time>
      </trkpt>
      <trkpt lat="45.55421" lon="6.82458">
        <ele>2359.3</ele>
        <time>2021-03-30T06:07:05Z</time>
      </trkpt>
      <trkpt lat="45.55421" lon="6.82459">
        <ele>2359.2</ele>
        <time>2021-03-30T06:07:06Z</time>
      </trkpt>
      <trkpt lat="45.5542" lon="6.8246">
        <ele>2359.2</ele>
        <time>2021-03-30T06:07:07Z</time>
      </trkpt>
      <trkpt lat="45.5542" lon="6.82461">
        <ele>2359.5</ele>
        <time>2021-03-30T06:07:08Z</time>
      </trkpt>
      <trkpt lat="45.5542" lon="6.82463">
        <ele>2359.5</ele>
        <time>2021-03-30T06:07:09Z</time>
      </trkpt>
      <trkpt lat="45.5542" lon="6.82464">
        <ele>2359.5</ele>
        <time>2021-03-30T06:07:10Z</time>
      </trkpt>
      <trkpt lat="45.55419" lon="6.82465">
        <ele>2359.5</ele>
        <time>2021-03-30T06:07:11Z</time>
      </trkpt>
      <trkpt lat="45.55419" lon="6.82466">
        <ele>2359.7</ele>
        <time>2021-03-30T06:07:12Z</time>
      </trkpt>
      <trkpt lat="45.55419" lon="6.82468">
        <ele>2359.7</ele>
        <time>2021-03-30T06:07:13Z</time>
      </trkpt>
      <trkpt lat="45.55418" lon="6.82469">
        <ele>2359.7</ele>
        <time>2021-03-30T06:07:14Z</time>
      </trkpt>
      <trkpt lat="45.55418" lon="6.8247">
        <ele>2359.9</ele>
        <time>2021-03-30T06:07:15Z</time>
      </trkpt>
      <trkpt lat="45.55417" lon="6.82472">
        <ele>2359.8</ele>
        <time>2021-03-30T06:07:16Z</time>
      </trkpt>
      <trkpt lat="45.55417" lon="6.82473">
        <ele>2359.8</ele>
        <time>2021-03-30T06:07:17Z</time>
      </trkpt>
      <trkpt lat="45.55416" lon="6.82475">
        <ele>2360</ele>
        <time>2021-03-30T06:07:18Z</time>
      </trkpt>
      <trkpt lat="45.55416" lon="6.82476">
        <ele>2360</ele>
        <time>2021-03-30T06:07:19Z</time>
      </trkpt>
      <trkpt lat="45.55416" lon="6.82478">
        <ele>2360</ele>
        <time>2021-03-30T06:07:20Z</time>
      </trkpt>
      <trkpt lat="45.55415" lon="6.82479">
        <ele>2360.2</ele>
        <time>2021-03-30T06:07:21Z</time>
      </trkpt>
      <trkpt lat="45.55415" lon="6.8248">
        <ele>2360.2</ele>
        <time>2021-03-30T06:07:22Z</time>
      </trkpt>
      <trkpt lat="45.55415" lon="6.82481">
        <ele>2360.1</ele>
        <time>2021-03-30T06:07:23Z</time>
      </trkpt>
      <trkpt lat="45.55414" lon="6.82482">
        <ele>2360.1</ele>
        <time>2021-03-30T06:07:24Z</time>
      </trkpt>
      <trkpt lat="45.55414" lon="6.82483">
        <ele>2360.1</ele>
        <time>2021-03-30T06:07:25Z</time>
      </trkpt>
      <trkpt lat="45.55414" lon="6.82483">
        <ele>2360.3</ele>
        <time>2021-03-30T06:07:26Z</time>
      </trkpt>
      <trkpt lat="45.55414" lon="6.82485">
        <ele>2360.3</ele>
        <time>2021-03-30T06:07:27Z</time>
      </trkpt>
      <trkpt lat="45.55413" lon="6.82486">
        <ele>2360.3</ele>
        <time>2021-03-30T06:07:28Z</time>
      </trkpt>
      <trkpt lat="45.55413" lon="6.82487">
        <ele>2360.5</ele>
        <time>2021-03-30T06:07:29Z</time>
      </trkpt>
      <trkpt lat="45.55412" lon="6.82489">
        <ele>2360.5</ele>
        <time>2021-03-30T06:07:30Z</time>
      </trkpt>
      <trkpt lat="45.55412" lon="6.8249">
        <ele>2360.4</ele>
        <time>2021-03-30T06:07:31Z</time>
      </trkpt>
      <trkpt lat="45.55411" lon="6.82491">
        <ele>2360.4</ele>
        <time>2021-03-30T06:07:32Z</time>
      </trkpt>
      <trkpt lat="45.5541" lon="6.82492">
        <ele>2360.6</ele>
        <time>2021-03-30T06:07:33Z</time>
      </trkpt>
      <trkpt lat="45.5541" lon="6.82493">
        <ele>2360.6</ele>
        <time>2021-03-30T06:07:34Z</time>
      </trkpt>
      <trkpt lat="45.5541" lon="6.82494">
        <ele>2360.6</ele>
        <time>2021-03-30T06:07:35Z</time>
      </trkpt>
      <trkpt lat="45.5541" lon="6.82495">
        <ele>2360.6</ele>
        <time>2021-03-30T06:07:36Z</time>
      </trkpt>
      <trkpt lat="45.55409" lon="6.82496">
        <ele>2360.9</ele>
        <time>2021-03-30T06:07:37Z</time>
      </trkpt>
      <trkpt lat="45.55409" lon="6.82497">
        <ele>2360.9</ele>
        <time>2021-03-30T06:07:38Z</time>
      </trkpt>
      <trkpt lat="45.55409" lon="6.82498">
        <ele>2360.9</ele>
        <time>2021-03-30T06:07:39Z</time>
      </trkpt>
      <trkpt lat="45.55409" lon="6.82499">
        <ele>2360.8</ele>
        <time>2021-03-30T06:07:40Z</time>
      </trkpt>
      <trkpt lat="45.55408" lon="6.825">
        <ele>2360.8</ele>
        <time>2021-03-30T06:07:41Z</time>
      </trkpt>
      <trkpt lat="45.55408" lon="6.82501">
        <ele>2361</ele>
        <time>2021-03-30T06:07:42Z</time>
      </trkpt>
      <trkpt lat="45.55407" lon="6.82501">
        <ele>2361</ele>
        <time>2021-03-30T06:07:43Z</time>
      </trkpt>
      <trkpt lat="45.55407" lon="6.82502">
        <ele>2361</ele>
        <time>2021-03-30T06:07:44Z</time>
      </trkpt>
      <trkpt lat="45.55407" lon="6.82503">
        <ele>2361</ele>
        <time>2021-03-30T06:07:45Z</time>
      </trkpt>
      <trkpt lat="45.55407" lon="6.82504">
        <ele>2361</ele>
        <time>2021-03-30T06:07:46Z</time>
      </trkpt>
      <trkpt lat="45.55406" lon="6.82505">
        <ele>2361.3</ele>
        <time>2021-03-30T06:07:47Z</time>
      </trkpt>
      <trkpt lat="45.55406" lon="6.82506">
        <ele>2361.3</ele>
        <time>2021-03-30T06:07:48Z</time>
      </trkpt>
      <trkpt lat="45.55406" lon="6.82507">
        <ele>2361.3</ele>
        <time>2021-03-30T06:07:49Z</time>
      </trkpt>
      <trkpt lat="45.55405" lon="6.82508">
        <ele>2361.2</ele>
        <time>2021-03-30T06:07:50Z</time>
      </trkpt>
      <trkpt lat="45.55405" lon="6.82509">
        <ele>2361.5</ele>
        <time>2021-03-30T06:07:51Z</time>
      </trkpt>
      <trkpt lat="45.55405" lon="6.8251">
        <ele>2361.5</ele>
        <time>2021-03-30T06:07:52Z</time>
      </trkpt>
      <trkpt lat="45.55404" lon="6.82511">
        <ele>2361.5</ele>
        <time>2021-03-30T06:07:53Z</time>
      </trkpt>
      <trkpt lat="45.55404" lon="6.82513">
        <ele>2361.5</ele>
        <time>2021-03-30T06:07:54Z</time>
      </trkpt>
      <trkpt lat="45.55404" lon="6.82514">
        <ele>2361.9</ele>
        <time>2021-03-30T06:07:55Z</time>
      </trkpt>
      <trkpt lat="45.55403" lon="6.82515">
        <ele>2361.9</ele>
        <time>2021-03-30T06:07:56Z</time>
      </trkpt>
      <trkpt lat="45.55403" lon="6.82516">
        <ele>2361.9</ele>
        <time>2021-03-30T06:07:57Z</time>
      </trkpt>
      <trkpt lat="45.55403" lon="6.82517">
        <ele>2361.8</ele>
        <time>2021-03-30T06:07:58Z</time>
      </trkpt>
      <trkpt lat="45.55402" lon="6.82518">
        <ele>2362.2</ele>
        <time>2021-03-30T06:07:59Z</time>
      </trkpt>
      <trkpt lat="45.55401" lon="6.82519">
        <ele>2362.2</ele>
        <time>2021-03-30T06:08:00Z</time>
      </trkpt>
      <trkpt lat="45.55401" lon="6.8252">
        <ele>2362.2</ele>
        <time>2021-03-30T06:08:01Z</time>
      </trkpt>
      <trkpt lat="45.55401" lon="6.8252">
        <ele>2362.2</ele>
        <time>2021-03-30T06:08:02Z</time>
      </trkpt>
      <trkpt lat="45.55401" lon="6.82521">
        <ele>2362.2</ele>
        <time>2021-03-30T06:08:03Z</time>
      </trkpt>
      <trkpt lat="45.55401" lon="6.82522">
        <ele>2362.6</ele>
        <time>2021-03-30T06:08:04Z</time>
      </trkpt>
      <trkpt lat="45.55401" lon="6.82524">
        <ele>2362.6</ele>
        <time>2021-03-30T06:08:05Z</time>
      </trkpt>
      <trkpt lat="45.55401" lon="6.82525">
        <ele>2362.6</ele>
        <time>2021-03-30T06:08:06Z</time>
      </trkpt>
      <trkpt lat="45.554" lon="6.82526">
        <ele>2363</ele>
        <time>2021-03-30T06:08:07Z</time>
      </trkpt>
      <trkpt lat="45.554" lon="6.82527">
        <ele>2363</ele>
        <time>2021-03-30T06:08:08Z</time>
      </trkpt>
      <trkpt lat="45.554" lon="6.82528">
        <ele>2363</ele>
        <time>2021-03-30T06:08:09Z</time>
      </trkpt>
      <trkpt lat="45.55399" lon="6.82529">
        <ele>2363</ele>
        <time>2021-03-30T06:08:10Z</time>
      </trkpt>
      <trkpt lat="45.55399" lon="6.8253">
        <ele>2363</ele>
        <time>2021-03-30T06:08:11Z</time>
      </trkpt>
      <trkpt lat="45.55398" lon="6.82531">
        <ele>2363.4</ele>
        <time>2021-03-30T06:08:12Z</time>
      </trkpt>
      <trkpt lat="45.55398" lon="6.82532">
        <ele>2363.4</ele>
        <time>2021-03-30T06:08:13Z</time>
      </trkpt>
      <trkpt lat="45.55397" lon="6.82532">
        <ele>2363.4</ele>
        <time>2021-03-30T06:08:14Z</time>
      </trkpt>
      <trkpt lat="45.55397" lon="6.82534">
        <ele>2363.4</ele>
        <time>2021-03-30T06:08:15Z</time>
      </trkpt>
      <trkpt lat="45.55397" lon="6.82535">
        <ele>2363.8</ele>
        <time>2021-03-30T06:08:16Z</time>
      </trkpt>
      <trkpt lat="45.55396" lon="6.82536">
        <ele>2363.8</ele>
        <time>2021-03-30T06:08:17Z</time>
      </trkpt>
      <trkpt lat="45.55396" lon="6.82537">
        <ele>2363.8</ele>
        <time>2021-03-30T06:08:18Z</time>
      </trkpt>
      <trkpt lat="45.55395" lon="6.82538">
        <ele>2363.8</ele>
        <time>2021-03-30T06:08:19Z</time>
      </trkpt>
      <trkpt lat="45.55395" lon="6.82539">
        <ele>2364.3</ele>
        <time>2021-03-30T06:08:20Z</time>
      </trkpt>
      <trkpt lat="45.55394" lon="6.82539">
        <ele>2364.3</ele>
        <time>2021-03-30T06:08:21Z</time>
      </trkpt>
      <trkpt lat="45.55394" lon="6.8254">
        <ele>2364.3</ele>
        <time>2021-03-30T06:08:22Z</time>
      </trkpt>
      <trkpt lat="45.55394" lon="6.82541">
        <ele>2364.3</ele>
        <time>2021-03-30T06:08:23Z</time>
      </trkpt>
      <trkpt lat="45.55393" lon="6.82542">
        <ele>2364.3</ele>
        <time>2021-03-30T06:08:24Z</time>
      </trkpt>
      <trkpt lat="45.55393" lon="6.82543">
        <ele>2364.7</ele>
        <time>2021-03-30T06:08:25Z</time>
      </trkpt>
      <trkpt lat="45.55393" lon="6.82544">
        <ele>2364.7</ele>
        <time>2021-03-30T06:08:26Z</time>
      </trkpt>
      <trkpt lat="45.55393" lon="6.82545">
        <ele>2364.7</ele>
        <time>2021-03-30T06:08:27Z</time>
      </trkpt>
      <trkpt lat="45.55393" lon="6.82546">
        <ele>2364.7</ele>
        <time>2021-03-30T06:08:28Z</time>
      </trkpt>
      <trkpt lat="45.55392" lon="6.82547">
        <ele>2364.7</ele>
        <time>2021-03-30T06:08:29Z</time>
      </trkpt>
      <trkpt lat="45.55392" lon="6.82548">
        <ele>2365.1</ele>
        <time>2021-03-30T06:08:30Z</time>
      </trkpt>
      <trkpt lat="45.55391" lon="6.82548">
        <ele>2365.1</ele>
        <time>2021-03-30T06:08:31Z</time>
      </trkpt>
      <trkpt lat="45.55391" lon="6.82549">
        <ele>2365.1</ele>
        <time>2021-03-30T06:08:32Z</time>
      </trkpt>
      <trkpt lat="45.5539" lon="6.8255">
        <ele>2365.1</ele>
        <time>2021-03-30T06:08:33Z</time>
      </trkpt>
      <trkpt lat="45.55389" lon="6.82551">
        <ele>2365.1</ele>
        <time>2021-03-30T06:08:34Z</time>
      </trkpt>
      <trkpt lat="45.55389" lon="6.82552">
        <ele>2365.6</ele>
        <time>2021-03-30T06:08:35Z</time>
      </trkpt>
      <trkpt lat="45.55389" lon="6.82553">
        <ele>2365.6</ele>
        <time>2021-03-30T06:08:36Z</time>
      </trkpt>
      <trkpt lat="45.55388" lon="6.82553">
        <ele>2365.6</ele>
        <time>2021-03-30T06:08:37Z</time>
      </trkpt>
      <trkpt lat="45.55388" lon="6.82554">
        <ele>2365.6</ele>
        <time>2021-03-30T06:08:38Z</time>
      </trkpt>
      <trkpt lat="45.55387" lon="6.82555">
        <ele>2365.5</ele>
        <time>2021-03-30T06:08:39Z</time>
      </trkpt>
      <trkpt lat="45.55387" lon="6.82556">
        <ele>2366</ele>
        <time>2021-03-30T06:08:40Z</time>
      </trkpt>
      <trkpt lat="45.55386" lon="6.82557">
        <ele>2366</ele>
        <time>2021-03-30T06:08:41Z</time>
      </trkpt>
      <trkpt lat="45.55386" lon="6.82558">
        <ele>2366</ele>
        <time>2021-03-30T06:08:42Z</time>
      </trkpt>
      <trkpt lat="45.55386" lon="6.82559">
        <ele>2366</ele>
        <time>2021-03-30T06:08:43Z</time>
      </trkpt>
      <trkpt lat="45.55385" lon="6.8256">
        <ele>2366.4</ele>
        <time>2021-03-30T06:08:44Z</time>
      </trkpt>
      <trkpt lat="45.55385" lon="6.82561">
        <ele>2366.4</ele>
        <time>2021-03-30T06:08:45Z</time>
      </trkpt>
      <trkpt lat="45.55385" lon="6.82562">
        <ele>2366.4</ele>
        <time>2021-03-30T06:08:46Z</time>
      </trkpt>
      <trkpt lat="45.55384" lon="6.82563">
        <ele>2366.4</ele>
        <time>2021-03-30T06:08:47Z</time>
      </trkpt>
      <trkpt lat="45.55384" lon="6.82564">
        <ele>2366.4</ele>
        <time>2021-03-30T06:08:48Z</time>
      </trkpt>
      <trkpt lat="45.55384" lon="6.82564">
        <ele>2366.9</ele>
        <time>2021-03-30T06:08:49Z</time>
      </trkpt>
      <trkpt lat="45.55384" lon="6.82565">
        <ele>2366.9</ele>
        <time>2021-03-30T06:08:50Z</time>
      </trkpt>
      <trkpt lat="45.55383" lon="6.82566">
        <ele>2366.9</ele>
        <time>2021-03-30T06:08:51Z</time>
      </trkpt>
      <trkpt lat="45.55383" lon="6.82567">
        <ele>2366.9</ele>
        <time>2021-03-30T06:08:52Z</time>
      </trkpt>
      <trkpt lat="45.55383" lon="6.82568">
        <ele>2366.9</ele>
        <time>2021-03-30T06:08:53Z</time>
      </trkpt>
      <trkpt lat="45.55383" lon="6.82568">
        <ele>2366.9</ele>
        <time>2021-03-30T06:08:54Z</time>
      </trkpt>
      <trkpt lat="45.55382" lon="6.82569">
        <ele>2367.3</ele>
        <time>2021-03-30T06:08:55Z</time>
      </trkpt>
      <trkpt lat="45.55382" lon="6.8257">
        <ele>2367.3</ele>
        <time>2021-03-30T06:08:56Z</time>
      </trkpt>
      <trkpt lat="45.55382" lon="6.82571">
        <ele>2367.3</ele>
        <time>2021-03-30T06:08:57Z</time>
      </trkpt>
      <trkpt lat="45.55381" lon="6.82572">
        <ele>2367.3</ele>
        <time>2021-03-30T06:08:58Z</time>
      </trkpt>
      <trkpt lat="45.55381" lon="6.82573">
        <ele>2367.3</ele>
        <time>2021-03-30T06:08:59Z</time>
      </trkpt>
      <trkpt lat="45.5538" lon="6.82574">
        <ele>2367.7</ele>
        <time>2021-03-30T06:09:00Z</time>
      </trkpt>
      <trkpt lat="45.5538" lon="6.82574">
        <ele>2367.7</ele>
        <time>2021-03-30T06:09:01Z</time>
      </trkpt>
      <trkpt lat="45.55379" lon="6.82575">
        <ele>2367.7</ele>
        <time>2021-03-30T06:09:02Z</time>
      </trkpt>
      <trkpt lat="45.55379" lon="6.82576">
        <ele>2367.7</ele>
        <time>2021-03-30T06:09:03Z</time>
      </trkpt>
      <trkpt lat="45.55379" lon="6.82577">
        <ele>2368</ele>
        <time>2021-03-30T06:09:04Z</time>
      </trkpt>
      <trkpt lat="45.55378" lon="6.82578">
        <ele>2368.1</ele>
        <time>2021-03-30T06:09:05Z</time>
      </trkpt>
      <trkpt lat="45.55378" lon="6.82579">
        <ele>2368.1</ele>
        <time>2021-03-30T06:09:06Z</time>
      </trkpt>
      <trkpt lat="45.55378" lon="6.8258">
        <ele>2368.1</ele>
        <time>2021-03-30T06:09:07Z</time>
      </trkpt>
      <trkpt lat="45.55377" lon="6.82581">
        <ele>2368.1</ele>
        <time>2021-03-30T06:09:08Z</time>
      </trkpt>
      <trkpt lat="45.55377" lon="6.82582">
        <ele>2368.4</ele>
        <time>2021-03-30T06:09:09Z</time>
      </trkpt>
      <trkpt lat="45.55377" lon="6.82583">
        <ele>2368.4</ele>
        <time>2021-03-30T06:09:10Z</time>
      </trkpt>
      <trkpt lat="45.55376" lon="6.82584">
        <ele>2368.4</ele>
        <time>2021-03-30T06:09:11Z</time>
      </trkpt>
      <trkpt lat="45.55376" lon="6.82585">
        <ele>2368.4</ele>
        <time>2021-03-30T06:09:12Z</time>
      </trkpt>
      <trkpt lat="45.55376" lon="6.82586">
        <ele>2368.9</ele>
        <time>2021-03-30T06:09:13Z</time>
      </trkpt>
      <trkpt lat="45.55375" lon="6.82587">
        <ele>2368.9</ele>
        <time>2021-03-30T06:09:14Z</time>
      </trkpt>
      <trkpt lat="45.55375" lon="6.82588">
        <ele>2368.9</ele>
        <time>2021-03-30T06:09:15Z</time>
      </trkpt>
      <trkpt lat="45.55375" lon="6.8259">
        <ele>2368.9</ele>
        <time>2021-03-30T06:09:16Z</time>
      </trkpt>
      <trkpt lat="45.55374" lon="6.82591">
        <ele>2369.3</ele>
        <time>2021-03-30T06:09:17Z</time>
      </trkpt>
      <trkpt lat="45.55374" lon="6.82592">
        <ele>2369.3</ele>
        <time>2021-03-30T06:09:18Z</time>
      </trkpt>
      <trkpt lat="45.55374" lon="6.82593">
        <ele>2369.3</ele>
        <time>2021-03-30T06:09:19Z</time>
      </trkpt>
      <trkpt lat="45.55374" lon="6.82594">
        <ele>2369.3</ele>
        <time>2021-03-30T06:09:20Z</time>
      </trkpt>
      <trkpt lat="45.55374" lon="6.82595">
        <ele>2369.7</ele>
        <time>2021-03-30T06:09:21Z</time>
      </trkpt>
      <trkpt lat="45.55374" lon="6.82596">
        <ele>2369.7</ele>
        <time>2021-03-30T06:09:22Z</time>
      </trkpt>
      <trkpt lat="45.55373" lon="6.82596">
        <ele>2369.7</ele>
        <time>2021-03-30T06:09:23Z</time>
      </trkpt>
      <trkpt lat="45.55373" lon="6.82597">
        <ele>2369.8</ele>
        <time>2021-03-30T06:09:24Z</time>
      </trkpt>
      <trkpt lat="45.55372" lon="6.82598">
        <ele>2369.8</ele>
        <time>2021-03-30T06:09:25Z</time>
      </trkpt>
      <trkpt lat="45.55372" lon="6.82599">
        <ele>2370.3</ele>
        <time>2021-03-30T06:09:26Z</time>
      </trkpt>
      <trkpt lat="45.55371" lon="6.826">
        <ele>2370.3</ele>
        <time>2021-03-30T06:09:27Z</time>
      </trkpt>
      <trkpt lat="45.55371" lon="6.82601">
        <ele>2370.3</ele>
        <time>2021-03-30T06:09:28Z</time>
      </trkpt>
      <trkpt lat="45.5537" lon="6.82602">
        <ele>2370.3</ele>
        <time>2021-03-30T06:09:29Z</time>
      </trkpt>
      <trkpt lat="45.5537" lon="6.82603">
        <ele>2370.4</ele>
        <time>2021-03-30T06:09:30Z</time>
      </trkpt>
      <trkpt lat="45.55369" lon="6.82603">
        <ele>2370.9</ele>
        <time>2021-03-30T06:09:31Z</time>
      </trkpt>
      <trkpt lat="45.55369" lon="6.82604">
        <ele>2370.9</ele>
        <time>2021-03-30T06:09:32Z</time>
      </trkpt>
      <trkpt lat="45.55368" lon="6.82605">
        <ele>2370.9</ele>
        <time>2021-03-30T06:09:33Z</time>
      </trkpt>
      <trkpt lat="45.55368" lon="6.82606">
        <ele>2370.9</ele>
        <time>2021-03-30T06:09:34Z</time>
      </trkpt>
      <trkpt lat="45.55367" lon="6.82606">
        <ele>2370.9</ele>
        <time>2021-03-30T06:09:35Z</time>
      </trkpt>
      <trkpt lat="45.55367" lon="6.82607">
        <ele>2370.9</ele>
        <time>2021-03-30T06:09:36Z</time>
      </trkpt>
      <trkpt lat="45.55367" lon="6.82608">
        <ele>2371.5</ele>
        <time>2021-03-30T06:09:37Z</time>
      </trkpt>
      <trkpt lat="45.55367" lon="6.82609">
        <ele>2371.5</ele>
        <time>2021-03-30T06:09:38Z</time>
      </trkpt>
      <trkpt lat="45.55367" lon="6.8261">
        <ele>2371.5</ele>
        <time>2021-03-30T06:09:39Z</time>
      </trkpt>
      <trkpt lat="45.55367" lon="6.8261">
        <ele>2371.5</ele>
        <time>2021-03-30T06:09:40Z</time>
      </trkpt>
      <trkpt lat="45.55367" lon="6.82611">
        <ele>2371.5</ele>
        <time>2021-03-30T06:09:41Z</time>
      </trkpt>
      <trkpt lat="45.55367" lon="6.82612">
        <ele>2372</ele>
        <time>2021-03-30T06:09:42Z</time>
      </trkpt>
      <trkpt lat="45.55367" lon="6.82613">
        <ele>2372.2</ele>
        <time>2021-03-30T06:09:43Z</time>
      </trkpt>
      <trkpt lat="45.55366" lon="6.82614">
        <ele>2372.2</ele>
        <time>2021-03-30T06:09:44Z</time>
      </trkpt>
      <trkpt lat="45.55366" lon="6.82614">
        <ele>2372.2</ele>
        <time>2021-03-30T06:09:45Z</time>
      </trkpt>
      <trkpt lat="45.55366" lon="6.82615">
        <ele>2372.2</ele>
        <time>2021-03-30T06:09:46Z</time>
      </trkpt>
      <trkpt lat="45.55365" lon="6.82616">
        <ele>2372.8</ele>
        <time>2021-03-30T06:09:47Z</time>
      </trkpt>
      <trkpt lat="45.55365" lon="6.82617">
        <ele>2372.8</ele>
        <time>2021-03-30T06:09:48Z</time>
      </trkpt>
      <trkpt lat="45.55365" lon="6.82617">
        <ele>2372.8</ele>
        <time>2021-03-30T06:09:49Z</time>
      </trkpt>
      <trkpt lat="45.55364" lon="6.82618">
        <ele>2372.8</ele>
        <time>2021-03-30T06:09:50Z</time>
      </trkpt>
      <trkpt lat="45.55364" lon="6.82619">
        <ele>2372.8</ele>
        <time>2021-03-30T06:09:51Z</time>
      </trkpt>
      <trkpt lat="45.55364" lon="6.8262">
        <ele>2373</ele>
        <time>2021-03-30T06:09:52Z</time>
      </trkpt>
      <trkpt lat="45.55363" lon="6.8262">
        <ele>2373.6</ele>
        <time>2021-03-30T06:09:53Z</time>
      </trkpt>
      <trkpt lat="45.55363" lon="6.82621">
        <ele>2373.6</ele>
        <time>2021-03-30T06:09:54Z</time>
      </trkpt>
      <trkpt lat="45.55363" lon="6.82621">
        <ele>2373.6</ele>
        <time>2021-03-30T06:09:55Z</time>
      </trkpt>
      <trkpt lat="45.55363" lon="6.82622">
        <ele>2373.6</ele>
        <time>2021-03-30T06:09:56Z</time>
      </trkpt>
      <trkpt lat="45.55363" lon="6.82623">
        <ele>2373.6</ele>
        <time>2021-03-30T06:09:57Z</time>
      </trkpt>
      <trkpt lat="45.55363" lon="6.82624">
        <ele>2373.6</ele>
        <time>2021-03-30T06:09:58Z</time>
      </trkpt>
      <trkpt lat="45.55362" lon="6.82624">
        <ele>2374.1</ele>
        <time>2021-03-30T06:09:59Z</time>
      </trkpt>
      <trkpt lat="45.55362" lon="6.82625">
        <ele>2374.1</ele>
        <time>2021-03-30T06:10:00Z</time>
      </trkpt>
      <trkpt lat="45.55362" lon="6.82626">
        <ele>2374.1</ele>
        <time>2021-03-30T06:10:01Z</time>
      </trkpt>
      <trkpt lat="45.55361" lon="6.82627">
        <ele>2374.1</ele>
        <time>2021-03-30T06:10:02Z</time>
      </trkpt>
      <trkpt lat="45.55361" lon="6.82627">
        <ele>2374.3</ele>
        <time>2021-03-30T06:10:03Z</time>
      </trkpt>
      <trkpt lat="45.5536" lon="6.82628">
        <ele>2374.3</ele>
        <time>2021-03-30T06:10:04Z</time>
      </trkpt>
      <trkpt lat="45.5536" lon="6.82629">
        <ele>2374.8</ele>
        <time>2021-03-30T06:10:05Z</time>
      </trkpt>
      <trkpt lat="45.5536" lon="6.8263">
        <ele>2374.8</ele>
        <time>2021-03-30T06:10:06Z</time>
      </trkpt>
      <trkpt lat="45.55359" lon="6.8263">
        <ele>2374.8</ele>
        <time>2021-03-30T06:10:07Z</time>
      </trkpt>
      <trkpt lat="45.55359" lon="6.82631">
        <ele>2374.8</ele>
        <time>2021-03-30T06:10:08Z</time>
      </trkpt>
      <trkpt lat="45.55359" lon="6.82631">
        <ele>2374.8</ele>
        <time>2021-03-30T06:10:09Z</time>
      </trkpt>
      <trkpt lat="45.55359" lon="6.82632">
        <ele>2374.8</ele>
        <time>2021-03-30T06:10:10Z</time>
      </trkpt>
      <trkpt lat="45.55359" lon="6.82632">
        <ele>2374.8</ele>
        <time>2021-03-30T06:10:11Z</time>
      </trkpt>
      <trkpt lat="45.55359" lon="6.82633">
        <ele>2374.8</ele>
        <time>2021-03-30T06:10:12Z</time>
      </trkpt>
      <trkpt lat="45.55358" lon="6.82633">
        <ele>2375.4</ele>
        <time>2021-03-30T06:10:13Z</time>
      </trkpt>
      <trkpt lat="45.55358" lon="6.82634">
        <ele>2375.4</ele>
        <time>2021-03-30T06:10:14Z</time>
      </trkpt>
      <trkpt lat="45.55358" lon="6.82635">
        <ele>2375.4</ele>
        <time>2021-03-30T06:10:15Z</time>
      </trkpt>
      <trkpt lat="45.55357" lon="6.82636">
        <ele>2375.6</ele>
        <time>2021-03-30T06:10:16Z</time>
      </trkpt>
      <trkpt lat="45.55357" lon="6.82636">
        <ele>2375.6</ele>
        <time>2021-03-30T06:10:17Z</time>
      </trkpt>
      <trkpt lat="45.55357" lon="6.82637">
        <ele>2375.6</ele>
        <time>2021-03-30T06:10:18Z</time>
      </trkpt>
      <trkpt lat="45.55356" lon="6.82638">
        <ele>2376.2</ele>
        <time>2021-03-30T06:10:19Z</time>
      </trkpt>
      <trkpt lat="45.55356" lon="6.82638">
        <ele>2376.2</ele>
        <time>2021-03-30T06:10:20Z</time>
      </trkpt>
      <trkpt lat="45.55356" lon="6.82639">
        <ele>2376.2</ele>
        <time>2021-03-30T06:10:21Z</time>
      </trkpt>
      <trkpt lat="45.55356" lon="6.8264">
        <ele>2376.2</ele>
        <time>2021-03-30T06:10:22Z</time>
      </trkpt>
      <trkpt lat="45.55355" lon="6.82641">
        <ele>2376.2</ele>
        <time>2021-03-30T06:10:23Z</time>
      </trkpt>
      <trkpt lat="45.55355" lon="6.82642">
        <ele>2376.2</ele>
        <time>2021-03-30T06:10:24Z</time>
      </trkpt>
      <trkpt lat="45.55355" lon="6.82643">
        <ele>2376.8</ele>
        <time>2021-03-30T06:10:25Z</time>
      </trkpt>
      <trkpt lat="45.55354" lon="6.82643">
        <ele>2377</ele>
        <time>2021-03-30T06:10:26Z</time>
      </trkpt>
      <trkpt lat="45.55354" lon="6.82644">
        <ele>2377</ele>
        <time>2021-03-30T06:10:27Z</time>
      </trkpt>
      <trkpt lat="45.55354" lon="6.82645">
        <ele>2377</ele>
        <time>2021-03-30T06:10:28Z</time>
      </trkpt>
      <trkpt lat="45.55353" lon="6.82646">
        <ele>2377</ele>
        <time>2021-03-30T06:10:29Z</time>
      </trkpt>
      <trkpt lat="45.55353" lon="6.82647">
        <ele>2377.6</ele>
        <time>2021-03-30T06:10:30Z</time>
      </trkpt>
      <trkpt lat="45.55353" lon="6.82647">
        <ele>2377.6</ele>
        <time>2021-03-30T06:10:31Z</time>
      </trkpt>
      <trkpt lat="45.55353" lon="6.82648">
        <ele>2377.6</ele>
        <time>2021-03-30T06:10:32Z</time>
      </trkpt>
      <trkpt lat="45.55352" lon="6.82649">
        <ele>2377.6</ele>
        <time>2021-03-30T06:10:33Z</time>
      </trkpt>
      <trkpt lat="45.55352" lon="6.8265">
        <ele>2378.3</ele>
        <time>2021-03-30T06:10:34Z</time>
      </trkpt>
      <trkpt lat="45.55352" lon="6.82651">
        <ele>2378.3</ele>
        <time>2021-03-30T06:10:35Z</time>
      </trkpt>
      <trkpt lat="45.55352" lon="6.82652">
        <ele>2378.3</ele>
        <time>2021-03-30T06:10:36Z</time>
      </trkpt>
      <trkpt lat="45.55352" lon="6.82652">
        <ele>2378.5</ele>
        <time>2021-03-30T06:10:37Z</time>
      </trkpt>
      <trkpt lat="45.55351" lon="6.82653">
        <ele>2378.5</ele>
        <time>2021-03-30T06:10:38Z</time>
      </trkpt>
      <trkpt lat="45.55351" lon="6.82654">
        <ele>2378.5</ele>
        <time>2021-03-30T06:10:39Z</time>
      </trkpt>
      <trkpt lat="45.55351" lon="6.82655">
        <ele>2379.2</ele>
        <time>2021-03-30T06:10:40Z</time>
      </trkpt>
      <trkpt lat="45.5535" lon="6.82655">
        <ele>2379.2</ele>
        <time>2021-03-30T06:10:41Z</time>
      </trkpt>
      <trkpt lat="45.5535" lon="6.82656">
        <ele>2379.2</ele>
        <time>2021-03-30T06:10:42Z</time>
      </trkpt>
      <trkpt lat="45.5535" lon="6.82656">
        <ele>2379.2</ele>
        <time>2021-03-30T06:10:43Z</time>
      </trkpt>
      <trkpt lat="45.55349" lon="6.82657">
        <ele>2379.2</ele>
        <time>2021-03-30T06:10:44Z</time>
      </trkpt>
      <trkpt lat="45.55349" lon="6.82658">
        <ele>2379.2</ele>
        <time>2021-03-30T06:10:45Z</time>
      </trkpt>
      <trkpt lat="45.55349" lon="6.82658">
        <ele>2379.4</ele>
        <time>2021-03-30T06:10:46Z</time>
      </trkpt>
      <trkpt lat="45.55348" lon="6.82659">
        <ele>2380.2</ele>
        <time>2021-03-30T06:10:47Z</time>
      </trkpt>
      <trkpt lat="45.55348" lon="6.8266">
        <ele>2380.2</ele>
        <time>2021-03-30T06:10:48Z</time>
      </trkpt>
      <trkpt lat="45.55347" lon="6.82661">
        <ele>2380.2</ele>
        <time>2021-03-30T06:10:49Z</time>
      </trkpt>
      <trkpt lat="45.55347" lon="6.82661">
        <ele>2380.2</ele>
        <time>2021-03-30T06:10:50Z</time>
      </trkpt>
      <trkpt lat="45.55346" lon="6.82662">
        <ele>2380.2</ele>
        <time>2021-03-30T06:10:51Z</time>
      </trkpt>
      <trkpt lat="45.55346" lon="6.82663">
        <ele>2380.2</ele>
        <time>2021-03-30T06:10:52Z</time>
      </trkpt>
      <trkpt lat="45.55346" lon="6.82663">
        <ele>2381.2</ele>
        <time>2021-03-30T06:10:53Z</time>
      </trkpt>
      <trkpt lat="45.55345" lon="6.82664">
        <ele>2381.2</ele>
        <time>2021-03-30T06:10:54Z</time>
      </trkpt>
      <trkpt lat="45.55345" lon="6.82664">
        <ele>2381.2</ele>
        <time>2021-03-30T06:10:55Z</time>
      </trkpt>
      <trkpt lat="45.55344" lon="6.82665">
        <ele>2381.2</ele>
        <time>2021-03-30T06:10:56Z</time>
      </trkpt>
      <trkpt lat="45.55344" lon="6.82666">
        <ele>2381.2</ele>
        <time>2021-03-30T06:10:57Z</time>
      </trkpt>
      <trkpt lat="45.55343" lon="6.82666">
        <ele>2381.2</ele>
        <time>2021-03-30T06:10:58Z</time>
      </trkpt>
      <trkpt lat="45.55343" lon="6.82667">
        <ele>2381.2</ele>
        <time>2021-03-30T06:10:59Z</time>
      </trkpt>
      <trkpt lat="45.55342" lon="6.82668">
        <ele>2382.1</ele>
        <time>2021-03-30T06:11:00Z</time>
      </trkpt>
      <trkpt lat="45.55342" lon="6.82668">
        <ele>2382.1</ele>
        <time>2021-03-30T06:11:01Z</time>
      </trkpt>
      <trkpt lat="45.55341" lon="6.82669">
        <ele>2382.1</ele>
        <time>2021-03-30T06:11:02Z</time>
      </trkpt>
      <trkpt lat="45.55341" lon="6.8267">
        <ele>2382.1</ele>
        <time>2021-03-30T06:11:03Z</time>
      </trkpt>
      <trkpt lat="45.5534" lon="6.82671">
        <ele>2382.1</ele>
        <time>2021-03-30T06:11:04Z</time>
      </trkpt>
      <trkpt lat="45.5534" lon="6.82672">
        <ele>2382.1</ele>
        <time>2021-03-30T06:11:05Z</time>
      </trkpt>
      <trkpt lat="45.5534" lon="6.82672">
        <ele>2383.1</ele>
        <time>2021-03-30T06:11:06Z</time>
      </trkpt>
      <trkpt lat="45.55339" lon="6.82673">
        <ele>2383.1</ele>
        <time>2021-03-30T06:11:07Z</time>
      </trkpt>
      <trkpt lat="45.55339" lon="6.82674">
        <ele>2383.1</ele>
        <time>2021-03-30T06:11:08Z</time>
      </trkpt>
      <trkpt lat="45.55339" lon="6.82674">
        <ele>2383.1</ele>
        <time>2021-03-30T06:11:09Z</time>
      </trkpt>
      <trkpt lat="45.55338" lon="6.82675">
        <ele>2383.1</ele>
        <time>2021-03-30T06:11:10Z</time>
      </trkpt>
      <trkpt lat="45.55338" lon="6.82676">
        <ele>2383.1</ele>
        <time>2021-03-30T06:11:11Z</time>
      </trkpt>
      <trkpt lat="45.55338" lon="6.82676">
        <ele>2383.8</ele>
        <time>2021-03-30T06:11:12Z</time>
      </trkpt>
      <trkpt lat="45.55337" lon="6.82677">
        <ele>2383.8</ele>
        <time>2021-03-30T06:11:13Z</time>
      </trkpt>
      <trkpt lat="45.55337" lon="6.82678">
        <ele>2383.8</ele>
        <time>2021-03-30T06:11:14Z</time>
      </trkpt>
      <trkpt lat="45.55337" lon="6.82678">
        <ele>2383.8</ele>
        <time>2021-03-30T06:11:15Z</time>
      </trkpt>
      <trkpt lat="45.55336" lon="6.82679">
        <ele>2384.1</ele>
        <time>2021-03-30T06:11:16Z</time>
      </trkpt>
      <trkpt lat="45.55336" lon="6.8268">
        <ele>2384.1</ele>
        <time>2021-03-30T06:11:17Z</time>
      </trkpt>
      <trkpt lat="45.55335" lon="6.8268">
        <ele>2384.7</ele>
        <time>2021-03-30T06:11:18Z</time>
      </trkpt>
      <trkpt lat="45.55335" lon="6.82681">
        <ele>2384.7</ele>
        <time>2021-03-30T06:11:19Z</time>
      </trkpt>
      <trkpt lat="45.55335" lon="6.82682">
        <ele>2384.7</ele>
        <time>2021-03-30T06:11:20Z</time>
      </trkpt>
      <trkpt lat="45.55335" lon="6.82682">
        <ele>2384.7</ele>
        <time>2021-03-30T06:11:21Z</time>
      </trkpt>
      <trkpt lat="45.55334" lon="6.82683">
        <ele>2384.7</ele>
        <time>2021-03-30T06:11:22Z</time>
      </trkpt>
      <trkpt lat="45.55334" lon="6.82684">
        <ele>2384.7</ele>
        <time>2021-03-30T06:11:23Z</time>
      </trkpt>
      <trkpt lat="45.55334" lon="6.82684">
        <ele>2384.7</ele>
        <time>2021-03-30T06:11:24Z</time>
      </trkpt>
      <trkpt lat="45.55334" lon="6.82685">
        <ele>2385.7</ele>
        <time>2021-03-30T06:11:25Z</time>
      </trkpt>
      <trkpt lat="45.55333" lon="6.82686">
        <ele>2385.7</ele>
        <time>2021-03-30T06:11:26Z</time>
      </trkpt>
      <trkpt lat="45.55333" lon="6.82686">
        <ele>2385.7</ele>
        <time>2021-03-30T06:11:27Z</time>
      </trkpt>
      <trkpt lat="45.55333" lon="6.82687">
        <ele>2385.7</ele>
        <time>2021-03-30T06:11:28Z</time>
      </trkpt>
      <trkpt lat="45.55333" lon="6.82688">
        <ele>2385.7</ele>
        <time>2021-03-30T06:11:29Z</time>
      </trkpt>
      <trkpt lat="45.55333" lon="6.82689">
        <ele>2385.7</ele>
        <time>2021-03-30T06:11:30Z</time>
      </trkpt>
      <trkpt lat="45.55333" lon="6.8269">
        <ele>2386.3</ele>
        <time>2021-03-30T06:11:31Z</time>
      </trkpt>
      <trkpt lat="45.55332" lon="6.8269">
        <ele>2386.3</ele>
        <time>2021-03-30T06:11:32Z</time>
      </trkpt>
      <trkpt lat="45.55332" lon="6.82691">
        <ele>2386.3</ele>
        <time>2021-03-30T06:11:33Z</time>
      </trkpt>
      <trkpt lat="45.55332" lon="6.82692">
        <ele>2386.3</ele>
        <time>2021-03-30T06:11:34Z</time>
      </trkpt>
      <trkpt lat="45.55331" lon="6.82692">
        <ele>2386.3</ele>
        <time>2021-03-30T06:11:35Z</time>
      </trkpt>
      <trkpt lat="45.55331" lon="6.82693">
        <ele>2386.3</ele>
        <time>2021-03-30T06:11:36Z</time>
      </trkpt>
      <trkpt lat="45.55331" lon="6.82694">
        <ele>2387</ele>
        <time>2021-03-30T06:11:37Z</time>
      </trkpt>
      <trkpt lat="45.55331" lon="6.82695">
        <ele>2387</ele>
        <time>2021-03-30T06:11:38Z</time>
      </trkpt>
      <trkpt lat="45.55331" lon="6.82696">
        <ele>2387.3</ele>
        <time>2021-03-30T06:11:39Z</time>
      </trkpt>
      <trkpt lat="45.5533" lon="6.82697">
        <ele>2387.3</ele>
        <time>2021-03-30T06:11:40Z</time>
      </trkpt>
      <trkpt lat="45.5533" lon="6.82697">
        <ele>2388.1</ele>
        <time>2021-03-30T06:11:41Z</time>
      </trkpt>
      <trkpt lat="45.5533" lon="6.82698">
        <ele>2388.1</ele>
        <time>2021-03-30T06:11:42Z</time>
      </trkpt>
      <trkpt lat="45.5533" lon="6.82699">
        <ele>2388.1</ele>
        <time>2021-03-30T06:11:43Z</time>
      </trkpt>
      <trkpt lat="45.55329" lon="6.827">
        <ele>2388.1</ele>
        <time>2021-03-30T06:11:44Z</time>
      </trkpt>
      <trkpt lat="45.55329" lon="6.82701">
        <ele>2388.1</ele>
        <time>2021-03-30T06:11:45Z</time>
      </trkpt>
      <trkpt lat="45.55329" lon="6.82702">
        <ele>2388.8</ele>
        <time>2021-03-30T06:11:46Z</time>
      </trkpt>
      <trkpt lat="45.55329" lon="6.82702">
        <ele>2388.8</ele>
        <time>2021-03-30T06:11:47Z</time>
      </trkpt>
      <trkpt lat="45.55329" lon="6.82703">
        <ele>2388.8</ele>
        <time>2021-03-30T06:11:48Z</time>
      </trkpt>
      <trkpt lat="45.55329" lon="6.82704">
        <ele>2388.8</ele>
        <time>2021-03-30T06:11:49Z</time>
      </trkpt>
      <trkpt lat="45.55329" lon="6.82705">
        <ele>2388.8</ele>
        <time>2021-03-30T06:11:50Z</time>
      </trkpt>
      <trkpt lat="45.55329" lon="6.82706">
        <ele>2389.5</ele>
        <time>2021-03-30T06:11:51Z</time>
      </trkpt>
      <trkpt lat="45.55328" lon="6.82707">
        <ele>2389.5</ele>
        <time>2021-03-30T06:11:52Z</time>
      </trkpt>
      <trkpt lat="45.55328" lon="6.82708">
        <ele>2389.5</ele>
        <time>2021-03-30T06:11:53Z</time>
      </trkpt>
      <trkpt lat="45.55328" lon="6.82708">
        <ele>2389.8</ele>
        <time>2021-03-30T06:11:54Z</time>
      </trkpt>
      <trkpt lat="45.55327" lon="6.82709">
        <ele>2389.8</ele>
        <time>2021-03-30T06:11:55Z</time>
      </trkpt>
      <trkpt lat="45.55327" lon="6.8271">
        <ele>2389.8</ele>
        <time>2021-03-30T06:11:56Z</time>
      </trkpt>
      <trkpt lat="45.55326" lon="6.82711">
        <ele>2390.5</ele>
        <time>2021-03-30T06:11:57Z</time>
      </trkpt>
      <trkpt lat="45.55326" lon="6.82711">
        <ele>2390.5</ele>
        <time>2021-03-30T06:11:58Z</time>
      </trkpt>
      <trkpt lat="45.55325" lon="6.82712">
        <ele>2390.5</ele>
        <time>2021-03-30T06:11:59Z</time>
      </trkpt>
      <trkpt lat="45.55324" lon="6.82713">
        <ele>2390.8</ele>
        <time>2021-03-30T06:12:00Z</time>
      </trkpt>
      <trkpt lat="45.55324" lon="6.82714">
        <ele>2390.8</ele>
        <time>2021-03-30T06:12:01Z</time>
      </trkpt>
      <trkpt lat="45.55323" lon="6.82715">
        <ele>2391.4</ele>
        <time>2021-03-30T06:12:02Z</time>
      </trkpt>
      <trkpt lat="45.55323" lon="6.82715">
        <ele>2391.4</ele>
        <time>2021-03-30T06:12:03Z</time>
      </trkpt>
      <trkpt lat="45.55322" lon="6.82716">
        <ele>2391.4</ele>
        <time>2021-03-30T06:12:04Z</time>
      </trkpt>
      <trkpt lat="45.55322" lon="6.82717">
        <ele>2391.4</ele>
        <time>2021-03-30T06:12:05Z</time>
      </trkpt>
      <trkpt lat="45.55322" lon="6.82717">
        <ele>2391.4</ele>
        <time>2021-03-30T06:12:06Z</time>
      </trkpt>
      <trkpt lat="45.55322" lon="6.82718">
        <ele>2391.7</ele>
        <time>2021-03-30T06:12:07Z</time>
      </trkpt>
      <trkpt lat="45.55321" lon="6.82718">
        <ele>2391.7</ele>
        <time>2021-03-30T06:12:08Z</time>
      </trkpt>
      <trkpt lat="45.55321" lon="6.82719">
        <ele>2392.4</ele>
        <time>2021-03-30T06:12:09Z</time>
      </trkpt>
      <trkpt lat="45.55321" lon="6.8272">
        <ele>2392.4</ele>
        <time>2021-03-30T06:12:10Z</time>
      </trkpt>
      <trkpt lat="45.5532" lon="6.8272">
        <ele>2392.4</ele>
        <time>2021-03-30T06:12:11Z</time>
      </trkpt>
      <trkpt lat="45.5532" lon="6.82721">
        <ele>2392.4</ele>
        <time>2021-03-30T06:12:12Z</time>
      </trkpt>
      <trkpt lat="45.5532" lon="6.82722">
        <ele>2392.4</ele>
        <time>2021-03-30T06:12:13Z</time>
      </trkpt>
      <trkpt lat="45.55319" lon="6.82723">
        <ele>2392.4</ele>
        <time>2021-03-30T06:12:14Z</time>
      </trkpt>
      <trkpt lat="45.55319" lon="6.82723">
        <ele>2393</ele>
        <time>2021-03-30T06:12:15Z</time>
      </trkpt>
      <trkpt lat="45.55319" lon="6.82724">
        <ele>2393.3</ele>
        <time>2021-03-30T06:12:16Z</time>
      </trkpt>
      <trkpt lat="45.55318" lon="6.82725">
        <ele>2393.3</ele>
        <time>2021-03-30T06:12:17Z</time>
      </trkpt>
      <trkpt lat="45.55318" lon="6.82726">
        <ele>2393.3</ele>
        <time>2021-03-30T06:12:18Z</time>
      </trkpt>
      <trkpt lat="45.55317" lon="6.82726">
        <ele>2393.3</ele>
        <time>2021-03-30T06:12:19Z</time>
      </trkpt>
      <trkpt lat="45.55317" lon="6.82727">
        <ele>2393.3</ele>
        <time>2021-03-30T06:12:20Z</time>
      </trkpt>
      <trkpt lat="45.55317" lon="6.82728">
        <ele>2393.9</ele>
        <time>2021-03-30T06:12:21Z</time>
      </trkpt>
      <trkpt lat="45.55317" lon="6.82728">
        <ele>2393.9</ele>
        <time>2021-03-30T06:12:22Z</time>
      </trkpt>
      <trkpt lat="45.55316" lon="6.82729">
        <ele>2393.9</ele>
        <time>2021-03-30T06:12:23Z</time>
      </trkpt>
      <trkpt lat="45.55316" lon="6.8273">
        <ele>2393.9</ele>
        <time>2021-03-30T06:12:24Z</time>
      </trkpt>
      <trkpt lat="45.55315" lon="6.82731">
        <ele>2394.2</ele>
        <time>2021-03-30T06:12:25Z</time>
      </trkpt>
      <trkpt lat="45.55315" lon="6.82732">
        <ele>2394.9</ele>
        <time>2021-03-30T06:12:26Z</time>
      </trkpt>
      <trkpt lat="45.55315" lon="6.82733">
        <ele>2394.9</ele>
        <time>2021-03-30T06:12:27Z</time>
      </trkpt>
      <trkpt lat="45.55314" lon="6.82734">
        <ele>2394.9</ele>
        <time>2021-03-30T06:12:28Z</time>
      </trkpt>
      <trkpt lat="45.55314" lon="6.82734">
        <ele>2394.9</ele>
        <time>2021-03-30T06:12:29Z</time>
      </trkpt>
      <trkpt lat="45.55313" lon="6.82735">
        <ele>2394.9</ele>
        <time>2021-03-30T06:12:30Z</time>
      </trkpt>
      <trkpt lat="45.55313" lon="6.82736">
        <ele>2395.5</ele>
        <time>2021-03-30T06:12:31Z</time>
      </trkpt>
      <trkpt lat="45.55312" lon="6.82737">
        <ele>2395.8</ele>
        <time>2021-03-30T06:12:32Z</time>
      </trkpt>
      <trkpt lat="45.55312" lon="6.82738">
        <ele>2395.8</ele>
        <time>2021-03-30T06:12:33Z</time>
      </trkpt>
      <trkpt lat="45.55312" lon="6.82739">
        <ele>2395.8</ele>
        <time>2021-03-30T06:12:34Z</time>
      </trkpt>
      <trkpt lat="45.55311" lon="6.82739">
        <ele>2395.8</ele>
        <time>2021-03-30T06:12:35Z</time>
      </trkpt>
      <trkpt lat="45.5531" lon="6.8274">
        <ele>2395.8</ele>
        <time>2021-03-30T06:12:36Z</time>
      </trkpt>
      <trkpt lat="45.5531" lon="6.82741">
        <ele>2396.6</ele>
        <time>2021-03-30T06:12:37Z</time>
      </trkpt>
      <trkpt lat="45.55309" lon="6.82742">
        <ele>2396.9</ele>
        <time>2021-03-30T06:12:38Z</time>
      </trkpt>
      <trkpt lat="45.55309" lon="6.82743">
        <ele>2396.9</ele>
        <time>2021-03-30T06:12:39Z</time>
      </trkpt>
      <trkpt lat="45.55308" lon="6.82744">
        <ele>2396.9</ele>
        <time>2021-03-30T06:12:40Z</time>
      </trkpt>
      <trkpt lat="45.55308" lon="6.82744">
        <ele>2396.9</ele>
        <time>2021-03-30T06:12:41Z</time>
      </trkpt>
      <trkpt lat="45.55307" lon="6.82745">
        <ele>2397.7</ele>
        <time>2021-03-30T06:12:42Z</time>
      </trkpt>
      <trkpt lat="45.55307" lon="6.82746">
        <ele>2397.7</ele>
        <time>2021-03-30T06:12:43Z</time>
      </trkpt>
      <trkpt lat="45.55306" lon="6.82747">
        <ele>2398</ele>
        <time>2021-03-30T06:12:44Z</time>
      </trkpt>
      <trkpt lat="45.55306" lon="6.82748">
        <ele>2398</ele>
        <time>2021-03-30T06:12:45Z</time>
      </trkpt>
      <trkpt lat="45.55305" lon="6.82749">
        <ele>2398</ele>
        <time>2021-03-30T06:12:46Z</time>
      </trkpt>
      <trkpt lat="45.55305" lon="6.82749">
        <ele>2398.8</ele>
        <time>2021-03-30T06:12:47Z</time>
      </trkpt>
      <trkpt lat="45.55304" lon="6.8275">
        <ele>2398.8</ele>
        <time>2021-03-30T06:12:48Z</time>
      </trkpt>
      <trkpt lat="45.55304" lon="6.82752">
        <ele>2398.8</ele>
        <time>2021-03-30T06:12:49Z</time>
      </trkpt>
      <trkpt lat="45.55303" lon="6.82752">
        <ele>2399.1</ele>
        <time>2021-03-30T06:12:50Z</time>
      </trkpt>
      <trkpt lat="45.55303" lon="6.82753">
        <ele>2399.9</ele>
        <time>2021-03-30T06:12:51Z</time>
      </trkpt>
      <trkpt lat="45.55302" lon="6.82754">
        <ele>2399.9</ele>
        <time>2021-03-30T06:12:52Z</time>
      </trkpt>
      <trkpt lat="45.55302" lon="6.82755">
        <ele>2399.9</ele>
        <time>2021-03-30T06:12:53Z</time>
      </trkpt>
      <trkpt lat="45.55302" lon="6.82756">
        <ele>2399.9</ele>
        <time>2021-03-30T06:12:54Z</time>
      </trkpt>
      <trkpt lat="45.55301" lon="6.82757">
        <ele>2399.9</ele>
        <time>2021-03-30T06:12:55Z</time>
      </trkpt>
      <trkpt lat="45.55301" lon="6.82758">
        <ele>2400.7</ele>
        <time>2021-03-30T06:12:56Z</time>
      </trkpt>
      <trkpt lat="45.55301" lon="6.82759">
        <ele>2400.7</ele>
        <time>2021-03-30T06:12:57Z</time>
      </trkpt>
      <trkpt lat="45.55301" lon="6.8276">
        <ele>2401.1</ele>
        <time>2021-03-30T06:12:58Z</time>
      </trkpt>
      <trkpt lat="45.553" lon="6.82761">
        <ele>2401.1</ele>
        <time>2021-03-30T06:12:59Z</time>
      </trkpt>
      <trkpt lat="45.553" lon="6.82761">
        <ele>2401.1</ele>
        <time>2021-03-30T06:13:00Z</time>
      </trkpt>
      <trkpt lat="45.553" lon="6.82763">
        <ele>2401.8</ele>
        <time>2021-03-30T06:13:01Z</time>
      </trkpt>
      <trkpt lat="45.553" lon="6.82763">
        <ele>2401.8</ele>
        <time>2021-03-30T06:13:02Z</time>
      </trkpt>
      <trkpt lat="45.553" lon="6.82764">
        <ele>2401.8</ele>
        <time>2021-03-30T06:13:03Z</time>
      </trkpt>
      <trkpt lat="45.55299" lon="6.82765">
        <ele>2401.8</ele>
        <time>2021-03-30T06:13:04Z</time>
      </trkpt>
      <trkpt lat="45.55299" lon="6.82766">
        <ele>2402.6</ele>
        <time>2021-03-30T06:13:05Z</time>
      </trkpt>
      <trkpt lat="45.55299" lon="6.82767">
        <ele>2402.6</ele>
        <time>2021-03-30T06:13:06Z</time>
      </trkpt>
      <trkpt lat="45.55298" lon="6.82768">
        <ele>2402.6</ele>
        <time>2021-03-30T06:13:07Z</time>
      </trkpt>
      <trkpt lat="45.55298" lon="6.82769">
        <ele>2402.6</ele>
        <time>2021-03-30T06:13:08Z</time>
      </trkpt>
      <trkpt lat="45.55297" lon="6.8277">
        <ele>2402.9</ele>
        <time>2021-03-30T06:13:09Z</time>
      </trkpt>
      <trkpt lat="45.55297" lon="6.82771">
        <ele>2403.7</ele>
        <time>2021-03-30T06:13:10Z</time>
      </trkpt>
      <trkpt lat="45.55297" lon="6.82772">
        <ele>2403.7</ele>
        <time>2021-03-30T06:13:11Z</time>
      </trkpt>
      <trkpt lat="45.55296" lon="6.82773">
        <ele>2403.7</ele>
        <time>2021-03-30T06:13:12Z</time>
      </trkpt>
      <trkpt lat="45.55295" lon="6.82774">
        <ele>2403.7</ele>
        <time>2021-03-30T06:13:13Z</time>
      </trkpt>
      <trkpt lat="45.55295" lon="6.82775">
        <ele>2404.4</ele>
        <time>2021-03-30T06:13:14Z</time>
      </trkpt>
      <trkpt lat="45.55294" lon="6.82777">
        <ele>2404.7</ele>
        <time>2021-03-30T06:13:15Z</time>
      </trkpt>
      <trkpt lat="45.55294" lon="6.82778">
        <ele>2404.7</ele>
        <time>2021-03-30T06:13:16Z</time>
      </trkpt>
      <trkpt lat="45.55294" lon="6.82779">
        <ele>2405.5</ele>
        <time>2021-03-30T06:13:17Z</time>
      </trkpt>
      <trkpt lat="45.55293" lon="6.8278">
        <ele>2405.5</ele>
        <time>2021-03-30T06:13:18Z</time>
      </trkpt>
      <trkpt lat="45.55293" lon="6.82781">
        <ele>2405.5</ele>
        <time>2021-03-30T06:13:19Z</time>
      </trkpt>
      <trkpt lat="45.55292" lon="6.82782">
        <ele>2405.5</ele>
        <time>2021-03-30T06:13:20Z</time>
      </trkpt>
      <trkpt lat="45.55292" lon="6.82783">
        <ele>2405.5</ele>
        <time>2021-03-30T06:13:21Z</time>
      </trkpt>
      <trkpt lat="45.55292" lon="6.82784">
        <ele>2406.4</ele>
        <time>2021-03-30T06:13:22Z</time>
      </trkpt>
      <trkpt lat="45.55292" lon="6.82785">
        <ele>2406.6</ele>
        <time>2021-03-30T06:13:23Z</time>
      </trkpt>
      <trkpt lat="45.55291" lon="6.82786">
        <ele>2406.6</ele>
        <time>2021-03-30T06:13:24Z</time>
      </trkpt>
      <trkpt lat="45.55291" lon="6.82788">
        <ele>2407.5</ele>
        <time>2021-03-30T06:13:25Z</time>
      </trkpt>
      <trkpt lat="45.55291" lon="6.82789">
        <ele>2407.5</ele>
        <time>2021-03-30T06:13:26Z</time>
      </trkpt>
      <trkpt lat="45.55291" lon="6.8279">
        <ele>2407.5</ele>
        <time>2021-03-30T06:13:27Z</time>
      </trkpt>
      <trkpt lat="45.5529" lon="6.82791">
        <ele>2407.5</ele>
        <time>2021-03-30T06:13:28Z</time>
      </trkpt>
      <trkpt lat="45.5529" lon="6.82792">
        <ele>2407.5</ele>
        <time>2021-03-30T06:13:29Z</time>
      </trkpt>
      <trkpt lat="45.5529" lon="6.82793">
        <ele>2408.4</ele>
        <time>2021-03-30T06:13:30Z</time>
      </trkpt>
      <trkpt lat="45.55289" lon="6.82794">
        <ele>2408.4</ele>
        <time>2021-03-30T06:13:31Z</time>
      </trkpt>
      <trkpt lat="45.55289" lon="6.82795">
        <ele>2408.4</ele>
        <time>2021-03-30T06:13:32Z</time>
      </trkpt>
      <trkpt lat="45.55289" lon="6.82796">
        <ele>2408.4</ele>
        <time>2021-03-30T06:13:33Z</time>
      </trkpt>
      <trkpt lat="45.55288" lon="6.82797">
        <ele>2409.4</ele>
        <time>2021-03-30T06:13:34Z</time>
      </trkpt>
      <trkpt lat="45.55288" lon="6.82797">
        <ele>2409.4</ele>
        <time>2021-03-30T06:13:35Z</time>
      </trkpt>
      <trkpt lat="45.55288" lon="6.82798">
        <ele>2409.4</ele>
        <time>2021-03-30T06:13:36Z</time>
      </trkpt>
      <trkpt lat="45.55287" lon="6.82799">
        <ele>2409.4</ele>
        <time>2021-03-30T06:13:37Z</time>
      </trkpt>
      <trkpt lat="45.55287" lon="6.82799">
        <ele>2409.4</ele>
        <time>2021-03-30T06:13:38Z</time>
      </trkpt>
      <trkpt lat="45.55286" lon="6.828">
        <ele>2409.4</ele>
        <time>2021-03-30T06:13:39Z</time>
      </trkpt>
      <trkpt lat="45.55286" lon="6.82801">
        <ele>2410.3</ele>
        <time>2021-03-30T06:13:40Z</time>
      </trkpt>
      <trkpt lat="45.55286" lon="6.82802">
        <ele>2410.3</ele>
        <time>2021-03-30T06:13:41Z</time>
      </trkpt>
      <trkpt lat="45.55285" lon="6.82803">
        <ele>2410.5</ele>
        <time>2021-03-30T06:13:42Z</time>
      </trkpt>
      <trkpt lat="45.55285" lon="6.82803">
        <ele>2410.5</ele>
        <time>2021-03-30T06:13:43Z</time>
      </trkpt>
      <trkpt lat="45.55285" lon="6.82804">
        <ele>2410.5</ele>
        <time>2021-03-30T06:13:44Z</time>
      </trkpt>
      <trkpt lat="45.55284" lon="6.82805">
        <ele>2411.4</ele>
        <time>2021-03-30T06:13:45Z</time>
      </trkpt>
      <trkpt lat="45.55284" lon="6.82806">
        <ele>2411.4</ele>
        <time>2021-03-30T06:13:46Z</time>
      </trkpt>
      <trkpt lat="45.55283" lon="6.82807">
        <ele>2411.4</ele>
        <time>2021-03-30T06:13:47Z</time>
      </trkpt>
      <trkpt lat="45.55283" lon="6.82808">
        <ele>2411.4</ele>
        <time>2021-03-30T06:13:48Z</time>
      </trkpt>
      <trkpt lat="45.55282" lon="6.82809">
        <ele>2411.6</ele>
        <time>2021-03-30T06:13:49Z</time>
      </trkpt>
      <trkpt lat="45.55282" lon="6.82809">
        <ele>2412.4</ele>
        <time>2021-03-30T06:13:50Z</time>
      </trkpt>
      <trkpt lat="45.55281" lon="6.8281">
        <ele>2412.4</ele>
        <time>2021-03-30T06:13:51Z</time>
      </trkpt>
      <trkpt lat="45.55281" lon="6.82811">
        <ele>2412.4</ele>
        <time>2021-03-30T06:13:52Z</time>
      </trkpt>
      <trkpt lat="45.5528" lon="6.82812">
        <ele>2412.4</ele>
        <time>2021-03-30T06:13:53Z</time>
      </trkpt>
      <trkpt lat="45.5528" lon="6.82813">
        <ele>2413.2</ele>
        <time>2021-03-30T06:13:54Z</time>
      </trkpt>
      <trkpt lat="45.5528" lon="6.82814">
        <ele>2413.4</ele>
        <time>2021-03-30T06:13:55Z</time>
      </trkpt>
      <trkpt lat="45.55279" lon="6.82815">
        <ele>2413.4</ele>
        <time>2021-03-30T06:13:56Z</time>
      </trkpt>
      <trkpt lat="45.55279" lon="6.82816">
        <ele>2413.4</ele>
        <time>2021-03-30T06:13:57Z</time>
      </trkpt>
      <trkpt lat="45.55278" lon="6.82817">
        <ele>2413.4</ele>
        <time>2021-03-30T06:13:58Z</time>
      </trkpt>
      <trkpt lat="45.55278" lon="6.82818">
        <ele>2414.3</ele>
        <time>2021-03-30T06:13:59Z</time>
      </trkpt>
      <trkpt lat="45.55277" lon="6.82819">
        <ele>2414.3</ele>
        <time>2021-03-30T06:14:00Z</time>
      </trkpt>
      <trkpt lat="45.55277" lon="6.8282">
        <ele>2414.3</ele>
        <time>2021-03-30T06:14:01Z</time>
      </trkpt>
      <trkpt lat="45.55277" lon="6.8282">
        <ele>2414.3</ele>
        <time>2021-03-30T06:14:02Z</time>
      </trkpt>
      <trkpt lat="45.55277" lon="6.82821">
        <ele>2414.3</ele>
        <time>2021-03-30T06:14:03Z</time>
      </trkpt>
      <trkpt lat="45.55277" lon="6.82821">
        <ele>2414.5</ele>
        <time>2021-03-30T06:14:04Z</time>
      </trkpt>
      <trkpt lat="45.55276" lon="6.82822">
        <ele>2415.4</ele>
        <time>2021-03-30T06:14:05Z</time>
      </trkpt>
      <trkpt lat="45.55276" lon="6.82823">
        <ele>2415.4</ele>
        <time>2021-03-30T06:14:06Z</time>
      </trkpt>
      <trkpt lat="45.55276" lon="6.82823">
        <ele>2415.4</ele>
        <time>2021-03-30T06:14:07Z</time>
      </trkpt>
      <trkpt lat="45.55276" lon="6.82824">
        <ele>2415.4</ele>
        <time>2021-03-30T06:14:08Z</time>
      </trkpt>
      <trkpt lat="45.55276" lon="6.82825">
        <ele>2415.4</ele>
        <time>2021-03-30T06:14:09Z</time>
      </trkpt>
      <trkpt lat="45.55275" lon="6.82825">
        <ele>2415.4</ele>
        <time>2021-03-30T06:14:10Z</time>
      </trkpt>
      <trkpt lat="45.55275" lon="6.82826">
        <ele>2416.3</ele>
        <time>2021-03-30T06:14:11Z</time>
      </trkpt>
      <trkpt lat="45.55275" lon="6.82827">
        <ele>2416.3</ele>
        <time>2021-03-30T06:14:12Z</time>
      </trkpt>
      <trkpt lat="45.55275" lon="6.82828">
        <ele>2416.3</ele>
        <time>2021-03-30T06:14:13Z</time>
      </trkpt>
      <trkpt lat="45.55274" lon="6.82829">
        <ele>2416.3</ele>
        <time>2021-03-30T06:14:14Z</time>
      </trkpt>
      <trkpt lat="45.55274" lon="6.82829">
        <ele>2416.3</ele>
        <time>2021-03-30T06:14:15Z</time>
      </trkpt>
      <trkpt lat="45.55274" lon="6.8283">
        <ele>2416.3</ele>
        <time>2021-03-30T06:14:16Z</time>
      </trkpt>
      <trkpt lat="45.55274" lon="6.82831">
        <ele>2417.3</ele>
        <time>2021-03-30T06:14:17Z</time>
      </trkpt>
      <trkpt lat="45.55274" lon="6.82832">
        <ele>2417.3</ele>
        <time>2021-03-30T06:14:18Z</time>
      </trkpt>
      <trkpt lat="45.55274" lon="6.82833">
        <ele>2417.6</ele>
        <time>2021-03-30T06:14:19Z</time>
      </trkpt>
      <trkpt lat="45.55273" lon="6.82833">
        <ele>2417.6</ele>
        <time>2021-03-30T06:14:20Z</time>
      </trkpt>
      <trkpt lat="45.55273" lon="6.82834">
        <ele>2417.6</ele>
        <time>2021-03-30T06:14:21Z</time>
      </trkpt>
      <trkpt lat="45.55273" lon="6.82835">
        <ele>2418.7</ele>
        <time>2021-03-30T06:14:22Z</time>
      </trkpt>
      <trkpt lat="45.55273" lon="6.82836">
        <ele>2418.7</ele>
        <time>2021-03-30T06:14:23Z</time>
      </trkpt>
      <trkpt lat="45.55272" lon="6.82837">
        <ele>2418.7</ele>
        <time>2021-03-30T06:14:24Z</time>
      </trkpt>
      <trkpt lat="45.55272" lon="6.82838">
        <ele>2418.7</ele>
        <time>2021-03-30T06:14:25Z</time>
      </trkpt>
      <trkpt lat="45.55272" lon="6.82839">
        <ele>2419.7</ele>
        <time>2021-03-30T06:14:26Z</time>
      </trkpt>
      <trkpt lat="45.55272" lon="6.8284">
        <ele>2419.7</ele>
        <time>2021-03-30T06:14:27Z</time>
      </trkpt>
      <trkpt lat="45.55271" lon="6.82841">
        <ele>2419.7</ele>
        <time>2021-03-30T06:14:28Z</time>
      </trkpt>
      <trkpt lat="45.55271" lon="6.82842">
        <ele>2419.7</ele>
        <time>2021-03-30T06:14:29Z</time>
      </trkpt>
      <trkpt lat="45.55271" lon="6.82843">
        <ele>2419.7</ele>
        <time>2021-03-30T06:14:30Z</time>
      </trkpt>
      <trkpt lat="45.5527" lon="6.82844">
        <ele>2421</ele>
        <time>2021-03-30T06:14:31Z</time>
      </trkpt>
      <trkpt lat="45.5527" lon="6.82844">
        <ele>2421</ele>
        <time>2021-03-30T06:14:32Z</time>
      </trkpt>
      <trkpt lat="45.5527" lon="6.82845">
        <ele>2421</ele>
        <time>2021-03-30T06:14:33Z</time>
      </trkpt>
      <trkpt lat="45.5527" lon="6.82846">
        <ele>2421</ele>
        <time>2021-03-30T06:14:34Z</time>
      </trkpt>
      <trkpt lat="45.55269" lon="6.82847">
        <ele>2421</ele>
        <time>2021-03-30T06:14:35Z</time>
      </trkpt>
      <trkpt lat="45.55269" lon="6.82848">
        <ele>2422</ele>
        <time>2021-03-30T06:14:36Z</time>
      </trkpt>
      <trkpt lat="45.55269" lon="6.82849">
        <ele>2422</ele>
        <time>2021-03-30T06:14:37Z</time>
      </trkpt>
      <trkpt lat="45.55269" lon="6.82849">
        <ele>2422</ele>
        <time>2021-03-30T06:14:38Z</time>
      </trkpt>
      <trkpt lat="45.55268" lon="6.8285">
        <ele>2422</ele>
        <time>2021-03-30T06:14:39Z</time>
      </trkpt>
      <trkpt lat="45.55268" lon="6.82851">
        <ele>2422</ele>
        <time>2021-03-30T06:14:40Z</time>
      </trkpt>
      <trkpt lat="45.55267" lon="6.82852">
        <ele>2422.2</ele>
        <time>2021-03-30T06:14:41Z</time>
      </trkpt>
      <trkpt lat="45.55267" lon="6.82853">
        <ele>2423.1</ele>
        <time>2021-03-30T06:14:42Z</time>
      </trkpt>
      <trkpt lat="45.55266" lon="6.82854">
        <ele>2423.1</ele>
        <time>2021-03-30T06:14:43Z</time>
      </trkpt>
      <trkpt lat="45.55266" lon="6.82854">
        <ele>2423.1</ele>
        <time>2021-03-30T06:14:44Z</time>
      </trkpt>
      <trkpt lat="45.55265" lon="6.82855">
        <ele>2423.1</ele>
        <time>2021-03-30T06:14:45Z</time>
      </trkpt>
      <trkpt lat="45.55265" lon="6.82856">
        <ele>2424</ele>
        <time>2021-03-30T06:14:46Z</time>
      </trkpt>
      <trkpt lat="45.55264" lon="6.82857">
        <ele>2424.3</ele>
        <time>2021-03-30T06:14:47Z</time>
      </trkpt>
      <trkpt lat="45.55264" lon="6.82858">
        <ele>2424.3</ele>
        <time>2021-03-30T06:14:48Z</time>
      </trkpt>
      <trkpt lat="45.55264" lon="6.82859">
        <ele>2424.3</ele>
        <time>2021-03-30T06:14:49Z</time>
      </trkpt>
      <trkpt lat="45.55264" lon="6.8286">
        <ele>2424.3</ele>
        <time>2021-03-30T06:14:50Z</time>
      </trkpt>
      <trkpt lat="45.55263" lon="6.82862">
        <ele>2425.1</ele>
        <time>2021-03-30T06:14:51Z</time>
      </trkpt>
      <trkpt lat="45.55263" lon="6.82863">
        <ele>2425.1</ele>
        <time>2021-03-30T06:14:52Z</time>
      </trkpt>
      <trkpt lat="45.55263" lon="6.82864">
        <ele>2425.1</ele>
        <time>2021-03-30T06:14:53Z</time>
      </trkpt>
      <trkpt lat="45.55263" lon="6.82865">
        <ele>2426</ele>
        <time>2021-03-30T06:14:54Z</time>
      </trkpt>
      <trkpt lat="45.55262" lon="6.82866">
        <ele>2426</ele>
        <time>2021-03-30T06:14:55Z</time>
      </trkpt>
      <trkpt lat="45.55262" lon="6.82867">
        <ele>2426</ele>
        <time>2021-03-30T06:14:56Z</time>
      </trkpt>
      <trkpt lat="45.55262" lon="6.82869">
        <ele>2426</ele>
        <time>2021-03-30T06:14:57Z</time>
      </trkpt>
      <trkpt lat="45.55262" lon="6.82869">
        <ele>2426.9</ele>
        <time>2021-03-30T06:14:58Z</time>
      </trkpt>
      <trkpt lat="45.55262" lon="6.82871">
        <ele>2426.9</ele>
        <time>2021-03-30T06:14:59Z</time>
      </trkpt>
      <trkpt lat="45.55262" lon="6.82871">
        <ele>2426.9</ele>
        <time>2021-03-30T06:15:00Z</time>
      </trkpt>
      <trkpt lat="45.55261" lon="6.82872">
        <ele>2427.1</ele>
        <time>2021-03-30T06:15:01Z</time>
      </trkpt>
      <trkpt lat="45.55261" lon="6.82873">
        <ele>2428</ele>
        <time>2021-03-30T06:15:02Z</time>
      </trkpt>
      <trkpt lat="45.55261" lon="6.82874">
        <ele>2428</ele>
        <time>2021-03-30T06:15:03Z</time>
      </trkpt>
      <trkpt lat="45.55261" lon="6.82875">
        <ele>2428</ele>
        <time>2021-03-30T06:15:04Z</time>
      </trkpt>
      <trkpt lat="45.5526" lon="6.82876">
        <ele>2428</ele>
        <time>2021-03-30T06:15:05Z</time>
      </trkpt>
      <trkpt lat="45.5526" lon="6.82877">
        <ele>2428</ele>
        <time>2021-03-30T06:15:06Z</time>
      </trkpt>
      <trkpt lat="45.55259" lon="6.82878">
        <ele>2428.9</ele>
        <time>2021-03-30T06:15:07Z</time>
      </trkpt>
      <trkpt lat="45.55259" lon="6.82879">
        <ele>2428.9</ele>
        <time>2021-03-30T06:15:08Z</time>
      </trkpt>
      <trkpt lat="45.55258" lon="6.8288">
        <ele>2429.1</ele>
        <time>2021-03-30T06:15:09Z</time>
      </trkpt>
      <trkpt lat="45.55258" lon="6.82881">
        <ele>2429.1</ele>
        <time>2021-03-30T06:15:10Z</time>
      </trkpt>
      <trkpt lat="45.55258" lon="6.82882">
        <ele>2429.1</ele>
        <time>2021-03-30T06:15:11Z</time>
      </trkpt>
      <trkpt lat="45.55257" lon="6.82882">
        <ele>2430.1</ele>
        <time>2021-03-30T06:15:12Z</time>
      </trkpt>
      <trkpt lat="45.55257" lon="6.82883">
        <ele>2430.1</ele>
        <time>2021-03-30T06:15:13Z</time>
      </trkpt>
      <trkpt lat="45.55257" lon="6.82884">
        <ele>2430.1</ele>
        <time>2021-03-30T06:15:14Z</time>
      </trkpt>
      <trkpt lat="45.55256" lon="6.82885">
        <ele>2430.1</ele>
        <time>2021-03-30T06:15:15Z</time>
      </trkpt>
      <trkpt lat="45.55256" lon="6.82886">
        <ele>2430.1</ele>
        <time>2021-03-30T06:15:16Z</time>
      </trkpt>
      <trkpt lat="45.55256" lon="6.82886">
        <ele>2431</ele>
        <time>2021-03-30T06:15:17Z</time>
      </trkpt>
      <trkpt lat="45.55255" lon="6.82887">
        <ele>2431.3</ele>
        <time>2021-03-30T06:15:18Z</time>
      </trkpt>
      <trkpt lat="45.55255" lon="6.82888">
        <ele>2431.3</ele>
        <time>2021-03-30T06:15:19Z</time>
      </trkpt>
      <trkpt lat="45.55255" lon="6.82889">
        <ele>2431.3</ele>
        <time>2021-03-30T06:15:20Z</time>
      </trkpt>
      <trkpt lat="45.55255" lon="6.8289">
        <ele>2431.3</ele>
        <time>2021-03-30T06:15:21Z</time>
      </trkpt>
      <trkpt lat="45.55254" lon="6.8289">
        <ele>2431.3</ele>
        <time>2021-03-30T06:15:22Z</time>
      </trkpt>
      <trkpt lat="45.55254" lon="6.82891">
        <ele>2432.2</ele>
        <time>2021-03-30T06:15:23Z</time>
      </trkpt>
      <trkpt lat="45.55254" lon="6.82892">
        <ele>2432.2</ele>
        <time>2021-03-30T06:15:24Z</time>
      </trkpt>
      <trkpt lat="45.55254" lon="6.82893">
        <ele>2432.2</ele>
        <time>2021-03-30T06:15:25Z</time>
      </trkpt>
      <trkpt lat="45.55254" lon="6.82893">
        <ele>2432.2</ele>
        <time>2021-03-30T06:15:26Z</time>
      </trkpt>
      <trkpt lat="45.55254" lon="6.82894">
        <ele>2432.2</ele>
        <time>2021-03-30T06:15:27Z</time>
      </trkpt>
      <trkpt lat="45.55253" lon="6.82895">
        <ele>2432.2</ele>
        <time>2021-03-30T06:15:28Z</time>
      </trkpt>
      <trkpt lat="45.55253" lon="6.82895">
        <ele>2433.1</ele>
        <time>2021-03-30T06:15:29Z</time>
      </trkpt>
      <trkpt lat="45.55253" lon="6.82896">
        <ele>2433.1</ele>
        <time>2021-03-30T06:15:30Z</time>
      </trkpt>
      <trkpt lat="45.55253" lon="6.82897">
        <ele>2433.1</ele>
        <time>2021-03-30T06:15:31Z</time>
      </trkpt>
      <trkpt lat="45.55253" lon="6.82898">
        <ele>2433.1</ele>
        <time>2021-03-30T06:15:32Z</time>
      </trkpt>
      <trkpt lat="45.55253" lon="6.82898">
        <ele>2433.1</ele>
        <time>2021-03-30T06:15:33Z</time>
      </trkpt>
      <trkpt lat="45.55253" lon="6.82899">
        <ele>2433.9</ele>
        <time>2021-03-30T06:15:34Z</time>
      </trkpt>
      <trkpt lat="45.55252" lon="6.829">
        <ele>2434.5</ele>
        <time>2021-03-30T06:15:35Z</time>
      </trkpt>
      <trkpt lat="45.55252" lon="6.829">
        <ele>2434.5</ele>
        <time>2021-03-30T06:15:36Z</time>
      </trkpt>
      <trkpt lat="45.55252" lon="6.82901">
        <ele>2434.5</ele>
        <time>2021-03-30T06:15:37Z</time>
      </trkpt>
      <trkpt lat="45.55252" lon="6.82901">
        <ele>2434.5</ele>
        <time>2021-03-30T06:15:38Z</time>
      </trkpt>
      <trkpt lat="45.55251" lon="6.82902">
        <ele>2434.5</ele>
        <time>2021-03-30T06:15:39Z</time>
      </trkpt>
      <trkpt lat="45.55251" lon="6.82903">
        <ele>2434.5</ele>
        <time>2021-03-30T06:15:40Z</time>
      </trkpt>
      <trkpt lat="45.55251" lon="6.82904">
        <ele>2435.3</ele>
        <time>2021-03-30T06:15:41Z</time>
      </trkpt>
      <trkpt lat="45.55251" lon="6.82905">
        <ele>2435.3</ele>
        <time>2021-03-30T06:15:42Z</time>
      </trkpt>
      <trkpt lat="45.55251" lon="6.82906">
        <ele>2435.3</ele>
        <time>2021-03-30T06:15:43Z</time>
      </trkpt>
      <trkpt lat="45.5525" lon="6.82907">
        <ele>2435.3</ele>
        <time>2021-03-30T06:15:44Z</time>
      </trkpt>
      <trkpt lat="45.5525" lon="6.82908">
        <ele>2436.1</ele>
        <time>2021-03-30T06:15:45Z</time>
      </trkpt>
      <trkpt lat="45.55249" lon="6.82908">
        <ele>2436.5</ele>
        <time>2021-03-30T06:15:46Z</time>
      </trkpt>
      <trkpt lat="45.55249" lon="6.82909">
        <ele>2436.5</ele>
        <time>2021-03-30T06:15:47Z</time>
      </trkpt>
      <trkpt lat="45.55249" lon="6.8291">
        <ele>2436.5</ele>
        <time>2021-03-30T06:15:48Z</time>
      </trkpt>
      <trkpt lat="45.55248" lon="6.8291">
        <ele>2436.5</ele>
        <time>2021-03-30T06:15:49Z</time>
      </trkpt>
      <trkpt lat="45.55248" lon="6.82911">
        <ele>2436.5</ele>
        <time>2021-03-30T06:15:50Z</time>
      </trkpt>
      <trkpt lat="45.55248" lon="6.82912">
        <ele>2436.5</ele>
        <time>2021-03-30T06:15:51Z</time>
      </trkpt>
      <trkpt lat="45.55247" lon="6.82912">
        <ele>2437.3</ele>
        <time>2021-03-30T06:15:52Z</time>
      </trkpt>
      <trkpt lat="45.55247" lon="6.82913">
        <ele>2437.3</ele>
        <time>2021-03-30T06:15:53Z</time>
      </trkpt>
      <trkpt lat="45.55246" lon="6.82913">
        <ele>2437.7</ele>
        <time>2021-03-30T06:15:54Z</time>
      </trkpt>
      <trkpt lat="45.55246" lon="6.82914">
        <ele>2437.7</ele>
        <time>2021-03-30T06:15:55Z</time>
      </trkpt>
      <trkpt lat="45.55246" lon="6.82915">
        <ele>2437.7</ele>
        <time>2021-03-30T06:15:56Z</time>
      </trkpt>
      <trkpt lat="45.55246" lon="6.82915">
        <ele>2437.7</ele>
        <time>2021-03-30T06:15:57Z</time>
      </trkpt>
      <trkpt lat="45.55245" lon="6.82916">
        <ele>2437.7</ele>
        <time>2021-03-30T06:15:58Z</time>
      </trkpt>
      <trkpt lat="45.55245" lon="6.82917">
        <ele>2438.6</ele>
        <time>2021-03-30T06:15:59Z</time>
      </trkpt>
      <trkpt lat="45.55245" lon="6.82917">
        <ele>2438.6</ele>
        <time>2021-03-30T06:16:00Z</time>
      </trkpt>
      <trkpt lat="45.55244" lon="6.82918">
        <ele>2438.6</ele>
        <time>2021-03-30T06:16:01Z</time>
      </trkpt>
      <trkpt lat="45.55244" lon="6.82918">
        <ele>2438.6</ele>
        <time>2021-03-30T06:16:02Z</time>
      </trkpt>
      <trkpt lat="45.55244" lon="6.82919">
        <ele>2438.6</ele>
        <time>2021-03-30T06:16:03Z</time>
      </trkpt>
      <trkpt lat="45.55244" lon="6.82919">
        <ele>2438.6</ele>
        <time>2021-03-30T06:16:04Z</time>
      </trkpt>
      <trkpt lat="45.55244" lon="6.8292">
        <ele>2438.8</ele>
        <time>2021-03-30T06:16:05Z</time>
      </trkpt>
      <trkpt lat="45.55243" lon="6.82921">
        <ele>2439.8</ele>
        <time>2021-03-30T06:16:06Z</time>
      </trkpt>
      <trkpt lat="45.55243" lon="6.82921">
        <ele>2439.8</ele>
        <time>2021-03-30T06:16:07Z</time>
      </trkpt>
      <trkpt lat="45.55242" lon="6.82922">
        <ele>2439.8</ele>
        <time>2021-03-30T06:16:08Z</time>
      </trkpt>
      <trkpt lat="45.55242" lon="6.82922">
        <ele>2439.8</ele>
        <time>2021-03-30T06:16:09Z</time>
      </trkpt>
      <trkpt lat="45.55242" lon="6.82923">
        <ele>2439.8</ele>
        <time>2021-03-30T06:16:10Z</time>
      </trkpt>
      <trkpt lat="45.55242" lon="6.82923">
        <ele>2439.8</ele>
        <time>2021-03-30T06:16:11Z</time>
      </trkpt>
      <trkpt lat="45.55242" lon="6.82924">
        <ele>2439.8</ele>
        <time>2021-03-30T06:16:12Z</time>
      </trkpt>
      <trkpt lat="45.55242" lon="6.82924">
        <ele>2439.8</ele>
        <time>2021-03-30T06:16:13Z</time>
      </trkpt>
      <trkpt lat="45.55242" lon="6.82925">
        <ele>2440.7</ele>
        <time>2021-03-30T06:16:14Z</time>
      </trkpt>
      <trkpt lat="45.55241" lon="6.82926">
        <ele>2440.7</ele>
        <time>2021-03-30T06:16:15Z</time>
      </trkpt>
      <trkpt lat="45.55241" lon="6.82926">
        <ele>2440.7</ele>
        <time>2021-03-30T06:16:16Z</time>
      </trkpt>
      <trkpt lat="45.55241" lon="6.82927">
        <ele>2440.7</ele>
        <time>2021-03-30T06:16:17Z</time>
      </trkpt>
      <trkpt lat="45.5524" lon="6.82928">
        <ele>2440.9</ele>
        <time>2021-03-30T06:16:18Z</time>
      </trkpt>
      <trkpt lat="45.5524" lon="6.82928">
        <ele>2440.9</ele>
        <time>2021-03-30T06:16:19Z</time>
      </trkpt>
      <trkpt lat="45.5524" lon="6.82929">
        <ele>2440.9</ele>
        <time>2021-03-30T06:16:20Z</time>
      </trkpt>
      <trkpt lat="45.5524" lon="6.82929">
        <ele>2441.8</ele>
        <time>2021-03-30T06:16:21Z</time>
      </trkpt>
      <trkpt lat="45.55239" lon="6.8293">
        <ele>2441.8</ele>
        <time>2021-03-30T06:16:22Z</time>
      </trkpt>
      <trkpt lat="45.55239" lon="6.82931">
        <ele>2441.8</ele>
        <time>2021-03-30T06:16:23Z</time>
      </trkpt>
      <trkpt lat="45.55239" lon="6.82931">
        <ele>2441.8</ele>
        <time>2021-03-30T06:16:24Z</time>
      </trkpt>
      <trkpt lat="45.55238" lon="6.82932">
        <ele>2441.8</ele>
        <time>2021-03-30T06:16:25Z</time>
      </trkpt>
      <trkpt lat="45.55238" lon="6.82933">
        <ele>2441.8</ele>
        <time>2021-03-30T06:16:26Z</time>
      </trkpt>
      <trkpt lat="45.55238" lon="6.82933">
        <ele>2441.8</ele>
        <time>2021-03-30T06:16:27Z</time>
      </trkpt>
      <trkpt lat="45.55238" lon="6.82934">
        <ele>2442.7</ele>
        <time>2021-03-30T06:16:28Z</time>
      </trkpt>
      <trkpt lat="45.55237" lon="6.82934">
        <ele>2442.9</ele>
        <time>2021-03-30T06:16:29Z</time>
      </trkpt>
      <trkpt lat="45.55237" lon="6.82935">
        <ele>2442.9</ele>
        <time>2021-03-30T06:16:30Z</time>
      </trkpt>
      <trkpt lat="45.55237" lon="6.82935">
        <ele>2442.9</ele>
        <time>2021-03-30T06:16:31Z</time>
      </trkpt>
      <trkpt lat="45.55236" lon="6.82936">
        <ele>2442.9</ele>
        <time>2021-03-30T06:16:32Z</time>
      </trkpt>
      <trkpt lat="45.55236" lon="6.82936">
        <ele>2442.9</ele>
        <time>2021-03-30T06:16:33Z</time>
      </trkpt>
      <trkpt lat="45.55236" lon="6.82937">
        <ele>2442.9</ele>
        <time>2021-03-30T06:16:34Z</time>
      </trkpt>
      <trkpt lat="45.55236" lon="6.82937">
        <ele>2442.9</ele>
        <time>2021-03-30T06:16:35Z</time>
      </trkpt>
      <trkpt lat="45.55235" lon="6.82938">
        <ele>2443.7</ele>
        <time>2021-03-30T06:16:36Z</time>
      </trkpt>
      <trkpt lat="45.55235" lon="6.82939">
        <ele>2443.7</ele>
        <time>2021-03-30T06:16:37Z</time>
      </trkpt>
      <trkpt lat="45.55235" lon="6.82939">
        <ele>2443.7</ele>
        <time>2021-03-30T06:16:38Z</time>
      </trkpt>
      <trkpt lat="45.55234" lon="6.8294">
        <ele>2443.9</ele>
        <time>2021-03-30T06:16:39Z</time>
      </trkpt>
      <trkpt lat="45.55234" lon="6.8294">
        <ele>2443.9</ele>
        <time>2021-03-30T06:16:40Z</time>
      </trkpt>
      <trkpt lat="45.55234" lon="6.82941">
        <ele>2443.9</ele>
        <time>2021-03-30T06:16:41Z</time>
      </trkpt>
      <trkpt lat="45.55233" lon="6.82942">
        <ele>2443.9</ele>
        <time>2021-03-30T06:16:42Z</time>
      </trkpt>
      <trkpt lat="45.55233" lon="6.82942">
        <ele>2443.9</ele>
        <time>2021-03-30T06:16:43Z</time>
      </trkpt>
      <trkpt lat="45.55233" lon="6.82943">
        <ele>2444.7</ele>
        <time>2021-03-30T06:16:44Z</time>
      </trkpt>
      <trkpt lat="45.55233" lon="6.82943">
        <ele>2444.7</ele>
        <time>2021-03-30T06:16:45Z</time>
      </trkpt>
      <trkpt lat="45.55233" lon="6.82944">
        <ele>2444.7</ele>
        <time>2021-03-30T06:16:46Z</time>
      </trkpt>
      <trkpt lat="45.55232" lon="6.82944">
        <ele>2444.7</ele>
        <time>2021-03-30T06:16:47Z</time>
      </trkpt>
      <trkpt lat="45.55232" lon="6.82944">
        <ele>2444.7</ele>
        <time>2021-03-30T06:16:48Z</time>
      </trkpt>
      <trkpt lat="45.55232" lon="6.82945">
        <ele>2444.7</ele>
        <time>2021-03-30T06:16:49Z</time>
      </trkpt>
      <trkpt lat="45.55231" lon="6.82946">
        <ele>2445</ele>
        <time>2021-03-30T06:16:50Z</time>
      </trkpt>
      <trkpt lat="45.55231" lon="6.82946">
        <ele>2445</ele>
        <time>2021-03-30T06:16:51Z</time>
      </trkpt>
      <trkpt lat="45.55231" lon="6.82946">
        <ele>2445.7</ele>
        <time>2021-03-30T06:16:52Z</time>
      </trkpt>
      <trkpt lat="45.5523" lon="6.82947">
        <ele>2445.7</ele>
        <time>2021-03-30T06:16:53Z</time>
      </trkpt>
      <trkpt lat="45.5523" lon="6.82948">
        <ele>2445.7</ele>
        <time>2021-03-30T06:16:54Z</time>
      </trkpt>
      <trkpt lat="45.55229" lon="6.82948">
        <ele>2445.7</ele>
        <time>2021-03-30T06:16:55Z</time>
      </trkpt>
      <trkpt lat="45.55228" lon="6.82948">
        <ele>2446</ele>
        <time>2021-03-30T06:16:56Z</time>
      </trkpt>
      <trkpt lat="45.55228" lon="6.82949">
        <ele>2446</ele>
        <time>2021-03-30T06:16:57Z</time>
      </trkpt>
      <trkpt lat="45.55227" lon="6.82949">
        <ele>2446</ele>
        <time>2021-03-30T06:16:58Z</time>
      </trkpt>
      <trkpt lat="45.55227" lon="6.8295">
        <ele>2446</ele>
        <time>2021-03-30T06:16:59Z</time>
      </trkpt>
      <trkpt lat="45.55226" lon="6.8295">
        <ele>2446</ele>
        <time>2021-03-30T06:17:00Z</time>
      </trkpt>
      <trkpt lat="45.55226" lon="6.8295">
        <ele>2446</ele>
        <time>2021-03-30T06:17:01Z</time>
      </trkpt>
      <trkpt lat="45.55226" lon="6.82951">
        <ele>2446.7</ele>
        <time>2021-03-30T06:17:02Z</time>
      </trkpt>
      <trkpt lat="45.55225" lon="6.82951">
        <ele>2447</ele>
        <time>2021-03-30T06:17:03Z</time>
      </trkpt>
      <trkpt lat="45.55225" lon="6.82951">
        <ele>2447</ele>
        <time>2021-03-30T06:17:04Z</time>
      </trkpt>
      <trkpt lat="45.55224" lon="6.82952">
        <ele>2447</ele>
        <time>2021-03-30T06:17:05Z</time>
      </trkpt>
      <trkpt lat="45.55224" lon="6.82952">
        <ele>2447</ele>
        <time>2021-03-30T06:17:06Z</time>
      </trkpt>
      <trkpt lat="45.55223" lon="6.82952">
        <ele>2447</ele>
        <time>2021-03-30T06:17:07Z</time>
      </trkpt>
      <trkpt lat="45.55223" lon="6.82953">
        <ele>2447</ele>
        <time>2021-03-30T06:17:08Z</time>
      </trkpt>
      <trkpt lat="45.55222" lon="6.82953">
        <ele>2447.3</ele>
        <time>2021-03-30T06:17:09Z</time>
      </trkpt>
      <trkpt lat="45.55222" lon="6.82953">
        <ele>2447.3</ele>
        <time>2021-03-30T06:17:10Z</time>
      </trkpt>
      <trkpt lat="45.55222" lon="6.82953">
        <ele>2447.3</ele>
        <time>2021-03-30T06:17:11Z</time>
      </trkpt>
      <trkpt lat="45.55221" lon="6.82953">
        <ele>2447.3</ele>
        <time>2021-03-30T06:17:12Z</time>
      </trkpt>
      <trkpt lat="45.55221" lon="6.82953">
        <ele>2447.3</ele>
        <time>2021-03-30T06:17:13Z</time>
      </trkpt>
      <trkpt lat="45.5522" lon="6.82953">
        <ele>2447.3</ele>
        <time>2021-03-30T06:17:14Z</time>
      </trkpt>
      <trkpt lat="45.5522" lon="6.82954">
        <ele>2447.3</ele>
        <time>2021-03-30T06:17:15Z</time>
      </trkpt>
      <trkpt lat="45.5522" lon="6.82954">
        <ele>2447.3</ele>
        <time>2021-03-30T06:17:16Z</time>
      </trkpt>
      <trkpt lat="45.55219" lon="6.82955">
        <ele>2447.5</ele>
        <time>2021-03-30T06:17:17Z</time>
      </trkpt>
      <trkpt lat="45.55219" lon="6.82955">
        <ele>2448.3</ele>
        <time>2021-03-30T06:17:18Z</time>
      </trkpt>
      <trkpt lat="45.55218" lon="6.82956">
        <ele>2448.3</ele>
        <time>2021-03-30T06:17:19Z</time>
      </trkpt>
      <trkpt lat="45.55218" lon="6.82956">
        <ele>2448.3</ele>
        <time>2021-03-30T06:17:20Z</time>
      </trkpt>
      <trkpt lat="45.55217" lon="6.82957">
        <ele>2448.3</ele>
        <time>2021-03-30T06:17:21Z</time>
      </trkpt>
      <trkpt lat="45.55217" lon="6.82957">
        <ele>2448.3</ele>
        <time>2021-03-30T06:17:22Z</time>
      </trkpt>
      <trkpt lat="45.55217" lon="6.82958">
        <ele>2448.3</ele>
        <time>2021-03-30T06:17:23Z</time>
      </trkpt>
      <trkpt lat="45.55216" lon="6.8296">
        <ele>2449.4</ele>
        <time>2021-03-30T06:17:24Z</time>
      </trkpt>
      <trkpt lat="45.55216" lon="6.82961">
        <ele>2449.4</ele>
        <time>2021-03-30T06:17:25Z</time>
      </trkpt>
      <trkpt lat="45.55216" lon="6.82962">
        <ele>2449.4</ele>
        <time>2021-03-30T06:17:26Z</time>
      </trkpt>
      <trkpt lat="45.55217" lon="6.82963">
        <ele>2449.1</ele>
        <time>2021-03-30T06:17:27Z</time>
      </trkpt>
      <trkpt lat="45.55217" lon="6.82964">
        <ele>2449.9</ele>
        <time>2021-03-30T06:17:28Z</time>
      </trkpt>
      <trkpt lat="45.55218" lon="6.82964">
        <ele>2449.9</ele>
        <time>2021-03-30T06:17:29Z</time>
      </trkpt>
      <trkpt lat="45.55218" lon="6.82965">
        <ele>2449.9</ele>
        <time>2021-03-30T06:17:30Z</time>
      </trkpt>
      <trkpt lat="45.55218" lon="6.82966">
        <ele>2449.9</ele>
        <time>2021-03-30T06:17:31Z</time>
      </trkpt>
      <trkpt lat="45.55218" lon="6.82967">
        <ele>2449.9</ele>
        <time>2021-03-30T06:17:32Z</time>
      </trkpt>
      <trkpt lat="45.55219" lon="6.82968">
        <ele>2450.8</ele>
        <time>2021-03-30T06:17:33Z</time>
      </trkpt>
      <trkpt lat="45.55219" lon="6.82969">
        <ele>2450.8</ele>
        <time>2021-03-30T06:17:34Z</time>
      </trkpt>
      <trkpt lat="45.55219" lon="6.82969">
        <ele>2450.8</ele>
        <time>2021-03-30T06:17:35Z</time>
      </trkpt>
      <trkpt lat="45.55219" lon="6.8297">
        <ele>2450.8</ele>
        <time>2021-03-30T06:17:36Z</time>
      </trkpt>
      <trkpt lat="45.5522" lon="6.8297">
        <ele>2450.4</ele>
        <time>2021-03-30T06:17:37Z</time>
      </trkpt>
      <trkpt lat="45.5522" lon="6.8297">
        <ele>2450.4</ele>
        <time>2021-03-30T06:17:38Z</time>
      </trkpt>
      <trkpt lat="45.55221" lon="6.8297">
        <ele>2450.4</ele>
        <time>2021-03-30T06:17:39Z</time>
      </trkpt>
      <trkpt lat="45.55221" lon="6.8297">
        <ele>2450.4</ele>
        <time>2021-03-30T06:17:40Z</time>
      </trkpt>
      <trkpt lat="45.55221" lon="6.82971">
        <ele>2450.4</ele>
        <time>2021-03-30T06:17:41Z</time>
      </trkpt>
      <trkpt lat="45.55221" lon="6.82971">
        <ele>2450.4</ele>
        <time>2021-03-30T06:17:42Z</time>
      </trkpt>
      <trkpt lat="45.55221" lon="6.82972">
        <ele>2451.3</ele>
        <time>2021-03-30T06:17:43Z</time>
      </trkpt>
      <trkpt lat="45.55221" lon="6.82973">
        <ele>2451.3</ele>
        <time>2021-03-30T06:17:44Z</time>
      </trkpt>
      <trkpt lat="45.55221" lon="6.82974">
        <ele>2451.3</ele>
        <time>2021-03-30T06:17:45Z</time>
      </trkpt>
      <trkpt lat="45.55221" lon="6.82974">
        <ele>2451.3</ele>
        <time>2021-03-30T06:17:46Z</time>
      </trkpt>
      <trkpt lat="45.55221" lon="6.82975">
        <ele>2451.3</ele>
        <time>2021-03-30T06:17:47Z</time>
      </trkpt>
      <trkpt lat="45.55221" lon="6.82975">
        <ele>2451.3</ele>
        <time>2021-03-30T06:17:48Z</time>
      </trkpt>
      <trkpt lat="45.5522" lon="6.82976">
        <ele>2451.3</ele>
        <time>2021-03-30T06:17:49Z</time>
      </trkpt>
      <trkpt lat="45.5522" lon="6.82977">
        <ele>2452.1</ele>
        <time>2021-03-30T06:17:50Z</time>
      </trkpt>
      <trkpt lat="45.5522" lon="6.82978">
        <ele>2452.1</ele>
        <time>2021-03-30T06:17:51Z</time>
      </trkpt>
      <trkpt lat="45.5522" lon="6.82979">
        <ele>2452.1</ele>
        <time>2021-03-30T06:17:52Z</time>
      </trkpt>
      <trkpt lat="45.5522" lon="6.8298">
        <ele>2452.1</ele>
        <time>2021-03-30T06:17:53Z</time>
      </trkpt>
      <trkpt lat="45.55219" lon="6.82981">
        <ele>2453.3</ele>
        <time>2021-03-30T06:17:54Z</time>
      </trkpt>
      <trkpt lat="45.55219" lon="6.82982">
        <ele>2453.3</ele>
        <time>2021-03-30T06:17:55Z</time>
      </trkpt>
      <trkpt lat="45.55218" lon="6.82983">
        <ele>2453.3</ele>
        <time>2021-03-30T06:17:56Z</time>
      </trkpt>
      <trkpt lat="45.55218" lon="6.82984">
        <ele>2453.3</ele>
        <time>2021-03-30T06:17:57Z</time>
      </trkpt>
      <trkpt lat="45.55218" lon="6.82984">
        <ele>2453.3</ele>
        <time>2021-03-30T06:17:58Z</time>
      </trkpt>
      <trkpt lat="45.55219" lon="6.82985">
        <ele>2453.3</ele>
        <time>2021-03-30T06:17:59Z</time>
      </trkpt>
      <trkpt lat="45.55219" lon="6.82985">
        <ele>2454</ele>
        <time>2021-03-30T06:18:00Z</time>
      </trkpt>
      <trkpt lat="45.55219" lon="6.82986">
        <ele>2454</ele>
        <time>2021-03-30T06:18:01Z</time>
      </trkpt>
      <trkpt lat="45.55219" lon="6.82986">
        <ele>2454</ele>
        <time>2021-03-30T06:18:02Z</time>
      </trkpt>
      <trkpt lat="45.55219" lon="6.82987">
        <ele>2454</ele>
        <time>2021-03-30T06:18:03Z</time>
      </trkpt>
      <trkpt lat="45.55219" lon="6.82988">
        <ele>2454</ele>
        <time>2021-03-30T06:18:04Z</time>
      </trkpt>
      <trkpt lat="45.55219" lon="6.82988">
        <ele>2454</ele>
        <time>2021-03-30T06:18:05Z</time>
      </trkpt>
      <trkpt lat="45.55219" lon="6.82989">
        <ele>2454</ele>
        <time>2021-03-30T06:18:06Z</time>
      </trkpt>
      <trkpt lat="45.55219" lon="6.8299">
        <ele>2454.8</ele>
        <time>2021-03-30T06:18:07Z</time>
      </trkpt>
      <trkpt lat="45.55219" lon="6.8299">
        <ele>2454.8</ele>
        <time>2021-03-30T06:18:08Z</time>
      </trkpt>
      <trkpt lat="45.55219" lon="6.82991">
        <ele>2454.8</ele>
        <time>2021-03-30T06:18:09Z</time>
      </trkpt>
      <trkpt lat="45.55219" lon="6.82992">
        <ele>2454.8</ele>
        <time>2021-03-30T06:18:10Z</time>
      </trkpt>
      <trkpt lat="45.55219" lon="6.82992">
        <ele>2454.8</ele>
        <time>2021-03-30T06:18:11Z</time>
      </trkpt>
      <trkpt lat="45.55219" lon="6.82993">
        <ele>2454.8</ele>
        <time>2021-03-30T06:18:12Z</time>
      </trkpt>
      <trkpt lat="45.55219" lon="6.82994">
        <ele>2455.6</ele>
        <time>2021-03-30T06:18:13Z</time>
      </trkpt>
      <trkpt lat="45.55219" lon="6.82995">
        <ele>2455.6</ele>
        <time>2021-03-30T06:18:14Z</time>
      </trkpt>
      <trkpt lat="45.55219" lon="6.82996">
        <ele>2455.6</ele>
        <time>2021-03-30T06:18:15Z</time>
      </trkpt>
      <trkpt lat="45.55218" lon="6.82997">
        <ele>2455.6</ele>
        <time>2021-03-30T06:18:16Z</time>
      </trkpt>
      <trkpt lat="45.55218" lon="6.82998">
        <ele>2456.4</ele>
        <time>2021-03-30T06:18:17Z</time>
      </trkpt>
      <trkpt lat="45.55218" lon="6.82999">
        <ele>2456.4</ele>
        <time>2021-03-30T06:18:18Z</time>
      </trkpt>
      <trkpt lat="45.55218" lon="6.83">
        <ele>2456.4</ele>
        <time>2021-03-30T06:18:19Z</time>
      </trkpt>
      <trkpt lat="45.55218" lon="6.83">
        <ele>2456.4</ele>
        <time>2021-03-30T06:18:20Z</time>
      </trkpt>
      <trkpt lat="45.55218" lon="6.83001">
        <ele>2456.4</ele>
        <time>2021-03-30T06:18:21Z</time>
      </trkpt>
      <trkpt lat="45.55218" lon="6.83002">
        <ele>2456.4</ele>
        <time>2021-03-30T06:18:22Z</time>
      </trkpt>
      <trkpt lat="45.55218" lon="6.83002">
        <ele>2457.2</ele>
        <time>2021-03-30T06:18:23Z</time>
      </trkpt>
      <trkpt lat="45.55218" lon="6.83003">
        <ele>2457.2</ele>
        <time>2021-03-30T06:18:24Z</time>
      </trkpt>
      <trkpt lat="45.55218" lon="6.83004">
        <ele>2457.2</ele>
        <time>2021-03-30T06:18:25Z</time>
      </trkpt>
      <trkpt lat="45.55218" lon="6.83005">
        <ele>2457.2</ele>
        <time>2021-03-30T06:18:26Z</time>
      </trkpt>
      <trkpt lat="45.55218" lon="6.83006">
        <ele>2457.2</ele>
        <time>2021-03-30T06:18:27Z</time>
      </trkpt>
      <trkpt lat="45.55218" lon="6.83007">
        <ele>2458.1</ele>
        <time>2021-03-30T06:18:28Z</time>
      </trkpt>
      <trkpt lat="45.55217" lon="6.83008">
        <ele>2458.1</ele>
        <time>2021-03-30T06:18:29Z</time>
      </trkpt>
      <trkpt lat="45.55217" lon="6.83009">
        <ele>2458.1</ele>
        <time>2021-03-30T06:18:30Z</time>
      </trkpt>
      <trkpt lat="45.55217" lon="6.83009">
        <ele>2458.1</ele>
        <time>2021-03-30T06:18:31Z</time>
      </trkpt>
      <trkpt lat="45.55217" lon="6.8301">
        <ele>2458.1</ele>
        <time>2021-03-30T06:18:32Z</time>
      </trkpt>
      <trkpt lat="45.55217" lon="6.83011">
        <ele>2459.1</ele>
        <time>2021-03-30T06:18:33Z</time>
      </trkpt>
      <trkpt lat="45.55217" lon="6.83012">
        <ele>2459.1</ele>
        <time>2021-03-30T06:18:34Z</time>
      </trkpt>
      <trkpt lat="45.55216" lon="6.83013">
        <ele>2459.4</ele>
        <time>2021-03-30T06:18:35Z</time>
      </trkpt>
      <trkpt lat="45.55216" lon="6.83014">
        <ele>2459.4</ele>
        <time>2021-03-30T06:18:36Z</time>
      </trkpt>
      <trkpt lat="45.55216" lon="6.83015">
        <ele>2460.4</ele>
        <time>2021-03-30T06:18:37Z</time>
      </trkpt>
      <trkpt lat="45.55215" lon="6.83016">
        <ele>2460.4</ele>
        <time>2021-03-30T06:18:38Z</time>
      </trkpt>
      <trkpt lat="45.55215" lon="6.83017">
        <ele>2460.4</ele>
        <time>2021-03-30T06:18:39Z</time>
      </trkpt>
      <trkpt lat="45.55215" lon="6.83017">
        <ele>2460.4</ele>
        <time>2021-03-30T06:18:40Z</time>
      </trkpt>
      <trkpt lat="45.55214" lon="6.83018">
        <ele>2460.4</ele>
        <time>2021-03-30T06:18:41Z</time>
      </trkpt>
      <trkpt lat="45.55214" lon="6.83019">
        <ele>2460.4</ele>
        <time>2021-03-30T06:18:42Z</time>
      </trkpt>
      <trkpt lat="45.55214" lon="6.8302">
        <ele>2461.4</ele>
        <time>2021-03-30T06:18:43Z</time>
      </trkpt>
      <trkpt lat="45.55214" lon="6.8302">
        <ele>2461.4</ele>
        <time>2021-03-30T06:18:44Z</time>
      </trkpt>
      <trkpt lat="45.55214" lon="6.83021">
        <ele>2461.4</ele>
        <time>2021-03-30T06:18:45Z</time>
      </trkpt>
      <trkpt lat="45.55215" lon="6.83021">
        <ele>2461.4</ele>
        <time>2021-03-30T06:18:46Z</time>
      </trkpt>
      <trkpt lat="45.55215" lon="6.83022">
        <ele>2461.4</ele>
        <time>2021-03-30T06:18:47Z</time>
      </trkpt>
      <trkpt lat="45.55215" lon="6.83022">
        <ele>2461.4</ele>
        <time>2021-03-30T06:18:48Z</time>
      </trkpt>
      <trkpt lat="45.55215" lon="6.83023">
        <ele>2461.4</ele>
        <time>2021-03-30T06:18:49Z</time>
      </trkpt>
      <trkpt lat="45.55215" lon="6.83023">
        <ele>2461.4</ele>
        <time>2021-03-30T06:18:50Z</time>
      </trkpt>
      <trkpt lat="45.55215" lon="6.83024">
        <ele>2462.3</ele>
        <time>2021-03-30T06:18:51Z</time>
      </trkpt>
      <trkpt lat="45.55215" lon="6.83024">
        <ele>2462.3</ele>
        <time>2021-03-30T06:18:52Z</time>
      </trkpt>
      <trkpt lat="45.55215" lon="6.83025">
        <ele>2462.3</ele>
        <time>2021-03-30T06:18:53Z</time>
      </trkpt>
      <trkpt lat="45.55215" lon="6.83026">
        <ele>2462.3</ele>
        <time>2021-03-30T06:18:54Z</time>
      </trkpt>
      <trkpt lat="45.55215" lon="6.83026">
        <ele>2462.3</ele>
        <time>2021-03-30T06:18:55Z</time>
      </trkpt>
      <trkpt lat="45.55214" lon="6.83027">
        <ele>2462.3</ele>
        <time>2021-03-30T06:18:56Z</time>
      </trkpt>
      <trkpt lat="45.55214" lon="6.83027">
        <ele>2462.3</ele>
        <time>2021-03-30T06:18:57Z</time>
      </trkpt>
      <trkpt lat="45.55213" lon="6.83027">
        <ele>2462.7</ele>
        <time>2021-03-30T06:18:58Z</time>
      </trkpt>
      <trkpt lat="45.55213" lon="6.83027">
        <ele>2462.7</ele>
        <time>2021-03-30T06:18:59Z</time>
      </trkpt>
      <trkpt lat="45.55212" lon="6.83028">
        <ele>2462.7</ele>
        <time>2021-03-30T06:19:00Z</time>
      </trkpt>
      <trkpt lat="45.55212" lon="6.83028">
        <ele>2463.6</ele>
        <time>2021-03-30T06:19:01Z</time>
      </trkpt>
      <trkpt lat="45.55211" lon="6.83028">
        <ele>2463.6</ele>
        <time>2021-03-30T06:19:02Z</time>
      </trkpt>
      <trkpt lat="45.55211" lon="6.83029">
        <ele>2463.6</ele>
        <time>2021-03-30T06:19:03Z</time>
      </trkpt>
      <trkpt lat="45.5521" lon="6.83029">
        <ele>2464</ele>
        <time>2021-03-30T06:19:04Z</time>
      </trkpt>
      <trkpt lat="45.5521" lon="6.83029">
        <ele>2464</ele>
        <time>2021-03-30T06:19:05Z</time>
      </trkpt>
      <trkpt lat="45.55209" lon="6.83029">
        <ele>2464</ele>
        <time>2021-03-30T06:19:06Z</time>
      </trkpt>
      <trkpt lat="45.55208" lon="6.8303">
        <ele>2464</ele>
        <time>2021-03-30T06:19:07Z</time>
      </trkpt>
      <trkpt lat="45.55208" lon="6.83031">
        <ele>2464</ele>
        <time>2021-03-30T06:19:08Z</time>
      </trkpt>
      <trkpt lat="45.55207" lon="6.83031">
        <ele>2464.3</ele>
        <time>2021-03-30T06:19:09Z</time>
      </trkpt>
      <trkpt lat="45.55206" lon="6.83032">
        <ele>2465.2</ele>
        <time>2021-03-30T06:19:10Z</time>
      </trkpt>
      <trkpt lat="45.55206" lon="6.83033">
        <ele>2465.2</ele>
        <time>2021-03-30T06:19:11Z</time>
      </trkpt>
      <trkpt lat="45.55205" lon="6.83033">
        <ele>2465.2</ele>
        <time>2021-03-30T06:19:12Z</time>
      </trkpt>
      <trkpt lat="45.55205" lon="6.83033">
        <ele>2465.2</ele>
        <time>2021-03-30T06:19:13Z</time>
      </trkpt>
      <trkpt lat="45.55204" lon="6.83034">
        <ele>2465.6</ele>
        <time>2021-03-30T06:19:14Z</time>
      </trkpt>
      <trkpt lat="45.55204" lon="6.83034">
        <ele>2465.6</ele>
        <time>2021-03-30T06:19:15Z</time>
      </trkpt>
      <trkpt lat="45.55203" lon="6.83034">
        <ele>2465.6</ele>
        <time>2021-03-30T06:19:16Z</time>
      </trkpt>
      <trkpt lat="45.55203" lon="6.83034">
        <ele>2465.6</ele>
        <time>2021-03-30T06:19:17Z</time>
      </trkpt>
      <trkpt lat="45.55202" lon="6.83034">
        <ele>2465.6</ele>
        <time>2021-03-30T06:19:18Z</time>
      </trkpt>
      <trkpt lat="45.55202" lon="6.83034">
        <ele>2465.6</ele>
        <time>2021-03-30T06:19:19Z</time>
      </trkpt>
      <trkpt lat="45.55201" lon="6.83035">
        <ele>2465.9</ele>
        <time>2021-03-30T06:19:20Z</time>
      </trkpt>
      <trkpt lat="45.55201" lon="6.83035">
        <ele>2465.9</ele>
        <time>2021-03-30T06:19:21Z</time>
      </trkpt>
      <trkpt lat="45.55201" lon="6.83035">
        <ele>2465.9</ele>
        <time>2021-03-30T06:19:22Z</time>
      </trkpt>
      <trkpt lat="45.552" lon="6.83036">
        <ele>2465.9</ele>
        <time>2021-03-30T06:19:23Z</time>
      </trkpt>
      <trkpt lat="45.552" lon="6.83036">
        <ele>2465.9</ele>
        <time>2021-03-30T06:19:24Z</time>
      </trkpt>
      <trkpt lat="45.552" lon="6.83036">
        <ele>2466.8</ele>
        <time>2021-03-30T06:19:25Z</time>
      </trkpt>
      <trkpt lat="45.552" lon="6.83037">
        <ele>2466.8</ele>
        <time>2021-03-30T06:19:26Z</time>
      </trkpt>
      <trkpt lat="45.55199" lon="6.83037">
        <ele>2466.8</ele>
        <time>2021-03-30T06:19:27Z</time>
      </trkpt>
      <trkpt lat="45.55199" lon="6.83037">
        <ele>2466.8</ele>
        <time>2021-03-30T06:19:28Z</time>
      </trkpt>
      <trkpt lat="45.55199" lon="6.83038">
        <ele>2466.8</ele>
        <time>2021-03-30T06:19:29Z</time>
      </trkpt>
      <trkpt lat="45.55198" lon="6.83038">
        <ele>2467.3</ele>
        <time>2021-03-30T06:19:30Z</time>
      </trkpt>
      <trkpt lat="45.55198" lon="6.83038">
        <ele>2467.3</ele>
        <time>2021-03-30T06:19:31Z</time>
      </trkpt>
      <trkpt lat="45.55197" lon="6.83039">
        <ele>2467.3</ele>
        <time>2021-03-30T06:19:32Z</time>
      </trkpt>
      <trkpt lat="45.55197" lon="6.83039">
        <ele>2467.3</ele>
        <time>2021-03-30T06:19:33Z</time>
      </trkpt>
      <trkpt lat="45.55197" lon="6.83039">
        <ele>2467.3</ele>
        <time>2021-03-30T06:19:34Z</time>
      </trkpt>
      <trkpt lat="45.55196" lon="6.83039">
        <ele>2467.3</ele>
        <time>2021-03-30T06:19:35Z</time>
      </trkpt>
      <trkpt lat="45.55196" lon="6.8304">
        <ele>2467.3</ele>
        <time>2021-03-30T06:19:36Z</time>
      </trkpt>
      <trkpt lat="45.55196" lon="6.8304">
        <ele>2467.3</ele>
        <time>2021-03-30T06:19:37Z</time>
      </trkpt>
      <trkpt lat="45.55195" lon="6.8304">
        <ele>2467.7</ele>
        <time>2021-03-30T06:19:38Z</time>
      </trkpt>
      <trkpt lat="45.55195" lon="6.83041">
        <ele>2468.6</ele>
        <time>2021-03-30T06:19:39Z</time>
      </trkpt>
      <trkpt lat="45.55195" lon="6.83041">
        <ele>2468.6</ele>
        <time>2021-03-30T06:19:40Z</time>
      </trkpt>
      <trkpt lat="45.55195" lon="6.83042">
        <ele>2468.6</ele>
        <time>2021-03-30T06:19:41Z</time>
      </trkpt>
      <trkpt lat="45.55194" lon="6.83042">
        <ele>2468.6</ele>
        <time>2021-03-30T06:19:42Z</time>
      </trkpt>
      <trkpt lat="45.55194" lon="6.83042">
        <ele>2468.6</ele>
        <time>2021-03-30T06:19:43Z</time>
      </trkpt>
      <trkpt lat="45.55193" lon="6.83043">
        <ele>2468.6</ele>
        <time>2021-03-30T06:19:44Z</time>
      </trkpt>
      <trkpt lat="45.55193" lon="6.83043">
        <ele>2468.6</ele>
        <time>2021-03-30T06:19:45Z</time>
      </trkpt>
      <trkpt lat="45.55193" lon="6.83044">
        <ele>2468.6</ele>
        <time>2021-03-30T06:19:46Z</time>
      </trkpt>
      <trkpt lat="45.55192" lon="6.83044">
        <ele>2469.1</ele>
        <time>2021-03-30T06:19:47Z</time>
      </trkpt>
      <trkpt lat="45.55192" lon="6.83045">
        <ele>2469.1</ele>
        <time>2021-03-30T06:19:48Z</time>
      </trkpt>
      <trkpt lat="45.55191" lon="6.83045">
        <ele>2470</ele>
        <time>2021-03-30T06:19:49Z</time>
      </trkpt>
      <trkpt lat="45.55191" lon="6.83046">
        <ele>2470</ele>
        <time>2021-03-30T06:19:50Z</time>
      </trkpt>
      <trkpt lat="45.5519" lon="6.83046">
        <ele>2470</ele>
        <time>2021-03-30T06:19:51Z</time>
      </trkpt>
      <trkpt lat="45.5519" lon="6.83046">
        <ele>2470</ele>
        <time>2021-03-30T06:19:52Z</time>
      </trkpt>
      <trkpt lat="45.55189" lon="6.83047">
        <ele>2470.5</ele>
        <time>2021-03-30T06:19:53Z</time>
      </trkpt>
      <trkpt lat="45.55189" lon="6.83047">
        <ele>2470.5</ele>
        <time>2021-03-30T06:19:54Z</time>
      </trkpt>
      <trkpt lat="45.55189" lon="6.83048">
        <ele>2470.5</ele>
        <time>2021-03-30T06:19:55Z</time>
      </trkpt>
      <trkpt lat="45.55188" lon="6.83049">
        <ele>2470.5</ele>
        <time>2021-03-30T06:19:56Z</time>
      </trkpt>
      <trkpt lat="45.55188" lon="6.83049">
        <ele>2470.5</ele>
        <time>2021-03-30T06:19:57Z</time>
      </trkpt>
      <trkpt lat="45.55187" lon="6.83049">
        <ele>2471.5</ele>
        <time>2021-03-30T06:19:58Z</time>
      </trkpt>
      <trkpt lat="45.55187" lon="6.8305">
        <ele>2471.5</ele>
        <time>2021-03-30T06:19:59Z</time>
      </trkpt>
      <trkpt lat="45.55186" lon="6.83051">
        <ele>2471.9</ele>
        <time>2021-03-30T06:20:00Z</time>
      </trkpt>
      <trkpt lat="45.55186" lon="6.83051">
        <ele>2471.9</ele>
        <time>2021-03-30T06:20:01Z</time>
      </trkpt>
      <trkpt lat="45.55185" lon="6.83052">
        <ele>2471.9</ele>
        <time>2021-03-30T06:20:02Z</time>
      </trkpt>
      <trkpt lat="45.55185" lon="6.83052">
        <ele>2471.9</ele>
        <time>2021-03-30T06:20:03Z</time>
      </trkpt>
      <trkpt lat="45.55184" lon="6.83053">
        <ele>2471.9</ele>
        <time>2021-03-30T06:20:04Z</time>
      </trkpt>
      <trkpt lat="45.55184" lon="6.83053">
        <ele>2471.9</ele>
        <time>2021-03-30T06:20:05Z</time>
      </trkpt>
      <trkpt lat="45.55183" lon="6.83054">
        <ele>2473.3</ele>
        <time>2021-03-30T06:20:06Z</time>
      </trkpt>
      <trkpt lat="45.55183" lon="6.83054">
        <ele>2473.3</ele>
        <time>2021-03-30T06:20:07Z</time>
      </trkpt>
      <trkpt lat="45.55182" lon="6.83055">
        <ele>2473.3</ele>
        <time>2021-03-30T06:20:08Z</time>
      </trkpt>
      <trkpt lat="45.55181" lon="6.83055">
        <ele>2473.3</ele>
        <time>2021-03-30T06:20:09Z</time>
      </trkpt>
      <trkpt lat="45.55181" lon="6.83056">
        <ele>2473.3</ele>
        <time>2021-03-30T06:20:10Z</time>
      </trkpt>
      <trkpt lat="45.5518" lon="6.83056">
        <ele>2473.8</ele>
        <time>2021-03-30T06:20:11Z</time>
      </trkpt>
      <trkpt lat="45.5518" lon="6.83056">
        <ele>2473.8</ele>
        <time>2021-03-30T06:20:12Z</time>
      </trkpt>
      <trkpt lat="45.55179" lon="6.83057">
        <ele>2473.8</ele>
        <time>2021-03-30T06:20:13Z</time>
      </trkpt>
      <trkpt lat="45.55178" lon="6.83057">
        <ele>2473.8</ele>
        <time>2021-03-30T06:20:14Z</time>
      </trkpt>
      <trkpt lat="45.55178" lon="6.83057">
        <ele>2473.8</ele>
        <time>2021-03-30T06:20:15Z</time>
      </trkpt>
      <trkpt lat="45.55177" lon="6.83057">
        <ele>2474.2</ele>
        <time>2021-03-30T06:20:16Z</time>
      </trkpt>
      <trkpt lat="45.55177" lon="6.83057">
        <ele>2474.2</ele>
        <time>2021-03-30T06:20:17Z</time>
      </trkpt>
      <trkpt lat="45.55176" lon="6.83058">
        <ele>2474.2</ele>
        <time>2021-03-30T06:20:18Z</time>
      </trkpt>
      <trkpt lat="45.55175" lon="6.83057">
        <ele>2474.2</ele>
        <time>2021-03-30T06:20:19Z</time>
      </trkpt>
      <trkpt lat="45.55175" lon="6.83057">
        <ele>2474.2</ele>
        <time>2021-03-30T06:20:20Z</time>
      </trkpt>
      <trkpt lat="45.55174" lon="6.83057">
        <ele>2474.7</ele>
        <time>2021-03-30T06:20:21Z</time>
      </trkpt>
      <trkpt lat="45.55174" lon="6.83056">
        <ele>2474.7</ele>
        <time>2021-03-30T06:20:22Z</time>
      </trkpt>
      <trkpt lat="45.55173" lon="6.83056">
        <ele>2474.7</ele>
        <time>2021-03-30T06:20:23Z</time>
      </trkpt>
      <trkpt lat="45.55173" lon="6.83056">
        <ele>2474.7</ele>
        <time>2021-03-30T06:20:24Z</time>
      </trkpt>
      <trkpt lat="45.55172" lon="6.83056">
        <ele>2474.7</ele>
        <time>2021-03-30T06:20:25Z</time>
      </trkpt>
      <trkpt lat="45.55171" lon="6.83056">
        <ele>2474.7</ele>
        <time>2021-03-30T06:20:26Z</time>
      </trkpt>
      <trkpt lat="45.55171" lon="6.83056">
        <ele>2475.2</ele>
        <time>2021-03-30T06:20:27Z</time>
      </trkpt>
      <trkpt lat="45.55171" lon="6.83057">
        <ele>2475.2</ele>
        <time>2021-03-30T06:20:28Z</time>
      </trkpt>
      <trkpt lat="45.5517" lon="6.83057">
        <ele>2475.2</ele>
        <time>2021-03-30T06:20:29Z</time>
      </trkpt>
      <trkpt lat="45.5517" lon="6.83058">
        <ele>2476.2</ele>
        <time>2021-03-30T06:20:30Z</time>
      </trkpt>
      <trkpt lat="45.5517" lon="6.83059">
        <ele>2476.2</ele>
        <time>2021-03-30T06:20:31Z</time>
      </trkpt>
      <trkpt lat="45.55169" lon="6.8306">
        <ele>2476.2</ele>
        <time>2021-03-30T06:20:32Z</time>
      </trkpt>
      <trkpt lat="45.55169" lon="6.8306">
        <ele>2476.2</ele>
        <time>2021-03-30T06:20:33Z</time>
      </trkpt>
      <trkpt lat="45.55169" lon="6.83062">
        <ele>2476.2</ele>
        <time>2021-03-30T06:20:34Z</time>
      </trkpt>
      <trkpt lat="45.55169" lon="6.83062">
        <ele>2477.1</ele>
        <time>2021-03-30T06:20:35Z</time>
      </trkpt>
      <trkpt lat="45.55169" lon="6.83063">
        <ele>2477.1</ele>
        <time>2021-03-30T06:20:36Z</time>
      </trkpt>
      <trkpt lat="45.55169" lon="6.83064">
        <ele>2477.1</ele>
        <time>2021-03-30T06:20:37Z</time>
      </trkpt>
      <trkpt lat="45.55169" lon="6.83065">
        <ele>2477.1</ele>
        <time>2021-03-30T06:20:38Z</time>
      </trkpt>
      <trkpt lat="45.55168" lon="6.83065">
        <ele>2477.1</ele>
        <time>2021-03-30T06:20:39Z</time>
      </trkpt>
      <trkpt lat="45.55168" lon="6.83066">
        <ele>2478.6</ele>
        <time>2021-03-30T06:20:40Z</time>
      </trkpt>
      <trkpt lat="45.55168" lon="6.83067">
        <ele>2478.6</ele>
        <time>2021-03-30T06:20:41Z</time>
      </trkpt>
      <trkpt lat="45.55168" lon="6.83068">
        <ele>2478.6</ele>
        <time>2021-03-30T06:20:42Z</time>
      </trkpt>
      <trkpt lat="45.55168" lon="6.83069">
        <ele>2478.6</ele>
        <time>2021-03-30T06:20:43Z</time>
      </trkpt>
      <trkpt lat="45.55168" lon="6.8307">
        <ele>2478.1</ele>
        <time>2021-03-30T06:20:44Z</time>
      </trkpt>
      <trkpt lat="45.55169" lon="6.8307">
        <ele>2478.1</ele>
        <time>2021-03-30T06:20:45Z</time>
      </trkpt>
      <trkpt lat="45.55169" lon="6.83071">
        <ele>2478.9</ele>
        <time>2021-03-30T06:20:46Z</time>
      </trkpt>
      <trkpt lat="45.55169" lon="6.83072">
        <ele>2478.9</ele>
        <time>2021-03-30T06:20:47Z</time>
      </trkpt>
      <trkpt lat="45.55169" lon="6.83073">
        <ele>2478.9</ele>
        <time>2021-03-30T06:20:48Z</time>
      </trkpt>
      <trkpt lat="45.55169" lon="6.83074">
        <ele>2478.9</ele>
        <time>2021-03-30T06:20:49Z</time>
      </trkpt>
      <trkpt lat="45.55169" lon="6.83075">
        <ele>2478.9</ele>
        <time>2021-03-30T06:20:50Z</time>
      </trkpt>
      <trkpt lat="45.55168" lon="6.83075">
        <ele>2479.8</ele>
        <time>2021-03-30T06:20:51Z</time>
      </trkpt>
      <trkpt lat="45.55168" lon="6.83076">
        <ele>2480.2</ele>
        <time>2021-03-30T06:20:52Z</time>
      </trkpt>
      <trkpt lat="45.55168" lon="6.83077">
        <ele>2480.2</ele>
        <time>2021-03-30T06:20:53Z</time>
      </trkpt>
      <trkpt lat="45.55167" lon="6.83077">
        <ele>2480.2</ele>
        <time>2021-03-30T06:20:54Z</time>
      </trkpt>
      <trkpt lat="45.55167" lon="6.83078">
        <ele>2480.2</ele>
        <time>2021-03-30T06:20:55Z</time>
      </trkpt>
      <trkpt lat="45.55166" lon="6.83079">
        <ele>2481</ele>
        <time>2021-03-30T06:20:56Z</time>
      </trkpt>
      <trkpt lat="45.55166" lon="6.83081">
        <ele>2481</ele>
        <time>2021-03-30T06:20:57Z</time>
      </trkpt>
      <trkpt lat="45.55165" lon="6.83082">
        <ele>2481.5</ele>
        <time>2021-03-30T06:20:58Z</time>
      </trkpt>
      <trkpt lat="45.55165" lon="6.83083">
        <ele>2481.5</ele>
        <time>2021-03-30T06:20:59Z</time>
      </trkpt>
      <trkpt lat="45.55165" lon="6.83083">
        <ele>2481.5</ele>
        <time>2021-03-30T06:21:00Z</time>
      </trkpt>
      <trkpt lat="45.55165" lon="6.83084">
        <ele>2482.3</ele>
        <time>2021-03-30T06:21:01Z</time>
      </trkpt>
      <trkpt lat="45.55165" lon="6.83085">
        <ele>2482.3</ele>
        <time>2021-03-30T06:21:02Z</time>
      </trkpt>
      <trkpt lat="45.55165" lon="6.83086">
        <ele>2482.3</ele>
        <time>2021-03-30T06:21:03Z</time>
      </trkpt>
      <trkpt lat="45.55165" lon="6.83086">
        <ele>2482.3</ele>
        <time>2021-03-30T06:21:04Z</time>
      </trkpt>
      <trkpt lat="45.55165" lon="6.83087">
        <ele>2482.3</ele>
        <time>2021-03-30T06:21:05Z</time>
      </trkpt>
      <trkpt lat="45.55165" lon="6.83088">
        <ele>2483.1</ele>
        <time>2021-03-30T06:21:06Z</time>
      </trkpt>
      <trkpt lat="45.55165" lon="6.83089">
        <ele>2483.1</ele>
        <time>2021-03-30T06:21:07Z</time>
      </trkpt>
      <trkpt lat="45.55165" lon="6.8309">
        <ele>2483.1</ele>
        <time>2021-03-30T06:21:08Z</time>
      </trkpt>
      <trkpt lat="45.55165" lon="6.83091">
        <ele>2483.1</ele>
        <time>2021-03-30T06:21:09Z</time>
      </trkpt>
      <trkpt lat="45.55165" lon="6.83091">
        <ele>2483.1</ele>
        <time>2021-03-30T06:21:10Z</time>
      </trkpt>
      <trkpt lat="45.55165" lon="6.83092">
        <ele>2483.8</ele>
        <time>2021-03-30T06:21:11Z</time>
      </trkpt>
      <trkpt lat="45.55164" lon="6.83093">
        <ele>2483.8</ele>
        <time>2021-03-30T06:21:12Z</time>
      </trkpt>
      <trkpt lat="45.55164" lon="6.83094">
        <ele>2483.8</ele>
        <time>2021-03-30T06:21:13Z</time>
      </trkpt>
      <trkpt lat="45.55164" lon="6.83095">
        <ele>2483.8</ele>
        <time>2021-03-30T06:21:14Z</time>
      </trkpt>
      <trkpt lat="45.55164" lon="6.83096">
        <ele>2483.8</ele>
        <time>2021-03-30T06:21:15Z</time>
      </trkpt>
      <trkpt lat="45.55164" lon="6.83097">
        <ele>2484.6</ele>
        <time>2021-03-30T06:21:16Z</time>
      </trkpt>
      <trkpt lat="45.55164" lon="6.83098">
        <ele>2484.6</ele>
        <time>2021-03-30T06:21:17Z</time>
      </trkpt>
      <trkpt lat="45.55164" lon="6.83099">
        <ele>2484.6</ele>
        <time>2021-03-30T06:21:18Z</time>
      </trkpt>
      <trkpt lat="45.55164" lon="6.831">
        <ele>2484.6</ele>
        <time>2021-03-30T06:21:19Z</time>
      </trkpt>
      <trkpt lat="45.55164" lon="6.83101">
        <ele>2485.4</ele>
        <time>2021-03-30T06:21:20Z</time>
      </trkpt>
      <trkpt lat="45.55164" lon="6.83102">
        <ele>2485.4</ele>
        <time>2021-03-30T06:21:21Z</time>
      </trkpt>
      <trkpt lat="45.55164" lon="6.83103">
        <ele>2485.4</ele>
        <time>2021-03-30T06:21:22Z</time>
      </trkpt>
      <trkpt lat="45.55164" lon="6.83103">
        <ele>2485.4</ele>
        <time>2021-03-30T06:21:23Z</time>
      </trkpt>
      <trkpt lat="45.55164" lon="6.83103">
        <ele>2485.4</ele>
        <time>2021-03-30T06:21:24Z</time>
      </trkpt>
      <trkpt lat="45.55164" lon="6.83104">
        <ele>2485.4</ele>
        <time>2021-03-30T06:21:25Z</time>
      </trkpt>
      <trkpt lat="45.55163" lon="6.83104">
        <ele>2485.4</ele>
        <time>2021-03-30T06:21:26Z</time>
      </trkpt>
      <trkpt lat="45.55163" lon="6.83104">
        <ele>2485.4</ele>
        <time>2021-03-30T06:21:27Z</time>
      </trkpt>
      <trkpt lat="45.55162" lon="6.83104">
        <ele>2485.8</ele>
        <time>2021-03-30T06:21:28Z</time>
      </trkpt>
      <trkpt lat="45.55162" lon="6.83104">
        <ele>2485.8</ele>
        <time>2021-03-30T06:21:29Z</time>
      </trkpt>
      <trkpt lat="45.55161" lon="6.83104">
        <ele>2485.8</ele>
        <time>2021-03-30T06:21:30Z</time>
      </trkpt>
      <trkpt lat="45.5516" lon="6.83104">
        <ele>2485.8</ele>
        <time>2021-03-30T06:21:31Z</time>
      </trkpt>
      <trkpt lat="45.55159" lon="6.83104">
        <ele>2486.3</ele>
        <time>2021-03-30T06:21:32Z</time>
      </trkpt>
      <trkpt lat="45.55158" lon="6.83104">
        <ele>2486.3</ele>
        <time>2021-03-30T06:21:33Z</time>
      </trkpt>
      <trkpt lat="45.55158" lon="6.83104">
        <ele>2486.3</ele>
        <time>2021-03-30T06:21:34Z</time>
      </trkpt>
      <trkpt lat="45.55157" lon="6.83104">
        <ele>2486.3</ele>
        <time>2021-03-30T06:21:35Z</time>
      </trkpt>
      <trkpt lat="45.55156" lon="6.83104">
        <ele>2486.7</ele>
        <time>2021-03-30T06:21:36Z</time>
      </trkpt>
      <trkpt lat="45.55155" lon="6.83104">
        <ele>2486.7</ele>
        <time>2021-03-30T06:21:37Z</time>
      </trkpt>
      <trkpt lat="45.55155" lon="6.83104">
        <ele>2486.7</ele>
        <time>2021-03-30T06:21:38Z</time>
      </trkpt>
      <trkpt lat="45.55154" lon="6.83103">
        <ele>2486.7</ele>
        <time>2021-03-30T06:21:39Z</time>
      </trkpt>
      <trkpt lat="45.55153" lon="6.83103">
        <ele>2487.1</ele>
        <time>2021-03-30T06:21:40Z</time>
      </trkpt>
      <trkpt lat="45.55152" lon="6.83103">
        <ele>2487.1</ele>
        <time>2021-03-30T06:21:41Z</time>
      </trkpt>
      <trkpt lat="45.55152" lon="6.83103">
        <ele>2487.1</ele>
        <time>2021-03-30T06:21:42Z</time>
      </trkpt>
      <trkpt lat="45.55151" lon="6.83103">
        <ele>2487.1</ele>
        <time>2021-03-30T06:21:43Z</time>
      </trkpt>
      <trkpt lat="45.5515" lon="6.83103">
        <ele>2487.6</ele>
        <time>2021-03-30T06:21:44Z</time>
      </trkpt>
      <trkpt lat="45.5515" lon="6.83103">
        <ele>2487.6</ele>
        <time>2021-03-30T06:21:45Z</time>
      </trkpt>
      <trkpt lat="45.55149" lon="6.83103">
        <ele>2487.6</ele>
        <time>2021-03-30T06:21:46Z</time>
      </trkpt>
      <trkpt lat="45.55149" lon="6.83103">
        <ele>2487.6</ele>
        <time>2021-03-30T06:21:47Z</time>
      </trkpt>
      <trkpt lat="45.55148" lon="6.83103">
        <ele>2487.6</ele>
        <time>2021-03-30T06:21:48Z</time>
      </trkpt>
      <trkpt lat="45.55147" lon="6.83103">
        <ele>2488.1</ele>
        <time>2021-03-30T06:21:49Z</time>
      </trkpt>
      <trkpt lat="45.55146" lon="6.83103">
        <ele>2488.1</ele>
        <time>2021-03-30T06:21:50Z</time>
      </trkpt>
      <trkpt lat="45.55146" lon="6.83102">
        <ele>2488.1</ele>
        <time>2021-03-30T06:21:51Z</time>
      </trkpt>
      <trkpt lat="45.55145" lon="6.83102">
        <ele>2488.1</ele>
        <time>2021-03-30T06:21:52Z</time>
      </trkpt>
      <trkpt lat="45.55145" lon="6.83102">
        <ele>2488.1</ele>
        <time>2021-03-30T06:21:53Z</time>
      </trkpt>
      <trkpt lat="45.55144" lon="6.83101">
        <ele>2488.6</ele>
        <time>2021-03-30T06:21:54Z</time>
      </trkpt>
      <trkpt lat="45.55144" lon="6.83101">
        <ele>2488.6</ele>
        <time>2021-03-30T06:21:55Z</time>
      </trkpt>
      <trkpt lat="45.55143" lon="6.83101">
        <ele>2488.6</ele>
        <time>2021-03-30T06:21:56Z</time>
      </trkpt>
      <trkpt lat="45.55143" lon="6.831">
        <ele>2487.9</ele>
        <time>2021-03-30T06:21:57Z</time>
      </trkpt>
      <trkpt lat="45.55142" lon="6.831">
        <ele>2487.9</ele>
        <time>2021-03-30T06:21:58Z</time>
      </trkpt>
      <trkpt lat="45.55141" lon="6.831">
        <ele>2488.4</ele>
        <time>2021-03-30T06:21:59Z</time>
      </trkpt>
      <trkpt lat="45.55141" lon="6.83099">
        <ele>2488.4</ele>
        <time>2021-03-30T06:22:00Z</time>
      </trkpt>
      <trkpt lat="45.5514" lon="6.83099">
        <ele>2488.4</ele>
        <time>2021-03-30T06:22:01Z</time>
      </trkpt>
      <trkpt lat="45.5514" lon="6.83099">
        <ele>2488.4</ele>
        <time>2021-03-30T06:22:02Z</time>
      </trkpt>
      <trkpt lat="45.55139" lon="6.83098">
        <ele>2488.4</ele>
        <time>2021-03-30T06:22:03Z</time>
      </trkpt>
      <trkpt lat="45.55139" lon="6.83098">
        <ele>2488.4</ele>
        <time>2021-03-30T06:22:04Z</time>
      </trkpt>
      <trkpt lat="45.55138" lon="6.83097">
        <ele>2488.9</ele>
        <time>2021-03-30T06:22:05Z</time>
      </trkpt>
      <trkpt lat="45.55138" lon="6.83097">
        <ele>2488.9</ele>
        <time>2021-03-30T06:22:06Z</time>
      </trkpt>
      <trkpt lat="45.55137" lon="6.83097">
        <ele>2488.9</ele>
        <time>2021-03-30T06:22:07Z</time>
      </trkpt>
      <trkpt lat="45.55137" lon="6.83097">
        <ele>2488.9</ele>
        <time>2021-03-30T06:22:08Z</time>
      </trkpt>
      <trkpt lat="45.55136" lon="6.83096">
        <ele>2488.2</ele>
        <time>2021-03-30T06:22:09Z</time>
      </trkpt>
      <trkpt lat="45.55135" lon="6.83096">
        <ele>2488.7</ele>
        <time>2021-03-30T06:22:10Z</time>
      </trkpt>
      <trkpt lat="45.55135" lon="6.83095">
        <ele>2488.7</ele>
        <time>2021-03-30T06:22:11Z</time>
      </trkpt>
      <trkpt lat="45.55134" lon="6.83095">
        <ele>2488.7</ele>
        <time>2021-03-30T06:22:12Z</time>
      </trkpt>
      <trkpt lat="45.55133" lon="6.83095">
        <ele>2488.7</ele>
        <time>2021-03-30T06:22:13Z</time>
      </trkpt>
      <trkpt lat="45.55133" lon="6.83094">
        <ele>2488.7</ele>
        <time>2021-03-30T06:22:14Z</time>
      </trkpt>
      <trkpt lat="45.55132" lon="6.83094">
        <ele>2489.2</ele>
        <time>2021-03-30T06:22:15Z</time>
      </trkpt>
      <trkpt lat="45.55131" lon="6.83094">
        <ele>2489.2</ele>
        <time>2021-03-30T06:22:16Z</time>
      </trkpt>
      <trkpt lat="45.5513" lon="6.83093">
        <ele>2489.2</ele>
        <time>2021-03-30T06:22:17Z</time>
      </trkpt>
      <trkpt lat="45.5513" lon="6.83093">
        <ele>2489.2</ele>
        <time>2021-03-30T06:22:18Z</time>
      </trkpt>
      <trkpt lat="45.55129" lon="6.83093">
        <ele>2489.6</ele>
        <time>2021-03-30T06:22:19Z</time>
      </trkpt>
      <trkpt lat="45.55128" lon="6.83093">
        <ele>2489.6</ele>
        <time>2021-03-30T06:22:20Z</time>
      </trkpt>
      <trkpt lat="45.55128" lon="6.83093">
        <ele>2489.6</ele>
        <time>2021-03-30T06:22:21Z</time>
      </trkpt>
      <trkpt lat="45.55127" lon="6.83093">
        <ele>2489.6</ele>
        <time>2021-03-30T06:22:22Z</time>
      </trkpt>
      <trkpt lat="45.55127" lon="6.83093">
        <ele>2489.6</ele>
        <time>2021-03-30T06:22:23Z</time>
      </trkpt>
      <trkpt lat="45.55126" lon="6.83093">
        <ele>2490.1</ele>
        <time>2021-03-30T06:22:24Z</time>
      </trkpt>
      <trkpt lat="45.55126" lon="6.83093">
        <ele>2490.1</ele>
        <time>2021-03-30T06:22:25Z</time>
      </trkpt>
      <trkpt lat="45.55125" lon="6.83093">
        <ele>2490.1</ele>
        <time>2021-03-30T06:22:26Z</time>
      </trkpt>
      <trkpt lat="45.55125" lon="6.83094">
        <ele>2490.1</ele>
        <time>2021-03-30T06:22:27Z</time>
      </trkpt>
      <trkpt lat="45.55124" lon="6.83094">
        <ele>2490.1</ele>
        <time>2021-03-30T06:22:28Z</time>
      </trkpt>
      <trkpt lat="45.55124" lon="6.83095">
        <ele>2490.1</ele>
        <time>2021-03-30T06:22:29Z</time>
      </trkpt>
      <trkpt lat="45.55123" lon="6.83096">
        <ele>2490.4</ele>
        <time>2021-03-30T06:22:30Z</time>
      </trkpt>
      <trkpt lat="45.55123" lon="6.83097">
        <ele>2491</ele>
        <time>2021-03-30T06:22:31Z</time>
      </trkpt>
      <trkpt lat="45.55123" lon="6.83097">
        <ele>2491</ele>
        <time>2021-03-30T06:22:32Z</time>
      </trkpt>
      <trkpt lat="45.55122" lon="6.83098">
        <ele>2491</ele>
        <time>2021-03-30T06:22:33Z</time>
      </trkpt>
      <trkpt lat="45.55122" lon="6.83099">
        <ele>2491</ele>
        <time>2021-03-30T06:22:34Z</time>
      </trkpt>
      <trkpt lat="45.55122" lon="6.831">
        <ele>2491</ele>
        <time>2021-03-30T06:22:35Z</time>
      </trkpt>
      <trkpt lat="45.55121" lon="6.831">
        <ele>2491</ele>
        <time>2021-03-30T06:22:36Z</time>
      </trkpt>
      <trkpt lat="45.55121" lon="6.83101">
        <ele>2491.6</ele>
        <time>2021-03-30T06:22:37Z</time>
      </trkpt>
      <trkpt lat="45.55121" lon="6.83102">
        <ele>2491.6</ele>
        <time>2021-03-30T06:22:38Z</time>
      </trkpt>
      <trkpt lat="45.55121" lon="6.83102">
        <ele>2491.6</ele>
        <time>2021-03-30T06:22:39Z</time>
      </trkpt>
      <trkpt lat="45.55121" lon="6.83103">
        <ele>2491.6</ele>
        <time>2021-03-30T06:22:40Z</time>
      </trkpt>
      <trkpt lat="45.55121" lon="6.83104">
        <ele>2491.6</ele>
        <time>2021-03-30T06:22:41Z</time>
      </trkpt>
      <trkpt lat="45.55121" lon="6.83104">
        <ele>2491.6</ele>
        <time>2021-03-30T06:22:42Z</time>
      </trkpt>
      <trkpt lat="45.55121" lon="6.83105">
        <ele>2492.1</ele>
        <time>2021-03-30T06:22:43Z</time>
      </trkpt>
      <trkpt lat="45.5512" lon="6.83106">
        <ele>2492.1</ele>
        <time>2021-03-30T06:22:44Z</time>
      </trkpt>
      <trkpt lat="45.5512" lon="6.83108">
        <ele>2492.4</ele>
        <time>2021-03-30T06:22:45Z</time>
      </trkpt>
      <trkpt lat="45.5512" lon="6.83108">
        <ele>2492.4</ele>
        <time>2021-03-30T06:22:46Z</time>
      </trkpt>
      <trkpt lat="45.5512" lon="6.83109">
        <ele>2493</ele>
        <time>2021-03-30T06:22:47Z</time>
      </trkpt>
      <trkpt lat="45.5512" lon="6.8311">
        <ele>2493</ele>
        <time>2021-03-30T06:22:48Z</time>
      </trkpt>
      <trkpt lat="45.55119" lon="6.83111">
        <ele>2493</ele>
        <time>2021-03-30T06:22:49Z</time>
      </trkpt>
      <trkpt lat="45.55119" lon="6.83112">
        <ele>2493</ele>
        <time>2021-03-30T06:22:50Z</time>
      </trkpt>
      <trkpt lat="45.55119" lon="6.83113">
        <ele>2493</ele>
        <time>2021-03-30T06:22:51Z</time>
      </trkpt>
      <trkpt lat="45.55119" lon="6.83114">
        <ele>2493.5</ele>
        <time>2021-03-30T06:22:52Z</time>
      </trkpt>
      <trkpt lat="45.55119" lon="6.83115">
        <ele>2493.5</ele>
        <time>2021-03-30T06:22:53Z</time>
      </trkpt>
      <trkpt lat="45.55118" lon="6.83116">
        <ele>2493.5</ele>
        <time>2021-03-30T06:22:54Z</time>
      </trkpt>
      <trkpt lat="45.55118" lon="6.83117">
        <ele>2493.5</ele>
        <time>2021-03-30T06:22:55Z</time>
      </trkpt>
      <trkpt lat="45.55118" lon="6.83118">
        <ele>2493.5</ele>
        <time>2021-03-30T06:22:56Z</time>
      </trkpt>
      <trkpt lat="45.55117" lon="6.83119">
        <ele>2494</ele>
        <time>2021-03-30T06:22:57Z</time>
      </trkpt>
      <trkpt lat="45.55117" lon="6.8312">
        <ele>2494.2</ele>
        <time>2021-03-30T06:22:58Z</time>
      </trkpt>
      <trkpt lat="45.55117" lon="6.83121">
        <ele>2494.2</ele>
        <time>2021-03-30T06:22:59Z</time>
      </trkpt>
      <trkpt lat="45.55117" lon="6.83122">
        <ele>2494.2</ele>
        <time>2021-03-30T06:23:00Z</time>
      </trkpt>
      <trkpt lat="45.55116" lon="6.83123">
        <ele>2494.7</ele>
        <time>2021-03-30T06:23:01Z</time>
      </trkpt>
      <trkpt lat="45.55116" lon="6.83124">
        <ele>2494.7</ele>
        <time>2021-03-30T06:23:02Z</time>
      </trkpt>
      <trkpt lat="45.55116" lon="6.83125">
        <ele>2494.7</ele>
        <time>2021-03-30T06:23:03Z</time>
      </trkpt>
      <trkpt lat="45.55115" lon="6.83126">
        <ele>2494.7</ele>
        <time>2021-03-30T06:23:04Z</time>
      </trkpt>
      <trkpt lat="45.55115" lon="6.83127">
        <ele>2495.1</ele>
        <time>2021-03-30T06:23:05Z</time>
      </trkpt>
      <trkpt lat="45.55115" lon="6.83128">
        <ele>2495.1</ele>
        <time>2021-03-30T06:23:06Z</time>
      </trkpt>
      <trkpt lat="45.55115" lon="6.83129">
        <ele>2495.1</ele>
        <time>2021-03-30T06:23:07Z</time>
      </trkpt>
      <trkpt lat="45.55115" lon="6.83131">
        <ele>2495.1</ele>
        <time>2021-03-30T06:23:08Z</time>
      </trkpt>
      <trkpt lat="45.55115" lon="6.83131">
        <ele>2495.6</ele>
        <time>2021-03-30T06:23:09Z</time>
      </trkpt>
      <trkpt lat="45.55114" lon="6.83132">
        <ele>2495.6</ele>
        <time>2021-03-30T06:23:10Z</time>
      </trkpt>
      <trkpt lat="45.55114" lon="6.83133">
        <ele>2495.6</ele>
        <time>2021-03-30T06:23:11Z</time>
      </trkpt>
      <trkpt lat="45.55114" lon="6.83134">
        <ele>2495.6</ele>
        <time>2021-03-30T06:23:12Z</time>
      </trkpt>
      <trkpt lat="45.55114" lon="6.83135">
        <ele>2495.6</ele>
        <time>2021-03-30T06:23:13Z</time>
      </trkpt>
      <trkpt lat="45.55114" lon="6.83136">
        <ele>2496.2</ele>
        <time>2021-03-30T06:23:14Z</time>
      </trkpt>
      <trkpt lat="45.55114" lon="6.83137">
        <ele>2496.2</ele>
        <time>2021-03-30T06:23:15Z</time>
      </trkpt>
      <trkpt lat="45.55114" lon="6.83138">
        <ele>2496.2</ele>
        <time>2021-03-30T06:23:16Z</time>
      </trkpt>
      <trkpt lat="45.55113" lon="6.83139">
        <ele>2496.2</ele>
        <time>2021-03-30T06:23:17Z</time>
      </trkpt>
      <trkpt lat="45.55113" lon="6.8314">
        <ele>2496.7</ele>
        <time>2021-03-30T06:23:18Z</time>
      </trkpt>
      <trkpt lat="45.55113" lon="6.83141">
        <ele>2496.7</ele>
        <time>2021-03-30T06:23:19Z</time>
      </trkpt>
      <trkpt lat="45.55113" lon="6.83142">
        <ele>2496.7</ele>
        <time>2021-03-30T06:23:20Z</time>
      </trkpt>
      <trkpt lat="45.55113" lon="6.83143">
        <ele>2496.7</ele>
        <time>2021-03-30T06:23:21Z</time>
      </trkpt>
      <trkpt lat="45.55112" lon="6.83144">
        <ele>2497.2</ele>
        <time>2021-03-30T06:23:22Z</time>
      </trkpt>
      <trkpt lat="45.55112" lon="6.83145">
        <ele>2497.2</ele>
        <time>2021-03-30T06:23:23Z</time>
      </trkpt>
      <trkpt lat="45.55112" lon="6.83145">
        <ele>2497.2</ele>
        <time>2021-03-30T06:23:24Z</time>
      </trkpt>
      <trkpt lat="45.55112" lon="6.83146">
        <ele>2497.2</ele>
        <time>2021-03-30T06:23:25Z</time>
      </trkpt>
      <trkpt lat="45.55112" lon="6.83147">
        <ele>2497.2</ele>
        <time>2021-03-30T06:23:26Z</time>
      </trkpt>
      <trkpt lat="45.55111" lon="6.83148">
        <ele>2497.8</ele>
        <time>2021-03-30T06:23:27Z</time>
      </trkpt>
      <trkpt lat="45.55111" lon="6.83149">
        <ele>2497.9</ele>
        <time>2021-03-30T06:23:28Z</time>
      </trkpt>
      <trkpt lat="45.55111" lon="6.8315">
        <ele>2497.9</ele>
        <time>2021-03-30T06:23:29Z</time>
      </trkpt>
      <trkpt lat="45.55111" lon="6.83152">
        <ele>2497.9</ele>
        <time>2021-03-30T06:23:30Z</time>
      </trkpt>
      <trkpt lat="45.5511" lon="6.83153">
        <ele>2498.4</ele>
        <time>2021-03-30T06:23:31Z</time>
      </trkpt>
      <trkpt lat="45.5511" lon="6.83154">
        <ele>2498.4</ele>
        <time>2021-03-30T06:23:32Z</time>
      </trkpt>
      <trkpt lat="45.5511" lon="6.83155">
        <ele>2498.4</ele>
        <time>2021-03-30T06:23:33Z</time>
      </trkpt>
      <trkpt lat="45.5511" lon="6.83156">
        <ele>2498.4</ele>
        <time>2021-03-30T06:23:34Z</time>
      </trkpt>
      <trkpt lat="45.5511" lon="6.83158">
        <ele>2498.9</ele>
        <time>2021-03-30T06:23:35Z</time>
      </trkpt>
      <trkpt lat="45.5511" lon="6.83159">
        <ele>2498.9</ele>
        <time>2021-03-30T06:23:36Z</time>
      </trkpt>
      <trkpt lat="45.5511" lon="6.8316">
        <ele>2498.9</ele>
        <time>2021-03-30T06:23:37Z</time>
      </trkpt>
      <trkpt lat="45.5511" lon="6.83161">
        <ele>2499.4</ele>
        <time>2021-03-30T06:23:38Z</time>
      </trkpt>
      <trkpt lat="45.5511" lon="6.83163">
        <ele>2499.4</ele>
        <time>2021-03-30T06:23:39Z</time>
      </trkpt>
      <trkpt lat="45.5511" lon="6.83164">
        <ele>2499.4</ele>
        <time>2021-03-30T06:23:40Z</time>
      </trkpt>
      <trkpt lat="45.5511" lon="6.83165">
        <ele>2499.4</ele>
        <time>2021-03-30T06:23:41Z</time>
      </trkpt>
      <trkpt lat="45.5511" lon="6.83166">
        <ele>2499.8</ele>
        <time>2021-03-30T06:23:42Z</time>
      </trkpt>
      <trkpt lat="45.5511" lon="6.83168">
        <ele>2499.8</ele>
        <time>2021-03-30T06:23:43Z</time>
      </trkpt>
      <trkpt lat="45.5511" lon="6.83169">
        <ele>2499.8</ele>
        <time>2021-03-30T06:23:44Z</time>
      </trkpt>
      <trkpt lat="45.5511" lon="6.8317">
        <ele>2500.3</ele>
        <time>2021-03-30T06:23:45Z</time>
      </trkpt>
      <trkpt lat="45.5511" lon="6.83171">
        <ele>2500.3</ele>
        <time>2021-03-30T06:23:46Z</time>
      </trkpt>
      <trkpt lat="45.5511" lon="6.83173">
        <ele>2500.3</ele>
        <time>2021-03-30T06:23:47Z</time>
      </trkpt>
      <trkpt lat="45.5511" lon="6.83174">
        <ele>2500.6</ele>
        <time>2021-03-30T06:23:48Z</time>
      </trkpt>
      <trkpt lat="45.5511" lon="6.83176">
        <ele>2500.6</ele>
        <time>2021-03-30T06:23:49Z</time>
      </trkpt>
      <trkpt lat="45.5511" lon="6.83177">
        <ele>2500.6</ele>
        <time>2021-03-30T06:23:50Z</time>
      </trkpt>
      <trkpt lat="45.55109" lon="6.83178">
        <ele>2500.6</ele>
        <time>2021-03-30T06:23:51Z</time>
      </trkpt>
      <trkpt lat="45.55109" lon="6.83179">
        <ele>2501</ele>
        <time>2021-03-30T06:23:52Z</time>
      </trkpt>
      <trkpt lat="45.55109" lon="6.83181">
        <ele>2501</ele>
        <time>2021-03-30T06:23:53Z</time>
      </trkpt>
      <trkpt lat="45.55108" lon="6.83182">
        <ele>2501</ele>
        <time>2021-03-30T06:23:54Z</time>
      </trkpt>
      <trkpt lat="45.55108" lon="6.83184">
        <ele>2501.5</ele>
        <time>2021-03-30T06:23:55Z</time>
      </trkpt>
      <trkpt lat="45.55108" lon="6.83186">
        <ele>2501.5</ele>
        <time>2021-03-30T06:23:56Z</time>
      </trkpt>
      <trkpt lat="45.55107" lon="6.83188">
        <ele>2501.9</ele>
        <time>2021-03-30T06:23:57Z</time>
      </trkpt>
      <trkpt lat="45.55106" lon="6.83189">
        <ele>2501.9</ele>
        <time>2021-03-30T06:23:58Z</time>
      </trkpt>
      <trkpt lat="45.55106" lon="6.83191">
        <ele>2502.2</ele>
        <time>2021-03-30T06:23:59Z</time>
      </trkpt>
      <trkpt lat="45.55105" lon="6.83193">
        <ele>2502.2</ele>
        <time>2021-03-30T06:24:00Z</time>
      </trkpt>
      <trkpt lat="45.55105" lon="6.83194">
        <ele>2502.2</ele>
        <time>2021-03-30T06:24:01Z</time>
      </trkpt>
      <trkpt lat="45.55105" lon="6.83196">
        <ele>2502.5</ele>
        <time>2021-03-30T06:24:02Z</time>
      </trkpt>
      <trkpt lat="45.55105" lon="6.83197">
        <ele>2502.5</ele>
        <time>2021-03-30T06:24:03Z</time>
      </trkpt>
      <trkpt lat="45.55104" lon="6.83198">
        <ele>2502.5</ele>
        <time>2021-03-30T06:24:04Z</time>
      </trkpt>
      <trkpt lat="45.55104" lon="6.832">
        <ele>2502.7</ele>
        <time>2021-03-30T06:24:05Z</time>
      </trkpt>
      <trkpt lat="45.55104" lon="6.83201">
        <ele>2502.7</ele>
        <time>2021-03-30T06:24:06Z</time>
      </trkpt>
      <trkpt lat="45.55103" lon="6.83203">
        <ele>2502.7</ele>
        <time>2021-03-30T06:24:07Z</time>
      </trkpt>
      <trkpt lat="45.55103" lon="6.83204">
        <ele>2503</ele>
        <time>2021-03-30T06:24:08Z</time>
      </trkpt>
      <trkpt lat="45.55102" lon="6.83205">
        <ele>2503</ele>
        <time>2021-03-30T06:24:09Z</time>
      </trkpt>
      <trkpt lat="45.55102" lon="6.83207">
        <ele>2502.8</ele>
        <time>2021-03-30T06:24:10Z</time>
      </trkpt>
      <trkpt lat="45.55102" lon="6.83208">
        <ele>2503</ele>
        <time>2021-03-30T06:24:11Z</time>
      </trkpt>
      <trkpt lat="45.55101" lon="6.83209">
        <ele>2503</ele>
        <time>2021-03-30T06:24:12Z</time>
      </trkpt>
      <trkpt lat="45.55101" lon="6.83211">
        <ele>2503</ele>
        <time>2021-03-30T06:24:13Z</time>
      </trkpt>
      <trkpt lat="45.55101" lon="6.83212">
        <ele>2503</ele>
        <time>2021-03-30T06:24:14Z</time>
      </trkpt>
      <trkpt lat="45.551" lon="6.83213">
        <ele>2503.2</ele>
        <time>2021-03-30T06:24:15Z</time>
      </trkpt>
      <trkpt lat="45.55099" lon="6.83215">
        <ele>2503.2</ele>
        <time>2021-03-30T06:24:16Z</time>
      </trkpt>
      <trkpt lat="45.55099" lon="6.83215">
        <ele>2502.8</ele>
        <time>2021-03-30T06:24:17Z</time>
      </trkpt>
      <trkpt lat="45.55099" lon="6.83216">
        <ele>2502.8</ele>
        <time>2021-03-30T06:24:18Z</time>
      </trkpt>
      <trkpt lat="45.55098" lon="6.83217">
        <ele>2502.9</ele>
        <time>2021-03-30T06:24:19Z</time>
      </trkpt>
      <trkpt lat="45.55098" lon="6.83218">
        <ele>2502.9</ele>
        <time>2021-03-30T06:24:20Z</time>
      </trkpt>
      <trkpt lat="45.55097" lon="6.83219">
        <ele>2502.9</ele>
        <time>2021-03-30T06:24:21Z</time>
      </trkpt>
      <trkpt lat="45.55097" lon="6.8322">
        <ele>2502.9</ele>
        <time>2021-03-30T06:24:22Z</time>
      </trkpt>
      <trkpt lat="45.55096" lon="6.83221">
        <ele>2502.3</ele>
        <time>2021-03-30T06:24:23Z</time>
      </trkpt>
      <trkpt lat="45.55096" lon="6.83222">
        <ele>2502.3</ele>
        <time>2021-03-30T06:24:24Z</time>
      </trkpt>
      <trkpt lat="45.55095" lon="6.83223">
        <ele>2502.3</ele>
        <time>2021-03-30T06:24:25Z</time>
      </trkpt>
      <trkpt lat="45.55095" lon="6.83224">
        <ele>2502.3</ele>
        <time>2021-03-30T06:24:26Z</time>
      </trkpt>
      <trkpt lat="45.55094" lon="6.83226">
        <ele>2502.4</ele>
        <time>2021-03-30T06:24:27Z</time>
      </trkpt>
      <trkpt lat="45.55094" lon="6.83227">
        <ele>2502.4</ele>
        <time>2021-03-30T06:24:28Z</time>
      </trkpt>
      <trkpt lat="45.55093" lon="6.83228">
        <ele>2502.4</ele>
        <time>2021-03-30T06:24:29Z</time>
      </trkpt>
      <trkpt lat="45.55093" lon="6.8323">
        <ele>2501.7</ele>
        <time>2021-03-30T06:24:30Z</time>
      </trkpt>
      <trkpt lat="45.55093" lon="6.83231">
        <ele>2501.7</ele>
        <time>2021-03-30T06:24:31Z</time>
      </trkpt>
      <trkpt lat="45.55092" lon="6.83232">
        <ele>2501.7</ele>
        <time>2021-03-30T06:24:32Z</time>
      </trkpt>
      <trkpt lat="45.55092" lon="6.83233">
        <ele>2501.7</ele>
        <time>2021-03-30T06:24:33Z</time>
      </trkpt>
      <trkpt lat="45.55091" lon="6.83234">
        <ele>2501.9</ele>
        <time>2021-03-30T06:24:34Z</time>
      </trkpt>
      <trkpt lat="45.55091" lon="6.83236">
        <ele>2501.9</ele>
        <time>2021-03-30T06:24:35Z</time>
      </trkpt>
      <trkpt lat="45.55091" lon="6.83236">
        <ele>2501.9</ele>
        <time>2021-03-30T06:24:36Z</time>
      </trkpt>
      <trkpt lat="45.5509" lon="6.83238">
        <ele>2500.9</ele>
        <time>2021-03-30T06:24:37Z</time>
      </trkpt>
      <trkpt lat="45.5509" lon="6.83238">
        <ele>2501.3</ele>
        <time>2021-03-30T06:24:38Z</time>
      </trkpt>
      <trkpt lat="45.5509" lon="6.83239">
        <ele>2501.3</ele>
        <time>2021-03-30T06:24:39Z</time>
      </trkpt>
      <trkpt lat="45.55089" lon="6.8324">
        <ele>2501.3</ele>
        <time>2021-03-30T06:24:40Z</time>
      </trkpt>
      <trkpt lat="45.55089" lon="6.83241">
        <ele>2501.3</ele>
        <time>2021-03-30T06:24:41Z</time>
      </trkpt>
      <trkpt lat="45.55089" lon="6.83243">
        <ele>2502</ele>
        <time>2021-03-30T06:24:42Z</time>
      </trkpt>
      <trkpt lat="45.55088" lon="6.83244">
        <ele>2502</ele>
        <time>2021-03-30T06:24:43Z</time>
      </trkpt>
      <trkpt lat="45.55088" lon="6.83245">
        <ele>2502</ele>
        <time>2021-03-30T06:24:44Z</time>
      </trkpt>
      <trkpt lat="45.55088" lon="6.83246">
        <ele>2502</ele>
        <time>2021-03-30T06:24:45Z</time>
      </trkpt>
      <trkpt lat="45.55087" lon="6.83247">
        <ele>2502.1</ele>
        <time>2021-03-30T06:24:46Z</time>
      </trkpt>
      <trkpt lat="45.55086" lon="6.83249">
        <ele>2502.1</ele>
        <time>2021-03-30T06:24:47Z</time>
      </trkpt>
      <trkpt lat="45.55086" lon="6.8325">
        <ele>2502.1</ele>
        <time>2021-03-30T06:24:48Z</time>
      </trkpt>
      <trkpt lat="45.55085" lon="6.83251">
        <ele>2503.1</ele>
        <time>2021-03-30T06:24:49Z</time>
      </trkpt>
      <trkpt lat="45.55085" lon="6.83252">
        <ele>2503.1</ele>
        <time>2021-03-30T06:24:50Z</time>
      </trkpt>
      <trkpt lat="45.55084" lon="6.83254">
        <ele>2502.8</ele>
        <time>2021-03-30T06:24:51Z</time>
      </trkpt>
      <trkpt lat="45.55084" lon="6.83255">
        <ele>2502.8</ele>
        <time>2021-03-30T06:24:52Z</time>
      </trkpt>
      <trkpt lat="45.55083" lon="6.83256">
        <ele>2503.9</ele>
        <time>2021-03-30T06:24:53Z</time>
      </trkpt>
      <trkpt lat="45.55083" lon="6.83257">
        <ele>2503.9</ele>
        <time>2021-03-30T06:24:54Z</time>
      </trkpt>
      <trkpt lat="45.55082" lon="6.83259">
        <ele>2503.9</ele>
        <time>2021-03-30T06:24:55Z</time>
      </trkpt>
      <trkpt lat="45.55082" lon="6.8326">
        <ele>2504.8</ele>
        <time>2021-03-30T06:24:56Z</time>
      </trkpt>
      <trkpt lat="45.55082" lon="6.83261">
        <ele>2504.8</ele>
        <time>2021-03-30T06:24:57Z</time>
      </trkpt>
      <trkpt lat="45.55081" lon="6.83262">
        <ele>2504.8</ele>
        <time>2021-03-30T06:24:58Z</time>
      </trkpt>
      <trkpt lat="45.55081" lon="6.83263">
        <ele>2504.7</ele>
        <time>2021-03-30T06:24:59Z</time>
      </trkpt>
      <trkpt lat="45.55081" lon="6.83264">
        <ele>2505.6</ele>
        <time>2021-03-30T06:25:00Z</time>
      </trkpt>
      <trkpt lat="45.55081" lon="6.83266">
        <ele>2505.6</ele>
        <time>2021-03-30T06:25:01Z</time>
      </trkpt>
      <trkpt lat="45.5508" lon="6.83267">
        <ele>2505.6</ele>
        <time>2021-03-30T06:25:02Z</time>
      </trkpt>
      <trkpt lat="45.5508" lon="6.83268">
        <ele>2506.2</ele>
        <time>2021-03-30T06:25:03Z</time>
      </trkpt>
      <trkpt lat="45.5508" lon="6.8327">
        <ele>2506.2</ele>
        <time>2021-03-30T06:25:04Z</time>
      </trkpt>
      <trkpt lat="45.5508" lon="6.83271">
        <ele>2506.2</ele>
        <time>2021-03-30T06:25:05Z</time>
      </trkpt>
      <trkpt lat="45.55079" lon="6.83272">
        <ele>2506.2</ele>
        <time>2021-03-30T06:25:06Z</time>
      </trkpt>
      <trkpt lat="45.55079" lon="6.83274">
        <ele>2506.5</ele>
        <time>2021-03-30T06:25:07Z</time>
      </trkpt>
      <trkpt lat="45.55079" lon="6.83275">
        <ele>2506.5</ele>
        <time>2021-03-30T06:25:08Z</time>
      </trkpt>
      <trkpt lat="45.55079" lon="6.83277">
        <ele>2506.5</ele>
        <time>2021-03-30T06:25:09Z</time>
      </trkpt>
      <trkpt lat="45.55079" lon="6.83278">
        <ele>2506.7</ele>
        <time>2021-03-30T06:25:10Z</time>
      </trkpt>
      <trkpt lat="45.55078" lon="6.83279">
        <ele>2506.7</ele>
        <time>2021-03-30T06:25:11Z</time>
      </trkpt>
      <trkpt lat="45.55078" lon="6.8328">
        <ele>2506.7</ele>
        <time>2021-03-30T06:25:12Z</time>
      </trkpt>
      <trkpt lat="45.55078" lon="6.83281">
        <ele>2506.8</ele>
        <time>2021-03-30T06:25:13Z</time>
      </trkpt>
      <trkpt lat="45.55077" lon="6.83283">
        <ele>2506.8</ele>
        <time>2021-03-30T06:25:14Z</time>
      </trkpt>
      <trkpt lat="45.55077" lon="6.83284">
        <ele>2506.8</ele>
        <time>2021-03-30T06:25:15Z</time>
      </trkpt>
      <trkpt lat="45.55077" lon="6.83285">
        <ele>2506.8</ele>
        <time>2021-03-30T06:25:16Z</time>
      </trkpt>
      <trkpt lat="45.55076" lon="6.83286">
        <ele>2506.8</ele>
        <time>2021-03-30T06:25:17Z</time>
      </trkpt>
      <trkpt lat="45.55076" lon="6.83287">
        <ele>2506.8</ele>
        <time>2021-03-30T06:25:18Z</time>
      </trkpt>
      <trkpt lat="45.55076" lon="6.83288">
        <ele>2506.8</ele>
        <time>2021-03-30T06:25:19Z</time>
      </trkpt>
      <trkpt lat="45.55075" lon="6.83289">
        <ele>2506.8</ele>
        <time>2021-03-30T06:25:20Z</time>
      </trkpt>
      <trkpt lat="45.55075" lon="6.8329">
        <ele>2507</ele>
        <time>2021-03-30T06:25:21Z</time>
      </trkpt>
      <trkpt lat="45.55075" lon="6.83292">
        <ele>2507</ele>
        <time>2021-03-30T06:25:22Z</time>
      </trkpt>
      <trkpt lat="45.55074" lon="6.83293">
        <ele>2507</ele>
        <time>2021-03-30T06:25:23Z</time>
      </trkpt>
      <trkpt lat="45.55074" lon="6.83294">
        <ele>2507.3</ele>
        <time>2021-03-30T06:25:24Z</time>
      </trkpt>
      <trkpt lat="45.55074" lon="6.83295">
        <ele>2507.3</ele>
        <time>2021-03-30T06:25:25Z</time>
      </trkpt>
      <trkpt lat="45.55073" lon="6.83297">
        <ele>2507.3</ele>
        <time>2021-03-30T06:25:26Z</time>
      </trkpt>
      <trkpt lat="45.55073" lon="6.83298">
        <ele>2507.3</ele>
        <time>2021-03-30T06:25:27Z</time>
      </trkpt>
      <trkpt lat="45.55072" lon="6.833">
        <ele>2507.7</ele>
        <time>2021-03-30T06:25:28Z</time>
      </trkpt>
      <trkpt lat="45.55072" lon="6.83301">
        <ele>2508</ele>
        <time>2021-03-30T06:25:29Z</time>
      </trkpt>
      <trkpt lat="45.55072" lon="6.83302">
        <ele>2508</ele>
        <time>2021-03-30T06:25:30Z</time>
      </trkpt>
      <trkpt lat="45.55072" lon="6.83303">
        <ele>2508.5</ele>
        <time>2021-03-30T06:25:31Z</time>
      </trkpt>
      <trkpt lat="45.55071" lon="6.83304">
        <ele>2508.5</ele>
        <time>2021-03-30T06:25:32Z</time>
      </trkpt>
      <trkpt lat="45.55071" lon="6.83305">
        <ele>2508.5</ele>
        <time>2021-03-30T06:25:33Z</time>
      </trkpt>
      <trkpt lat="45.5507" lon="6.83307">
        <ele>2508.5</ele>
        <time>2021-03-30T06:25:34Z</time>
      </trkpt>
      <trkpt lat="45.5507" lon="6.83308">
        <ele>2509</ele>
        <time>2021-03-30T06:25:35Z</time>
      </trkpt>
      <trkpt lat="45.5507" lon="6.83309">
        <ele>2509</ele>
        <time>2021-03-30T06:25:36Z</time>
      </trkpt>
      <trkpt lat="45.55069" lon="6.8331">
        <ele>2509.3</ele>
        <time>2021-03-30T06:25:37Z</time>
      </trkpt>
      <trkpt lat="45.55068" lon="6.83312">
        <ele>2509.8</ele>
        <time>2021-03-30T06:25:38Z</time>
      </trkpt>
      <trkpt lat="45.55068" lon="6.83313">
        <ele>2509.8</ele>
        <time>2021-03-30T06:25:39Z</time>
      </trkpt>
      <trkpt lat="45.55068" lon="6.83314">
        <ele>2509.8</ele>
        <time>2021-03-30T06:25:40Z</time>
      </trkpt>
      <trkpt lat="45.55067" lon="6.83315">
        <ele>2509.8</ele>
        <time>2021-03-30T06:25:41Z</time>
      </trkpt>
      <trkpt lat="45.55067" lon="6.83316">
        <ele>2510.3</ele>
        <time>2021-03-30T06:25:42Z</time>
      </trkpt>
      <trkpt lat="45.55066" lon="6.83317">
        <ele>2510.4</ele>
        <time>2021-03-30T06:25:43Z</time>
      </trkpt>
      <trkpt lat="45.55066" lon="6.83318">
        <ele>2510.4</ele>
        <time>2021-03-30T06:25:44Z</time>
      </trkpt>
      <trkpt lat="45.55066" lon="6.83319">
        <ele>2510.4</ele>
        <time>2021-03-30T06:25:45Z</time>
      </trkpt>
      <trkpt lat="45.55065" lon="6.8332">
        <ele>2510.9</ele>
        <time>2021-03-30T06:25:46Z</time>
      </trkpt>
      <trkpt lat="45.55065" lon="6.83321">
        <ele>2510.9</ele>
        <time>2021-03-30T06:25:47Z</time>
      </trkpt>
      <trkpt lat="45.55064" lon="6.83322">
        <ele>2510.9</ele>
        <time>2021-03-30T06:25:48Z</time>
      </trkpt>
      <trkpt lat="45.55064" lon="6.83323">
        <ele>2510.9</ele>
        <time>2021-03-30T06:25:49Z</time>
      </trkpt>
      <trkpt lat="45.55064" lon="6.83324">
        <ele>2511.5</ele>
        <time>2021-03-30T06:25:50Z</time>
      </trkpt>
      <trkpt lat="45.55064" lon="6.83325">
        <ele>2511.5</ele>
        <time>2021-03-30T06:25:51Z</time>
      </trkpt>
      <trkpt lat="45.55063" lon="6.83326">
        <ele>2511.5</ele>
        <time>2021-03-30T06:25:52Z</time>
      </trkpt>
      <trkpt lat="45.55063" lon="6.83327">
        <ele>2511.6</ele>
        <time>2021-03-30T06:25:53Z</time>
      </trkpt>
      <trkpt lat="45.55062" lon="6.83328">
        <ele>2511.6</ele>
        <time>2021-03-30T06:25:54Z</time>
      </trkpt>
      <trkpt lat="45.55062" lon="6.83329">
        <ele>2512.3</ele>
        <time>2021-03-30T06:25:55Z</time>
      </trkpt>
      <trkpt lat="45.55061" lon="6.8333">
        <ele>2512.3</ele>
        <time>2021-03-30T06:25:56Z</time>
      </trkpt>
      <trkpt lat="45.55061" lon="6.83331">
        <ele>2512.3</ele>
        <time>2021-03-30T06:25:57Z</time>
      </trkpt>
      <trkpt lat="45.55061" lon="6.83332">
        <ele>2512.3</ele>
        <time>2021-03-30T06:25:58Z</time>
      </trkpt>
      <trkpt lat="45.55061" lon="6.83333">
        <ele>2513.1</ele>
        <time>2021-03-30T06:25:59Z</time>
      </trkpt>
      <trkpt lat="45.5506" lon="6.83334">
        <ele>2513.1</ele>
        <time>2021-03-30T06:26:00Z</time>
      </trkpt>
      <trkpt lat="45.5506" lon="6.83336">
        <ele>2513.2</ele>
        <time>2021-03-30T06:26:01Z</time>
      </trkpt>
      <trkpt lat="45.5506" lon="6.83336">
        <ele>2513.2</ele>
        <time>2021-03-30T06:26:02Z</time>
      </trkpt>
      <trkpt lat="45.5506" lon="6.83337">
        <ele>2514.2</ele>
        <time>2021-03-30T06:26:03Z</time>
      </trkpt>
      <trkpt lat="45.55059" lon="6.83338">
        <ele>2514.2</ele>
        <time>2021-03-30T06:26:04Z</time>
      </trkpt>
      <trkpt lat="45.55059" lon="6.83339">
        <ele>2514.2</ele>
        <time>2021-03-30T06:26:05Z</time>
      </trkpt>
      <trkpt lat="45.55059" lon="6.8334">
        <ele>2514.2</ele>
        <time>2021-03-30T06:26:06Z</time>
      </trkpt>
      <trkpt lat="45.55058" lon="6.83341">
        <ele>2514.2</ele>
        <time>2021-03-30T06:26:07Z</time>
      </trkpt>
      <trkpt lat="45.55058" lon="6.83342">
        <ele>2515.1</ele>
        <time>2021-03-30T06:26:08Z</time>
      </trkpt>
      <trkpt lat="45.55057" lon="6.83343">
        <ele>2515.3</ele>
        <time>2021-03-30T06:26:09Z</time>
      </trkpt>
      <trkpt lat="45.55057" lon="6.83344">
        <ele>2515.3</ele>
        <time>2021-03-30T06:26:10Z</time>
      </trkpt>
      <trkpt lat="45.55056" lon="6.83345">
        <ele>2515.3</ele>
        <time>2021-03-30T06:26:11Z</time>
      </trkpt>
      <trkpt lat="45.55055" lon="6.83345">
        <ele>2515.3</ele>
        <time>2021-03-30T06:26:12Z</time>
      </trkpt>
      <trkpt lat="45.55055" lon="6.83346">
        <ele>2516.3</ele>
        <time>2021-03-30T06:26:13Z</time>
      </trkpt>
      <trkpt lat="45.55054" lon="6.83347">
        <ele>2516.3</ele>
        <time>2021-03-30T06:26:14Z</time>
      </trkpt>
      <trkpt lat="45.55054" lon="6.83348">
        <ele>2516.5</ele>
        <time>2021-03-30T06:26:15Z</time>
      </trkpt>
      <trkpt lat="45.55053" lon="6.83348">
        <ele>2516.5</ele>
        <time>2021-03-30T06:26:16Z</time>
      </trkpt>
      <trkpt lat="45.55053" lon="6.83349">
        <ele>2516.5</ele>
        <time>2021-03-30T06:26:17Z</time>
      </trkpt>
      <trkpt lat="45.55052" lon="6.8335">
        <ele>2517.8</ele>
        <time>2021-03-30T06:26:18Z</time>
      </trkpt>
      <trkpt lat="45.55052" lon="6.8335">
        <ele>2517.8</ele>
        <time>2021-03-30T06:26:19Z</time>
      </trkpt>
      <trkpt lat="45.55051" lon="6.83351">
        <ele>2518</ele>
        <time>2021-03-30T06:26:20Z</time>
      </trkpt>
      <trkpt lat="45.55051" lon="6.83352">
        <ele>2518</ele>
        <time>2021-03-30T06:26:21Z</time>
      </trkpt>
      <trkpt lat="45.5505" lon="6.83353">
        <ele>2518</ele>
        <time>2021-03-30T06:26:22Z</time>
      </trkpt>
      <trkpt lat="45.55049" lon="6.83353">
        <ele>2518</ele>
        <time>2021-03-30T06:26:23Z</time>
      </trkpt>
      <trkpt lat="45.55049" lon="6.83354">
        <ele>2518.9</ele>
        <time>2021-03-30T06:26:24Z</time>
      </trkpt>
      <trkpt lat="45.55048" lon="6.83355">
        <ele>2518.9</ele>
        <time>2021-03-30T06:26:25Z</time>
      </trkpt>
      <trkpt lat="45.55048" lon="6.83355">
        <ele>2519.1</ele>
        <time>2021-03-30T06:26:26Z</time>
      </trkpt>
      <trkpt lat="45.55047" lon="6.83356">
        <ele>2519.1</ele>
        <time>2021-03-30T06:26:27Z</time>
      </trkpt>
      <trkpt lat="45.55047" lon="6.83357">
        <ele>2519.1</ele>
        <time>2021-03-30T06:26:28Z</time>
      </trkpt>
      <trkpt lat="45.55046" lon="6.83357">
        <ele>2519.1</ele>
        <time>2021-03-30T06:26:29Z</time>
      </trkpt>
      <trkpt lat="45.55045" lon="6.83358">
        <ele>2519.1</ele>
        <time>2021-03-30T06:26:30Z</time>
      </trkpt>
      <trkpt lat="45.55045" lon="6.83359">
        <ele>2520.2</ele>
        <time>2021-03-30T06:26:31Z</time>
      </trkpt>
      <trkpt lat="45.55044" lon="6.83359">
        <ele>2520.2</ele>
        <time>2021-03-30T06:26:32Z</time>
      </trkpt>
      <trkpt lat="45.55044" lon="6.8336">
        <ele>2520.2</ele>
        <time>2021-03-30T06:26:33Z</time>
      </trkpt>
      <trkpt lat="45.55043" lon="6.83361">
        <ele>2520.2</ele>
        <time>2021-03-30T06:26:34Z</time>
      </trkpt>
      <trkpt lat="45.55043" lon="6.83361">
        <ele>2520.2</ele>
        <time>2021-03-30T06:26:35Z</time>
      </trkpt>
      <trkpt lat="45.55042" lon="6.83362">
        <ele>2520.4</ele>
        <time>2021-03-30T06:26:36Z</time>
      </trkpt>
      <trkpt lat="45.55042" lon="6.83362">
        <ele>2520.4</ele>
        <time>2021-03-30T06:26:37Z</time>
      </trkpt>
      <trkpt lat="45.55041" lon="6.83363">
        <ele>2521.3</ele>
        <time>2021-03-30T06:26:38Z</time>
      </trkpt>
      <trkpt lat="45.55041" lon="6.83364">
        <ele>2521.4</ele>
        <time>2021-03-30T06:26:39Z</time>
      </trkpt>
      <trkpt lat="45.5504" lon="6.83364">
        <ele>2521.4</ele>
        <time>2021-03-30T06:26:40Z</time>
      </trkpt>
      <trkpt lat="45.5504" lon="6.83365">
        <ele>2521.4</ele>
        <time>2021-03-30T06:26:41Z</time>
      </trkpt>
      <trkpt lat="45.5504" lon="6.83366">
        <ele>2521.4</ele>
        <time>2021-03-30T06:26:42Z</time>
      </trkpt>
      <trkpt lat="45.55039" lon="6.83366">
        <ele>2521.4</ele>
        <time>2021-03-30T06:26:43Z</time>
      </trkpt>
      <trkpt lat="45.55039" lon="6.83367">
        <ele>2521.6</ele>
        <time>2021-03-30T06:26:44Z</time>
      </trkpt>
      <trkpt lat="45.55039" lon="6.83367">
        <ele>2522.7</ele>
        <time>2021-03-30T06:26:45Z</time>
      </trkpt>
      <trkpt lat="45.55038" lon="6.83368">
        <ele>2522.7</ele>
        <time>2021-03-30T06:26:46Z</time>
      </trkpt>
      <trkpt lat="45.55037" lon="6.83368">
        <ele>2522.7</ele>
        <time>2021-03-30T06:26:47Z</time>
      </trkpt>
      <trkpt lat="45.55037" lon="6.83369">
        <ele>2522.7</ele>
        <time>2021-03-30T06:26:48Z</time>
      </trkpt>
      <trkpt lat="45.55036" lon="6.83369">
        <ele>2523</ele>
        <time>2021-03-30T06:26:49Z</time>
      </trkpt>
      <trkpt lat="45.55036" lon="6.83369">
        <ele>2523</ele>
        <time>2021-03-30T06:26:50Z</time>
      </trkpt>
      <trkpt lat="45.55035" lon="6.8337">
        <ele>2523</ele>
        <time>2021-03-30T06:26:51Z</time>
      </trkpt>
      <trkpt lat="45.55034" lon="6.8337">
        <ele>2523</ele>
        <time>2021-03-30T06:26:52Z</time>
      </trkpt>
      <trkpt lat="45.55033" lon="6.83371">
        <ele>2523</ele>
        <time>2021-03-30T06:26:53Z</time>
      </trkpt>
      <trkpt lat="45.55033" lon="6.83372">
        <ele>2524.5</ele>
        <time>2021-03-30T06:26:54Z</time>
      </trkpt>
      <trkpt lat="45.55032" lon="6.83372">
        <ele>2524.5</ele>
        <time>2021-03-30T06:26:55Z</time>
      </trkpt>
      <trkpt lat="45.55032" lon="6.83372">
        <ele>2524.6</ele>
        <time>2021-03-30T06:26:56Z</time>
      </trkpt>
      <trkpt lat="45.55031" lon="6.83373">
        <ele>2524.6</ele>
        <time>2021-03-30T06:26:57Z</time>
      </trkpt>
      <trkpt lat="45.5503" lon="6.83373">
        <ele>2524.6</ele>
        <time>2021-03-30T06:26:58Z</time>
      </trkpt>
      <trkpt lat="45.5503" lon="6.83373">
        <ele>2524.9</ele>
        <time>2021-03-30T06:26:59Z</time>
      </trkpt>
      <trkpt lat="45.55029" lon="6.83373">
        <ele>2525</ele>
        <time>2021-03-30T06:27:00Z</time>
      </trkpt>
      <trkpt lat="45.55028" lon="6.83373">
        <ele>2525</ele>
        <time>2021-03-30T06:27:01Z</time>
      </trkpt>
      <trkpt lat="45.55028" lon="6.83373">
        <ele>2525</ele>
        <time>2021-03-30T06:27:02Z</time>
      </trkpt>
      <trkpt lat="45.55027" lon="6.83373">
        <ele>2525.4</ele>
        <time>2021-03-30T06:27:03Z</time>
      </trkpt>
      <trkpt lat="45.55026" lon="6.83373">
        <ele>2525.5</ele>
        <time>2021-03-30T06:27:04Z</time>
      </trkpt>
      <trkpt lat="45.55025" lon="6.83373">
        <ele>2525.5</ele>
        <time>2021-03-30T06:27:05Z</time>
      </trkpt>
      <trkpt lat="45.55024" lon="6.83373">
        <ele>2525.5</ele>
        <time>2021-03-30T06:27:06Z</time>
      </trkpt>
      <trkpt lat="45.55024" lon="6.83372">
        <ele>2525.9</ele>
        <time>2021-03-30T06:27:07Z</time>
      </trkpt>
      <trkpt lat="45.55023" lon="6.83372">
        <ele>2525.9</ele>
        <time>2021-03-30T06:27:08Z</time>
      </trkpt>
      <trkpt lat="45.55022" lon="6.83372">
        <ele>2525.9</ele>
        <time>2021-03-30T06:27:09Z</time>
      </trkpt>
      <trkpt lat="45.55022" lon="6.83372">
        <ele>2525.9</ele>
        <time>2021-03-30T06:27:10Z</time>
      </trkpt>
      <trkpt lat="45.55021" lon="6.83372">
        <ele>2526.2</ele>
        <time>2021-03-30T06:27:11Z</time>
      </trkpt>
      <trkpt lat="45.5502" lon="6.83372">
        <ele>2526.3</ele>
        <time>2021-03-30T06:27:12Z</time>
      </trkpt>
      <trkpt lat="45.5502" lon="6.83371">
        <ele>2526.3</ele>
        <time>2021-03-30T06:27:13Z</time>
      </trkpt>
      <trkpt lat="45.55019" lon="6.83371">
        <ele>2526.3</ele>
        <time>2021-03-30T06:27:14Z</time>
      </trkpt>
      <trkpt lat="45.55019" lon="6.83371">
        <ele>2524.9</ele>
        <time>2021-03-30T06:27:15Z</time>
      </trkpt>
      <trkpt lat="45.55018" lon="6.83371">
        <ele>2525.3</ele>
        <time>2021-03-30T06:27:16Z</time>
      </trkpt>
      <trkpt lat="45.55017" lon="6.8337">
        <ele>2525.3</ele>
        <time>2021-03-30T06:27:17Z</time>
      </trkpt>
      <trkpt lat="45.55016" lon="6.8337">
        <ele>2525.3</ele>
        <time>2021-03-30T06:27:18Z</time>
      </trkpt>
      <trkpt lat="45.55016" lon="6.8337">
        <ele>2525.3</ele>
        <time>2021-03-30T06:27:19Z</time>
      </trkpt>
      <trkpt lat="45.55015" lon="6.8337">
        <ele>2525.3</ele>
        <time>2021-03-30T06:27:20Z</time>
      </trkpt>
      <trkpt lat="45.55014" lon="6.8337">
        <ele>2525.6</ele>
        <time>2021-03-30T06:27:21Z</time>
      </trkpt>
      <trkpt lat="45.55014" lon="6.8337">
        <ele>2525.6</ele>
        <time>2021-03-30T06:27:22Z</time>
      </trkpt>
      <trkpt lat="45.55013" lon="6.8337">
        <ele>2525.6</ele>
        <time>2021-03-30T06:27:23Z</time>
      </trkpt>
      <trkpt lat="45.55012" lon="6.83371">
        <ele>2525.6</ele>
        <time>2021-03-30T06:27:24Z</time>
      </trkpt>
      <trkpt lat="45.55012" lon="6.83371">
        <ele>2525.8</ele>
        <time>2021-03-30T06:27:25Z</time>
      </trkpt>
      <trkpt lat="45.55011" lon="6.83371">
        <ele>2525.9</ele>
        <time>2021-03-30T06:27:26Z</time>
      </trkpt>
      <trkpt lat="45.55011" lon="6.83371">
        <ele>2526</ele>
        <time>2021-03-30T06:27:27Z</time>
      </trkpt>
      <trkpt lat="45.5501" lon="6.8337">
        <ele>2526</ele>
        <time>2021-03-30T06:27:28Z</time>
      </trkpt>
      <trkpt lat="45.55009" lon="6.8337">
        <ele>2526</ele>
        <time>2021-03-30T06:27:29Z</time>
      </trkpt>
      <trkpt lat="45.55009" lon="6.8337">
        <ele>2526.2</ele>
        <time>2021-03-30T06:27:30Z</time>
      </trkpt>
      <trkpt lat="45.55009" lon="6.8337">
        <ele>2526.3</ele>
        <time>2021-03-30T06:27:31Z</time>
      </trkpt>
      <trkpt lat="45.55008" lon="6.8337">
        <ele>2526.3</ele>
        <time>2021-03-30T06:27:32Z</time>
      </trkpt>
      <trkpt lat="45.55007" lon="6.8337">
        <ele>2526.3</ele>
        <time>2021-03-30T06:27:33Z</time>
      </trkpt>
      <trkpt lat="45.55007" lon="6.8337">
        <ele>2526.3</ele>
        <time>2021-03-30T06:27:34Z</time>
      </trkpt>
      <trkpt lat="45.55006" lon="6.8337">
        <ele>2526.3</ele>
        <time>2021-03-30T06:27:35Z</time>
      </trkpt>
      <trkpt lat="45.55006" lon="6.8337">
        <ele>2526.6</ele>
        <time>2021-03-30T06:27:36Z</time>
      </trkpt>
      <trkpt lat="45.55005" lon="6.8337">
        <ele>2526.6</ele>
        <time>2021-03-30T06:27:37Z</time>
      </trkpt>
      <trkpt lat="45.55004" lon="6.8337">
        <ele>2526.6</ele>
        <time>2021-03-30T06:27:38Z</time>
      </trkpt>
      <trkpt lat="45.55004" lon="6.8337">
        <ele>2526.6</ele>
        <time>2021-03-30T06:27:39Z</time>
      </trkpt>
      <trkpt lat="45.55003" lon="6.8337">
        <ele>2527</ele>
        <time>2021-03-30T06:27:40Z</time>
      </trkpt>
      <trkpt lat="45.55003" lon="6.8337">
        <ele>2527</ele>
        <time>2021-03-30T06:27:41Z</time>
      </trkpt>
      <trkpt lat="45.55002" lon="6.8337">
        <ele>2527</ele>
        <time>2021-03-30T06:27:42Z</time>
      </trkpt>
      <trkpt lat="45.55002" lon="6.8337">
        <ele>2527</ele>
        <time>2021-03-30T06:27:43Z</time>
      </trkpt>
      <trkpt lat="45.55001" lon="6.8337">
        <ele>2527</ele>
        <time>2021-03-30T06:27:44Z</time>
      </trkpt>
      <trkpt lat="45.55001" lon="6.8337">
        <ele>2527</ele>
        <time>2021-03-30T06:27:45Z</time>
      </trkpt>
      <trkpt lat="45.55" lon="6.8337">
        <ele>2527.4</ele>
        <time>2021-03-30T06:27:46Z</time>
      </trkpt>
      <trkpt lat="45.55" lon="6.8337">
        <ele>2527.4</ele>
        <time>2021-03-30T06:27:47Z</time>
      </trkpt>
      <trkpt lat="45.54999" lon="6.83371">
        <ele>2527.4</ele>
        <time>2021-03-30T06:27:48Z</time>
      </trkpt>
      <trkpt lat="45.54999" lon="6.83371">
        <ele>2527.4</ele>
        <time>2021-03-30T06:27:49Z</time>
      </trkpt>
      <trkpt lat="45.54999" lon="6.83371">
        <ele>2527.5</ele>
        <time>2021-03-30T06:27:50Z</time>
      </trkpt>
      <trkpt lat="45.54999" lon="6.83371">
        <ele>2527.5</ele>
        <time>2021-03-30T06:27:51Z</time>
      </trkpt>
      <trkpt lat="45.54998" lon="6.83371">
        <ele>2527.5</ele>
        <time>2021-03-30T06:27:52Z</time>
      </trkpt>
      <trkpt lat="45.54997" lon="6.83371">
        <ele>2528.9</ele>
        <time>2021-03-30T06:27:53Z</time>
      </trkpt>
      <trkpt lat="45.54997" lon="6.83372">
        <ele>2529.3</ele>
        <time>2021-03-30T06:27:54Z</time>
      </trkpt>
      <trkpt lat="45.54996" lon="6.83372">
        <ele>2529.3</ele>
        <time>2021-03-30T06:27:55Z</time>
      </trkpt>
      <trkpt lat="45.54995" lon="6.83372">
        <ele>2529.3</ele>
        <time>2021-03-30T06:27:56Z</time>
      </trkpt>
      <trkpt lat="45.54995" lon="6.83372">
        <ele>2529.3</ele>
        <time>2021-03-30T06:27:57Z</time>
      </trkpt>
      <trkpt lat="45.54994" lon="6.83372">
        <ele>2529.3</ele>
        <time>2021-03-30T06:27:58Z</time>
      </trkpt>
      <trkpt lat="45.54994" lon="6.83373">
        <ele>2529.7</ele>
        <time>2021-03-30T06:27:59Z</time>
      </trkpt>
      <trkpt lat="45.54993" lon="6.83373">
        <ele>2529.7</ele>
        <time>2021-03-30T06:28:00Z</time>
      </trkpt>
      <trkpt lat="45.54992" lon="6.83373">
        <ele>2529.7</ele>
        <time>2021-03-30T06:28:01Z</time>
      </trkpt>
      <trkpt lat="45.54992" lon="6.83373">
        <ele>2529.7</ele>
        <time>2021-03-30T06:28:02Z</time>
      </trkpt>
      <trkpt lat="45.54991" lon="6.83373">
        <ele>2529.8</ele>
        <time>2021-03-30T06:28:03Z</time>
      </trkpt>
      <trkpt lat="45.54991" lon="6.83373">
        <ele>2530.1</ele>
        <time>2021-03-30T06:28:04Z</time>
      </trkpt>
      <trkpt lat="45.5499" lon="6.83373">
        <ele>2530.1</ele>
        <time>2021-03-30T06:28:05Z</time>
      </trkpt>
      <trkpt lat="45.54989" lon="6.83373">
        <ele>2530.1</ele>
        <time>2021-03-30T06:28:06Z</time>
      </trkpt>
      <trkpt lat="45.54988" lon="6.83373">
        <ele>2530.2</ele>
        <time>2021-03-30T06:28:07Z</time>
      </trkpt>
      <trkpt lat="45.54988" lon="6.83373">
        <ele>2530.5</ele>
        <time>2021-03-30T06:28:08Z</time>
      </trkpt>
      <trkpt lat="45.54987" lon="6.83373">
        <ele>2530.6</ele>
        <time>2021-03-30T06:28:09Z</time>
      </trkpt>
      <trkpt lat="45.54986" lon="6.83373">
        <ele>2530.6</ele>
        <time>2021-03-30T06:28:10Z</time>
      </trkpt>
      <trkpt lat="45.54985" lon="6.83373">
        <ele>2530.6</ele>
        <time>2021-03-30T06:28:11Z</time>
      </trkpt>
      <trkpt lat="45.54985" lon="6.83373">
        <ele>2531</ele>
        <time>2021-03-30T06:28:12Z</time>
      </trkpt>
      <trkpt lat="45.54984" lon="6.83373">
        <ele>2531</ele>
        <time>2021-03-30T06:28:13Z</time>
      </trkpt>
      <trkpt lat="45.54983" lon="6.83373">
        <ele>2531.1</ele>
        <time>2021-03-30T06:28:14Z</time>
      </trkpt>
      <trkpt lat="45.54982" lon="6.83373">
        <ele>2531.1</ele>
        <time>2021-03-30T06:28:15Z</time>
      </trkpt>
      <trkpt lat="45.54981" lon="6.83373">
        <ele>2531.6</ele>
        <time>2021-03-30T06:28:16Z</time>
      </trkpt>
      <trkpt lat="45.54981" lon="6.83373">
        <ele>2531.6</ele>
        <time>2021-03-30T06:28:17Z</time>
      </trkpt>
      <trkpt lat="45.5498" lon="6.83373">
        <ele>2531.6</ele>
        <time>2021-03-30T06:28:18Z</time>
      </trkpt>
      <trkpt lat="45.5498" lon="6.83373">
        <ele>2531.6</ele>
        <time>2021-03-30T06:28:19Z</time>
      </trkpt>
      <trkpt lat="45.5498" lon="6.83373">
        <ele>2531.7</ele>
        <time>2021-03-30T06:28:20Z</time>
      </trkpt>
      <trkpt lat="45.54979" lon="6.83373">
        <ele>2531.7</ele>
        <time>2021-03-30T06:28:21Z</time>
      </trkpt>
      <trkpt lat="45.54978" lon="6.83373">
        <ele>2532.3</ele>
        <time>2021-03-30T06:28:22Z</time>
      </trkpt>
      <trkpt lat="45.54977" lon="6.83373">
        <ele>2532.3</ele>
        <time>2021-03-30T06:28:23Z</time>
      </trkpt>
      <trkpt lat="45.54977" lon="6.83373">
        <ele>2532.3</ele>
        <time>2021-03-30T06:28:24Z</time>
      </trkpt>
      <trkpt lat="45.54976" lon="6.83373">
        <ele>2533</ele>
        <time>2021-03-30T06:28:25Z</time>
      </trkpt>
      <trkpt lat="45.54975" lon="6.83373">
        <ele>2533</ele>
        <time>2021-03-30T06:28:26Z</time>
      </trkpt>
      <trkpt lat="45.54974" lon="6.83373">
        <ele>2533</ele>
        <time>2021-03-30T06:28:27Z</time>
      </trkpt>
      <trkpt lat="45.54974" lon="6.83373">
        <ele>2533</ele>
        <time>2021-03-30T06:28:28Z</time>
      </trkpt>
      <trkpt lat="45.54973" lon="6.83373">
        <ele>2533.7</ele>
        <time>2021-03-30T06:28:29Z</time>
      </trkpt>
      <trkpt lat="45.54972" lon="6.83373">
        <ele>2533.7</ele>
        <time>2021-03-30T06:28:30Z</time>
      </trkpt>
      <trkpt lat="45.54971" lon="6.83373">
        <ele>2533.7</ele>
        <time>2021-03-30T06:28:31Z</time>
      </trkpt>
      <trkpt lat="45.54971" lon="6.83373">
        <ele>2533.7</ele>
        <time>2021-03-30T06:28:32Z</time>
      </trkpt>
      <trkpt lat="45.5497" lon="6.83373">
        <ele>2534.4</ele>
        <time>2021-03-30T06:28:33Z</time>
      </trkpt>
      <trkpt lat="45.54969" lon="6.83373">
        <ele>2534.4</ele>
        <time>2021-03-30T06:28:34Z</time>
      </trkpt>
      <trkpt lat="45.54969" lon="6.83373">
        <ele>2534.5</ele>
        <time>2021-03-30T06:28:35Z</time>
      </trkpt>
      <trkpt lat="45.54968" lon="6.83373">
        <ele>2534.5</ele>
        <time>2021-03-30T06:28:36Z</time>
      </trkpt>
      <trkpt lat="45.54967" lon="6.83373">
        <ele>2534.5</ele>
        <time>2021-03-30T06:28:37Z</time>
      </trkpt>
      <trkpt lat="45.54967" lon="6.83373">
        <ele>2535.2</ele>
        <time>2021-03-30T06:28:38Z</time>
      </trkpt>
      <trkpt lat="45.54966" lon="6.83373">
        <ele>2535.2</ele>
        <time>2021-03-30T06:28:39Z</time>
      </trkpt>
      <trkpt lat="45.54965" lon="6.83373">
        <ele>2535.2</ele>
        <time>2021-03-30T06:28:40Z</time>
      </trkpt>
      <trkpt lat="45.54965" lon="6.83374">
        <ele>2535.2</ele>
        <time>2021-03-30T06:28:41Z</time>
      </trkpt>
      <trkpt lat="45.54964" lon="6.83374">
        <ele>2535.9</ele>
        <time>2021-03-30T06:28:42Z</time>
      </trkpt>
      <trkpt lat="45.54963" lon="6.83374">
        <ele>2535.9</ele>
        <time>2021-03-30T06:28:43Z</time>
      </trkpt>
      <trkpt lat="45.54963" lon="6.83374">
        <ele>2535.9</ele>
        <time>2021-03-30T06:28:44Z</time>
      </trkpt>
      <trkpt lat="45.54962" lon="6.83374">
        <ele>2535.9</ele>
        <time>2021-03-30T06:28:45Z</time>
      </trkpt>
      <trkpt lat="45.54961" lon="6.83374">
        <ele>2535.9</ele>
        <time>2021-03-30T06:28:46Z</time>
      </trkpt>
      <trkpt lat="45.54961" lon="6.83374">
        <ele>2536.6</ele>
        <time>2021-03-30T06:28:47Z</time>
      </trkpt>
      <trkpt lat="45.5496" lon="6.83374">
        <ele>2536.6</ele>
        <time>2021-03-30T06:28:48Z</time>
      </trkpt>
      <trkpt lat="45.54959" lon="6.83374">
        <ele>2536.6</ele>
        <time>2021-03-30T06:28:49Z</time>
      </trkpt>
      <trkpt lat="45.54959" lon="6.83374">
        <ele>2536.6</ele>
        <time>2021-03-30T06:28:50Z</time>
      </trkpt>
      <trkpt lat="45.54958" lon="6.83374">
        <ele>2536.7</ele>
        <time>2021-03-30T06:28:51Z</time>
      </trkpt>
      <trkpt lat="45.54957" lon="6.83374">
        <ele>2537.3</ele>
        <time>2021-03-30T06:28:52Z</time>
      </trkpt>
      <trkpt lat="45.54957" lon="6.83374">
        <ele>2537.3</ele>
        <time>2021-03-30T06:28:53Z</time>
      </trkpt>
      <trkpt lat="45.54956" lon="6.83375">
        <ele>2537.3</ele>
        <time>2021-03-30T06:28:54Z</time>
      </trkpt>
      <trkpt lat="45.54955" lon="6.83375">
        <ele>2537.4</ele>
        <time>2021-03-30T06:28:55Z</time>
      </trkpt>
      <trkpt lat="45.54955" lon="6.83375">
        <ele>2538</ele>
        <time>2021-03-30T06:28:56Z</time>
      </trkpt>
      <trkpt lat="45.54954" lon="6.83376">
        <ele>2539.4</ele>
        <time>2021-03-30T06:28:57Z</time>
      </trkpt>
      <trkpt lat="45.54954" lon="6.83376">
        <ele>2539.4</ele>
        <time>2021-03-30T06:28:58Z</time>
      </trkpt>
      <trkpt lat="45.54953" lon="6.83376">
        <ele>2539.4</ele>
        <time>2021-03-30T06:28:59Z</time>
      </trkpt>
      <trkpt lat="45.54952" lon="6.83377">
        <ele>2539.4</ele>
        <time>2021-03-30T06:29:00Z</time>
      </trkpt>
      <trkpt lat="45.54952" lon="6.83377">
        <ele>2540.1</ele>
        <time>2021-03-30T06:29:01Z</time>
      </trkpt>
      <trkpt lat="45.54951" lon="6.83378">
        <ele>2540.1</ele>
        <time>2021-03-30T06:29:02Z</time>
      </trkpt>
      <trkpt lat="45.54951" lon="6.83378">
        <ele>2540.1</ele>
        <time>2021-03-30T06:29:03Z</time>
      </trkpt>
      <trkpt lat="45.5495" lon="6.83378">
        <ele>2540.1</ele>
        <time>2021-03-30T06:29:04Z</time>
      </trkpt>
      <trkpt lat="45.54949" lon="6.83378">
        <ele>2540.1</ele>
        <time>2021-03-30T06:29:05Z</time>
      </trkpt>
      <trkpt lat="45.54949" lon="6.83379">
        <ele>2540.8</ele>
        <time>2021-03-30T06:29:06Z</time>
      </trkpt>
      <trkpt lat="45.54948" lon="6.83379">
        <ele>2540.8</ele>
        <time>2021-03-30T06:29:07Z</time>
      </trkpt>
      <trkpt lat="45.54948" lon="6.83379">
        <ele>2540.8</ele>
        <time>2021-03-30T06:29:08Z</time>
      </trkpt>
      <trkpt lat="45.54947" lon="6.83379">
        <ele>2540.8</ele>
        <time>2021-03-30T06:29:09Z</time>
      </trkpt>
      <trkpt lat="45.54947" lon="6.83379">
        <ele>2540.8</ele>
        <time>2021-03-30T06:29:10Z</time>
      </trkpt>
      <trkpt lat="45.54946" lon="6.83379">
        <ele>2540.8</ele>
        <time>2021-03-30T06:29:11Z</time>
      </trkpt>
      <trkpt lat="45.54946" lon="6.83379">
        <ele>2541.5</ele>
        <time>2021-03-30T06:29:12Z</time>
      </trkpt>
      <trkpt lat="45.54945" lon="6.83379">
        <ele>2541.5</ele>
        <time>2021-03-30T06:29:13Z</time>
      </trkpt>
      <trkpt lat="45.54944" lon="6.83379">
        <ele>2541.6</ele>
        <time>2021-03-30T06:29:14Z</time>
      </trkpt>
      <trkpt lat="45.54943" lon="6.83379">
        <ele>2541.6</ele>
        <time>2021-03-30T06:29:15Z</time>
      </trkpt>
      <trkpt lat="45.54943" lon="6.83379">
        <ele>2542.3</ele>
        <time>2021-03-30T06:29:16Z</time>
      </trkpt>
      <trkpt lat="45.54942" lon="6.83379">
        <ele>2542.3</ele>
        <time>2021-03-30T06:29:17Z</time>
      </trkpt>
      <trkpt lat="45.54942" lon="6.8338">
        <ele>2542.3</ele>
        <time>2021-03-30T06:29:18Z</time>
      </trkpt>
      <trkpt lat="45.54941" lon="6.8338">
        <ele>2543.5</ele>
        <time>2021-03-30T06:29:19Z</time>
      </trkpt>
      <trkpt lat="45.5494" lon="6.8338">
        <ele>2543.5</ele>
        <time>2021-03-30T06:29:20Z</time>
      </trkpt>
      <trkpt lat="45.5494" lon="6.8338">
        <ele>2544.2</ele>
        <time>2021-03-30T06:29:21Z</time>
      </trkpt>
      <trkpt lat="45.54939" lon="6.8338">
        <ele>2544.2</ele>
        <time>2021-03-30T06:29:22Z</time>
      </trkpt>
      <trkpt lat="45.54938" lon="6.8338">
        <ele>2544.2</ele>
        <time>2021-03-30T06:29:23Z</time>
      </trkpt>
      <trkpt lat="45.54938" lon="6.8338">
        <ele>2544.3</ele>
        <time>2021-03-30T06:29:24Z</time>
      </trkpt>
      <trkpt lat="45.54937" lon="6.8338">
        <ele>2544.3</ele>
        <time>2021-03-30T06:29:25Z</time>
      </trkpt>
      <trkpt lat="45.54936" lon="6.8338">
        <ele>2544.9</ele>
        <time>2021-03-30T06:29:26Z</time>
      </trkpt>
      <trkpt lat="45.54936" lon="6.8338">
        <ele>2544.9</ele>
        <time>2021-03-30T06:29:27Z</time>
      </trkpt>
      <trkpt lat="45.54935" lon="6.8338">
        <ele>2545</ele>
        <time>2021-03-30T06:29:28Z</time>
      </trkpt>
      <trkpt lat="45.54935" lon="6.8338">
        <ele>2545</ele>
        <time>2021-03-30T06:29:29Z</time>
      </trkpt>
      <trkpt lat="45.54934" lon="6.8338">
        <ele>2545.6</ele>
        <time>2021-03-30T06:29:30Z</time>
      </trkpt>
      <trkpt lat="45.54933" lon="6.83381">
        <ele>2545.6</ele>
        <time>2021-03-30T06:29:31Z</time>
      </trkpt>
      <trkpt lat="45.54933" lon="6.83381">
        <ele>2545.6</ele>
        <time>2021-03-30T06:29:32Z</time>
      </trkpt>
      <trkpt lat="45.54932" lon="6.83381">
        <ele>2545.6</ele>
        <time>2021-03-30T06:29:33Z</time>
      </trkpt>
      <trkpt lat="45.54931" lon="6.83381">
        <ele>2545.7</ele>
        <time>2021-03-30T06:29:34Z</time>
      </trkpt>
      <trkpt lat="45.54931" lon="6.83381">
        <ele>2546.3</ele>
        <time>2021-03-30T06:29:35Z</time>
      </trkpt>
      <trkpt lat="45.5493" lon="6.83381">
        <ele>2546.3</ele>
        <time>2021-03-30T06:29:36Z</time>
      </trkpt>
      <trkpt lat="45.5493" lon="6.83381">
        <ele>2546.3</ele>
        <time>2021-03-30T06:29:37Z</time>
      </trkpt>
      <trkpt lat="45.54929" lon="6.83381">
        <ele>2546.3</ele>
        <time>2021-03-30T06:29:38Z</time>
      </trkpt>
      <trkpt lat="45.54928" lon="6.83381">
        <ele>2546.3</ele>
        <time>2021-03-30T06:29:39Z</time>
      </trkpt>
      <trkpt lat="45.54928" lon="6.83381">
        <ele>2546.9</ele>
        <time>2021-03-30T06:29:40Z</time>
      </trkpt>
      <trkpt lat="45.54927" lon="6.83381">
        <ele>2547</ele>
        <time>2021-03-30T06:29:41Z</time>
      </trkpt>
      <trkpt lat="45.54927" lon="6.83381">
        <ele>2547</ele>
        <time>2021-03-30T06:29:42Z</time>
      </trkpt>
      <trkpt lat="45.54926" lon="6.83381">
        <ele>2547</ele>
        <time>2021-03-30T06:29:43Z</time>
      </trkpt>
      <trkpt lat="45.54926" lon="6.83381">
        <ele>2547</ele>
        <time>2021-03-30T06:29:44Z</time>
      </trkpt>
      <trkpt lat="45.54925" lon="6.83381">
        <ele>2547</ele>
        <time>2021-03-30T06:29:45Z</time>
      </trkpt>
      <trkpt lat="45.54925" lon="6.83381">
        <ele>2547.7</ele>
        <time>2021-03-30T06:29:46Z</time>
      </trkpt>
      <trkpt lat="45.54924" lon="6.83381">
        <ele>2547.7</ele>
        <time>2021-03-30T06:29:47Z</time>
      </trkpt>
      <trkpt lat="45.54924" lon="6.83381">
        <ele>2547.7</ele>
        <time>2021-03-30T06:29:48Z</time>
      </trkpt>
      <trkpt lat="45.54923" lon="6.83381">
        <ele>2547.7</ele>
        <time>2021-03-30T06:29:49Z</time>
      </trkpt>
      <trkpt lat="45.54923" lon="6.83381">
        <ele>2547.7</ele>
        <time>2021-03-30T06:29:50Z</time>
      </trkpt>
      <trkpt lat="45.54922" lon="6.83381">
        <ele>2547.7</ele>
        <time>2021-03-30T06:29:51Z</time>
      </trkpt>
      <trkpt lat="45.54921" lon="6.83381">
        <ele>2548.5</ele>
        <time>2021-03-30T06:29:52Z</time>
      </trkpt>
      <trkpt lat="45.54921" lon="6.83381">
        <ele>2548.5</ele>
        <time>2021-03-30T06:29:53Z</time>
      </trkpt>
      <trkpt lat="45.54921" lon="6.83381">
        <ele>2548.5</ele>
        <time>2021-03-30T06:29:54Z</time>
      </trkpt>
      <trkpt lat="45.54922" lon="6.83382">
        <ele>2548.5</ele>
        <time>2021-03-30T06:29:55Z</time>
      </trkpt>
      <trkpt lat="45.54922" lon="6.83382">
        <ele>2547.8</ele>
        <time>2021-03-30T06:29:56Z</time>
      </trkpt>
      <trkpt lat="45.54922" lon="6.83383">
        <ele>2547.8</ele>
        <time>2021-03-30T06:29:57Z</time>
      </trkpt>
      <trkpt lat="45.54923" lon="6.83383">
        <ele>2547.8</ele>
        <time>2021-03-30T06:29:58Z</time>
      </trkpt>
      <trkpt lat="45.54923" lon="6.83383">
        <ele>2547.8</ele>
        <time>2021-03-30T06:29:59Z</time>
      </trkpt>
      <trkpt lat="45.54923" lon="6.83384">
        <ele>2547.8</ele>
        <time>2021-03-30T06:30:00Z</time>
      </trkpt>
      <trkpt lat="45.54923" lon="6.83384">
        <ele>2549</ele>
        <time>2021-03-30T06:30:01Z</time>
      </trkpt>
      <trkpt lat="45.54924" lon="6.83385">
        <ele>2549</ele>
        <time>2021-03-30T06:30:02Z</time>
      </trkpt>
      <trkpt lat="45.54924" lon="6.83385">
        <ele>2549</ele>
        <time>2021-03-30T06:30:10Z</time>
      </trkpt>
      <trkpt lat="45.54924" lon="6.83386">
        <ele>2549</ele>
        <time>2021-03-30T06:30:11Z</time>
      </trkpt>
      <trkpt lat="45.54924" lon="6.83386">
        <ele>2549</ele>
        <time>2021-03-30T06:30:12Z</time>
      </trkpt>
      <trkpt lat="45.54925" lon="6.83386">
        <ele>2549</ele>
        <time>2021-03-30T06:30:13Z</time>
      </trkpt>
      <trkpt lat="45.54925" lon="6.83387">
        <ele>2549</ele>
        <time>2021-03-30T06:30:14Z</time>
      </trkpt>
      <trkpt lat="45.54925" lon="6.83387">
        <ele>2548.4</ele>
        <time>2021-03-30T06:30:15Z</time>
      </trkpt>
      <trkpt lat="45.54925" lon="6.83388">
        <ele>2548.4</ele>
        <time>2021-03-30T06:30:16Z</time>
      </trkpt>
      <trkpt lat="45.54926" lon="6.83389">
        <ele>2549.5</ele>
        <time>2021-03-30T06:30:17Z</time>
      </trkpt>
      <trkpt lat="45.54926" lon="6.83389">
        <ele>2549.5</ele>
        <time>2021-03-30T06:30:18Z</time>
      </trkpt>
      <trkpt lat="45.54926" lon="6.8339">
        <ele>2549.5</ele>
        <time>2021-03-30T06:30:19Z</time>
      </trkpt>
      <trkpt lat="45.54927" lon="6.8339">
        <ele>2549.5</ele>
        <time>2021-03-30T06:30:20Z</time>
      </trkpt>
      <trkpt lat="45.54927" lon="6.83391">
        <ele>2549.6</ele>
        <time>2021-03-30T06:30:21Z</time>
      </trkpt>
      <trkpt lat="45.54928" lon="6.83392">
        <ele>2549.6</ele>
        <time>2021-03-30T06:30:22Z</time>
      </trkpt>
      <trkpt lat="45.54928" lon="6.83392">
        <ele>2549</ele>
        <time>2021-03-30T06:30:23Z</time>
      </trkpt>
      <trkpt lat="45.54928" lon="6.83393">
        <ele>2550.1</ele>
        <time>2021-03-30T06:30:24Z</time>
      </trkpt>
      <trkpt lat="45.54929" lon="6.83393">
        <ele>2550.1</ele>
        <time>2021-03-30T06:30:25Z</time>
      </trkpt>
      <trkpt lat="45.54929" lon="6.83394">
        <ele>2550.1</ele>
        <time>2021-03-30T06:30:26Z</time>
      </trkpt>
      <trkpt lat="45.54929" lon="6.83394">
        <ele>2550.1</ele>
        <time>2021-03-30T06:30:27Z</time>
      </trkpt>
      <trkpt lat="45.5493" lon="6.83395">
        <ele>2550.1</ele>
        <time>2021-03-30T06:30:28Z</time>
      </trkpt>
      <trkpt lat="45.5493" lon="6.83396">
        <ele>2550.1</ele>
        <time>2021-03-30T06:30:29Z</time>
      </trkpt>
      <trkpt lat="45.5493" lon="6.83397">
        <ele>2550.1</ele>
        <time>2021-03-30T06:30:30Z</time>
      </trkpt>
      <trkpt lat="45.5493" lon="6.83397">
        <ele>2551.2</ele>
        <time>2021-03-30T06:30:31Z</time>
      </trkpt>
      <trkpt lat="45.5493" lon="6.83397">
        <ele>2551.2</ele>
        <time>2021-03-30T06:30:32Z</time>
      </trkpt>
      <trkpt lat="45.54931" lon="6.83397">
        <ele>2550.7</ele>
        <time>2021-03-30T06:30:33Z</time>
      </trkpt>
      <trkpt lat="45.54932" lon="6.83397">
        <ele>2550.7</ele>
        <time>2021-03-30T06:30:34Z</time>
      </trkpt>
      <trkpt lat="45.54932" lon="6.83398">
        <ele>2550.7</ele>
        <time>2021-03-30T06:30:35Z</time>
      </trkpt>
      <trkpt lat="45.54933" lon="6.83398">
        <ele>2550.7</ele>
        <time>2021-03-30T06:30:36Z</time>
      </trkpt>
      <trkpt lat="45.54933" lon="6.83399">
        <ele>2550.7</ele>
        <time>2021-03-30T06:30:37Z</time>
      </trkpt>
      <trkpt lat="45.54933" lon="6.834">
        <ele>2550.7</ele>
        <time>2021-03-30T06:30:38Z</time>
      </trkpt>
      <trkpt lat="45.54933" lon="6.834">
        <ele>2550.7</ele>
        <time>2021-03-30T06:30:39Z</time>
      </trkpt>
      <trkpt lat="45.54934" lon="6.83401">
        <ele>2550.7</ele>
        <time>2021-03-30T06:30:40Z</time>
      </trkpt>
      <trkpt lat="45.54934" lon="6.83402">
        <ele>2551.9</ele>
        <time>2021-03-30T06:30:41Z</time>
      </trkpt>
      <trkpt lat="45.54934" lon="6.83403">
        <ele>2551.9</ele>
        <time>2021-03-30T06:30:42Z</time>
      </trkpt>
      <trkpt lat="45.54934" lon="6.83403">
        <ele>2551.9</ele>
        <time>2021-03-30T06:30:43Z</time>
      </trkpt>
      <trkpt lat="45.54934" lon="6.83404">
        <ele>2551.3</ele>
        <time>2021-03-30T06:30:44Z</time>
      </trkpt>
      <trkpt lat="45.54934" lon="6.83405">
        <ele>2551.3</ele>
        <time>2021-03-30T06:30:45Z</time>
      </trkpt>
      <trkpt lat="45.54934" lon="6.83405">
        <ele>2551.3</ele>
        <time>2021-03-30T06:30:46Z</time>
      </trkpt>
      <trkpt lat="45.54934" lon="6.83405">
        <ele>2551.3</ele>
        <time>2021-03-30T06:30:47Z</time>
      </trkpt>
      <trkpt lat="45.54934" lon="6.83406">
        <ele>2553.1</ele>
        <time>2021-03-30T06:30:48Z</time>
      </trkpt>
      <trkpt lat="45.54934" lon="6.83406">
        <ele>2553.1</ele>
        <time>2021-03-30T06:30:49Z</time>
      </trkpt>
      <trkpt lat="45.54934" lon="6.83406">
        <ele>2553.1</ele>
        <time>2021-03-30T06:30:50Z</time>
      </trkpt>
      <trkpt lat="45.54934" lon="6.83406">
        <ele>2553.2</ele>
        <time>2021-03-30T06:30:51Z</time>
      </trkpt>
      <trkpt lat="45.54933" lon="6.83406">
        <ele>2553.2</ele>
        <time>2021-03-30T06:30:52Z</time>
      </trkpt>
      <trkpt lat="45.54932" lon="6.83406">
        <ele>2553.2</ele>
        <time>2021-03-30T06:30:53Z</time>
      </trkpt>
      <trkpt lat="45.54932" lon="6.83406">
        <ele>2553.2</ele>
        <time>2021-03-30T06:30:54Z</time>
      </trkpt>
      <trkpt lat="45.54931" lon="6.83406">
        <ele>2553.8</ele>
        <time>2021-03-30T06:30:55Z</time>
      </trkpt>
      <trkpt lat="45.5493" lon="6.83406">
        <ele>2553.8</ele>
        <time>2021-03-30T06:30:56Z</time>
      </trkpt>
      <trkpt lat="45.5493" lon="6.83407">
        <ele>2553.8</ele>
        <time>2021-03-30T06:30:57Z</time>
      </trkpt>
      <trkpt lat="45.54929" lon="6.83407">
        <ele>2553.8</ele>
        <time>2021-03-30T06:30:58Z</time>
      </trkpt>
      <trkpt lat="45.54928" lon="6.83407">
        <ele>2553.8</ele>
        <time>2021-03-30T06:30:59Z</time>
      </trkpt>
      <trkpt lat="45.54928" lon="6.83407">
        <ele>2554.4</ele>
        <time>2021-03-30T06:31:00Z</time>
      </trkpt>
      <trkpt lat="45.54927" lon="6.83408">
        <ele>2554.4</ele>
        <time>2021-03-30T06:31:01Z</time>
      </trkpt>
      <trkpt lat="45.54927" lon="6.83408">
        <ele>2554.4</ele>
        <time>2021-03-30T06:31:02Z</time>
      </trkpt>
      <trkpt lat="45.54926" lon="6.83408">
        <ele>2554.5</ele>
        <time>2021-03-30T06:31:03Z</time>
      </trkpt>
      <trkpt lat="45.54925" lon="6.83408">
        <ele>2554.5</ele>
        <time>2021-03-30T06:31:04Z</time>
      </trkpt>
      <trkpt lat="45.54925" lon="6.83409">
        <ele>2555.1</ele>
        <time>2021-03-30T06:31:05Z</time>
      </trkpt>
      <trkpt lat="45.54924" lon="6.83409">
        <ele>2555.1</ele>
        <time>2021-03-30T06:31:06Z</time>
      </trkpt>
      <trkpt lat="45.54923" lon="6.8341">
        <ele>2555.1</ele>
        <time>2021-03-30T06:31:07Z</time>
      </trkpt>
      <trkpt lat="45.54923" lon="6.8341">
        <ele>2556.4</ele>
        <time>2021-03-30T06:31:08Z</time>
      </trkpt>
      <trkpt lat="45.54922" lon="6.8341">
        <ele>2556.4</ele>
        <time>2021-03-30T06:31:09Z</time>
      </trkpt>
      <trkpt lat="45.54922" lon="6.8341">
        <ele>2557.2</ele>
        <time>2021-03-30T06:31:10Z</time>
      </trkpt>
      <trkpt lat="45.54921" lon="6.83411">
        <ele>2557.2</ele>
        <time>2021-03-30T06:31:11Z</time>
      </trkpt>
      <trkpt lat="45.54921" lon="6.83411">
        <ele>2557.2</ele>
        <time>2021-03-30T06:31:12Z</time>
      </trkpt>
      <trkpt lat="45.54921" lon="6.83411">
        <ele>2557.2</ele>
        <time>2021-03-30T06:31:13Z</time>
      </trkpt>
      <trkpt lat="45.5492" lon="6.83411">
        <ele>2557.2</ele>
        <time>2021-03-30T06:31:14Z</time>
      </trkpt>
      <trkpt lat="45.5492" lon="6.83411">
        <ele>2557.3</ele>
        <time>2021-03-30T06:31:15Z</time>
      </trkpt>
      <trkpt lat="45.54919" lon="6.83411">
        <ele>2557.3</ele>
        <time>2021-03-30T06:31:16Z</time>
      </trkpt>
      <trkpt lat="45.54918" lon="6.83411">
        <ele>2558.1</ele>
        <time>2021-03-30T06:31:17Z</time>
      </trkpt>
      <trkpt lat="45.54918" lon="6.83412">
        <ele>2558.1</ele>
        <time>2021-03-30T06:31:18Z</time>
      </trkpt>
      <trkpt lat="45.54917" lon="6.83412">
        <ele>2558.1</ele>
        <time>2021-03-30T06:31:19Z</time>
      </trkpt>
      <trkpt lat="45.54917" lon="6.83412">
        <ele>2558.1</ele>
        <time>2021-03-30T06:31:20Z</time>
      </trkpt>
      <trkpt lat="45.54916" lon="6.83412">
        <ele>2559</ele>
        <time>2021-03-30T06:31:21Z</time>
      </trkpt>
      <trkpt lat="45.54915" lon="6.83412">
        <ele>2559</ele>
        <time>2021-03-30T06:31:22Z</time>
      </trkpt>
      <trkpt lat="45.54915" lon="6.83412">
        <ele>2559</ele>
        <time>2021-03-30T06:31:23Z</time>
      </trkpt>
      <trkpt lat="45.54914" lon="6.83412">
        <ele>2559</ele>
        <time>2021-03-30T06:31:24Z</time>
      </trkpt>
      <trkpt lat="45.54914" lon="6.83411">
        <ele>2559</ele>
        <time>2021-03-30T06:31:25Z</time>
      </trkpt>
      <trkpt lat="45.54913" lon="6.83411">
        <ele>2559.9</ele>
        <time>2021-03-30T06:31:26Z</time>
      </trkpt>
      <trkpt lat="45.54912" lon="6.83411">
        <ele>2559.9</ele>
        <time>2021-03-30T06:31:27Z</time>
      </trkpt>
      <trkpt lat="45.54912" lon="6.83411">
        <ele>2559.9</ele>
        <time>2021-03-30T06:31:28Z</time>
      </trkpt>
      <trkpt lat="45.54911" lon="6.83411">
        <ele>2559.9</ele>
        <time>2021-03-30T06:31:29Z</time>
      </trkpt>
      <trkpt lat="45.54911" lon="6.83411">
        <ele>2560</ele>
        <time>2021-03-30T06:31:30Z</time>
      </trkpt>
      <trkpt lat="45.5491" lon="6.83411">
        <ele>2560.8</ele>
        <time>2021-03-30T06:31:31Z</time>
      </trkpt>
      <trkpt lat="45.54909" lon="6.8341">
        <ele>2560.8</ele>
        <time>2021-03-30T06:31:32Z</time>
      </trkpt>
      <trkpt lat="45.54908" lon="6.8341">
        <ele>2560.8</ele>
        <time>2021-03-30T06:31:33Z</time>
      </trkpt>
      <trkpt lat="45.54908" lon="6.8341">
        <ele>2560.8</ele>
        <time>2021-03-30T06:31:34Z</time>
      </trkpt>
      <trkpt lat="45.54907" lon="6.8341">
        <ele>2560.8</ele>
        <time>2021-03-30T06:31:35Z</time>
      </trkpt>
      <trkpt lat="45.54907" lon="6.8341">
        <ele>2561.6</ele>
        <time>2021-03-30T06:31:36Z</time>
      </trkpt>
      <trkpt lat="45.54906" lon="6.8341">
        <ele>2561.6</ele>
        <time>2021-03-30T06:31:37Z</time>
      </trkpt>
      <trkpt lat="45.54906" lon="6.8341">
        <ele>2560.3</ele>
        <time>2021-03-30T06:31:38Z</time>
      </trkpt>
      <trkpt lat="45.54905" lon="6.8341">
        <ele>2560.4</ele>
        <time>2021-03-30T06:31:39Z</time>
      </trkpt>
      <trkpt lat="45.54905" lon="6.8341">
        <ele>2560.4</ele>
        <time>2021-03-30T06:31:40Z</time>
      </trkpt>
      <trkpt lat="45.54904" lon="6.83409">
        <ele>2560.4</ele>
        <time>2021-03-30T06:31:41Z</time>
      </trkpt>
      <trkpt lat="45.54903" lon="6.83409">
        <ele>2561.1</ele>
        <time>2021-03-30T06:31:42Z</time>
      </trkpt>
      <trkpt lat="45.54903" lon="6.83409">
        <ele>2561.2</ele>
        <time>2021-03-30T06:31:43Z</time>
      </trkpt>
      <trkpt lat="45.54902" lon="6.83409">
        <ele>2561.2</ele>
        <time>2021-03-30T06:31:44Z</time>
      </trkpt>
      <trkpt lat="45.54902" lon="6.83409">
        <ele>2561.2</ele>
        <time>2021-03-30T06:31:45Z</time>
      </trkpt>
      <trkpt lat="45.54901" lon="6.83409">
        <ele>2561.2</ele>
        <time>2021-03-30T06:31:46Z</time>
      </trkpt>
      <trkpt lat="45.54901" lon="6.83409">
        <ele>2562</ele>
        <time>2021-03-30T06:31:47Z</time>
      </trkpt>
      <trkpt lat="45.549" lon="6.83408">
        <ele>2562</ele>
        <time>2021-03-30T06:31:48Z</time>
      </trkpt>
      <trkpt lat="45.549" lon="6.83408">
        <ele>2562</ele>
        <time>2021-03-30T06:31:49Z</time>
      </trkpt>
      <trkpt lat="45.54899" lon="6.83408">
        <ele>2562</ele>
        <time>2021-03-30T06:31:50Z</time>
      </trkpt>
      <trkpt lat="45.54899" lon="6.83408">
        <ele>2562</ele>
        <time>2021-03-30T06:31:51Z</time>
      </trkpt>
      <trkpt lat="45.54899" lon="6.83408">
        <ele>2562</ele>
        <time>2021-03-30T06:31:52Z</time>
      </trkpt>
      <trkpt lat="45.54898" lon="6.83408">
        <ele>2562.9</ele>
        <time>2021-03-30T06:31:53Z</time>
      </trkpt>
      <trkpt lat="45.54897" lon="6.83408">
        <ele>2562.9</ele>
        <time>2021-03-30T06:31:54Z</time>
      </trkpt>
      <trkpt lat="45.54897" lon="6.83407">
        <ele>2562.9</ele>
        <time>2021-03-30T06:31:55Z</time>
      </trkpt>
      <trkpt lat="45.54896" lon="6.83407">
        <ele>2562.9</ele>
        <time>2021-03-30T06:31:56Z</time>
      </trkpt>
      <trkpt lat="45.54895" lon="6.83407">
        <ele>2563</ele>
        <time>2021-03-30T06:31:57Z</time>
      </trkpt>
      <trkpt lat="45.54895" lon="6.83407">
        <ele>2563.9</ele>
        <time>2021-03-30T06:31:58Z</time>
      </trkpt>
      <trkpt lat="45.54894" lon="6.83406">
        <ele>2563.9</ele>
        <time>2021-03-30T06:31:59Z</time>
      </trkpt>
      <trkpt lat="45.54894" lon="6.83406">
        <ele>2563.9</ele>
        <time>2021-03-30T06:32:00Z</time>
      </trkpt>
      <trkpt lat="45.54893" lon="6.83405">
        <ele>2562.8</ele>
        <time>2021-03-30T06:32:01Z</time>
      </trkpt>
      <trkpt lat="45.54892" lon="6.83405">
        <ele>2562.8</ele>
        <time>2021-03-30T06:32:02Z</time>
      </trkpt>
      <trkpt lat="45.54892" lon="6.83405">
        <ele>2563.8</ele>
        <time>2021-03-30T06:32:03Z</time>
      </trkpt>
      <trkpt lat="45.54891" lon="6.83405">
        <ele>2563.8</ele>
        <time>2021-03-30T06:32:04Z</time>
      </trkpt>
      <trkpt lat="45.54891" lon="6.83405">
        <ele>2563.8</ele>
        <time>2021-03-30T06:32:05Z</time>
      </trkpt>
      <trkpt lat="45.54891" lon="6.83405">
        <ele>2565</ele>
        <time>2021-03-30T06:32:06Z</time>
      </trkpt>
      <trkpt lat="45.5489" lon="6.83406">
        <ele>2565</ele>
        <time>2021-03-30T06:32:07Z</time>
      </trkpt>
      <trkpt lat="45.5489" lon="6.83408">
        <ele>2565</ele>
        <time>2021-03-30T06:32:08Z</time>
      </trkpt>
      <trkpt lat="45.5489" lon="6.83408">
        <ele>2565</ele>
        <time>2021-03-30T06:32:09Z</time>
      </trkpt>
      <trkpt lat="45.54891" lon="6.83409">
        <ele>2565</ele>
        <time>2021-03-30T06:32:10Z</time>
      </trkpt>
      <trkpt lat="45.54891" lon="6.83411">
        <ele>2566.2</ele>
        <time>2021-03-30T06:32:11Z</time>
      </trkpt>
      <trkpt lat="45.54891" lon="6.83411">
        <ele>2566.3</ele>
        <time>2021-03-30T06:32:12Z</time>
      </trkpt>
      <trkpt lat="45.54892" lon="6.83412">
        <ele>2566.3</ele>
        <time>2021-03-30T06:32:13Z</time>
      </trkpt>
      <trkpt lat="45.54892" lon="6.83413">
        <ele>2565.3</ele>
        <time>2021-03-30T06:32:14Z</time>
      </trkpt>
      <trkpt lat="45.54892" lon="6.83413">
        <ele>2565.3</ele>
        <time>2021-03-30T06:32:15Z</time>
      </trkpt>
      <trkpt lat="45.54893" lon="6.83414">
        <ele>2565.3</ele>
        <time>2021-03-30T06:32:16Z</time>
      </trkpt>
      <trkpt lat="45.54893" lon="6.83415">
        <ele>2566.7</ele>
        <time>2021-03-30T06:32:17Z</time>
      </trkpt>
      <trkpt lat="45.54893" lon="6.83415">
        <ele>2566.7</ele>
        <time>2021-03-30T06:32:18Z</time>
      </trkpt>
      <trkpt lat="45.54894" lon="6.83416">
        <ele>2566.7</ele>
        <time>2021-03-30T06:32:19Z</time>
      </trkpt>
      <trkpt lat="45.54894" lon="6.83417">
        <ele>2566.7</ele>
        <time>2021-03-30T06:32:20Z</time>
      </trkpt>
      <trkpt lat="45.54894" lon="6.83418">
        <ele>2566.7</ele>
        <time>2021-03-30T06:32:21Z</time>
      </trkpt>
      <trkpt lat="45.54895" lon="6.83418">
        <ele>2568.1</ele>
        <time>2021-03-30T06:32:22Z</time>
      </trkpt>
      <trkpt lat="45.54895" lon="6.83419">
        <ele>2568.1</ele>
        <time>2021-03-30T06:32:23Z</time>
      </trkpt>
      <trkpt lat="45.54895" lon="6.8342">
        <ele>2567.2</ele>
        <time>2021-03-30T06:32:24Z</time>
      </trkpt>
      <trkpt lat="45.54896" lon="6.83421">
        <ele>2567.2</ele>
        <time>2021-03-30T06:32:25Z</time>
      </trkpt>
      <trkpt lat="45.54896" lon="6.83421">
        <ele>2567.2</ele>
        <time>2021-03-30T06:32:26Z</time>
      </trkpt>
      <trkpt lat="45.54897" lon="6.83422">
        <ele>2567.2</ele>
        <time>2021-03-30T06:32:27Z</time>
      </trkpt>
      <trkpt lat="45.54897" lon="6.83422">
        <ele>2567.3</ele>
        <time>2021-03-30T06:32:28Z</time>
      </trkpt>
      <trkpt lat="45.54898" lon="6.83423">
        <ele>2568.7</ele>
        <time>2021-03-30T06:32:29Z</time>
      </trkpt>
      <trkpt lat="45.54898" lon="6.83423">
        <ele>2568.7</ele>
        <time>2021-03-30T06:32:30Z</time>
      </trkpt>
      <trkpt lat="45.54898" lon="6.83424">
        <ele>2567.9</ele>
        <time>2021-03-30T06:32:31Z</time>
      </trkpt>
      <trkpt lat="45.54898" lon="6.83425">
        <ele>2567.9</ele>
        <time>2021-03-30T06:32:32Z</time>
      </trkpt>
      <trkpt lat="45.54899" lon="6.83426">
        <ele>2567.9</ele>
        <time>2021-03-30T06:32:33Z</time>
      </trkpt>
      <trkpt lat="45.54899" lon="6.83426">
        <ele>2567.9</ele>
        <time>2021-03-30T06:32:34Z</time>
      </trkpt>
      <trkpt lat="45.54899" lon="6.83427">
        <ele>2567.9</ele>
        <time>2021-03-30T06:32:35Z</time>
      </trkpt>
      <trkpt lat="45.549" lon="6.83427">
        <ele>2569.3</ele>
        <time>2021-03-30T06:32:36Z</time>
      </trkpt>
      <trkpt lat="45.549" lon="6.83428">
        <ele>2569.3</ele>
        <time>2021-03-30T06:32:37Z</time>
      </trkpt>
      <trkpt lat="45.54901" lon="6.83428">
        <ele>2569.3</ele>
        <time>2021-03-30T06:32:38Z</time>
      </trkpt>
      <trkpt lat="45.54901" lon="6.83428">
        <ele>2568.6</ele>
        <time>2021-03-30T06:32:39Z</time>
      </trkpt>
      <trkpt lat="45.54902" lon="6.83428">
        <ele>2568.6</ele>
        <time>2021-03-30T06:32:40Z</time>
      </trkpt>
      <trkpt lat="45.54903" lon="6.83429">
        <ele>2568.6</ele>
        <time>2021-03-30T06:32:41Z</time>
      </trkpt>
      <trkpt lat="45.54903" lon="6.83429">
        <ele>2568.7</ele>
        <time>2021-03-30T06:32:42Z</time>
      </trkpt>
      <trkpt lat="45.54903" lon="6.8343">
        <ele>2568.7</ele>
        <time>2021-03-30T06:32:43Z</time>
      </trkpt>
      <trkpt lat="45.54903" lon="6.8343">
        <ele>2568.7</ele>
        <time>2021-03-30T06:32:44Z</time>
      </trkpt>
      <trkpt lat="45.54903" lon="6.83431">
        <ele>2568.7</ele>
        <time>2021-03-30T06:32:45Z</time>
      </trkpt>
      <trkpt lat="45.54903" lon="6.83431">
        <ele>2570.1</ele>
        <time>2021-03-30T06:32:46Z</time>
      </trkpt>
      <trkpt lat="45.54903" lon="6.83432">
        <ele>2570.1</ele>
        <time>2021-03-30T06:32:47Z</time>
      </trkpt>
      <trkpt lat="45.54904" lon="6.83433">
        <ele>2570.1</ele>
        <time>2021-03-30T06:32:48Z</time>
      </trkpt>
      <trkpt lat="45.54904" lon="6.83434">
        <ele>2569.4</ele>
        <time>2021-03-30T06:32:49Z</time>
      </trkpt>
      <trkpt lat="45.54904" lon="6.83434">
        <ele>2569.4</ele>
        <time>2021-03-30T06:32:50Z</time>
      </trkpt>
      <trkpt lat="45.54905" lon="6.83435">
        <ele>2569.4</ele>
        <time>2021-03-30T06:32:51Z</time>
      </trkpt>
      <trkpt lat="45.54905" lon="6.83435">
        <ele>2569.4</ele>
        <time>2021-03-30T06:32:52Z</time>
      </trkpt>
      <trkpt lat="45.54906" lon="6.83435">
        <ele>2569.5</ele>
        <time>2021-03-30T06:32:53Z</time>
      </trkpt>
      <trkpt lat="45.54906" lon="6.83436">
        <ele>2570.8</ele>
        <time>2021-03-30T06:32:54Z</time>
      </trkpt>
      <trkpt lat="45.54907" lon="6.83436">
        <ele>2570.9</ele>
        <time>2021-03-30T06:32:55Z</time>
      </trkpt>
      <trkpt lat="45.54907" lon="6.83436">
        <ele>2570.9</ele>
        <time>2021-03-30T06:32:56Z</time>
      </trkpt>
      <trkpt lat="45.54907" lon="6.83436">
        <ele>2570.9</ele>
        <time>2021-03-30T06:32:57Z</time>
      </trkpt>
      <trkpt lat="45.54907" lon="6.83436">
        <ele>2570.9</ele>
        <time>2021-03-30T06:32:58Z</time>
      </trkpt>
      <trkpt lat="45.54907" lon="6.83436">
        <ele>2570.9</ele>
        <time>2021-03-30T06:32:59Z</time>
      </trkpt>
      <trkpt lat="45.54907" lon="6.83436">
        <ele>2570.9</ele>
        <time>2021-03-30T06:33:00Z</time>
      </trkpt>
      <trkpt lat="45.54908" lon="6.83434">
        <ele>2568.8</ele>
        <time>2021-03-30T06:33:01Z</time>
      </trkpt>
      <trkpt lat="45.54907" lon="6.83434">
        <ele>2569.6</ele>
        <time>2021-03-30T06:33:02Z</time>
      </trkpt>
      <trkpt lat="45.54906" lon="6.83434">
        <ele>2569.6</ele>
        <time>2021-03-30T06:33:03Z</time>
      </trkpt>
      <trkpt lat="45.54905" lon="6.83435">
        <ele>2569.6</ele>
        <time>2021-03-30T06:33:13Z</time>
      </trkpt>
      <trkpt lat="45.54904" lon="6.83435">
        <ele>2570.3</ele>
        <time>2021-03-30T06:33:14Z</time>
      </trkpt>
      <trkpt lat="45.54903" lon="6.83435">
        <ele>2570.3</ele>
        <time>2021-03-30T06:33:15Z</time>
      </trkpt>
      <trkpt lat="45.54902" lon="6.83435">
        <ele>2570.3</ele>
        <time>2021-03-30T06:33:16Z</time>
      </trkpt>
      <trkpt lat="45.54901" lon="6.83435">
        <ele>2571.1</ele>
        <time>2021-03-30T06:33:17Z</time>
      </trkpt>
      <trkpt lat="45.549" lon="6.83435">
        <ele>2571.1</ele>
        <time>2021-03-30T06:33:18Z</time>
      </trkpt>
      <trkpt lat="45.54899" lon="6.83435">
        <ele>2571.1</ele>
        <time>2021-03-30T06:33:19Z</time>
      </trkpt>
      <trkpt lat="45.54899" lon="6.83435">
        <ele>2571.1</ele>
        <time>2021-03-30T06:33:20Z</time>
      </trkpt>
      <trkpt lat="45.54898" lon="6.83435">
        <ele>2571.9</ele>
        <time>2021-03-30T06:33:21Z</time>
      </trkpt>
      <trkpt lat="45.54897" lon="6.83435">
        <ele>2571.9</ele>
        <time>2021-03-30T06:33:22Z</time>
      </trkpt>
      <trkpt lat="45.54896" lon="6.83435">
        <ele>2571.9</ele>
        <time>2021-03-30T06:33:23Z</time>
      </trkpt>
      <trkpt lat="45.54895" lon="6.83435">
        <ele>2571.9</ele>
        <time>2021-03-30T06:33:24Z</time>
      </trkpt>
      <trkpt lat="45.54895" lon="6.83436">
        <ele>2574.1</ele>
        <time>2021-03-30T06:33:25Z</time>
      </trkpt>
      <trkpt lat="45.54894" lon="6.83436">
        <ele>2574.1</ele>
        <time>2021-03-30T06:33:26Z</time>
      </trkpt>
      <trkpt lat="45.54893" lon="6.83436">
        <ele>2574.1</ele>
        <time>2021-03-30T06:33:27Z</time>
      </trkpt>
      <trkpt lat="45.54892" lon="6.83436">
        <ele>2574.1</ele>
        <time>2021-03-30T06:33:28Z</time>
      </trkpt>
      <trkpt lat="45.54892" lon="6.83436">
        <ele>2574.9</ele>
        <time>2021-03-30T06:33:29Z</time>
      </trkpt>
      <trkpt lat="45.54891" lon="6.83436">
        <ele>2574.9</ele>
        <time>2021-03-30T06:33:30Z</time>
      </trkpt>
      <trkpt lat="45.5489" lon="6.83436">
        <ele>2575</ele>
        <time>2021-03-30T06:33:31Z</time>
      </trkpt>
      <trkpt lat="45.5489" lon="6.83436">
        <ele>2575</ele>
        <time>2021-03-30T06:33:32Z</time>
      </trkpt>
      <trkpt lat="45.5489" lon="6.83436">
        <ele>2575</ele>
        <time>2021-03-30T06:33:33Z</time>
      </trkpt>
      <trkpt lat="45.5489" lon="6.83436">
        <ele>2575</ele>
        <time>2021-03-30T06:33:34Z</time>
      </trkpt>
      <trkpt lat="45.54889" lon="6.83436">
        <ele>2575</ele>
        <time>2021-03-30T06:33:35Z</time>
      </trkpt>
      <trkpt lat="45.54889" lon="6.83435">
        <ele>2574.6</ele>
        <time>2021-03-30T06:33:36Z</time>
      </trkpt>
      <trkpt lat="45.54888" lon="6.83435">
        <ele>2574.6</ele>
        <time>2021-03-30T06:33:37Z</time>
      </trkpt>
      <trkpt lat="45.54887" lon="6.83435">
        <ele>2574.6</ele>
        <time>2021-03-30T06:33:38Z</time>
      </trkpt>
      <trkpt lat="45.54887" lon="6.83435">
        <ele>2574.6</ele>
        <time>2021-03-30T06:33:39Z</time>
      </trkpt>
      <trkpt lat="45.54887" lon="6.83435">
        <ele>2574.6</ele>
        <time>2021-03-30T06:33:40Z</time>
      </trkpt>
      <trkpt lat="45.54887" lon="6.83435">
        <ele>2574.6</ele>
        <time>2021-03-30T06:33:41Z</time>
      </trkpt>
      <trkpt lat="45.54887" lon="6.83435">
        <ele>2574.6</ele>
        <time>2021-03-30T06:33:42Z</time>
      </trkpt>
      <trkpt lat="45.54886" lon="6.83435">
        <ele>2574.6</ele>
        <time>2021-03-30T06:33:43Z</time>
      </trkpt>
      <trkpt lat="45.54886" lon="6.83435">
        <ele>2575.5</ele>
        <time>2021-03-30T06:33:44Z</time>
      </trkpt>
      <trkpt lat="45.54885" lon="6.83435">
        <ele>2575.5</ele>
        <time>2021-03-30T06:33:45Z</time>
      </trkpt>
      <trkpt lat="45.54884" lon="6.83434">
        <ele>2575.5</ele>
        <time>2021-03-30T06:33:46Z</time>
      </trkpt>
      <trkpt lat="45.54883" lon="6.83434">
        <ele>2575.5</ele>
        <time>2021-03-30T06:33:47Z</time>
      </trkpt>
      <trkpt lat="45.54883" lon="6.83434">
        <ele>2576.3</ele>
        <time>2021-03-30T06:33:48Z</time>
      </trkpt>
      <trkpt lat="45.54882" lon="6.83434">
        <ele>2576.3</ele>
        <time>2021-03-30T06:33:49Z</time>
      </trkpt>
      <trkpt lat="45.54881" lon="6.83433">
        <ele>2576.3</ele>
        <time>2021-03-30T06:33:50Z</time>
      </trkpt>
      <trkpt lat="45.54881" lon="6.83433">
        <ele>2576.3</ele>
        <time>2021-03-30T06:33:51Z</time>
      </trkpt>
      <trkpt lat="45.5488" lon="6.83433">
        <ele>2577.1</ele>
        <time>2021-03-30T06:33:52Z</time>
      </trkpt>
      <trkpt lat="45.54879" lon="6.83433">
        <ele>2577.1</ele>
        <time>2021-03-30T06:33:53Z</time>
      </trkpt>
      <trkpt lat="45.54878" lon="6.83432">
        <ele>2577.1</ele>
        <time>2021-03-30T06:33:54Z</time>
      </trkpt>
      <trkpt lat="45.54878" lon="6.83432">
        <ele>2577.1</ele>
        <time>2021-03-30T06:33:55Z</time>
      </trkpt>
      <trkpt lat="45.54877" lon="6.83432">
        <ele>2577.1</ele>
        <time>2021-03-30T06:33:56Z</time>
      </trkpt>
      <trkpt lat="45.54877" lon="6.83431">
        <ele>2576.7</ele>
        <time>2021-03-30T06:33:57Z</time>
      </trkpt>
      <trkpt lat="45.54876" lon="6.83431">
        <ele>2576.7</ele>
        <time>2021-03-30T06:33:58Z</time>
      </trkpt>
      <trkpt lat="45.54875" lon="6.8343">
        <ele>2576.8</ele>
        <time>2021-03-30T06:33:59Z</time>
      </trkpt>
      <trkpt lat="45.54875" lon="6.8343">
        <ele>2576.8</ele>
        <time>2021-03-30T06:34:00Z</time>
      </trkpt>
      <trkpt lat="45.54874" lon="6.8343">
        <ele>2576.8</ele>
        <time>2021-03-30T06:34:01Z</time>
      </trkpt>
      <trkpt lat="45.54873" lon="6.83429">
        <ele>2577.6</ele>
        <time>2021-03-30T06:34:02Z</time>
      </trkpt>
      <trkpt lat="45.54873" lon="6.83429">
        <ele>2577.6</ele>
        <time>2021-03-30T06:34:03Z</time>
      </trkpt>
      <trkpt lat="45.54872" lon="6.83429">
        <ele>2577.6</ele>
        <time>2021-03-30T06:34:04Z</time>
      </trkpt>
      <trkpt lat="45.54871" lon="6.83429">
        <ele>2577.7</ele>
        <time>2021-03-30T06:34:05Z</time>
      </trkpt>
      <trkpt lat="45.54871" lon="6.83429">
        <ele>2578.5</ele>
        <time>2021-03-30T06:34:06Z</time>
      </trkpt>
      <trkpt lat="45.5487" lon="6.83429">
        <ele>2578.5</ele>
        <time>2021-03-30T06:34:07Z</time>
      </trkpt>
      <trkpt lat="45.54869" lon="6.83429">
        <ele>2578.5</ele>
        <time>2021-03-30T06:34:08Z</time>
      </trkpt>
      <trkpt lat="45.54869" lon="6.83429">
        <ele>2578.6</ele>
        <time>2021-03-30T06:34:09Z</time>
      </trkpt>
      <trkpt lat="45.54868" lon="6.83429">
        <ele>2579.5</ele>
        <time>2021-03-30T06:34:10Z</time>
      </trkpt>
      <trkpt lat="45.54867" lon="6.83429">
        <ele>2579.5</ele>
        <time>2021-03-30T06:34:11Z</time>
      </trkpt>
      <trkpt lat="45.54866" lon="6.83429">
        <ele>2579.5</ele>
        <time>2021-03-30T06:34:12Z</time>
      </trkpt>
      <trkpt lat="45.54866" lon="6.83428">
        <ele>2579.5</ele>
        <time>2021-03-30T06:34:13Z</time>
      </trkpt>
      <trkpt lat="45.54865" lon="6.83428">
        <ele>2579.5</ele>
        <time>2021-03-30T06:34:14Z</time>
      </trkpt>
      <trkpt lat="45.54865" lon="6.83428">
        <ele>2580.4</ele>
        <time>2021-03-30T06:34:15Z</time>
      </trkpt>
      <trkpt lat="45.54864" lon="6.83428">
        <ele>2580.5</ele>
        <time>2021-03-30T06:34:16Z</time>
      </trkpt>
      <trkpt lat="45.54863" lon="6.83428">
        <ele>2580.5</ele>
        <time>2021-03-30T06:34:17Z</time>
      </trkpt>
      <trkpt lat="45.54863" lon="6.83427">
        <ele>2580.5</ele>
        <time>2021-03-30T06:34:18Z</time>
      </trkpt>
      <trkpt lat="45.54862" lon="6.83427">
        <ele>2581.4</ele>
        <time>2021-03-30T06:34:19Z</time>
      </trkpt>
      <trkpt lat="45.54861" lon="6.83427">
        <ele>2581.4</ele>
        <time>2021-03-30T06:34:20Z</time>
      </trkpt>
      <trkpt lat="45.5486" lon="6.83427">
        <ele>2580.3</ele>
        <time>2021-03-30T06:34:21Z</time>
      </trkpt>
      <trkpt lat="45.54859" lon="6.83426">
        <ele>2580.3</ele>
        <time>2021-03-30T06:34:22Z</time>
      </trkpt>
      <trkpt lat="45.54859" lon="6.83426">
        <ele>2581.3</ele>
        <time>2021-03-30T06:34:23Z</time>
      </trkpt>
      <trkpt lat="45.54858" lon="6.83426">
        <ele>2581.3</ele>
        <time>2021-03-30T06:34:24Z</time>
      </trkpt>
      <trkpt lat="45.54858" lon="6.83426">
        <ele>2581.3</ele>
        <time>2021-03-30T06:34:25Z</time>
      </trkpt>
      <trkpt lat="45.54857" lon="6.83425">
        <ele>2581.3</ele>
        <time>2021-03-30T06:34:26Z</time>
      </trkpt>
      <trkpt lat="45.54856" lon="6.83425">
        <ele>2581.3</ele>
        <time>2021-03-30T06:34:27Z</time>
      </trkpt>
      <trkpt lat="45.54856" lon="6.83425">
        <ele>2582.3</ele>
        <time>2021-03-30T06:34:28Z</time>
      </trkpt>
      <trkpt lat="45.54855" lon="6.83424">
        <ele>2582.3</ele>
        <time>2021-03-30T06:34:29Z</time>
      </trkpt>
      <trkpt lat="45.54855" lon="6.83424">
        <ele>2582.3</ele>
        <time>2021-03-30T06:34:30Z</time>
      </trkpt>
      <trkpt lat="45.54854" lon="6.83424">
        <ele>2582.3</ele>
        <time>2021-03-30T06:34:31Z</time>
      </trkpt>
      <trkpt lat="45.54854" lon="6.83423">
        <ele>2582.3</ele>
        <time>2021-03-30T06:34:32Z</time>
      </trkpt>
      <trkpt lat="45.54853" lon="6.83423">
        <ele>2582.3</ele>
        <time>2021-03-30T06:34:33Z</time>
      </trkpt>
      <trkpt lat="45.54853" lon="6.83423">
        <ele>2583.2</ele>
        <time>2021-03-30T06:34:34Z</time>
      </trkpt>
      <trkpt lat="45.54852" lon="6.83422">
        <ele>2582</ele>
        <time>2021-03-30T06:34:35Z</time>
      </trkpt>
      <trkpt lat="45.54852" lon="6.83422">
        <ele>2582</ele>
        <time>2021-03-30T06:34:36Z</time>
      </trkpt>
      <trkpt lat="45.54851" lon="6.83422">
        <ele>2582.1</ele>
        <time>2021-03-30T06:34:37Z</time>
      </trkpt>
      <trkpt lat="45.5485" lon="6.83421">
        <ele>2582.1</ele>
        <time>2021-03-30T06:34:38Z</time>
      </trkpt>
      <trkpt lat="45.5485" lon="6.83421">
        <ele>2582.1</ele>
        <time>2021-03-30T06:34:39Z</time>
      </trkpt>
      <trkpt lat="45.5485" lon="6.83421">
        <ele>2582.1</ele>
        <time>2021-03-30T06:34:40Z</time>
      </trkpt>
      <trkpt lat="45.5485" lon="6.83421">
        <ele>2582.1</ele>
        <time>2021-03-30T06:34:41Z</time>
      </trkpt>
      <trkpt lat="45.5485" lon="6.83421">
        <ele>2582.1</ele>
        <time>2021-03-30T06:34:42Z</time>
      </trkpt>
      <trkpt lat="45.5485" lon="6.83421">
        <ele>2582.1</ele>
        <time>2021-03-30T06:34:43Z</time>
      </trkpt>
      <trkpt lat="45.5485" lon="6.8342">
        <ele>2583</ele>
        <time>2021-03-30T06:34:44Z</time>
      </trkpt>
      <trkpt lat="45.54849" lon="6.8342">
        <ele>2583</ele>
        <time>2021-03-30T06:34:45Z</time>
      </trkpt>
      <trkpt lat="45.54849" lon="6.83419">
        <ele>2583</ele>
        <time>2021-03-30T06:34:46Z</time>
      </trkpt>
      <trkpt lat="45.54848" lon="6.83419">
        <ele>2583</ele>
        <time>2021-03-30T06:34:47Z</time>
      </trkpt>
      <trkpt lat="45.54847" lon="6.83419">
        <ele>2583.1</ele>
        <time>2021-03-30T06:34:48Z</time>
      </trkpt>
      <trkpt lat="45.54847" lon="6.83418">
        <ele>2582.7</ele>
        <time>2021-03-30T06:34:49Z</time>
      </trkpt>
      <trkpt lat="45.54846" lon="6.83418">
        <ele>2582.7</ele>
        <time>2021-03-30T06:34:50Z</time>
      </trkpt>
      <trkpt lat="45.54845" lon="6.83417">
        <ele>2582.7</ele>
        <time>2021-03-30T06:34:51Z</time>
      </trkpt>
      <trkpt lat="45.54845" lon="6.83417">
        <ele>2582.7</ele>
        <time>2021-03-30T06:34:52Z</time>
      </trkpt>
      <trkpt lat="45.54844" lon="6.83417">
        <ele>2582.7</ele>
        <time>2021-03-30T06:34:53Z</time>
      </trkpt>
      <trkpt lat="45.54844" lon="6.83417">
        <ele>2583.6</ele>
        <time>2021-03-30T06:34:54Z</time>
      </trkpt>
      <trkpt lat="45.54843" lon="6.83416">
        <ele>2583.6</ele>
        <time>2021-03-30T06:34:55Z</time>
      </trkpt>
      <trkpt lat="45.54842" lon="6.83416">
        <ele>2583.6</ele>
        <time>2021-03-30T06:34:56Z</time>
      </trkpt>
      <trkpt lat="45.54841" lon="6.83416">
        <ele>2583.6</ele>
        <time>2021-03-30T06:34:57Z</time>
      </trkpt>
      <trkpt lat="45.54841" lon="6.83415">
        <ele>2584.5</ele>
        <time>2021-03-30T06:34:58Z</time>
      </trkpt>
      <trkpt lat="45.5484" lon="6.83415">
        <ele>2584.6</ele>
        <time>2021-03-30T06:34:59Z</time>
      </trkpt>
      <trkpt lat="45.54839" lon="6.83415">
        <ele>2584.6</ele>
        <time>2021-03-30T06:35:00Z</time>
      </trkpt>
      <trkpt lat="45.54839" lon="6.83415">
        <ele>2584.6</ele>
        <time>2021-03-30T06:35:01Z</time>
      </trkpt>
      <trkpt lat="45.54838" lon="6.83415">
        <ele>2584.6</ele>
        <time>2021-03-30T06:35:02Z</time>
      </trkpt>
      <trkpt lat="45.54838" lon="6.83415">
        <ele>2585.5</ele>
        <time>2021-03-30T06:35:03Z</time>
      </trkpt>
      <trkpt lat="45.54837" lon="6.83415">
        <ele>2585.6</ele>
        <time>2021-03-30T06:35:04Z</time>
      </trkpt>
      <trkpt lat="45.54837" lon="6.83415">
        <ele>2585.6</ele>
        <time>2021-03-30T06:35:05Z</time>
      </trkpt>
      <trkpt lat="45.54836" lon="6.83415">
        <ele>2585.6</ele>
        <time>2021-03-30T06:35:06Z</time>
      </trkpt>
      <trkpt lat="45.54836" lon="6.83414">
        <ele>2585.6</ele>
        <time>2021-03-30T06:35:07Z</time>
      </trkpt>
      <trkpt lat="45.54835" lon="6.83414">
        <ele>2585.6</ele>
        <time>2021-03-30T06:35:08Z</time>
      </trkpt>
      <trkpt lat="45.54835" lon="6.83414">
        <ele>2586.6</ele>
        <time>2021-03-30T06:35:09Z</time>
      </trkpt>
      <trkpt lat="45.54834" lon="6.83414">
        <ele>2585.6</ele>
        <time>2021-03-30T06:35:10Z</time>
      </trkpt>
      <trkpt lat="45.54834" lon="6.83414">
        <ele>2585.6</ele>
        <time>2021-03-30T06:35:11Z</time>
      </trkpt>
      <trkpt lat="45.54833" lon="6.83414">
        <ele>2585.6</ele>
        <time>2021-03-30T06:35:12Z</time>
      </trkpt>
      <trkpt lat="45.54832" lon="6.83414">
        <ele>2585.6</ele>
        <time>2021-03-30T06:35:13Z</time>
      </trkpt>
      <trkpt lat="45.54832" lon="6.83414">
        <ele>2585.6</ele>
        <time>2021-03-30T06:35:14Z</time>
      </trkpt>
      <trkpt lat="45.54831" lon="6.83414">
        <ele>2586.7</ele>
        <time>2021-03-30T06:35:15Z</time>
      </trkpt>
      <trkpt lat="45.54831" lon="6.83413">
        <ele>2586.7</ele>
        <time>2021-03-30T06:35:16Z</time>
      </trkpt>
      <trkpt lat="45.5483" lon="6.83413">
        <ele>2586.7</ele>
        <time>2021-03-30T06:35:17Z</time>
      </trkpt>
      <trkpt lat="45.5483" lon="6.83413">
        <ele>2586.7</ele>
        <time>2021-03-30T06:35:18Z</time>
      </trkpt>
      <trkpt lat="45.54829" lon="6.83413">
        <ele>2586.8</ele>
        <time>2021-03-30T06:35:19Z</time>
      </trkpt>
      <trkpt lat="45.54828" lon="6.83413">
        <ele>2587.8</ele>
        <time>2021-03-30T06:35:20Z</time>
      </trkpt>
      <trkpt lat="45.54828" lon="6.83412">
        <ele>2587.8</ele>
        <time>2021-03-30T06:35:21Z</time>
      </trkpt>
      <trkpt lat="45.54827" lon="6.83412">
        <ele>2587.8</ele>
        <time>2021-03-30T06:35:22Z</time>
      </trkpt>
      <trkpt lat="45.54827" lon="6.83412">
        <ele>2587.8</ele>
        <time>2021-03-30T06:35:23Z</time>
      </trkpt>
      <trkpt lat="45.54826" lon="6.83412">
        <ele>2587.8</ele>
        <time>2021-03-30T06:35:24Z</time>
      </trkpt>
      <trkpt lat="45.54826" lon="6.83412">
        <ele>2588.8</ele>
        <time>2021-03-30T06:35:25Z</time>
      </trkpt>
      <trkpt lat="45.54825" lon="6.83412">
        <ele>2588.8</ele>
        <time>2021-03-30T06:35:26Z</time>
      </trkpt>
      <trkpt lat="45.54825" lon="6.83412">
        <ele>2588.8</ele>
        <time>2021-03-30T06:35:27Z</time>
      </trkpt>
      <trkpt lat="45.54824" lon="6.83412">
        <ele>2588.8</ele>
        <time>2021-03-30T06:35:28Z</time>
      </trkpt>
      <trkpt lat="45.54823" lon="6.83412">
        <ele>2588.8</ele>
        <time>2021-03-30T06:35:29Z</time>
      </trkpt>
      <trkpt lat="45.54823" lon="6.83412">
        <ele>2589.7</ele>
        <time>2021-03-30T06:35:30Z</time>
      </trkpt>
      <trkpt lat="45.54822" lon="6.83412">
        <ele>2589.7</ele>
        <time>2021-03-30T06:35:31Z</time>
      </trkpt>
      <trkpt lat="45.54822" lon="6.83412">
        <ele>2589.7</ele>
        <time>2021-03-30T06:35:32Z</time>
      </trkpt>
      <trkpt lat="45.54821" lon="6.83412">
        <ele>2589.7</ele>
        <time>2021-03-30T06:35:33Z</time>
      </trkpt>
      <trkpt lat="45.5482" lon="6.83412">
        <ele>2589.8</ele>
        <time>2021-03-30T06:35:34Z</time>
      </trkpt>
      <trkpt lat="45.5482" lon="6.83413">
        <ele>2590.6</ele>
        <time>2021-03-30T06:35:35Z</time>
      </trkpt>
      <trkpt lat="45.54819" lon="6.83413">
        <ele>2590.6</ele>
        <time>2021-03-30T06:35:36Z</time>
      </trkpt>
      <trkpt lat="45.54819" lon="6.83413">
        <ele>2590.6</ele>
        <time>2021-03-30T06:35:37Z</time>
      </trkpt>
      <trkpt lat="45.54819" lon="6.83413">
        <ele>2590.6</ele>
        <time>2021-03-30T06:35:38Z</time>
      </trkpt>
      <trkpt lat="45.54818" lon="6.83414">
        <ele>2590.6</ele>
        <time>2021-03-30T06:35:39Z</time>
      </trkpt>
      <trkpt lat="45.54818" lon="6.83414">
        <ele>2590.6</ele>
        <time>2021-03-30T06:35:40Z</time>
      </trkpt>
      <trkpt lat="45.54818" lon="6.83414">
        <ele>2591.6</ele>
        <time>2021-03-30T06:35:41Z</time>
      </trkpt>
      <trkpt lat="45.54817" lon="6.83415">
        <ele>2591.6</ele>
        <time>2021-03-30T06:35:42Z</time>
      </trkpt>
      <trkpt lat="45.54817" lon="6.83415">
        <ele>2592.4</ele>
        <time>2021-03-30T06:35:52Z</time>
      </trkpt>
      <trkpt lat="45.54816" lon="6.83415">
        <ele>2592.4</ele>
        <time>2021-03-30T06:35:53Z</time>
      </trkpt>
      <trkpt lat="45.54816" lon="6.83415">
        <ele>2592.4</ele>
        <time>2021-03-30T06:35:54Z</time>
      </trkpt>
      <trkpt lat="45.54816" lon="6.83416">
        <ele>2592.5</ele>
        <time>2021-03-30T06:35:55Z</time>
      </trkpt>
      <trkpt lat="45.54815" lon="6.83416">
        <ele>2592.5</ele>
        <time>2021-03-30T06:35:56Z</time>
      </trkpt>
      <trkpt lat="45.54815" lon="6.83417">
        <ele>2592.5</ele>
        <time>2021-03-30T06:35:57Z</time>
      </trkpt>
      <trkpt lat="45.54815" lon="6.83417">
        <ele>2592.5</ele>
        <time>2021-03-30T06:35:58Z</time>
      </trkpt>
      <trkpt lat="45.54814" lon="6.83418">
        <ele>2592.5</ele>
        <time>2021-03-30T06:35:59Z</time>
      </trkpt>
      <trkpt lat="45.54814" lon="6.83418">
        <ele>2592.5</ele>
        <time>2021-03-30T06:36:00Z</time>
      </trkpt>
      <trkpt lat="45.54813" lon="6.83419">
        <ele>2594.4</ele>
        <time>2021-03-30T06:36:01Z</time>
      </trkpt>
      <trkpt lat="45.54813" lon="6.83419">
        <ele>2594.4</ele>
        <time>2021-03-30T06:36:02Z</time>
      </trkpt>
      <trkpt lat="45.54813" lon="6.8342">
        <ele>2594.4</ele>
        <time>2021-03-30T06:36:03Z</time>
      </trkpt>
      <trkpt lat="45.54812" lon="6.8342">
        <ele>2594.4</ele>
        <time>2021-03-30T06:36:04Z</time>
      </trkpt>
      <trkpt lat="45.54812" lon="6.83421">
        <ele>2594.4</ele>
        <time>2021-03-30T06:36:05Z</time>
      </trkpt>
      <trkpt lat="45.54812" lon="6.83422">
        <ele>2594.4</ele>
        <time>2021-03-30T06:36:06Z</time>
      </trkpt>
      <trkpt lat="45.54811" lon="6.83422">
        <ele>2594.5</ele>
        <time>2021-03-30T06:36:07Z</time>
      </trkpt>
      <trkpt lat="45.54811" lon="6.83422">
        <ele>2595.4</ele>
        <time>2021-03-30T06:36:08Z</time>
      </trkpt>
      <trkpt lat="45.5481" lon="6.83423">
        <ele>2596.4</ele>
        <time>2021-03-30T06:36:09Z</time>
      </trkpt>
      <trkpt lat="45.5481" lon="6.83424">
        <ele>2596.5</ele>
        <time>2021-03-30T06:36:10Z</time>
      </trkpt>
      <trkpt lat="45.54809" lon="6.83424">
        <ele>2596.5</ele>
        <time>2021-03-30T06:36:11Z</time>
      </trkpt>
      <trkpt lat="45.54809" lon="6.83425">
        <ele>2596.5</ele>
        <time>2021-03-30T06:36:12Z</time>
      </trkpt>
      <trkpt lat="45.54808" lon="6.83426">
        <ele>2596.5</ele>
        <time>2021-03-30T06:36:13Z</time>
      </trkpt>
      <trkpt lat="45.54808" lon="6.83427">
        <ele>2597.5</ele>
        <time>2021-03-30T06:36:14Z</time>
      </trkpt>
      <trkpt lat="45.54807" lon="6.83428">
        <ele>2598.5</ele>
        <time>2021-03-30T06:36:15Z</time>
      </trkpt>
      <trkpt lat="45.54807" lon="6.83429">
        <ele>2598.5</ele>
        <time>2021-03-30T06:36:16Z</time>
      </trkpt>
      <trkpt lat="45.54807" lon="6.8343">
        <ele>2598.6</ele>
        <time>2021-03-30T06:36:17Z</time>
      </trkpt>
      <trkpt lat="45.54806" lon="6.83431">
        <ele>2598.6</ele>
        <time>2021-03-30T06:36:18Z</time>
      </trkpt>
      <trkpt lat="45.54806" lon="6.83432">
        <ele>2599.6</ele>
        <time>2021-03-30T06:36:19Z</time>
      </trkpt>
      <trkpt lat="45.54806" lon="6.83433">
        <ele>2599.6</ele>
        <time>2021-03-30T06:36:20Z</time>
      </trkpt>
      <trkpt lat="45.54806" lon="6.83433">
        <ele>2599.6</ele>
        <time>2021-03-30T06:36:21Z</time>
      </trkpt>
      <trkpt lat="45.54806" lon="6.83435">
        <ele>2599.7</ele>
        <time>2021-03-30T06:36:22Z</time>
      </trkpt>
      <trkpt lat="45.54805" lon="6.83436">
        <ele>2600.7</ele>
        <time>2021-03-30T06:36:23Z</time>
      </trkpt>
      <trkpt lat="45.54805" lon="6.83437">
        <ele>2600.7</ele>
        <time>2021-03-30T06:36:24Z</time>
      </trkpt>
      <trkpt lat="45.54805" lon="6.83437">
        <ele>2600.7</ele>
        <time>2021-03-30T06:36:25Z</time>
      </trkpt>
      <trkpt lat="45.54805" lon="6.83438">
        <ele>2600.8</ele>
        <time>2021-03-30T06:36:26Z</time>
      </trkpt>
      <trkpt lat="45.54805" lon="6.83439">
        <ele>2600.8</ele>
        <time>2021-03-30T06:36:27Z</time>
      </trkpt>
      <trkpt lat="45.54805" lon="6.8344">
        <ele>2601.9</ele>
        <time>2021-03-30T06:36:28Z</time>
      </trkpt>
      <trkpt lat="45.54805" lon="6.83441">
        <ele>2601.9</ele>
        <time>2021-03-30T06:36:29Z</time>
      </trkpt>
      <trkpt lat="45.54805" lon="6.83442">
        <ele>2601.9</ele>
        <time>2021-03-30T06:36:30Z</time>
      </trkpt>
      <trkpt lat="45.54805" lon="6.83443">
        <ele>2601.9</ele>
        <time>2021-03-30T06:36:31Z</time>
      </trkpt>
      <trkpt lat="45.54805" lon="6.83444">
        <ele>2601.9</ele>
        <time>2021-03-30T06:36:32Z</time>
      </trkpt>
      <trkpt lat="45.54805" lon="6.83445">
        <ele>2603</ele>
        <time>2021-03-30T06:36:33Z</time>
      </trkpt>
      <trkpt lat="45.54805" lon="6.83446">
        <ele>2603.1</ele>
        <time>2021-03-30T06:36:34Z</time>
      </trkpt>
      <trkpt lat="45.54805" lon="6.83447">
        <ele>2603.1</ele>
        <time>2021-03-30T06:36:35Z</time>
      </trkpt>
      <trkpt lat="45.54805" lon="6.83447">
        <ele>2603.1</ele>
        <time>2021-03-30T06:36:36Z</time>
      </trkpt>
      <trkpt lat="45.54806" lon="6.83448">
        <ele>2603.1</ele>
        <time>2021-03-30T06:36:37Z</time>
      </trkpt>
      <trkpt lat="45.54806" lon="6.83449">
        <ele>2604.3</ele>
        <time>2021-03-30T06:36:38Z</time>
      </trkpt>
      <trkpt lat="45.54806" lon="6.8345">
        <ele>2604.3</ele>
        <time>2021-03-30T06:36:39Z</time>
      </trkpt>
      <trkpt lat="45.54806" lon="6.8345">
        <ele>2604.3</ele>
        <time>2021-03-30T06:36:40Z</time>
      </trkpt>
      <trkpt lat="45.54807" lon="6.83451">
        <ele>2604.3</ele>
        <time>2021-03-30T06:36:41Z</time>
      </trkpt>
      <trkpt lat="45.54807" lon="6.83452">
        <ele>2604.3</ele>
        <time>2021-03-30T06:36:42Z</time>
      </trkpt>
      <trkpt lat="45.54807" lon="6.83453">
        <ele>2605.6</ele>
        <time>2021-03-30T06:36:43Z</time>
      </trkpt>
      <trkpt lat="45.54807" lon="6.83454">
        <ele>2605.6</ele>
        <time>2021-03-30T06:36:44Z</time>
      </trkpt>
      <trkpt lat="45.54806" lon="6.83454">
        <ele>2605.6</ele>
        <time>2021-03-30T06:36:45Z</time>
      </trkpt>
      <trkpt lat="45.54806" lon="6.83455">
        <ele>2605.6</ele>
        <time>2021-03-30T06:36:46Z</time>
      </trkpt>
      <trkpt lat="45.54806" lon="6.83456">
        <ele>2605.6</ele>
        <time>2021-03-30T06:36:47Z</time>
      </trkpt>
      <trkpt lat="45.54806" lon="6.83456">
        <ele>2605.7</ele>
        <time>2021-03-30T06:36:48Z</time>
      </trkpt>
      <trkpt lat="45.54806" lon="6.83457">
        <ele>2605.7</ele>
        <time>2021-03-30T06:36:49Z</time>
      </trkpt>
      <trkpt lat="45.54807" lon="6.83457">
        <ele>2607</ele>
        <time>2021-03-30T06:36:50Z</time>
      </trkpt>
      <trkpt lat="45.54807" lon="6.83458">
        <ele>2607</ele>
        <time>2021-03-30T06:36:51Z</time>
      </trkpt>
      <trkpt lat="45.54807" lon="6.83458">
        <ele>2607</ele>
        <time>2021-03-30T06:36:52Z</time>
      </trkpt>
      <trkpt lat="45.54807" lon="6.83459">
        <ele>2607</ele>
        <time>2021-03-30T06:36:53Z</time>
      </trkpt>
      <trkpt lat="45.54807" lon="6.83459">
        <ele>2607.1</ele>
        <time>2021-03-30T06:36:54Z</time>
      </trkpt>
      <trkpt lat="45.54807" lon="6.8346">
        <ele>2607.1</ele>
        <time>2021-03-30T06:36:55Z</time>
      </trkpt>
      <trkpt lat="45.54808" lon="6.83461">
        <ele>2607.1</ele>
        <time>2021-03-30T06:36:56Z</time>
      </trkpt>
      <trkpt lat="45.54808" lon="6.83461">
        <ele>2608.5</ele>
        <time>2021-03-30T06:36:57Z</time>
      </trkpt>
      <trkpt lat="45.54808" lon="6.83462">
        <ele>2608.5</ele>
        <time>2021-03-30T06:36:58Z</time>
      </trkpt>
      <trkpt lat="45.54808" lon="6.83463">
        <ele>2608.5</ele>
        <time>2021-03-30T06:36:59Z</time>
      </trkpt>
      <trkpt lat="45.54808" lon="6.83464">
        <ele>2607.6</ele>
        <time>2021-03-30T06:37:00Z</time>
      </trkpt>
      <trkpt lat="45.54808" lon="6.83464">
        <ele>2607.6</ele>
        <time>2021-03-30T06:37:01Z</time>
      </trkpt>
      <trkpt lat="45.54808" lon="6.83465">
        <ele>2607.7</ele>
        <time>2021-03-30T06:37:02Z</time>
      </trkpt>
      <trkpt lat="45.54808" lon="6.83466">
        <ele>2609.2</ele>
        <time>2021-03-30T06:37:03Z</time>
      </trkpt>
      <trkpt lat="45.54808" lon="6.83467">
        <ele>2609.2</ele>
        <time>2021-03-30T06:37:04Z</time>
      </trkpt>
      <trkpt lat="45.54808" lon="6.83467">
        <ele>2609.2</ele>
        <time>2021-03-30T06:37:05Z</time>
      </trkpt>
      <trkpt lat="45.54808" lon="6.83468">
        <ele>2609.2</ele>
        <time>2021-03-30T06:37:06Z</time>
      </trkpt>
      <trkpt lat="45.54808" lon="6.83469">
        <ele>2609.2</ele>
        <time>2021-03-30T06:37:07Z</time>
      </trkpt>
      <trkpt lat="45.54808" lon="6.83469">
        <ele>2609.2</ele>
        <time>2021-03-30T06:37:08Z</time>
      </trkpt>
      <trkpt lat="45.54808" lon="6.8347">
        <ele>2610.8</ele>
        <time>2021-03-30T06:37:09Z</time>
      </trkpt>
      <trkpt lat="45.54808" lon="6.83471">
        <ele>2610.8</ele>
        <time>2021-03-30T06:37:10Z</time>
      </trkpt>
      <trkpt lat="45.54808" lon="6.83471">
        <ele>2610.8</ele>
        <time>2021-03-30T06:37:11Z</time>
      </trkpt>
      <trkpt lat="45.54809" lon="6.83472">
        <ele>2610.8</ele>
        <time>2021-03-30T06:37:12Z</time>
      </trkpt>
      <trkpt lat="45.54809" lon="6.83473">
        <ele>2610.8</ele>
        <time>2021-03-30T06:37:13Z</time>
      </trkpt>
      <trkpt lat="45.54809" lon="6.83473">
        <ele>2610.8</ele>
        <time>2021-03-30T06:37:14Z</time>
      </trkpt>
      <trkpt lat="45.54809" lon="6.83474">
        <ele>2610.8</ele>
        <time>2021-03-30T06:37:15Z</time>
      </trkpt>
      <trkpt lat="45.5481" lon="6.83475">
        <ele>2612.4</ele>
        <time>2021-03-30T06:37:16Z</time>
      </trkpt>
      <trkpt lat="45.5481" lon="6.83475">
        <ele>2612.4</ele>
        <time>2021-03-30T06:37:17Z</time>
      </trkpt>
      <trkpt lat="45.5481" lon="6.83476">
        <ele>2612.4</ele>
        <time>2021-03-30T06:37:18Z</time>
      </trkpt>
      <trkpt lat="45.5481" lon="6.83476">
        <ele>2612.4</ele>
        <time>2021-03-30T06:37:19Z</time>
      </trkpt>
      <trkpt lat="45.5481" lon="6.83477">
        <ele>2612.4</ele>
        <time>2021-03-30T06:37:20Z</time>
      </trkpt>
      <trkpt lat="45.5481" lon="6.83477">
        <ele>2612.5</ele>
        <time>2021-03-30T06:37:21Z</time>
      </trkpt>
      <trkpt lat="45.5481" lon="6.83478">
        <ele>2612.5</ele>
        <time>2021-03-30T06:37:22Z</time>
      </trkpt>
      <trkpt lat="45.5481" lon="6.83479">
        <ele>2614</ele>
        <time>2021-03-30T06:37:23Z</time>
      </trkpt>
      <trkpt lat="45.5481" lon="6.83479">
        <ele>2614</ele>
        <time>2021-03-30T06:37:24Z</time>
      </trkpt>
      <trkpt lat="45.5481" lon="6.83479">
        <ele>2614</ele>
        <time>2021-03-30T06:37:25Z</time>
      </trkpt>
      <trkpt lat="45.5481" lon="6.83479">
        <ele>2614</ele>
        <time>2021-03-30T06:37:26Z</time>
      </trkpt>
      <trkpt lat="45.5481" lon="6.83477">
        <ele>2612.5</ele>
        <time>2021-03-30T06:37:27Z</time>
      </trkpt>
      <trkpt lat="45.5481" lon="6.83477">
        <ele>2612.5</ele>
        <time>2021-03-30T06:37:28Z</time>
      </trkpt>
      <trkpt lat="45.5481" lon="6.83477">
        <ele>2612.5</ele>
        <time>2021-03-30T06:37:29Z</time>
      </trkpt>
      <trkpt lat="45.5481" lon="6.83477">
        <ele>2612.6</ele>
        <time>2021-03-30T06:37:30Z</time>
      </trkpt>
      <trkpt lat="45.5481" lon="6.83477">
        <ele>2612.6</ele>
        <time>2021-03-30T06:37:31Z</time>
      </trkpt>
      <trkpt lat="45.54809" lon="6.83477">
        <ele>2612.6</ele>
        <time>2021-03-30T06:37:32Z</time>
      </trkpt>
      <trkpt lat="45.54808" lon="6.83477">
        <ele>2612.6</ele>
        <time>2021-03-30T06:37:33Z</time>
      </trkpt>
      <trkpt lat="45.54808" lon="6.83477">
        <ele>2612.6</ele>
        <time>2021-03-30T06:37:34Z</time>
      </trkpt>
      <trkpt lat="45.54807" lon="6.83477">
        <ele>2613.5</ele>
        <time>2021-03-30T06:37:35Z</time>
      </trkpt>
      <trkpt lat="45.54807" lon="6.83477">
        <ele>2613.5</ele>
        <time>2021-03-30T06:37:36Z</time>
      </trkpt>
      <trkpt lat="45.54806" lon="6.83477">
        <ele>2613.5</ele>
        <time>2021-03-30T06:37:37Z</time>
      </trkpt>
      <trkpt lat="45.54806" lon="6.83477">
        <ele>2613.6</ele>
        <time>2021-03-30T06:37:38Z</time>
      </trkpt>
      <trkpt lat="45.54805" lon="6.83477">
        <ele>2613.6</ele>
        <time>2021-03-30T06:37:39Z</time>
      </trkpt>
      <trkpt lat="45.54805" lon="6.83477">
        <ele>2613.6</ele>
        <time>2021-03-30T06:37:40Z</time>
      </trkpt>
      <trkpt lat="45.54804" lon="6.83477">
        <ele>2614.5</ele>
        <time>2021-03-30T06:37:41Z</time>
      </trkpt>
      <trkpt lat="45.54804" lon="6.83477">
        <ele>2614.5</ele>
        <time>2021-03-30T06:37:42Z</time>
      </trkpt>
      <trkpt lat="45.54803" lon="6.83477">
        <ele>2614.5</ele>
        <time>2021-03-30T06:37:43Z</time>
      </trkpt>
      <trkpt lat="45.54802" lon="6.83477">
        <ele>2614.5</ele>
        <time>2021-03-30T06:37:44Z</time>
      </trkpt>
      <trkpt lat="45.54802" lon="6.83477">
        <ele>2614.5</ele>
        <time>2021-03-30T06:37:45Z</time>
      </trkpt>
      <trkpt lat="45.54801" lon="6.83477">
        <ele>2615.4</ele>
        <time>2021-03-30T06:37:46Z</time>
      </trkpt>
      <trkpt lat="45.54801" lon="6.83477">
        <ele>2615.4</ele>
        <time>2021-03-30T06:37:47Z</time>
      </trkpt>
      <trkpt lat="45.548" lon="6.83477">
        <ele>2615.4</ele>
        <time>2021-03-30T06:37:48Z</time>
      </trkpt>
      <trkpt lat="45.54799" lon="6.83477">
        <ele>2615.4</ele>
        <time>2021-03-30T06:37:49Z</time>
      </trkpt>
      <trkpt lat="45.54799" lon="6.83477">
        <ele>2616.2</ele>
        <time>2021-03-30T06:37:50Z</time>
      </trkpt>
      <trkpt lat="45.54798" lon="6.83478">
        <ele>2616.2</ele>
        <time>2021-03-30T06:37:51Z</time>
      </trkpt>
      <trkpt lat="45.54798" lon="6.83478">
        <ele>2616.2</ele>
        <time>2021-03-30T06:37:52Z</time>
      </trkpt>
      <trkpt lat="45.54797" lon="6.83478">
        <ele>2616.2</ele>
        <time>2021-03-30T06:37:53Z</time>
      </trkpt>
      <trkpt lat="45.54796" lon="6.83478">
        <ele>2616.2</ele>
        <time>2021-03-30T06:37:54Z</time>
      </trkpt>
      <trkpt lat="45.54796" lon="6.83477">
        <ele>2616.3</ele>
        <time>2021-03-30T06:37:55Z</time>
      </trkpt>
      <trkpt lat="45.54795" lon="6.83477">
        <ele>2617</ele>
        <time>2021-03-30T06:37:56Z</time>
      </trkpt>
      <trkpt lat="45.54795" lon="6.83477">
        <ele>2617</ele>
        <time>2021-03-30T06:37:57Z</time>
      </trkpt>
      <trkpt lat="45.54794" lon="6.83477">
        <ele>2617</ele>
        <time>2021-03-30T06:37:58Z</time>
      </trkpt>
      <trkpt lat="45.54794" lon="6.83476">
        <ele>2617</ele>
        <time>2021-03-30T06:37:59Z</time>
      </trkpt>
      <trkpt lat="45.54793" lon="6.83476">
        <ele>2617.1</ele>
        <time>2021-03-30T06:38:00Z</time>
      </trkpt>
      <trkpt lat="45.54793" lon="6.83476">
        <ele>2617.1</ele>
        <time>2021-03-30T06:38:01Z</time>
      </trkpt>
      <trkpt lat="45.54793" lon="6.83476">
        <ele>2617.8</ele>
        <time>2021-03-30T06:38:02Z</time>
      </trkpt>
      <trkpt lat="45.54792" lon="6.83476">
        <ele>2617.8</ele>
        <time>2021-03-30T06:38:03Z</time>
      </trkpt>
      <trkpt lat="45.54792" lon="6.83476">
        <ele>2617.8</ele>
        <time>2021-03-30T06:38:04Z</time>
      </trkpt>
      <trkpt lat="45.54791" lon="6.83475">
        <ele>2617.8</ele>
        <time>2021-03-30T06:38:05Z</time>
      </trkpt>
      <trkpt lat="45.54791" lon="6.83475">
        <ele>2617.8</ele>
        <time>2021-03-30T06:38:06Z</time>
      </trkpt>
      <trkpt lat="45.54791" lon="6.83475">
        <ele>2617.8</ele>
        <time>2021-03-30T06:38:07Z</time>
      </trkpt>
      <trkpt lat="45.5479" lon="6.83475">
        <ele>2617.9</ele>
        <time>2021-03-30T06:38:08Z</time>
      </trkpt>
      <trkpt lat="45.5479" lon="6.83475">
        <ele>2617.9</ele>
        <time>2021-03-30T06:38:09Z</time>
      </trkpt>
      <trkpt lat="45.54789" lon="6.83475">
        <ele>2618.6</ele>
        <time>2021-03-30T06:38:10Z</time>
      </trkpt>
      <trkpt lat="45.54789" lon="6.83475">
        <ele>2618.6</ele>
        <time>2021-03-30T06:38:11Z</time>
      </trkpt>
      <trkpt lat="45.54788" lon="6.83475">
        <ele>2618.6</ele>
        <time>2021-03-30T06:38:12Z</time>
      </trkpt>
      <trkpt lat="45.54788" lon="6.83475">
        <ele>2618.6</ele>
        <time>2021-03-30T06:38:13Z</time>
      </trkpt>
      <trkpt lat="45.54787" lon="6.83474">
        <ele>2618.6</ele>
        <time>2021-03-30T06:38:14Z</time>
      </trkpt>
      <trkpt lat="45.54787" lon="6.83474">
        <ele>2619.4</ele>
        <time>2021-03-30T06:38:15Z</time>
      </trkpt>
      <trkpt lat="45.54786" lon="6.83474">
        <ele>2619.4</ele>
        <time>2021-03-30T06:38:16Z</time>
      </trkpt>
      <trkpt lat="45.54786" lon="6.83474">
        <ele>2619.4</ele>
        <time>2021-03-30T06:38:17Z</time>
      </trkpt>
      <trkpt lat="45.54785" lon="6.83474">
        <ele>2619.4</ele>
        <time>2021-03-30T06:38:18Z</time>
      </trkpt>
      <trkpt lat="45.54785" lon="6.83474">
        <ele>2619.4</ele>
        <time>2021-03-30T06:38:19Z</time>
      </trkpt>
      <trkpt lat="45.54785" lon="6.83474">
        <ele>2619.5</ele>
        <time>2021-03-30T06:38:20Z</time>
      </trkpt>
      <trkpt lat="45.54784" lon="6.83474">
        <ele>2618</ele>
        <time>2021-03-30T06:38:21Z</time>
      </trkpt>
      <trkpt lat="45.54784" lon="6.83474">
        <ele>2618.7</ele>
        <time>2021-03-30T06:38:22Z</time>
      </trkpt>
      <trkpt lat="45.54783" lon="6.83473">
        <ele>2618.7</ele>
        <time>2021-03-30T06:38:23Z</time>
      </trkpt>
      <trkpt lat="45.54782" lon="6.83473">
        <ele>2618.7</ele>
        <time>2021-03-30T06:38:24Z</time>
      </trkpt>
      <trkpt lat="45.54782" lon="6.83473">
        <ele>2618.7</ele>
        <time>2021-03-30T06:38:25Z</time>
      </trkpt>
      <trkpt lat="45.54781" lon="6.83472">
        <ele>2618.8</ele>
        <time>2021-03-30T06:38:26Z</time>
      </trkpt>
      <trkpt lat="45.5478" lon="6.83472">
        <ele>2619.5</ele>
        <time>2021-03-30T06:38:27Z</time>
      </trkpt>
      <trkpt lat="45.5478" lon="6.83472">
        <ele>2619.5</ele>
        <time>2021-03-30T06:38:28Z</time>
      </trkpt>
      <trkpt lat="45.54779" lon="6.83472">
        <ele>2619.5</ele>
        <time>2021-03-30T06:38:29Z</time>
      </trkpt>
      <trkpt lat="45.54779" lon="6.83472">
        <ele>2619.5</ele>
        <time>2021-03-30T06:38:30Z</time>
      </trkpt>
      <trkpt lat="45.54778" lon="6.83472">
        <ele>2619.5</ele>
        <time>2021-03-30T06:38:31Z</time>
      </trkpt>
      <trkpt lat="45.54778" lon="6.83472">
        <ele>2619.6</ele>
        <time>2021-03-30T06:38:32Z</time>
      </trkpt>
      <trkpt lat="45.54777" lon="6.83471">
        <ele>2620.3</ele>
        <time>2021-03-30T06:38:33Z</time>
      </trkpt>
      <trkpt lat="45.54777" lon="6.83471">
        <ele>2620.3</ele>
        <time>2021-03-30T06:38:34Z</time>
      </trkpt>
      <trkpt lat="45.54776" lon="6.83471">
        <ele>2620.3</ele>
        <time>2021-03-30T06:38:35Z</time>
      </trkpt>
      <trkpt lat="45.54776" lon="6.83471">
        <ele>2620.3</ele>
        <time>2021-03-30T06:38:36Z</time>
      </trkpt>
      <trkpt lat="45.54775" lon="6.83471">
        <ele>2620.3</ele>
        <time>2021-03-30T06:38:37Z</time>
      </trkpt>
      <trkpt lat="45.54774" lon="6.83471">
        <ele>2621</ele>
        <time>2021-03-30T06:38:38Z</time>
      </trkpt>
      <trkpt lat="45.54774" lon="6.8347">
        <ele>2621</ele>
        <time>2021-03-30T06:38:39Z</time>
      </trkpt>
      <trkpt lat="45.54773" lon="6.8347">
        <ele>2621</ele>
        <time>2021-03-30T06:38:40Z</time>
      </trkpt>
      <trkpt lat="45.54773" lon="6.8347">
        <ele>2621</ele>
        <time>2021-03-30T06:38:41Z</time>
      </trkpt>
      <trkpt lat="45.54772" lon="6.8347">
        <ele>2621</ele>
        <time>2021-03-30T06:38:42Z</time>
      </trkpt>
      <trkpt lat="45.54772" lon="6.8347">
        <ele>2621.7</ele>
        <time>2021-03-30T06:38:43Z</time>
      </trkpt>
      <trkpt lat="45.54771" lon="6.8347">
        <ele>2621.7</ele>
        <time>2021-03-30T06:38:44Z</time>
      </trkpt>
      <trkpt lat="45.5477" lon="6.8347">
        <ele>2621.7</ele>
        <time>2021-03-30T06:38:45Z</time>
      </trkpt>
      <trkpt lat="45.5477" lon="6.8347">
        <ele>2621.7</ele>
        <time>2021-03-30T06:38:46Z</time>
      </trkpt>
      <trkpt lat="45.54769" lon="6.8347">
        <ele>2621.7</ele>
        <time>2021-03-30T06:38:47Z</time>
      </trkpt>
      <trkpt lat="45.54769" lon="6.8347">
        <ele>2621.7</ele>
        <time>2021-03-30T06:38:48Z</time>
      </trkpt>
      <trkpt lat="45.54769" lon="6.8347">
        <ele>2622.3</ele>
        <time>2021-03-30T06:38:49Z</time>
      </trkpt>
      <trkpt lat="45.54768" lon="6.8347">
        <ele>2620.9</ele>
        <time>2021-03-30T06:38:50Z</time>
      </trkpt>
      <trkpt lat="45.54768" lon="6.83469">
        <ele>2620.9</ele>
        <time>2021-03-30T06:38:51Z</time>
      </trkpt>
      <trkpt lat="45.54767" lon="6.83469">
        <ele>2620.9</ele>
        <time>2021-03-30T06:38:52Z</time>
      </trkpt>
      <trkpt lat="45.54767" lon="6.83469">
        <ele>2620.9</ele>
        <time>2021-03-30T06:38:53Z</time>
      </trkpt>
      <trkpt lat="45.54766" lon="6.83468">
        <ele>2620.9</ele>
        <time>2021-03-30T06:38:54Z</time>
      </trkpt>
      <trkpt lat="45.54766" lon="6.83468">
        <ele>2620.9</ele>
        <time>2021-03-30T06:38:55Z</time>
      </trkpt>
      <trkpt lat="45.54766" lon="6.83468">
        <ele>2621.5</ele>
        <time>2021-03-30T06:38:56Z</time>
      </trkpt>
      <trkpt lat="45.54765" lon="6.83468">
        <ele>2621.5</ele>
        <time>2021-03-30T06:38:57Z</time>
      </trkpt>
      <trkpt lat="45.54765" lon="6.83468">
        <ele>2621.5</ele>
        <time>2021-03-30T06:38:58Z</time>
      </trkpt>
      <trkpt lat="45.54765" lon="6.83467">
        <ele>2621.5</ele>
        <time>2021-03-30T06:38:59Z</time>
      </trkpt>
      <trkpt lat="45.54764" lon="6.83467">
        <ele>2621.5</ele>
        <time>2021-03-30T06:39:00Z</time>
      </trkpt>
      <trkpt lat="45.54764" lon="6.83467">
        <ele>2621.5</ele>
        <time>2021-03-30T06:39:01Z</time>
      </trkpt>
      <trkpt lat="45.54763" lon="6.83467">
        <ele>2621.5</ele>
        <time>2021-03-30T06:39:02Z</time>
      </trkpt>
      <trkpt lat="45.54762" lon="6.83466">
        <ele>2622</ele>
        <time>2021-03-30T06:39:03Z</time>
      </trkpt>
      <trkpt lat="45.54762" lon="6.83466">
        <ele>2622</ele>
        <time>2021-03-30T06:39:04Z</time>
      </trkpt>
      <trkpt lat="45.54763" lon="6.83468">
        <ele>2621.6</ele>
        <time>2021-03-30T06:39:33Z</time>
      </trkpt>
      <trkpt lat="45.54763" lon="6.83468">
        <ele>2621.6</ele>
        <time>2021-03-30T06:39:34Z</time>
      </trkpt>
      <trkpt lat="45.54765" lon="6.83468">
        <ele>2621.6</ele>
        <time>2021-03-30T06:39:35Z</time>
      </trkpt>
      <trkpt lat="45.54766" lon="6.83468">
        <ele>2621.6</ele>
        <time>2021-03-30T06:39:36Z</time>
      </trkpt>
      <trkpt lat="45.54766" lon="6.83468">
        <ele>2621.1</ele>
        <time>2021-03-30T06:39:37Z</time>
      </trkpt>
      <trkpt lat="45.54767" lon="6.83468">
        <ele>2621.1</ele>
        <time>2021-03-30T06:39:38Z</time>
      </trkpt>
      <trkpt lat="45.54767" lon="6.83469">
        <ele>2621.1</ele>
        <time>2021-03-30T06:39:39Z</time>
      </trkpt>
      <trkpt lat="45.54767" lon="6.83469">
        <ele>2621.1</ele>
        <time>2021-03-30T06:39:40Z</time>
      </trkpt>
      <trkpt lat="45.54768" lon="6.8347">
        <ele>2621.1</ele>
        <time>2021-03-30T06:39:41Z</time>
      </trkpt>
      <trkpt lat="45.54768" lon="6.8347">
        <ele>2622.6</ele>
        <time>2021-03-30T06:39:42Z</time>
      </trkpt>
      <trkpt lat="45.54768" lon="6.83471">
        <ele>2622.6</ele>
        <time>2021-03-30T06:39:43Z</time>
      </trkpt>
      <trkpt lat="45.54769" lon="6.83471">
        <ele>2622.6</ele>
        <time>2021-03-30T06:39:44Z</time>
      </trkpt>
      <trkpt lat="45.54769" lon="6.83472">
        <ele>2622.1</ele>
        <time>2021-03-30T06:39:45Z</time>
      </trkpt>
      <trkpt lat="45.54769" lon="6.83472">
        <ele>2622.1</ele>
        <time>2021-03-30T06:39:46Z</time>
      </trkpt>
      <trkpt lat="45.5477" lon="6.83472">
        <ele>2622.1</ele>
        <time>2021-03-30T06:39:47Z</time>
      </trkpt>
      <trkpt lat="45.5477" lon="6.83472">
        <ele>2622.1</ele>
        <time>2021-03-30T06:39:48Z</time>
      </trkpt>
      <trkpt lat="45.54771" lon="6.83472">
        <ele>2622.1</ele>
        <time>2021-03-30T06:39:49Z</time>
      </trkpt>
      <trkpt lat="45.54772" lon="6.83472">
        <ele>2622.1</ele>
        <time>2021-03-30T06:39:50Z</time>
      </trkpt>
      <trkpt lat="45.54772" lon="6.83473">
        <ele>2621.5</ele>
        <time>2021-03-30T06:39:51Z</time>
      </trkpt>
      <trkpt lat="45.54773" lon="6.83473">
        <ele>2621.5</ele>
        <time>2021-03-30T06:39:52Z</time>
      </trkpt>
      <trkpt lat="45.54773" lon="6.83474">
        <ele>2623</ele>
        <time>2021-03-30T06:39:53Z</time>
      </trkpt>
      <trkpt lat="45.54773" lon="6.83475">
        <ele>2623</ele>
        <time>2021-03-30T06:39:54Z</time>
      </trkpt>
      <trkpt lat="45.54773" lon="6.83476">
        <ele>2623</ele>
        <time>2021-03-30T06:39:55Z</time>
      </trkpt>
      <trkpt lat="45.54774" lon="6.83477">
        <ele>2623</ele>
        <time>2021-03-30T06:39:56Z</time>
      </trkpt>
      <trkpt lat="45.54774" lon="6.83477">
        <ele>2623.1</ele>
        <time>2021-03-30T06:39:57Z</time>
      </trkpt>
      <trkpt lat="45.54774" lon="6.83478">
        <ele>2623.1</ele>
        <time>2021-03-30T06:39:58Z</time>
      </trkpt>
      <trkpt lat="45.54774" lon="6.83479">
        <ele>2624.5</ele>
        <time>2021-03-30T06:39:59Z</time>
      </trkpt>
      <trkpt lat="45.54775" lon="6.83479">
        <ele>2623.9</ele>
        <time>2021-03-30T06:40:00Z</time>
      </trkpt>
      <trkpt lat="45.54775" lon="6.83479">
        <ele>2623.9</ele>
        <time>2021-03-30T06:40:01Z</time>
      </trkpt>
      <trkpt lat="45.54775" lon="6.83479">
        <ele>2623.9</ele>
        <time>2021-03-30T06:40:02Z</time>
      </trkpt>
      <trkpt lat="45.54776" lon="6.8348">
        <ele>2623.9</ele>
        <time>2021-03-30T06:40:03Z</time>
      </trkpt>
      <trkpt lat="45.54776" lon="6.83481">
        <ele>2623.9</ele>
        <time>2021-03-30T06:40:04Z</time>
      </trkpt>
      <trkpt lat="45.54776" lon="6.83482">
        <ele>2623.9</ele>
        <time>2021-03-30T06:40:05Z</time>
      </trkpt>
      <trkpt lat="45.54776" lon="6.83483">
        <ele>2625.4</ele>
        <time>2021-03-30T06:40:06Z</time>
      </trkpt>
      <trkpt lat="45.54776" lon="6.83483">
        <ele>2625.4</ele>
        <time>2021-03-30T06:40:07Z</time>
      </trkpt>
      <trkpt lat="45.54776" lon="6.83484">
        <ele>2625.4</ele>
        <time>2021-03-30T06:40:08Z</time>
      </trkpt>
      <trkpt lat="45.54776" lon="6.83485">
        <ele>2625.4</ele>
        <time>2021-03-30T06:40:09Z</time>
      </trkpt>
      <trkpt lat="45.54777" lon="6.83485">
        <ele>2625.4</ele>
        <time>2021-03-30T06:40:10Z</time>
      </trkpt>
      <trkpt lat="45.54777" lon="6.83486">
        <ele>2625.4</ele>
        <time>2021-03-30T06:40:11Z</time>
      </trkpt>
      <trkpt lat="45.54777" lon="6.83487">
        <ele>2625.4</ele>
        <time>2021-03-30T06:40:12Z</time>
      </trkpt>
      <trkpt lat="45.54778" lon="6.83487">
        <ele>2626.2</ele>
        <time>2021-03-30T06:40:13Z</time>
      </trkpt>
      <trkpt lat="45.54778" lon="6.83488">
        <ele>2626.3</ele>
        <time>2021-03-30T06:40:14Z</time>
      </trkpt>
      <trkpt lat="45.54778" lon="6.83488">
        <ele>2626.3</ele>
        <time>2021-03-30T06:40:15Z</time>
      </trkpt>
      <trkpt lat="45.54778" lon="6.83489">
        <ele>2626.3</ele>
        <time>2021-03-30T06:40:16Z</time>
      </trkpt>
      <trkpt lat="45.54779" lon="6.8349">
        <ele>2626.3</ele>
        <time>2021-03-30T06:40:17Z</time>
      </trkpt>
      <trkpt lat="45.54779" lon="6.83491">
        <ele>2626.3</ele>
        <time>2021-03-30T06:40:18Z</time>
      </trkpt>
      <trkpt lat="45.54779" lon="6.83492">
        <ele>2627.8</ele>
        <time>2021-03-30T06:40:19Z</time>
      </trkpt>
      <trkpt lat="45.54779" lon="6.83492">
        <ele>2627.9</ele>
        <time>2021-03-30T06:40:20Z</time>
      </trkpt>
      <trkpt lat="45.54779" lon="6.83493">
        <ele>2627.9</ele>
        <time>2021-03-30T06:40:21Z</time>
      </trkpt>
      <trkpt lat="45.54779" lon="6.83493">
        <ele>2627.9</ele>
        <time>2021-03-30T06:40:22Z</time>
      </trkpt>
      <trkpt lat="45.54779" lon="6.83494">
        <ele>2627.9</ele>
        <time>2021-03-30T06:40:23Z</time>
      </trkpt>
      <trkpt lat="45.54779" lon="6.83495">
        <ele>2627.9</ele>
        <time>2021-03-30T06:40:24Z</time>
      </trkpt>
      <trkpt lat="45.54779" lon="6.83495">
        <ele>2627.9</ele>
        <time>2021-03-30T06:40:25Z</time>
      </trkpt>
      <trkpt lat="45.5478" lon="6.83496">
        <ele>2629.6</ele>
        <time>2021-03-30T06:40:26Z</time>
      </trkpt>
      <trkpt lat="45.5478" lon="6.83497">
        <ele>2629.6</ele>
        <time>2021-03-30T06:40:27Z</time>
      </trkpt>
      <trkpt lat="45.5478" lon="6.83498">
        <ele>2629.6</ele>
        <time>2021-03-30T06:40:28Z</time>
      </trkpt>
      <trkpt lat="45.54779" lon="6.83499">
        <ele>2629.6</ele>
        <time>2021-03-30T06:40:29Z</time>
      </trkpt>
      <trkpt lat="45.54779" lon="6.83499">
        <ele>2629.6</ele>
        <time>2021-03-30T06:40:30Z</time>
      </trkpt>
      <trkpt lat="45.54778" lon="6.83499">
        <ele>2629.6</ele>
        <time>2021-03-30T06:40:31Z</time>
      </trkpt>
      <trkpt lat="45.54777" lon="6.83499">
        <ele>2630.3</ele>
        <time>2021-03-30T06:40:32Z</time>
      </trkpt>
      <trkpt lat="45.54777" lon="6.83499">
        <ele>2630.3</ele>
        <time>2021-03-30T06:40:33Z</time>
      </trkpt>
      <trkpt lat="45.54776" lon="6.83499">
        <ele>2630.3</ele>
        <time>2021-03-30T06:40:34Z</time>
      </trkpt>
      <trkpt lat="45.54775" lon="6.83499">
        <ele>2630.3</ele>
        <time>2021-03-30T06:40:35Z</time>
      </trkpt>
      <trkpt lat="45.54775" lon="6.83499">
        <ele>2630.3</ele>
        <time>2021-03-30T06:40:36Z</time>
      </trkpt>
      <trkpt lat="45.54774" lon="6.83498">
        <ele>2630.9</ele>
        <time>2021-03-30T06:40:37Z</time>
      </trkpt>
      <trkpt lat="45.54773" lon="6.83498">
        <ele>2630.9</ele>
        <time>2021-03-30T06:40:38Z</time>
      </trkpt>
      <trkpt lat="45.54773" lon="6.83498">
        <ele>2631</ele>
        <time>2021-03-30T06:40:39Z</time>
      </trkpt>
      <trkpt lat="45.54772" lon="6.83498">
        <ele>2631</ele>
        <time>2021-03-30T06:40:40Z</time>
      </trkpt>
      <trkpt lat="45.54771" lon="6.83498">
        <ele>2631.5</ele>
        <time>2021-03-30T06:40:41Z</time>
      </trkpt>
      <trkpt lat="45.54771" lon="6.83498">
        <ele>2631.5</ele>
        <time>2021-03-30T06:40:56Z</time>
      </trkpt>
      <trkpt lat="45.5477" lon="6.83498">
        <ele>2631.6</ele>
        <time>2021-03-30T06:40:57Z</time>
      </trkpt>
      <trkpt lat="45.54769" lon="6.83498">
        <ele>2631.6</ele>
        <time>2021-03-30T06:40:58Z</time>
      </trkpt>
      <trkpt lat="45.54769" lon="6.83498">
        <ele>2631.6</ele>
        <time>2021-03-30T06:40:59Z</time>
      </trkpt>
      <trkpt lat="45.54768" lon="6.83498">
        <ele>2632.1</ele>
        <time>2021-03-30T06:41:00Z</time>
      </trkpt>
      <trkpt lat="45.54768" lon="6.83498">
        <ele>2632.1</ele>
        <time>2021-03-30T06:41:01Z</time>
      </trkpt>
      <trkpt lat="45.54767" lon="6.83497">
        <ele>2632.1</ele>
        <time>2021-03-30T06:41:02Z</time>
      </trkpt>
      <trkpt lat="45.54766" lon="6.83497">
        <ele>2632.1</ele>
        <time>2021-03-30T06:41:03Z</time>
      </trkpt>
      <trkpt lat="45.54766" lon="6.83497">
        <ele>2632.1</ele>
        <time>2021-03-30T06:41:04Z</time>
      </trkpt>
      <trkpt lat="45.54765" lon="6.83496">
        <ele>2632.6</ele>
        <time>2021-03-30T06:41:05Z</time>
      </trkpt>
      <trkpt lat="45.54764" lon="6.83496">
        <ele>2632.6</ele>
        <time>2021-03-30T06:41:06Z</time>
      </trkpt>
      <trkpt lat="45.54764" lon="6.83496">
        <ele>2632.6</ele>
        <time>2021-03-30T06:41:07Z</time>
      </trkpt>
      <trkpt lat="45.54763" lon="6.83496">
        <ele>2632.7</ele>
        <time>2021-03-30T06:41:08Z</time>
      </trkpt>
      <trkpt lat="45.54763" lon="6.83496">
        <ele>2633.1</ele>
        <time>2021-03-30T06:41:09Z</time>
      </trkpt>
      <trkpt lat="45.54762" lon="6.83496">
        <ele>2633.1</ele>
        <time>2021-03-30T06:41:10Z</time>
      </trkpt>
      <trkpt lat="45.54762" lon="6.83496">
        <ele>2633.1</ele>
        <time>2021-03-30T06:41:11Z</time>
      </trkpt>
      <trkpt lat="45.54761" lon="6.83496">
        <ele>2633.1</ele>
        <time>2021-03-30T06:41:12Z</time>
      </trkpt>
      <trkpt lat="45.54761" lon="6.83496">
        <ele>2631.6</ele>
        <time>2021-03-30T06:41:13Z</time>
      </trkpt>
      <trkpt lat="45.5476" lon="6.83496">
        <ele>2631.6</ele>
        <time>2021-03-30T06:41:14Z</time>
      </trkpt>
      <trkpt lat="45.54759" lon="6.83495">
        <ele>2632</ele>
        <time>2021-03-30T06:41:15Z</time>
      </trkpt>
      <trkpt lat="45.54759" lon="6.83495">
        <ele>2632</ele>
        <time>2021-03-30T06:41:16Z</time>
      </trkpt>
      <trkpt lat="45.54758" lon="6.83495">
        <ele>2632</ele>
        <time>2021-03-30T06:41:17Z</time>
      </trkpt>
      <trkpt lat="45.54758" lon="6.83495">
        <ele>2632.1</ele>
        <time>2021-03-30T06:41:18Z</time>
      </trkpt>
      <trkpt lat="45.54757" lon="6.83495">
        <ele>2632.1</ele>
        <time>2021-03-30T06:41:19Z</time>
      </trkpt>
      <trkpt lat="45.54757" lon="6.83495">
        <ele>2632.1</ele>
        <time>2021-03-30T06:41:20Z</time>
      </trkpt>
      <trkpt lat="45.54756" lon="6.83495">
        <ele>2632.5</ele>
        <time>2021-03-30T06:41:21Z</time>
      </trkpt>
      <trkpt lat="45.54756" lon="6.83495">
        <ele>2632.5</ele>
        <time>2021-03-30T06:41:22Z</time>
      </trkpt>
      <trkpt lat="45.54755" lon="6.83495">
        <ele>2632.5</ele>
        <time>2021-03-30T06:41:23Z</time>
      </trkpt>
      <trkpt lat="45.54754" lon="6.83495">
        <ele>2632.5</ele>
        <time>2021-03-30T06:41:24Z</time>
      </trkpt>
      <trkpt lat="45.54754" lon="6.83494">
        <ele>2632.5</ele>
        <time>2021-03-30T06:41:25Z</time>
      </trkpt>
      <trkpt lat="45.54753" lon="6.83494">
        <ele>2632.9</ele>
        <time>2021-03-30T06:41:26Z</time>
      </trkpt>
      <trkpt lat="45.54752" lon="6.83494">
        <ele>2632.9</ele>
        <time>2021-03-30T06:41:27Z</time>
      </trkpt>
      <trkpt lat="45.54752" lon="6.83494">
        <ele>2633</ele>
        <time>2021-03-30T06:41:28Z</time>
      </trkpt>
      <trkpt lat="45.54751" lon="6.83494">
        <ele>2633</ele>
        <time>2021-03-30T06:41:29Z</time>
      </trkpt>
      <trkpt lat="45.5475" lon="6.83493">
        <ele>2633.4</ele>
        <time>2021-03-30T06:41:30Z</time>
      </trkpt>
      <trkpt lat="45.5475" lon="6.83493">
        <ele>2633.4</ele>
        <time>2021-03-30T06:41:31Z</time>
      </trkpt>
      <trkpt lat="45.54749" lon="6.83493">
        <ele>2633.4</ele>
        <time>2021-03-30T06:41:32Z</time>
      </trkpt>
      <trkpt lat="45.54748" lon="6.83493">
        <ele>2633.4</ele>
        <time>2021-03-30T06:41:33Z</time>
      </trkpt>
      <trkpt lat="45.54748" lon="6.83493">
        <ele>2633.8</ele>
        <time>2021-03-30T06:41:34Z</time>
      </trkpt>
      <trkpt lat="45.54747" lon="6.83492">
        <ele>2633.8</ele>
        <time>2021-03-30T06:41:35Z</time>
      </trkpt>
      <trkpt lat="45.54746" lon="6.83492">
        <ele>2633.8</ele>
        <time>2021-03-30T06:41:36Z</time>
      </trkpt>
      <trkpt lat="45.54746" lon="6.83492">
        <ele>2633.8</ele>
        <time>2021-03-30T06:41:37Z</time>
      </trkpt>
      <trkpt lat="45.54745" lon="6.83492">
        <ele>2633.8</ele>
        <time>2021-03-30T06:41:38Z</time>
      </trkpt>
      <trkpt lat="45.54745" lon="6.83491">
        <ele>2634.2</ele>
        <time>2021-03-30T06:41:39Z</time>
      </trkpt>
      <trkpt lat="45.54744" lon="6.83491">
        <ele>2634.2</ele>
        <time>2021-03-30T06:41:40Z</time>
      </trkpt>
      <trkpt lat="45.54744" lon="6.83491">
        <ele>2634.2</ele>
        <time>2021-03-30T06:41:41Z</time>
      </trkpt>
      <trkpt lat="45.54743" lon="6.83491">
        <ele>2634.2</ele>
        <time>2021-03-30T06:41:42Z</time>
      </trkpt>
      <trkpt lat="45.54742" lon="6.83492">
        <ele>2634.2</ele>
        <time>2021-03-30T06:41:43Z</time>
      </trkpt>
      <trkpt lat="45.54742" lon="6.83493">
        <ele>2634.3</ele>
        <time>2021-03-30T06:41:44Z</time>
      </trkpt>
      <trkpt lat="45.54742" lon="6.83493">
        <ele>2634.6</ele>
        <time>2021-03-30T06:41:45Z</time>
      </trkpt>
      <trkpt lat="45.54741" lon="6.83494">
        <ele>2634.6</ele>
        <time>2021-03-30T06:41:46Z</time>
      </trkpt>
      <trkpt lat="45.54741" lon="6.83494">
        <ele>2634.6</ele>
        <time>2021-03-30T06:41:47Z</time>
      </trkpt>
      <trkpt lat="45.5474" lon="6.83494">
        <ele>2634.6</ele>
        <time>2021-03-30T06:41:48Z</time>
      </trkpt>
      <trkpt lat="45.5474" lon="6.83495">
        <ele>2634.6</ele>
        <time>2021-03-30T06:41:49Z</time>
      </trkpt>
      <trkpt lat="45.5474" lon="6.83495">
        <ele>2634.6</ele>
        <time>2021-03-30T06:41:50Z</time>
      </trkpt>
      <trkpt lat="45.54739" lon="6.83496">
        <ele>2634.6</ele>
        <time>2021-03-30T06:41:51Z</time>
      </trkpt>
      <trkpt lat="45.54739" lon="6.83496">
        <ele>2636.1</ele>
        <time>2021-03-30T06:41:52Z</time>
      </trkpt>
      <trkpt lat="45.54739" lon="6.83496">
        <ele>2636.1</ele>
        <time>2021-03-30T06:41:53Z</time>
      </trkpt>
      <trkpt lat="45.54738" lon="6.83496">
        <ele>2636.3</ele>
        <time>2021-03-30T06:41:54Z</time>
      </trkpt>
      <trkpt lat="45.54738" lon="6.83496">
        <ele>2636.3</ele>
        <time>2021-03-30T06:41:55Z</time>
      </trkpt>
      <trkpt lat="45.54738" lon="6.83496">
        <ele>2636.4</ele>
        <time>2021-03-30T06:41:56Z</time>
      </trkpt>
      <trkpt lat="45.54737" lon="6.83497">
        <ele>2636.4</ele>
        <time>2021-03-30T06:41:57Z</time>
      </trkpt>
      <trkpt lat="45.54736" lon="6.83497">
        <ele>2636.4</ele>
        <time>2021-03-30T06:41:58Z</time>
      </trkpt>
      <trkpt lat="45.54736" lon="6.83497">
        <ele>2636.6</ele>
        <time>2021-03-30T06:41:59Z</time>
      </trkpt>
      <trkpt lat="45.54735" lon="6.83497">
        <ele>2636.6</ele>
        <time>2021-03-30T06:42:00Z</time>
      </trkpt>
      <trkpt lat="45.54734" lon="6.83497">
        <ele>2636.6</ele>
        <time>2021-03-30T06:42:01Z</time>
      </trkpt>
      <trkpt lat="45.54734" lon="6.83497">
        <ele>2636.6</ele>
        <time>2021-03-30T06:42:02Z</time>
      </trkpt>
      <trkpt lat="45.54733" lon="6.83498">
        <ele>2636.7</ele>
        <time>2021-03-30T06:42:03Z</time>
      </trkpt>
      <trkpt lat="45.54733" lon="6.83498">
        <ele>2636.9</ele>
        <time>2021-03-30T06:42:04Z</time>
      </trkpt>
      <trkpt lat="45.54732" lon="6.83498">
        <ele>2636.9</ele>
        <time>2021-03-30T06:42:05Z</time>
      </trkpt>
      <trkpt lat="45.54731" lon="6.83499">
        <ele>2636.9</ele>
        <time>2021-03-30T06:42:06Z</time>
      </trkpt>
      <trkpt lat="45.54731" lon="6.835">
        <ele>2636.9</ele>
        <time>2021-03-30T06:42:07Z</time>
      </trkpt>
      <trkpt lat="45.5473" lon="6.835">
        <ele>2638.4</ele>
        <time>2021-03-30T06:42:08Z</time>
      </trkpt>
      <trkpt lat="45.5473" lon="6.83501">
        <ele>2638.4</ele>
        <time>2021-03-30T06:42:09Z</time>
      </trkpt>
      <trkpt lat="45.54729" lon="6.83501">
        <ele>2638.6</ele>
        <time>2021-03-30T06:42:10Z</time>
      </trkpt>
      <trkpt lat="45.54729" lon="6.83501">
        <ele>2638.6</ele>
        <time>2021-03-30T06:42:11Z</time>
      </trkpt>
      <trkpt lat="45.54729" lon="6.83501">
        <ele>2638.6</ele>
        <time>2021-03-30T06:42:12Z</time>
      </trkpt>
      <trkpt lat="45.54728" lon="6.83501">
        <ele>2638.6</ele>
        <time>2021-03-30T06:42:13Z</time>
      </trkpt>
      <trkpt lat="45.54728" lon="6.83501">
        <ele>2638.6</ele>
        <time>2021-03-30T06:42:14Z</time>
      </trkpt>
      <trkpt lat="45.54727" lon="6.835">
        <ele>2638.6</ele>
        <time>2021-03-30T06:42:15Z</time>
      </trkpt>
      <trkpt lat="45.54727" lon="6.835">
        <ele>2638.6</ele>
        <time>2021-03-30T06:42:16Z</time>
      </trkpt>
      <trkpt lat="45.54726" lon="6.835">
        <ele>2638.9</ele>
        <time>2021-03-30T06:42:17Z</time>
      </trkpt>
      <trkpt lat="45.54726" lon="6.835">
        <ele>2637.5</ele>
        <time>2021-03-30T06:42:18Z</time>
      </trkpt>
      <trkpt lat="45.54725" lon="6.835">
        <ele>2637.5</ele>
        <time>2021-03-30T06:42:19Z</time>
      </trkpt>
      <trkpt lat="45.54725" lon="6.83499">
        <ele>2637.5</ele>
        <time>2021-03-30T06:42:20Z</time>
      </trkpt>
      <trkpt lat="45.54724" lon="6.83499">
        <ele>2637.5</ele>
        <time>2021-03-30T06:42:21Z</time>
      </trkpt>
      <trkpt lat="45.54724" lon="6.83499">
        <ele>2637.5</ele>
        <time>2021-03-30T06:42:22Z</time>
      </trkpt>
      <trkpt lat="45.54723" lon="6.83499">
        <ele>2637.8</ele>
        <time>2021-03-30T06:42:23Z</time>
      </trkpt>
      <trkpt lat="45.54723" lon="6.83499">
        <ele>2637.8</ele>
        <time>2021-03-30T06:42:30Z</time>
      </trkpt>
      <trkpt lat="45.54723" lon="6.83499">
        <ele>2637.8</ele>
        <time>2021-03-30T06:42:31Z</time>
      </trkpt>
      <trkpt lat="45.54722" lon="6.83498">
        <ele>2637.8</ele>
        <time>2021-03-30T06:42:32Z</time>
      </trkpt>
      <trkpt lat="45.54722" lon="6.83498">
        <ele>2637.8</ele>
        <time>2021-03-30T06:42:33Z</time>
      </trkpt>
      <trkpt lat="45.54721" lon="6.83498">
        <ele>2637.8</ele>
        <time>2021-03-30T06:42:34Z</time>
      </trkpt>
      <trkpt lat="45.54721" lon="6.83499">
        <ele>2638</ele>
        <time>2021-03-30T06:42:35Z</time>
      </trkpt>
      <trkpt lat="45.5472" lon="6.83499">
        <ele>2638</ele>
        <time>2021-03-30T06:42:36Z</time>
      </trkpt>
      <trkpt lat="45.5472" lon="6.83499">
        <ele>2638.1</ele>
        <time>2021-03-30T06:42:37Z</time>
      </trkpt>
      <trkpt lat="45.54719" lon="6.83499">
        <ele>2638.1</ele>
        <time>2021-03-30T06:42:38Z</time>
      </trkpt>
      <trkpt lat="45.54719" lon="6.835">
        <ele>2638.1</ele>
        <time>2021-03-30T06:42:39Z</time>
      </trkpt>
      <trkpt lat="45.54718" lon="6.835">
        <ele>2639.5</ele>
        <time>2021-03-30T06:42:40Z</time>
      </trkpt>
      <trkpt lat="45.54718" lon="6.83501">
        <ele>2639.5</ele>
        <time>2021-03-30T06:42:41Z</time>
      </trkpt>
      <trkpt lat="45.54717" lon="6.83501">
        <ele>2639.6</ele>
        <time>2021-03-30T06:42:42Z</time>
      </trkpt>
      <trkpt lat="45.54716" lon="6.83502">
        <ele>2639.6</ele>
        <time>2021-03-30T06:42:43Z</time>
      </trkpt>
      <trkpt lat="45.54716" lon="6.83503">
        <ele>2639.6</ele>
        <time>2021-03-30T06:42:44Z</time>
      </trkpt>
      <trkpt lat="45.54716" lon="6.83503">
        <ele>2639.7</ele>
        <time>2021-03-30T06:42:45Z</time>
      </trkpt>
      <trkpt lat="45.54715" lon="6.83504">
        <ele>2639.7</ele>
        <time>2021-03-30T06:42:46Z</time>
      </trkpt>
      <trkpt lat="45.54715" lon="6.83505">
        <ele>2641.1</ele>
        <time>2021-03-30T06:42:47Z</time>
      </trkpt>
      <trkpt lat="45.54714" lon="6.83505">
        <ele>2641.2</ele>
        <time>2021-03-30T06:42:48Z</time>
      </trkpt>
      <trkpt lat="45.54714" lon="6.83506">
        <ele>2641.2</ele>
        <time>2021-03-30T06:42:49Z</time>
      </trkpt>
      <trkpt lat="45.54715" lon="6.83506">
        <ele>2641.1</ele>
        <time>2021-03-30T06:42:50Z</time>
      </trkpt>
      <trkpt lat="45.54715" lon="6.83506">
        <ele>2641.1</ele>
        <time>2021-03-30T06:42:51Z</time>
      </trkpt>
      <trkpt lat="45.54715" lon="6.83506">
        <ele>2641.1</ele>
        <time>2021-03-30T06:42:52Z</time>
      </trkpt>
      <trkpt lat="45.54716" lon="6.83506">
        <ele>2641.1</ele>
        <time>2021-03-30T06:42:53Z</time>
      </trkpt>
      <trkpt lat="45.54716" lon="6.83506">
        <ele>2641.2</ele>
        <time>2021-03-30T06:42:54Z</time>
      </trkpt>
      <trkpt lat="45.54717" lon="6.83506">
        <ele>2641.2</ele>
        <time>2021-03-30T06:42:55Z</time>
      </trkpt>
      <trkpt lat="45.54717" lon="6.83506">
        <ele>2641.2</ele>
        <time>2021-03-30T06:42:56Z</time>
      </trkpt>
      <trkpt lat="45.54717" lon="6.83506">
        <ele>2641.2</ele>
        <time>2021-03-30T06:43:18Z</time>
      </trkpt>
      <trkpt lat="45.54718" lon="6.83506">
        <ele>2641.2</ele>
        <time>2021-03-30T06:43:19Z</time>
      </trkpt>
      <trkpt lat="45.54718" lon="6.83506">
        <ele>2641.1</ele>
        <time>2021-03-30T06:43:20Z</time>
      </trkpt>
      <trkpt lat="45.54718" lon="6.83506">
        <ele>2641.1</ele>
        <time>2021-03-30T06:43:21Z</time>
      </trkpt>
      <trkpt lat="45.5472" lon="6.83505">
        <ele>2641.1</ele>
        <time>2021-03-30T06:43:22Z</time>
      </trkpt>
      <trkpt lat="45.5472" lon="6.83505">
        <ele>2641.1</ele>
        <time>2021-03-30T06:43:23Z</time>
      </trkpt>
      <trkpt lat="45.54721" lon="6.83505">
        <ele>2641</ele>
        <time>2021-03-30T06:43:24Z</time>
      </trkpt>
      <trkpt lat="45.54722" lon="6.83505">
        <ele>2641</ele>
        <time>2021-03-30T06:43:25Z</time>
      </trkpt>
      <trkpt lat="45.54723" lon="6.83504">
        <ele>2641</ele>
        <time>2021-03-30T06:43:26Z</time>
      </trkpt>
      <trkpt lat="45.54724" lon="6.83504">
        <ele>2640.8</ele>
        <time>2021-03-30T06:43:27Z</time>
      </trkpt>
      <trkpt lat="45.54725" lon="6.83504">
        <ele>2639.4</ele>
        <time>2021-03-30T06:43:28Z</time>
      </trkpt>
      <trkpt lat="45.54726" lon="6.83504">
        <ele>2639.4</ele>
        <time>2021-03-30T06:43:29Z</time>
      </trkpt>
      <trkpt lat="45.54727" lon="6.83504">
        <ele>2639.2</ele>
        <time>2021-03-30T06:43:30Z</time>
      </trkpt>
      <trkpt lat="45.54726" lon="6.83506">
        <ele>2640.9</ele>
        <time>2021-03-30T06:43:31Z</time>
      </trkpt>
      <trkpt lat="45.54725" lon="6.83508">
        <ele>2640.9</ele>
        <time>2021-03-30T06:43:32Z</time>
      </trkpt>
      <trkpt lat="45.54724" lon="6.83511">
        <ele>2642.3</ele>
        <time>2021-03-30T06:43:33Z</time>
      </trkpt>
      <trkpt lat="45.54724" lon="6.83512">
        <ele>2642.4</ele>
        <time>2021-03-30T06:43:34Z</time>
      </trkpt>
      <trkpt lat="45.54724" lon="6.83513">
        <ele>2643.8</ele>
        <time>2021-03-30T06:43:35Z</time>
      </trkpt>
      <trkpt lat="45.54724" lon="6.83514">
        <ele>2643.8</ele>
        <time>2021-03-30T06:43:36Z</time>
      </trkpt>
      <trkpt lat="45.54725" lon="6.83514">
        <ele>2643.9</ele>
        <time>2021-03-30T06:43:37Z</time>
      </trkpt>
      <trkpt lat="45.54726" lon="6.83515">
        <ele>2643.9</ele>
        <time>2021-03-30T06:43:38Z</time>
      </trkpt>
      <trkpt lat="45.54726" lon="6.83515">
        <ele>2643.9</ele>
        <time>2021-03-30T06:43:39Z</time>
      </trkpt>
      <trkpt lat="45.54727" lon="6.83515">
        <ele>2643.7</ele>
        <time>2021-03-30T06:43:40Z</time>
      </trkpt>
      <trkpt lat="45.54726" lon="6.83515">
        <ele>2643.9</ele>
        <time>2021-03-30T06:43:41Z</time>
      </trkpt>
      <trkpt lat="45.54726" lon="6.83515">
        <ele>2643.9</ele>
        <time>2021-03-30T06:43:42Z</time>
      </trkpt>
      <trkpt lat="45.54726" lon="6.83516">
        <ele>2643.9</ele>
        <time>2021-03-30T06:43:43Z</time>
      </trkpt>
      <trkpt lat="45.54725" lon="6.83516">
        <ele>2643.9</ele>
        <time>2021-03-30T06:43:44Z</time>
      </trkpt>
      <trkpt lat="45.54725" lon="6.83516">
        <ele>2643.9</ele>
        <time>2021-03-30T06:43:45Z</time>
      </trkpt>
      <trkpt lat="45.54725" lon="6.83517">
        <ele>2644</ele>
        <time>2021-03-30T06:43:46Z</time>
      </trkpt>
      <trkpt lat="45.54724" lon="6.83517">
        <ele>2644</ele>
        <time>2021-03-30T06:43:47Z</time>
      </trkpt>
      <trkpt lat="45.54724" lon="6.83517">
        <ele>2645.4</ele>
        <time>2021-03-30T06:43:48Z</time>
      </trkpt>
      <trkpt lat="45.54723" lon="6.83518">
        <ele>2645.6</ele>
        <time>2021-03-30T06:43:49Z</time>
      </trkpt>
      <trkpt lat="45.54723" lon="6.83518">
        <ele>2645.6</ele>
        <time>2021-03-30T06:43:50Z</time>
      </trkpt>
      <trkpt lat="45.54723" lon="6.83518">
        <ele>2645.6</ele>
        <time>2021-03-30T06:43:51Z</time>
      </trkpt>
      <trkpt lat="45.54722" lon="6.83519">
        <ele>2645.6</ele>
        <time>2021-03-30T06:43:54Z</time>
      </trkpt>
      <trkpt lat="45.54722" lon="6.83519">
        <ele>2645.6</ele>
        <time>2021-03-30T06:43:55Z</time>
      </trkpt>
      <trkpt lat="45.54722" lon="6.83519">
        <ele>2645.6</ele>
        <time>2021-03-30T06:43:56Z</time>
      </trkpt>
      <trkpt lat="45.54721" lon="6.83519">
        <ele>2645.6</ele>
        <time>2021-03-30T06:43:57Z</time>
      </trkpt>
      <trkpt lat="45.54721" lon="6.8352">
        <ele>2645.6</ele>
        <time>2021-03-30T06:43:58Z</time>
      </trkpt>
      <trkpt lat="45.5472" lon="6.8352">
        <ele>2645.7</ele>
        <time>2021-03-30T06:43:59Z</time>
      </trkpt>
      <trkpt lat="45.5472" lon="6.83521">
        <ele>2645.8</ele>
        <time>2021-03-30T06:44:00Z</time>
      </trkpt>
      <trkpt lat="45.54719" lon="6.83521">
        <ele>2647.2</ele>
        <time>2021-03-30T06:44:01Z</time>
      </trkpt>
      <trkpt lat="45.54719" lon="6.83522">
        <ele>2647.2</ele>
        <time>2021-03-30T06:44:02Z</time>
      </trkpt>
      <trkpt lat="45.54718" lon="6.83523">
        <ele>2647.2</ele>
        <time>2021-03-30T06:44:03Z</time>
      </trkpt>
      <trkpt lat="45.54717" lon="6.83523">
        <ele>2647.2</ele>
        <time>2021-03-30T06:44:04Z</time>
      </trkpt>
      <trkpt lat="45.54717" lon="6.83524">
        <ele>2647.3</ele>
        <time>2021-03-30T06:44:05Z</time>
      </trkpt>
      <trkpt lat="45.54716" lon="6.83525">
        <ele>2647.3</ele>
        <time>2021-03-30T06:44:06Z</time>
      </trkpt>
      <trkpt lat="45.54716" lon="6.83525">
        <ele>2647.3</ele>
        <time>2021-03-30T06:44:07Z</time>
      </trkpt>
      <trkpt lat="45.54716" lon="6.83526">
        <ele>2648.6</ele>
        <time>2021-03-30T06:44:08Z</time>
      </trkpt>
      <trkpt lat="45.54715" lon="6.83526">
        <ele>2648.7</ele>
        <time>2021-03-30T06:44:09Z</time>
      </trkpt>
      <trkpt lat="45.54715" lon="6.83527">
        <ele>2648.7</ele>
        <time>2021-03-30T06:44:10Z</time>
      </trkpt>
      <trkpt lat="45.54714" lon="6.83527">
        <ele>2648.7</ele>
        <time>2021-03-30T06:44:11Z</time>
      </trkpt>
      <trkpt lat="45.54714" lon="6.83528">
        <ele>2648.7</ele>
        <time>2021-03-30T06:44:12Z</time>
      </trkpt>
      <trkpt lat="45.54714" lon="6.83528">
        <ele>2648.7</ele>
        <time>2021-03-30T06:44:13Z</time>
      </trkpt>
      <trkpt lat="45.54713" lon="6.83529">
        <ele>2648.7</ele>
        <time>2021-03-30T06:44:14Z</time>
      </trkpt>
      <trkpt lat="45.54713" lon="6.83529">
        <ele>2648.7</ele>
        <time>2021-03-30T06:44:15Z</time>
      </trkpt>
      <trkpt lat="45.54712" lon="6.83529">
        <ele>2648.7</ele>
        <time>2021-03-30T06:44:16Z</time>
      </trkpt>
      <trkpt lat="45.54712" lon="6.83529">
        <ele>2648.7</ele>
        <time>2021-03-30T06:44:17Z</time>
      </trkpt>
      <trkpt lat="45.54712" lon="6.8353">
        <ele>2648.7</ele>
        <time>2021-03-30T06:44:18Z</time>
      </trkpt>
      <trkpt lat="45.54711" lon="6.8353">
        <ele>2650</ele>
        <time>2021-03-30T06:44:19Z</time>
      </trkpt>
      <trkpt lat="45.54711" lon="6.83531">
        <ele>2650.1</ele>
        <time>2021-03-30T06:44:20Z</time>
      </trkpt>
      <trkpt lat="45.54711" lon="6.83531">
        <ele>2650.1</ele>
        <time>2021-03-30T06:44:21Z</time>
      </trkpt>
      <trkpt lat="45.5471" lon="6.83532">
        <ele>2650.1</ele>
        <time>2021-03-30T06:44:22Z</time>
      </trkpt>
      <trkpt lat="45.5471" lon="6.83532">
        <ele>2650.1</ele>
        <time>2021-03-30T06:44:23Z</time>
      </trkpt>
      <trkpt lat="45.5471" lon="6.83532">
        <ele>2650.1</ele>
        <time>2021-03-30T06:44:24Z</time>
      </trkpt>
      <trkpt lat="45.54709" lon="6.83533">
        <ele>2650.1</ele>
        <time>2021-03-30T06:44:25Z</time>
      </trkpt>
      <trkpt lat="45.54709" lon="6.83533">
        <ele>2650.2</ele>
        <time>2021-03-30T06:44:26Z</time>
      </trkpt>
      <trkpt lat="45.54708" lon="6.83534">
        <ele>2650.2</ele>
        <time>2021-03-30T06:44:27Z</time>
      </trkpt>
      <trkpt lat="45.54708" lon="6.83534">
        <ele>2650.3</ele>
        <time>2021-03-30T06:44:28Z</time>
      </trkpt>
      <trkpt lat="45.54708" lon="6.83535">
        <ele>2650.3</ele>
        <time>2021-03-30T06:44:29Z</time>
      </trkpt>
      <trkpt lat="45.54707" lon="6.83535">
        <ele>2650.4</ele>
        <time>2021-03-30T06:44:30Z</time>
      </trkpt>
      <trkpt lat="45.54707" lon="6.83536">
        <ele>2650.5</ele>
        <time>2021-03-30T06:44:31Z</time>
      </trkpt>
      <trkpt lat="45.54706" lon="6.83537">
        <ele>2650.5</ele>
        <time>2021-03-30T06:44:32Z</time>
      </trkpt>
      <trkpt lat="45.54706" lon="6.83537">
        <ele>2650.6</ele>
        <time>2021-03-30T06:44:33Z</time>
      </trkpt>
      <trkpt lat="45.54705" lon="6.83538">
        <ele>2650.7</ele>
        <time>2021-03-30T06:44:34Z</time>
      </trkpt>
      <trkpt lat="45.54705" lon="6.83538">
        <ele>2650.7</ele>
        <time>2021-03-30T06:44:35Z</time>
      </trkpt>
      <trkpt lat="45.54705" lon="6.83539">
        <ele>2650.8</ele>
        <time>2021-03-30T06:44:36Z</time>
      </trkpt>
      <trkpt lat="45.54704" lon="6.83539">
        <ele>2650.8</ele>
        <time>2021-03-30T06:44:37Z</time>
      </trkpt>
      <trkpt lat="45.54704" lon="6.8354">
        <ele>2650.9</ele>
        <time>2021-03-30T06:44:38Z</time>
      </trkpt>
      <trkpt lat="45.54704" lon="6.83541">
        <ele>2651</ele>
        <time>2021-03-30T06:44:39Z</time>
      </trkpt>
      <trkpt lat="45.54703" lon="6.83541">
        <ele>2651</ele>
        <time>2021-03-30T06:44:40Z</time>
      </trkpt>
      <trkpt lat="45.54703" lon="6.83542">
        <ele>2651.1</ele>
        <time>2021-03-30T06:44:41Z</time>
      </trkpt>
      <trkpt lat="45.54703" lon="6.83543">
        <ele>2651.1</ele>
        <time>2021-03-30T06:44:42Z</time>
      </trkpt>
      <trkpt lat="45.54703" lon="6.83543">
        <ele>2651.2</ele>
        <time>2021-03-30T06:44:43Z</time>
      </trkpt>
      <trkpt lat="45.54702" lon="6.83544">
        <ele>2651.3</ele>
        <time>2021-03-30T06:44:44Z</time>
      </trkpt>
      <trkpt lat="45.54702" lon="6.83545">
        <ele>2651.3</ele>
        <time>2021-03-30T06:44:45Z</time>
      </trkpt>
      <trkpt lat="45.54702" lon="6.83546">
        <ele>2651.4</ele>
        <time>2021-03-30T06:44:46Z</time>
      </trkpt>
      <trkpt lat="45.54701" lon="6.83546">
        <ele>2651.5</ele>
        <time>2021-03-30T06:44:47Z</time>
      </trkpt>
      <trkpt lat="45.54701" lon="6.83547">
        <ele>2651.5</ele>
        <time>2021-03-30T06:44:48Z</time>
      </trkpt>
      <trkpt lat="45.54701" lon="6.83548">
        <ele>2651.6</ele>
        <time>2021-03-30T06:44:49Z</time>
      </trkpt>
      <trkpt lat="45.54701" lon="6.83548">
        <ele>2651.6</ele>
        <time>2021-03-30T06:44:50Z</time>
      </trkpt>
      <trkpt lat="45.54701" lon="6.83549">
        <ele>2651.7</ele>
        <time>2021-03-30T06:44:51Z</time>
      </trkpt>
      <trkpt lat="45.547" lon="6.8355">
        <ele>2651.8</ele>
        <time>2021-03-30T06:44:52Z</time>
      </trkpt>
      <trkpt lat="45.547" lon="6.83551">
        <ele>2651.8</ele>
        <time>2021-03-30T06:44:53Z</time>
      </trkpt>
      <trkpt lat="45.547" lon="6.83551">
        <ele>2651.9</ele>
        <time>2021-03-30T06:44:54Z</time>
      </trkpt>
      <trkpt lat="45.547" lon="6.83552">
        <ele>2651.9</ele>
        <time>2021-03-30T06:44:55Z</time>
      </trkpt>
      <trkpt lat="45.54699" lon="6.83553">
        <ele>2652</ele>
        <time>2021-03-30T06:44:56Z</time>
      </trkpt>
      <trkpt lat="45.54699" lon="6.83553">
        <ele>2652</ele>
        <time>2021-03-30T06:44:57Z</time>
      </trkpt>
      <trkpt lat="45.54699" lon="6.83554">
        <ele>2652.1</ele>
        <time>2021-03-30T06:44:58Z</time>
      </trkpt>
      <trkpt lat="45.54699" lon="6.83554">
        <ele>2652.1</ele>
        <time>2021-03-30T06:44:59Z</time>
      </trkpt>
      <trkpt lat="45.54698" lon="6.83555">
        <ele>2652.2</ele>
        <time>2021-03-30T06:45:00Z</time>
      </trkpt>
      <trkpt lat="45.54698" lon="6.83555">
        <ele>2652.3</ele>
        <time>2021-03-30T06:45:01Z</time>
      </trkpt>
      <trkpt lat="45.54697" lon="6.83556">
        <ele>2652.3</ele>
        <time>2021-03-30T06:45:02Z</time>
      </trkpt>
      <trkpt lat="45.54697" lon="6.83556">
        <ele>2652.4</ele>
        <time>2021-03-30T06:45:03Z</time>
      </trkpt>
      <trkpt lat="45.54696" lon="6.83557">
        <ele>2652.5</ele>
        <time>2021-03-30T06:45:04Z</time>
      </trkpt>
      <trkpt lat="45.54696" lon="6.83558">
        <ele>2652.5</ele>
        <time>2021-03-30T06:45:05Z</time>
      </trkpt>
      <trkpt lat="45.54695" lon="6.83558">
        <ele>2652.6</ele>
        <time>2021-03-30T06:45:06Z</time>
      </trkpt>
      <trkpt lat="45.54695" lon="6.83559">
        <ele>2652.7</ele>
        <time>2021-03-30T06:45:07Z</time>
      </trkpt>
      <trkpt lat="45.54694" lon="6.8356">
        <ele>2652.7</ele>
        <time>2021-03-30T06:45:08Z</time>
      </trkpt>
      <trkpt lat="45.54694" lon="6.8356">
        <ele>2652.8</ele>
        <time>2021-03-30T06:45:09Z</time>
      </trkpt>
      <trkpt lat="45.54693" lon="6.83561">
        <ele>2652.9</ele>
        <time>2021-03-30T06:45:10Z</time>
      </trkpt>
      <trkpt lat="45.54693" lon="6.83561">
        <ele>2652.9</ele>
        <time>2021-03-30T06:45:11Z</time>
      </trkpt>
      <trkpt lat="45.54693" lon="6.83562">
        <ele>2653</ele>
        <time>2021-03-30T06:45:12Z</time>
      </trkpt>
      <trkpt lat="45.54692" lon="6.83563">
        <ele>2653.1</ele>
        <time>2021-03-30T06:45:13Z</time>
      </trkpt>
      <trkpt lat="45.54692" lon="6.83563">
        <ele>2653.1</ele>
        <time>2021-03-30T06:45:14Z</time>
      </trkpt>
      <trkpt lat="45.54692" lon="6.83564">
        <ele>2653.1</ele>
        <time>2021-03-30T06:45:15Z</time>
      </trkpt>
      <trkpt lat="45.54691" lon="6.83564">
        <ele>2653.2</ele>
        <time>2021-03-30T06:45:16Z</time>
      </trkpt>
      <trkpt lat="45.54691" lon="6.83565">
        <ele>2653.3</ele>
        <time>2021-03-30T06:45:17Z</time>
      </trkpt>
      <trkpt lat="45.54691" lon="6.83565">
        <ele>2653.3</ele>
        <time>2021-03-30T06:45:18Z</time>
      </trkpt>
      <trkpt lat="45.5469" lon="6.83566">
        <ele>2653.4</ele>
        <time>2021-03-30T06:45:19Z</time>
      </trkpt>
      <trkpt lat="45.5469" lon="6.83566">
        <ele>2653.4</ele>
        <time>2021-03-30T06:45:20Z</time>
      </trkpt>
      <trkpt lat="45.54689" lon="6.83567">
        <ele>2653.5</ele>
        <time>2021-03-30T06:45:21Z</time>
      </trkpt>
      <trkpt lat="45.54689" lon="6.83567">
        <ele>2653.6</ele>
        <time>2021-03-30T06:45:22Z</time>
      </trkpt>
      <trkpt lat="45.54688" lon="6.83568">
        <ele>2653.6</ele>
        <time>2021-03-30T06:45:23Z</time>
      </trkpt>
      <trkpt lat="45.54688" lon="6.83568">
        <ele>2653.7</ele>
        <time>2021-03-30T06:45:24Z</time>
      </trkpt>
      <trkpt lat="45.54687" lon="6.83569">
        <ele>2653.8</ele>
        <time>2021-03-30T06:45:25Z</time>
      </trkpt>
      <trkpt lat="45.54687" lon="6.8357">
        <ele>2653.9</ele>
        <time>2021-03-30T06:45:26Z</time>
      </trkpt>
      <trkpt lat="45.54686" lon="6.83571">
        <ele>2654</ele>
        <time>2021-03-30T06:45:27Z</time>
      </trkpt>
      <trkpt lat="45.54686" lon="6.83572">
        <ele>2654</ele>
        <time>2021-03-30T06:45:28Z</time>
      </trkpt>
      <trkpt lat="45.54685" lon="6.83572">
        <ele>2654.1</ele>
        <time>2021-03-30T06:45:29Z</time>
      </trkpt>
      <trkpt lat="45.54684" lon="6.83573">
        <ele>2654.2</ele>
        <time>2021-03-30T06:45:30Z</time>
      </trkpt>
      <trkpt lat="45.54684" lon="6.83574">
        <ele>2654.3</ele>
        <time>2021-03-30T06:45:31Z</time>
      </trkpt>
      <trkpt lat="45.54683" lon="6.83574">
        <ele>2654.4</ele>
        <time>2021-03-30T06:45:32Z</time>
      </trkpt>
      <trkpt lat="45.54683" lon="6.83575">
        <ele>2654.5</ele>
        <time>2021-03-30T06:45:33Z</time>
      </trkpt>
      <trkpt lat="45.54682" lon="6.83576">
        <ele>2654.5</ele>
        <time>2021-03-30T06:45:34Z</time>
      </trkpt>
      <trkpt lat="45.54682" lon="6.83576">
        <ele>2654.6</ele>
        <time>2021-03-30T06:45:35Z</time>
      </trkpt>
      <trkpt lat="45.54681" lon="6.83577">
        <ele>2654.7</ele>
        <time>2021-03-30T06:45:36Z</time>
      </trkpt>
      <trkpt lat="45.54681" lon="6.83577">
        <ele>2654.7</ele>
        <time>2021-03-30T06:45:37Z</time>
      </trkpt>
      <trkpt lat="45.5468" lon="6.83578">
        <ele>2654.8</ele>
        <time>2021-03-30T06:45:38Z</time>
      </trkpt>
      <trkpt lat="45.5468" lon="6.83579">
        <ele>2654.9</ele>
        <time>2021-03-30T06:45:39Z</time>
      </trkpt>
      <trkpt lat="45.54679" lon="6.83579">
        <ele>2655</ele>
        <time>2021-03-30T06:45:40Z</time>
      </trkpt>
      <trkpt lat="45.54679" lon="6.8358">
        <ele>2655</ele>
        <time>2021-03-30T06:45:41Z</time>
      </trkpt>
      <trkpt lat="45.54678" lon="6.8358">
        <ele>2655.1</ele>
        <time>2021-03-30T06:45:42Z</time>
      </trkpt>
      <trkpt lat="45.54678" lon="6.83581">
        <ele>2655.1</ele>
        <time>2021-03-30T06:45:43Z</time>
      </trkpt>
      <trkpt lat="45.54678" lon="6.83581">
        <ele>2655.2</ele>
        <time>2021-03-30T06:45:44Z</time>
      </trkpt>
      <trkpt lat="45.54677" lon="6.83582">
        <ele>2655.3</ele>
        <time>2021-03-30T06:45:45Z</time>
      </trkpt>
      <trkpt lat="45.54677" lon="6.83582">
        <ele>2655.3</ele>
        <time>2021-03-30T06:45:46Z</time>
      </trkpt>
      <trkpt lat="45.54676" lon="6.83583">
        <ele>2655.4</ele>
        <time>2021-03-30T06:45:47Z</time>
      </trkpt>
      <trkpt lat="45.54676" lon="6.83584">
        <ele>2655.4</ele>
        <time>2021-03-30T06:45:48Z</time>
      </trkpt>
      <trkpt lat="45.54676" lon="6.83584">
        <ele>2655.5</ele>
        <time>2021-03-30T06:45:49Z</time>
      </trkpt>
      <trkpt lat="45.54675" lon="6.83585">
        <ele>2655.6</ele>
        <time>2021-03-30T06:45:50Z</time>
      </trkpt>
      <trkpt lat="45.54675" lon="6.83586">
        <ele>2655.6</ele>
        <time>2021-03-30T06:45:51Z</time>
      </trkpt>
      <trkpt lat="45.54675" lon="6.83587">
        <ele>2655.7</ele>
        <time>2021-03-30T06:45:52Z</time>
      </trkpt>
      <trkpt lat="45.54674" lon="6.83587">
        <ele>2655.8</ele>
        <time>2021-03-30T06:45:53Z</time>
      </trkpt>
      <trkpt lat="45.54674" lon="6.83588">
        <ele>2655.9</ele>
        <time>2021-03-30T06:45:54Z</time>
      </trkpt>
      <trkpt lat="45.54674" lon="6.83589">
        <ele>2655.9</ele>
        <time>2021-03-30T06:45:55Z</time>
      </trkpt>
      <trkpt lat="45.54673" lon="6.83589">
        <ele>2656</ele>
        <time>2021-03-30T06:45:56Z</time>
      </trkpt>
      <trkpt lat="45.54673" lon="6.8359">
        <ele>2656</ele>
        <time>2021-03-30T06:45:57Z</time>
      </trkpt>
      <trkpt lat="45.54673" lon="6.83591">
        <ele>2656.1</ele>
        <time>2021-03-30T06:45:58Z</time>
      </trkpt>
      <trkpt lat="45.54672" lon="6.83592">
        <ele>2656.2</ele>
        <time>2021-03-30T06:45:59Z</time>
      </trkpt>
      <trkpt lat="45.54672" lon="6.83593">
        <ele>2656.3</ele>
        <time>2021-03-30T06:46:00Z</time>
      </trkpt>
      <trkpt lat="45.54672" lon="6.83594">
        <ele>2656.3</ele>
        <time>2021-03-30T06:46:01Z</time>
      </trkpt>
      <trkpt lat="45.54671" lon="6.83595">
        <ele>2656.4</ele>
        <time>2021-03-30T06:46:02Z</time>
      </trkpt>
      <trkpt lat="45.54671" lon="6.83595">
        <ele>2656.5</ele>
        <time>2021-03-30T06:46:03Z</time>
      </trkpt>
      <trkpt lat="45.54671" lon="6.83596">
        <ele>2656.6</ele>
        <time>2021-03-30T06:46:04Z</time>
      </trkpt>
      <trkpt lat="45.5467" lon="6.83597">
        <ele>2656.6</ele>
        <time>2021-03-30T06:46:05Z</time>
      </trkpt>
      <trkpt lat="45.5467" lon="6.83598">
        <ele>2656.7</ele>
        <time>2021-03-30T06:46:06Z</time>
      </trkpt>
      <trkpt lat="45.5467" lon="6.83598">
        <ele>2656.8</ele>
        <time>2021-03-30T06:46:07Z</time>
      </trkpt>
      <trkpt lat="45.5467" lon="6.83599">
        <ele>2656.8</ele>
        <time>2021-03-30T06:46:08Z</time>
      </trkpt>
      <trkpt lat="45.54669" lon="6.836">
        <ele>2656.9</ele>
        <time>2021-03-30T06:46:09Z</time>
      </trkpt>
      <trkpt lat="45.54669" lon="6.83601">
        <ele>2657</ele>
        <time>2021-03-30T06:46:10Z</time>
      </trkpt>
      <trkpt lat="45.54669" lon="6.83602">
        <ele>2657.1</ele>
        <time>2021-03-30T06:46:11Z</time>
      </trkpt>
      <trkpt lat="45.54669" lon="6.83603">
        <ele>2657.2</ele>
        <time>2021-03-30T06:46:12Z</time>
      </trkpt>
      <trkpt lat="45.54668" lon="6.83604">
        <ele>2657.2</ele>
        <time>2021-03-30T06:46:13Z</time>
      </trkpt>
      <trkpt lat="45.54668" lon="6.83605">
        <ele>2657.3</ele>
        <time>2021-03-30T06:46:14Z</time>
      </trkpt>
      <trkpt lat="45.54668" lon="6.83606">
        <ele>2657.4</ele>
        <time>2021-03-30T06:46:15Z</time>
      </trkpt>
      <trkpt lat="45.54668" lon="6.83607">
        <ele>2657.5</ele>
        <time>2021-03-30T06:46:16Z</time>
      </trkpt>
      <trkpt lat="45.54668" lon="6.83608">
        <ele>2657.5</ele>
        <time>2021-03-30T06:46:17Z</time>
      </trkpt>
      <trkpt lat="45.54668" lon="6.83609">
        <ele>2657.6</ele>
        <time>2021-03-30T06:46:18Z</time>
      </trkpt>
      <trkpt lat="45.54668" lon="6.8361">
        <ele>2657.6</ele>
        <time>2021-03-30T06:46:19Z</time>
      </trkpt>
      <trkpt lat="45.54668" lon="6.83611">
        <ele>2657.7</ele>
        <time>2021-03-30T06:46:20Z</time>
      </trkpt>
      <trkpt lat="45.54668" lon="6.83612">
        <ele>2657.8</ele>
        <time>2021-03-30T06:46:21Z</time>
      </trkpt>
      <trkpt lat="45.54668" lon="6.83613">
        <ele>2657.9</ele>
        <time>2021-03-30T06:46:22Z</time>
      </trkpt>
      <trkpt lat="45.54668" lon="6.83614">
        <ele>2657.9</ele>
        <time>2021-03-30T06:46:23Z</time>
      </trkpt>
      <trkpt lat="45.54668" lon="6.83615">
        <ele>2658</ele>
        <time>2021-03-30T06:46:24Z</time>
      </trkpt>
      <trkpt lat="45.54668" lon="6.83616">
        <ele>2658.1</ele>
        <time>2021-03-30T06:46:25Z</time>
      </trkpt>
      <trkpt lat="45.54668" lon="6.83617">
        <ele>2658.1</ele>
        <time>2021-03-30T06:46:26Z</time>
      </trkpt>
      <trkpt lat="45.54668" lon="6.83618">
        <ele>2658.2</ele>
        <time>2021-03-30T06:46:27Z</time>
      </trkpt>
      <trkpt lat="45.54668" lon="6.83619">
        <ele>2658.2</ele>
        <time>2021-03-30T06:46:28Z</time>
      </trkpt>
      <trkpt lat="45.54668" lon="6.8362">
        <ele>2658.3</ele>
        <time>2021-03-30T06:46:29Z</time>
      </trkpt>
      <trkpt lat="45.54668" lon="6.83621">
        <ele>2658.3</ele>
        <time>2021-03-30T06:46:30Z</time>
      </trkpt>
      <trkpt lat="45.54667" lon="6.83622">
        <ele>2658.4</ele>
        <time>2021-03-30T06:46:31Z</time>
      </trkpt>
      <trkpt lat="45.54667" lon="6.83623">
        <ele>2658.4</ele>
        <time>2021-03-30T06:46:32Z</time>
      </trkpt>
      <trkpt lat="45.54667" lon="6.83623">
        <ele>2658.5</ele>
        <time>2021-03-30T06:46:33Z</time>
      </trkpt>
      <trkpt lat="45.54667" lon="6.83624">
        <ele>2658.5</ele>
        <time>2021-03-30T06:46:34Z</time>
      </trkpt>
      <trkpt lat="45.54667" lon="6.83624">
        <ele>2658.5</ele>
        <time>2021-03-30T06:46:35Z</time>
      </trkpt>
      <trkpt lat="45.54667" lon="6.83625">
        <ele>2658.5</ele>
        <time>2021-03-30T06:46:36Z</time>
      </trkpt>
      <trkpt lat="45.54667" lon="6.83625">
        <ele>2658.6</ele>
        <time>2021-03-30T06:46:37Z</time>
      </trkpt>
      <trkpt lat="45.54666" lon="6.83626">
        <ele>2658.6</ele>
        <time>2021-03-30T06:46:38Z</time>
      </trkpt>
      <trkpt lat="45.54666" lon="6.83626">
        <ele>2658.6</ele>
        <time>2021-03-30T06:46:39Z</time>
      </trkpt>
      <trkpt lat="45.54666" lon="6.83627">
        <ele>2658.7</ele>
        <time>2021-03-30T06:46:40Z</time>
      </trkpt>
      <trkpt lat="45.54665" lon="6.83628">
        <ele>2658.7</ele>
        <time>2021-03-30T06:46:41Z</time>
      </trkpt>
      <trkpt lat="45.54665" lon="6.83629">
        <ele>2658.8</ele>
        <time>2021-03-30T06:46:42Z</time>
      </trkpt>
      <trkpt lat="45.54665" lon="6.8363">
        <ele>2658.8</ele>
        <time>2021-03-30T06:46:43Z</time>
      </trkpt>
      <trkpt lat="45.54665" lon="6.8363">
        <ele>2658.9</ele>
        <time>2021-03-30T06:46:44Z</time>
      </trkpt>
      <trkpt lat="45.54664" lon="6.83631">
        <ele>2658.9</ele>
        <time>2021-03-30T06:46:45Z</time>
      </trkpt>
      <trkpt lat="45.54664" lon="6.83631">
        <ele>2658.9</ele>
        <time>2021-03-30T06:46:46Z</time>
      </trkpt>
      <trkpt lat="45.54664" lon="6.83632">
        <ele>2659</ele>
        <time>2021-03-30T06:46:47Z</time>
      </trkpt>
      <trkpt lat="45.54664" lon="6.83633">
        <ele>2659</ele>
        <time>2021-03-30T06:46:48Z</time>
      </trkpt>
      <trkpt lat="45.54664" lon="6.83634">
        <ele>2659.1</ele>
        <time>2021-03-30T06:46:49Z</time>
      </trkpt>
      <trkpt lat="45.54663" lon="6.83635">
        <ele>2659.1</ele>
        <time>2021-03-30T06:46:50Z</time>
      </trkpt>
      <trkpt lat="45.54663" lon="6.83636">
        <ele>2659.2</ele>
        <time>2021-03-30T06:46:51Z</time>
      </trkpt>
      <trkpt lat="45.54663" lon="6.83638">
        <ele>2659.2</ele>
        <time>2021-03-30T06:46:52Z</time>
      </trkpt>
      <trkpt lat="45.54662" lon="6.83639">
        <ele>2659.3</ele>
        <time>2021-03-30T06:46:53Z</time>
      </trkpt>
      <trkpt lat="45.54662" lon="6.8364">
        <ele>2659.3</ele>
        <time>2021-03-30T06:46:54Z</time>
      </trkpt>
      <trkpt lat="45.54662" lon="6.83641">
        <ele>2659.4</ele>
        <time>2021-03-30T06:46:55Z</time>
      </trkpt>
      <trkpt lat="45.54662" lon="6.83642">
        <ele>2659.4</ele>
        <time>2021-03-30T06:46:56Z</time>
      </trkpt>
      <trkpt lat="45.54661" lon="6.83644">
        <ele>2659.5</ele>
        <time>2021-03-30T06:46:57Z</time>
      </trkpt>
      <trkpt lat="45.54661" lon="6.83645">
        <ele>2659.5</ele>
        <time>2021-03-30T06:46:58Z</time>
      </trkpt>
      <trkpt lat="45.54661" lon="6.83646">
        <ele>2659.6</ele>
        <time>2021-03-30T06:46:59Z</time>
      </trkpt>
      <trkpt lat="45.5466" lon="6.83647">
        <ele>2659.6</ele>
        <time>2021-03-30T06:47:00Z</time>
      </trkpt>
      <trkpt lat="45.5466" lon="6.83648">
        <ele>2659.6</ele>
        <time>2021-03-30T06:47:01Z</time>
      </trkpt>
      <trkpt lat="45.5466" lon="6.83649">
        <ele>2659.7</ele>
        <time>2021-03-30T06:47:02Z</time>
      </trkpt>
      <trkpt lat="45.5466" lon="6.8365">
        <ele>2659.7</ele>
        <time>2021-03-30T06:47:03Z</time>
      </trkpt>
      <trkpt lat="45.5466" lon="6.83651">
        <ele>2659.8</ele>
        <time>2021-03-30T06:47:04Z</time>
      </trkpt>
      <trkpt lat="45.5466" lon="6.83653">
        <ele>2659.8</ele>
        <time>2021-03-30T06:47:05Z</time>
      </trkpt>
      <trkpt lat="45.54659" lon="6.83654">
        <ele>2659.8</ele>
        <time>2021-03-30T06:47:06Z</time>
      </trkpt>
      <trkpt lat="45.54659" lon="6.83656">
        <ele>2659.9</ele>
        <time>2021-03-30T06:47:07Z</time>
      </trkpt>
      <trkpt lat="45.54658" lon="6.83657">
        <ele>2660</ele>
        <time>2021-03-30T06:47:08Z</time>
      </trkpt>
      <trkpt lat="45.54657" lon="6.83659">
        <ele>2660</ele>
        <time>2021-03-30T06:47:09Z</time>
      </trkpt>
      <trkpt lat="45.54657" lon="6.8366">
        <ele>2660</ele>
        <time>2021-03-30T06:47:10Z</time>
      </trkpt>
      <trkpt lat="45.54656" lon="6.83661">
        <ele>2660.1</ele>
        <time>2021-03-30T06:47:11Z</time>
      </trkpt>
      <trkpt lat="45.54656" lon="6.83662">
        <ele>2660.1</ele>
        <time>2021-03-30T06:47:12Z</time>
      </trkpt>
      <trkpt lat="45.54655" lon="6.83664">
        <ele>2660.1</ele>
        <time>2021-03-30T06:47:13Z</time>
      </trkpt>
      <trkpt lat="45.54654" lon="6.83665">
        <ele>2660.2</ele>
        <time>2021-03-30T06:47:14Z</time>
      </trkpt>
      <trkpt lat="45.54654" lon="6.83666">
        <ele>2660.2</ele>
        <time>2021-03-30T06:47:15Z</time>
      </trkpt>
      <trkpt lat="45.54653" lon="6.83668">
        <ele>2660.3</ele>
        <time>2021-03-30T06:47:16Z</time>
      </trkpt>
      <trkpt lat="45.54653" lon="6.83669">
        <ele>2660.3</ele>
        <time>2021-03-30T06:47:17Z</time>
      </trkpt>
      <trkpt lat="45.54652" lon="6.8367">
        <ele>2660.3</ele>
        <time>2021-03-30T06:47:18Z</time>
      </trkpt>
      <trkpt lat="45.54652" lon="6.83671">
        <ele>2660.3</ele>
        <time>2021-03-30T06:47:19Z</time>
      </trkpt>
      <trkpt lat="45.54652" lon="6.83672">
        <ele>2660.4</ele>
        <time>2021-03-30T06:47:20Z</time>
      </trkpt>
      <trkpt lat="45.54651" lon="6.83673">
        <ele>2660.4</ele>
        <time>2021-03-30T06:47:21Z</time>
      </trkpt>
      <trkpt lat="45.54651" lon="6.83674">
        <ele>2660.4</ele>
        <time>2021-03-30T06:47:22Z</time>
      </trkpt>
      <trkpt lat="45.5465" lon="6.83674">
        <ele>2660.4</ele>
        <time>2021-03-30T06:47:23Z</time>
      </trkpt>
      <trkpt lat="45.5465" lon="6.83675">
        <ele>2660.4</ele>
        <time>2021-03-30T06:47:24Z</time>
      </trkpt>
      <trkpt lat="45.54649" lon="6.83676">
        <ele>2660.5</ele>
        <time>2021-03-30T06:47:25Z</time>
      </trkpt>
      <trkpt lat="45.54648" lon="6.83677">
        <ele>2660.5</ele>
        <time>2021-03-30T06:47:26Z</time>
      </trkpt>
      <trkpt lat="45.54648" lon="6.83678">
        <ele>2660.5</ele>
        <time>2021-03-30T06:47:27Z</time>
      </trkpt>
      <trkpt lat="45.54647" lon="6.83679">
        <ele>2660.5</ele>
        <time>2021-03-30T06:47:28Z</time>
      </trkpt>
      <trkpt lat="45.54647" lon="6.8368">
        <ele>2660.5</ele>
        <time>2021-03-30T06:47:29Z</time>
      </trkpt>
      <trkpt lat="45.54646" lon="6.83681">
        <ele>2660.6</ele>
        <time>2021-03-30T06:47:30Z</time>
      </trkpt>
      <trkpt lat="45.54646" lon="6.83682">
        <ele>2660.6</ele>
        <time>2021-03-30T06:47:31Z</time>
      </trkpt>
      <trkpt lat="45.54645" lon="6.83683">
        <ele>2660.6</ele>
        <time>2021-03-30T06:47:32Z</time>
      </trkpt>
      <trkpt lat="45.54645" lon="6.83685">
        <ele>2660.6</ele>
        <time>2021-03-30T06:47:33Z</time>
      </trkpt>
      <trkpt lat="45.54644" lon="6.83686">
        <ele>2660.7</ele>
        <time>2021-03-30T06:47:34Z</time>
      </trkpt>
      <trkpt lat="45.54644" lon="6.83687">
        <ele>2660.7</ele>
        <time>2021-03-30T06:47:35Z</time>
      </trkpt>
      <trkpt lat="45.54643" lon="6.83687">
        <ele>2660.7</ele>
        <time>2021-03-30T06:47:36Z</time>
      </trkpt>
      <trkpt lat="45.54643" lon="6.83688">
        <ele>2660.7</ele>
        <time>2021-03-30T06:47:37Z</time>
      </trkpt>
      <trkpt lat="45.54642" lon="6.83689">
        <ele>2660.7</ele>
        <time>2021-03-30T06:47:38Z</time>
      </trkpt>
      <trkpt lat="45.54641" lon="6.83691">
        <ele>2660.8</ele>
        <time>2021-03-30T06:47:39Z</time>
      </trkpt>
      <trkpt lat="45.54641" lon="6.83692">
        <ele>2660.8</ele>
        <time>2021-03-30T06:47:40Z</time>
      </trkpt>
      <trkpt lat="45.5464" lon="6.83693">
        <ele>2660.8</ele>
        <time>2021-03-30T06:47:41Z</time>
      </trkpt>
      <trkpt lat="45.5464" lon="6.83694">
        <ele>2661</ele>
        <time>2021-03-30T06:47:42Z</time>
      </trkpt>
      <trkpt lat="45.54639" lon="6.83695">
        <ele>2661</ele>
        <time>2021-03-30T06:47:43Z</time>
      </trkpt>
      <trkpt lat="45.54638" lon="6.83697">
        <ele>2661</ele>
        <time>2021-03-30T06:47:44Z</time>
      </trkpt>
      <trkpt lat="45.54638" lon="6.83698">
        <ele>2661.2</ele>
        <time>2021-03-30T06:47:45Z</time>
      </trkpt>
      <trkpt lat="45.54638" lon="6.83699">
        <ele>2661.2</ele>
        <time>2021-03-30T06:47:46Z</time>
      </trkpt>
      <trkpt lat="45.54637" lon="6.837">
        <ele>2661.2</ele>
        <time>2021-03-30T06:47:47Z</time>
      </trkpt>
      <trkpt lat="45.54636" lon="6.83701">
        <ele>2661.4</ele>
        <time>2021-03-30T06:47:48Z</time>
      </trkpt>
      <trkpt lat="45.54635" lon="6.83702">
        <ele>2661.4</ele>
        <time>2021-03-30T06:47:49Z</time>
      </trkpt>
      <trkpt lat="45.54635" lon="6.83703">
        <ele>2661.5</ele>
        <time>2021-03-30T06:47:50Z</time>
      </trkpt>
      <trkpt lat="45.54634" lon="6.83704">
        <ele>2661.6</ele>
        <time>2021-03-30T06:47:51Z</time>
      </trkpt>
      <trkpt lat="45.54633" lon="6.83705">
        <ele>2661.7</ele>
        <time>2021-03-30T06:47:52Z</time>
      </trkpt>
      <trkpt lat="45.54633" lon="6.83706">
        <ele>2661.7</ele>
        <time>2021-03-30T06:47:53Z</time>
      </trkpt>
      <trkpt lat="45.54632" lon="6.83707">
        <ele>2661.8</ele>
        <time>2021-03-30T06:47:54Z</time>
      </trkpt>
      <trkpt lat="45.54632" lon="6.83708">
        <ele>2661.9</ele>
        <time>2021-03-30T06:47:55Z</time>
      </trkpt>
      <trkpt lat="45.54631" lon="6.83709">
        <ele>2662</ele>
        <time>2021-03-30T06:47:56Z</time>
      </trkpt>
      <trkpt lat="45.5463" lon="6.8371">
        <ele>2662.1</ele>
        <time>2021-03-30T06:47:57Z</time>
      </trkpt>
      <trkpt lat="45.5463" lon="6.83711">
        <ele>2662.1</ele>
        <time>2021-03-30T06:47:58Z</time>
      </trkpt>
      <trkpt lat="45.5463" lon="6.83712">
        <ele>2662.2</ele>
        <time>2021-03-30T06:47:59Z</time>
      </trkpt>
      <trkpt lat="45.54629" lon="6.83713">
        <ele>2662.3</ele>
        <time>2021-03-30T06:48:00Z</time>
      </trkpt>
      <trkpt lat="45.54629" lon="6.83714">
        <ele>2662.4</ele>
        <time>2021-03-30T06:48:01Z</time>
      </trkpt>
      <trkpt lat="45.54628" lon="6.83715">
        <ele>2662.5</ele>
        <time>2021-03-30T06:48:02Z</time>
      </trkpt>
      <trkpt lat="45.54628" lon="6.83716">
        <ele>2662.6</ele>
        <time>2021-03-30T06:48:03Z</time>
      </trkpt>
      <trkpt lat="45.54627" lon="6.83717">
        <ele>2662.7</ele>
        <time>2021-03-30T06:48:04Z</time>
      </trkpt>
      <trkpt lat="45.54627" lon="6.83718">
        <ele>2662.7</ele>
        <time>2021-03-30T06:48:05Z</time>
      </trkpt>
      <trkpt lat="45.54626" lon="6.83719">
        <ele>2662.8</ele>
        <time>2021-03-30T06:48:06Z</time>
      </trkpt>
      <trkpt lat="45.54625" lon="6.8372">
        <ele>2662.9</ele>
        <time>2021-03-30T06:48:07Z</time>
      </trkpt>
      <trkpt lat="45.54625" lon="6.83721">
        <ele>2663.1</ele>
        <time>2021-03-30T06:48:08Z</time>
      </trkpt>
      <trkpt lat="45.54624" lon="6.83722">
        <ele>2663.1</ele>
        <time>2021-03-30T06:48:09Z</time>
      </trkpt>
      <trkpt lat="45.54624" lon="6.83723">
        <ele>2663.2</ele>
        <time>2021-03-30T06:48:10Z</time>
      </trkpt>
      <trkpt lat="45.54623" lon="6.83724">
        <ele>2663.3</ele>
        <time>2021-03-30T06:48:11Z</time>
      </trkpt>
      <trkpt lat="45.54622" lon="6.83725">
        <ele>2663.4</ele>
        <time>2021-03-30T06:48:12Z</time>
      </trkpt>
      <trkpt lat="45.54622" lon="6.83727">
        <ele>2663.5</ele>
        <time>2021-03-30T06:48:13Z</time>
      </trkpt>
      <trkpt lat="45.54621" lon="6.83728">
        <ele>2663.6</ele>
        <time>2021-03-30T06:48:14Z</time>
      </trkpt>
      <trkpt lat="45.5462" lon="6.83729">
        <ele>2663.7</ele>
        <time>2021-03-30T06:48:15Z</time>
      </trkpt>
      <trkpt lat="45.54619" lon="6.8373">
        <ele>2663.8</ele>
        <time>2021-03-30T06:48:16Z</time>
      </trkpt>
      <trkpt lat="45.54619" lon="6.83731">
        <ele>2663.9</ele>
        <time>2021-03-30T06:48:17Z</time>
      </trkpt>
      <trkpt lat="45.54618" lon="6.83732">
        <ele>2664</ele>
        <time>2021-03-30T06:48:18Z</time>
      </trkpt>
      <trkpt lat="45.54617" lon="6.83734">
        <ele>2664.1</ele>
        <time>2021-03-30T06:48:19Z</time>
      </trkpt>
      <trkpt lat="45.54617" lon="6.83735">
        <ele>2664.2</ele>
        <time>2021-03-30T06:48:20Z</time>
      </trkpt>
      <trkpt lat="45.54616" lon="6.83736">
        <ele>2664.3</ele>
        <time>2021-03-30T06:48:21Z</time>
      </trkpt>
      <trkpt lat="45.54616" lon="6.83737">
        <ele>2664.4</ele>
        <time>2021-03-30T06:48:22Z</time>
      </trkpt>
      <trkpt lat="45.54615" lon="6.83739">
        <ele>2664.5</ele>
        <time>2021-03-30T06:48:23Z</time>
      </trkpt>
      <trkpt lat="45.54615" lon="6.8374">
        <ele>2664.6</ele>
        <time>2021-03-30T06:48:24Z</time>
      </trkpt>
      <trkpt lat="45.54614" lon="6.83741">
        <ele>2664.7</ele>
        <time>2021-03-30T06:48:25Z</time>
      </trkpt>
      <trkpt lat="45.54614" lon="6.83742">
        <ele>2664.7</ele>
        <time>2021-03-30T06:48:26Z</time>
      </trkpt>
      <trkpt lat="45.54614" lon="6.83742">
        <ele>2664.8</ele>
        <time>2021-03-30T06:48:27Z</time>
      </trkpt>
      <trkpt lat="45.54613" lon="6.83743">
        <ele>2664.8</ele>
        <time>2021-03-30T06:48:28Z</time>
      </trkpt>
      <trkpt lat="45.54613" lon="6.83744">
        <ele>2665</ele>
        <time>2021-03-30T06:48:29Z</time>
      </trkpt>
      <trkpt lat="45.54613" lon="6.83745">
        <ele>2665</ele>
        <time>2021-03-30T06:48:30Z</time>
      </trkpt>
      <trkpt lat="45.54612" lon="6.83746">
        <ele>2665.1</ele>
        <time>2021-03-30T06:48:31Z</time>
      </trkpt>
      <trkpt lat="45.54612" lon="6.83746">
        <ele>2665.1</ele>
        <time>2021-03-30T06:48:32Z</time>
      </trkpt>
      <trkpt lat="45.54611" lon="6.83747">
        <ele>2665.3</ele>
        <time>2021-03-30T06:48:33Z</time>
      </trkpt>
      <trkpt lat="45.5461" lon="6.83747">
        <ele>2665.3</ele>
        <time>2021-03-30T06:48:34Z</time>
      </trkpt>
      <trkpt lat="45.5461" lon="6.83748">
        <ele>2665.3</ele>
        <time>2021-03-30T06:48:35Z</time>
      </trkpt>
      <trkpt lat="45.54609" lon="6.83748">
        <ele>2665.5</ele>
        <time>2021-03-30T06:48:36Z</time>
      </trkpt>
      <trkpt lat="45.54608" lon="6.83749">
        <ele>2665.6</ele>
        <time>2021-03-30T06:48:37Z</time>
      </trkpt>
      <trkpt lat="45.54607" lon="6.83749">
        <ele>2665.6</ele>
        <time>2021-03-30T06:48:38Z</time>
      </trkpt>
      <trkpt lat="45.54606" lon="6.83749">
        <ele>2665.7</ele>
        <time>2021-03-30T06:48:39Z</time>
      </trkpt>
      <trkpt lat="45.54606" lon="6.8375">
        <ele>2665.8</ele>
        <time>2021-03-30T06:48:40Z</time>
      </trkpt>
      <trkpt lat="45.54605" lon="6.8375">
        <ele>2665.9</ele>
        <time>2021-03-30T06:48:41Z</time>
      </trkpt>
      <trkpt lat="45.54604" lon="6.8375">
        <ele>2665.9</ele>
        <time>2021-03-30T06:48:42Z</time>
      </trkpt>
      <trkpt lat="45.54604" lon="6.8375">
        <ele>2666</ele>
        <time>2021-03-30T06:48:43Z</time>
      </trkpt>
      <trkpt lat="45.54603" lon="6.8375">
        <ele>2666.1</ele>
        <time>2021-03-30T06:48:44Z</time>
      </trkpt>
      <trkpt lat="45.54602" lon="6.83751">
        <ele>2666.1</ele>
        <time>2021-03-30T06:48:45Z</time>
      </trkpt>
      <trkpt lat="45.54601" lon="6.83751">
        <ele>2666.3</ele>
        <time>2021-03-30T06:48:46Z</time>
      </trkpt>
      <trkpt lat="45.546" lon="6.83751">
        <ele>2666.3</ele>
        <time>2021-03-30T06:48:47Z</time>
      </trkpt>
      <trkpt lat="45.546" lon="6.83752">
        <ele>2666</ele>
        <time>2021-03-30T06:48:48Z</time>
      </trkpt>
      <trkpt lat="45.54599" lon="6.83752">
        <ele>2666.1</ele>
        <time>2021-03-30T06:48:49Z</time>
      </trkpt>
      <trkpt lat="45.54598" lon="6.83753">
        <ele>2666.1</ele>
        <time>2021-03-30T06:48:50Z</time>
      </trkpt>
      <trkpt lat="45.54597" lon="6.83753">
        <ele>2666.7</ele>
        <time>2021-03-30T06:48:51Z</time>
      </trkpt>
      <trkpt lat="45.54597" lon="6.83754">
        <ele>2666.7</ele>
        <time>2021-03-30T06:48:52Z</time>
      </trkpt>
      <trkpt lat="45.54596" lon="6.83755">
        <ele>2666.8</ele>
        <time>2021-03-30T06:48:53Z</time>
      </trkpt>
      <trkpt lat="45.54595" lon="6.83755">
        <ele>2666.8</ele>
        <time>2021-03-30T06:48:54Z</time>
      </trkpt>
      <trkpt lat="45.54595" lon="6.83755">
        <ele>2666.9</ele>
        <time>2021-03-30T06:48:55Z</time>
      </trkpt>
      <trkpt lat="45.54594" lon="6.83756">
        <ele>2666.6</ele>
        <time>2021-03-30T06:48:56Z</time>
      </trkpt>
      <trkpt lat="45.54593" lon="6.83756">
        <ele>2666.6</ele>
        <time>2021-03-30T06:48:57Z</time>
      </trkpt>
      <trkpt lat="45.54593" lon="6.83757">
        <ele>2666.7</ele>
        <time>2021-03-30T06:48:58Z</time>
      </trkpt>
      <trkpt lat="45.54592" lon="6.83757">
        <ele>2666.7</ele>
        <time>2021-03-30T06:48:59Z</time>
      </trkpt>
      <trkpt lat="45.54592" lon="6.83758">
        <ele>2667.7</ele>
        <time>2021-03-30T06:49:00Z</time>
      </trkpt>
      <trkpt lat="45.54591" lon="6.83759">
        <ele>2667.3</ele>
        <time>2021-03-30T06:49:01Z</time>
      </trkpt>
      <trkpt lat="45.5459" lon="6.83759">
        <ele>2667.4</ele>
        <time>2021-03-30T06:49:02Z</time>
      </trkpt>
      <trkpt lat="45.5459" lon="6.8376">
        <ele>2667.4</ele>
        <time>2021-03-30T06:49:03Z</time>
      </trkpt>
      <trkpt lat="45.54589" lon="6.83761">
        <ele>2667.6</ele>
        <time>2021-03-30T06:49:04Z</time>
      </trkpt>
      <trkpt lat="45.54588" lon="6.83761">
        <ele>2667.6</ele>
        <time>2021-03-30T06:49:05Z</time>
      </trkpt>
      <trkpt lat="45.54588" lon="6.83762">
        <ele>2668.2</ele>
        <time>2021-03-30T06:49:06Z</time>
      </trkpt>
      <trkpt lat="45.54587" lon="6.83762">
        <ele>2668.3</ele>
        <time>2021-03-30T06:49:07Z</time>
      </trkpt>
      <trkpt lat="45.54587" lon="6.83763">
        <ele>2668.3</ele>
        <time>2021-03-30T06:49:08Z</time>
      </trkpt>
      <trkpt lat="45.54586" lon="6.83763">
        <ele>2668.4</ele>
        <time>2021-03-30T06:49:09Z</time>
      </trkpt>
      <trkpt lat="45.54585" lon="6.83764">
        <ele>2668.4</ele>
        <time>2021-03-30T06:49:10Z</time>
      </trkpt>
      <trkpt lat="45.54585" lon="6.83764">
        <ele>2668</ele>
        <time>2021-03-30T06:49:11Z</time>
      </trkpt>
      <trkpt lat="45.54584" lon="6.83765">
        <ele>2668</ele>
        <time>2021-03-30T06:49:12Z</time>
      </trkpt>
      <trkpt lat="45.54584" lon="6.83765">
        <ele>2668.2</ele>
        <time>2021-03-30T06:49:13Z</time>
      </trkpt>
      <trkpt lat="45.54583" lon="6.83766">
        <ele>2668.2</ele>
        <time>2021-03-30T06:49:14Z</time>
      </trkpt>
      <trkpt lat="45.54583" lon="6.83766">
        <ele>2669.4</ele>
        <time>2021-03-30T06:49:15Z</time>
      </trkpt>
      <trkpt lat="45.54582" lon="6.83766">
        <ele>2668.9</ele>
        <time>2021-03-30T06:49:16Z</time>
      </trkpt>
      <trkpt lat="45.54581" lon="6.83767">
        <ele>2669.1</ele>
        <time>2021-03-30T06:49:17Z</time>
      </trkpt>
      <trkpt lat="45.54581" lon="6.83767">
        <ele>2669.1</ele>
        <time>2021-03-30T06:49:18Z</time>
      </trkpt>
      <trkpt lat="45.5458" lon="6.83767">
        <ele>2669.2</ele>
        <time>2021-03-30T06:49:19Z</time>
      </trkpt>
      <trkpt lat="45.5458" lon="6.83768">
        <ele>2669.2</ele>
        <time>2021-03-30T06:49:20Z</time>
      </trkpt>
      <trkpt lat="45.54579" lon="6.83768">
        <ele>2668.7</ele>
        <time>2021-03-30T06:49:21Z</time>
      </trkpt>
      <trkpt lat="45.54578" lon="6.83768">
        <ele>2668.8</ele>
        <time>2021-03-30T06:49:22Z</time>
      </trkpt>
      <trkpt lat="45.54578" lon="6.83768">
        <ele>2668.8</ele>
        <time>2021-03-30T06:49:23Z</time>
      </trkpt>
      <trkpt lat="45.54577" lon="6.83768">
        <ele>2668.8</ele>
        <time>2021-03-30T06:49:24Z</time>
      </trkpt>
      <trkpt lat="45.54576" lon="6.83768">
        <ele>2668.8</ele>
        <time>2021-03-30T06:49:25Z</time>
      </trkpt>
      <trkpt lat="45.54576" lon="6.83768">
        <ele>2668.4</ele>
        <time>2021-03-30T06:49:26Z</time>
      </trkpt>
      <trkpt lat="45.54575" lon="6.83768">
        <ele>2668.4</ele>
        <time>2021-03-30T06:49:27Z</time>
      </trkpt>
      <trkpt lat="45.54575" lon="6.83768">
        <ele>2668.4</ele>
        <time>2021-03-30T06:49:28Z</time>
      </trkpt>
      <trkpt lat="45.54574" lon="6.83768">
        <ele>2668.4</ele>
        <time>2021-03-30T06:49:29Z</time>
      </trkpt>
      <trkpt lat="45.54574" lon="6.83768">
        <ele>2668.4</ele>
        <time>2021-03-30T06:49:30Z</time>
      </trkpt>
      <trkpt lat="45.54573" lon="6.83768">
        <ele>2668.1</ele>
        <time>2021-03-30T06:49:31Z</time>
      </trkpt>
      <trkpt lat="45.54572" lon="6.83768">
        <ele>2668.1</ele>
        <time>2021-03-30T06:49:32Z</time>
      </trkpt>
      <trkpt lat="45.54572" lon="6.83768">
        <ele>2668.1</ele>
        <time>2021-03-30T06:49:33Z</time>
      </trkpt>
      <trkpt lat="45.54571" lon="6.83768">
        <ele>2668.1</ele>
        <time>2021-03-30T06:49:34Z</time>
      </trkpt>
      <trkpt lat="45.54571" lon="6.83768">
        <ele>2668.1</ele>
        <time>2021-03-30T06:49:35Z</time>
      </trkpt>
      <trkpt lat="45.54571" lon="6.83768">
        <ele>2668.1</ele>
        <time>2021-03-30T06:49:36Z</time>
      </trkpt>
      <trkpt lat="45.5457" lon="6.83768">
        <ele>2667.8</ele>
        <time>2021-03-30T06:49:37Z</time>
      </trkpt>
      <trkpt lat="45.54569" lon="6.83768">
        <ele>2667.8</ele>
        <time>2021-03-30T06:49:38Z</time>
      </trkpt>
      <trkpt lat="45.54569" lon="6.83768">
        <ele>2667.8</ele>
        <time>2021-03-30T06:49:39Z</time>
      </trkpt>
      <trkpt lat="45.54568" lon="6.83769">
        <ele>2667.8</ele>
        <time>2021-03-30T06:49:40Z</time>
      </trkpt>
      <trkpt lat="45.54568" lon="6.83769">
        <ele>2667.9</ele>
        <time>2021-03-30T06:49:41Z</time>
      </trkpt>
      <trkpt lat="45.54567" lon="6.83769">
        <ele>2667.9</ele>
        <time>2021-03-30T06:49:42Z</time>
      </trkpt>
      <trkpt lat="45.54567" lon="6.83769">
        <ele>2667.5</ele>
        <time>2021-03-30T06:49:43Z</time>
      </trkpt>
      <trkpt lat="45.54566" lon="6.83769">
        <ele>2667.6</ele>
        <time>2021-03-30T06:49:44Z</time>
      </trkpt>
      <trkpt lat="45.54566" lon="6.83769">
        <ele>2667.6</ele>
        <time>2021-03-30T06:49:45Z</time>
      </trkpt>
      <trkpt lat="45.54565" lon="6.8377">
        <ele>2667.6</ele>
        <time>2021-03-30T06:49:46Z</time>
      </trkpt>
      <trkpt lat="45.54565" lon="6.83771">
        <ele>2669</ele>
        <time>2021-03-30T06:49:47Z</time>
      </trkpt>
      <trkpt lat="45.54564" lon="6.83772">
        <ele>2668.6</ele>
        <time>2021-03-30T06:49:48Z</time>
      </trkpt>
      <trkpt lat="45.54564" lon="6.83772">
        <ele>2668.7</ele>
        <time>2021-03-30T06:49:49Z</time>
      </trkpt>
      <trkpt lat="45.54563" lon="6.83773">
        <ele>2668.7</ele>
        <time>2021-03-30T06:49:50Z</time>
      </trkpt>
      <trkpt lat="45.54563" lon="6.83774">
        <ele>2668.7</ele>
        <time>2021-03-30T06:49:51Z</time>
      </trkpt>
      <trkpt lat="45.54562" lon="6.83775">
        <ele>2670.2</ele>
        <time>2021-03-30T06:49:52Z</time>
      </trkpt>
      <trkpt lat="45.54562" lon="6.83776">
        <ele>2670.2</ele>
        <time>2021-03-30T06:49:53Z</time>
      </trkpt>
      <trkpt lat="45.54561" lon="6.83776">
        <ele>2669.8</ele>
        <time>2021-03-30T06:49:54Z</time>
      </trkpt>
      <trkpt lat="45.54561" lon="6.83777">
        <ele>2669.9</ele>
        <time>2021-03-30T06:49:55Z</time>
      </trkpt>
      <trkpt lat="45.5456" lon="6.83778">
        <ele>2669.9</ele>
        <time>2021-03-30T06:49:56Z</time>
      </trkpt>
      <trkpt lat="45.5456" lon="6.83779">
        <ele>2669.9</ele>
        <time>2021-03-30T06:49:57Z</time>
      </trkpt>
      <trkpt lat="45.54559" lon="6.8378">
        <ele>2671.4</ele>
        <time>2021-03-30T06:49:58Z</time>
      </trkpt>
      <trkpt lat="45.54559" lon="6.8378">
        <ele>2671.4</ele>
        <time>2021-03-30T06:50:42Z</time>
      </trkpt>
      <trkpt lat="45.54558" lon="6.83781">
        <ele>2671.4</ele>
        <time>2021-03-30T06:50:43Z</time>
      </trkpt>
      <trkpt lat="45.54558" lon="6.83782">
        <ele>2671.1</ele>
        <time>2021-03-30T06:50:44Z</time>
      </trkpt>
      <trkpt lat="45.54557" lon="6.83783">
        <ele>2671.1</ele>
        <time>2021-03-30T06:50:45Z</time>
      </trkpt>
      <trkpt lat="45.54557" lon="6.83783">
        <ele>2672.6</ele>
        <time>2021-03-30T06:50:46Z</time>
      </trkpt>
      <trkpt lat="45.54556" lon="6.83784">
        <ele>2672.6</ele>
        <time>2021-03-30T06:50:47Z</time>
      </trkpt>
      <trkpt lat="45.54556" lon="6.83785">
        <ele>2672.6</ele>
        <time>2021-03-30T06:50:48Z</time>
      </trkpt>
      <trkpt lat="45.54555" lon="6.83786">
        <ele>2672.6</ele>
        <time>2021-03-30T06:50:49Z</time>
      </trkpt>
      <trkpt lat="45.54555" lon="6.83787">
        <ele>2672.2</ele>
        <time>2021-03-30T06:50:50Z</time>
      </trkpt>
      <trkpt lat="45.54555" lon="6.83788">
        <ele>2673.7</ele>
        <time>2021-03-30T06:50:51Z</time>
      </trkpt>
      <trkpt lat="45.54554" lon="6.83789">
        <ele>2673.7</ele>
        <time>2021-03-30T06:50:52Z</time>
      </trkpt>
      <trkpt lat="45.54554" lon="6.8379">
        <ele>2673.7</ele>
        <time>2021-03-30T06:50:53Z</time>
      </trkpt>
      <trkpt lat="45.54553" lon="6.83791">
        <ele>2673.7</ele>
        <time>2021-03-30T06:50:54Z</time>
      </trkpt>
      <trkpt lat="45.54553" lon="6.83792">
        <ele>2675</ele>
        <time>2021-03-30T06:50:55Z</time>
      </trkpt>
      <trkpt lat="45.54552" lon="6.83793">
        <ele>2674.7</ele>
        <time>2021-03-30T06:50:56Z</time>
      </trkpt>
      <trkpt lat="45.54552" lon="6.83794">
        <ele>2674.7</ele>
        <time>2021-03-30T06:50:57Z</time>
      </trkpt>
      <trkpt lat="45.54551" lon="6.83794">
        <ele>2674.7</ele>
        <time>2021-03-30T06:50:58Z</time>
      </trkpt>
      <trkpt lat="45.54551" lon="6.83795">
        <ele>2674.7</ele>
        <time>2021-03-30T06:50:59Z</time>
      </trkpt>
      <trkpt lat="45.54551" lon="6.83795">
        <ele>2674.7</ele>
        <time>2021-03-30T06:51:00Z</time>
      </trkpt>
      <trkpt lat="45.5455" lon="6.83795">
        <ele>2674.8</ele>
        <time>2021-03-30T06:51:01Z</time>
      </trkpt>
      <trkpt lat="45.5455" lon="6.83796">
        <ele>2674.8</ele>
        <time>2021-03-30T06:51:02Z</time>
      </trkpt>
      <trkpt lat="45.54549" lon="6.83796">
        <ele>2675.7</ele>
        <time>2021-03-30T06:51:03Z</time>
      </trkpt>
      <trkpt lat="45.54549" lon="6.83797">
        <ele>2675.7</ele>
        <time>2021-03-30T06:51:04Z</time>
      </trkpt>
      <trkpt lat="45.54548" lon="6.83798">
        <ele>2675.7</ele>
        <time>2021-03-30T06:51:05Z</time>
      </trkpt>
      <trkpt lat="45.54548" lon="6.83798">
        <ele>2675.7</ele>
        <time>2021-03-30T06:51:06Z</time>
      </trkpt>
      <trkpt lat="45.54547" lon="6.83799">
        <ele>2675.8</ele>
        <time>2021-03-30T06:51:07Z</time>
      </trkpt>
      <trkpt lat="45.54547" lon="6.838">
        <ele>2675.8</ele>
        <time>2021-03-30T06:51:08Z</time>
      </trkpt>
      <trkpt lat="45.54546" lon="6.838">
        <ele>2677</ele>
        <time>2021-03-30T06:51:09Z</time>
      </trkpt>
      <trkpt lat="45.54546" lon="6.83801">
        <ele>2676.7</ele>
        <time>2021-03-30T06:51:10Z</time>
      </trkpt>
      <trkpt lat="45.54546" lon="6.83802">
        <ele>2676.8</ele>
        <time>2021-03-30T06:51:11Z</time>
      </trkpt>
      <trkpt lat="45.54545" lon="6.83802">
        <ele>2676.8</ele>
        <time>2021-03-30T06:51:12Z</time>
      </trkpt>
      <trkpt lat="45.54545" lon="6.83803">
        <ele>2676.8</ele>
        <time>2021-03-30T06:51:13Z</time>
      </trkpt>
      <trkpt lat="45.54545" lon="6.83804">
        <ele>2676.8</ele>
        <time>2021-03-30T06:51:14Z</time>
      </trkpt>
      <trkpt lat="45.54544" lon="6.83805">
        <ele>2676.8</ele>
        <time>2021-03-30T06:51:15Z</time>
      </trkpt>
      <trkpt lat="45.54544" lon="6.83805">
        <ele>2678.1</ele>
        <time>2021-03-30T06:51:16Z</time>
      </trkpt>
      <trkpt lat="45.54544" lon="6.83806">
        <ele>2678.1</ele>
        <time>2021-03-30T06:51:17Z</time>
      </trkpt>
      <trkpt lat="45.54544" lon="6.83807">
        <ele>2678.1</ele>
        <time>2021-03-30T06:51:18Z</time>
      </trkpt>
      <trkpt lat="45.54543" lon="6.83807">
        <ele>2678.1</ele>
        <time>2021-03-30T06:51:19Z</time>
      </trkpt>
      <trkpt lat="45.54543" lon="6.83808">
        <ele>2677.8</ele>
        <time>2021-03-30T06:51:20Z</time>
      </trkpt>
      <trkpt lat="45.54543" lon="6.83809">
        <ele>2679.1</ele>
        <time>2021-03-30T06:51:21Z</time>
      </trkpt>
      <trkpt lat="45.54542" lon="6.8381">
        <ele>2679.1</ele>
        <time>2021-03-30T06:51:22Z</time>
      </trkpt>
      <trkpt lat="45.54542" lon="6.83811">
        <ele>2679.2</ele>
        <time>2021-03-30T06:51:23Z</time>
      </trkpt>
      <trkpt lat="45.54541" lon="6.83811">
        <ele>2679.2</ele>
        <time>2021-03-30T06:51:24Z</time>
      </trkpt>
      <trkpt lat="45.54541" lon="6.83812">
        <ele>2679.2</ele>
        <time>2021-03-30T06:51:25Z</time>
      </trkpt>
      <trkpt lat="45.54541" lon="6.83813">
        <ele>2679.2</ele>
        <time>2021-03-30T06:51:26Z</time>
      </trkpt>
      <trkpt lat="45.54541" lon="6.83814">
        <ele>2680.5</ele>
        <time>2021-03-30T06:51:27Z</time>
      </trkpt>
      <trkpt lat="45.5454" lon="6.83815">
        <ele>2680.5</ele>
        <time>2021-03-30T06:51:28Z</time>
      </trkpt>
      <trkpt lat="45.5454" lon="6.83815">
        <ele>2680.3</ele>
        <time>2021-03-30T06:51:29Z</time>
      </trkpt>
      <trkpt lat="45.5454" lon="6.83816">
        <ele>2680.3</ele>
        <time>2021-03-30T06:51:30Z</time>
      </trkpt>
      <trkpt lat="45.5454" lon="6.83817">
        <ele>2680.3</ele>
        <time>2021-03-30T06:51:31Z</time>
      </trkpt>
      <trkpt lat="45.54539" lon="6.83818">
        <ele>2681.6</ele>
        <time>2021-03-30T06:51:32Z</time>
      </trkpt>
      <trkpt lat="45.54539" lon="6.83818">
        <ele>2681.6</ele>
        <time>2021-03-30T06:51:33Z</time>
      </trkpt>
      <trkpt lat="45.54539" lon="6.83819">
        <ele>2681.7</ele>
        <time>2021-03-30T06:51:34Z</time>
      </trkpt>
      <trkpt lat="45.54538" lon="6.8382">
        <ele>2681.7</ele>
        <time>2021-03-30T06:51:35Z</time>
      </trkpt>
      <trkpt lat="45.54538" lon="6.83821">
        <ele>2681.7</ele>
        <time>2021-03-30T06:51:36Z</time>
      </trkpt>
      <trkpt lat="45.54538" lon="6.83821">
        <ele>2681.7</ele>
        <time>2021-03-30T06:51:37Z</time>
      </trkpt>
      <trkpt lat="45.54537" lon="6.83822">
        <ele>2682.8</ele>
        <time>2021-03-30T06:51:38Z</time>
      </trkpt>
      <trkpt lat="45.54537" lon="6.83823">
        <ele>2682.8</ele>
        <time>2021-03-30T06:51:39Z</time>
      </trkpt>
      <trkpt lat="45.54537" lon="6.83824">
        <ele>2682.8</ele>
        <time>2021-03-30T06:51:40Z</time>
      </trkpt>
      <trkpt lat="45.54536" lon="6.83824">
        <ele>2682.8</ele>
        <time>2021-03-30T06:51:41Z</time>
      </trkpt>
      <trkpt lat="45.54536" lon="6.83825">
        <ele>2682.8</ele>
        <time>2021-03-30T06:51:42Z</time>
      </trkpt>
      <trkpt lat="45.54536" lon="6.83826">
        <ele>2682.9</ele>
        <time>2021-03-30T06:51:43Z</time>
      </trkpt>
      <trkpt lat="45.54536" lon="6.83826">
        <ele>2684.2</ele>
        <time>2021-03-30T06:51:44Z</time>
      </trkpt>
      <trkpt lat="45.54535" lon="6.83827">
        <ele>2684.3</ele>
        <time>2021-03-30T06:51:45Z</time>
      </trkpt>
      <trkpt lat="45.54535" lon="6.83828">
        <ele>2684.3</ele>
        <time>2021-03-30T06:51:46Z</time>
      </trkpt>
      <trkpt lat="45.54535" lon="6.83829">
        <ele>2684.3</ele>
        <time>2021-03-30T06:51:47Z</time>
      </trkpt>
      <trkpt lat="45.54535" lon="6.8383">
        <ele>2684.3</ele>
        <time>2021-03-30T06:51:48Z</time>
      </trkpt>
      <trkpt lat="45.54534" lon="6.83831">
        <ele>2685.4</ele>
        <time>2021-03-30T06:51:49Z</time>
      </trkpt>
      <trkpt lat="45.54534" lon="6.83831">
        <ele>2685.4</ele>
        <time>2021-03-30T06:51:50Z</time>
      </trkpt>
      <trkpt lat="45.54534" lon="6.83832">
        <ele>2685.4</ele>
        <time>2021-03-30T06:51:51Z</time>
      </trkpt>
      <trkpt lat="45.54533" lon="6.83832">
        <ele>2685.4</ele>
        <time>2021-03-30T06:51:52Z</time>
      </trkpt>
      <trkpt lat="45.54533" lon="6.83833">
        <ele>2685.5</ele>
        <time>2021-03-30T06:51:53Z</time>
      </trkpt>
      <trkpt lat="45.54533" lon="6.83833">
        <ele>2685.5</ele>
        <time>2021-03-30T06:51:54Z</time>
      </trkpt>
      <trkpt lat="45.54533" lon="6.83833">
        <ele>2685.5</ele>
        <time>2021-03-30T06:51:55Z</time>
      </trkpt>
      <trkpt lat="45.54532" lon="6.83834">
        <ele>2685.5</ele>
        <time>2021-03-30T06:51:56Z</time>
      </trkpt>
      <trkpt lat="45.54532" lon="6.83834">
        <ele>2685.5</ele>
        <time>2021-03-30T06:51:57Z</time>
      </trkpt>
      <trkpt lat="45.54532" lon="6.83835">
        <ele>2686.9</ele>
        <time>2021-03-30T06:51:58Z</time>
      </trkpt>
      <trkpt lat="45.54531" lon="6.83836">
        <ele>2686.6</ele>
        <time>2021-03-30T06:51:59Z</time>
      </trkpt>
      <trkpt lat="45.54531" lon="6.83836">
        <ele>2686.6</ele>
        <time>2021-03-30T06:52:00Z</time>
      </trkpt>
      <trkpt lat="45.54531" lon="6.83837">
        <ele>2686.6</ele>
        <time>2021-03-30T06:52:01Z</time>
      </trkpt>
      <trkpt lat="45.54531" lon="6.83838">
        <ele>2686.6</ele>
        <time>2021-03-30T06:52:02Z</time>
      </trkpt>
      <trkpt lat="45.5453" lon="6.83838">
        <ele>2686.7</ele>
        <time>2021-03-30T06:52:03Z</time>
      </trkpt>
      <trkpt lat="45.5453" lon="6.83839">
        <ele>2688</ele>
        <time>2021-03-30T06:52:04Z</time>
      </trkpt>
      <trkpt lat="45.5453" lon="6.8384">
        <ele>2688</ele>
        <time>2021-03-30T06:52:05Z</time>
      </trkpt>
      <trkpt lat="45.5453" lon="6.83841">
        <ele>2688</ele>
        <time>2021-03-30T06:52:06Z</time>
      </trkpt>
      <trkpt lat="45.54529" lon="6.83842">
        <ele>2688</ele>
        <time>2021-03-30T06:52:07Z</time>
      </trkpt>
      <trkpt lat="45.54529" lon="6.83842">
        <ele>2688</ele>
        <time>2021-03-30T06:52:08Z</time>
      </trkpt>
      <trkpt lat="45.54529" lon="6.83843">
        <ele>2688.1</ele>
        <time>2021-03-30T06:52:09Z</time>
      </trkpt>
      <trkpt lat="45.54529" lon="6.83843">
        <ele>2689.3</ele>
        <time>2021-03-30T06:52:10Z</time>
      </trkpt>
      <trkpt lat="45.54529" lon="6.83844">
        <ele>2689.4</ele>
        <time>2021-03-30T06:52:11Z</time>
      </trkpt>
      <trkpt lat="45.54529" lon="6.83845">
        <ele>2689.4</ele>
        <time>2021-03-30T06:52:12Z</time>
      </trkpt>
      <trkpt lat="45.54529" lon="6.83845">
        <ele>2689.4</ele>
        <time>2021-03-30T06:52:13Z</time>
      </trkpt>
      <trkpt lat="45.54528" lon="6.83846">
        <ele>2689.4</ele>
        <time>2021-03-30T06:52:14Z</time>
      </trkpt>
      <trkpt lat="45.54528" lon="6.83846">
        <ele>2689.1</ele>
        <time>2021-03-30T06:52:15Z</time>
      </trkpt>
      <trkpt lat="45.54528" lon="6.83847">
        <ele>2689.1</ele>
        <time>2021-03-30T06:52:16Z</time>
      </trkpt>
      <trkpt lat="45.54527" lon="6.83847">
        <ele>2689.2</ele>
        <time>2021-03-30T06:52:17Z</time>
      </trkpt>
      <trkpt lat="45.54527" lon="6.83848">
        <ele>2690.4</ele>
        <time>2021-03-30T06:52:18Z</time>
      </trkpt>
      <trkpt lat="45.54527" lon="6.83848">
        <ele>2690.5</ele>
        <time>2021-03-30T06:52:19Z</time>
      </trkpt>
      <trkpt lat="45.54526" lon="6.83849">
        <ele>2690.5</ele>
        <time>2021-03-30T06:52:20Z</time>
      </trkpt>
      <trkpt lat="45.54526" lon="6.83849">
        <ele>2690.5</ele>
        <time>2021-03-30T06:52:21Z</time>
      </trkpt>
      <trkpt lat="45.54526" lon="6.8385">
        <ele>2690.5</ele>
        <time>2021-03-30T06:52:22Z</time>
      </trkpt>
      <trkpt lat="45.54525" lon="6.83851">
        <ele>2690.2</ele>
        <time>2021-03-30T06:52:23Z</time>
      </trkpt>
      <trkpt lat="45.54525" lon="6.83851">
        <ele>2690.3</ele>
        <time>2021-03-30T06:52:24Z</time>
      </trkpt>
      <trkpt lat="45.54525" lon="6.83852">
        <ele>2690.3</ele>
        <time>2021-03-30T06:52:25Z</time>
      </trkpt>
      <trkpt lat="45.54524" lon="6.83852">
        <ele>2691.6</ele>
        <time>2021-03-30T06:52:26Z</time>
      </trkpt>
      <trkpt lat="45.54524" lon="6.83853">
        <ele>2691.6</ele>
        <time>2021-03-30T06:52:27Z</time>
      </trkpt>
      <trkpt lat="45.54524" lon="6.83854">
        <ele>2691.6</ele>
        <time>2021-03-30T06:52:28Z</time>
      </trkpt>
      <trkpt lat="45.54523" lon="6.83854">
        <ele>2691.7</ele>
        <time>2021-03-30T06:52:29Z</time>
      </trkpt>
      <trkpt lat="45.54523" lon="6.83854">
        <ele>2691.7</ele>
        <time>2021-03-30T06:52:30Z</time>
      </trkpt>
      <trkpt lat="45.54523" lon="6.83855">
        <ele>2691.7</ele>
        <time>2021-03-30T06:52:31Z</time>
      </trkpt>
      <trkpt lat="45.54522" lon="6.83855">
        <ele>2691.5</ele>
        <time>2021-03-30T06:52:32Z</time>
      </trkpt>
      <trkpt lat="45.54522" lon="6.83856">
        <ele>2691.5</ele>
        <time>2021-03-30T06:52:33Z</time>
      </trkpt>
      <trkpt lat="45.54522" lon="6.83856">
        <ele>2692.9</ele>
        <time>2021-03-30T06:52:34Z</time>
      </trkpt>
      <trkpt lat="45.54521" lon="6.83857">
        <ele>2692.9</ele>
        <time>2021-03-30T06:52:35Z</time>
      </trkpt>
      <trkpt lat="45.54521" lon="6.83858">
        <ele>2692.9</ele>
        <time>2021-03-30T06:52:36Z</time>
      </trkpt>
      <trkpt lat="45.54521" lon="6.83858">
        <ele>2692.9</ele>
        <time>2021-03-30T06:52:37Z</time>
      </trkpt>
      <trkpt lat="45.5452" lon="6.83859">
        <ele>2693</ele>
        <time>2021-03-30T06:52:38Z</time>
      </trkpt>
      <trkpt lat="45.5452" lon="6.83859">
        <ele>2693</ele>
        <time>2021-03-30T06:52:39Z</time>
      </trkpt>
      <trkpt lat="45.5452" lon="6.83859">
        <ele>2693</ele>
        <time>2021-03-30T06:52:40Z</time>
      </trkpt>
      <trkpt lat="45.54519" lon="6.8386">
        <ele>2693</ele>
        <time>2021-03-30T06:52:41Z</time>
      </trkpt>
      <trkpt lat="45.54519" lon="6.83861">
        <ele>2694.3</ele>
        <time>2021-03-30T06:52:42Z</time>
      </trkpt>
      <trkpt lat="45.54519" lon="6.83861">
        <ele>2694.3</ele>
        <time>2021-03-30T06:52:43Z</time>
      </trkpt>
      <trkpt lat="45.54519" lon="6.83862">
        <ele>2694.3</ele>
        <time>2021-03-30T06:52:44Z</time>
      </trkpt>
      <trkpt lat="45.54518" lon="6.83862">
        <ele>2694.3</ele>
        <time>2021-03-30T06:52:45Z</time>
      </trkpt>
      <trkpt lat="45.54518" lon="6.83863">
        <ele>2694.3</ele>
        <time>2021-03-30T06:52:46Z</time>
      </trkpt>
      <trkpt lat="45.54518" lon="6.83863">
        <ele>2694.4</ele>
        <time>2021-03-30T06:52:47Z</time>
      </trkpt>
      <trkpt lat="45.54517" lon="6.83864">
        <ele>2694.4</ele>
        <time>2021-03-30T06:52:48Z</time>
      </trkpt>
      <trkpt lat="45.54517" lon="6.83864">
        <ele>2694.4</ele>
        <time>2021-03-30T06:52:49Z</time>
      </trkpt>
      <trkpt lat="45.54517" lon="6.83865">
        <ele>2696</ele>
        <time>2021-03-30T06:52:50Z</time>
      </trkpt>
      <trkpt lat="45.54516" lon="6.83865">
        <ele>2696</ele>
        <time>2021-03-30T06:52:51Z</time>
      </trkpt>
      <trkpt lat="45.54516" lon="6.83866">
        <ele>2695.8</ele>
        <time>2021-03-30T06:52:52Z</time>
      </trkpt>
      <trkpt lat="45.54516" lon="6.83867">
        <ele>2695.8</ele>
        <time>2021-03-30T06:52:53Z</time>
      </trkpt>
      <trkpt lat="45.54515" lon="6.83868">
        <ele>2695.8</ele>
        <time>2021-03-30T06:52:54Z</time>
      </trkpt>
      <trkpt lat="45.54515" lon="6.83869">
        <ele>2695.8</ele>
        <time>2021-03-30T06:52:55Z</time>
      </trkpt>
      <trkpt lat="45.54515" lon="6.83869">
        <ele>2697.4</ele>
        <time>2021-03-30T06:52:56Z</time>
      </trkpt>
      <trkpt lat="45.54514" lon="6.8387">
        <ele>2697.4</ele>
        <time>2021-03-30T06:52:57Z</time>
      </trkpt>
      <trkpt lat="45.54514" lon="6.8387">
        <ele>2697.5</ele>
        <time>2021-03-30T06:52:58Z</time>
      </trkpt>
      <trkpt lat="45.54513" lon="6.83871">
        <ele>2697.3</ele>
        <time>2021-03-30T06:52:59Z</time>
      </trkpt>
      <trkpt lat="45.54513" lon="6.83872">
        <ele>2697.3</ele>
        <time>2021-03-30T06:53:00Z</time>
      </trkpt>
      <trkpt lat="45.54513" lon="6.83872">
        <ele>2697.3</ele>
        <time>2021-03-30T06:53:01Z</time>
      </trkpt>
      <trkpt lat="45.54512" lon="6.83873">
        <ele>2697.3</ele>
        <time>2021-03-30T06:53:02Z</time>
      </trkpt>
      <trkpt lat="45.54512" lon="6.83873">
        <ele>2697.4</ele>
        <time>2021-03-30T06:53:03Z</time>
      </trkpt>
      <trkpt lat="45.54511" lon="6.83873">
        <ele>2698.9</ele>
        <time>2021-03-30T06:53:04Z</time>
      </trkpt>
      <trkpt lat="45.54511" lon="6.83874">
        <ele>2699</ele>
        <time>2021-03-30T06:53:05Z</time>
      </trkpt>
      <trkpt lat="45.54511" lon="6.83874">
        <ele>2699</ele>
        <time>2021-03-30T06:53:06Z</time>
      </trkpt>
      <trkpt lat="45.54511" lon="6.83875">
        <ele>2699</ele>
        <time>2021-03-30T06:53:07Z</time>
      </trkpt>
      <trkpt lat="45.5451" lon="6.83876">
        <ele>2698.8</ele>
        <time>2021-03-30T06:53:08Z</time>
      </trkpt>
      <trkpt lat="45.5451" lon="6.83876">
        <ele>2698.9</ele>
        <time>2021-03-30T06:53:09Z</time>
      </trkpt>
      <trkpt lat="45.5451" lon="6.83877">
        <ele>2698.9</ele>
        <time>2021-03-30T06:53:10Z</time>
      </trkpt>
      <trkpt lat="45.54509" lon="6.83878">
        <ele>2700.5</ele>
        <time>2021-03-30T06:53:11Z</time>
      </trkpt>
      <trkpt lat="45.54509" lon="6.83878">
        <ele>2700.5</ele>
        <time>2021-03-30T06:53:12Z</time>
      </trkpt>
      <trkpt lat="45.54508" lon="6.83879">
        <ele>2700.5</ele>
        <time>2021-03-30T06:53:13Z</time>
      </trkpt>
      <trkpt lat="45.54508" lon="6.8388">
        <ele>2700.5</ele>
        <time>2021-03-30T06:53:14Z</time>
      </trkpt>
      <trkpt lat="45.54508" lon="6.8388">
        <ele>2700.5</ele>
        <time>2021-03-30T06:53:15Z</time>
      </trkpt>
      <trkpt lat="45.54507" lon="6.8388">
        <ele>2700.4</ele>
        <time>2021-03-30T06:53:16Z</time>
      </trkpt>
      <trkpt lat="45.54507" lon="6.83881">
        <ele>2700.4</ele>
        <time>2021-03-30T06:53:17Z</time>
      </trkpt>
      <trkpt lat="45.54506" lon="6.83881">
        <ele>2700.4</ele>
        <time>2021-03-30T06:53:18Z</time>
      </trkpt>
      <trkpt lat="45.54506" lon="6.83881">
        <ele>2700.4</ele>
        <time>2021-03-30T06:53:19Z</time>
      </trkpt>
      <trkpt lat="45.54505" lon="6.83881">
        <ele>2700.5</ele>
        <time>2021-03-30T06:53:20Z</time>
      </trkpt>
      <trkpt lat="45.54505" lon="6.83882">
        <ele>2700.5</ele>
        <time>2021-03-30T06:53:21Z</time>
      </trkpt>
      <trkpt lat="45.54505" lon="6.83882">
        <ele>2702</ele>
        <time>2021-03-30T06:53:22Z</time>
      </trkpt>
      <trkpt lat="45.54504" lon="6.83882">
        <ele>2702</ele>
        <time>2021-03-30T06:53:23Z</time>
      </trkpt>
      <trkpt lat="45.54504" lon="6.83882">
        <ele>2701.9</ele>
        <time>2021-03-30T06:53:24Z</time>
      </trkpt>
      <trkpt lat="45.54503" lon="6.83883">
        <ele>2701.9</ele>
        <time>2021-03-30T06:53:25Z</time>
      </trkpt>
      <trkpt lat="45.54503" lon="6.83883">
        <ele>2702</ele>
        <time>2021-03-30T06:53:26Z</time>
      </trkpt>
      <trkpt lat="45.54503" lon="6.83883">
        <ele>2702</ele>
        <time>2021-03-30T06:53:27Z</time>
      </trkpt>
      <trkpt lat="45.54502" lon="6.83884">
        <ele>2702</ele>
        <time>2021-03-30T06:53:28Z</time>
      </trkpt>
      <trkpt lat="45.54502" lon="6.83884">
        <ele>2702</ele>
        <time>2021-03-30T06:53:29Z</time>
      </trkpt>
      <trkpt lat="45.54502" lon="6.83885">
        <ele>2702</ele>
        <time>2021-03-30T06:53:30Z</time>
      </trkpt>
      <trkpt lat="45.54501" lon="6.83885">
        <ele>2702</ele>
        <time>2021-03-30T06:53:31Z</time>
      </trkpt>
      <trkpt lat="45.54501" lon="6.83886">
        <ele>2702</ele>
        <time>2021-03-30T06:53:32Z</time>
      </trkpt>
      <trkpt lat="45.54501" lon="6.83886">
        <ele>2703.5</ele>
        <time>2021-03-30T06:53:33Z</time>
      </trkpt>
      <trkpt lat="45.545" lon="6.83887">
        <ele>2703.5</ele>
        <time>2021-03-30T06:53:34Z</time>
      </trkpt>
      <trkpt lat="45.545" lon="6.83887">
        <ele>2703.5</ele>
        <time>2021-03-30T06:53:35Z</time>
      </trkpt>
      <trkpt lat="45.54499" lon="6.83887">
        <ele>2703.5</ele>
        <time>2021-03-30T06:53:36Z</time>
      </trkpt>
      <trkpt lat="45.54499" lon="6.83888">
        <ele>2703.6</ele>
        <time>2021-03-30T06:53:37Z</time>
      </trkpt>
      <trkpt lat="45.54499" lon="6.83888">
        <ele>2703.6</ele>
        <time>2021-03-30T06:53:38Z</time>
      </trkpt>
      <trkpt lat="45.54498" lon="6.83889">
        <ele>2703.6</ele>
        <time>2021-03-30T06:53:39Z</time>
      </trkpt>
      <trkpt lat="45.54498" lon="6.83889">
        <ele>2703.5</ele>
        <time>2021-03-30T06:53:40Z</time>
      </trkpt>
      <trkpt lat="45.54498" lon="6.8389">
        <ele>2703.6</ele>
        <time>2021-03-30T06:53:41Z</time>
      </trkpt>
      <trkpt lat="45.54497" lon="6.83891">
        <ele>2705</ele>
        <time>2021-03-30T06:53:42Z</time>
      </trkpt>
      <trkpt lat="45.54497" lon="6.83891">
        <ele>2705.1</ele>
        <time>2021-03-30T06:53:43Z</time>
      </trkpt>
      <trkpt lat="45.54497" lon="6.83892">
        <ele>2705.1</ele>
        <time>2021-03-30T06:53:44Z</time>
      </trkpt>
      <trkpt lat="45.54496" lon="6.83892">
        <ele>2705.1</ele>
        <time>2021-03-30T06:53:45Z</time>
      </trkpt>
      <trkpt lat="45.54496" lon="6.83893">
        <ele>2705.1</ele>
        <time>2021-03-30T06:53:46Z</time>
      </trkpt>
      <trkpt lat="45.54496" lon="6.83894">
        <ele>2705.1</ele>
        <time>2021-03-30T06:53:47Z</time>
      </trkpt>
      <trkpt lat="45.54495" lon="6.83894">
        <ele>2705.2</ele>
        <time>2021-03-30T06:53:48Z</time>
      </trkpt>
      <trkpt lat="45.54495" lon="6.83895">
        <ele>2706.6</ele>
        <time>2021-03-30T06:53:49Z</time>
      </trkpt>
      <trkpt lat="45.54495" lon="6.83895">
        <ele>2706.6</ele>
        <time>2021-03-30T06:53:50Z</time>
      </trkpt>
      <trkpt lat="45.54494" lon="6.83896">
        <ele>2706.6</ele>
        <time>2021-03-30T06:53:51Z</time>
      </trkpt>
      <trkpt lat="45.54494" lon="6.83897">
        <ele>2706.6</ele>
        <time>2021-03-30T06:53:52Z</time>
      </trkpt>
      <trkpt lat="45.54494" lon="6.83897">
        <ele>2706.7</ele>
        <time>2021-03-30T06:53:53Z</time>
      </trkpt>
      <trkpt lat="45.54494" lon="6.83897">
        <ele>2706.7</ele>
        <time>2021-03-30T06:53:54Z</time>
      </trkpt>
      <trkpt lat="45.54494" lon="6.83898">
        <ele>2706.7</ele>
        <time>2021-03-30T06:53:55Z</time>
      </trkpt>
      <trkpt lat="45.54493" lon="6.83899">
        <ele>2706.7</ele>
        <time>2021-03-30T06:53:56Z</time>
      </trkpt>
      <trkpt lat="45.54493" lon="6.83899">
        <ele>2708.2</ele>
        <time>2021-03-30T06:53:57Z</time>
      </trkpt>
      <trkpt lat="45.54493" lon="6.839">
        <ele>2708.2</ele>
        <time>2021-03-30T06:53:58Z</time>
      </trkpt>
      <trkpt lat="45.54493" lon="6.839">
        <ele>2708.3</ele>
        <time>2021-03-30T06:53:59Z</time>
      </trkpt>
      <trkpt lat="45.54493" lon="6.83901">
        <ele>2708.3</ele>
        <time>2021-03-30T06:54:00Z</time>
      </trkpt>
      <trkpt lat="45.54493" lon="6.83902">
        <ele>2708.3</ele>
        <time>2021-03-30T06:54:01Z</time>
      </trkpt>
      <trkpt lat="45.54492" lon="6.83903">
        <ele>2708.3</ele>
        <time>2021-03-30T06:54:02Z</time>
      </trkpt>
      <trkpt lat="45.54492" lon="6.83903">
        <ele>2708.3</ele>
        <time>2021-03-30T06:54:03Z</time>
      </trkpt>
      <trkpt lat="45.54492" lon="6.83904">
        <ele>2709.9</ele>
        <time>2021-03-30T06:54:04Z</time>
      </trkpt>
      <trkpt lat="45.54492" lon="6.83904">
        <ele>2709.9</ele>
        <time>2021-03-30T06:54:05Z</time>
      </trkpt>
      <trkpt lat="45.54492" lon="6.83905">
        <ele>2709.9</ele>
        <time>2021-03-30T06:54:06Z</time>
      </trkpt>
      <trkpt lat="45.54491" lon="6.83905">
        <ele>2709.9</ele>
        <time>2021-03-30T06:54:07Z</time>
      </trkpt>
      <trkpt lat="45.54491" lon="6.83906">
        <ele>2709.9</ele>
        <time>2021-03-30T06:54:08Z</time>
      </trkpt>
      <trkpt lat="45.54491" lon="6.83907">
        <ele>2709.9</ele>
        <time>2021-03-30T06:54:09Z</time>
      </trkpt>
      <trkpt lat="45.54491" lon="6.83907">
        <ele>2710</ele>
        <time>2021-03-30T06:54:10Z</time>
      </trkpt>
      <trkpt lat="45.54491" lon="6.83908">
        <ele>2711.6</ele>
        <time>2021-03-30T06:54:11Z</time>
      </trkpt>
      <trkpt lat="45.5449" lon="6.83909">
        <ele>2711.6</ele>
        <time>2021-03-30T06:54:12Z</time>
      </trkpt>
      <trkpt lat="45.5449" lon="6.83909">
        <ele>2711.7</ele>
        <time>2021-03-30T06:54:13Z</time>
      </trkpt>
      <trkpt lat="45.5449" lon="6.8391">
        <ele>2711.7</ele>
        <time>2021-03-30T06:54:14Z</time>
      </trkpt>
      <trkpt lat="45.54489" lon="6.8391">
        <ele>2711.7</ele>
        <time>2021-03-30T06:54:15Z</time>
      </trkpt>
      <trkpt lat="45.54489" lon="6.83911">
        <ele>2711.7</ele>
        <time>2021-03-30T06:54:16Z</time>
      </trkpt>
      <trkpt lat="45.54489" lon="6.83912">
        <ele>2711.7</ele>
        <time>2021-03-30T06:54:17Z</time>
      </trkpt>
      <trkpt lat="45.54488" lon="6.83912">
        <ele>2713.5</ele>
        <time>2021-03-30T06:54:18Z</time>
      </trkpt>
      <trkpt lat="45.54488" lon="6.83913">
        <ele>2713.5</ele>
        <time>2021-03-30T06:54:19Z</time>
      </trkpt>
      <trkpt lat="45.54487" lon="6.83913">
        <ele>2713.5</ele>
        <time>2021-03-30T06:54:20Z</time>
      </trkpt>
      <trkpt lat="45.54487" lon="6.83914">
        <ele>2713.5</ele>
        <time>2021-03-30T06:54:21Z</time>
      </trkpt>
      <trkpt lat="45.54486" lon="6.83914">
        <ele>2713.6</ele>
        <time>2021-03-30T06:54:22Z</time>
      </trkpt>
      <trkpt lat="45.54486" lon="6.83915">
        <ele>2713.6</ele>
        <time>2021-03-30T06:54:23Z</time>
      </trkpt>
      <trkpt lat="45.54485" lon="6.83915">
        <ele>2713.6</ele>
        <time>2021-03-30T06:54:24Z</time>
      </trkpt>
      <trkpt lat="45.54484" lon="6.83915">
        <ele>2713.6</ele>
        <time>2021-03-30T06:54:25Z</time>
      </trkpt>
      <trkpt lat="45.54484" lon="6.83915">
        <ele>2713.6</ele>
        <time>2021-03-30T06:54:26Z</time>
      </trkpt>
      <trkpt lat="45.54484" lon="6.83915">
        <ele>2713.6</ele>
        <time>2021-03-30T06:54:27Z</time>
      </trkpt>
      <trkpt lat="45.54483" lon="6.83915">
        <ele>2713.7</ele>
        <time>2021-03-30T06:54:28Z</time>
      </trkpt>
      <trkpt lat="45.54483" lon="6.83916">
        <ele>2713.8</ele>
        <time>2021-03-30T06:54:29Z</time>
      </trkpt>
      <trkpt lat="45.54483" lon="6.83916">
        <ele>2713.8</ele>
        <time>2021-03-30T06:54:30Z</time>
      </trkpt>
      <trkpt lat="45.54483" lon="6.83916">
        <ele>2715.6</ele>
        <time>2021-03-30T06:54:31Z</time>
      </trkpt>
      <trkpt lat="45.54482" lon="6.83917">
        <ele>2715.6</ele>
        <time>2021-03-30T06:54:32Z</time>
      </trkpt>
      <trkpt lat="45.54482" lon="6.83917">
        <ele>2715.6</ele>
        <time>2021-03-30T06:54:33Z</time>
      </trkpt>
      <trkpt lat="45.54482" lon="6.83917">
        <ele>2715.6</ele>
        <time>2021-03-30T06:54:34Z</time>
      </trkpt>
      <trkpt lat="45.54481" lon="6.83918">
        <ele>2715.6</ele>
        <time>2021-03-30T06:54:35Z</time>
      </trkpt>
      <trkpt lat="45.54481" lon="6.83918">
        <ele>2715.7</ele>
        <time>2021-03-30T06:54:36Z</time>
      </trkpt>
      <trkpt lat="45.5448" lon="6.83919">
        <ele>2715.8</ele>
        <time>2021-03-30T06:54:37Z</time>
      </trkpt>
      <trkpt lat="45.54479" lon="6.83921">
        <ele>2717.5</ele>
        <time>2021-03-30T06:54:38Z</time>
      </trkpt>
      <trkpt lat="45.54477" lon="6.83922">
        <ele>2717.5</ele>
        <time>2021-03-30T06:54:39Z</time>
      </trkpt>
      <trkpt lat="45.54476" lon="6.83924">
        <ele>2717.7</ele>
        <time>2021-03-30T06:54:40Z</time>
      </trkpt>
      <trkpt lat="45.54475" lon="6.83925">
        <ele>2719.4</ele>
        <time>2021-03-30T06:54:41Z</time>
      </trkpt>
      <trkpt lat="45.54474" lon="6.83926">
        <ele>2719.6</ele>
        <time>2021-03-30T06:54:42Z</time>
      </trkpt>
      <trkpt lat="45.54473" lon="6.83928">
        <ele>2719.6</ele>
        <time>2021-03-30T06:54:43Z</time>
      </trkpt>
      <trkpt lat="45.54471" lon="6.83929">
        <ele>2721.2</ele>
        <time>2021-03-30T06:54:44Z</time>
      </trkpt>
      <trkpt lat="45.5447" lon="6.83931">
        <ele>2721.5</ele>
        <time>2021-03-30T06:55:14Z</time>
      </trkpt>
      <trkpt lat="45.54469" lon="6.83932">
        <ele>2721.5</ele>
        <time>2021-03-30T06:55:15Z</time>
      </trkpt>
      <trkpt lat="45.54468" lon="6.83933">
        <ele>2723.3</ele>
        <time>2021-03-30T06:55:16Z</time>
      </trkpt>
      <trkpt lat="45.54467" lon="6.83935">
        <ele>2723.3</ele>
        <time>2021-03-30T06:55:17Z</time>
      </trkpt>
      <trkpt lat="45.54466" lon="6.83935">
        <ele>2723.3</ele>
        <time>2021-03-30T06:55:18Z</time>
      </trkpt>
      <trkpt lat="45.54466" lon="6.83936">
        <ele>2723.3</ele>
        <time>2021-03-30T06:55:19Z</time>
      </trkpt>
      <trkpt lat="45.54465" lon="6.83936">
        <ele>2723.4</ele>
        <time>2021-03-30T06:55:20Z</time>
      </trkpt>
      <trkpt lat="45.54465" lon="6.83936">
        <ele>2723.7</ele>
        <time>2021-03-30T06:55:21Z</time>
      </trkpt>
      <trkpt lat="45.54464" lon="6.83937">
        <ele>2723.7</ele>
        <time>2021-03-30T06:55:22Z</time>
      </trkpt>
      <trkpt lat="45.54464" lon="6.83937">
        <ele>2723.7</ele>
        <time>2021-03-30T06:55:23Z</time>
      </trkpt>
      <trkpt lat="45.54463" lon="6.83937">
        <ele>2723.7</ele>
        <time>2021-03-30T06:55:24Z</time>
      </trkpt>
      <trkpt lat="45.54462" lon="6.83937">
        <ele>2723.7</ele>
        <time>2021-03-30T06:55:25Z</time>
      </trkpt>
      <trkpt lat="45.54462" lon="6.83937">
        <ele>2723.8</ele>
        <time>2021-03-30T06:55:26Z</time>
      </trkpt>
      <trkpt lat="45.54462" lon="6.83937">
        <ele>2723.8</ele>
        <time>2021-03-30T06:55:27Z</time>
      </trkpt>
      <trkpt lat="45.54462" lon="6.83937">
        <ele>2723.8</ele>
        <time>2021-03-30T06:55:28Z</time>
      </trkpt>
      <trkpt lat="45.54462" lon="6.83937">
        <ele>2723.8</ele>
        <time>2021-03-30T06:55:29Z</time>
      </trkpt>
      <trkpt lat="45.54462" lon="6.83935">
        <ele>2724.2</ele>
        <time>2021-03-30T06:55:30Z</time>
      </trkpt>
      <trkpt lat="45.54462" lon="6.83935">
        <ele>2724.2</ele>
        <time>2021-03-30T06:55:31Z</time>
      </trkpt>
      <trkpt lat="45.54462" lon="6.83934">
        <ele>2724.2</ele>
        <time>2021-03-30T06:55:32Z</time>
      </trkpt>
      <trkpt lat="45.54464" lon="6.83934">
        <ele>2723.9</ele>
        <time>2021-03-30T06:55:33Z</time>
      </trkpt>
      <trkpt lat="45.54467" lon="6.83935">
        <ele>2723.6</ele>
        <time>2021-03-30T06:55:34Z</time>
      </trkpt>
      <trkpt lat="45.54469" lon="6.83936">
        <ele>2723.3</ele>
        <time>2021-03-30T06:55:59Z</time>
      </trkpt>
      <trkpt lat="45.54471" lon="6.83938">
        <ele>2723.1</ele>
        <time>2021-03-30T06:56:00Z</time>
      </trkpt>
      <trkpt lat="45.54474" lon="6.83939">
        <ele>2724.6</ele>
        <time>2021-03-30T06:56:01Z</time>
      </trkpt>
      <trkpt lat="45.54476" lon="6.8394">
        <ele>2724.4</ele>
        <time>2021-03-30T06:56:02Z</time>
      </trkpt>
      <trkpt lat="45.54477" lon="6.8394">
        <ele>2724.4</ele>
        <time>2021-03-30T06:56:03Z</time>
      </trkpt>
      <trkpt lat="45.54477" lon="6.83941">
        <ele>2724.2</ele>
        <time>2021-03-30T06:56:04Z</time>
      </trkpt>
      <trkpt lat="45.54478" lon="6.83942">
        <ele>2724.2</ele>
        <time>2021-03-30T06:56:05Z</time>
      </trkpt>
      <trkpt lat="45.54479" lon="6.83942">
        <ele>2724.3</ele>
        <time>2021-03-30T06:56:06Z</time>
      </trkpt>
      <trkpt lat="45.54479" lon="6.83942">
        <ele>2725.8</ele>
        <time>2021-03-30T06:56:07Z</time>
      </trkpt>
      <trkpt lat="45.5448" lon="6.83942">
        <ele>2725.7</ele>
        <time>2021-03-30T06:56:08Z</time>
      </trkpt>
      <trkpt lat="45.54481" lon="6.83943">
        <ele>2725.7</ele>
        <time>2021-03-30T06:56:09Z</time>
      </trkpt>
      <trkpt lat="45.54482" lon="6.83943">
        <ele>2725.7</ele>
        <time>2021-03-30T06:56:10Z</time>
      </trkpt>
      <trkpt lat="45.54483" lon="6.83943">
        <ele>2725.7</ele>
        <time>2021-03-30T06:56:11Z</time>
      </trkpt>
      <trkpt lat="45.54484" lon="6.83943">
        <ele>2725.7</ele>
        <time>2021-03-30T06:56:12Z</time>
      </trkpt>
      <trkpt lat="45.54485" lon="6.83943">
        <ele>2725.7</ele>
        <time>2021-03-30T06:56:13Z</time>
      </trkpt>
      <trkpt lat="45.54485" lon="6.83944">
        <ele>2725.7</ele>
        <time>2021-03-30T06:56:14Z</time>
      </trkpt>
      <trkpt lat="45.54485" lon="6.83944">
        <ele>2725.7</ele>
        <time>2021-03-30T06:56:15Z</time>
      </trkpt>
      <trkpt lat="45.54485" lon="6.83945">
        <ele>2725.7</ele>
        <time>2021-03-30T06:56:16Z</time>
      </trkpt>
      <trkpt lat="45.54486" lon="6.83946">
        <ele>2725.7</ele>
        <time>2021-03-30T06:56:17Z</time>
      </trkpt>
      <trkpt lat="45.54486" lon="6.83947">
        <ele>2727.3</ele>
        <time>2021-03-30T06:56:18Z</time>
      </trkpt>
      <trkpt lat="45.54487" lon="6.83947">
        <ele>2727.3</ele>
        <time>2021-03-30T06:56:19Z</time>
      </trkpt>
      <trkpt lat="45.54487" lon="6.83948">
        <ele>2727.4</ele>
        <time>2021-03-30T06:56:20Z</time>
      </trkpt>
      <trkpt lat="45.54487" lon="6.83948">
        <ele>2727.4</ele>
        <time>2021-03-30T06:56:21Z</time>
      </trkpt>
      <trkpt lat="45.54488" lon="6.83948">
        <ele>2727.4</ele>
        <time>2021-03-30T06:56:22Z</time>
      </trkpt>
      <trkpt lat="45.54488" lon="6.83948">
        <ele>2727.4</ele>
        <time>2021-03-30T06:56:23Z</time>
      </trkpt>
      <trkpt lat="45.54488" lon="6.83949">
        <ele>2727.4</ele>
        <time>2021-03-30T06:56:24Z</time>
      </trkpt>
      <trkpt lat="45.54488" lon="6.83949">
        <ele>2727.4</ele>
        <time>2021-03-30T06:56:25Z</time>
      </trkpt>
      <trkpt lat="45.54488" lon="6.83949">
        <ele>2727.5</ele>
        <time>2021-03-30T06:56:26Z</time>
      </trkpt>
      <trkpt lat="45.54489" lon="6.83949">
        <ele>2727.5</ele>
        <time>2021-03-30T06:56:27Z</time>
      </trkpt>
      <trkpt lat="45.54489" lon="6.83949">
        <ele>2727.5</ele>
        <time>2021-03-30T06:56:28Z</time>
      </trkpt>
      <trkpt lat="45.5449" lon="6.8395">
        <ele>2727.6</ele>
        <time>2021-03-30T06:56:29Z</time>
      </trkpt>
      <trkpt lat="45.5449" lon="6.8395">
        <ele>2727.6</ele>
        <time>2021-03-30T06:56:30Z</time>
      </trkpt>
      <trkpt lat="45.54491" lon="6.83951">
        <ele>2729.2</ele>
        <time>2021-03-30T06:56:31Z</time>
      </trkpt>
      <trkpt lat="45.54491" lon="6.83951">
        <ele>2729.2</ele>
        <time>2021-03-30T06:56:32Z</time>
      </trkpt>
      <trkpt lat="45.54492" lon="6.83951">
        <ele>2729.2</ele>
        <time>2021-03-30T06:56:33Z</time>
      </trkpt>
      <trkpt lat="45.54492" lon="6.83951">
        <ele>2729.2</ele>
        <time>2021-03-30T06:56:34Z</time>
      </trkpt>
      <trkpt lat="45.54493" lon="6.83951">
        <ele>2729.4</ele>
        <time>2021-03-30T06:56:35Z</time>
      </trkpt>
      <trkpt lat="45.54493" lon="6.83951">
        <ele>2729.4</ele>
        <time>2021-03-30T06:56:36Z</time>
      </trkpt>
      <trkpt lat="45.54494" lon="6.83951">
        <ele>2729.4</ele>
        <time>2021-03-30T06:56:37Z</time>
      </trkpt>
      <trkpt lat="45.54494" lon="6.83951">
        <ele>2729.4</ele>
        <time>2021-03-30T06:56:38Z</time>
      </trkpt>
      <trkpt lat="45.54494" lon="6.83951">
        <ele>2729.4</ele>
        <time>2021-03-30T06:56:39Z</time>
      </trkpt>
      <trkpt lat="45.54495" lon="6.83952">
        <ele>2729.5</ele>
        <time>2021-03-30T06:56:40Z</time>
      </trkpt>
      <trkpt lat="45.54495" lon="6.83952">
        <ele>2729.5</ele>
        <time>2021-03-30T06:56:41Z</time>
      </trkpt>
      <trkpt lat="45.54495" lon="6.83952">
        <ele>2729.5</ele>
        <time>2021-03-30T06:56:46Z</time>
      </trkpt>
      <trkpt lat="45.54495" lon="6.83953">
        <ele>2729.5</ele>
        <time>2021-03-30T06:56:47Z</time>
      </trkpt>
      <trkpt lat="45.54495" lon="6.83953">
        <ele>2729.5</ele>
        <time>2021-03-30T06:56:48Z</time>
      </trkpt>
      <trkpt lat="45.54494" lon="6.83953">
        <ele>2729.5</ele>
        <time>2021-03-30T06:56:49Z</time>
      </trkpt>
      <trkpt lat="45.54494" lon="6.83954">
        <ele>2729.6</ele>
        <time>2021-03-30T06:56:50Z</time>
      </trkpt>
      <trkpt lat="45.54494" lon="6.83954">
        <ele>2729.6</ele>
        <time>2021-03-30T06:56:51Z</time>
      </trkpt>
      <trkpt lat="45.54494" lon="6.83954">
        <ele>2729.6</ele>
        <time>2021-03-30T06:56:52Z</time>
      </trkpt>
      <trkpt lat="45.54494" lon="6.83955">
        <ele>2731.2</ele>
        <time>2021-03-30T06:56:53Z</time>
      </trkpt>
      <trkpt lat="45.54494" lon="6.83955">
        <ele>2731.3</ele>
        <time>2021-03-30T06:56:54Z</time>
      </trkpt>
      <trkpt lat="45.54494" lon="6.83956">
        <ele>2731.3</ele>
        <time>2021-03-30T06:56:55Z</time>
      </trkpt>
      <trkpt lat="45.54493" lon="6.83956">
        <ele>2731.3</ele>
        <time>2021-03-30T06:56:56Z</time>
      </trkpt>
      <trkpt lat="45.54493" lon="6.83956">
        <ele>2731.3</ele>
        <time>2021-03-30T06:57:51Z</time>
      </trkpt>
      <trkpt lat="45.54493" lon="6.83957">
        <ele>2731.3</ele>
        <time>2021-03-30T06:57:52Z</time>
      </trkpt>
      <trkpt lat="45.54493" lon="6.83957">
        <ele>2731.3</ele>
        <time>2021-03-30T06:57:53Z</time>
      </trkpt>
      <trkpt lat="45.54493" lon="6.83957">
        <ele>2731.4</ele>
        <time>2021-03-30T06:57:54Z</time>
      </trkpt>
      <trkpt lat="45.54493" lon="6.83958">
        <ele>2731.4</ele>
        <time>2021-03-30T06:57:55Z</time>
      </trkpt>
      <trkpt lat="45.54492" lon="6.83959">
        <ele>2731.3</ele>
        <time>2021-03-30T06:57:56Z</time>
      </trkpt>
      <trkpt lat="45.54491" lon="6.8396">
        <ele>2733</ele>
        <time>2021-03-30T06:57:57Z</time>
      </trkpt>
      <trkpt lat="45.54491" lon="6.8396">
        <ele>2733</ele>
        <time>2021-03-30T06:57:58Z</time>
      </trkpt>
      <trkpt lat="45.5449" lon="6.83961">
        <ele>2733</ele>
        <time>2021-03-30T06:57:59Z</time>
      </trkpt>
      <trkpt lat="45.54489" lon="6.83961">
        <ele>2733</ele>
        <time>2021-03-30T06:58:00Z</time>
      </trkpt>
      <trkpt lat="45.54489" lon="6.83962">
        <ele>2733</ele>
        <time>2021-03-30T06:58:01Z</time>
      </trkpt>
      <trkpt lat="45.54488" lon="6.83962">
        <ele>2733</ele>
        <time>2021-03-30T06:58:02Z</time>
      </trkpt>
      <trkpt lat="45.54487" lon="6.83963">
        <ele>2733</ele>
        <time>2021-03-30T06:58:03Z</time>
      </trkpt>
      <trkpt lat="45.54487" lon="6.83963">
        <ele>2733</ele>
        <time>2021-03-30T06:58:04Z</time>
      </trkpt>
      <trkpt lat="45.54486" lon="6.83964">
        <ele>2734.7</ele>
        <time>2021-03-30T06:58:05Z</time>
      </trkpt>
      <trkpt lat="45.54485" lon="6.83964">
        <ele>2734.8</ele>
        <time>2021-03-30T06:58:06Z</time>
      </trkpt>
      <trkpt lat="45.54485" lon="6.83965">
        <ele>2734.8</ele>
        <time>2021-03-30T06:58:07Z</time>
      </trkpt>
      <trkpt lat="45.54484" lon="6.83965">
        <ele>2734.8</ele>
        <time>2021-03-30T06:58:08Z</time>
      </trkpt>
      <trkpt lat="45.54484" lon="6.83966">
        <ele>2734.8</ele>
        <time>2021-03-30T06:58:09Z</time>
      </trkpt>
      <trkpt lat="45.54483" lon="6.83966">
        <ele>2734.8</ele>
        <time>2021-03-30T06:58:10Z</time>
      </trkpt>
      <trkpt lat="45.54483" lon="6.83967">
        <ele>2735</ele>
        <time>2021-03-30T06:58:11Z</time>
      </trkpt>
      <trkpt lat="45.54482" lon="6.83967">
        <ele>2735</ele>
        <time>2021-03-30T06:58:12Z</time>
      </trkpt>
      <trkpt lat="45.54482" lon="6.83967">
        <ele>2735</ele>
        <time>2021-03-30T06:58:13Z</time>
      </trkpt>
      <trkpt lat="45.54481" lon="6.83968">
        <ele>2736.7</ele>
        <time>2021-03-30T06:58:14Z</time>
      </trkpt>
      <trkpt lat="45.5448" lon="6.83968">
        <ele>2736.9</ele>
        <time>2021-03-30T06:58:15Z</time>
      </trkpt>
      <trkpt lat="45.5448" lon="6.83969">
        <ele>2736.9</ele>
        <time>2021-03-30T06:58:16Z</time>
      </trkpt>
      <trkpt lat="45.54479" lon="6.83969">
        <ele>2736.9</ele>
        <time>2021-03-30T06:58:17Z</time>
      </trkpt>
      <trkpt lat="45.54478" lon="6.8397">
        <ele>2737</ele>
        <time>2021-03-30T06:58:18Z</time>
      </trkpt>
      <trkpt lat="45.54478" lon="6.8397">
        <ele>2737</ele>
        <time>2021-03-30T06:58:19Z</time>
      </trkpt>
      <trkpt lat="45.54477" lon="6.8397">
        <ele>2737.2</ele>
        <time>2021-03-30T06:58:20Z</time>
      </trkpt>
      <trkpt lat="45.54477" lon="6.8397">
        <ele>2737.2</ele>
        <time>2021-03-30T06:58:21Z</time>
      </trkpt>
      <trkpt lat="45.54476" lon="6.8397">
        <ele>2737.2</ele>
        <time>2021-03-30T06:58:22Z</time>
      </trkpt>
      <trkpt lat="45.54475" lon="6.8397">
        <ele>2737.3</ele>
        <time>2021-03-30T06:58:23Z</time>
      </trkpt>
      <trkpt lat="45.54475" lon="6.8397">
        <ele>2737.3</ele>
        <time>2021-03-30T06:58:24Z</time>
      </trkpt>
      <trkpt lat="45.54474" lon="6.8397">
        <ele>2737.3</ele>
        <time>2021-03-30T06:58:25Z</time>
      </trkpt>
      <trkpt lat="45.54474" lon="6.83971">
        <ele>2737.6</ele>
        <time>2021-03-30T06:58:26Z</time>
      </trkpt>
      <trkpt lat="45.54474" lon="6.83971">
        <ele>2737.6</ele>
        <time>2021-03-30T06:58:27Z</time>
      </trkpt>
      <trkpt lat="45.54474" lon="6.83971">
        <ele>2737.6</ele>
        <time>2021-03-30T06:58:28Z</time>
      </trkpt>
      <trkpt lat="45.54475" lon="6.83971">
        <ele>2737.4</ele>
        <time>2021-03-30T06:58:29Z</time>
      </trkpt>
      <trkpt lat="45.54475" lon="6.83971">
        <ele>2737.4</ele>
        <time>2021-03-30T06:58:30Z</time>
      </trkpt>
      <trkpt lat="45.54475" lon="6.83971">
        <ele>2737.4</ele>
        <time>2021-03-30T06:58:31Z</time>
      </trkpt>
      <trkpt lat="45.54476" lon="6.83971">
        <ele>2737.4</ele>
        <time>2021-03-30T06:58:32Z</time>
      </trkpt>
      <trkpt lat="45.54476" lon="6.83971">
        <ele>2737.4</ele>
        <time>2021-03-30T06:58:33Z</time>
      </trkpt>
      <trkpt lat="45.54477" lon="6.83972">
        <ele>2737.4</ele>
        <time>2021-03-30T06:58:34Z</time>
      </trkpt>
      <trkpt lat="45.54477" lon="6.83972">
        <ele>2737.2</ele>
        <time>2021-03-30T06:58:35Z</time>
      </trkpt>
      <trkpt lat="45.54478" lon="6.83972">
        <ele>2737.3</ele>
        <time>2021-03-30T06:58:36Z</time>
      </trkpt>
      <trkpt lat="45.54478" lon="6.83972">
        <ele>2737.3</ele>
        <time>2021-03-30T06:59:05Z</time>
      </trkpt>
      <trkpt lat="45.54479" lon="6.83972">
        <ele>2739</ele>
        <time>2021-03-30T06:59:06Z</time>
      </trkpt>
      <trkpt lat="45.54479" lon="6.83972">
        <ele>2739</ele>
        <time>2021-03-30T06:59:07Z</time>
      </trkpt>
      <trkpt lat="45.5448" lon="6.83972">
        <ele>2739</ele>
        <time>2021-03-30T06:59:08Z</time>
      </trkpt>
      <trkpt lat="45.5448" lon="6.83972">
        <ele>2738.9</ele>
        <time>2021-03-30T06:59:09Z</time>
      </trkpt>
      <trkpt lat="45.54481" lon="6.83973">
        <ele>2738.9</ele>
        <time>2021-03-30T06:59:10Z</time>
      </trkpt>
      <trkpt lat="45.54482" lon="6.83973">
        <ele>2738.9</ele>
        <time>2021-03-30T06:59:11Z</time>
      </trkpt>
      <trkpt lat="45.54483" lon="6.83974">
        <ele>2738.9</ele>
        <time>2021-03-30T06:59:12Z</time>
      </trkpt>
      <trkpt lat="45.54483" lon="6.83974">
        <ele>2738.8</ele>
        <time>2021-03-30T06:59:13Z</time>
      </trkpt>
      <trkpt lat="45.54484" lon="6.83975">
        <ele>2738.8</ele>
        <time>2021-03-30T06:59:14Z</time>
      </trkpt>
      <trkpt lat="45.54484" lon="6.83975">
        <ele>2738.8</ele>
        <time>2021-03-30T06:59:15Z</time>
      </trkpt>
      <trkpt lat="45.54485" lon="6.83975">
        <ele>2738.8</ele>
        <time>2021-03-30T06:59:16Z</time>
      </trkpt>
      <trkpt lat="45.54485" lon="6.83976">
        <ele>2738.9</ele>
        <time>2021-03-30T06:59:17Z</time>
      </trkpt>
      <trkpt lat="45.54486" lon="6.83976">
        <ele>2740.5</ele>
        <time>2021-03-30T06:59:18Z</time>
      </trkpt>
      <trkpt lat="45.54486" lon="6.83977">
        <ele>2740.5</ele>
        <time>2021-03-30T06:59:19Z</time>
      </trkpt>
      <trkpt lat="45.54487" lon="6.83977">
        <ele>2740.5</ele>
        <time>2021-03-30T06:59:20Z</time>
      </trkpt>
      <trkpt lat="45.54488" lon="6.83978">
        <ele>2740.5</ele>
        <time>2021-03-30T06:59:21Z</time>
      </trkpt>
      <trkpt lat="45.54488" lon="6.83978">
        <ele>2740.5</ele>
        <time>2021-03-30T06:59:22Z</time>
      </trkpt>
      <trkpt lat="45.54489" lon="6.83979">
        <ele>2740.6</ele>
        <time>2021-03-30T06:59:23Z</time>
      </trkpt>
      <trkpt lat="45.54489" lon="6.83979">
        <ele>2740.7</ele>
        <time>2021-03-30T06:59:24Z</time>
      </trkpt>
      <trkpt lat="45.5449" lon="6.8398">
        <ele>2740.7</ele>
        <time>2021-03-30T06:59:25Z</time>
      </trkpt>
      <trkpt lat="45.54491" lon="6.8398">
        <ele>2740.7</ele>
        <time>2021-03-30T06:59:26Z</time>
      </trkpt>
      <trkpt lat="45.54492" lon="6.8398">
        <ele>2740.7</ele>
        <time>2021-03-30T06:59:27Z</time>
      </trkpt>
      <trkpt lat="45.54492" lon="6.8398">
        <ele>2740.9</ele>
        <time>2021-03-30T06:59:28Z</time>
      </trkpt>
      <trkpt lat="45.54493" lon="6.8398">
        <ele>2740.9</ele>
        <time>2021-03-30T06:59:29Z</time>
      </trkpt>
      <trkpt lat="45.54494" lon="6.83981">
        <ele>2742.5</ele>
        <time>2021-03-30T06:59:30Z</time>
      </trkpt>
      <trkpt lat="45.54495" lon="6.83981">
        <ele>2742.5</ele>
        <time>2021-03-30T06:59:31Z</time>
      </trkpt>
      <trkpt lat="45.54495" lon="6.83981">
        <ele>2742.7</ele>
        <time>2021-03-30T06:59:32Z</time>
      </trkpt>
      <trkpt lat="45.54496" lon="6.83982">
        <ele>2742.7</ele>
        <time>2021-03-30T06:59:33Z</time>
      </trkpt>
      <trkpt lat="45.54496" lon="6.83983">
        <ele>2742.7</ele>
        <time>2021-03-30T06:59:34Z</time>
      </trkpt>
      <trkpt lat="45.54497" lon="6.83983">
        <ele>2742.7</ele>
        <time>2021-03-30T06:59:35Z</time>
      </trkpt>
      <trkpt lat="45.54497" lon="6.83984">
        <ele>2742.8</ele>
        <time>2021-03-30T06:59:36Z</time>
      </trkpt>
      <trkpt lat="45.54498" lon="6.83984">
        <ele>2742.8</ele>
        <time>2021-03-30T06:59:37Z</time>
      </trkpt>
      <trkpt lat="45.54498" lon="6.83984">
        <ele>2743</ele>
        <time>2021-03-30T06:59:38Z</time>
      </trkpt>
      <trkpt lat="45.54499" lon="6.83985">
        <ele>2744.6</ele>
        <time>2021-03-30T06:59:39Z</time>
      </trkpt>
      <trkpt lat="45.54499" lon="6.83986">
        <ele>2744.6</ele>
        <time>2021-03-30T06:59:40Z</time>
      </trkpt>
      <trkpt lat="45.54499" lon="6.83986">
        <ele>2744.6</ele>
        <time>2021-03-30T06:59:41Z</time>
      </trkpt>
      <trkpt lat="45.545" lon="6.83987">
        <ele>2744.7</ele>
        <time>2021-03-30T06:59:42Z</time>
      </trkpt>
      <trkpt lat="45.545" lon="6.83987">
        <ele>2744.7</ele>
        <time>2021-03-30T06:59:43Z</time>
      </trkpt>
      <trkpt lat="45.545" lon="6.83988">
        <ele>2744.7</ele>
        <time>2021-03-30T06:59:44Z</time>
      </trkpt>
      <trkpt lat="45.545" lon="6.83988">
        <ele>2744.7</ele>
        <time>2021-03-30T06:59:45Z</time>
      </trkpt>
      <trkpt lat="45.54501" lon="6.83989">
        <ele>2744.7</ele>
        <time>2021-03-30T06:59:46Z</time>
      </trkpt>
      <trkpt lat="45.54501" lon="6.83989">
        <ele>2746.6</ele>
        <time>2021-03-30T06:59:47Z</time>
      </trkpt>
      <trkpt lat="45.54502" lon="6.8399">
        <ele>2746.7</ele>
        <time>2021-03-30T06:59:48Z</time>
      </trkpt>
      <trkpt lat="45.54502" lon="6.8399">
        <ele>2746.7</ele>
        <time>2021-03-30T06:59:49Z</time>
      </trkpt>
      <trkpt lat="45.54502" lon="6.8399">
        <ele>2746.7</ele>
        <time>2021-03-30T06:59:50Z</time>
      </trkpt>
      <trkpt lat="45.54502" lon="6.83991">
        <ele>2746.7</ele>
        <time>2021-03-30T06:59:51Z</time>
      </trkpt>
      <trkpt lat="45.54502" lon="6.83991">
        <ele>2746.7</ele>
        <time>2021-03-30T06:59:52Z</time>
      </trkpt>
      <trkpt lat="45.54502" lon="6.83991">
        <ele>2746.7</ele>
        <time>2021-03-30T06:59:53Z</time>
      </trkpt>
      <trkpt lat="45.54502" lon="6.83991">
        <ele>2746.8</ele>
        <time>2021-03-30T06:59:54Z</time>
      </trkpt>
      <trkpt lat="45.54501" lon="6.83992">
        <ele>2746.5</ele>
        <time>2021-03-30T06:59:55Z</time>
      </trkpt>
      <trkpt lat="45.545" lon="6.83992">
        <ele>2746.5</ele>
        <time>2021-03-30T06:59:56Z</time>
      </trkpt>
      <trkpt lat="45.545" lon="6.83992">
        <ele>2746.5</ele>
        <time>2021-03-30T06:59:57Z</time>
      </trkpt>
      <trkpt lat="45.54499" lon="6.83993">
        <ele>2746.5</ele>
        <time>2021-03-30T06:59:58Z</time>
      </trkpt>
      <trkpt lat="45.54499" lon="6.83993">
        <ele>2746.5</ele>
        <time>2021-03-30T06:59:59Z</time>
      </trkpt>
      <trkpt lat="45.54499" lon="6.83994">
        <ele>2748.3</ele>
        <time>2021-03-30T07:00:00Z</time>
      </trkpt>
      <trkpt lat="45.54498" lon="6.83994">
        <ele>2748.3</ele>
        <time>2021-03-30T07:00:01Z</time>
      </trkpt>
      <trkpt lat="45.54498" lon="6.83995">
        <ele>2748</ele>
        <time>2021-03-30T07:00:02Z</time>
      </trkpt>
      <trkpt lat="45.54497" lon="6.83995">
        <ele>2748.1</ele>
        <time>2021-03-30T07:00:03Z</time>
      </trkpt>
      <trkpt lat="45.54497" lon="6.83996">
        <ele>2748.1</ele>
        <time>2021-03-30T07:00:04Z</time>
      </trkpt>
      <trkpt lat="45.54496" lon="6.83996">
        <ele>2748.1</ele>
        <time>2021-03-30T07:00:05Z</time>
      </trkpt>
      <trkpt lat="45.54496" lon="6.83996">
        <ele>2748.1</ele>
        <time>2021-03-30T07:00:06Z</time>
      </trkpt>
      <trkpt lat="45.54495" lon="6.83996">
        <ele>2748.1</ele>
        <time>2021-03-30T07:00:07Z</time>
      </trkpt>
      <trkpt lat="45.54495" lon="6.83997">
        <ele>2747.9</ele>
        <time>2021-03-30T07:00:08Z</time>
      </trkpt>
      <trkpt lat="45.54494" lon="6.83997">
        <ele>2748</ele>
        <time>2021-03-30T07:00:09Z</time>
      </trkpt>
      <trkpt lat="45.54494" lon="6.83997">
        <ele>2748</ele>
        <time>2021-03-30T07:00:10Z</time>
      </trkpt>
      <trkpt lat="45.54493" lon="6.83998">
        <ele>2749.8</ele>
        <time>2021-03-30T07:00:11Z</time>
      </trkpt>
      <trkpt lat="45.54493" lon="6.83998">
        <ele>2749.8</ele>
        <time>2021-03-30T07:00:12Z</time>
      </trkpt>
      <trkpt lat="45.54492" lon="6.83999">
        <ele>2749.8</ele>
        <time>2021-03-30T07:00:13Z</time>
      </trkpt>
      <trkpt lat="45.54492" lon="6.83999">
        <ele>2749.7</ele>
        <time>2021-03-30T07:00:14Z</time>
      </trkpt>
      <trkpt lat="45.54491" lon="6.84">
        <ele>2749.7</ele>
        <time>2021-03-30T07:00:15Z</time>
      </trkpt>
      <trkpt lat="45.54491" lon="6.84">
        <ele>2749.7</ele>
        <time>2021-03-30T07:00:16Z</time>
      </trkpt>
      <trkpt lat="45.54491" lon="6.84001">
        <ele>2749.8</ele>
        <time>2021-03-30T07:00:17Z</time>
      </trkpt>
      <trkpt lat="45.5449" lon="6.84001">
        <ele>2749.8</ele>
        <time>2021-03-30T07:00:18Z</time>
      </trkpt>
      <trkpt lat="45.5449" lon="6.84002">
        <ele>2749.8</ele>
        <time>2021-03-30T07:00:19Z</time>
      </trkpt>
      <trkpt lat="45.54489" lon="6.84002">
        <ele>2751.7</ele>
        <time>2021-03-30T07:00:20Z</time>
      </trkpt>
      <trkpt lat="45.54489" lon="6.84003">
        <ele>2751.6</ele>
        <time>2021-03-30T07:00:21Z</time>
      </trkpt>
      <trkpt lat="45.54488" lon="6.84003">
        <ele>2751.6</ele>
        <time>2021-03-30T07:00:22Z</time>
      </trkpt>
      <trkpt lat="45.54487" lon="6.84004">
        <ele>2751.6</ele>
        <time>2021-03-30T07:00:23Z</time>
      </trkpt>
      <trkpt lat="45.54487" lon="6.84004">
        <ele>2751.7</ele>
        <time>2021-03-30T07:00:24Z</time>
      </trkpt>
      <trkpt lat="45.54486" lon="6.84005">
        <ele>2751.7</ele>
        <time>2021-03-30T07:00:25Z</time>
      </trkpt>
      <trkpt lat="45.54485" lon="6.84005">
        <ele>2751.7</ele>
        <time>2021-03-30T07:00:26Z</time>
      </trkpt>
      <trkpt lat="45.54485" lon="6.84005">
        <ele>2751.7</ele>
        <time>2021-03-30T07:00:27Z</time>
      </trkpt>
      <trkpt lat="45.54484" lon="6.84006">
        <ele>2751.7</ele>
        <time>2021-03-30T07:00:28Z</time>
      </trkpt>
      <trkpt lat="45.54483" lon="6.84006">
        <ele>2751.7</ele>
        <time>2021-03-30T07:00:29Z</time>
      </trkpt>
      <trkpt lat="45.54483" lon="6.84006">
        <ele>2753.7</ele>
        <time>2021-03-30T07:00:30Z</time>
      </trkpt>
      <trkpt lat="45.54482" lon="6.84007">
        <ele>2753.7</ele>
        <time>2021-03-30T07:00:31Z</time>
      </trkpt>
      <trkpt lat="45.54482" lon="6.84007">
        <ele>2753.7</ele>
        <time>2021-03-30T07:00:32Z</time>
      </trkpt>
      <trkpt lat="45.54481" lon="6.84007">
        <ele>2753.7</ele>
        <time>2021-03-30T07:00:33Z</time>
      </trkpt>
      <trkpt lat="45.54481" lon="6.84008">
        <ele>2753.7</ele>
        <time>2021-03-30T07:00:34Z</time>
      </trkpt>
      <trkpt lat="45.5448" lon="6.84008">
        <ele>2753.8</ele>
        <time>2021-03-30T07:00:35Z</time>
      </trkpt>
      <trkpt lat="45.54479" lon="6.84009">
        <ele>2753.8</ele>
        <time>2021-03-30T07:00:36Z</time>
      </trkpt>
      <trkpt lat="45.54479" lon="6.84009">
        <ele>2753.8</ele>
        <time>2021-03-30T07:00:37Z</time>
      </trkpt>
      <trkpt lat="45.54478" lon="6.84009">
        <ele>2753.9</ele>
        <time>2021-03-30T07:00:38Z</time>
      </trkpt>
      <trkpt lat="45.54477" lon="6.84009">
        <ele>2753.9</ele>
        <time>2021-03-30T07:00:39Z</time>
      </trkpt>
      <trkpt lat="45.54477" lon="6.84009">
        <ele>2754</ele>
        <time>2021-03-30T07:00:40Z</time>
      </trkpt>
      <trkpt lat="45.54476" lon="6.8401">
        <ele>2754</ele>
        <time>2021-03-30T07:00:41Z</time>
      </trkpt>
      <trkpt lat="45.54475" lon="6.8401">
        <ele>2754</ele>
        <time>2021-03-30T07:00:42Z</time>
      </trkpt>
      <trkpt lat="45.54475" lon="6.8401">
        <ele>2754</ele>
        <time>2021-03-30T07:00:43Z</time>
      </trkpt>
      <trkpt lat="45.54474" lon="6.8401">
        <ele>2754.2</ele>
        <time>2021-03-30T07:00:44Z</time>
      </trkpt>
      <trkpt lat="45.54474" lon="6.8401">
        <ele>2754.2</ele>
        <time>2021-03-30T07:00:45Z</time>
      </trkpt>
      <trkpt lat="45.54473" lon="6.8401">
        <ele>2754.2</ele>
        <time>2021-03-30T07:00:46Z</time>
      </trkpt>
      <trkpt lat="45.54472" lon="6.8401">
        <ele>2754.2</ele>
        <time>2021-03-30T07:00:47Z</time>
      </trkpt>
      <trkpt lat="45.54472" lon="6.8401">
        <ele>2754.3</ele>
        <time>2021-03-30T07:00:48Z</time>
      </trkpt>
      <trkpt lat="45.54471" lon="6.8401">
        <ele>2754.3</ele>
        <time>2021-03-30T07:00:49Z</time>
      </trkpt>
      <trkpt lat="45.54471" lon="6.84011">
        <ele>2756.1</ele>
        <time>2021-03-30T07:00:50Z</time>
      </trkpt>
      <trkpt lat="45.54472" lon="6.84011">
        <ele>2756.1</ele>
        <time>2021-03-30T07:00:51Z</time>
      </trkpt>
      <trkpt lat="45.54472" lon="6.84011">
        <ele>2756.1</ele>
        <time>2021-03-30T07:00:52Z</time>
      </trkpt>
      <trkpt lat="45.54473" lon="6.84012">
        <ele>2756.1</ele>
        <time>2021-03-30T07:00:53Z</time>
      </trkpt>
      <trkpt lat="45.54473" lon="6.84012">
        <ele>2756.1</ele>
        <time>2021-03-30T07:00:54Z</time>
      </trkpt>
      <trkpt lat="45.54473" lon="6.84012">
        <ele>2756.2</ele>
        <time>2021-03-30T07:00:55Z</time>
      </trkpt>
      <trkpt lat="45.54474" lon="6.84013">
        <ele>2756.2</ele>
        <time>2021-03-30T07:00:56Z</time>
      </trkpt>
      <trkpt lat="45.54474" lon="6.84013">
        <ele>2756.2</ele>
        <time>2021-03-30T07:00:57Z</time>
      </trkpt>
      <trkpt lat="45.54474" lon="6.84014">
        <ele>2756.1</ele>
        <time>2021-03-30T07:00:58Z</time>
      </trkpt>
      <trkpt lat="45.54475" lon="6.84014">
        <ele>2756.1</ele>
        <time>2021-03-30T07:00:59Z</time>
      </trkpt>
      <trkpt lat="45.54475" lon="6.84014">
        <ele>2756.1</ele>
        <time>2021-03-30T07:01:00Z</time>
      </trkpt>
      <trkpt lat="45.54476" lon="6.84015">
        <ele>2756.2</ele>
        <time>2021-03-30T07:01:01Z</time>
      </trkpt>
      <trkpt lat="45.54476" lon="6.84015">
        <ele>2757.9</ele>
        <time>2021-03-30T07:01:02Z</time>
      </trkpt>
      <trkpt lat="45.54476" lon="6.84015">
        <ele>2757.9</ele>
        <time>2021-03-30T07:01:03Z</time>
      </trkpt>
      <trkpt lat="45.54477" lon="6.84016">
        <ele>2758</ele>
        <time>2021-03-30T07:01:04Z</time>
      </trkpt>
      <trkpt lat="45.54477" lon="6.84016">
        <ele>2757.9</ele>
        <time>2021-03-30T07:01:05Z</time>
      </trkpt>
      <trkpt lat="45.54478" lon="6.84017">
        <ele>2757.9</ele>
        <time>2021-03-30T07:01:06Z</time>
      </trkpt>
      <trkpt lat="45.54478" lon="6.84017">
        <ele>2757.9</ele>
        <time>2021-03-30T07:01:07Z</time>
      </trkpt>
      <trkpt lat="45.54479" lon="6.84017">
        <ele>2758</ele>
        <time>2021-03-30T07:01:08Z</time>
      </trkpt>
      <trkpt lat="45.5448" lon="6.84017">
        <ele>2758</ele>
        <time>2021-03-30T07:01:09Z</time>
      </trkpt>
      <trkpt lat="45.5448" lon="6.84018">
        <ele>2758</ele>
        <time>2021-03-30T07:01:10Z</time>
      </trkpt>
      <trkpt lat="45.54481" lon="6.84018">
        <ele>2758</ele>
        <time>2021-03-30T07:01:11Z</time>
      </trkpt>
      <trkpt lat="45.54481" lon="6.84018">
        <ele>2758</ele>
        <time>2021-03-30T07:01:12Z</time>
      </trkpt>
      <trkpt lat="45.54482" lon="6.84019">
        <ele>2758</ele>
        <time>2021-03-30T07:01:13Z</time>
      </trkpt>
      <trkpt lat="45.54482" lon="6.84019">
        <ele>2758</ele>
        <time>2021-03-30T07:01:14Z</time>
      </trkpt>
      <trkpt lat="45.54483" lon="6.84019">
        <ele>2759.8</ele>
        <time>2021-03-30T07:01:15Z</time>
      </trkpt>
      <trkpt lat="45.54483" lon="6.8402">
        <ele>2759.9</ele>
        <time>2021-03-30T07:01:16Z</time>
      </trkpt>
      <trkpt lat="45.54484" lon="6.84021">
        <ele>2759.9</ele>
        <time>2021-03-30T07:01:17Z</time>
      </trkpt>
      <trkpt lat="45.54484" lon="6.84021">
        <ele>2759.9</ele>
        <time>2021-03-30T07:01:18Z</time>
      </trkpt>
      <trkpt lat="45.54485" lon="6.84021">
        <ele>2759.9</ele>
        <time>2021-03-30T07:01:19Z</time>
      </trkpt>
      <trkpt lat="45.54485" lon="6.84021">
        <ele>2759.9</ele>
        <time>2021-03-30T07:01:20Z</time>
      </trkpt>
      <trkpt lat="45.54486" lon="6.84021">
        <ele>2759.9</ele>
        <time>2021-03-30T07:01:21Z</time>
      </trkpt>
      <trkpt lat="45.54486" lon="6.84022">
        <ele>2760</ele>
        <time>2021-03-30T07:01:22Z</time>
      </trkpt>
      <trkpt lat="45.54487" lon="6.84022">
        <ele>2760</ele>
        <time>2021-03-30T07:01:23Z</time>
      </trkpt>
      <trkpt lat="45.54487" lon="6.84023">
        <ele>2760.1</ele>
        <time>2021-03-30T07:01:24Z</time>
      </trkpt>
      <trkpt lat="45.54488" lon="6.84024">
        <ele>2761.9</ele>
        <time>2021-03-30T07:01:25Z</time>
      </trkpt>
      <trkpt lat="45.54488" lon="6.84024">
        <ele>2761.9</ele>
        <time>2021-03-30T07:01:26Z</time>
      </trkpt>
      <trkpt lat="45.54488" lon="6.84025">
        <ele>2761.9</ele>
        <time>2021-03-30T07:01:27Z</time>
      </trkpt>
      <trkpt lat="45.54488" lon="6.84025">
        <ele>2761.9</ele>
        <time>2021-03-30T07:01:28Z</time>
      </trkpt>
      <trkpt lat="45.54488" lon="6.84025">
        <ele>2761.9</ele>
        <time>2021-03-30T07:01:29Z</time>
      </trkpt>
      <trkpt lat="45.54488" lon="6.84026">
        <ele>2761.9</ele>
        <time>2021-03-30T07:01:30Z</time>
      </trkpt>
      <trkpt lat="45.54487" lon="6.84027">
        <ele>2762</ele>
        <time>2021-03-30T07:01:31Z</time>
      </trkpt>
      <trkpt lat="45.54487" lon="6.84027">
        <ele>2762</ele>
        <time>2021-03-30T07:01:32Z</time>
      </trkpt>
      <trkpt lat="45.54486" lon="6.84028">
        <ele>2761.9</ele>
        <time>2021-03-30T07:01:33Z</time>
      </trkpt>
      <trkpt lat="45.54486" lon="6.84028">
        <ele>2763.7</ele>
        <time>2021-03-30T07:01:34Z</time>
      </trkpt>
      <trkpt lat="45.54485" lon="6.84029">
        <ele>2763.7</ele>
        <time>2021-03-30T07:01:35Z</time>
      </trkpt>
      <trkpt lat="45.54484" lon="6.84029">
        <ele>2763.8</ele>
        <time>2021-03-30T07:02:12Z</time>
      </trkpt>
      <trkpt lat="45.54484" lon="6.8403">
        <ele>2763.8</ele>
        <time>2021-03-30T07:02:13Z</time>
      </trkpt>
      <trkpt lat="45.54483" lon="6.8403">
        <ele>2763.8</ele>
        <time>2021-03-30T07:02:14Z</time>
      </trkpt>
      <trkpt lat="45.54482" lon="6.84031">
        <ele>2763.7</ele>
        <time>2021-03-30T07:02:15Z</time>
      </trkpt>
      <trkpt lat="45.54482" lon="6.84032">
        <ele>2765.5</ele>
        <time>2021-03-30T07:02:16Z</time>
      </trkpt>
      <trkpt lat="45.54481" lon="6.84033">
        <ele>2765.5</ele>
        <time>2021-03-30T07:02:17Z</time>
      </trkpt>
      <trkpt lat="45.54481" lon="6.84034">
        <ele>2765.6</ele>
        <time>2021-03-30T07:02:18Z</time>
      </trkpt>
      <trkpt lat="45.5448" lon="6.84034">
        <ele>2765.5</ele>
        <time>2021-03-30T07:02:19Z</time>
      </trkpt>
      <trkpt lat="45.54479" lon="6.84035">
        <ele>2765.6</ele>
        <time>2021-03-30T07:02:20Z</time>
      </trkpt>
      <trkpt lat="45.54478" lon="6.84036">
        <ele>2765.6</ele>
        <time>2021-03-30T07:02:21Z</time>
      </trkpt>
      <trkpt lat="45.54477" lon="6.84036">
        <ele>2765.6</ele>
        <time>2021-03-30T07:02:22Z</time>
      </trkpt>
      <trkpt lat="45.54476" lon="6.84036">
        <ele>2767.4</ele>
        <time>2021-03-30T07:02:23Z</time>
      </trkpt>
      <trkpt lat="45.54475" lon="6.84036">
        <ele>2767.4</ele>
        <time>2021-03-30T07:02:24Z</time>
      </trkpt>
      <trkpt lat="45.54474" lon="6.84036">
        <ele>2765.6</ele>
        <time>2021-03-30T07:02:25Z</time>
      </trkpt>
      <trkpt lat="45.54474" lon="6.84036">
        <ele>2765.6</ele>
        <time>2021-03-30T07:02:26Z</time>
      </trkpt>
      <trkpt lat="45.54473" lon="6.84036">
        <ele>2765.7</ele>
        <time>2021-03-30T07:02:27Z</time>
      </trkpt>
      <trkpt lat="45.54472" lon="6.84037">
        <ele>2767.4</ele>
        <time>2021-03-30T07:02:28Z</time>
      </trkpt>
      <trkpt lat="45.54471" lon="6.84037">
        <ele>2767.5</ele>
        <time>2021-03-30T07:02:29Z</time>
      </trkpt>
      <trkpt lat="45.5447" lon="6.84037">
        <ele>2767.5</ele>
        <time>2021-03-30T07:02:30Z</time>
      </trkpt>
      <trkpt lat="45.54469" lon="6.84038">
        <ele>2767.5</ele>
        <time>2021-03-30T07:02:31Z</time>
      </trkpt>
      <trkpt lat="45.54469" lon="6.84038">
        <ele>2767.5</ele>
        <time>2021-03-30T07:02:32Z</time>
      </trkpt>
      <trkpt lat="45.54468" lon="6.84037">
        <ele>2767.6</ele>
        <time>2021-03-30T07:02:33Z</time>
      </trkpt>
      <trkpt lat="45.54467" lon="6.84037">
        <ele>2767.6</ele>
        <time>2021-03-30T07:02:34Z</time>
      </trkpt>
      <trkpt lat="45.54466" lon="6.84037">
        <ele>2767.6</ele>
        <time>2021-03-30T07:02:35Z</time>
      </trkpt>
      <trkpt lat="45.54465" lon="6.84037">
        <ele>2767.6</ele>
        <time>2021-03-30T07:02:36Z</time>
      </trkpt>
      <trkpt lat="45.54465" lon="6.84037">
        <ele>2767.7</ele>
        <time>2021-03-30T07:02:37Z</time>
      </trkpt>
      <trkpt lat="45.54464" lon="6.84037">
        <ele>2767.7</ele>
        <time>2021-03-30T07:02:38Z</time>
      </trkpt>
      <trkpt lat="45.54463" lon="6.84037">
        <ele>2767.7</ele>
        <time>2021-03-30T07:02:39Z</time>
      </trkpt>
      <trkpt lat="45.54463" lon="6.84036">
        <ele>2767.8</ele>
        <time>2021-03-30T07:02:40Z</time>
      </trkpt>
      <trkpt lat="45.54462" lon="6.84036">
        <ele>2767.8</ele>
        <time>2021-03-30T07:02:41Z</time>
      </trkpt>
      <trkpt lat="45.54462" lon="6.84036">
        <ele>2766.2</ele>
        <time>2021-03-30T07:02:42Z</time>
      </trkpt>
      <trkpt lat="45.54461" lon="6.84036">
        <ele>2766.2</ele>
        <time>2021-03-30T07:02:43Z</time>
      </trkpt>
      <trkpt lat="45.54461" lon="6.84036">
        <ele>2766.2</ele>
        <time>2021-03-30T07:02:44Z</time>
      </trkpt>
      <trkpt lat="45.54461" lon="6.84036">
        <ele>2766.3</ele>
        <time>2021-03-30T07:02:45Z</time>
      </trkpt>
      <trkpt lat="45.5446" lon="6.84036">
        <ele>2766.3</ele>
        <time>2021-03-30T07:02:46Z</time>
      </trkpt>
      <trkpt lat="45.5446" lon="6.84035">
        <ele>2766.3</ele>
        <time>2021-03-30T07:02:47Z</time>
      </trkpt>
      <trkpt lat="45.5446" lon="6.84035">
        <ele>2766.3</ele>
        <time>2021-03-30T07:02:48Z</time>
      </trkpt>
      <trkpt lat="45.5446" lon="6.84036">
        <ele>2766.3</ele>
        <time>2021-03-30T07:02:49Z</time>
      </trkpt>
      <trkpt lat="45.54461" lon="6.84036">
        <ele>2768</ele>
        <time>2021-03-30T07:02:50Z</time>
      </trkpt>
      <trkpt lat="45.54461" lon="6.84037">
        <ele>2768.1</ele>
        <time>2021-03-30T07:02:51Z</time>
      </trkpt>
      <trkpt lat="45.54462" lon="6.84038">
        <ele>2768.1</ele>
        <time>2021-03-30T07:02:52Z</time>
      </trkpt>
      <trkpt lat="45.54463" lon="6.84039">
        <ele>2768</ele>
        <time>2021-03-30T07:02:53Z</time>
      </trkpt>
      <trkpt lat="45.54464" lon="6.8404">
        <ele>2768</ele>
        <time>2021-03-30T07:02:54Z</time>
      </trkpt>
      <trkpt lat="45.54464" lon="6.84041">
        <ele>2769.8</ele>
        <time>2021-03-30T07:02:55Z</time>
      </trkpt>
      <trkpt lat="45.54465" lon="6.84042">
        <ele>2769.8</ele>
        <time>2021-03-30T07:02:56Z</time>
      </trkpt>
      <trkpt lat="45.54466" lon="6.84042">
        <ele>2769.7</ele>
        <time>2021-03-30T07:02:57Z</time>
      </trkpt>
      <trkpt lat="45.54466" lon="6.84043">
        <ele>2769.7</ele>
        <time>2021-03-30T07:02:58Z</time>
      </trkpt>
      <trkpt lat="45.54467" lon="6.84044">
        <ele>2769.8</ele>
        <time>2021-03-30T07:02:59Z</time>
      </trkpt>
      <trkpt lat="45.54468" lon="6.84045">
        <ele>2771.6</ele>
        <time>2021-03-30T07:03:00Z</time>
      </trkpt>
      <trkpt lat="45.54469" lon="6.84046">
        <ele>2771.6</ele>
        <time>2021-03-30T07:03:01Z</time>
      </trkpt>
      <trkpt lat="45.54469" lon="6.84047">
        <ele>2771.6</ele>
        <time>2021-03-30T07:03:02Z</time>
      </trkpt>
      <trkpt lat="45.5447" lon="6.84048">
        <ele>2771.6</ele>
        <time>2021-03-30T07:03:03Z</time>
      </trkpt>
      <trkpt lat="45.54471" lon="6.84048">
        <ele>2771.7</ele>
        <time>2021-03-30T07:03:31Z</time>
      </trkpt>
      <trkpt lat="45.54471" lon="6.84049">
        <ele>2773.6</ele>
        <time>2021-03-30T07:03:32Z</time>
      </trkpt>
      <trkpt lat="45.54472" lon="6.8405">
        <ele>2773.6</ele>
        <time>2021-03-30T07:03:33Z</time>
      </trkpt>
      <trkpt lat="45.54473" lon="6.84051">
        <ele>2773.6</ele>
        <time>2021-03-30T07:03:34Z</time>
      </trkpt>
      <trkpt lat="45.54473" lon="6.84052">
        <ele>2773.7</ele>
        <time>2021-03-30T07:03:35Z</time>
      </trkpt>
      <trkpt lat="45.54474" lon="6.84052">
        <ele>2773.7</ele>
        <time>2021-03-30T07:03:36Z</time>
      </trkpt>
      <trkpt lat="45.54474" lon="6.84053">
        <ele>2773.8</ele>
        <time>2021-03-30T07:03:37Z</time>
      </trkpt>
      <trkpt lat="45.54475" lon="6.84053">
        <ele>2773.8</ele>
        <time>2021-03-30T07:03:38Z</time>
      </trkpt>
      <trkpt lat="45.54475" lon="6.84053">
        <ele>2773.8</ele>
        <time>2021-03-30T07:03:39Z</time>
      </trkpt>
      <trkpt lat="45.54476" lon="6.84054">
        <ele>2775.7</ele>
        <time>2021-03-30T07:03:40Z</time>
      </trkpt>
      <trkpt lat="45.54476" lon="6.84054">
        <ele>2775.8</ele>
        <time>2021-03-30T07:03:41Z</time>
      </trkpt>
      <trkpt lat="45.54476" lon="6.84055">
        <ele>2775.8</ele>
        <time>2021-03-30T07:03:42Z</time>
      </trkpt>
      <trkpt lat="45.54477" lon="6.84055">
        <ele>2775.8</ele>
        <time>2021-03-30T07:03:43Z</time>
      </trkpt>
      <trkpt lat="45.54477" lon="6.84056">
        <ele>2775.9</ele>
        <time>2021-03-30T07:03:44Z</time>
      </trkpt>
      <trkpt lat="45.54478" lon="6.84056">
        <ele>2775.9</ele>
        <time>2021-03-30T07:03:45Z</time>
      </trkpt>
      <trkpt lat="45.54478" lon="6.84056">
        <ele>2775.9</ele>
        <time>2021-03-30T07:03:46Z</time>
      </trkpt>
      <trkpt lat="45.54478" lon="6.84056">
        <ele>2776</ele>
        <time>2021-03-30T07:03:47Z</time>
      </trkpt>
      <trkpt lat="45.54479" lon="6.84057">
        <ele>2776</ele>
        <time>2021-03-30T07:03:48Z</time>
      </trkpt>
      <trkpt lat="45.54479" lon="6.84057">
        <ele>2776</ele>
        <time>2021-03-30T07:03:49Z</time>
      </trkpt>
      <trkpt lat="45.5448" lon="6.84058">
        <ele>2777.9</ele>
        <time>2021-03-30T07:03:50Z</time>
      </trkpt>
      <trkpt lat="45.5448" lon="6.84058">
        <ele>2777.9</ele>
        <time>2021-03-30T07:03:51Z</time>
      </trkpt>
      <trkpt lat="45.5448" lon="6.84059">
        <ele>2777.9</ele>
        <time>2021-03-30T07:03:52Z</time>
      </trkpt>
      <trkpt lat="45.54479" lon="6.84059">
        <ele>2777.9</ele>
        <time>2021-03-30T07:03:53Z</time>
      </trkpt>
      <trkpt lat="45.54479" lon="6.84059">
        <ele>2778</ele>
        <time>2021-03-30T07:03:54Z</time>
      </trkpt>
      <trkpt lat="45.54478" lon="6.84059">
        <ele>2778</ele>
        <time>2021-03-30T07:03:55Z</time>
      </trkpt>
      <trkpt lat="45.54478" lon="6.8406">
        <ele>2778</ele>
        <time>2021-03-30T07:03:56Z</time>
      </trkpt>
      <trkpt lat="45.54477" lon="6.8406">
        <ele>2778</ele>
        <time>2021-03-30T07:03:57Z</time>
      </trkpt>
      <trkpt lat="45.54477" lon="6.8406">
        <ele>2777.9</ele>
        <time>2021-03-30T07:03:58Z</time>
      </trkpt>
      <trkpt lat="45.54476" lon="6.8406">
        <ele>2777.9</ele>
        <time>2021-03-30T07:03:59Z</time>
      </trkpt>
      <trkpt lat="45.54476" lon="6.8406">
        <ele>2777.9</ele>
        <time>2021-03-30T07:04:00Z</time>
      </trkpt>
      <trkpt lat="45.54475" lon="6.84061">
        <ele>2778</ele>
        <time>2021-03-30T07:04:01Z</time>
      </trkpt>
      <trkpt lat="45.54475" lon="6.84061">
        <ele>2778</ele>
        <time>2021-03-30T07:04:02Z</time>
      </trkpt>
      <trkpt lat="45.54474" lon="6.84061">
        <ele>2777.9</ele>
        <time>2021-03-30T07:04:03Z</time>
      </trkpt>
      <trkpt lat="45.54473" lon="6.84061">
        <ele>2777.9</ele>
        <time>2021-03-30T07:04:04Z</time>
      </trkpt>
      <trkpt lat="45.54473" lon="6.84061">
        <ele>2777.9</ele>
        <time>2021-03-30T07:04:09Z</time>
      </trkpt>
      <trkpt lat="45.54472" lon="6.84062">
        <ele>2777.9</ele>
        <time>2021-03-30T07:04:10Z</time>
      </trkpt>
      <trkpt lat="45.54472" lon="6.84062">
        <ele>2778</ele>
        <time>2021-03-30T07:04:11Z</time>
      </trkpt>
      <trkpt lat="45.54471" lon="6.84062">
        <ele>2778</ele>
        <time>2021-03-30T07:04:12Z</time>
      </trkpt>
      <trkpt lat="45.54471" lon="6.84062">
        <ele>2777.9</ele>
        <time>2021-03-30T07:04:13Z</time>
      </trkpt>
      <trkpt lat="45.5447" lon="6.84062">
        <ele>2779.7</ele>
        <time>2021-03-30T07:04:14Z</time>
      </trkpt>
      <trkpt lat="45.54469" lon="6.84063">
        <ele>2779.7</ele>
        <time>2021-03-30T07:04:15Z</time>
      </trkpt>
      <trkpt lat="45.54469" lon="6.84063">
        <ele>2779.7</ele>
        <time>2021-03-30T07:04:16Z</time>
      </trkpt>
      <trkpt lat="45.54468" lon="6.84063">
        <ele>2779.6</ele>
        <time>2021-03-30T07:04:17Z</time>
      </trkpt>
      <trkpt lat="45.54467" lon="6.84063">
        <ele>2779.7</ele>
        <time>2021-03-30T07:04:18Z</time>
      </trkpt>
      <trkpt lat="45.54467" lon="6.84064">
        <ele>2779.7</ele>
        <time>2021-03-30T07:04:19Z</time>
      </trkpt>
      <trkpt lat="45.54466" lon="6.84064">
        <ele>2779.7</ele>
        <time>2021-03-30T07:04:20Z</time>
      </trkpt>
      <trkpt lat="45.54466" lon="6.84064">
        <ele>2779.7</ele>
        <time>2021-03-30T07:04:21Z</time>
      </trkpt>
      <trkpt lat="45.54465" lon="6.84064">
        <ele>2779.7</ele>
        <time>2021-03-30T07:04:22Z</time>
      </trkpt>
      <trkpt lat="45.54464" lon="6.84065">
        <ele>2779.7</ele>
        <time>2021-03-30T07:04:23Z</time>
      </trkpt>
      <trkpt lat="45.54464" lon="6.84065">
        <ele>2779.7</ele>
        <time>2021-03-30T07:04:24Z</time>
      </trkpt>
      <trkpt lat="45.54463" lon="6.84065">
        <ele>2779.8</ele>
        <time>2021-03-30T07:04:25Z</time>
      </trkpt>
      <trkpt lat="45.54463" lon="6.84065">
        <ele>2779.8</ele>
        <time>2021-03-30T07:04:26Z</time>
      </trkpt>
      <trkpt lat="45.54462" lon="6.84065">
        <ele>2779.8</ele>
        <time>2021-03-30T07:04:27Z</time>
      </trkpt>
      <trkpt lat="45.54461" lon="6.84064">
        <ele>2779.8</ele>
        <time>2021-03-30T07:04:28Z</time>
      </trkpt>
      <trkpt lat="45.54461" lon="6.84065">
        <ele>2779.9</ele>
        <time>2021-03-30T07:04:29Z</time>
      </trkpt>
      <trkpt lat="45.5446" lon="6.84065">
        <ele>2779.9</ele>
        <time>2021-03-30T07:04:30Z</time>
      </trkpt>
      <trkpt lat="45.5446" lon="6.84065">
        <ele>2779.9</ele>
        <time>2021-03-30T07:04:31Z</time>
      </trkpt>
      <trkpt lat="45.54459" lon="6.84065">
        <ele>2779.9</ele>
        <time>2021-03-30T07:04:32Z</time>
      </trkpt>
      <trkpt lat="45.54459" lon="6.84065">
        <ele>2780</ele>
        <time>2021-03-30T07:04:33Z</time>
      </trkpt>
      <trkpt lat="45.54458" lon="6.84066">
        <ele>2780</ele>
        <time>2021-03-30T07:04:34Z</time>
      </trkpt>
      <trkpt lat="45.54458" lon="6.84066">
        <ele>2780</ele>
        <time>2021-03-30T07:04:35Z</time>
      </trkpt>
      <trkpt lat="45.54457" lon="6.84066">
        <ele>2780</ele>
        <time>2021-03-30T07:04:36Z</time>
      </trkpt>
      <trkpt lat="45.54456" lon="6.84066">
        <ele>2780</ele>
        <time>2021-03-30T07:04:37Z</time>
      </trkpt>
      <trkpt lat="45.54455" lon="6.84066">
        <ele>2781.7</ele>
        <time>2021-03-30T07:04:38Z</time>
      </trkpt>
      <trkpt lat="45.54455" lon="6.84067">
        <ele>2781.7</ele>
        <time>2021-03-30T07:04:39Z</time>
      </trkpt>
      <trkpt lat="45.54454" lon="6.84067">
        <ele>2781.8</ele>
        <time>2021-03-30T07:04:40Z</time>
      </trkpt>
      <trkpt lat="45.54454" lon="6.84067">
        <ele>2781.8</ele>
        <time>2021-03-30T07:04:41Z</time>
      </trkpt>
      <trkpt lat="45.54453" lon="6.84068">
        <ele>2781.8</ele>
        <time>2021-03-30T07:04:42Z</time>
      </trkpt>
      <trkpt lat="45.54453" lon="6.84068">
        <ele>2781.9</ele>
        <time>2021-03-30T07:04:43Z</time>
      </trkpt>
      <trkpt lat="45.54452" lon="6.84068">
        <ele>2781.9</ele>
        <time>2021-03-30T07:04:44Z</time>
      </trkpt>
      <trkpt lat="45.54452" lon="6.84068">
        <ele>2781.9</ele>
        <time>2021-03-30T07:04:45Z</time>
      </trkpt>
      <trkpt lat="45.54451" lon="6.84068">
        <ele>2782</ele>
        <time>2021-03-30T07:04:46Z</time>
      </trkpt>
      <trkpt lat="45.5445" lon="6.84068">
        <ele>2782</ele>
        <time>2021-03-30T07:04:47Z</time>
      </trkpt>
      <trkpt lat="45.5445" lon="6.84068">
        <ele>2782.1</ele>
        <time>2021-03-30T07:04:48Z</time>
      </trkpt>
      <trkpt lat="45.54449" lon="6.84068">
        <ele>2782.1</ele>
        <time>2021-03-30T07:04:49Z</time>
      </trkpt>
      <trkpt lat="45.54449" lon="6.84068">
        <ele>2782.1</ele>
        <time>2021-03-30T07:04:50Z</time>
      </trkpt>
      <trkpt lat="45.54448" lon="6.84068">
        <ele>2782.2</ele>
        <time>2021-03-30T07:04:51Z</time>
      </trkpt>
      <trkpt lat="45.54448" lon="6.84068">
        <ele>2782.2</ele>
        <time>2021-03-30T07:04:52Z</time>
      </trkpt>
      <trkpt lat="45.54447" lon="6.84068">
        <ele>2782.2</ele>
        <time>2021-03-30T07:04:53Z</time>
      </trkpt>
      <trkpt lat="45.54447" lon="6.84068">
        <ele>2782.4</ele>
        <time>2021-03-30T07:04:54Z</time>
      </trkpt>
      <trkpt lat="45.54446" lon="6.84068">
        <ele>2782.4</ele>
        <time>2021-03-30T07:04:55Z</time>
      </trkpt>
      <trkpt lat="45.54446" lon="6.84068">
        <ele>2782.4</ele>
        <time>2021-03-30T07:04:56Z</time>
      </trkpt>
      <trkpt lat="45.54445" lon="6.84068">
        <ele>2782.4</ele>
        <time>2021-03-30T07:04:57Z</time>
      </trkpt>
      <trkpt lat="45.54445" lon="6.84068">
        <ele>2782.4</ele>
        <time>2021-03-30T07:04:58Z</time>
      </trkpt>
      <trkpt lat="45.54444" lon="6.84067">
        <ele>2782.4</ele>
        <time>2021-03-30T07:04:59Z</time>
      </trkpt>
      <trkpt lat="45.54444" lon="6.84067">
        <ele>2782.6</ele>
        <time>2021-03-30T07:05:00Z</time>
      </trkpt>
      <trkpt lat="45.54443" lon="6.84068">
        <ele>2782.7</ele>
        <time>2021-03-30T07:05:01Z</time>
      </trkpt>
      <trkpt lat="45.54443" lon="6.84067">
        <ele>2782.7</ele>
        <time>2021-03-30T07:05:02Z</time>
      </trkpt>
      <trkpt lat="45.54442" lon="6.84067">
        <ele>2782.7</ele>
        <time>2021-03-30T07:05:03Z</time>
      </trkpt>
      <trkpt lat="45.54442" lon="6.84067">
        <ele>2782.7</ele>
        <time>2021-03-30T07:05:04Z</time>
      </trkpt>
      <trkpt lat="45.54442" lon="6.84067">
        <ele>2782.7</ele>
        <time>2021-03-30T07:05:05Z</time>
      </trkpt>
      <trkpt lat="45.54441" lon="6.84066">
        <ele>2781.5</ele>
        <time>2021-03-30T07:05:06Z</time>
      </trkpt>
      <trkpt lat="45.5444" lon="6.84066">
        <ele>2781.5</ele>
        <time>2021-03-30T07:05:07Z</time>
      </trkpt>
      <trkpt lat="45.5444" lon="6.84066">
        <ele>2781.5</ele>
        <time>2021-03-30T07:05:08Z</time>
      </trkpt>
      <trkpt lat="45.54439" lon="6.84066">
        <ele>2781.5</ele>
        <time>2021-03-30T07:05:09Z</time>
      </trkpt>
      <trkpt lat="45.54439" lon="6.84066">
        <ele>2781.6</ele>
        <time>2021-03-30T07:05:10Z</time>
      </trkpt>
      <trkpt lat="45.54438" lon="6.84066">
        <ele>2781.8</ele>
        <time>2021-03-30T07:05:11Z</time>
      </trkpt>
      <trkpt lat="45.54437" lon="6.84065">
        <ele>2781.9</ele>
        <time>2021-03-30T07:05:12Z</time>
      </trkpt>
      <trkpt lat="45.54437" lon="6.84065">
        <ele>2781.9</ele>
        <time>2021-03-30T07:05:13Z</time>
      </trkpt>
      <trkpt lat="45.54436" lon="6.84065">
        <ele>2781.9</ele>
        <time>2021-03-30T07:05:14Z</time>
      </trkpt>
      <trkpt lat="45.54436" lon="6.84065">
        <ele>2781.9</ele>
        <time>2021-03-30T07:05:15Z</time>
      </trkpt>
      <trkpt lat="45.54435" lon="6.84065">
        <ele>2781.9</ele>
        <time>2021-03-30T07:05:16Z</time>
      </trkpt>
      <trkpt lat="45.54435" lon="6.84065">
        <ele>2782.2</ele>
        <time>2021-03-30T07:05:17Z</time>
      </trkpt>
      <trkpt lat="45.54434" lon="6.84065">
        <ele>2782.2</ele>
        <time>2021-03-30T07:05:18Z</time>
      </trkpt>
      <trkpt lat="45.54433" lon="6.84064">
        <ele>2782.3</ele>
        <time>2021-03-30T07:05:19Z</time>
      </trkpt>
      <trkpt lat="45.54433" lon="6.84064">
        <ele>2782.3</ele>
        <time>2021-03-30T07:05:20Z</time>
      </trkpt>
      <trkpt lat="45.54432" lon="6.84063">
        <ele>2782.3</ele>
        <time>2021-03-30T07:05:21Z</time>
      </trkpt>
      <trkpt lat="45.54432" lon="6.84063">
        <ele>2782.6</ele>
        <time>2021-03-30T07:05:22Z</time>
      </trkpt>
      <trkpt lat="45.54431" lon="6.84063">
        <ele>2782.6</ele>
        <time>2021-03-30T07:05:23Z</time>
      </trkpt>
      <trkpt lat="45.54431" lon="6.84063">
        <ele>2782.7</ele>
        <time>2021-03-30T07:05:24Z</time>
      </trkpt>
      <trkpt lat="45.5443" lon="6.84063">
        <ele>2782.7</ele>
        <time>2021-03-30T07:05:25Z</time>
      </trkpt>
      <trkpt lat="45.5443" lon="6.84063">
        <ele>2782.7</ele>
        <time>2021-03-30T07:05:26Z</time>
      </trkpt>
      <trkpt lat="45.54429" lon="6.84063">
        <ele>2783</ele>
        <time>2021-03-30T07:05:27Z</time>
      </trkpt>
      <trkpt lat="45.54428" lon="6.84063">
        <ele>2783.1</ele>
        <time>2021-03-30T07:05:28Z</time>
      </trkpt>
      <trkpt lat="45.54428" lon="6.84063">
        <ele>2783.1</ele>
        <time>2021-03-30T07:05:29Z</time>
      </trkpt>
      <trkpt lat="45.54427" lon="6.84063">
        <ele>2783.1</ele>
        <time>2021-03-30T07:05:30Z</time>
      </trkpt>
      <trkpt lat="45.54427" lon="6.84062">
        <ele>2783.1</ele>
        <time>2021-03-30T07:05:31Z</time>
      </trkpt>
      <trkpt lat="45.54426" lon="6.84062">
        <ele>2781.6</ele>
        <time>2021-03-30T07:05:32Z</time>
      </trkpt>
      <trkpt lat="45.54426" lon="6.84062">
        <ele>2782</ele>
        <time>2021-03-30T07:05:33Z</time>
      </trkpt>
      <trkpt lat="45.54425" lon="6.84061">
        <ele>2782.1</ele>
        <time>2021-03-30T07:05:34Z</time>
      </trkpt>
      <trkpt lat="45.54425" lon="6.84061">
        <ele>2782.1</ele>
        <time>2021-03-30T07:05:35Z</time>
      </trkpt>
      <trkpt lat="45.54424" lon="6.8406">
        <ele>2782.1</ele>
        <time>2021-03-30T07:05:36Z</time>
      </trkpt>
      <trkpt lat="45.54424" lon="6.84059">
        <ele>2782.1</ele>
        <time>2021-03-30T07:05:37Z</time>
      </trkpt>
      <trkpt lat="45.54423" lon="6.84059">
        <ele>2782.1</ele>
        <time>2021-03-30T07:05:38Z</time>
      </trkpt>
      <trkpt lat="45.54423" lon="6.84059">
        <ele>2782.6</ele>
        <time>2021-03-30T07:05:39Z</time>
      </trkpt>
      <trkpt lat="45.54422" lon="6.84058">
        <ele>2782.6</ele>
        <time>2021-03-30T07:05:40Z</time>
      </trkpt>
      <trkpt lat="45.54422" lon="6.84058">
        <ele>2782.6</ele>
        <time>2021-03-30T07:05:41Z</time>
      </trkpt>
      <trkpt lat="45.54421" lon="6.84058">
        <ele>2782.6</ele>
        <time>2021-03-30T07:05:42Z</time>
      </trkpt>
      <trkpt lat="45.54421" lon="6.84058">
        <ele>2782.6</ele>
        <time>2021-03-30T07:05:43Z</time>
      </trkpt>
      <trkpt lat="45.5442" lon="6.84058">
        <ele>2781.5</ele>
        <time>2021-03-30T07:05:44Z</time>
      </trkpt>
      <trkpt lat="45.5442" lon="6.84058">
        <ele>2781.5</ele>
        <time>2021-03-30T07:05:45Z</time>
      </trkpt>
      <trkpt lat="45.54419" lon="6.84057">
        <ele>2781.5</ele>
        <time>2021-03-30T07:05:46Z</time>
      </trkpt>
      <trkpt lat="45.54419" lon="6.84058">
        <ele>2781.6</ele>
        <time>2021-03-30T07:05:47Z</time>
      </trkpt>
      <trkpt lat="45.54419" lon="6.84058">
        <ele>2781.6</ele>
        <time>2021-03-30T07:05:48Z</time>
      </trkpt>
      <trkpt lat="45.54418" lon="6.84058">
        <ele>2783.2</ele>
        <time>2021-03-30T07:05:49Z</time>
      </trkpt>
      <trkpt lat="45.54418" lon="6.84058">
        <ele>2783.2</ele>
        <time>2021-03-30T07:05:50Z</time>
      </trkpt>
      <trkpt lat="45.54418" lon="6.84059">
        <ele>2783.2</ele>
        <time>2021-03-30T07:05:51Z</time>
      </trkpt>
      <trkpt lat="45.54418" lon="6.84059">
        <ele>2783.2</ele>
        <time>2021-03-30T07:05:52Z</time>
      </trkpt>
      <trkpt lat="45.54418" lon="6.84059">
        <ele>2783.2</ele>
        <time>2021-03-30T07:05:53Z</time>
      </trkpt>
      <trkpt lat="45.54419" lon="6.8406">
        <ele>2783.2</ele>
        <time>2021-03-30T07:05:54Z</time>
      </trkpt>
      <trkpt lat="45.54419" lon="6.8406">
        <ele>2783.3</ele>
        <time>2021-03-30T07:05:55Z</time>
      </trkpt>
      <trkpt lat="45.54419" lon="6.84061">
        <ele>2783.3</ele>
        <time>2021-03-30T07:05:56Z</time>
      </trkpt>
      <trkpt lat="45.54419" lon="6.84061">
        <ele>2783.3</ele>
        <time>2021-03-30T07:05:57Z</time>
      </trkpt>
      <trkpt lat="45.5442" lon="6.84062">
        <ele>2783.3</ele>
        <time>2021-03-30T07:05:58Z</time>
      </trkpt>
      <trkpt lat="45.5442" lon="6.84062">
        <ele>2784.8</ele>
        <time>2021-03-30T07:05:59Z</time>
      </trkpt>
      <trkpt lat="45.5442" lon="6.84063">
        <ele>2784.4</ele>
        <time>2021-03-30T07:06:00Z</time>
      </trkpt>
      <trkpt lat="45.5442" lon="6.84064">
        <ele>2784.4</ele>
        <time>2021-03-30T07:06:01Z</time>
      </trkpt>
      <trkpt lat="45.54421" lon="6.84065">
        <ele>2784.4</ele>
        <time>2021-03-30T07:06:02Z</time>
      </trkpt>
      <trkpt lat="45.54421" lon="6.84065">
        <ele>2784.4</ele>
        <time>2021-03-30T07:06:03Z</time>
      </trkpt>
      <trkpt lat="45.54421" lon="6.84066">
        <ele>2784.4</ele>
        <time>2021-03-30T07:06:04Z</time>
      </trkpt>
      <trkpt lat="45.54421" lon="6.84066">
        <ele>2785.8</ele>
        <time>2021-03-30T07:06:05Z</time>
      </trkpt>
      <trkpt lat="45.54422" lon="6.84067">
        <ele>2785.9</ele>
        <time>2021-03-30T07:06:06Z</time>
      </trkpt>
      <trkpt lat="45.54422" lon="6.84068">
        <ele>2785.9</ele>
        <time>2021-03-30T07:06:07Z</time>
      </trkpt>
      <trkpt lat="45.54422" lon="6.84069">
        <ele>2785.9</ele>
        <time>2021-03-30T07:06:08Z</time>
      </trkpt>
      <trkpt lat="45.54423" lon="6.8407">
        <ele>2785.9</ele>
        <time>2021-03-30T07:06:09Z</time>
      </trkpt>
      <trkpt lat="45.54423" lon="6.8407">
        <ele>2785.5</ele>
        <time>2021-03-30T07:06:10Z</time>
      </trkpt>
      <trkpt lat="45.54424" lon="6.84071">
        <ele>2786.9</ele>
        <time>2021-03-30T07:06:11Z</time>
      </trkpt>
      <trkpt lat="45.54424" lon="6.84071">
        <ele>2786.9</ele>
        <time>2021-03-30T07:06:12Z</time>
      </trkpt>
      <trkpt lat="45.54424" lon="6.84072">
        <ele>2786.9</ele>
        <time>2021-03-30T07:06:13Z</time>
      </trkpt>
      <trkpt lat="45.54424" lon="6.84073">
        <ele>2786.9</ele>
        <time>2021-03-30T07:06:14Z</time>
      </trkpt>
      <trkpt lat="45.54425" lon="6.84073">
        <ele>2786.9</ele>
        <time>2021-03-30T07:06:15Z</time>
      </trkpt>
      <trkpt lat="45.54425" lon="6.84073">
        <ele>2786.9</ele>
        <time>2021-03-30T07:06:16Z</time>
      </trkpt>
      <trkpt lat="45.54425" lon="6.84074">
        <ele>2787</ele>
        <time>2021-03-30T07:06:17Z</time>
      </trkpt>
      <trkpt lat="45.54426" lon="6.84074">
        <ele>2787</ele>
        <time>2021-03-30T07:06:18Z</time>
      </trkpt>
      <trkpt lat="45.54426" lon="6.84075">
        <ele>2788.3</ele>
        <time>2021-03-30T07:06:19Z</time>
      </trkpt>
      <trkpt lat="45.54426" lon="6.84075">
        <ele>2788</ele>
        <time>2021-03-30T07:06:20Z</time>
      </trkpt>
      <trkpt lat="45.54426" lon="6.84076">
        <ele>2788</ele>
        <time>2021-03-30T07:06:21Z</time>
      </trkpt>
      <trkpt lat="45.54427" lon="6.84076">
        <ele>2788</ele>
        <time>2021-03-30T07:06:22Z</time>
      </trkpt>
      <trkpt lat="45.54427" lon="6.84077">
        <ele>2788</ele>
        <time>2021-03-30T07:06:23Z</time>
      </trkpt>
      <trkpt lat="45.54427" lon="6.84077">
        <ele>2788</ele>
        <time>2021-03-30T07:06:24Z</time>
      </trkpt>
      <trkpt lat="45.54428" lon="6.84078">
        <ele>2788</ele>
        <time>2021-03-30T07:06:25Z</time>
      </trkpt>
      <trkpt lat="45.54428" lon="6.84078">
        <ele>2788.1</ele>
        <time>2021-03-30T07:06:26Z</time>
      </trkpt>
      <trkpt lat="45.54428" lon="6.84079">
        <ele>2788.1</ele>
        <time>2021-03-30T07:06:27Z</time>
      </trkpt>
      <trkpt lat="45.54429" lon="6.8408">
        <ele>2789.4</ele>
        <time>2021-03-30T07:06:28Z</time>
      </trkpt>
      <trkpt lat="45.54429" lon="6.8408">
        <ele>2789.1</ele>
        <time>2021-03-30T07:06:29Z</time>
      </trkpt>
      <trkpt lat="45.54429" lon="6.84081">
        <ele>2789.2</ele>
        <time>2021-03-30T07:06:30Z</time>
      </trkpt>
      <trkpt lat="45.54429" lon="6.84082">
        <ele>2789.2</ele>
        <time>2021-03-30T07:06:31Z</time>
      </trkpt>
      <trkpt lat="45.5443" lon="6.84082">
        <ele>2789.2</ele>
        <time>2021-03-30T07:06:32Z</time>
      </trkpt>
      <trkpt lat="45.5443" lon="6.84083">
        <ele>2789.2</ele>
        <time>2021-03-30T07:06:33Z</time>
      </trkpt>
      <trkpt lat="45.5443" lon="6.84084">
        <ele>2790.6</ele>
        <time>2021-03-30T07:06:34Z</time>
      </trkpt>
      <trkpt lat="45.5443" lon="6.84085">
        <ele>2790.6</ele>
        <time>2021-03-30T07:06:35Z</time>
      </trkpt>
      <trkpt lat="45.54431" lon="6.84086">
        <ele>2790.7</ele>
        <time>2021-03-30T07:06:36Z</time>
      </trkpt>
      <trkpt lat="45.54431" lon="6.84086">
        <ele>2790.7</ele>
        <time>2021-03-30T07:06:37Z</time>
      </trkpt>
      <trkpt lat="45.54431" lon="6.84087">
        <ele>2790.7</ele>
        <time>2021-03-30T07:06:38Z</time>
      </trkpt>
      <trkpt lat="45.54431" lon="6.84088">
        <ele>2792.1</ele>
        <time>2021-03-30T07:06:39Z</time>
      </trkpt>
      <trkpt lat="45.54432" lon="6.84089">
        <ele>2792.2</ele>
        <time>2021-03-30T07:06:40Z</time>
      </trkpt>
      <trkpt lat="45.54432" lon="6.8409">
        <ele>2792</ele>
        <time>2021-03-30T07:06:41Z</time>
      </trkpt>
      <trkpt lat="45.54433" lon="6.8409">
        <ele>2792</ele>
        <time>2021-03-30T07:06:42Z</time>
      </trkpt>
      <trkpt lat="45.54433" lon="6.84091">
        <ele>2792</ele>
        <time>2021-03-30T07:06:43Z</time>
      </trkpt>
      <trkpt lat="45.54433" lon="6.84092">
        <ele>2792</ele>
        <time>2021-03-30T07:06:44Z</time>
      </trkpt>
      <trkpt lat="45.54433" lon="6.84093">
        <ele>2793.5</ele>
        <time>2021-03-30T07:06:45Z</time>
      </trkpt>
      <trkpt lat="45.54433" lon="6.84093">
        <ele>2793.5</ele>
        <time>2021-03-30T07:06:46Z</time>
      </trkpt>
      <trkpt lat="45.54434" lon="6.84094">
        <ele>2793.5</ele>
        <time>2021-03-30T07:06:47Z</time>
      </trkpt>
      <trkpt lat="45.54434" lon="6.84095">
        <ele>2793.5</ele>
        <time>2021-03-30T07:06:48Z</time>
      </trkpt>
      <trkpt lat="45.54434" lon="6.84095">
        <ele>2793.6</ele>
        <time>2021-03-30T07:06:49Z</time>
      </trkpt>
      <trkpt lat="45.54434" lon="6.84096">
        <ele>2793.6</ele>
        <time>2021-03-30T07:06:50Z</time>
      </trkpt>
      <trkpt lat="45.54434" lon="6.84097">
        <ele>2795</ele>
        <time>2021-03-30T07:06:51Z</time>
      </trkpt>
      <trkpt lat="45.54435" lon="6.84097">
        <ele>2795</ele>
        <time>2021-03-30T07:06:52Z</time>
      </trkpt>
      <trkpt lat="45.54435" lon="6.84098">
        <ele>2795</ele>
        <time>2021-03-30T07:06:53Z</time>
      </trkpt>
      <trkpt lat="45.54436" lon="6.84099">
        <ele>2795</ele>
        <time>2021-03-30T07:06:54Z</time>
      </trkpt>
      <trkpt lat="45.54436" lon="6.84099">
        <ele>2795</ele>
        <time>2021-03-30T07:06:55Z</time>
      </trkpt>
      <trkpt lat="45.54436" lon="6.841">
        <ele>2795</ele>
        <time>2021-03-30T07:06:56Z</time>
      </trkpt>
      <trkpt lat="45.54436" lon="6.84101">
        <ele>2796.5</ele>
        <time>2021-03-30T07:06:57Z</time>
      </trkpt>
      <trkpt lat="45.54437" lon="6.84101">
        <ele>2796.5</ele>
        <time>2021-03-30T07:06:58Z</time>
      </trkpt>
      <trkpt lat="45.54437" lon="6.84102">
        <ele>2796.5</ele>
        <time>2021-03-30T07:06:59Z</time>
      </trkpt>
      <trkpt lat="45.54437" lon="6.84103">
        <ele>2796.5</ele>
        <time>2021-03-30T07:07:00Z</time>
      </trkpt>
      <trkpt lat="45.54437" lon="6.84103">
        <ele>2796.5</ele>
        <time>2021-03-30T07:07:01Z</time>
      </trkpt>
      <trkpt lat="45.54438" lon="6.84104">
        <ele>2796.5</ele>
        <time>2021-03-30T07:07:02Z</time>
      </trkpt>
      <trkpt lat="45.54438" lon="6.84104">
        <ele>2796.6</ele>
        <time>2021-03-30T07:07:03Z</time>
      </trkpt>
      <trkpt lat="45.54438" lon="6.84105">
        <ele>2796.6</ele>
        <time>2021-03-30T07:07:04Z</time>
      </trkpt>
      <trkpt lat="45.54438" lon="6.84106">
        <ele>2798</ele>
        <time>2021-03-30T07:07:05Z</time>
      </trkpt>
      <trkpt lat="45.54438" lon="6.84107">
        <ele>2798</ele>
        <time>2021-03-30T07:07:06Z</time>
      </trkpt>
      <trkpt lat="45.54438" lon="6.84108">
        <ele>2798.1</ele>
        <time>2021-03-30T07:07:07Z</time>
      </trkpt>
      <trkpt lat="45.54438" lon="6.84108">
        <ele>2798.1</ele>
        <time>2021-03-30T07:07:08Z</time>
      </trkpt>
      <trkpt lat="45.54438" lon="6.84109">
        <ele>2798.1</ele>
        <time>2021-03-30T07:07:09Z</time>
      </trkpt>
      <trkpt lat="45.54439" lon="6.8411">
        <ele>2799.5</ele>
        <time>2021-03-30T07:07:10Z</time>
      </trkpt>
      <trkpt lat="45.54439" lon="6.8411">
        <ele>2799.5</ele>
        <time>2021-03-30T07:07:11Z</time>
      </trkpt>
      <trkpt lat="45.54439" lon="6.84111">
        <ele>2799.5</ele>
        <time>2021-03-30T07:07:12Z</time>
      </trkpt>
      <trkpt lat="45.54439" lon="6.84111">
        <ele>2799.6</ele>
        <time>2021-03-30T07:07:13Z</time>
      </trkpt>
      <trkpt lat="45.5444" lon="6.84112">
        <ele>2799.6</ele>
        <time>2021-03-30T07:07:14Z</time>
      </trkpt>
      <trkpt lat="45.5444" lon="6.84112">
        <ele>2799.6</ele>
        <time>2021-03-30T07:07:15Z</time>
      </trkpt>
      <trkpt lat="45.54439" lon="6.84113">
        <ele>2799.6</ele>
        <time>2021-03-30T07:07:16Z</time>
      </trkpt>
      <trkpt lat="45.54437" lon="6.84114">
        <ele>2800.9</ele>
        <time>2021-03-30T07:07:17Z</time>
      </trkpt>
      <trkpt lat="45.54436" lon="6.84114">
        <ele>2800.9</ele>
        <time>2021-03-30T07:07:18Z</time>
      </trkpt>
      <trkpt lat="45.54434" lon="6.84114">
        <ele>2800.9</ele>
        <time>2021-03-30T07:07:19Z</time>
      </trkpt>
      <trkpt lat="45.54433" lon="6.84115">
        <ele>2801</ele>
        <time>2021-03-30T07:07:39Z</time>
      </trkpt>
      <trkpt lat="45.54431" lon="6.84115">
        <ele>2801</ele>
        <time>2021-03-30T07:07:40Z</time>
      </trkpt>
      <trkpt lat="45.54429" lon="6.84115">
        <ele>2801.1</ele>
        <time>2021-03-30T07:07:41Z</time>
      </trkpt>
      <trkpt lat="45.54428" lon="6.84116">
        <ele>2801.2</ele>
        <time>2021-03-30T07:07:42Z</time>
      </trkpt>
      <trkpt lat="45.54427" lon="6.84116">
        <ele>2801.2</ele>
        <time>2021-03-30T07:07:43Z</time>
      </trkpt>
      <trkpt lat="45.54426" lon="6.84115">
        <ele>2801.2</ele>
        <time>2021-03-30T07:07:44Z</time>
      </trkpt>
      <trkpt lat="45.54426" lon="6.84115">
        <ele>2801.4</ele>
        <time>2021-03-30T07:07:45Z</time>
      </trkpt>
      <trkpt lat="45.54425" lon="6.84115">
        <ele>2801.4</ele>
        <time>2021-03-30T07:07:46Z</time>
      </trkpt>
      <trkpt lat="45.54424" lon="6.84115">
        <ele>2801.4</ele>
        <time>2021-03-30T07:07:47Z</time>
      </trkpt>
      <trkpt lat="45.54423" lon="6.84115">
        <ele>2801.5</ele>
        <time>2021-03-30T07:07:48Z</time>
      </trkpt>
      <trkpt lat="45.54423" lon="6.84115">
        <ele>2801.7</ele>
        <time>2021-03-30T07:07:49Z</time>
      </trkpt>
      <trkpt lat="45.54422" lon="6.84115">
        <ele>2801.7</ele>
        <time>2021-03-30T07:07:50Z</time>
      </trkpt>
      <trkpt lat="45.54421" lon="6.84115">
        <ele>2801.7</ele>
        <time>2021-03-30T07:07:51Z</time>
      </trkpt>
      <trkpt lat="45.5442" lon="6.84115">
        <ele>2801.8</ele>
        <time>2021-03-30T07:07:52Z</time>
      </trkpt>
      <trkpt lat="45.5442" lon="6.84116">
        <ele>2802.1</ele>
        <time>2021-03-30T07:07:53Z</time>
      </trkpt>
      <trkpt lat="45.54419" lon="6.84116">
        <ele>2802.1</ele>
        <time>2021-03-30T07:07:54Z</time>
      </trkpt>
      <trkpt lat="45.54419" lon="6.84116">
        <ele>2802.1</ele>
        <time>2021-03-30T07:07:55Z</time>
      </trkpt>
      <trkpt lat="45.54418" lon="6.84115">
        <ele>2802.1</ele>
        <time>2021-03-30T07:07:56Z</time>
      </trkpt>
      <trkpt lat="45.54417" lon="6.84115">
        <ele>2802.1</ele>
        <time>2021-03-30T07:07:57Z</time>
      </trkpt>
      <trkpt lat="45.54417" lon="6.84115">
        <ele>2802.5</ele>
        <time>2021-03-30T07:07:58Z</time>
      </trkpt>
      <trkpt lat="45.54416" lon="6.84115">
        <ele>2802.5</ele>
        <time>2021-03-30T07:07:59Z</time>
      </trkpt>
      <trkpt lat="45.54415" lon="6.84114">
        <ele>2802.5</ele>
        <time>2021-03-30T07:08:00Z</time>
      </trkpt>
      <trkpt lat="45.54415" lon="6.84114">
        <ele>2802.5</ele>
        <time>2021-03-30T07:08:01Z</time>
      </trkpt>
      <trkpt lat="45.54414" lon="6.84114">
        <ele>2802.9</ele>
        <time>2021-03-30T07:08:02Z</time>
      </trkpt>
      <trkpt lat="45.54413" lon="6.84114">
        <ele>2802.9</ele>
        <time>2021-03-30T07:08:03Z</time>
      </trkpt>
      <trkpt lat="45.54412" lon="6.84114">
        <ele>2801.8</ele>
        <time>2021-03-30T07:08:04Z</time>
      </trkpt>
      <trkpt lat="45.54412" lon="6.84114">
        <ele>2801.8</ele>
        <time>2021-03-30T07:08:05Z</time>
      </trkpt>
      <trkpt lat="45.54411" lon="6.84113">
        <ele>2802.2</ele>
        <time>2021-03-30T07:08:06Z</time>
      </trkpt>
      <trkpt lat="45.5441" lon="6.84113">
        <ele>2802.2</ele>
        <time>2021-03-30T07:08:07Z</time>
      </trkpt>
      <trkpt lat="45.5441" lon="6.84113">
        <ele>2802.2</ele>
        <time>2021-03-30T07:08:08Z</time>
      </trkpt>
      <trkpt lat="45.54409" lon="6.84113">
        <ele>2802.3</ele>
        <time>2021-03-30T07:08:09Z</time>
      </trkpt>
      <trkpt lat="45.54408" lon="6.84113">
        <ele>2802.3</ele>
        <time>2021-03-30T07:08:10Z</time>
      </trkpt>
      <trkpt lat="45.54408" lon="6.84113">
        <ele>2802.7</ele>
        <time>2021-03-30T07:08:11Z</time>
      </trkpt>
      <trkpt lat="45.54407" lon="6.84112">
        <ele>2802.7</ele>
        <time>2021-03-30T07:08:12Z</time>
      </trkpt>
      <trkpt lat="45.54406" lon="6.84112">
        <ele>2802.7</ele>
        <time>2021-03-30T07:08:13Z</time>
      </trkpt>
      <trkpt lat="45.54406" lon="6.84112">
        <ele>2802.8</ele>
        <time>2021-03-30T07:08:14Z</time>
      </trkpt>
      <trkpt lat="45.54405" lon="6.84112">
        <ele>2802.8</ele>
        <time>2021-03-30T07:08:15Z</time>
      </trkpt>
      <trkpt lat="45.54404" lon="6.84111">
        <ele>2803.2</ele>
        <time>2021-03-30T07:08:16Z</time>
      </trkpt>
      <trkpt lat="45.54404" lon="6.84111">
        <ele>2803.2</ele>
        <time>2021-03-30T07:08:17Z</time>
      </trkpt>
      <trkpt lat="45.54403" lon="6.8411">
        <ele>2803.2</ele>
        <time>2021-03-30T07:08:18Z</time>
      </trkpt>
      <trkpt lat="45.54403" lon="6.8411">
        <ele>2803.2</ele>
        <time>2021-03-30T07:08:19Z</time>
      </trkpt>
      <trkpt lat="45.54402" lon="6.84109">
        <ele>2803.3</ele>
        <time>2021-03-30T07:08:20Z</time>
      </trkpt>
      <trkpt lat="45.54401" lon="6.84109">
        <ele>2802.5</ele>
        <time>2021-03-30T07:08:21Z</time>
      </trkpt>
      <trkpt lat="45.54401" lon="6.84109">
        <ele>2802.5</ele>
        <time>2021-03-30T07:08:22Z</time>
      </trkpt>
      <trkpt lat="45.544" lon="6.84109">
        <ele>2802.5</ele>
        <time>2021-03-30T07:08:23Z</time>
      </trkpt>
      <trkpt lat="45.544" lon="6.84109">
        <ele>2802.6</ele>
        <time>2021-03-30T07:08:24Z</time>
      </trkpt>
      <trkpt lat="45.54399" lon="6.84109">
        <ele>2802.6</ele>
        <time>2021-03-30T07:08:25Z</time>
      </trkpt>
      <trkpt lat="45.54399" lon="6.84109">
        <ele>2803</ele>
        <time>2021-03-30T07:08:26Z</time>
      </trkpt>
      <trkpt lat="45.54399" lon="6.84109">
        <ele>2803</ele>
        <time>2021-03-30T07:08:27Z</time>
      </trkpt>
      <trkpt lat="45.54398" lon="6.84109">
        <ele>2803.1</ele>
        <time>2021-03-30T07:08:28Z</time>
      </trkpt>
      <trkpt lat="45.54398" lon="6.84108">
        <ele>2803.1</ele>
        <time>2021-03-30T07:08:29Z</time>
      </trkpt>
      <trkpt lat="45.54398" lon="6.84108">
        <ele>2803.1</ele>
        <time>2021-03-30T07:08:30Z</time>
      </trkpt>
      <trkpt lat="45.54397" lon="6.84108">
        <ele>2803.1</ele>
        <time>2021-03-30T07:08:31Z</time>
      </trkpt>
      <trkpt lat="45.54397" lon="6.84107">
        <ele>2803.1</ele>
        <time>2021-03-30T07:08:32Z</time>
      </trkpt>
      <trkpt lat="45.54396" lon="6.84107">
        <ele>2803.1</ele>
        <time>2021-03-30T07:08:33Z</time>
      </trkpt>
      <trkpt lat="45.54396" lon="6.84107">
        <ele>2803.6</ele>
        <time>2021-03-30T07:08:34Z</time>
      </trkpt>
      <trkpt lat="45.54396" lon="6.84106">
        <ele>2803.6</ele>
        <time>2021-03-30T07:08:35Z</time>
      </trkpt>
      <trkpt lat="45.54395" lon="6.84106">
        <ele>2803.6</ele>
        <time>2021-03-30T07:08:36Z</time>
      </trkpt>
      <trkpt lat="45.54395" lon="6.84105">
        <ele>2803.7</ele>
        <time>2021-03-30T07:08:37Z</time>
      </trkpt>
      <trkpt lat="45.54394" lon="6.84105">
        <ele>2802.5</ele>
        <time>2021-03-30T07:08:38Z</time>
      </trkpt>
      <trkpt lat="45.54394" lon="6.84104">
        <ele>2802.5</ele>
        <time>2021-03-30T07:08:39Z</time>
      </trkpt>
      <trkpt lat="45.54393" lon="6.84103">
        <ele>2802.5</ele>
        <time>2021-03-30T07:08:40Z</time>
      </trkpt>
      <trkpt lat="45.54393" lon="6.84103">
        <ele>2803.1</ele>
        <time>2021-03-30T07:08:41Z</time>
      </trkpt>
      <trkpt lat="45.54392" lon="6.84103">
        <ele>2803.1</ele>
        <time>2021-03-30T07:08:42Z</time>
      </trkpt>
      <trkpt lat="45.54391" lon="6.84102">
        <ele>2803.1</ele>
        <time>2021-03-30T07:08:43Z</time>
      </trkpt>
      <trkpt lat="45.54391" lon="6.84103">
        <ele>2803.1</ele>
        <time>2021-03-30T07:08:44Z</time>
      </trkpt>
      <trkpt lat="45.54391" lon="6.84103">
        <ele>2803.1</ele>
        <time>2021-03-30T07:08:45Z</time>
      </trkpt>
      <trkpt lat="45.54391" lon="6.84104">
        <ele>2803.1</ele>
        <time>2021-03-30T07:08:46Z</time>
      </trkpt>
      <trkpt lat="45.54391" lon="6.84104">
        <ele>2803.2</ele>
        <time>2021-03-30T07:08:47Z</time>
      </trkpt>
      <trkpt lat="45.54392" lon="6.84105">
        <ele>2803.2</ele>
        <time>2021-03-30T07:08:48Z</time>
      </trkpt>
      <trkpt lat="45.54392" lon="6.84105">
        <ele>2804.3</ele>
        <time>2021-03-30T07:08:49Z</time>
      </trkpt>
      <trkpt lat="45.54392" lon="6.84106">
        <ele>2804.3</ele>
        <time>2021-03-30T07:08:50Z</time>
      </trkpt>
      <trkpt lat="45.54392" lon="6.84106">
        <ele>2804.4</ele>
        <time>2021-03-30T07:08:51Z</time>
      </trkpt>
      <trkpt lat="45.54392" lon="6.84107">
        <ele>2804.4</ele>
        <time>2021-03-30T07:08:52Z</time>
      </trkpt>
      <trkpt lat="45.54392" lon="6.84108">
        <ele>2804.4</ele>
        <time>2021-03-30T07:08:53Z</time>
      </trkpt>
      <trkpt lat="45.54393" lon="6.84108">
        <ele>2804.4</ele>
        <time>2021-03-30T07:09:07Z</time>
      </trkpt>
      <trkpt lat="45.54393" lon="6.84109">
        <ele>2804.4</ele>
        <time>2021-03-30T07:09:08Z</time>
      </trkpt>
      <trkpt lat="45.54393" lon="6.84109">
        <ele>2804.4</ele>
        <time>2021-03-30T07:09:09Z</time>
      </trkpt>
      <trkpt lat="45.54393" lon="6.8411">
        <ele>2805.1</ele>
        <time>2021-03-30T07:09:10Z</time>
      </trkpt>
      <trkpt lat="45.54393" lon="6.8411">
        <ele>2805.1</ele>
        <time>2021-03-30T07:09:11Z</time>
      </trkpt>
      <trkpt lat="45.54394" lon="6.84111">
        <ele>2805.1</ele>
        <time>2021-03-30T07:09:12Z</time>
      </trkpt>
      <trkpt lat="45.54394" lon="6.84112">
        <ele>2805.2</ele>
        <time>2021-03-30T07:09:13Z</time>
      </trkpt>
      <trkpt lat="45.54394" lon="6.84112">
        <ele>2805.2</ele>
        <time>2021-03-30T07:09:14Z</time>
      </trkpt>
      <trkpt lat="45.54394" lon="6.84113">
        <ele>2805.2</ele>
        <time>2021-03-30T07:09:15Z</time>
      </trkpt>
      <trkpt lat="45.54395" lon="6.84113">
        <ele>2805.2</ele>
        <time>2021-03-30T07:09:16Z</time>
      </trkpt>
      <trkpt lat="45.54395" lon="6.84114">
        <ele>2806.3</ele>
        <time>2021-03-30T07:09:17Z</time>
      </trkpt>
      <trkpt lat="45.54396" lon="6.84115">
        <ele>2806.3</ele>
        <time>2021-03-30T07:09:18Z</time>
      </trkpt>
      <trkpt lat="45.54396" lon="6.84115">
        <ele>2806.3</ele>
        <time>2021-03-30T07:09:19Z</time>
      </trkpt>
      <trkpt lat="45.54396" lon="6.84116">
        <ele>2805.9</ele>
        <time>2021-03-30T07:09:20Z</time>
      </trkpt>
      <trkpt lat="45.54396" lon="6.84117">
        <ele>2806</ele>
        <time>2021-03-30T07:09:21Z</time>
      </trkpt>
      <trkpt lat="45.54397" lon="6.84117">
        <ele>2806</ele>
        <time>2021-03-30T07:09:22Z</time>
      </trkpt>
      <trkpt lat="45.54397" lon="6.84118">
        <ele>2807</ele>
        <time>2021-03-30T07:09:23Z</time>
      </trkpt>
      <trkpt lat="45.54397" lon="6.84119">
        <ele>2807</ele>
        <time>2021-03-30T07:09:24Z</time>
      </trkpt>
      <trkpt lat="45.54397" lon="6.84119">
        <ele>2807</ele>
        <time>2021-03-30T07:09:25Z</time>
      </trkpt>
      <trkpt lat="45.54398" lon="6.8412">
        <ele>2807</ele>
        <time>2021-03-30T07:09:26Z</time>
      </trkpt>
      <trkpt lat="45.54398" lon="6.84121">
        <ele>2807.1</ele>
        <time>2021-03-30T07:09:27Z</time>
      </trkpt>
      <trkpt lat="45.54399" lon="6.84121">
        <ele>2807.1</ele>
        <time>2021-03-30T07:09:28Z</time>
      </trkpt>
      <trkpt lat="45.54399" lon="6.84122">
        <ele>2807.7</ele>
        <time>2021-03-30T07:09:29Z</time>
      </trkpt>
      <trkpt lat="45.544" lon="6.84123">
        <ele>2807.8</ele>
        <time>2021-03-30T07:09:30Z</time>
      </trkpt>
      <trkpt lat="45.544" lon="6.84123">
        <ele>2807.8</ele>
        <time>2021-03-30T07:09:31Z</time>
      </trkpt>
      <trkpt lat="45.544" lon="6.84124">
        <ele>2807.8</ele>
        <time>2021-03-30T07:09:32Z</time>
      </trkpt>
      <trkpt lat="45.544" lon="6.84125">
        <ele>2807.8</ele>
        <time>2021-03-30T07:09:33Z</time>
      </trkpt>
      <trkpt lat="45.544" lon="6.84126">
        <ele>2807.8</ele>
        <time>2021-03-30T07:09:34Z</time>
      </trkpt>
      <trkpt lat="45.54401" lon="6.84127">
        <ele>2808.8</ele>
        <time>2021-03-30T07:09:35Z</time>
      </trkpt>
      <trkpt lat="45.54401" lon="6.84127">
        <ele>2808.8</ele>
        <time>2021-03-30T07:09:36Z</time>
      </trkpt>
      <trkpt lat="45.54401" lon="6.84128">
        <ele>2808.9</ele>
        <time>2021-03-30T07:09:37Z</time>
      </trkpt>
      <trkpt lat="45.54401" lon="6.84129">
        <ele>2808.9</ele>
        <time>2021-03-30T07:09:38Z</time>
      </trkpt>
      <trkpt lat="45.54402" lon="6.8413">
        <ele>2808.9</ele>
        <time>2021-03-30T07:09:39Z</time>
      </trkpt>
      <trkpt lat="45.54402" lon="6.84131">
        <ele>2808.9</ele>
        <time>2021-03-30T07:09:40Z</time>
      </trkpt>
      <trkpt lat="45.54402" lon="6.84132">
        <ele>2809.9</ele>
        <time>2021-03-30T07:09:41Z</time>
      </trkpt>
      <trkpt lat="45.54402" lon="6.84132">
        <ele>2809.7</ele>
        <time>2021-03-30T07:09:42Z</time>
      </trkpt>
      <trkpt lat="45.54402" lon="6.84133">
        <ele>2809.7</ele>
        <time>2021-03-30T07:09:43Z</time>
      </trkpt>
      <trkpt lat="45.54403" lon="6.84134">
        <ele>2809.7</ele>
        <time>2021-03-30T07:09:44Z</time>
      </trkpt>
      <trkpt lat="45.54403" lon="6.84135">
        <ele>2810.7</ele>
        <time>2021-03-30T07:09:45Z</time>
      </trkpt>
      <trkpt lat="45.54403" lon="6.84136">
        <ele>2810.8</ele>
        <time>2021-03-30T07:09:46Z</time>
      </trkpt>
      <trkpt lat="45.54403" lon="6.84137">
        <ele>2810.8</ele>
        <time>2021-03-30T07:09:47Z</time>
      </trkpt>
      <trkpt lat="45.54403" lon="6.84138">
        <ele>2810.8</ele>
        <time>2021-03-30T07:09:48Z</time>
      </trkpt>
      <trkpt lat="45.54403" lon="6.84139">
        <ele>2811.9</ele>
        <time>2021-03-30T07:09:49Z</time>
      </trkpt>
      <trkpt lat="45.54403" lon="6.8414">
        <ele>2811.9</ele>
        <time>2021-03-30T07:09:50Z</time>
      </trkpt>
      <trkpt lat="45.54403" lon="6.84141">
        <ele>2811.9</ele>
        <time>2021-03-30T07:09:51Z</time>
      </trkpt>
      <trkpt lat="45.54404" lon="6.84142">
        <ele>2811.9</ele>
        <time>2021-03-30T07:09:52Z</time>
      </trkpt>
      <trkpt lat="45.54404" lon="6.84143">
        <ele>2811.9</ele>
        <time>2021-03-30T07:09:53Z</time>
      </trkpt>
      <trkpt lat="45.54404" lon="6.84144">
        <ele>2813</ele>
        <time>2021-03-30T07:09:54Z</time>
      </trkpt>
      <trkpt lat="45.54404" lon="6.84145">
        <ele>2813</ele>
        <time>2021-03-30T07:09:55Z</time>
      </trkpt>
      <trkpt lat="45.54404" lon="6.84145">
        <ele>2813</ele>
        <time>2021-03-30T07:09:56Z</time>
      </trkpt>
      <trkpt lat="45.54405" lon="6.84146">
        <ele>2813</ele>
        <time>2021-03-30T07:09:57Z</time>
      </trkpt>
      <trkpt lat="45.54405" lon="6.84147">
        <ele>2813.1</ele>
        <time>2021-03-30T07:09:58Z</time>
      </trkpt>
      <trkpt lat="45.54405" lon="6.84147">
        <ele>2813.1</ele>
        <time>2021-03-30T07:09:59Z</time>
      </trkpt>
      <trkpt lat="45.54405" lon="6.84148">
        <ele>2812.9</ele>
        <time>2021-03-30T07:10:00Z</time>
      </trkpt>
      <trkpt lat="45.54405" lon="6.84148">
        <ele>2814</ele>
        <time>2021-03-30T07:10:01Z</time>
      </trkpt>
      <trkpt lat="45.54406" lon="6.84149">
        <ele>2814</ele>
        <time>2021-03-30T07:10:02Z</time>
      </trkpt>
      <trkpt lat="45.54406" lon="6.8415">
        <ele>2814</ele>
        <time>2021-03-30T07:10:03Z</time>
      </trkpt>
      <trkpt lat="45.54406" lon="6.84151">
        <ele>2814</ele>
        <time>2021-03-30T07:10:04Z</time>
      </trkpt>
      <trkpt lat="45.54406" lon="6.84152">
        <ele>2814</ele>
        <time>2021-03-30T07:10:05Z</time>
      </trkpt>
      <trkpt lat="45.54407" lon="6.84153">
        <ele>2815.1</ele>
        <time>2021-03-30T07:10:06Z</time>
      </trkpt>
      <trkpt lat="45.54407" lon="6.84154">
        <ele>2815.1</ele>
        <time>2021-03-30T07:10:07Z</time>
      </trkpt>
      <trkpt lat="45.54408" lon="6.84155">
        <ele>2815.1</ele>
        <time>2021-03-30T07:10:08Z</time>
      </trkpt>
      <trkpt lat="45.54408" lon="6.84156">
        <ele>2815.1</ele>
        <time>2021-03-30T07:10:09Z</time>
      </trkpt>
      <trkpt lat="45.54408" lon="6.84156">
        <ele>2815.1</ele>
        <time>2021-03-30T07:10:10Z</time>
      </trkpt>
      <trkpt lat="45.54409" lon="6.84157">
        <ele>2816.2</ele>
        <time>2021-03-30T07:10:11Z</time>
      </trkpt>
      <trkpt lat="45.54409" lon="6.84158">
        <ele>2816.2</ele>
        <time>2021-03-30T07:10:12Z</time>
      </trkpt>
      <trkpt lat="45.54409" lon="6.84159">
        <ele>2816.2</ele>
        <time>2021-03-30T07:10:13Z</time>
      </trkpt>
      <trkpt lat="45.54409" lon="6.8416">
        <ele>2816.2</ele>
        <time>2021-03-30T07:10:14Z</time>
      </trkpt>
      <trkpt lat="45.5441" lon="6.8416">
        <ele>2816.2</ele>
        <time>2021-03-30T07:10:15Z</time>
      </trkpt>
      <trkpt lat="45.5441" lon="6.84161">
        <ele>2817.3</ele>
        <time>2021-03-30T07:10:16Z</time>
      </trkpt>
      <trkpt lat="45.54411" lon="6.84161">
        <ele>2817.3</ele>
        <time>2021-03-30T07:10:17Z</time>
      </trkpt>
      <trkpt lat="45.54411" lon="6.84162">
        <ele>2817.3</ele>
        <time>2021-03-30T07:10:18Z</time>
      </trkpt>
      <trkpt lat="45.54411" lon="6.84163">
        <ele>2817.4</ele>
        <time>2021-03-30T07:10:19Z</time>
      </trkpt>
      <trkpt lat="45.54411" lon="6.84164">
        <ele>2817.4</ele>
        <time>2021-03-30T07:10:20Z</time>
      </trkpt>
      <trkpt lat="45.54411" lon="6.84164">
        <ele>2817.4</ele>
        <time>2021-03-30T07:10:21Z</time>
      </trkpt>
      <trkpt lat="45.5441" lon="6.84165">
        <ele>2817.4</ele>
        <time>2021-03-30T07:10:22Z</time>
      </trkpt>
      <trkpt lat="45.5441" lon="6.84166">
        <ele>2818.5</ele>
        <time>2021-03-30T07:10:23Z</time>
      </trkpt>
      <trkpt lat="45.54409" lon="6.84166">
        <ele>2818.5</ele>
        <time>2021-03-30T07:10:24Z</time>
      </trkpt>
      <trkpt lat="45.54408" lon="6.84167">
        <ele>2818.5</ele>
        <time>2021-03-30T07:10:25Z</time>
      </trkpt>
      <trkpt lat="45.54407" lon="6.84167">
        <ele>2818.6</ele>
        <time>2021-03-30T07:10:26Z</time>
      </trkpt>
      <trkpt lat="45.54406" lon="6.84167">
        <ele>2818.6</ele>
        <time>2021-03-30T07:10:27Z</time>
      </trkpt>
      <trkpt lat="45.54405" lon="6.84168">
        <ele>2818.6</ele>
        <time>2021-03-30T07:10:28Z</time>
      </trkpt>
      <trkpt lat="45.54404" lon="6.84168">
        <ele>2818.6</ele>
        <time>2021-03-30T07:10:29Z</time>
      </trkpt>
      <trkpt lat="45.54403" lon="6.84169">
        <ele>2818.7</ele>
        <time>2021-03-30T07:10:30Z</time>
      </trkpt>
      <trkpt lat="45.54402" lon="6.84169">
        <ele>2818.7</ele>
        <time>2021-03-30T07:10:31Z</time>
      </trkpt>
      <trkpt lat="45.54401" lon="6.84169">
        <ele>2819.8</ele>
        <time>2021-03-30T07:10:32Z</time>
      </trkpt>
      <trkpt lat="45.544" lon="6.8417">
        <ele>2819.8</ele>
        <time>2021-03-30T07:10:33Z</time>
      </trkpt>
      <trkpt lat="45.544" lon="6.84171">
        <ele>2819.8</ele>
        <time>2021-03-30T07:10:34Z</time>
      </trkpt>
      <trkpt lat="45.54399" lon="6.84171">
        <ele>2819.9</ele>
        <time>2021-03-30T07:10:35Z</time>
      </trkpt>
      <trkpt lat="45.54399" lon="6.84172">
        <ele>2819.9</ele>
        <time>2021-03-30T07:10:36Z</time>
      </trkpt>
      <trkpt lat="45.54399" lon="6.84173">
        <ele>2819.9</ele>
        <time>2021-03-30T07:10:37Z</time>
      </trkpt>
      <trkpt lat="45.54398" lon="6.84174">
        <ele>2821</ele>
        <time>2021-03-30T07:10:38Z</time>
      </trkpt>
      <trkpt lat="45.54398" lon="6.84175">
        <ele>2821</ele>
        <time>2021-03-30T07:10:39Z</time>
      </trkpt>
      <trkpt lat="45.54398" lon="6.84176">
        <ele>2821</ele>
        <time>2021-03-30T07:10:40Z</time>
      </trkpt>
      <trkpt lat="45.54398" lon="6.84177">
        <ele>2821.1</ele>
        <time>2021-03-30T07:10:41Z</time>
      </trkpt>
      <trkpt lat="45.54398" lon="6.84178">
        <ele>2822.1</ele>
        <time>2021-03-30T07:10:42Z</time>
      </trkpt>
      <trkpt lat="45.54399" lon="6.84179">
        <ele>2822.1</ele>
        <time>2021-03-30T07:10:43Z</time>
      </trkpt>
      <trkpt lat="45.54399" lon="6.8418">
        <ele>2822.2</ele>
        <time>2021-03-30T07:10:44Z</time>
      </trkpt>
      <trkpt lat="45.54399" lon="6.84181">
        <ele>2822.2</ele>
        <time>2021-03-30T07:10:45Z</time>
      </trkpt>
      <trkpt lat="45.54399" lon="6.84182">
        <ele>2822.2</ele>
        <time>2021-03-30T07:10:46Z</time>
      </trkpt>
      <trkpt lat="45.54399" lon="6.84183">
        <ele>2823.3</ele>
        <time>2021-03-30T07:10:47Z</time>
      </trkpt>
      <trkpt lat="45.54399" lon="6.84184">
        <ele>2823.3</ele>
        <time>2021-03-30T07:10:48Z</time>
      </trkpt>
      <trkpt lat="45.54399" lon="6.84185">
        <ele>2823.3</ele>
        <time>2021-03-30T07:10:49Z</time>
      </trkpt>
      <trkpt lat="45.54399" lon="6.84186">
        <ele>2823.3</ele>
        <time>2021-03-30T07:10:50Z</time>
      </trkpt>
      <trkpt lat="45.54398" lon="6.84187">
        <ele>2824.4</ele>
        <time>2021-03-30T07:10:51Z</time>
      </trkpt>
      <trkpt lat="45.54398" lon="6.84188">
        <ele>2824.4</ele>
        <time>2021-03-30T07:10:52Z</time>
      </trkpt>
      <trkpt lat="45.54398" lon="6.84188">
        <ele>2824.4</ele>
        <time>2021-03-30T07:10:53Z</time>
      </trkpt>
      <trkpt lat="45.54397" lon="6.84189">
        <ele>2824.4</ele>
        <time>2021-03-30T07:10:54Z</time>
      </trkpt>
      <trkpt lat="45.54397" lon="6.8419">
        <ele>2824.4</ele>
        <time>2021-03-30T07:10:55Z</time>
      </trkpt>
      <trkpt lat="45.54396" lon="6.84191">
        <ele>2824.5</ele>
        <time>2021-03-30T07:10:56Z</time>
      </trkpt>
      <trkpt lat="45.54396" lon="6.84192">
        <ele>2825.4</ele>
        <time>2021-03-30T07:10:57Z</time>
      </trkpt>
      <trkpt lat="45.54395" lon="6.84192">
        <ele>2825.5</ele>
        <time>2021-03-30T07:10:58Z</time>
      </trkpt>
      <trkpt lat="45.54395" lon="6.84193">
        <ele>2825.5</ele>
        <time>2021-03-30T07:10:59Z</time>
      </trkpt>
      <trkpt lat="45.54394" lon="6.84194">
        <ele>2825.5</ele>
        <time>2021-03-30T07:11:00Z</time>
      </trkpt>
      <trkpt lat="45.54394" lon="6.84195">
        <ele>2826.5</ele>
        <time>2021-03-30T07:11:01Z</time>
      </trkpt>
      <trkpt lat="45.54394" lon="6.84196">
        <ele>2826.5</ele>
        <time>2021-03-30T07:11:02Z</time>
      </trkpt>
      <trkpt lat="45.54394" lon="6.84197">
        <ele>2826.5</ele>
        <time>2021-03-30T07:11:03Z</time>
      </trkpt>
      <trkpt lat="45.54393" lon="6.84198">
        <ele>2826.5</ele>
        <time>2021-03-30T07:11:04Z</time>
      </trkpt>
      <trkpt lat="45.54393" lon="6.84199">
        <ele>2826.6</ele>
        <time>2021-03-30T07:11:05Z</time>
      </trkpt>
      <trkpt lat="45.54393" lon="6.842">
        <ele>2827.5</ele>
        <time>2021-03-30T07:11:06Z</time>
      </trkpt>
      <trkpt lat="45.54393" lon="6.84201">
        <ele>2827.5</ele>
        <time>2021-03-30T07:11:07Z</time>
      </trkpt>
      <trkpt lat="45.54393" lon="6.84202">
        <ele>2827.5</ele>
        <time>2021-03-30T07:11:08Z</time>
      </trkpt>
      <trkpt lat="45.54393" lon="6.84203">
        <ele>2827.5</ele>
        <time>2021-03-30T07:11:09Z</time>
      </trkpt>
      <trkpt lat="45.54393" lon="6.84204">
        <ele>2828.4</ele>
        <time>2021-03-30T07:11:10Z</time>
      </trkpt>
      <trkpt lat="45.54394" lon="6.84205">
        <ele>2828.4</ele>
        <time>2021-03-30T07:11:11Z</time>
      </trkpt>
      <trkpt lat="45.54394" lon="6.84206">
        <ele>2828.4</ele>
        <time>2021-03-30T07:11:12Z</time>
      </trkpt>
      <trkpt lat="45.54394" lon="6.84207">
        <ele>2828.5</ele>
        <time>2021-03-30T07:11:13Z</time>
      </trkpt>
      <trkpt lat="45.54394" lon="6.84207">
        <ele>2828.5</ele>
        <time>2021-03-30T07:11:14Z</time>
      </trkpt>
      <trkpt lat="45.54394" lon="6.84208">
        <ele>2828.5</ele>
        <time>2021-03-30T07:11:15Z</time>
      </trkpt>
      <trkpt lat="45.54395" lon="6.84208">
        <ele>2829.4</ele>
        <time>2021-03-30T07:11:16Z</time>
      </trkpt>
      <trkpt lat="45.54395" lon="6.84209">
        <ele>2829.4</ele>
        <time>2021-03-30T07:11:17Z</time>
      </trkpt>
      <trkpt lat="45.54396" lon="6.84209">
        <ele>2829.4</ele>
        <time>2021-03-30T07:11:18Z</time>
      </trkpt>
      <trkpt lat="45.54396" lon="6.8421">
        <ele>2829.4</ele>
        <time>2021-03-30T07:11:19Z</time>
      </trkpt>
      <trkpt lat="45.54396" lon="6.84211">
        <ele>2829.5</ele>
        <time>2021-03-30T07:11:20Z</time>
      </trkpt>
      <trkpt lat="45.54397" lon="6.84211">
        <ele>2829.5</ele>
        <time>2021-03-30T07:11:21Z</time>
      </trkpt>
      <trkpt lat="45.54397" lon="6.84212">
        <ele>2829.6</ele>
        <time>2021-03-30T07:11:22Z</time>
      </trkpt>
      <trkpt lat="45.54397" lon="6.84213">
        <ele>2830.4</ele>
        <time>2021-03-30T07:11:23Z</time>
      </trkpt>
      <trkpt lat="45.54397" lon="6.84213">
        <ele>2830.5</ele>
        <time>2021-03-30T07:11:24Z</time>
      </trkpt>
      <trkpt lat="45.54398" lon="6.84214">
        <ele>2830.5</ele>
        <time>2021-03-30T07:11:25Z</time>
      </trkpt>
      <trkpt lat="45.54398" lon="6.84215">
        <ele>2830.5</ele>
        <time>2021-03-30T07:11:26Z</time>
      </trkpt>
      <trkpt lat="45.54398" lon="6.84216">
        <ele>2830.5</ele>
        <time>2021-03-30T07:11:27Z</time>
      </trkpt>
      <trkpt lat="45.54398" lon="6.84217">
        <ele>2831.4</ele>
        <time>2021-03-30T07:11:28Z</time>
      </trkpt>
      <trkpt lat="45.54398" lon="6.84218">
        <ele>2831.5</ele>
        <time>2021-03-30T07:11:29Z</time>
      </trkpt>
      <trkpt lat="45.54398" lon="6.84219">
        <ele>2831.5</ele>
        <time>2021-03-30T07:11:30Z</time>
      </trkpt>
      <trkpt lat="45.54398" lon="6.8422">
        <ele>2831.5</ele>
        <time>2021-03-30T07:11:31Z</time>
      </trkpt>
      <trkpt lat="45.54399" lon="6.8422">
        <ele>2831.5</ele>
        <time>2021-03-30T07:11:32Z</time>
      </trkpt>
      <trkpt lat="45.54399" lon="6.84221">
        <ele>2832.5</ele>
        <time>2021-03-30T07:11:33Z</time>
      </trkpt>
      <trkpt lat="45.54399" lon="6.84222">
        <ele>2832.7</ele>
        <time>2021-03-30T07:11:34Z</time>
      </trkpt>
      <trkpt lat="45.54399" lon="6.84222">
        <ele>2832.7</ele>
        <time>2021-03-30T07:11:35Z</time>
      </trkpt>
      <trkpt lat="45.54399" lon="6.84223">
        <ele>2832.7</ele>
        <time>2021-03-30T07:11:36Z</time>
      </trkpt>
      <trkpt lat="45.544" lon="6.84224">
        <ele>2832.7</ele>
        <time>2021-03-30T07:11:37Z</time>
      </trkpt>
      <trkpt lat="45.544" lon="6.84225">
        <ele>2833.8</ele>
        <time>2021-03-30T07:11:38Z</time>
      </trkpt>
      <trkpt lat="45.544" lon="6.84226">
        <ele>2833.8</ele>
        <time>2021-03-30T07:11:39Z</time>
      </trkpt>
      <trkpt lat="45.544" lon="6.84227">
        <ele>2833.8</ele>
        <time>2021-03-30T07:11:40Z</time>
      </trkpt>
      <trkpt lat="45.544" lon="6.84228">
        <ele>2833.8</ele>
        <time>2021-03-30T07:11:41Z</time>
      </trkpt>
      <trkpt lat="45.544" lon="6.84228">
        <ele>2833.9</ele>
        <time>2021-03-30T07:11:42Z</time>
      </trkpt>
      <trkpt lat="45.544" lon="6.84229">
        <ele>2834.9</ele>
        <time>2021-03-30T07:11:43Z</time>
      </trkpt>
      <trkpt lat="45.544" lon="6.8423">
        <ele>2834.9</ele>
        <time>2021-03-30T07:11:44Z</time>
      </trkpt>
      <trkpt lat="45.54401" lon="6.84231">
        <ele>2834.9</ele>
        <time>2021-03-30T07:11:45Z</time>
      </trkpt>
      <trkpt lat="45.54401" lon="6.84232">
        <ele>2834.9</ele>
        <time>2021-03-30T07:11:46Z</time>
      </trkpt>
      <trkpt lat="45.54401" lon="6.84233">
        <ele>2835</ele>
        <time>2021-03-30T07:11:47Z</time>
      </trkpt>
      <trkpt lat="45.54401" lon="6.84234">
        <ele>2836</ele>
        <time>2021-03-30T07:11:48Z</time>
      </trkpt>
      <trkpt lat="45.54401" lon="6.84235">
        <ele>2836</ele>
        <time>2021-03-30T07:11:49Z</time>
      </trkpt>
      <trkpt lat="45.54401" lon="6.84237">
        <ele>2836</ele>
        <time>2021-03-30T07:11:50Z</time>
      </trkpt>
      <trkpt lat="45.54401" lon="6.84238">
        <ele>2836</ele>
        <time>2021-03-30T07:11:51Z</time>
      </trkpt>
      <trkpt lat="45.54401" lon="6.84239">
        <ele>2837</ele>
        <time>2021-03-30T07:11:52Z</time>
      </trkpt>
      <trkpt lat="45.54402" lon="6.8424">
        <ele>2837</ele>
        <time>2021-03-30T07:11:53Z</time>
      </trkpt>
      <trkpt lat="45.54402" lon="6.84241">
        <ele>2837</ele>
        <time>2021-03-30T07:11:54Z</time>
      </trkpt>
      <trkpt lat="45.54402" lon="6.84242">
        <ele>2837.9</ele>
        <time>2021-03-30T07:11:55Z</time>
      </trkpt>
      <trkpt lat="45.54402" lon="6.84243">
        <ele>2838.3</ele>
        <time>2021-03-30T07:11:56Z</time>
      </trkpt>
      <trkpt lat="45.54402" lon="6.84244">
        <ele>2838.3</ele>
        <time>2021-03-30T07:11:57Z</time>
      </trkpt>
      <trkpt lat="45.54403" lon="6.84244">
        <ele>2838.3</ele>
        <time>2021-03-30T07:11:58Z</time>
      </trkpt>
      <trkpt lat="45.54403" lon="6.84245">
        <ele>2838.3</ele>
        <time>2021-03-30T07:11:59Z</time>
      </trkpt>
      <trkpt lat="45.54403" lon="6.84246">
        <ele>2838.3</ele>
        <time>2021-03-30T07:12:00Z</time>
      </trkpt>
      <trkpt lat="45.54404" lon="6.84247">
        <ele>2839.3</ele>
        <time>2021-03-30T07:12:01Z</time>
      </trkpt>
      <trkpt lat="45.54405" lon="6.84248">
        <ele>2839.3</ele>
        <time>2021-03-30T07:12:02Z</time>
      </trkpt>
      <trkpt lat="45.54405" lon="6.84248">
        <ele>2839.3</ele>
        <time>2021-03-30T07:12:03Z</time>
      </trkpt>
      <trkpt lat="45.54405" lon="6.84249">
        <ele>2839.7</ele>
        <time>2021-03-30T07:12:04Z</time>
      </trkpt>
      <trkpt lat="45.54406" lon="6.8425">
        <ele>2839.7</ele>
        <time>2021-03-30T07:12:05Z</time>
      </trkpt>
      <trkpt lat="45.54406" lon="6.8425">
        <ele>2839.7</ele>
        <time>2021-03-30T07:12:06Z</time>
      </trkpt>
      <trkpt lat="45.54406" lon="6.84251">
        <ele>2840.6</ele>
        <time>2021-03-30T07:12:07Z</time>
      </trkpt>
      <trkpt lat="45.54407" lon="6.84252">
        <ele>2840.7</ele>
        <time>2021-03-30T07:12:08Z</time>
      </trkpt>
      <trkpt lat="45.54407" lon="6.84253">
        <ele>2840.7</ele>
        <time>2021-03-30T07:12:09Z</time>
      </trkpt>
      <trkpt lat="45.54407" lon="6.84254">
        <ele>2840.7</ele>
        <time>2021-03-30T07:12:10Z</time>
      </trkpt>
      <trkpt lat="45.54407" lon="6.84255">
        <ele>2840.7</ele>
        <time>2021-03-30T07:12:11Z</time>
      </trkpt>
      <trkpt lat="45.54407" lon="6.84256">
        <ele>2841.6</ele>
        <time>2021-03-30T07:12:12Z</time>
      </trkpt>
      <trkpt lat="45.54407" lon="6.84257">
        <ele>2841.6</ele>
        <time>2021-03-30T07:12:13Z</time>
      </trkpt>
      <trkpt lat="45.54408" lon="6.84258">
        <ele>2841.7</ele>
        <time>2021-03-30T07:12:14Z</time>
      </trkpt>
      <trkpt lat="45.54408" lon="6.84259">
        <ele>2841.7</ele>
        <time>2021-03-30T07:12:15Z</time>
      </trkpt>
      <trkpt lat="45.54408" lon="6.8426">
        <ele>2843.1</ele>
        <time>2021-03-30T07:12:16Z</time>
      </trkpt>
      <trkpt lat="45.54409" lon="6.84261">
        <ele>2843.1</ele>
        <time>2021-03-30T07:12:17Z</time>
      </trkpt>
      <trkpt lat="45.54409" lon="6.84262">
        <ele>2843.1</ele>
        <time>2021-03-30T07:12:18Z</time>
      </trkpt>
      <trkpt lat="45.54409" lon="6.84263">
        <ele>2843.1</ele>
        <time>2021-03-30T07:12:19Z</time>
      </trkpt>
      <trkpt lat="45.5441" lon="6.84264">
        <ele>2843.2</ele>
        <time>2021-03-30T07:12:20Z</time>
      </trkpt>
      <trkpt lat="45.5441" lon="6.84265">
        <ele>2844.1</ele>
        <time>2021-03-30T07:12:21Z</time>
      </trkpt>
      <trkpt lat="45.5441" lon="6.84266">
        <ele>2844.1</ele>
        <time>2021-03-30T07:12:22Z</time>
      </trkpt>
      <trkpt lat="45.5441" lon="6.84267">
        <ele>2844.2</ele>
        <time>2021-03-30T07:12:23Z</time>
      </trkpt>
      <trkpt lat="45.5441" lon="6.84268">
        <ele>2844.2</ele>
        <time>2021-03-30T07:12:24Z</time>
      </trkpt>
      <trkpt lat="45.5441" lon="6.84269">
        <ele>2845.2</ele>
        <time>2021-03-30T07:12:25Z</time>
      </trkpt>
      <trkpt lat="45.54409" lon="6.8427">
        <ele>2845.2</ele>
        <time>2021-03-30T07:12:26Z</time>
      </trkpt>
      <trkpt lat="45.54409" lon="6.84271">
        <ele>2845.3</ele>
        <time>2021-03-30T07:12:27Z</time>
      </trkpt>
      <trkpt lat="45.54409" lon="6.84273">
        <ele>2846.4</ele>
        <time>2021-03-30T07:12:28Z</time>
      </trkpt>
      <trkpt lat="45.54409" lon="6.84274">
        <ele>2846.4</ele>
        <time>2021-03-30T07:12:29Z</time>
      </trkpt>
      <trkpt lat="45.54409" lon="6.84275">
        <ele>2846.4</ele>
        <time>2021-03-30T07:12:30Z</time>
      </trkpt>
      <trkpt lat="45.54409" lon="6.84276">
        <ele>2846.4</ele>
        <time>2021-03-30T07:12:31Z</time>
      </trkpt>
      <trkpt lat="45.5441" lon="6.84277">
        <ele>2847.5</ele>
        <time>2021-03-30T07:12:32Z</time>
      </trkpt>
      <trkpt lat="45.5441" lon="6.84278">
        <ele>2847.5</ele>
        <time>2021-03-30T07:12:33Z</time>
      </trkpt>
      <trkpt lat="45.5441" lon="6.84279">
        <ele>2847.6</ele>
        <time>2021-03-30T07:12:34Z</time>
      </trkpt>
      <trkpt lat="45.5441" lon="6.8428">
        <ele>2847.6</ele>
        <time>2021-03-30T07:12:35Z</time>
      </trkpt>
      <trkpt lat="45.5441" lon="6.84281">
        <ele>2847.6</ele>
        <time>2021-03-30T07:12:36Z</time>
      </trkpt>
      <trkpt lat="45.5441" lon="6.84282">
        <ele>2848.7</ele>
        <time>2021-03-30T07:12:37Z</time>
      </trkpt>
      <trkpt lat="45.54411" lon="6.84282">
        <ele>2848.7</ele>
        <time>2021-03-30T07:12:38Z</time>
      </trkpt>
      <trkpt lat="45.54412" lon="6.84283">
        <ele>2849.3</ele>
        <time>2021-03-30T07:12:39Z</time>
      </trkpt>
      <trkpt lat="45.54412" lon="6.84283">
        <ele>2849.2</ele>
        <time>2021-03-30T07:12:40Z</time>
      </trkpt>
      <trkpt lat="45.54413" lon="6.84284">
        <ele>2849.3</ele>
        <time>2021-03-30T07:12:41Z</time>
      </trkpt>
      <trkpt lat="45.54413" lon="6.84285">
        <ele>2849.3</ele>
        <time>2021-03-30T07:12:42Z</time>
      </trkpt>
      <trkpt lat="45.54413" lon="6.84286">
        <ele>2850.3</ele>
        <time>2021-03-30T07:12:43Z</time>
      </trkpt>
      <trkpt lat="45.54413" lon="6.84286">
        <ele>2850.4</ele>
        <time>2021-03-30T07:12:44Z</time>
      </trkpt>
      <trkpt lat="45.54413" lon="6.84287">
        <ele>2850.4</ele>
        <time>2021-03-30T07:12:45Z</time>
      </trkpt>
      <trkpt lat="45.54413" lon="6.84288">
        <ele>2850.4</ele>
        <time>2021-03-30T07:12:46Z</time>
      </trkpt>
      <trkpt lat="45.54414" lon="6.84289">
        <ele>2850.3</ele>
        <time>2021-03-30T07:12:47Z</time>
      </trkpt>
      <trkpt lat="45.54414" lon="6.8429">
        <ele>2851.3</ele>
        <time>2021-03-30T07:12:48Z</time>
      </trkpt>
      <trkpt lat="45.54414" lon="6.84292">
        <ele>2851.3</ele>
        <time>2021-03-30T07:12:49Z</time>
      </trkpt>
      <trkpt lat="45.54414" lon="6.84293">
        <ele>2851.3</ele>
        <time>2021-03-30T07:12:50Z</time>
      </trkpt>
      <trkpt lat="45.54414" lon="6.84294">
        <ele>2853</ele>
        <time>2021-03-30T07:12:51Z</time>
      </trkpt>
      <trkpt lat="45.54414" lon="6.84295">
        <ele>2853</ele>
        <time>2021-03-30T07:12:52Z</time>
      </trkpt>
      <trkpt lat="45.54415" lon="6.84296">
        <ele>2853</ele>
        <time>2021-03-30T07:12:53Z</time>
      </trkpt>
      <trkpt lat="45.54415" lon="6.84297">
        <ele>2852.9</ele>
        <time>2021-03-30T07:12:54Z</time>
      </trkpt>
      <trkpt lat="45.54415" lon="6.84298">
        <ele>2853.9</ele>
        <time>2021-03-30T07:12:55Z</time>
      </trkpt>
      <trkpt lat="45.54415" lon="6.843">
        <ele>2853.9</ele>
        <time>2021-03-30T07:12:56Z</time>
      </trkpt>
      <trkpt lat="45.54415" lon="6.84301">
        <ele>2853.9</ele>
        <time>2021-03-30T07:12:57Z</time>
      </trkpt>
      <trkpt lat="45.54416" lon="6.84302">
        <ele>2853.9</ele>
        <time>2021-03-30T07:12:58Z</time>
      </trkpt>
      <trkpt lat="45.54416" lon="6.84303">
        <ele>2854.8</ele>
        <time>2021-03-30T07:12:59Z</time>
      </trkpt>
      <trkpt lat="45.54416" lon="6.84305">
        <ele>2854.8</ele>
        <time>2021-03-30T07:13:00Z</time>
      </trkpt>
      <trkpt lat="45.54416" lon="6.84306">
        <ele>2854.8</ele>
        <time>2021-03-30T07:13:01Z</time>
      </trkpt>
      <trkpt lat="45.54416" lon="6.84307">
        <ele>2855.9</ele>
        <time>2021-03-30T07:13:02Z</time>
      </trkpt>
      <trkpt lat="45.54416" lon="6.84308">
        <ele>2855.9</ele>
        <time>2021-03-30T07:13:03Z</time>
      </trkpt>
      <trkpt lat="45.54417" lon="6.84309">
        <ele>2855.9</ele>
        <time>2021-03-30T07:13:04Z</time>
      </trkpt>
      <trkpt lat="45.54417" lon="6.8431">
        <ele>2855.8</ele>
        <time>2021-03-30T07:13:05Z</time>
      </trkpt>
      <trkpt lat="45.54417" lon="6.84311">
        <ele>2855.8</ele>
        <time>2021-03-30T07:13:06Z</time>
      </trkpt>
      <trkpt lat="45.54417" lon="6.84312">
        <ele>2857.6</ele>
        <time>2021-03-30T07:13:07Z</time>
      </trkpt>
      <trkpt lat="45.54417" lon="6.84313">
        <ele>2857.7</ele>
        <time>2021-03-30T07:13:08Z</time>
      </trkpt>
      <trkpt lat="45.54417" lon="6.84314">
        <ele>2857.6</ele>
        <time>2021-03-30T07:13:09Z</time>
      </trkpt>
      <trkpt lat="45.54417" lon="6.84315">
        <ele>2857.7</ele>
        <time>2021-03-30T07:13:10Z</time>
      </trkpt>
      <trkpt lat="45.54417" lon="6.84316">
        <ele>2858.1</ele>
        <time>2021-03-30T07:13:11Z</time>
      </trkpt>
      <trkpt lat="45.54417" lon="6.84317">
        <ele>2858.2</ele>
        <time>2021-03-30T07:13:12Z</time>
      </trkpt>
      <trkpt lat="45.54417" lon="6.84318">
        <ele>2858.2</ele>
        <time>2021-03-30T07:13:13Z</time>
      </trkpt>
      <trkpt lat="45.54417" lon="6.84319">
        <ele>2858.3</ele>
        <time>2021-03-30T07:13:14Z</time>
      </trkpt>
      <trkpt lat="45.54417" lon="6.8432">
        <ele>2858.8</ele>
        <time>2021-03-30T07:13:15Z</time>
      </trkpt>
      <trkpt lat="45.54417" lon="6.84321">
        <ele>2858.9</ele>
        <time>2021-03-30T07:13:16Z</time>
      </trkpt>
      <trkpt lat="45.54417" lon="6.84322">
        <ele>2859</ele>
        <time>2021-03-30T07:13:17Z</time>
      </trkpt>
      <trkpt lat="45.54417" lon="6.84323">
        <ele>2859.1</ele>
        <time>2021-03-30T07:13:18Z</time>
      </trkpt>
      <trkpt lat="45.54417" lon="6.84324">
        <ele>2859.2</ele>
        <time>2021-03-30T07:13:19Z</time>
      </trkpt>
      <trkpt lat="45.54417" lon="6.84326">
        <ele>2859.4</ele>
        <time>2021-03-30T07:13:20Z</time>
      </trkpt>
      <trkpt lat="45.54417" lon="6.84327">
        <ele>2859.5</ele>
        <time>2021-03-30T07:13:21Z</time>
      </trkpt>
      <trkpt lat="45.54416" lon="6.84328">
        <ele>2859.6</ele>
        <time>2021-03-30T07:13:22Z</time>
      </trkpt>
      <trkpt lat="45.54416" lon="6.84329">
        <ele>2859.7</ele>
        <time>2021-03-30T07:13:23Z</time>
      </trkpt>
      <trkpt lat="45.54416" lon="6.8433">
        <ele>2859.9</ele>
        <time>2021-03-30T07:13:24Z</time>
      </trkpt>
      <trkpt lat="45.54415" lon="6.84332">
        <ele>2860</ele>
        <time>2021-03-30T07:13:25Z</time>
      </trkpt>
      <trkpt lat="45.54415" lon="6.84333">
        <ele>2860.1</ele>
        <time>2021-03-30T07:13:26Z</time>
      </trkpt>
      <trkpt lat="45.54415" lon="6.84334">
        <ele>2860.2</ele>
        <time>2021-03-30T07:13:27Z</time>
      </trkpt>
      <trkpt lat="45.54415" lon="6.84335">
        <ele>2860.3</ele>
        <time>2021-03-30T07:13:28Z</time>
      </trkpt>
      <trkpt lat="45.54415" lon="6.84336">
        <ele>2860.5</ele>
        <time>2021-03-30T07:13:29Z</time>
      </trkpt>
      <trkpt lat="45.54414" lon="6.84337">
        <ele>2860.6</ele>
        <time>2021-03-30T07:13:30Z</time>
      </trkpt>
      <trkpt lat="45.54414" lon="6.84338">
        <ele>2860.7</ele>
        <time>2021-03-30T07:13:31Z</time>
      </trkpt>
      <trkpt lat="45.54414" lon="6.84339">
        <ele>2860.8</ele>
        <time>2021-03-30T07:13:32Z</time>
      </trkpt>
      <trkpt lat="45.54414" lon="6.84339">
        <ele>2860.9</ele>
        <time>2021-03-30T07:13:33Z</time>
      </trkpt>
      <trkpt lat="45.54414" lon="6.8434">
        <ele>2861</ele>
        <time>2021-03-30T07:13:34Z</time>
      </trkpt>
      <trkpt lat="45.54414" lon="6.84341">
        <ele>2861.1</ele>
        <time>2021-03-30T07:13:35Z</time>
      </trkpt>
      <trkpt lat="45.54414" lon="6.84342">
        <ele>2861.2</ele>
        <time>2021-03-30T07:13:36Z</time>
      </trkpt>
      <trkpt lat="45.54413" lon="6.84343">
        <ele>2861.3</ele>
        <time>2021-03-30T07:13:37Z</time>
      </trkpt>
      <trkpt lat="45.54413" lon="6.84344">
        <ele>2861.5</ele>
        <time>2021-03-30T07:13:38Z</time>
      </trkpt>
      <trkpt lat="45.54413" lon="6.84345">
        <ele>2861.6</ele>
        <time>2021-03-30T07:13:39Z</time>
      </trkpt>
      <trkpt lat="45.54413" lon="6.84346">
        <ele>2861.7</ele>
        <time>2021-03-30T07:13:40Z</time>
      </trkpt>
      <trkpt lat="45.54412" lon="6.84347">
        <ele>2861.8</ele>
        <time>2021-03-30T07:13:41Z</time>
      </trkpt>
      <trkpt lat="45.54412" lon="6.84348">
        <ele>2861.9</ele>
        <time>2021-03-30T07:13:42Z</time>
      </trkpt>
      <trkpt lat="45.54412" lon="6.84349">
        <ele>2862</ele>
        <time>2021-03-30T07:13:43Z</time>
      </trkpt>
      <trkpt lat="45.54412" lon="6.8435">
        <ele>2862.1</ele>
        <time>2021-03-30T07:13:44Z</time>
      </trkpt>
      <trkpt lat="45.54412" lon="6.8435">
        <ele>2862.2</ele>
        <time>2021-03-30T07:13:45Z</time>
      </trkpt>
      <trkpt lat="45.54411" lon="6.84351">
        <ele>2862.3</ele>
        <time>2021-03-30T07:13:46Z</time>
      </trkpt>
      <trkpt lat="45.54411" lon="6.84352">
        <ele>2862.4</ele>
        <time>2021-03-30T07:13:47Z</time>
      </trkpt>
      <trkpt lat="45.54411" lon="6.84352">
        <ele>2862.5</ele>
        <time>2021-03-30T07:13:48Z</time>
      </trkpt>
      <trkpt lat="45.54411" lon="6.84353">
        <ele>2862.6</ele>
        <time>2021-03-30T07:13:49Z</time>
      </trkpt>
      <trkpt lat="45.54411" lon="6.84354">
        <ele>2862.7</ele>
        <time>2021-03-30T07:13:50Z</time>
      </trkpt>
      <trkpt lat="45.54411" lon="6.84355">
        <ele>2862.8</ele>
        <time>2021-03-30T07:13:51Z</time>
      </trkpt>
      <trkpt lat="45.5441" lon="6.84356">
        <ele>2862.9</ele>
        <time>2021-03-30T07:13:52Z</time>
      </trkpt>
      <trkpt lat="45.5441" lon="6.84357">
        <ele>2863</ele>
        <time>2021-03-30T07:13:53Z</time>
      </trkpt>
      <trkpt lat="45.5441" lon="6.84358">
        <ele>2863.1</ele>
        <time>2021-03-30T07:13:54Z</time>
      </trkpt>
      <trkpt lat="45.5441" lon="6.84359">
        <ele>2863.2</ele>
        <time>2021-03-30T07:13:55Z</time>
      </trkpt>
      <trkpt lat="45.5441" lon="6.8436">
        <ele>2863.4</ele>
        <time>2021-03-30T07:13:56Z</time>
      </trkpt>
      <trkpt lat="45.54409" lon="6.84361">
        <ele>2863.5</ele>
        <time>2021-03-30T07:13:57Z</time>
      </trkpt>
      <trkpt lat="45.54409" lon="6.84362">
        <ele>2863.6</ele>
        <time>2021-03-30T07:13:58Z</time>
      </trkpt>
      <trkpt lat="45.54409" lon="6.84363">
        <ele>2863.7</ele>
        <time>2021-03-30T07:13:59Z</time>
      </trkpt>
      <trkpt lat="45.54409" lon="6.84364">
        <ele>2863.8</ele>
        <time>2021-03-30T07:14:00Z</time>
      </trkpt>
      <trkpt lat="45.54409" lon="6.84365">
        <ele>2863.9</ele>
        <time>2021-03-30T07:14:01Z</time>
      </trkpt>
      <trkpt lat="45.54408" lon="6.84366">
        <ele>2864.1</ele>
        <time>2021-03-30T07:14:02Z</time>
      </trkpt>
      <trkpt lat="45.54408" lon="6.84367">
        <ele>2864.2</ele>
        <time>2021-03-30T07:14:03Z</time>
      </trkpt>
      <trkpt lat="45.54408" lon="6.84368">
        <ele>2864.3</ele>
        <time>2021-03-30T07:14:04Z</time>
      </trkpt>
      <trkpt lat="45.54408" lon="6.84369">
        <ele>2864.4</ele>
        <time>2021-03-30T07:14:05Z</time>
      </trkpt>
      <trkpt lat="45.54408" lon="6.84369">
        <ele>2864.5</ele>
        <time>2021-03-30T07:14:06Z</time>
      </trkpt>
      <trkpt lat="45.54408" lon="6.8437">
        <ele>2864.6</ele>
        <time>2021-03-30T07:14:07Z</time>
      </trkpt>
      <trkpt lat="45.54407" lon="6.84371">
        <ele>2864.7</ele>
        <time>2021-03-30T07:14:08Z</time>
      </trkpt>
      <trkpt lat="45.54407" lon="6.84372">
        <ele>2864.8</ele>
        <time>2021-03-30T07:14:09Z</time>
      </trkpt>
      <trkpt lat="45.54407" lon="6.84373">
        <ele>2864.9</ele>
        <time>2021-03-30T07:14:10Z</time>
      </trkpt>
      <trkpt lat="45.54407" lon="6.84374">
        <ele>2865</ele>
        <time>2021-03-30T07:14:11Z</time>
      </trkpt>
      <trkpt lat="45.54407" lon="6.84374">
        <ele>2865.1</ele>
        <time>2021-03-30T07:14:12Z</time>
      </trkpt>
      <trkpt lat="45.54407" lon="6.84375">
        <ele>2865.2</ele>
        <time>2021-03-30T07:14:13Z</time>
      </trkpt>
      <trkpt lat="45.54407" lon="6.84376">
        <ele>2865.2</ele>
        <time>2021-03-30T07:14:14Z</time>
      </trkpt>
      <trkpt lat="45.54407" lon="6.84377">
        <ele>2865.3</ele>
        <time>2021-03-30T07:14:15Z</time>
      </trkpt>
      <trkpt lat="45.54406" lon="6.84377">
        <ele>2865.4</ele>
        <time>2021-03-30T07:14:16Z</time>
      </trkpt>
      <trkpt lat="45.54406" lon="6.84378">
        <ele>2865.6</ele>
        <time>2021-03-30T07:14:17Z</time>
      </trkpt>
      <trkpt lat="45.54406" lon="6.84379">
        <ele>2865.7</ele>
        <time>2021-03-30T07:14:18Z</time>
      </trkpt>
      <trkpt lat="45.54406" lon="6.8438">
        <ele>2865.7</ele>
        <time>2021-03-30T07:14:19Z</time>
      </trkpt>
      <trkpt lat="45.54406" lon="6.84381">
        <ele>2865.9</ele>
        <time>2021-03-30T07:14:20Z</time>
      </trkpt>
      <trkpt lat="45.54406" lon="6.84382">
        <ele>2866</ele>
        <time>2021-03-30T07:14:21Z</time>
      </trkpt>
      <trkpt lat="45.54406" lon="6.84383">
        <ele>2866.1</ele>
        <time>2021-03-30T07:14:22Z</time>
      </trkpt>
      <trkpt lat="45.54406" lon="6.84384">
        <ele>2866.2</ele>
        <time>2021-03-30T07:14:23Z</time>
      </trkpt>
      <trkpt lat="45.54405" lon="6.84385">
        <ele>2866.3</ele>
        <time>2021-03-30T07:14:24Z</time>
      </trkpt>
      <trkpt lat="45.54405" lon="6.84386">
        <ele>2866.4</ele>
        <time>2021-03-30T07:14:25Z</time>
      </trkpt>
      <trkpt lat="45.54405" lon="6.84387">
        <ele>2866.5</ele>
        <time>2021-03-30T07:14:26Z</time>
      </trkpt>
      <trkpt lat="45.54405" lon="6.84387">
        <ele>2866.6</ele>
        <time>2021-03-30T07:14:27Z</time>
      </trkpt>
      <trkpt lat="45.54405" lon="6.84388">
        <ele>2866.7</ele>
        <time>2021-03-30T07:14:28Z</time>
      </trkpt>
      <trkpt lat="45.54405" lon="6.84389">
        <ele>2866.8</ele>
        <time>2021-03-30T07:14:29Z</time>
      </trkpt>
      <trkpt lat="45.54405" lon="6.8439">
        <ele>2866.9</ele>
        <time>2021-03-30T07:14:30Z</time>
      </trkpt>
      <trkpt lat="45.54404" lon="6.84391">
        <ele>2867.1</ele>
        <time>2021-03-30T07:14:31Z</time>
      </trkpt>
      <trkpt lat="45.54404" lon="6.84392">
        <ele>2867.2</ele>
        <time>2021-03-30T07:14:32Z</time>
      </trkpt>
      <trkpt lat="45.54404" lon="6.84393">
        <ele>2867.3</ele>
        <time>2021-03-30T07:14:33Z</time>
      </trkpt>
      <trkpt lat="45.54404" lon="6.84393">
        <ele>2867.4</ele>
        <time>2021-03-30T07:14:34Z</time>
      </trkpt>
      <trkpt lat="45.54404" lon="6.84394">
        <ele>2867.5</ele>
        <time>2021-03-30T07:14:35Z</time>
      </trkpt>
      <trkpt lat="45.54404" lon="6.84395">
        <ele>2867.6</ele>
        <time>2021-03-30T07:14:36Z</time>
      </trkpt>
      <trkpt lat="45.54404" lon="6.84396">
        <ele>2867.7</ele>
        <time>2021-03-30T07:14:37Z</time>
      </trkpt>
      <trkpt lat="45.54404" lon="6.84397">
        <ele>2867.8</ele>
        <time>2021-03-30T07:14:38Z</time>
      </trkpt>
      <trkpt lat="45.54403" lon="6.84397">
        <ele>2867.9</ele>
        <time>2021-03-30T07:14:39Z</time>
      </trkpt>
      <trkpt lat="45.54403" lon="6.84398">
        <ele>2868</ele>
        <time>2021-03-30T07:14:40Z</time>
      </trkpt>
      <trkpt lat="45.54403" lon="6.84399">
        <ele>2868.1</ele>
        <time>2021-03-30T07:14:41Z</time>
      </trkpt>
      <trkpt lat="45.54403" lon="6.844">
        <ele>2868.3</ele>
        <time>2021-03-30T07:14:42Z</time>
      </trkpt>
      <trkpt lat="45.54403" lon="6.844">
        <ele>2868.4</ele>
        <time>2021-03-30T07:14:43Z</time>
      </trkpt>
      <trkpt lat="45.54403" lon="6.84401">
        <ele>2868.5</ele>
        <time>2021-03-30T07:14:44Z</time>
      </trkpt>
      <trkpt lat="45.54403" lon="6.84402">
        <ele>2868.6</ele>
        <time>2021-03-30T07:14:45Z</time>
      </trkpt>
      <trkpt lat="45.54403" lon="6.84403">
        <ele>2868.8</ele>
        <time>2021-03-30T07:14:46Z</time>
      </trkpt>
      <trkpt lat="45.54403" lon="6.84404">
        <ele>2868.9</ele>
        <time>2021-03-30T07:14:47Z</time>
      </trkpt>
      <trkpt lat="45.54403" lon="6.84405">
        <ele>2869.1</ele>
        <time>2021-03-30T07:14:48Z</time>
      </trkpt>
      <trkpt lat="45.54403" lon="6.84406">
        <ele>2869.3</ele>
        <time>2021-03-30T07:14:49Z</time>
      </trkpt>
      <trkpt lat="45.54403" lon="6.84407">
        <ele>2869.3</ele>
        <time>2021-03-30T07:14:50Z</time>
      </trkpt>
      <trkpt lat="45.54402" lon="6.84408">
        <ele>2869.5</ele>
        <time>2021-03-30T07:14:51Z</time>
      </trkpt>
      <trkpt lat="45.54402" lon="6.84408">
        <ele>2869.6</ele>
        <time>2021-03-30T07:14:52Z</time>
      </trkpt>
      <trkpt lat="45.54402" lon="6.84409">
        <ele>2869.7</ele>
        <time>2021-03-30T07:14:53Z</time>
      </trkpt>
      <trkpt lat="45.54402" lon="6.8441">
        <ele>2869.8</ele>
        <time>2021-03-30T07:14:54Z</time>
      </trkpt>
      <trkpt lat="45.54402" lon="6.84411">
        <ele>2869.9</ele>
        <time>2021-03-30T07:14:55Z</time>
      </trkpt>
      <trkpt lat="45.54402" lon="6.84411">
        <ele>2870</ele>
        <time>2021-03-30T07:14:56Z</time>
      </trkpt>
      <trkpt lat="45.54402" lon="6.84412">
        <ele>2870.2</ele>
        <time>2021-03-30T07:14:57Z</time>
      </trkpt>
      <trkpt lat="45.54402" lon="6.84413">
        <ele>2870.3</ele>
        <time>2021-03-30T07:14:58Z</time>
      </trkpt>
      <trkpt lat="45.54402" lon="6.84414">
        <ele>2870.4</ele>
        <time>2021-03-30T07:14:59Z</time>
      </trkpt>
      <trkpt lat="45.54402" lon="6.84414">
        <ele>2870.5</ele>
        <time>2021-03-30T07:15:00Z</time>
      </trkpt>
      <trkpt lat="45.54402" lon="6.84415">
        <ele>2870.6</ele>
        <time>2021-03-30T07:15:01Z</time>
      </trkpt>
      <trkpt lat="45.54402" lon="6.84416">
        <ele>2870.7</ele>
        <time>2021-03-30T07:15:02Z</time>
      </trkpt>
      <trkpt lat="45.54402" lon="6.84417">
        <ele>2870.9</ele>
        <time>2021-03-30T07:15:03Z</time>
      </trkpt>
      <trkpt lat="45.54402" lon="6.84417">
        <ele>2871</ele>
        <time>2021-03-30T07:15:04Z</time>
      </trkpt>
      <trkpt lat="45.54402" lon="6.84418">
        <ele>2871.1</ele>
        <time>2021-03-30T07:15:05Z</time>
      </trkpt>
      <trkpt lat="45.54402" lon="6.84419">
        <ele>2871.2</ele>
        <time>2021-03-30T07:15:06Z</time>
      </trkpt>
      <trkpt lat="45.54402" lon="6.8442">
        <ele>2871.3</ele>
        <time>2021-03-30T07:15:07Z</time>
      </trkpt>
      <trkpt lat="45.54402" lon="6.84421">
        <ele>2871.5</ele>
        <time>2021-03-30T07:15:08Z</time>
      </trkpt>
      <trkpt lat="45.54402" lon="6.84422">
        <ele>2871.6</ele>
        <time>2021-03-30T07:15:09Z</time>
      </trkpt>
      <trkpt lat="45.54402" lon="6.84423">
        <ele>2871.8</ele>
        <time>2021-03-30T07:15:10Z</time>
      </trkpt>
      <trkpt lat="45.54402" lon="6.84424">
        <ele>2871.9</ele>
        <time>2021-03-30T07:15:11Z</time>
      </trkpt>
      <trkpt lat="45.54402" lon="6.84424">
        <ele>2872</ele>
        <time>2021-03-30T07:15:12Z</time>
      </trkpt>
      <trkpt lat="45.54402" lon="6.84425">
        <ele>2872.1</ele>
        <time>2021-03-30T07:15:13Z</time>
      </trkpt>
      <trkpt lat="45.54402" lon="6.84426">
        <ele>2872.2</ele>
        <time>2021-03-30T07:15:14Z</time>
      </trkpt>
      <trkpt lat="45.54402" lon="6.84427">
        <ele>2872.3</ele>
        <time>2021-03-30T07:15:15Z</time>
      </trkpt>
      <trkpt lat="45.54402" lon="6.84428">
        <ele>2872.4</ele>
        <time>2021-03-30T07:15:16Z</time>
      </trkpt>
      <trkpt lat="45.54402" lon="6.84428">
        <ele>2872.5</ele>
        <time>2021-03-30T07:15:17Z</time>
      </trkpt>
      <trkpt lat="45.54402" lon="6.84429">
        <ele>2872.6</ele>
        <time>2021-03-30T07:15:18Z</time>
      </trkpt>
      <trkpt lat="45.54402" lon="6.84429">
        <ele>2872.7</ele>
        <time>2021-03-30T07:15:19Z</time>
      </trkpt>
      <trkpt lat="45.54402" lon="6.8443">
        <ele>2872.8</ele>
        <time>2021-03-30T07:15:20Z</time>
      </trkpt>
      <trkpt lat="45.54402" lon="6.84431">
        <ele>2872.9</ele>
        <time>2021-03-30T07:15:21Z</time>
      </trkpt>
      <trkpt lat="45.54402" lon="6.84432">
        <ele>2873</ele>
        <time>2021-03-30T07:15:22Z</time>
      </trkpt>
      <trkpt lat="45.54402" lon="6.84432">
        <ele>2873.1</ele>
        <time>2021-03-30T07:15:23Z</time>
      </trkpt>
      <trkpt lat="45.54402" lon="6.84433">
        <ele>2873.1</ele>
        <time>2021-03-30T07:15:24Z</time>
      </trkpt>
      <trkpt lat="45.54402" lon="6.84433">
        <ele>2873.2</ele>
        <time>2021-03-30T07:15:25Z</time>
      </trkpt>
      <trkpt lat="45.54403" lon="6.84434">
        <ele>2873.3</ele>
        <time>2021-03-30T07:15:26Z</time>
      </trkpt>
      <trkpt lat="45.54403" lon="6.84435">
        <ele>2873.4</ele>
        <time>2021-03-30T07:15:27Z</time>
      </trkpt>
      <trkpt lat="45.54403" lon="6.84436">
        <ele>2873.5</ele>
        <time>2021-03-30T07:15:28Z</time>
      </trkpt>
      <trkpt lat="45.54403" lon="6.84436">
        <ele>2873.6</ele>
        <time>2021-03-30T07:15:29Z</time>
      </trkpt>
      <trkpt lat="45.54403" lon="6.84437">
        <ele>2873.7</ele>
        <time>2021-03-30T07:15:30Z</time>
      </trkpt>
      <trkpt lat="45.54403" lon="6.84438">
        <ele>2873.8</ele>
        <time>2021-03-30T07:15:31Z</time>
      </trkpt>
      <trkpt lat="45.54403" lon="6.84439">
        <ele>2873.9</ele>
        <time>2021-03-30T07:15:32Z</time>
      </trkpt>
      <trkpt lat="45.54403" lon="6.8444">
        <ele>2874</ele>
        <time>2021-03-30T07:15:33Z</time>
      </trkpt>
      <trkpt lat="45.54404" lon="6.84441">
        <ele>2874.1</ele>
        <time>2021-03-30T07:15:34Z</time>
      </trkpt>
      <trkpt lat="45.54404" lon="6.84442">
        <ele>2874.3</ele>
        <time>2021-03-30T07:15:35Z</time>
      </trkpt>
      <trkpt lat="45.54404" lon="6.84443">
        <ele>2874.4</ele>
        <time>2021-03-30T07:15:36Z</time>
      </trkpt>
      <trkpt lat="45.54404" lon="6.84444">
        <ele>2874.5</ele>
        <time>2021-03-30T07:15:37Z</time>
      </trkpt>
      <trkpt lat="45.54404" lon="6.84445">
        <ele>2874.6</ele>
        <time>2021-03-30T07:15:38Z</time>
      </trkpt>
      <trkpt lat="45.54404" lon="6.84446">
        <ele>2874.7</ele>
        <time>2021-03-30T07:15:39Z</time>
      </trkpt>
      <trkpt lat="45.54404" lon="6.84446">
        <ele>2874.8</ele>
        <time>2021-03-30T07:15:40Z</time>
      </trkpt>
      <trkpt lat="45.54404" lon="6.84447">
        <ele>2874.9</ele>
        <time>2021-03-30T07:15:41Z</time>
      </trkpt>
      <trkpt lat="45.54404" lon="6.84448">
        <ele>2875</ele>
        <time>2021-03-30T07:15:42Z</time>
      </trkpt>
      <trkpt lat="45.54404" lon="6.84449">
        <ele>2875.1</ele>
        <time>2021-03-30T07:15:43Z</time>
      </trkpt>
      <trkpt lat="45.54404" lon="6.8445">
        <ele>2875.2</ele>
        <time>2021-03-30T07:15:44Z</time>
      </trkpt>
      <trkpt lat="45.54404" lon="6.8445">
        <ele>2875.3</ele>
        <time>2021-03-30T07:15:45Z</time>
      </trkpt>
      <trkpt lat="45.54405" lon="6.84451">
        <ele>2875.4</ele>
        <time>2021-03-30T07:15:46Z</time>
      </trkpt>
      <trkpt lat="45.54405" lon="6.84452">
        <ele>2875.5</ele>
        <time>2021-03-30T07:15:47Z</time>
      </trkpt>
      <trkpt lat="45.54405" lon="6.84452">
        <ele>2875.5</ele>
        <time>2021-03-30T07:15:48Z</time>
      </trkpt>
      <trkpt lat="45.54405" lon="6.84452">
        <ele>2875.6</ele>
        <time>2021-03-30T07:15:49Z</time>
      </trkpt>
      <trkpt lat="45.54405" lon="6.84453">
        <ele>2875.6</ele>
        <time>2021-03-30T07:15:50Z</time>
      </trkpt>
      <trkpt lat="45.54404" lon="6.84454">
        <ele>2875.7</ele>
        <time>2021-03-30T07:15:51Z</time>
      </trkpt>
      <trkpt lat="45.54404" lon="6.84454">
        <ele>2875.8</ele>
        <time>2021-03-30T07:15:52Z</time>
      </trkpt>
      <trkpt lat="45.54404" lon="6.84455">
        <ele>2875.9</ele>
        <time>2021-03-30T07:15:53Z</time>
      </trkpt>
      <trkpt lat="45.54404" lon="6.84456">
        <ele>2876</ele>
        <time>2021-03-30T07:15:54Z</time>
      </trkpt>
      <trkpt lat="45.54404" lon="6.84457">
        <ele>2876.1</ele>
        <time>2021-03-30T07:15:55Z</time>
      </trkpt>
      <trkpt lat="45.54404" lon="6.84458">
        <ele>2876.2</ele>
        <time>2021-03-30T07:15:56Z</time>
      </trkpt>
      <trkpt lat="45.54403" lon="6.84459">
        <ele>2876.4</ele>
        <time>2021-03-30T07:15:57Z</time>
      </trkpt>
      <trkpt lat="45.54403" lon="6.8446">
        <ele>2876.5</ele>
        <time>2021-03-30T07:15:58Z</time>
      </trkpt>
      <trkpt lat="45.54403" lon="6.84461">
        <ele>2876.6</ele>
        <time>2021-03-30T07:15:59Z</time>
      </trkpt>
      <trkpt lat="45.54403" lon="6.84462">
        <ele>2876.7</ele>
        <time>2021-03-30T07:16:00Z</time>
      </trkpt>
      <trkpt lat="45.54403" lon="6.84462">
        <ele>2876.8</ele>
        <time>2021-03-30T07:16:01Z</time>
      </trkpt>
      <trkpt lat="45.54403" lon="6.84463">
        <ele>2876.9</ele>
        <time>2021-03-30T07:16:02Z</time>
      </trkpt>
      <trkpt lat="45.54403" lon="6.84464">
        <ele>2877</ele>
        <time>2021-03-30T07:16:03Z</time>
      </trkpt>
      <trkpt lat="45.54404" lon="6.84465">
        <ele>2877.1</ele>
        <time>2021-03-30T07:16:04Z</time>
      </trkpt>
      <trkpt lat="45.54404" lon="6.84465">
        <ele>2877.2</ele>
        <time>2021-03-30T07:16:05Z</time>
      </trkpt>
      <trkpt lat="45.54404" lon="6.84466">
        <ele>2877.3</ele>
        <time>2021-03-30T07:16:06Z</time>
      </trkpt>
      <trkpt lat="45.54404" lon="6.84467">
        <ele>2877.3</ele>
        <time>2021-03-30T07:16:07Z</time>
      </trkpt>
      <trkpt lat="45.54404" lon="6.84467">
        <ele>2877.4</ele>
        <time>2021-03-30T07:16:08Z</time>
      </trkpt>
      <trkpt lat="45.54403" lon="6.84469">
        <ele>2877.6</ele>
        <time>2021-03-30T07:16:09Z</time>
      </trkpt>
      <trkpt lat="45.54403" lon="6.8447">
        <ele>2877.8</ele>
        <time>2021-03-30T07:16:10Z</time>
      </trkpt>
      <trkpt lat="45.54403" lon="6.84471">
        <ele>2877.9</ele>
        <time>2021-03-30T07:16:11Z</time>
      </trkpt>
      <trkpt lat="45.54403" lon="6.84471">
        <ele>2878</ele>
        <time>2021-03-30T07:16:12Z</time>
      </trkpt>
      <trkpt lat="45.54404" lon="6.84472">
        <ele>2878.1</ele>
        <time>2021-03-30T07:16:13Z</time>
      </trkpt>
      <trkpt lat="45.54404" lon="6.84473">
        <ele>2878.2</ele>
        <time>2021-03-30T07:16:14Z</time>
      </trkpt>
      <trkpt lat="45.54404" lon="6.84474">
        <ele>2878.3</ele>
        <time>2021-03-30T07:16:15Z</time>
      </trkpt>
      <trkpt lat="45.54404" lon="6.84475">
        <ele>2878.4</ele>
        <time>2021-03-30T07:16:16Z</time>
      </trkpt>
      <trkpt lat="45.54404" lon="6.84475">
        <ele>2878.5</ele>
        <time>2021-03-30T07:16:17Z</time>
      </trkpt>
      <trkpt lat="45.54404" lon="6.84476">
        <ele>2878.6</ele>
        <time>2021-03-30T07:16:18Z</time>
      </trkpt>
      <trkpt lat="45.54404" lon="6.84477">
        <ele>2878.7</ele>
        <time>2021-03-30T07:16:19Z</time>
      </trkpt>
      <trkpt lat="45.54404" lon="6.84478">
        <ele>2878.9</ele>
        <time>2021-03-30T07:16:20Z</time>
      </trkpt>
      <trkpt lat="45.54404" lon="6.84479">
        <ele>2879</ele>
        <time>2021-03-30T07:16:21Z</time>
      </trkpt>
      <trkpt lat="45.54404" lon="6.8448">
        <ele>2879.1</ele>
        <time>2021-03-30T07:16:22Z</time>
      </trkpt>
      <trkpt lat="45.54404" lon="6.8448">
        <ele>2879.2</ele>
        <time>2021-03-30T07:16:23Z</time>
      </trkpt>
      <trkpt lat="45.54404" lon="6.84481">
        <ele>2879.3</ele>
        <time>2021-03-30T07:16:24Z</time>
      </trkpt>
      <trkpt lat="45.54404" lon="6.84482">
        <ele>2879.5</ele>
        <time>2021-03-30T07:16:25Z</time>
      </trkpt>
      <trkpt lat="45.54404" lon="6.84483">
        <ele>2879.6</ele>
        <time>2021-03-30T07:16:26Z</time>
      </trkpt>
      <trkpt lat="45.54404" lon="6.84484">
        <ele>2879.8</ele>
        <time>2021-03-30T07:16:27Z</time>
      </trkpt>
      <trkpt lat="45.54404" lon="6.84485">
        <ele>2879.9</ele>
        <time>2021-03-30T07:16:28Z</time>
      </trkpt>
      <trkpt lat="45.54404" lon="6.84486">
        <ele>2880</ele>
        <time>2021-03-30T07:16:29Z</time>
      </trkpt>
      <trkpt lat="45.54404" lon="6.84487">
        <ele>2880.1</ele>
        <time>2021-03-30T07:16:30Z</time>
      </trkpt>
      <trkpt lat="45.54404" lon="6.84487">
        <ele>2880.2</ele>
        <time>2021-03-30T07:16:31Z</time>
      </trkpt>
      <trkpt lat="45.54404" lon="6.84488">
        <ele>2880.3</ele>
        <time>2021-03-30T07:16:32Z</time>
      </trkpt>
      <trkpt lat="45.54403" lon="6.84489">
        <ele>2880.5</ele>
        <time>2021-03-30T07:16:33Z</time>
      </trkpt>
      <trkpt lat="45.54403" lon="6.8449">
        <ele>2880.6</ele>
        <time>2021-03-30T07:16:34Z</time>
      </trkpt>
      <trkpt lat="45.54403" lon="6.84491">
        <ele>2880.9</ele>
        <time>2021-03-30T07:16:35Z</time>
      </trkpt>
      <trkpt lat="45.54402" lon="6.84492">
        <ele>2881</ele>
        <time>2021-03-30T07:16:36Z</time>
      </trkpt>
      <trkpt lat="45.54402" lon="6.84493">
        <ele>2881.2</ele>
        <time>2021-03-30T07:16:37Z</time>
      </trkpt>
      <trkpt lat="45.54402" lon="6.84494">
        <ele>2881.4</ele>
        <time>2021-03-30T07:16:38Z</time>
      </trkpt>
      <trkpt lat="45.54402" lon="6.84495">
        <ele>2881.6</ele>
        <time>2021-03-30T07:16:39Z</time>
      </trkpt>
      <trkpt lat="45.54402" lon="6.84496">
        <ele>2881.7</ele>
        <time>2021-03-30T07:16:40Z</time>
      </trkpt>
      <trkpt lat="45.54402" lon="6.84496">
        <ele>2881.9</ele>
        <time>2021-03-30T07:16:41Z</time>
      </trkpt>
      <trkpt lat="45.54402" lon="6.84497">
        <ele>2882</ele>
        <time>2021-03-30T07:16:42Z</time>
      </trkpt>
      <trkpt lat="45.54402" lon="6.84498">
        <ele>2882.1</ele>
        <time>2021-03-30T07:16:43Z</time>
      </trkpt>
      <trkpt lat="45.54402" lon="6.84499">
        <ele>2882.3</ele>
        <time>2021-03-30T07:16:44Z</time>
      </trkpt>
      <trkpt lat="45.54402" lon="6.84499">
        <ele>2882.4</ele>
        <time>2021-03-30T07:16:45Z</time>
      </trkpt>
      <trkpt lat="45.54402" lon="6.845">
        <ele>2882.6</ele>
        <time>2021-03-30T07:16:46Z</time>
      </trkpt>
      <trkpt lat="45.54402" lon="6.84501">
        <ele>2882.7</ele>
        <time>2021-03-30T07:16:47Z</time>
      </trkpt>
      <trkpt lat="45.54402" lon="6.84501">
        <ele>2882.8</ele>
        <time>2021-03-30T07:16:48Z</time>
      </trkpt>
      <trkpt lat="45.54402" lon="6.84502">
        <ele>2882.9</ele>
        <time>2021-03-30T07:16:49Z</time>
      </trkpt>
      <trkpt lat="45.54402" lon="6.84503">
        <ele>2883.1</ele>
        <time>2021-03-30T07:16:50Z</time>
      </trkpt>
      <trkpt lat="45.54402" lon="6.84504">
        <ele>2883.2</ele>
        <time>2021-03-30T07:16:51Z</time>
      </trkpt>
      <trkpt lat="45.54402" lon="6.84504">
        <ele>2883.3</ele>
        <time>2021-03-30T07:16:52Z</time>
      </trkpt>
      <trkpt lat="45.54402" lon="6.84505">
        <ele>2883.5</ele>
        <time>2021-03-30T07:16:53Z</time>
      </trkpt>
      <trkpt lat="45.54402" lon="6.84506">
        <ele>2883.6</ele>
        <time>2021-03-30T07:16:54Z</time>
      </trkpt>
      <trkpt lat="45.54402" lon="6.84506">
        <ele>2883.7</ele>
        <time>2021-03-30T07:16:55Z</time>
      </trkpt>
      <trkpt lat="45.54402" lon="6.84507">
        <ele>2883.9</ele>
        <time>2021-03-30T07:16:56Z</time>
      </trkpt>
      <trkpt lat="45.54402" lon="6.84508">
        <ele>2884.1</ele>
        <time>2021-03-30T07:16:57Z</time>
      </trkpt>
      <trkpt lat="45.54402" lon="6.84509">
        <ele>2884.3</ele>
        <time>2021-03-30T07:16:58Z</time>
      </trkpt>
      <trkpt lat="45.54402" lon="6.8451">
        <ele>2884.5</ele>
        <time>2021-03-30T07:16:59Z</time>
      </trkpt>
      <trkpt lat="45.54401" lon="6.84511">
        <ele>2884.6</ele>
        <time>2021-03-30T07:17:00Z</time>
      </trkpt>
      <trkpt lat="45.54401" lon="6.84513">
        <ele>2884.8</ele>
        <time>2021-03-30T07:17:01Z</time>
      </trkpt>
      <trkpt lat="45.54401" lon="6.84514">
        <ele>2885.1</ele>
        <time>2021-03-30T07:17:02Z</time>
      </trkpt>
      <trkpt lat="45.544" lon="6.84515">
        <ele>2885.3</ele>
        <time>2021-03-30T07:17:03Z</time>
      </trkpt>
      <trkpt lat="45.544" lon="6.84516">
        <ele>2885.5</ele>
        <time>2021-03-30T07:17:04Z</time>
      </trkpt>
      <trkpt lat="45.544" lon="6.84517">
        <ele>2885.7</ele>
        <time>2021-03-30T07:17:05Z</time>
      </trkpt>
      <trkpt lat="45.544" lon="6.84519">
        <ele>2885.9</ele>
        <time>2021-03-30T07:17:06Z</time>
      </trkpt>
      <trkpt lat="45.54401" lon="6.8452">
        <ele>2886.1</ele>
        <time>2021-03-30T07:17:07Z</time>
      </trkpt>
      <trkpt lat="45.544" lon="6.8452">
        <ele>2886.2</ele>
        <time>2021-03-30T07:17:08Z</time>
      </trkpt>
      <trkpt lat="45.544" lon="6.84521">
        <ele>2886.3</ele>
        <time>2021-03-30T07:17:09Z</time>
      </trkpt>
      <trkpt lat="45.544" lon="6.84521">
        <ele>2886.3</ele>
        <time>2021-03-30T07:17:10Z</time>
      </trkpt>
      <trkpt lat="45.544" lon="6.84522">
        <ele>2886.4</ele>
        <time>2021-03-30T07:17:11Z</time>
      </trkpt>
      <trkpt lat="45.544" lon="6.84523">
        <ele>2886.5</ele>
        <time>2021-03-30T07:17:12Z</time>
      </trkpt>
      <trkpt lat="45.544" lon="6.84524">
        <ele>2886.7</ele>
        <time>2021-03-30T07:17:13Z</time>
      </trkpt>
      <trkpt lat="45.544" lon="6.84524">
        <ele>2886.8</ele>
        <time>2021-03-30T07:17:14Z</time>
      </trkpt>
      <trkpt lat="45.544" lon="6.84525">
        <ele>2886.9</ele>
        <time>2021-03-30T07:17:15Z</time>
      </trkpt>
      <trkpt lat="45.54399" lon="6.84526">
        <ele>2887</ele>
        <time>2021-03-30T07:17:16Z</time>
      </trkpt>
      <trkpt lat="45.54399" lon="6.84527">
        <ele>2887.2</ele>
        <time>2021-03-30T07:17:17Z</time>
      </trkpt>
      <trkpt lat="45.54399" lon="6.84528">
        <ele>2887.3</ele>
        <time>2021-03-30T07:17:18Z</time>
      </trkpt>
      <trkpt lat="45.54398" lon="6.84528">
        <ele>2887.4</ele>
        <time>2021-03-30T07:17:19Z</time>
      </trkpt>
      <trkpt lat="45.54398" lon="6.84529">
        <ele>2887.5</ele>
        <time>2021-03-30T07:17:20Z</time>
      </trkpt>
      <trkpt lat="45.54398" lon="6.8453">
        <ele>2887.6</ele>
        <time>2021-03-30T07:17:21Z</time>
      </trkpt>
      <trkpt lat="45.54398" lon="6.8453">
        <ele>2887.6</ele>
        <time>2021-03-30T07:17:22Z</time>
      </trkpt>
      <trkpt lat="45.54398" lon="6.84531">
        <ele>2887.7</ele>
        <time>2021-03-30T07:17:23Z</time>
      </trkpt>
      <trkpt lat="45.54397" lon="6.84532">
        <ele>2887.9</ele>
        <time>2021-03-30T07:17:24Z</time>
      </trkpt>
      <trkpt lat="45.54397" lon="6.84533">
        <ele>2888</ele>
        <time>2021-03-30T07:17:25Z</time>
      </trkpt>
      <trkpt lat="45.54397" lon="6.84533">
        <ele>2888.2</ele>
        <time>2021-03-30T07:17:26Z</time>
      </trkpt>
      <trkpt lat="45.54396" lon="6.84534">
        <ele>2888.3</ele>
        <time>2021-03-30T07:17:27Z</time>
      </trkpt>
      <trkpt lat="45.54396" lon="6.84535">
        <ele>2888.3</ele>
        <time>2021-03-30T07:17:28Z</time>
      </trkpt>
      <trkpt lat="45.54396" lon="6.84535">
        <ele>2888.4</ele>
        <time>2021-03-30T07:17:29Z</time>
      </trkpt>
      <trkpt lat="45.54396" lon="6.84536">
        <ele>2888.6</ele>
        <time>2021-03-30T07:17:30Z</time>
      </trkpt>
      <trkpt lat="45.54396" lon="6.84537">
        <ele>2888.7</ele>
        <time>2021-03-30T07:17:31Z</time>
      </trkpt>
      <trkpt lat="45.54395" lon="6.84538">
        <ele>2888.9</ele>
        <time>2021-03-30T07:17:32Z</time>
      </trkpt>
      <trkpt lat="45.54395" lon="6.84539">
        <ele>2889.1</ele>
        <time>2021-03-30T07:17:33Z</time>
      </trkpt>
      <trkpt lat="45.54395" lon="6.8454">
        <ele>2889.2</ele>
        <time>2021-03-30T07:17:34Z</time>
      </trkpt>
      <trkpt lat="45.54395" lon="6.84541">
        <ele>2889.3</ele>
        <time>2021-03-30T07:17:35Z</time>
      </trkpt>
      <trkpt lat="45.54395" lon="6.84542">
        <ele>2889.4</ele>
        <time>2021-03-30T07:17:36Z</time>
      </trkpt>
      <trkpt lat="45.54395" lon="6.84543">
        <ele>2889.5</ele>
        <time>2021-03-30T07:17:37Z</time>
      </trkpt>
      <trkpt lat="45.54395" lon="6.84544">
        <ele>2889.6</ele>
        <time>2021-03-30T07:17:38Z</time>
      </trkpt>
      <trkpt lat="45.54395" lon="6.84544">
        <ele>2889.8</ele>
        <time>2021-03-30T07:17:39Z</time>
      </trkpt>
      <trkpt lat="45.54395" lon="6.84545">
        <ele>2889.9</ele>
        <time>2021-03-30T07:17:40Z</time>
      </trkpt>
      <trkpt lat="45.54394" lon="6.84546">
        <ele>2890.1</ele>
        <time>2021-03-30T07:17:41Z</time>
      </trkpt>
      <trkpt lat="45.54394" lon="6.84547">
        <ele>2890.2</ele>
        <time>2021-03-30T07:17:42Z</time>
      </trkpt>
      <trkpt lat="45.54394" lon="6.84548">
        <ele>2894.8</ele>
        <time>2021-03-30T07:17:43Z</time>
      </trkpt>
      <trkpt lat="45.54394" lon="6.84548">
        <ele>2894.8</ele>
        <time>2021-03-30T07:17:44Z</time>
      </trkpt>
      <trkpt lat="45.54394" lon="6.84549">
        <ele>2894.9</ele>
        <time>2021-03-30T07:17:45Z</time>
      </trkpt>
      <trkpt lat="45.54393" lon="6.8455">
        <ele>2894.9</ele>
        <time>2021-03-30T07:17:46Z</time>
      </trkpt>
      <trkpt lat="45.54393" lon="6.84551">
        <ele>2895</ele>
        <time>2021-03-30T07:17:47Z</time>
      </trkpt>
      <trkpt lat="45.54392" lon="6.84552">
        <ele>2895.1</ele>
        <time>2021-03-30T07:17:48Z</time>
      </trkpt>
      <trkpt lat="45.54392" lon="6.84552">
        <ele>2895.1</ele>
        <time>2021-03-30T07:17:49Z</time>
      </trkpt>
      <trkpt lat="45.54392" lon="6.84553">
        <ele>2895.2</ele>
        <time>2021-03-30T07:17:50Z</time>
      </trkpt>
      <trkpt lat="45.54392" lon="6.84554">
        <ele>2895.2</ele>
        <time>2021-03-30T07:17:51Z</time>
      </trkpt>
      <trkpt lat="45.54391" lon="6.84555">
        <ele>2895.3</ele>
        <time>2021-03-30T07:17:52Z</time>
      </trkpt>
      <trkpt lat="45.54391" lon="6.84556">
        <ele>2895.4</ele>
        <time>2021-03-30T07:17:53Z</time>
      </trkpt>
      <trkpt lat="45.54391" lon="6.84557">
        <ele>2895.4</ele>
        <time>2021-03-30T07:17:54Z</time>
      </trkpt>
      <trkpt lat="45.54391" lon="6.84558">
        <ele>2895.5</ele>
        <time>2021-03-30T07:17:55Z</time>
      </trkpt>
      <trkpt lat="45.5439" lon="6.84558">
        <ele>2895.5</ele>
        <time>2021-03-30T07:17:56Z</time>
      </trkpt>
      <trkpt lat="45.5439" lon="6.84559">
        <ele>2895.6</ele>
        <time>2021-03-30T07:17:57Z</time>
      </trkpt>
      <trkpt lat="45.54389" lon="6.8456">
        <ele>2895.7</ele>
        <time>2021-03-30T07:17:58Z</time>
      </trkpt>
      <trkpt lat="45.54389" lon="6.84561">
        <ele>2895.7</ele>
        <time>2021-03-30T07:17:59Z</time>
      </trkpt>
      <trkpt lat="45.54389" lon="6.84561">
        <ele>2895.8</ele>
        <time>2021-03-30T07:18:00Z</time>
      </trkpt>
      <trkpt lat="45.54388" lon="6.84562">
        <ele>2895.8</ele>
        <time>2021-03-30T07:18:01Z</time>
      </trkpt>
      <trkpt lat="45.54388" lon="6.84563">
        <ele>2895.9</ele>
        <time>2021-03-30T07:18:02Z</time>
      </trkpt>
      <trkpt lat="45.54388" lon="6.84564">
        <ele>2895.9</ele>
        <time>2021-03-30T07:18:03Z</time>
      </trkpt>
      <trkpt lat="45.54388" lon="6.84564">
        <ele>2896</ele>
        <time>2021-03-30T07:18:04Z</time>
      </trkpt>
      <trkpt lat="45.54387" lon="6.84565">
        <ele>2896</ele>
        <time>2021-03-30T07:18:05Z</time>
      </trkpt>
      <trkpt lat="45.54387" lon="6.84566">
        <ele>2896.1</ele>
        <time>2021-03-30T07:18:06Z</time>
      </trkpt>
      <trkpt lat="45.54387" lon="6.84567">
        <ele>2896.2</ele>
        <time>2021-03-30T07:18:07Z</time>
      </trkpt>
      <trkpt lat="45.54387" lon="6.84568">
        <ele>2896.2</ele>
        <time>2021-03-30T07:18:08Z</time>
      </trkpt>
      <trkpt lat="45.54386" lon="6.84569">
        <ele>2896.3</ele>
        <time>2021-03-30T07:18:09Z</time>
      </trkpt>
      <trkpt lat="45.54386" lon="6.84569">
        <ele>2896.3</ele>
        <time>2021-03-30T07:18:10Z</time>
      </trkpt>
      <trkpt lat="45.54386" lon="6.8457">
        <ele>2896.4</ele>
        <time>2021-03-30T07:18:11Z</time>
      </trkpt>
      <trkpt lat="45.54386" lon="6.84571">
        <ele>2896.4</ele>
        <time>2021-03-30T07:18:12Z</time>
      </trkpt>
      <trkpt lat="45.54386" lon="6.84571">
        <ele>2896.5</ele>
        <time>2021-03-30T07:18:13Z</time>
      </trkpt>
      <trkpt lat="45.54386" lon="6.84572">
        <ele>2896.5</ele>
        <time>2021-03-30T07:18:14Z</time>
      </trkpt>
      <trkpt lat="45.54386" lon="6.84573">
        <ele>2896.5</ele>
        <time>2021-03-30T07:18:15Z</time>
      </trkpt>
      <trkpt lat="45.54386" lon="6.84573">
        <ele>2896.6</ele>
        <time>2021-03-30T07:18:16Z</time>
      </trkpt>
      <trkpt lat="45.54386" lon="6.84574">
        <ele>2896.6</ele>
        <time>2021-03-30T07:18:17Z</time>
      </trkpt>
      <trkpt lat="45.54386" lon="6.84575">
        <ele>2896.7</ele>
        <time>2021-03-30T07:18:18Z</time>
      </trkpt>
      <trkpt lat="45.54386" lon="6.84576">
        <ele>2896.8</ele>
        <time>2021-03-30T07:18:19Z</time>
      </trkpt>
      <trkpt lat="45.54386" lon="6.84577">
        <ele>2896.8</ele>
        <time>2021-03-30T07:18:20Z</time>
      </trkpt>
      <trkpt lat="45.54385" lon="6.84578">
        <ele>2896.9</ele>
        <time>2021-03-30T07:18:21Z</time>
      </trkpt>
      <trkpt lat="45.54385" lon="6.8458">
        <ele>2897</ele>
        <time>2021-03-30T07:18:22Z</time>
      </trkpt>
      <trkpt lat="45.54385" lon="6.84581">
        <ele>2897.1</ele>
        <time>2021-03-30T07:18:23Z</time>
      </trkpt>
      <trkpt lat="45.54384" lon="6.84582">
        <ele>2897.2</ele>
        <time>2021-03-30T07:18:24Z</time>
      </trkpt>
      <trkpt lat="45.54384" lon="6.84583">
        <ele>2897.2</ele>
        <time>2021-03-30T07:18:25Z</time>
      </trkpt>
      <trkpt lat="45.54383" lon="6.84583">
        <ele>2897.3</ele>
        <time>2021-03-30T07:18:26Z</time>
      </trkpt>
      <trkpt lat="45.54383" lon="6.84584">
        <ele>2897.3</ele>
        <time>2021-03-30T07:18:27Z</time>
      </trkpt>
      <trkpt lat="45.54383" lon="6.84584">
        <ele>2897.3</ele>
        <time>2021-03-30T07:18:28Z</time>
      </trkpt>
      <trkpt lat="45.54383" lon="6.84584">
        <ele>2897.4</ele>
        <time>2021-03-30T07:18:29Z</time>
      </trkpt>
      <trkpt lat="45.54383" lon="6.84585">
        <ele>2897.4</ele>
        <time>2021-03-30T07:18:30Z</time>
      </trkpt>
      <trkpt lat="45.54383" lon="6.84585">
        <ele>2897.4</ele>
        <time>2021-03-30T07:18:31Z</time>
      </trkpt>
      <trkpt lat="45.54383" lon="6.84586">
        <ele>2897.5</ele>
        <time>2021-03-30T07:18:32Z</time>
      </trkpt>
      <trkpt lat="45.54383" lon="6.84587">
        <ele>2897.5</ele>
        <time>2021-03-30T07:18:33Z</time>
      </trkpt>
      <trkpt lat="45.54383" lon="6.84588">
        <ele>2897.6</ele>
        <time>2021-03-30T07:18:34Z</time>
      </trkpt>
      <trkpt lat="45.54384" lon="6.84588">
        <ele>2897.6</ele>
        <time>2021-03-30T07:18:35Z</time>
      </trkpt>
      <trkpt lat="45.54384" lon="6.84589">
        <ele>2897.6</ele>
        <time>2021-03-30T07:18:36Z</time>
      </trkpt>
      <trkpt lat="45.54384" lon="6.84589">
        <ele>2897.7</ele>
        <time>2021-03-30T07:18:37Z</time>
      </trkpt>
      <trkpt lat="45.54384" lon="6.8459">
        <ele>2897.7</ele>
        <time>2021-03-30T07:18:38Z</time>
      </trkpt>
      <trkpt lat="45.54384" lon="6.84591">
        <ele>2897.7</ele>
        <time>2021-03-30T07:18:39Z</time>
      </trkpt>
      <trkpt lat="45.54384" lon="6.84591">
        <ele>2897.8</ele>
        <time>2021-03-30T07:18:40Z</time>
      </trkpt>
      <trkpt lat="45.54383" lon="6.84592">
        <ele>2897.8</ele>
        <time>2021-03-30T07:18:41Z</time>
      </trkpt>
      <trkpt lat="45.54383" lon="6.84592">
        <ele>2897.9</ele>
        <time>2021-03-30T07:18:42Z</time>
      </trkpt>
      <trkpt lat="45.54383" lon="6.84593">
        <ele>2897.9</ele>
        <time>2021-03-30T07:18:43Z</time>
      </trkpt>
      <trkpt lat="45.54383" lon="6.84594">
        <ele>2897.9</ele>
        <time>2021-03-30T07:18:44Z</time>
      </trkpt>
      <trkpt lat="45.54383" lon="6.84595">
        <ele>2898</ele>
        <time>2021-03-30T07:18:45Z</time>
      </trkpt>
      <trkpt lat="45.54384" lon="6.84595">
        <ele>2898</ele>
        <time>2021-03-30T07:18:46Z</time>
      </trkpt>
      <trkpt lat="45.54384" lon="6.84596">
        <ele>2898.1</ele>
        <time>2021-03-30T07:18:47Z</time>
      </trkpt>
      <trkpt lat="45.54384" lon="6.84597">
        <ele>2898.1</ele>
        <time>2021-03-30T07:18:48Z</time>
      </trkpt>
      <trkpt lat="45.54384" lon="6.84598">
        <ele>2898.2</ele>
        <time>2021-03-30T07:18:49Z</time>
      </trkpt>
      <trkpt lat="45.54384" lon="6.84598">
        <ele>2898.2</ele>
        <time>2021-03-30T07:18:50Z</time>
      </trkpt>
      <trkpt lat="45.54384" lon="6.84599">
        <ele>2898.3</ele>
        <time>2021-03-30T07:18:51Z</time>
      </trkpt>
      <trkpt lat="45.54384" lon="6.846">
        <ele>2898.3</ele>
        <time>2021-03-30T07:18:52Z</time>
      </trkpt>
      <trkpt lat="45.54384" lon="6.84601">
        <ele>2898.4</ele>
        <time>2021-03-30T07:18:53Z</time>
      </trkpt>
      <trkpt lat="45.54384" lon="6.84602">
        <ele>2898.4</ele>
        <time>2021-03-30T07:18:54Z</time>
      </trkpt>
      <trkpt lat="45.54384" lon="6.84603">
        <ele>2898.5</ele>
        <time>2021-03-30T07:18:55Z</time>
      </trkpt>
      <trkpt lat="45.54384" lon="6.84603">
        <ele>2898.5</ele>
        <time>2021-03-30T07:18:56Z</time>
      </trkpt>
      <trkpt lat="45.54385" lon="6.84604">
        <ele>2898.5</ele>
        <time>2021-03-30T07:18:57Z</time>
      </trkpt>
      <trkpt lat="45.54385" lon="6.84604">
        <ele>2898.6</ele>
        <time>2021-03-30T07:18:58Z</time>
      </trkpt>
      <trkpt lat="45.54385" lon="6.84604">
        <ele>2898.6</ele>
        <time>2021-03-30T07:18:59Z</time>
      </trkpt>
      <trkpt lat="45.54386" lon="6.84605">
        <ele>2898.6</ele>
        <time>2021-03-30T07:19:00Z</time>
      </trkpt>
      <trkpt lat="45.54386" lon="6.84606">
        <ele>2898.7</ele>
        <time>2021-03-30T07:19:01Z</time>
      </trkpt>
      <trkpt lat="45.54387" lon="6.84606">
        <ele>2898.7</ele>
        <time>2021-03-30T07:19:02Z</time>
      </trkpt>
      <trkpt lat="45.54387" lon="6.84607">
        <ele>2898.8</ele>
        <time>2021-03-30T07:19:03Z</time>
      </trkpt>
      <trkpt lat="45.54387" lon="6.84607">
        <ele>2898.8</ele>
        <time>2021-03-30T07:19:04Z</time>
      </trkpt>
      <trkpt lat="45.54388" lon="6.84607">
        <ele>2898.9</ele>
        <time>2021-03-30T07:19:05Z</time>
      </trkpt>
      <trkpt lat="45.54388" lon="6.84608">
        <ele>2898.9</ele>
        <time>2021-03-30T07:19:06Z</time>
      </trkpt>
      <trkpt lat="45.54389" lon="6.84608">
        <ele>2899</ele>
        <time>2021-03-30T07:19:07Z</time>
      </trkpt>
      <trkpt lat="45.54389" lon="6.84609">
        <ele>2899</ele>
        <time>2021-03-30T07:19:08Z</time>
      </trkpt>
      <trkpt lat="45.5439" lon="6.84609">
        <ele>2899</ele>
        <time>2021-03-30T07:19:09Z</time>
      </trkpt>
      <trkpt lat="45.5439" lon="6.8461">
        <ele>2899.1</ele>
        <time>2021-03-30T07:19:10Z</time>
      </trkpt>
      <trkpt lat="45.5439" lon="6.84611">
        <ele>2899.2</ele>
        <time>2021-03-30T07:19:11Z</time>
      </trkpt>
      <trkpt lat="45.5439" lon="6.84612">
        <ele>2899.2</ele>
        <time>2021-03-30T07:19:12Z</time>
      </trkpt>
      <trkpt lat="45.5439" lon="6.84612">
        <ele>2899.2</ele>
        <time>2021-03-30T07:19:13Z</time>
      </trkpt>
      <trkpt lat="45.54391" lon="6.84612">
        <ele>2899.3</ele>
        <time>2021-03-30T07:19:14Z</time>
      </trkpt>
      <trkpt lat="45.54391" lon="6.84613">
        <ele>2899.3</ele>
        <time>2021-03-30T07:19:15Z</time>
      </trkpt>
      <trkpt lat="45.54392" lon="6.84614">
        <ele>2899.4</ele>
        <time>2021-03-30T07:19:16Z</time>
      </trkpt>
      <trkpt lat="45.54392" lon="6.84614">
        <ele>2899.4</ele>
        <time>2021-03-30T07:19:17Z</time>
      </trkpt>
      <trkpt lat="45.54392" lon="6.84615">
        <ele>2899.5</ele>
        <time>2021-03-30T07:19:18Z</time>
      </trkpt>
      <trkpt lat="45.54392" lon="6.84616">
        <ele>2899.5</ele>
        <time>2021-03-30T07:19:19Z</time>
      </trkpt>
      <trkpt lat="45.54391" lon="6.84618">
        <ele>2899.7</ele>
        <time>2021-03-30T07:19:20Z</time>
      </trkpt>
      <trkpt lat="45.54391" lon="6.84619">
        <ele>2899.7</ele>
        <time>2021-03-30T07:19:21Z</time>
      </trkpt>
      <trkpt lat="45.54391" lon="6.84621">
        <ele>2899.8</ele>
        <time>2021-03-30T07:19:24Z</time>
      </trkpt>
      <trkpt lat="45.5439" lon="6.84622">
        <ele>2899.9</ele>
        <time>2021-03-30T07:19:25Z</time>
      </trkpt>
      <trkpt lat="45.5439" lon="6.84623">
        <ele>2900</ele>
        <time>2021-03-30T07:19:26Z</time>
      </trkpt>
      <trkpt lat="45.54389" lon="6.84624">
        <ele>2900.1</ele>
        <time>2021-03-30T07:19:27Z</time>
      </trkpt>
      <trkpt lat="45.54389" lon="6.84625">
        <ele>2900.2</ele>
        <time>2021-03-30T07:19:28Z</time>
      </trkpt>
      <trkpt lat="45.54389" lon="6.84626">
        <ele>2900.2</ele>
        <time>2021-03-30T07:19:29Z</time>
      </trkpt>
      <trkpt lat="45.54389" lon="6.84626">
        <ele>2900.3</ele>
        <time>2021-03-30T07:19:30Z</time>
      </trkpt>
      <trkpt lat="45.54389" lon="6.84627">
        <ele>2900.3</ele>
        <time>2021-03-30T07:19:31Z</time>
      </trkpt>
      <trkpt lat="45.54389" lon="6.84628">
        <ele>2900.4</ele>
        <time>2021-03-30T07:19:32Z</time>
      </trkpt>
      <trkpt lat="45.54389" lon="6.84629">
        <ele>2900.4</ele>
        <time>2021-03-30T07:19:33Z</time>
      </trkpt>
      <trkpt lat="45.54388" lon="6.84629">
        <ele>2900.5</ele>
        <time>2021-03-30T07:19:34Z</time>
      </trkpt>
      <trkpt lat="45.54388" lon="6.8463">
        <ele>2900.5</ele>
        <time>2021-03-30T07:19:35Z</time>
      </trkpt>
      <trkpt lat="45.54388" lon="6.84631">
        <ele>2900.6</ele>
        <time>2021-03-30T07:19:36Z</time>
      </trkpt>
      <trkpt lat="45.54388" lon="6.84632">
        <ele>2900.6</ele>
        <time>2021-03-30T07:19:37Z</time>
      </trkpt>
      <trkpt lat="45.54387" lon="6.84633">
        <ele>2900.7</ele>
        <time>2021-03-30T07:19:38Z</time>
      </trkpt>
      <trkpt lat="45.54387" lon="6.84633">
        <ele>2900.8</ele>
        <time>2021-03-30T07:19:39Z</time>
      </trkpt>
      <trkpt lat="45.54387" lon="6.84635">
        <ele>2900.9</ele>
        <time>2021-03-30T07:19:40Z</time>
      </trkpt>
      <trkpt lat="45.54387" lon="6.84636">
        <ele>2900.9</ele>
        <time>2021-03-30T07:19:41Z</time>
      </trkpt>
      <trkpt lat="45.54386" lon="6.84637">
        <ele>2901</ele>
        <time>2021-03-30T07:19:42Z</time>
      </trkpt>
      <trkpt lat="45.54386" lon="6.84637">
        <ele>2901.1</ele>
        <time>2021-03-30T07:19:43Z</time>
      </trkpt>
      <trkpt lat="45.54386" lon="6.84638">
        <ele>2901.1</ele>
        <time>2021-03-30T07:19:44Z</time>
      </trkpt>
      <trkpt lat="45.54385" lon="6.84638">
        <ele>2901.2</ele>
        <time>2021-03-30T07:19:45Z</time>
      </trkpt>
      <trkpt lat="45.54384" lon="6.84639">
        <ele>2901.3</ele>
        <time>2021-03-30T07:19:46Z</time>
      </trkpt>
      <trkpt lat="45.54384" lon="6.8464">
        <ele>2901.4</ele>
        <time>2021-03-30T07:19:47Z</time>
      </trkpt>
      <trkpt lat="45.54383" lon="6.84641">
        <ele>2901.4</ele>
        <time>2021-03-30T07:19:48Z</time>
      </trkpt>
      <trkpt lat="45.54383" lon="6.84641">
        <ele>2901.5</ele>
        <time>2021-03-30T07:19:49Z</time>
      </trkpt>
      <trkpt lat="45.54382" lon="6.84642">
        <ele>2901.6</ele>
        <time>2021-03-30T07:19:50Z</time>
      </trkpt>
      <trkpt lat="45.54381" lon="6.84643">
        <ele>2901.8</ele>
        <time>2021-03-30T07:19:51Z</time>
      </trkpt>
      <trkpt lat="45.5438" lon="6.84643">
        <ele>2901.8</ele>
        <time>2021-03-30T07:19:52Z</time>
      </trkpt>
      <trkpt lat="45.5438" lon="6.84644">
        <ele>2901.9</ele>
        <time>2021-03-30T07:19:53Z</time>
      </trkpt>
      <trkpt lat="45.54379" lon="6.84645">
        <ele>2902</ele>
        <time>2021-03-30T07:19:54Z</time>
      </trkpt>
      <trkpt lat="45.54378" lon="6.84645">
        <ele>2902.1</ele>
        <time>2021-03-30T07:19:55Z</time>
      </trkpt>
      <trkpt lat="45.54378" lon="6.84646">
        <ele>2902.1</ele>
        <time>2021-03-30T07:19:56Z</time>
      </trkpt>
      <trkpt lat="45.54378" lon="6.84646">
        <ele>2902.2</ele>
        <time>2021-03-30T07:19:57Z</time>
      </trkpt>
      <trkpt lat="45.54379" lon="6.84647">
        <ele>2902.3</ele>
        <time>2021-03-30T07:19:58Z</time>
      </trkpt>
      <trkpt lat="45.5438" lon="6.84647">
        <ele>2902.3</ele>
        <time>2021-03-30T07:19:59Z</time>
      </trkpt>
      <trkpt lat="45.5438" lon="6.84648">
        <ele>2902.4</ele>
        <time>2021-03-30T07:20:00Z</time>
      </trkpt>
      <trkpt lat="45.54381" lon="6.84648">
        <ele>2902.5</ele>
        <time>2021-03-30T07:20:01Z</time>
      </trkpt>
      <trkpt lat="45.54382" lon="6.84648">
        <ele>2902.6</ele>
        <time>2021-03-30T07:20:02Z</time>
      </trkpt>
      <trkpt lat="45.54382" lon="6.84648">
        <ele>2902.6</ele>
        <time>2021-03-30T07:20:03Z</time>
      </trkpt>
      <trkpt lat="45.54383" lon="6.84648">
        <ele>2902.7</ele>
        <time>2021-03-30T07:20:04Z</time>
      </trkpt>
      <trkpt lat="45.54384" lon="6.84648">
        <ele>2902.8</ele>
        <time>2021-03-30T07:20:05Z</time>
      </trkpt>
      <trkpt lat="45.54384" lon="6.84649">
        <ele>2902.8</ele>
        <time>2021-03-30T07:20:06Z</time>
      </trkpt>
      <trkpt lat="45.54385" lon="6.84649">
        <ele>2902.9</ele>
        <time>2021-03-30T07:20:07Z</time>
      </trkpt>
      <trkpt lat="45.54385" lon="6.84649">
        <ele>2903</ele>
        <time>2021-03-30T07:20:08Z</time>
      </trkpt>
      <trkpt lat="45.54386" lon="6.84649">
        <ele>2903.1</ele>
        <time>2021-03-30T07:20:09Z</time>
      </trkpt>
      <trkpt lat="45.54387" lon="6.8465">
        <ele>2903.1</ele>
        <time>2021-03-30T07:20:10Z</time>
      </trkpt>
      <trkpt lat="45.54387" lon="6.8465">
        <ele>2903.2</ele>
        <time>2021-03-30T07:20:11Z</time>
      </trkpt>
      <trkpt lat="45.54388" lon="6.8465">
        <ele>2903.3</ele>
        <time>2021-03-30T07:20:12Z</time>
      </trkpt>
      <trkpt lat="45.54389" lon="6.8465">
        <ele>2903.4</ele>
        <time>2021-03-30T07:20:13Z</time>
      </trkpt>
      <trkpt lat="45.5439" lon="6.8465">
        <ele>2903.5</ele>
        <time>2021-03-30T07:20:14Z</time>
      </trkpt>
      <trkpt lat="45.5439" lon="6.8465">
        <ele>2903.5</ele>
        <time>2021-03-30T07:20:15Z</time>
      </trkpt>
      <trkpt lat="45.54391" lon="6.84651">
        <ele>2903.6</ele>
        <time>2021-03-30T07:20:16Z</time>
      </trkpt>
      <trkpt lat="45.54392" lon="6.84651">
        <ele>2903.8</ele>
        <time>2021-03-30T07:20:17Z</time>
      </trkpt>
      <trkpt lat="45.54393" lon="6.84651">
        <ele>2903.9</ele>
        <time>2021-03-30T07:20:18Z</time>
      </trkpt>
      <trkpt lat="45.54394" lon="6.84651">
        <ele>2904</ele>
        <time>2021-03-30T07:20:19Z</time>
      </trkpt>
      <trkpt lat="45.54394" lon="6.84651">
        <ele>2904</ele>
        <time>2021-03-30T07:20:20Z</time>
      </trkpt>
      <trkpt lat="45.54395" lon="6.84651">
        <ele>2904.1</ele>
        <time>2021-03-30T07:20:21Z</time>
      </trkpt>
      <trkpt lat="45.54395" lon="6.84651">
        <ele>2904.1</ele>
        <time>2021-03-30T07:20:22Z</time>
      </trkpt>
      <trkpt lat="45.54396" lon="6.84651">
        <ele>2904.2</ele>
        <time>2021-03-30T07:20:23Z</time>
      </trkpt>
      <trkpt lat="45.54396" lon="6.84651">
        <ele>2904.3</ele>
        <time>2021-03-30T07:20:24Z</time>
      </trkpt>
      <trkpt lat="45.54397" lon="6.84651">
        <ele>2904.3</ele>
        <time>2021-03-30T07:20:25Z</time>
      </trkpt>
      <trkpt lat="45.54397" lon="6.84651">
        <ele>2904.4</ele>
        <time>2021-03-30T07:20:26Z</time>
      </trkpt>
      <trkpt lat="45.54398" lon="6.84651">
        <ele>2904.5</ele>
        <time>2021-03-30T07:20:27Z</time>
      </trkpt>
      <trkpt lat="45.54399" lon="6.8465">
        <ele>2904.6</ele>
        <time>2021-03-30T07:20:28Z</time>
      </trkpt>
      <trkpt lat="45.54399" lon="6.8465">
        <ele>2904.7</ele>
        <time>2021-03-30T07:20:29Z</time>
      </trkpt>
      <trkpt lat="45.544" lon="6.84649">
        <ele>2904.8</ele>
        <time>2021-03-30T07:20:30Z</time>
      </trkpt>
      <trkpt lat="45.54401" lon="6.84649">
        <ele>2904.9</ele>
        <time>2021-03-30T07:20:31Z</time>
      </trkpt>
      <trkpt lat="45.54401" lon="6.84648">
        <ele>2905</ele>
        <time>2021-03-30T07:20:32Z</time>
      </trkpt>
      <trkpt lat="45.54402" lon="6.84648">
        <ele>2905.1</ele>
        <time>2021-03-30T07:20:33Z</time>
      </trkpt>
      <trkpt lat="45.54403" lon="6.84647">
        <ele>2905.2</ele>
        <time>2021-03-30T07:20:34Z</time>
      </trkpt>
      <trkpt lat="45.54403" lon="6.84646">
        <ele>2905.2</ele>
        <time>2021-03-30T07:20:35Z</time>
      </trkpt>
      <trkpt lat="45.54404" lon="6.84646">
        <ele>2905.3</ele>
        <time>2021-03-30T07:20:36Z</time>
      </trkpt>
      <trkpt lat="45.54404" lon="6.84645">
        <ele>2905.4</ele>
        <time>2021-03-30T07:20:37Z</time>
      </trkpt>
      <trkpt lat="45.54405" lon="6.84645">
        <ele>2905.5</ele>
        <time>2021-03-30T07:20:38Z</time>
      </trkpt>
      <trkpt lat="45.54405" lon="6.84644">
        <ele>2905.6</ele>
        <time>2021-03-30T07:20:39Z</time>
      </trkpt>
      <trkpt lat="45.54406" lon="6.84644">
        <ele>2905.6</ele>
        <time>2021-03-30T07:20:40Z</time>
      </trkpt>
      <trkpt lat="45.54406" lon="6.84644">
        <ele>2905.7</ele>
        <time>2021-03-30T07:20:41Z</time>
      </trkpt>
      <trkpt lat="45.54407" lon="6.84643">
        <ele>2905.8</ele>
        <time>2021-03-30T07:20:42Z</time>
      </trkpt>
      <trkpt lat="45.54407" lon="6.84643">
        <ele>2905.9</ele>
        <time>2021-03-30T07:20:43Z</time>
      </trkpt>
      <trkpt lat="45.54408" lon="6.84642">
        <ele>2905.9</ele>
        <time>2021-03-30T07:20:44Z</time>
      </trkpt>
      <trkpt lat="45.54409" lon="6.84642">
        <ele>2906</ele>
        <time>2021-03-30T07:20:45Z</time>
      </trkpt>
      <trkpt lat="45.54409" lon="6.84642">
        <ele>2906.1</ele>
        <time>2021-03-30T07:20:46Z</time>
      </trkpt>
      <trkpt lat="45.5441" lon="6.84641">
        <ele>2906.2</ele>
        <time>2021-03-30T07:20:47Z</time>
      </trkpt>
      <trkpt lat="45.54411" lon="6.84641">
        <ele>2906.3</ele>
        <time>2021-03-30T07:20:48Z</time>
      </trkpt>
      <trkpt lat="45.54411" lon="6.84641">
        <ele>2906.4</ele>
        <time>2021-03-30T07:20:49Z</time>
      </trkpt>
      <trkpt lat="45.54412" lon="6.84641">
        <ele>2906.5</ele>
        <time>2021-03-30T07:20:50Z</time>
      </trkpt>
      <trkpt lat="45.54413" lon="6.84641">
        <ele>2906.5</ele>
        <time>2021-03-30T07:20:51Z</time>
      </trkpt>
      <trkpt lat="45.54414" lon="6.84641">
        <ele>2906.6</ele>
        <time>2021-03-30T07:20:52Z</time>
      </trkpt>
      <trkpt lat="45.54414" lon="6.84641">
        <ele>2906.7</ele>
        <time>2021-03-30T07:20:53Z</time>
      </trkpt>
      <trkpt lat="45.54415" lon="6.84641">
        <ele>2906.8</ele>
        <time>2021-03-30T07:20:54Z</time>
      </trkpt>
      <trkpt lat="45.54416" lon="6.84641">
        <ele>2906.9</ele>
        <time>2021-03-30T07:20:55Z</time>
      </trkpt>
      <trkpt lat="45.54416" lon="6.84642">
        <ele>2907</ele>
        <time>2021-03-30T07:20:56Z</time>
      </trkpt>
      <trkpt lat="45.54417" lon="6.84642">
        <ele>2907</ele>
        <time>2021-03-30T07:20:57Z</time>
      </trkpt>
      <trkpt lat="45.54417" lon="6.84642">
        <ele>2907.1</ele>
        <time>2021-03-30T07:20:58Z</time>
      </trkpt>
      <trkpt lat="45.54418" lon="6.84642">
        <ele>2907.2</ele>
        <time>2021-03-30T07:20:59Z</time>
      </trkpt>
      <trkpt lat="45.54418" lon="6.84642">
        <ele>2907.2</ele>
        <time>2021-03-30T07:21:00Z</time>
      </trkpt>
      <trkpt lat="45.54419" lon="6.84643">
        <ele>2907.3</ele>
        <time>2021-03-30T07:21:01Z</time>
      </trkpt>
      <trkpt lat="45.54419" lon="6.84643">
        <ele>2907.4</ele>
        <time>2021-03-30T07:21:02Z</time>
      </trkpt>
      <trkpt lat="45.5442" lon="6.84643">
        <ele>2907.4</ele>
        <time>2021-03-30T07:21:03Z</time>
      </trkpt>
      <trkpt lat="45.5442" lon="6.84644">
        <ele>2907.5</ele>
        <time>2021-03-30T07:21:04Z</time>
      </trkpt>
      <trkpt lat="45.54421" lon="6.84644">
        <ele>2907.6</ele>
        <time>2021-03-30T07:21:05Z</time>
      </trkpt>
      <trkpt lat="45.54421" lon="6.84645">
        <ele>2907.6</ele>
        <time>2021-03-30T07:21:06Z</time>
      </trkpt>
      <trkpt lat="45.54422" lon="6.84645">
        <ele>2907.7</ele>
        <time>2021-03-30T07:21:07Z</time>
      </trkpt>
      <trkpt lat="45.54422" lon="6.84646">
        <ele>2907.8</ele>
        <time>2021-03-30T07:21:08Z</time>
      </trkpt>
      <trkpt lat="45.54423" lon="6.84646">
        <ele>2907.8</ele>
        <time>2021-03-30T07:21:09Z</time>
      </trkpt>
      <trkpt lat="45.54423" lon="6.84647">
        <ele>2907.9</ele>
        <time>2021-03-30T07:21:10Z</time>
      </trkpt>
      <trkpt lat="45.54423" lon="6.84647">
        <ele>2908</ele>
        <time>2021-03-30T07:21:11Z</time>
      </trkpt>
      <trkpt lat="45.54424" lon="6.84648">
        <ele>2908</ele>
        <time>2021-03-30T07:21:12Z</time>
      </trkpt>
      <trkpt lat="45.54424" lon="6.84648">
        <ele>2908.1</ele>
        <time>2021-03-30T07:21:13Z</time>
      </trkpt>
      <trkpt lat="45.54425" lon="6.84649">
        <ele>2908.2</ele>
        <time>2021-03-30T07:21:14Z</time>
      </trkpt>
      <trkpt lat="45.54425" lon="6.8465">
        <ele>2908.2</ele>
        <time>2021-03-30T07:21:15Z</time>
      </trkpt>
      <trkpt lat="45.54425" lon="6.8465">
        <ele>2908.3</ele>
        <time>2021-03-30T07:21:16Z</time>
      </trkpt>
      <trkpt lat="45.54425" lon="6.84651">
        <ele>2908.4</ele>
        <time>2021-03-30T07:21:17Z</time>
      </trkpt>
      <trkpt lat="45.54424" lon="6.84652">
        <ele>2908.4</ele>
        <time>2021-03-30T07:21:18Z</time>
      </trkpt>
      <trkpt lat="45.54424" lon="6.84653">
        <ele>2908.5</ele>
        <time>2021-03-30T07:21:19Z</time>
      </trkpt>
      <trkpt lat="45.54423" lon="6.84653">
        <ele>2908.6</ele>
        <time>2021-03-30T07:21:20Z</time>
      </trkpt>
      <trkpt lat="45.54423" lon="6.84654">
        <ele>2908.7</ele>
        <time>2021-03-30T07:21:21Z</time>
      </trkpt>
      <trkpt lat="45.54423" lon="6.84655">
        <ele>2908.8</ele>
        <time>2021-03-30T07:21:22Z</time>
      </trkpt>
      <trkpt lat="45.54422" lon="6.84656">
        <ele>2908.8</ele>
        <time>2021-03-30T07:21:23Z</time>
      </trkpt>
      <trkpt lat="45.54422" lon="6.84657">
        <ele>2909</ele>
        <time>2021-03-30T07:21:24Z</time>
      </trkpt>
      <trkpt lat="45.54421" lon="6.84657">
        <ele>2909</ele>
        <time>2021-03-30T07:21:25Z</time>
      </trkpt>
      <trkpt lat="45.54421" lon="6.84658">
        <ele>2909.1</ele>
        <time>2021-03-30T07:21:26Z</time>
      </trkpt>
      <trkpt lat="45.5442" lon="6.8466">
        <ele>2909.3</ele>
        <time>2021-03-30T07:21:27Z</time>
      </trkpt>
      <trkpt lat="45.54419" lon="6.84661">
        <ele>2909.4</ele>
        <time>2021-03-30T07:21:28Z</time>
      </trkpt>
      <trkpt lat="45.54418" lon="6.84662">
        <ele>2909.5</ele>
        <time>2021-03-30T07:21:29Z</time>
      </trkpt>
      <trkpt lat="45.54418" lon="6.84663">
        <ele>2909.6</ele>
        <time>2021-03-30T07:21:30Z</time>
      </trkpt>
      <trkpt lat="45.54418" lon="6.84664">
        <ele>2909.7</ele>
        <time>2021-03-30T07:21:31Z</time>
      </trkpt>
      <trkpt lat="45.54417" lon="6.84665">
        <ele>2909.8</ele>
        <time>2021-03-30T07:21:32Z</time>
      </trkpt>
      <trkpt lat="45.54417" lon="6.84666">
        <ele>2909.9</ele>
        <time>2021-03-30T07:21:33Z</time>
      </trkpt>
      <trkpt lat="45.54417" lon="6.84667">
        <ele>2909.9</ele>
        <time>2021-03-30T07:21:34Z</time>
      </trkpt>
      <trkpt lat="45.54417" lon="6.84667">
        <ele>2910</ele>
        <time>2021-03-30T07:21:35Z</time>
      </trkpt>
      <trkpt lat="45.54416" lon="6.84668">
        <ele>2910.1</ele>
        <time>2021-03-30T07:21:36Z</time>
      </trkpt>
      <trkpt lat="45.54416" lon="6.84669">
        <ele>2910.2</ele>
        <time>2021-03-30T07:21:37Z</time>
      </trkpt>
      <trkpt lat="45.54415" lon="6.84669">
        <ele>2910.2</ele>
        <time>2021-03-30T07:21:38Z</time>
      </trkpt>
      <trkpt lat="45.54414" lon="6.8467">
        <ele>2910.3</ele>
        <time>2021-03-30T07:21:39Z</time>
      </trkpt>
      <trkpt lat="45.54414" lon="6.8467">
        <ele>2910.4</ele>
        <time>2021-03-30T07:21:40Z</time>
      </trkpt>
      <trkpt lat="45.54413" lon="6.8467">
        <ele>2910.5</ele>
        <time>2021-03-30T07:21:41Z</time>
      </trkpt>
      <trkpt lat="45.54413" lon="6.84671">
        <ele>2910.5</ele>
        <time>2021-03-30T07:21:42Z</time>
      </trkpt>
      <trkpt lat="45.54412" lon="6.84671">
        <ele>2910.6</ele>
        <time>2021-03-30T07:21:43Z</time>
      </trkpt>
      <trkpt lat="45.54412" lon="6.84672">
        <ele>2910.7</ele>
        <time>2021-03-30T07:21:44Z</time>
      </trkpt>
      <trkpt lat="45.54411" lon="6.84673">
        <ele>2910.8</ele>
        <time>2021-03-30T07:21:45Z</time>
      </trkpt>
      <trkpt lat="45.54411" lon="6.84673">
        <ele>2910.9</ele>
        <time>2021-03-30T07:21:46Z</time>
      </trkpt>
      <trkpt lat="45.5441" lon="6.84674">
        <ele>2911</ele>
        <time>2021-03-30T07:21:47Z</time>
      </trkpt>
      <trkpt lat="45.5441" lon="6.84675">
        <ele>2911</ele>
        <time>2021-03-30T07:21:48Z</time>
      </trkpt>
      <trkpt lat="45.5441" lon="6.84676">
        <ele>2911.1</ele>
        <time>2021-03-30T07:21:49Z</time>
      </trkpt>
      <trkpt lat="45.5441" lon="6.84677">
        <ele>2911.1</ele>
        <time>2021-03-30T07:21:50Z</time>
      </trkpt>
      <trkpt lat="45.5441" lon="6.84677">
        <ele>2911.2</ele>
        <time>2021-03-30T07:21:51Z</time>
      </trkpt>
      <trkpt lat="45.5441" lon="6.84678">
        <ele>2911.3</ele>
        <time>2021-03-30T07:21:52Z</time>
      </trkpt>
      <trkpt lat="45.5441" lon="6.84679">
        <ele>2911.4</ele>
        <time>2021-03-30T07:21:53Z</time>
      </trkpt>
      <trkpt lat="45.5441" lon="6.8468">
        <ele>2911.4</ele>
        <time>2021-03-30T07:21:54Z</time>
      </trkpt>
      <trkpt lat="45.5441" lon="6.84681">
        <ele>2911.5</ele>
        <time>2021-03-30T07:21:55Z</time>
      </trkpt>
      <trkpt lat="45.5441" lon="6.84682">
        <ele>2911.6</ele>
        <time>2021-03-30T07:21:56Z</time>
      </trkpt>
      <trkpt lat="45.54409" lon="6.84682">
        <ele>2911.6</ele>
        <time>2021-03-30T07:21:57Z</time>
      </trkpt>
      <trkpt lat="45.54409" lon="6.84683">
        <ele>2911.7</ele>
        <time>2021-03-30T07:21:58Z</time>
      </trkpt>
      <trkpt lat="45.54409" lon="6.84684">
        <ele>2911.8</ele>
        <time>2021-03-30T07:21:59Z</time>
      </trkpt>
      <trkpt lat="45.54408" lon="6.84685">
        <ele>2911.9</ele>
        <time>2021-03-30T07:22:00Z</time>
      </trkpt>
      <trkpt lat="45.54408" lon="6.84686">
        <ele>2911.9</ele>
        <time>2021-03-30T07:22:01Z</time>
      </trkpt>
      <trkpt lat="45.54407" lon="6.84686">
        <ele>2912</ele>
        <time>2021-03-30T07:22:02Z</time>
      </trkpt>
      <trkpt lat="45.54407" lon="6.84687">
        <ele>2912.1</ele>
        <time>2021-03-30T07:22:03Z</time>
      </trkpt>
      <trkpt lat="45.54406" lon="6.84688">
        <ele>2912.2</ele>
        <time>2021-03-30T07:22:04Z</time>
      </trkpt>
      <trkpt lat="45.54406" lon="6.84689">
        <ele>2912.3</ele>
        <time>2021-03-30T07:22:05Z</time>
      </trkpt>
      <trkpt lat="45.54406" lon="6.8469">
        <ele>2912.3</ele>
        <time>2021-03-30T07:22:06Z</time>
      </trkpt>
      <trkpt lat="45.54406" lon="6.84691">
        <ele>2912.4</ele>
        <time>2021-03-30T07:22:07Z</time>
      </trkpt>
      <trkpt lat="45.54406" lon="6.84692">
        <ele>2912.5</ele>
        <time>2021-03-30T07:22:08Z</time>
      </trkpt>
      <trkpt lat="45.54406" lon="6.84693">
        <ele>2912.6</ele>
        <time>2021-03-30T07:22:09Z</time>
      </trkpt>
      <trkpt lat="45.54406" lon="6.84694">
        <ele>2912.6</ele>
        <time>2021-03-30T07:22:10Z</time>
      </trkpt>
      <trkpt lat="45.54405" lon="6.84694">
        <ele>2912.7</ele>
        <time>2021-03-30T07:22:11Z</time>
      </trkpt>
      <trkpt lat="45.54405" lon="6.84695">
        <ele>2912.8</ele>
        <time>2021-03-30T07:22:12Z</time>
      </trkpt>
      <trkpt lat="45.54405" lon="6.84696">
        <ele>2912.8</ele>
        <time>2021-03-30T07:22:13Z</time>
      </trkpt>
      <trkpt lat="45.54404" lon="6.84697">
        <ele>2912.9</ele>
        <time>2021-03-30T07:22:14Z</time>
      </trkpt>
      <trkpt lat="45.54404" lon="6.84697">
        <ele>2913</ele>
        <time>2021-03-30T07:22:15Z</time>
      </trkpt>
      <trkpt lat="45.54403" lon="6.84698">
        <ele>2913.1</ele>
        <time>2021-03-30T07:22:16Z</time>
      </trkpt>
      <trkpt lat="45.54403" lon="6.84699">
        <ele>2913.1</ele>
        <time>2021-03-30T07:22:17Z</time>
      </trkpt>
      <trkpt lat="45.54403" lon="6.847">
        <ele>2913.2</ele>
        <time>2021-03-30T07:22:18Z</time>
      </trkpt>
      <trkpt lat="45.54403" lon="6.84701">
        <ele>2913.2</ele>
        <time>2021-03-30T07:22:19Z</time>
      </trkpt>
      <trkpt lat="45.54403" lon="6.84701">
        <ele>2913.3</ele>
        <time>2021-03-30T07:22:20Z</time>
      </trkpt>
      <trkpt lat="45.54403" lon="6.84702">
        <ele>2913.4</ele>
        <time>2021-03-30T07:22:21Z</time>
      </trkpt>
      <trkpt lat="45.54402" lon="6.84703">
        <ele>2913.4</ele>
        <time>2021-03-30T07:22:22Z</time>
      </trkpt>
      <trkpt lat="45.54402" lon="6.84704">
        <ele>2913.5</ele>
        <time>2021-03-30T07:22:23Z</time>
      </trkpt>
      <trkpt lat="45.54402" lon="6.84705">
        <ele>2913.6</ele>
        <time>2021-03-30T07:22:24Z</time>
      </trkpt>
      <trkpt lat="45.54402" lon="6.84705">
        <ele>2913.6</ele>
        <time>2021-03-30T07:22:25Z</time>
      </trkpt>
      <trkpt lat="45.54402" lon="6.84706">
        <ele>2913.7</ele>
        <time>2021-03-30T07:22:26Z</time>
      </trkpt>
      <trkpt lat="45.54402" lon="6.84707">
        <ele>2913.7</ele>
        <time>2021-03-30T07:22:27Z</time>
      </trkpt>
      <trkpt lat="45.54402" lon="6.84707">
        <ele>2913.8</ele>
        <time>2021-03-30T07:22:28Z</time>
      </trkpt>
      <trkpt lat="45.54402" lon="6.84708">
        <ele>2913.8</ele>
        <time>2021-03-30T07:22:29Z</time>
      </trkpt>
      <trkpt lat="45.54402" lon="6.84708">
        <ele>2913.9</ele>
        <time>2021-03-30T07:22:30Z</time>
      </trkpt>
      <trkpt lat="45.54402" lon="6.84709">
        <ele>2913.9</ele>
        <time>2021-03-30T07:22:31Z</time>
      </trkpt>
      <trkpt lat="45.54401" lon="6.8471">
        <ele>2914</ele>
        <time>2021-03-30T07:22:32Z</time>
      </trkpt>
      <trkpt lat="45.54401" lon="6.8471">
        <ele>2914</ele>
        <time>2021-03-30T07:22:33Z</time>
      </trkpt>
      <trkpt lat="45.54401" lon="6.84711">
        <ele>2914.1</ele>
        <time>2021-03-30T07:22:34Z</time>
      </trkpt>
      <trkpt lat="45.544" lon="6.84711">
        <ele>2914.1</ele>
        <time>2021-03-30T07:22:35Z</time>
      </trkpt>
      <trkpt lat="45.544" lon="6.84712">
        <ele>2914.2</ele>
        <time>2021-03-30T07:22:36Z</time>
      </trkpt>
      <trkpt lat="45.544" lon="6.84712">
        <ele>2914.2</ele>
        <time>2021-03-30T07:22:37Z</time>
      </trkpt>
      <trkpt lat="45.54399" lon="6.84713">
        <ele>2914.3</ele>
        <time>2021-03-30T07:22:38Z</time>
      </trkpt>
      <trkpt lat="45.54399" lon="6.84713">
        <ele>2914.4</ele>
        <time>2021-03-30T07:22:39Z</time>
      </trkpt>
      <trkpt lat="45.54399" lon="6.84714">
        <ele>2914.4</ele>
        <time>2021-03-30T07:22:40Z</time>
      </trkpt>
      <trkpt lat="45.54399" lon="6.84715">
        <ele>2914.5</ele>
        <time>2021-03-30T07:22:41Z</time>
      </trkpt>
      <trkpt lat="45.54399" lon="6.84715">
        <ele>2914.5</ele>
        <time>2021-03-30T07:22:42Z</time>
      </trkpt>
      <trkpt lat="45.54398" lon="6.84716">
        <ele>2914.6</ele>
        <time>2021-03-30T07:22:43Z</time>
      </trkpt>
      <trkpt lat="45.54398" lon="6.84716">
        <ele>2914.7</ele>
        <time>2021-03-30T07:22:44Z</time>
      </trkpt>
      <trkpt lat="45.54398" lon="6.84717">
        <ele>2914.7</ele>
        <time>2021-03-30T07:22:45Z</time>
      </trkpt>
      <trkpt lat="45.54397" lon="6.84718">
        <ele>2914.8</ele>
        <time>2021-03-30T07:22:46Z</time>
      </trkpt>
      <trkpt lat="45.54397" lon="6.84719">
        <ele>2914.9</ele>
        <time>2021-03-30T07:22:47Z</time>
      </trkpt>
      <trkpt lat="45.54397" lon="6.8472">
        <ele>2914.9</ele>
        <time>2021-03-30T07:22:48Z</time>
      </trkpt>
      <trkpt lat="45.54398" lon="6.84721">
        <ele>2915</ele>
        <time>2021-03-30T07:22:49Z</time>
      </trkpt>
      <trkpt lat="45.54398" lon="6.84721">
        <ele>2915.1</ele>
        <time>2021-03-30T07:22:50Z</time>
      </trkpt>
      <trkpt lat="45.54399" lon="6.84722">
        <ele>2915.2</ele>
        <time>2021-03-30T07:22:51Z</time>
      </trkpt>
      <trkpt lat="45.544" lon="6.84722">
        <ele>2915.3</ele>
        <time>2021-03-30T07:22:52Z</time>
      </trkpt>
      <trkpt lat="45.54401" lon="6.84723">
        <ele>2915.4</ele>
        <time>2021-03-30T07:22:53Z</time>
      </trkpt>
      <trkpt lat="45.54401" lon="6.84723">
        <ele>2915.5</ele>
        <time>2021-03-30T07:22:54Z</time>
      </trkpt>
      <trkpt lat="45.54402" lon="6.84723">
        <ele>2915.6</ele>
        <time>2021-03-30T07:22:55Z</time>
      </trkpt>
      <trkpt lat="45.54403" lon="6.84723">
        <ele>2915.7</ele>
        <time>2021-03-30T07:22:56Z</time>
      </trkpt>
      <trkpt lat="45.54403" lon="6.84723">
        <ele>2915.7</ele>
        <time>2021-03-30T07:22:57Z</time>
      </trkpt>
      <trkpt lat="45.54404" lon="6.84723">
        <ele>2915.8</ele>
        <time>2021-03-30T07:22:58Z</time>
      </trkpt>
      <trkpt lat="45.54405" lon="6.84723">
        <ele>2915.9</ele>
        <time>2021-03-30T07:22:59Z</time>
      </trkpt>
      <trkpt lat="45.54405" lon="6.84723">
        <ele>2915.9</ele>
        <time>2021-03-30T07:23:00Z</time>
      </trkpt>
      <trkpt lat="45.54405" lon="6.84723">
        <ele>2916</ele>
        <time>2021-03-30T07:23:01Z</time>
      </trkpt>
      <trkpt lat="45.54406" lon="6.84723">
        <ele>2916.1</ele>
        <time>2021-03-30T07:23:02Z</time>
      </trkpt>
      <trkpt lat="45.54407" lon="6.84723">
        <ele>2916.2</ele>
        <time>2021-03-30T07:23:03Z</time>
      </trkpt>
      <trkpt lat="45.54408" lon="6.84723">
        <ele>2916.3</ele>
        <time>2021-03-30T07:23:04Z</time>
      </trkpt>
      <trkpt lat="45.54409" lon="6.84723">
        <ele>2916.4</ele>
        <time>2021-03-30T07:23:05Z</time>
      </trkpt>
      <trkpt lat="45.54409" lon="6.84724">
        <ele>2916.5</ele>
        <time>2021-03-30T07:23:06Z</time>
      </trkpt>
      <trkpt lat="45.5441" lon="6.84724">
        <ele>2916.6</ele>
        <time>2021-03-30T07:23:07Z</time>
      </trkpt>
      <trkpt lat="45.54411" lon="6.84724">
        <ele>2916.7</ele>
        <time>2021-03-30T07:23:08Z</time>
      </trkpt>
      <trkpt lat="45.54411" lon="6.84724">
        <ele>2916.7</ele>
        <time>2021-03-30T07:23:09Z</time>
      </trkpt>
      <trkpt lat="45.54412" lon="6.84725">
        <ele>2916.8</ele>
        <time>2021-03-30T07:23:10Z</time>
      </trkpt>
      <trkpt lat="45.54412" lon="6.84724">
        <ele>2916.9</ele>
        <time>2021-03-30T07:23:11Z</time>
      </trkpt>
      <trkpt lat="45.54413" lon="6.84724">
        <ele>2916.9</ele>
        <time>2021-03-30T07:23:12Z</time>
      </trkpt>
      <trkpt lat="45.54413" lon="6.84724">
        <ele>2917</ele>
        <time>2021-03-30T07:23:13Z</time>
      </trkpt>
      <trkpt lat="45.54413" lon="6.84725">
        <ele>2917.1</ele>
        <time>2021-03-30T07:23:14Z</time>
      </trkpt>
      <trkpt lat="45.54413" lon="6.84726">
        <ele>2917.1</ele>
        <time>2021-03-30T07:23:15Z</time>
      </trkpt>
      <trkpt lat="45.54412" lon="6.84727">
        <ele>2917.2</ele>
        <time>2021-03-30T07:23:16Z</time>
      </trkpt>
      <trkpt lat="45.54412" lon="6.84728">
        <ele>2917.4</ele>
        <time>2021-03-30T07:23:17Z</time>
      </trkpt>
      <trkpt lat="45.54412" lon="6.8473">
        <ele>2917.5</ele>
        <time>2021-03-30T07:23:18Z</time>
      </trkpt>
      <trkpt lat="45.54411" lon="6.84731">
        <ele>2917.6</ele>
        <time>2021-03-30T07:23:19Z</time>
      </trkpt>
      <trkpt lat="45.5441" lon="6.84732">
        <ele>2917.8</ele>
        <time>2021-03-30T07:23:20Z</time>
      </trkpt>
      <trkpt lat="45.5441" lon="6.84732">
        <ele>2917.9</ele>
        <time>2021-03-30T07:23:21Z</time>
      </trkpt>
      <trkpt lat="45.54409" lon="6.84733">
        <ele>2918</ele>
        <time>2021-03-30T07:23:22Z</time>
      </trkpt>
      <trkpt lat="45.54409" lon="6.84734">
        <ele>2918.1</ele>
        <time>2021-03-30T07:23:23Z</time>
      </trkpt>
      <trkpt lat="45.54408" lon="6.84735">
        <ele>2918.2</ele>
        <time>2021-03-30T07:23:24Z</time>
      </trkpt>
      <trkpt lat="45.54408" lon="6.84736">
        <ele>2918.3</ele>
        <time>2021-03-30T07:23:25Z</time>
      </trkpt>
      <trkpt lat="45.54407" lon="6.84737">
        <ele>2918.4</ele>
        <time>2021-03-30T07:23:26Z</time>
      </trkpt>
      <trkpt lat="45.54406" lon="6.84738">
        <ele>2918.5</ele>
        <time>2021-03-30T07:23:27Z</time>
      </trkpt>
      <trkpt lat="45.54406" lon="6.84738">
        <ele>2918.6</ele>
        <time>2021-03-30T07:23:28Z</time>
      </trkpt>
      <trkpt lat="45.54405" lon="6.84739">
        <ele>2918.8</ele>
        <time>2021-03-30T07:23:29Z</time>
      </trkpt>
      <trkpt lat="45.54404" lon="6.8474">
        <ele>2918.9</ele>
        <time>2021-03-30T07:23:30Z</time>
      </trkpt>
      <trkpt lat="45.54403" lon="6.84741">
        <ele>2919.1</ele>
        <time>2021-03-30T07:23:31Z</time>
      </trkpt>
      <trkpt lat="45.54402" lon="6.84742">
        <ele>2919.2</ele>
        <time>2021-03-30T07:23:32Z</time>
      </trkpt>
      <trkpt lat="45.54402" lon="6.84742">
        <ele>2919.3</ele>
        <time>2021-03-30T07:23:33Z</time>
      </trkpt>
      <trkpt lat="45.54401" lon="6.84743">
        <ele>2919.4</ele>
        <time>2021-03-30T07:23:34Z</time>
      </trkpt>
      <trkpt lat="45.544" lon="6.84744">
        <ele>2919.5</ele>
        <time>2021-03-30T07:23:35Z</time>
      </trkpt>
      <trkpt lat="45.544" lon="6.84745">
        <ele>2919.6</ele>
        <time>2021-03-30T07:23:36Z</time>
      </trkpt>
      <trkpt lat="45.54399" lon="6.84745">
        <ele>2919.7</ele>
        <time>2021-03-30T07:23:37Z</time>
      </trkpt>
      <trkpt lat="45.54398" lon="6.84746">
        <ele>2919.9</ele>
        <time>2021-03-30T07:23:38Z</time>
      </trkpt>
      <trkpt lat="45.54397" lon="6.84746">
        <ele>2920</ele>
        <time>2021-03-30T07:23:39Z</time>
      </trkpt>
      <trkpt lat="45.54397" lon="6.84746">
        <ele>2920.1</ele>
        <time>2021-03-30T07:23:40Z</time>
      </trkpt>
      <trkpt lat="45.54396" lon="6.84747">
        <ele>2920.2</ele>
        <time>2021-03-30T07:23:41Z</time>
      </trkpt>
      <trkpt lat="45.54395" lon="6.84747">
        <ele>2920.3</ele>
        <time>2021-03-30T07:23:42Z</time>
      </trkpt>
      <trkpt lat="45.54394" lon="6.84748">
        <ele>2920.4</ele>
        <time>2021-03-30T07:23:43Z</time>
      </trkpt>
      <trkpt lat="45.54394" lon="6.84748">
        <ele>2920.5</ele>
        <time>2021-03-30T07:23:44Z</time>
      </trkpt>
      <trkpt lat="45.54393" lon="6.84749">
        <ele>2920.6</ele>
        <time>2021-03-30T07:23:45Z</time>
      </trkpt>
      <trkpt lat="45.54392" lon="6.84749">
        <ele>2920.7</ele>
        <time>2021-03-30T07:23:46Z</time>
      </trkpt>
      <trkpt lat="45.54392" lon="6.8475">
        <ele>2920.8</ele>
        <time>2021-03-30T07:23:47Z</time>
      </trkpt>
      <trkpt lat="45.54391" lon="6.8475">
        <ele>2920.9</ele>
        <time>2021-03-30T07:23:48Z</time>
      </trkpt>
      <trkpt lat="45.5439" lon="6.8475">
        <ele>2921</ele>
        <time>2021-03-30T07:23:49Z</time>
      </trkpt>
      <trkpt lat="45.5439" lon="6.8475">
        <ele>2921.1</ele>
        <time>2021-03-30T07:23:50Z</time>
      </trkpt>
      <trkpt lat="45.54389" lon="6.8475">
        <ele>2921.2</ele>
        <time>2021-03-30T07:23:51Z</time>
      </trkpt>
      <trkpt lat="45.54388" lon="6.8475">
        <ele>2921.3</ele>
        <time>2021-03-30T07:23:52Z</time>
      </trkpt>
      <trkpt lat="45.54388" lon="6.8475">
        <ele>2921.4</ele>
        <time>2021-03-30T07:23:53Z</time>
      </trkpt>
      <trkpt lat="45.54387" lon="6.8475">
        <ele>2921.4</ele>
        <time>2021-03-30T07:23:54Z</time>
      </trkpt>
      <trkpt lat="45.54387" lon="6.84751">
        <ele>2921.5</ele>
        <time>2021-03-30T07:23:55Z</time>
      </trkpt>
      <trkpt lat="45.54386" lon="6.84751">
        <ele>2921.6</ele>
        <time>2021-03-30T07:23:56Z</time>
      </trkpt>
      <trkpt lat="45.54386" lon="6.84751">
        <ele>2921.7</ele>
        <time>2021-03-30T07:23:57Z</time>
      </trkpt>
      <trkpt lat="45.54385" lon="6.84751">
        <ele>2921.7</ele>
        <time>2021-03-30T07:23:58Z</time>
      </trkpt>
      <trkpt lat="45.54385" lon="6.84752">
        <ele>2921.8</ele>
        <time>2021-03-30T07:23:59Z</time>
      </trkpt>
      <trkpt lat="45.54385" lon="6.84752">
        <ele>2921.8</ele>
        <time>2021-03-30T07:24:00Z</time>
      </trkpt>
      <trkpt lat="45.54385" lon="6.84752">
        <ele>2921.9</ele>
        <time>2021-03-30T07:24:01Z</time>
      </trkpt>
      <trkpt lat="45.54385" lon="6.84753">
        <ele>2921.9</ele>
        <time>2021-03-30T07:24:02Z</time>
      </trkpt>
      <trkpt lat="45.54385" lon="6.84753">
        <ele>2922</ele>
        <time>2021-03-30T07:24:03Z</time>
      </trkpt>
      <trkpt lat="45.54385" lon="6.84754">
        <ele>2922</ele>
        <time>2021-03-30T07:24:04Z</time>
      </trkpt>
      <trkpt lat="45.54385" lon="6.84754">
        <ele>2922</ele>
        <time>2021-03-30T07:24:05Z</time>
      </trkpt>
      <trkpt lat="45.54385" lon="6.84754">
        <ele>2922</ele>
        <time>2021-03-30T07:24:06Z</time>
      </trkpt>
      <trkpt lat="45.54385" lon="6.84755">
        <ele>2922.1</ele>
        <time>2021-03-30T07:24:07Z</time>
      </trkpt>
      <trkpt lat="45.54384" lon="6.84757">
        <ele>2922.3</ele>
        <time>2021-03-30T07:24:08Z</time>
      </trkpt>
      <trkpt lat="45.54385" lon="6.84758">
        <ele>2922.4</ele>
        <time>2021-03-30T07:24:09Z</time>
      </trkpt>
      <trkpt lat="45.54385" lon="6.84759">
        <ele>2922.6</ele>
        <time>2021-03-30T07:25:49Z</time>
      </trkpt>
      <trkpt lat="45.54385" lon="6.84761">
        <ele>2922.7</ele>
        <time>2021-03-30T07:25:50Z</time>
      </trkpt>
      <trkpt lat="45.54385" lon="6.84762">
        <ele>2922.8</ele>
        <time>2021-03-30T07:25:51Z</time>
      </trkpt>
      <trkpt lat="45.54385" lon="6.84764">
        <ele>2923</ele>
        <time>2021-03-30T07:25:52Z</time>
      </trkpt>
      <trkpt lat="45.54385" lon="6.84763">
        <ele>2923.1</ele>
        <time>2021-03-30T07:25:53Z</time>
      </trkpt>
      <trkpt lat="45.54386" lon="6.84763">
        <ele>2923.1</ele>
        <time>2021-03-30T07:25:54Z</time>
      </trkpt>
      <trkpt lat="45.54386" lon="6.84763">
        <ele>2923.2</ele>
        <time>2021-03-30T07:25:55Z</time>
      </trkpt>
      <trkpt lat="45.54387" lon="6.84763">
        <ele>2923.3</ele>
        <time>2021-03-30T07:25:56Z</time>
      </trkpt>
      <trkpt lat="45.54388" lon="6.84763">
        <ele>2923.4</ele>
        <time>2021-03-30T07:25:57Z</time>
      </trkpt>
      <trkpt lat="45.54389" lon="6.84763">
        <ele>2923.5</ele>
        <time>2021-03-30T07:25:58Z</time>
      </trkpt>
      <trkpt lat="45.54389" lon="6.84763">
        <ele>2923.6</ele>
        <time>2021-03-30T07:25:59Z</time>
      </trkpt>
      <trkpt lat="45.5439" lon="6.84763">
        <ele>2923.7</ele>
        <time>2021-03-30T07:26:00Z</time>
      </trkpt>
      <trkpt lat="45.54391" lon="6.84763">
        <ele>2923.8</ele>
        <time>2021-03-30T07:26:01Z</time>
      </trkpt>
      <trkpt lat="45.54391" lon="6.84763">
        <ele>2923.9</ele>
        <time>2021-03-30T07:26:02Z</time>
      </trkpt>
      <trkpt lat="45.54392" lon="6.84763">
        <ele>2924</ele>
        <time>2021-03-30T07:26:03Z</time>
      </trkpt>
      <trkpt lat="45.54393" lon="6.84763">
        <ele>2924.1</ele>
        <time>2021-03-30T07:26:04Z</time>
      </trkpt>
      <trkpt lat="45.54393" lon="6.84763">
        <ele>2924.2</ele>
        <time>2021-03-30T07:27:33Z</time>
      </trkpt>
      <trkpt lat="45.54394" lon="6.84763">
        <ele>2924.3</ele>
        <time>2021-03-30T07:27:34Z</time>
      </trkpt>
      <trkpt lat="45.54396" lon="6.84765">
        <ele>2924.6</ele>
        <time>2021-03-30T07:27:35Z</time>
      </trkpt>
      <trkpt lat="45.54396" lon="6.84765">
        <ele>2924.7</ele>
        <time>2021-03-30T07:27:36Z</time>
      </trkpt>
      <trkpt lat="45.54397" lon="6.84766">
        <ele>2924.8</ele>
        <time>2021-03-30T07:27:37Z</time>
      </trkpt>
      <trkpt lat="45.54398" lon="6.84766">
        <ele>2924.9</ele>
        <time>2021-03-30T07:27:38Z</time>
      </trkpt>
      <trkpt lat="45.54397" lon="6.84765">
        <ele>2925</ele>
        <time>2021-03-30T07:27:39Z</time>
      </trkpt>
      <trkpt lat="45.54397" lon="6.84765">
        <ele>2925</ele>
        <time>2021-03-30T07:27:40Z</time>
      </trkpt>
      <trkpt lat="45.54397" lon="6.84765">
        <ele>2925.1</ele>
        <time>2021-03-30T07:27:41Z</time>
      </trkpt>
      <trkpt lat="45.54397" lon="6.84764">
        <ele>2925.1</ele>
        <time>2021-03-30T07:27:42Z</time>
      </trkpt>
      <trkpt lat="45.54396" lon="6.84764">
        <ele>2925.2</ele>
        <time>2021-03-30T07:27:43Z</time>
      </trkpt>
      <trkpt lat="45.54397" lon="6.84762">
        <ele>2925.4</ele>
        <time>2021-03-30T07:27:44Z</time>
      </trkpt>
      <trkpt lat="45.54397" lon="6.84761">
        <ele>2925.5</ele>
        <time>2021-03-30T07:27:45Z</time>
      </trkpt>
      <trkpt lat="45.54397" lon="6.8476">
        <ele>2925.6</ele>
        <time>2021-03-30T07:27:46Z</time>
      </trkpt>
      <trkpt lat="45.54397" lon="6.84758">
        <ele>2925.8</ele>
        <time>2021-03-30T07:27:47Z</time>
      </trkpt>
      <trkpt lat="45.54397" lon="6.84757">
        <ele>2925.9</ele>
        <time>2021-03-30T07:27:48Z</time>
      </trkpt>
      <trkpt lat="45.54397" lon="6.84755">
        <ele>2926</ele>
        <time>2021-03-30T07:27:49Z</time>
      </trkpt>
      <trkpt lat="45.54397" lon="6.84755">
        <ele>2926.1</ele>
        <time>2021-03-30T07:27:50Z</time>
      </trkpt>
      <trkpt lat="45.54398" lon="6.84754">
        <ele>2926.2</ele>
        <time>2021-03-30T07:27:51Z</time>
      </trkpt>
      <trkpt lat="45.54397" lon="6.84754">
        <ele>2926.2</ele>
        <time>2021-03-30T07:27:52Z</time>
      </trkpt>
      <trkpt lat="45.54397" lon="6.84754">
        <ele>2926.2</ele>
        <time>2021-03-30T07:27:53Z</time>
      </trkpt>
      <trkpt lat="45.54396" lon="6.84755">
        <ele>2926.5</ele>
        <time>2021-03-30T07:27:54Z</time>
      </trkpt>
      <trkpt lat="45.54395" lon="6.84756">
        <ele>2926.6</ele>
        <time>2021-03-30T07:27:55Z</time>
      </trkpt>
      <trkpt lat="45.54394" lon="6.84756">
        <ele>2926.8</ele>
        <time>2021-03-30T07:27:56Z</time>
      </trkpt>
      <trkpt lat="45.54394" lon="6.84756">
        <ele>2926.8</ele>
        <time>2021-03-30T07:27:57Z</time>
      </trkpt>
      <trkpt lat="45.54394" lon="6.84756">
        <ele>2926.8</ele>
        <time>2021-03-30T07:27:58Z</time>
      </trkpt>
      <trkpt lat="45.54394" lon="6.84756">
        <ele>2926.8</ele>
        <time>2021-03-30T07:27:59Z</time>
      </trkpt>
      <trkpt lat="45.54394" lon="6.84757">
        <ele>2926.9</ele>
        <time>2021-03-30T07:28:00Z</time>
      </trkpt>
      <trkpt lat="45.54395" lon="6.84756">
        <ele>2927</ele>
        <time>2021-03-30T07:28:01Z</time>
      </trkpt>
      <trkpt lat="45.54396" lon="6.84755">
        <ele>2927.2</ele>
        <time>2021-03-30T07:28:02Z</time>
      </trkpt>
      <trkpt lat="45.54397" lon="6.84754">
        <ele>2927.4</ele>
        <time>2021-03-30T07:28:03Z</time>
      </trkpt>
      <trkpt lat="45.54397" lon="6.84753">
        <ele>2927.5</ele>
        <time>2021-03-30T07:28:04Z</time>
      </trkpt>
      <trkpt lat="45.54397" lon="6.84752">
        <ele>2927.6</ele>
        <time>2021-03-30T07:28:05Z</time>
      </trkpt>
      <trkpt lat="45.54397" lon="6.84751">
        <ele>2927.6</ele>
        <time>2021-03-30T07:28:06Z</time>
      </trkpt>
      <trkpt lat="45.54398" lon="6.84751">
        <ele>2927.8</ele>
        <time>2021-03-30T07:28:07Z</time>
      </trkpt>
      <trkpt lat="45.54398" lon="6.84751">
        <ele>2927.9</ele>
        <time>2021-03-30T07:28:08Z</time>
      </trkpt>
      <trkpt lat="45.54399" lon="6.8475">
        <ele>2927.9</ele>
        <time>2021-03-30T07:28:09Z</time>
      </trkpt>
      <trkpt lat="45.54398" lon="6.8475">
        <ele>2928</ele>
        <time>2021-03-30T07:28:10Z</time>
      </trkpt>
      <trkpt lat="45.54397" lon="6.84751">
        <ele>2928.1</ele>
        <time>2021-03-30T07:28:11Z</time>
      </trkpt>
      <trkpt lat="45.54397" lon="6.8475">
        <ele>2928.1</ele>
        <time>2021-03-30T07:28:12Z</time>
      </trkpt>
      <trkpt lat="45.54396" lon="6.8475">
        <ele>2928.3</ele>
        <time>2021-03-30T07:28:13Z</time>
      </trkpt>
      <trkpt lat="45.54396" lon="6.8475">
        <ele>2928.3</ele>
        <time>2021-03-30T07:28:14Z</time>
      </trkpt>
      <trkpt lat="45.54394" lon="6.84749">
        <ele>2928.6</ele>
        <time>2021-03-30T07:28:15Z</time>
      </trkpt>
      <trkpt lat="45.54393" lon="6.8475">
        <ele>2928.7</ele>
        <time>2021-03-30T07:28:16Z</time>
      </trkpt>
      <trkpt lat="45.54393" lon="6.84751">
        <ele>2928.8</ele>
        <time>2021-03-30T07:28:17Z</time>
      </trkpt>
      <trkpt lat="45.54394" lon="6.84752">
        <ele>2928.9</ele>
        <time>2021-03-30T07:28:18Z</time>
      </trkpt>
      <trkpt lat="45.54395" lon="6.84752">
        <ele>2929</ele>
        <time>2021-03-30T07:28:19Z</time>
      </trkpt>
      <trkpt lat="45.54395" lon="6.84752">
        <ele>2929</ele>
        <time>2021-03-30T07:28:20Z</time>
      </trkpt>
      <trkpt lat="45.54395" lon="6.84753">
        <ele>2929.1</ele>
        <time>2021-03-30T07:28:21Z</time>
      </trkpt>
      <trkpt lat="45.54396" lon="6.84754">
        <ele>2929.2</ele>
        <time>2021-03-30T07:28:22Z</time>
      </trkpt>
      <trkpt lat="45.54396" lon="6.84755">
        <ele>2929.3</ele>
        <time>2021-03-30T07:28:23Z</time>
      </trkpt>
      <trkpt lat="45.54393" lon="6.84755">
        <ele>2929.6</ele>
        <time>2021-03-30T07:28:24Z</time>
      </trkpt>
      <trkpt lat="45.5439" lon="6.84754">
        <ele>2930.1</ele>
        <time>2021-03-30T07:28:25Z</time>
      </trkpt>
      <trkpt lat="45.54389" lon="6.84753">
        <ele>2930.2</ele>
        <time>2021-03-30T07:28:26Z</time>
      </trkpt>
      <trkpt lat="45.54386" lon="6.84753">
        <ele>2930.6</ele>
        <time>2021-03-30T07:28:27Z</time>
      </trkpt>
      <trkpt lat="45.54384" lon="6.84752">
        <ele>2930.8</ele>
        <time>2021-03-30T07:28:28Z</time>
      </trkpt>
      <trkpt lat="45.54382" lon="6.84753">
        <ele>2931.1</ele>
        <time>2021-03-30T07:28:29Z</time>
      </trkpt>
      <trkpt lat="45.54381" lon="6.84753">
        <ele>2931.1</ele>
        <time>2021-03-30T07:28:30Z</time>
      </trkpt>
      <trkpt lat="45.54381" lon="6.84753">
        <ele>2931.2</ele>
        <time>2021-03-30T07:28:31Z</time>
      </trkpt>
      <trkpt lat="45.5438" lon="6.84753">
        <ele>2931.3</ele>
        <time>2021-03-30T07:28:32Z</time>
      </trkpt>
      <trkpt lat="45.5438" lon="6.84754">
        <ele>2931.4</ele>
        <time>2021-03-30T07:28:33Z</time>
      </trkpt>
      <trkpt lat="45.54378" lon="6.84754">
        <ele>2931.6</ele>
        <time>2021-03-30T07:28:34Z</time>
      </trkpt>
      <trkpt lat="45.54377" lon="6.84754">
        <ele>2931.6</ele>
        <time>2021-03-30T07:28:35Z</time>
      </trkpt>
      <trkpt lat="45.54377" lon="6.84754">
        <ele>2931.6</ele>
        <time>2021-03-30T07:28:36Z</time>
      </trkpt>
      <trkpt lat="45.54376" lon="6.84754">
        <ele>2931.6</ele>
        <time>2021-03-30T07:28:37Z</time>
      </trkpt>
      <trkpt lat="45.54376" lon="6.84754">
        <ele>2931.6</ele>
        <time>2021-03-30T07:28:38Z</time>
      </trkpt>
      <trkpt lat="45.54377" lon="6.84754">
        <ele>2931.6</ele>
        <time>2021-03-30T07:28:39Z</time>
      </trkpt>
      <trkpt lat="45.54377" lon="6.84754">
        <ele>2931.6</ele>
        <time>2021-03-30T07:28:40Z</time>
      </trkpt>
      <trkpt lat="45.54378" lon="6.84754">
        <ele>2931.5</ele>
        <time>2021-03-30T07:28:41Z</time>
      </trkpt>
      <trkpt lat="45.54379" lon="6.84754">
        <ele>2931.5</ele>
        <time>2021-03-30T07:28:42Z</time>
      </trkpt>
      <trkpt lat="45.54379" lon="6.84754">
        <ele>2931.5</ele>
        <time>2021-03-30T07:28:43Z</time>
      </trkpt>
      <trkpt lat="45.5438" lon="6.84755">
        <ele>2931.5</ele>
        <time>2021-03-30T07:28:44Z</time>
      </trkpt>
      <trkpt lat="45.5438" lon="6.84755">
        <ele>2931.5</ele>
        <time>2021-03-30T07:28:45Z</time>
      </trkpt>
      <trkpt lat="45.54381" lon="6.84755">
        <ele>2931.5</ele>
        <time>2021-03-30T07:28:46Z</time>
      </trkpt>
      <trkpt lat="45.54381" lon="6.84755">
        <ele>2931.4</ele>
        <time>2021-03-30T07:28:47Z</time>
      </trkpt>
      <trkpt lat="45.54381" lon="6.84755">
        <ele>2931.4</ele>
        <time>2021-03-30T07:28:48Z</time>
      </trkpt>
      <trkpt lat="45.54381" lon="6.84756">
        <ele>2931.4</ele>
        <time>2021-03-30T07:28:49Z</time>
      </trkpt>
      <trkpt lat="45.54381" lon="6.84756">
        <ele>2931.4</ele>
        <time>2021-03-30T07:28:50Z</time>
      </trkpt>
      <trkpt lat="45.54382" lon="6.84757">
        <ele>2931.4</ele>
        <time>2021-03-30T07:28:51Z</time>
      </trkpt>
      <trkpt lat="45.54382" lon="6.84757">
        <ele>2931.4</ele>
        <time>2021-03-30T07:28:52Z</time>
      </trkpt>
      <trkpt lat="45.54383" lon="6.84757">
        <ele>2931.3</ele>
        <time>2021-03-30T07:28:53Z</time>
      </trkpt>
      <trkpt lat="45.54383" lon="6.84757">
        <ele>2931.3</ele>
        <time>2021-03-30T07:28:54Z</time>
      </trkpt>
      <trkpt lat="45.54383" lon="6.84757">
        <ele>2931.3</ele>
        <time>2021-03-30T07:28:55Z</time>
      </trkpt>
      <trkpt lat="45.54386" lon="6.84758">
        <ele>2931.2</ele>
        <time>2021-03-30T07:28:56Z</time>
      </trkpt>
      <trkpt lat="45.54387" lon="6.84758">
        <ele>2931.2</ele>
        <time>2021-03-30T07:28:57Z</time>
      </trkpt>
      <trkpt lat="45.54388" lon="6.84758">
        <ele>2931.1</ele>
        <time>2021-03-30T07:28:58Z</time>
      </trkpt>
      <trkpt lat="45.54389" lon="6.84759">
        <ele>2931.1</ele>
        <time>2021-03-30T07:28:59Z</time>
      </trkpt>
      <trkpt lat="45.54389" lon="6.8476">
        <ele>2931.1</ele>
        <time>2021-03-30T07:29:00Z</time>
      </trkpt>
      <trkpt lat="45.54389" lon="6.84761">
        <ele>2931.1</ele>
        <time>2021-03-30T07:29:01Z</time>
      </trkpt>
      <trkpt lat="45.54388" lon="6.84761">
        <ele>2931.1</ele>
        <time>2021-03-30T07:31:00Z</time>
      </trkpt>
      <trkpt lat="45.54387" lon="6.84761">
        <ele>2931.2</ele>
        <time>2021-03-30T07:31:01Z</time>
      </trkpt>
      <trkpt lat="45.54386" lon="6.84761">
        <ele>2931.2</ele>
        <time>2021-03-30T07:31:02Z</time>
      </trkpt>
      <trkpt lat="45.54385" lon="6.84762">
        <ele>2931.2</ele>
        <time>2021-03-30T07:31:03Z</time>
      </trkpt>
      <trkpt lat="45.54386" lon="6.84761">
        <ele>2931.2</ele>
        <time>2021-03-30T07:31:04Z</time>
      </trkpt>
      <trkpt lat="45.54386" lon="6.84761">
        <ele>2931.2</ele>
        <time>2021-03-30T07:31:05Z</time>
      </trkpt>
      <trkpt lat="45.54386" lon="6.84761">
        <ele>2931.2</ele>
        <time>2021-03-30T07:31:06Z</time>
      </trkpt>
      <trkpt lat="45.54386" lon="6.84761">
        <ele>2931.2</ele>
        <time>2021-03-30T07:31:07Z</time>
      </trkpt>
      <trkpt lat="45.54386" lon="6.84761">
        <ele>2931.2</ele>
        <time>2021-03-30T07:31:08Z</time>
      </trkpt>
      <trkpt lat="45.54386" lon="6.8476">
        <ele>2931.2</ele>
        <time>2021-03-30T07:31:09Z</time>
      </trkpt>
      <trkpt lat="45.54386" lon="6.8476">
        <ele>2931.2</ele>
        <time>2021-03-30T07:31:10Z</time>
      </trkpt>
      <trkpt lat="45.54386" lon="6.8476">
        <ele>2931.2</ele>
        <time>2021-03-30T07:31:11Z</time>
      </trkpt>
      <trkpt lat="45.54386" lon="6.8476">
        <ele>2931.2</ele>
        <time>2021-03-30T07:34:58Z</time>
      </trkpt>
      <trkpt lat="45.54387" lon="6.8476">
        <ele>2931.2</ele>
        <time>2021-03-30T07:34:59Z</time>
      </trkpt>
      <trkpt lat="45.54387" lon="6.8476">
        <ele>2931.2</ele>
        <time>2021-03-30T07:35:00Z</time>
      </trkpt>
      <trkpt lat="45.54387" lon="6.84759">
        <ele>2931.2</ele>
        <time>2021-03-30T07:35:01Z</time>
      </trkpt>
      <trkpt lat="45.54387" lon="6.84759">
        <ele>2931.2</ele>
        <time>2021-03-30T07:35:02Z</time>
      </trkpt>
      <trkpt lat="45.54387" lon="6.84759">
        <ele>2931.1</ele>
        <time>2021-03-30T07:35:03Z</time>
      </trkpt>
      <trkpt lat="45.54387" lon="6.84759">
        <ele>2931.1</ele>
        <time>2021-03-30T07:35:04Z</time>
      </trkpt>
      <trkpt lat="45.54387" lon="6.84759">
        <ele>2931.1</ele>
        <time>2021-03-30T07:35:05Z</time>
      </trkpt>
      <trkpt lat="45.54387" lon="6.84758">
        <ele>2931.1</ele>
        <time>2021-03-30T07:35:06Z</time>
      </trkpt>
      <trkpt lat="45.54387" lon="6.84758">
        <ele>2931.1</ele>
        <time>2021-03-30T07:35:07Z</time>
      </trkpt>
      <trkpt lat="45.54388" lon="6.84758">
        <ele>2931.1</ele>
        <time>2021-03-30T07:35:08Z</time>
      </trkpt>
      <trkpt lat="45.54388" lon="6.84758">
        <ele>2931.1</ele>
        <time>2021-03-30T07:35:45Z</time>
      </trkpt>
      <trkpt lat="45.54388" lon="6.84758">
        <ele>2931.1</ele>
        <time>2021-03-30T07:35:46Z</time>
      </trkpt>
      <trkpt lat="45.54388" lon="6.84758">
        <ele>2931.1</ele>
        <time>2021-03-30T07:35:47Z</time>
      </trkpt>
      <trkpt lat="45.54388" lon="6.84757">
        <ele>2931.1</ele>
        <time>2021-03-30T07:35:48Z</time>
      </trkpt>
      <trkpt lat="45.54388" lon="6.84757">
        <ele>2931.3</ele>
        <time>2021-03-30T07:35:49Z</time>
      </trkpt>
      <trkpt lat="45.54388" lon="6.84756">
        <ele>2931.3</ele>
        <time>2021-03-30T07:35:50Z</time>
      </trkpt>
      <trkpt lat="45.54387" lon="6.84755">
        <ele>2931.3</ele>
        <time>2021-03-30T07:35:51Z</time>
      </trkpt>
      <trkpt lat="45.54387" lon="6.84755">
        <ele>2931.3</ele>
        <time>2021-03-30T07:35:52Z</time>
      </trkpt>
      <trkpt lat="45.54386" lon="6.84755">
        <ele>2931.3</ele>
        <time>2021-03-30T07:35:53Z</time>
      </trkpt>
      <trkpt lat="45.54386" lon="6.84755">
        <ele>2931.3</ele>
        <time>2021-03-30T07:35:54Z</time>
      </trkpt>
      <trkpt lat="45.54386" lon="6.84755">
        <ele>2931.3</ele>
        <time>2021-03-30T07:35:55Z</time>
      </trkpt>
      <trkpt lat="45.54386" lon="6.84756">
        <ele>2931.3</ele>
        <time>2021-03-30T07:35:56Z</time>
      </trkpt>
      <trkpt lat="45.54386" lon="6.84756">
        <ele>2931.3</ele>
        <time>2021-03-30T07:35:57Z</time>
      </trkpt>
      <trkpt lat="45.54385" lon="6.84756">
        <ele>2931.3</ele>
        <time>2021-03-30T07:35:58Z</time>
      </trkpt>
      <trkpt lat="45.54385" lon="6.84756">
        <ele>2931.3</ele>
        <time>2021-03-30T07:35:59Z</time>
      </trkpt>
      <trkpt lat="45.54385" lon="6.84756">
        <ele>2931.3</ele>
        <time>2021-03-30T07:40:33Z</time>
      </trkpt>
      <trkpt lat="45.54385" lon="6.84757">
        <ele>2931.3</ele>
        <time>2021-03-30T07:40:34Z</time>
      </trkpt>
      <trkpt lat="45.54385" lon="6.84757">
        <ele>2931.3</ele>
        <time>2021-03-30T07:40:35Z</time>
      </trkpt>
      <trkpt lat="45.54385" lon="6.84757">
        <ele>2931.3</ele>
        <time>2021-03-30T07:40:36Z</time>
      </trkpt>
      <trkpt lat="45.54385" lon="6.84757">
        <ele>2931.3</ele>
        <time>2021-03-30T07:40:37Z</time>
      </trkpt>
      <trkpt lat="45.54385" lon="6.84757">
        <ele>2931.3</ele>
        <time>2021-03-30T07:40:38Z</time>
      </trkpt>
      <trkpt lat="45.54385" lon="6.84757">
        <ele>2931.2</ele>
        <time>2021-03-30T07:40:39Z</time>
      </trkpt>
      <trkpt lat="45.54385" lon="6.84758">
        <ele>2931.2</ele>
        <time>2021-03-30T07:40:40Z</time>
      </trkpt>
      <trkpt lat="45.54385" lon="6.84758">
        <ele>2931.2</ele>
        <time>2021-03-30T07:40:41Z</time>
      </trkpt>
      <trkpt lat="45.54384" lon="6.84758">
        <ele>2931.2</ele>
        <time>2021-03-30T07:40:42Z</time>
      </trkpt>
      <trkpt lat="45.54384" lon="6.84758">
        <ele>2931.2</ele>
        <time>2021-03-30T07:48:16Z</time>
      </trkpt>
      <trkpt lat="45.54384" lon="6.84758">
        <ele>2931.2</ele>
        <time>2021-03-30T07:48:17Z</time>
      </trkpt>
      <trkpt lat="45.54384" lon="6.84759">
        <ele>2931.2</ele>
        <time>2021-03-30T07:48:18Z</time>
      </trkpt>
      <trkpt lat="45.54384" lon="6.84759">
        <ele>2931.2</ele>
        <time>2021-03-30T07:48:19Z</time>
      </trkpt>
      <trkpt lat="45.54384" lon="6.84759">
        <ele>2931.3</ele>
        <time>2021-03-30T07:48:20Z</time>
      </trkpt>
      <trkpt lat="45.54384" lon="6.84759">
        <ele>2931.3</ele>
        <time>2021-03-30T07:48:21Z</time>
      </trkpt>
      <trkpt lat="45.54384" lon="6.84759">
        <ele>2931.3</ele>
        <time>2021-03-30T07:48:22Z</time>
      </trkpt>
      <trkpt lat="45.54384" lon="6.8476">
        <ele>2931.3</ele>
        <time>2021-03-30T07:48:23Z</time>
      </trkpt>
      <trkpt lat="45.54384" lon="6.8476">
        <ele>2931.3</ele>
        <time>2021-03-30T07:48:24Z</time>
      </trkpt>
      <trkpt lat="45.54384" lon="6.8476">
        <ele>2931.3</ele>
        <time>2021-03-30T07:48:25Z</time>
      </trkpt>
      <trkpt lat="45.54383" lon="6.8476">
        <ele>2931.3</ele>
        <time>2021-03-30T07:48:54Z</time>
      </trkpt>
      <trkpt lat="45.54383" lon="6.8476">
        <ele>2931.3</ele>
        <time>2021-03-30T07:48:55Z</time>
      </trkpt>
      <trkpt lat="45.54383" lon="6.84761">
        <ele>2931.3</ele>
        <time>2021-03-30T07:48:56Z</time>
      </trkpt>
      <trkpt lat="45.54383" lon="6.84761">
        <ele>2931.3</ele>
        <time>2021-03-30T07:48:57Z</time>
      </trkpt>
      <trkpt lat="45.54383" lon="6.84761">
        <ele>2931.3</ele>
        <time>2021-03-30T07:48:58Z</time>
      </trkpt>
      <trkpt lat="45.54383" lon="6.84761">
        <ele>2931.3</ele>
        <time>2021-03-30T07:48:59Z</time>
      </trkpt>
      <trkpt lat="45.54383" lon="6.84761">
        <ele>2931.3</ele>
        <time>2021-03-30T07:49:00Z</time>
      </trkpt>
      <trkpt lat="45.54383" lon="6.84762">
        <ele>2931.3</ele>
        <time>2021-03-30T07:49:01Z</time>
      </trkpt>
      <trkpt lat="45.54383" lon="6.84762">
        <ele>2931.1</ele>
        <time>2021-03-30T07:49:02Z</time>
      </trkpt>
      <trkpt lat="45.54383" lon="6.84762">
        <ele>2931.1</ele>
        <time>2021-03-30T07:49:03Z</time>
      </trkpt>
      <trkpt lat="45.54382" lon="6.84762">
        <ele>2931.1</ele>
        <time>2021-03-30T07:49:04Z</time>
      </trkpt>
      <trkpt lat="45.54382" lon="6.84762">
        <ele>2931.1</ele>
        <time>2021-03-30T07:49:05Z</time>
      </trkpt>
      <trkpt lat="45.54382" lon="6.84763">
        <ele>2931.1</ele>
        <time>2021-03-30T07:49:06Z</time>
      </trkpt>
      <trkpt lat="45.54382" lon="6.84763">
        <ele>2931.1</ele>
        <time>2021-03-30T07:49:07Z</time>
      </trkpt>
      <trkpt lat="45.54382" lon="6.84763">
        <ele>2931.1</ele>
        <time>2021-03-30T07:49:08Z</time>
      </trkpt>
      <trkpt lat="45.54382" lon="6.84763">
        <ele>2931.1</ele>
        <time>2021-03-30T07:49:09Z</time>
      </trkpt>
      <trkpt lat="45.54382" lon="6.84763">
        <ele>2931.1</ele>
        <time>2021-03-30T07:49:10Z</time>
      </trkpt>
      <trkpt lat="45.54382" lon="6.84763">
        <ele>2931.1</ele>
        <time>2021-03-30T07:49:11Z</time>
      </trkpt>
      <trkpt lat="45.54382" lon="6.84764">
        <ele>2931.1</ele>
        <time>2021-03-30T07:49:12Z</time>
      </trkpt>
      <trkpt lat="45.54382" lon="6.84764">
        <ele>2931.1</ele>
        <time>2021-03-30T07:51:27Z</time>
      </trkpt>
      <trkpt lat="45.54382" lon="6.84764">
        <ele>2931.1</ele>
        <time>2021-03-30T07:51:28Z</time>
      </trkpt>
      <trkpt lat="45.54381" lon="6.84764">
        <ele>2931.1</ele>
        <time>2021-03-30T07:51:29Z</time>
      </trkpt>
      <trkpt lat="45.54382" lon="6.84765">
        <ele>2931.1</ele>
        <time>2021-03-30T07:51:30Z</time>
      </trkpt>
      <trkpt lat="45.54382" lon="6.84766">
        <ele>2930.8</ele>
        <time>2021-03-30T07:51:31Z</time>
      </trkpt>
      <trkpt lat="45.54383" lon="6.84767">
        <ele>2930.8</ele>
        <time>2021-03-30T07:51:32Z</time>
      </trkpt>
      <trkpt lat="45.54383" lon="6.84767">
        <ele>2930.8</ele>
        <time>2021-03-30T07:51:33Z</time>
      </trkpt>
      <trkpt lat="45.54384" lon="6.84767">
        <ele>2930.8</ele>
        <time>2021-03-30T07:51:34Z</time>
      </trkpt>
      <trkpt lat="45.54385" lon="6.84767">
        <ele>2930.7</ele>
        <time>2021-03-30T07:51:35Z</time>
      </trkpt>
      <trkpt lat="45.54386" lon="6.84767">
        <ele>2930.7</ele>
        <time>2021-03-30T07:51:36Z</time>
      </trkpt>
      <trkpt lat="45.54386" lon="6.84766">
        <ele>2931</ele>
        <time>2021-03-30T07:51:37Z</time>
      </trkpt>
      <trkpt lat="45.54387" lon="6.84765">
        <ele>2931</ele>
        <time>2021-03-30T07:51:38Z</time>
      </trkpt>
      <trkpt lat="45.54387" lon="6.84764">
        <ele>2930.9</ele>
        <time>2021-03-30T07:51:39Z</time>
      </trkpt>
      <trkpt lat="45.54387" lon="6.84764">
        <ele>2930.9</ele>
        <time>2021-03-30T07:51:40Z</time>
      </trkpt>
      <trkpt lat="45.54387" lon="6.84764">
        <ele>2930.9</ele>
        <time>2021-03-30T07:51:41Z</time>
      </trkpt>
      <trkpt lat="45.54387" lon="6.84764">
        <ele>2930.9</ele>
        <time>2021-03-30T07:51:42Z</time>
      </trkpt>
      <trkpt lat="45.54387" lon="6.84764">
        <ele>2930.9</ele>
        <time>2021-03-30T07:51:43Z</time>
      </trkpt>
      <trkpt lat="45.54387" lon="6.84764">
        <ele>2930.9</ele>
        <time>2021-03-30T07:51:44Z</time>
      </trkpt>
      <trkpt lat="45.54387" lon="6.84764">
        <ele>2930.9</ele>
        <time>2021-03-30T07:51:45Z</time>
      </trkpt>
      <trkpt lat="45.54387" lon="6.84764">
        <ele>2930.9</ele>
        <time>2021-03-30T07:51:46Z</time>
      </trkpt>
      <trkpt lat="45.54386" lon="6.84768">
        <ele>2930.7</ele>
        <time>2021-03-30T07:58:07Z</time>
      </trkpt>
      <trkpt lat="45.54386" lon="6.84768">
        <ele>2930.7</ele>
        <time>2021-03-30T07:58:08Z</time>
      </trkpt>
      <trkpt lat="45.54385" lon="6.84768">
        <ele>2930.7</ele>
        <time>2021-03-30T07:58:09Z</time>
      </trkpt>
      <trkpt lat="45.54385" lon="6.84768">
        <ele>2930.7</ele>
        <time>2021-03-30T07:58:10Z</time>
      </trkpt>
      <trkpt lat="45.54384" lon="6.84767">
        <ele>2930.7</ele>
        <time>2021-03-30T07:58:11Z</time>
      </trkpt>
      <trkpt lat="45.54384" lon="6.84767">
        <ele>2930.7</ele>
        <time>2021-03-30T07:58:12Z</time>
      </trkpt>
      <trkpt lat="45.54384" lon="6.84766">
        <ele>2930.8</ele>
        <time>2021-03-30T07:58:13Z</time>
      </trkpt>
      <trkpt lat="45.54383" lon="6.84766">
        <ele>2931.1</ele>
        <time>2021-03-30T07:58:14Z</time>
      </trkpt>
      <trkpt lat="45.54382" lon="6.84764">
        <ele>2931.1</ele>
        <time>2021-03-30T07:58:15Z</time>
      </trkpt>
      <trkpt lat="45.54382" lon="6.84763">
        <ele>2931.1</ele>
        <time>2021-03-30T07:58:16Z</time>
      </trkpt>
      <trkpt lat="45.54382" lon="6.84762">
        <ele>2931.1</ele>
        <time>2021-03-30T07:58:17Z</time>
      </trkpt>
      <trkpt lat="45.54381" lon="6.84761">
        <ele>2931.3</ele>
        <time>2021-03-30T07:58:20Z</time>
      </trkpt>
      <trkpt lat="45.54381" lon="6.84761">
        <ele>2931.4</ele>
        <time>2021-03-30T07:58:21Z</time>
      </trkpt>
      <trkpt lat="45.5438" lon="6.8476">
        <ele>2931.4</ele>
        <time>2021-03-30T07:58:22Z</time>
      </trkpt>
      <trkpt lat="45.5438" lon="6.84758">
        <ele>2931.4</ele>
        <time>2021-03-30T07:58:23Z</time>
      </trkpt>
      <trkpt lat="45.5438" lon="6.84757">
        <ele>2931.5</ele>
        <time>2021-03-30T07:58:24Z</time>
      </trkpt>
      <trkpt lat="45.5438" lon="6.84756">
        <ele>2931.5</ele>
        <time>2021-03-30T07:58:25Z</time>
      </trkpt>
      <trkpt lat="45.54379" lon="6.84756">
        <ele>2931.5</ele>
        <time>2021-03-30T07:58:26Z</time>
      </trkpt>
      <trkpt lat="45.54379" lon="6.84755">
        <ele>2931.5</ele>
        <time>2021-03-30T07:58:27Z</time>
      </trkpt>
      <trkpt lat="45.54378" lon="6.84755">
        <ele>2931.5</ele>
        <time>2021-03-30T07:58:28Z</time>
      </trkpt>
      <trkpt lat="45.54378" lon="6.84754">
        <ele>2931.6</ele>
        <time>2021-03-30T07:58:29Z</time>
      </trkpt>
      <trkpt lat="45.54377" lon="6.84754">
        <ele>2931.6</ele>
        <time>2021-03-30T07:58:30Z</time>
      </trkpt>
      <trkpt lat="45.54376" lon="6.84754">
        <ele>2931.6</ele>
        <time>2021-03-30T07:58:31Z</time>
      </trkpt>
      <trkpt lat="45.54376" lon="6.84754">
        <ele>2931.6</ele>
        <time>2021-03-30T07:58:32Z</time>
      </trkpt>
      <trkpt lat="45.54375" lon="6.84754">
        <ele>2931.6</ele>
        <time>2021-03-30T07:58:33Z</time>
      </trkpt>
      <trkpt lat="45.54375" lon="6.84754">
        <ele>2931.6</ele>
        <time>2021-03-30T07:58:34Z</time>
      </trkpt>
      <trkpt lat="45.54375" lon="6.84754">
        <ele>2931.6</ele>
        <time>2021-03-30T07:58:35Z</time>
      </trkpt>
      <trkpt lat="45.54375" lon="6.84754">
        <ele>2931.7</ele>
        <time>2021-03-30T07:58:36Z</time>
      </trkpt>
      <trkpt lat="45.54375" lon="6.84754">
        <ele>2931.7</ele>
        <time>2021-03-30T07:58:37Z</time>
      </trkpt>
      <trkpt lat="45.54375" lon="6.84754">
        <ele>2931.7</ele>
        <time>2021-03-30T07:58:38Z</time>
      </trkpt>
      <trkpt lat="45.54373" lon="6.84754">
        <ele>2931.7</ele>
        <time>2021-03-30T07:58:39Z</time>
      </trkpt>
      <trkpt lat="45.54372" lon="6.84754">
        <ele>2931.7</ele>
        <time>2021-03-30T07:58:40Z</time>
      </trkpt>
      <trkpt lat="45.54371" lon="6.84753">
        <ele>2931.9</ele>
        <time>2021-03-30T07:58:41Z</time>
      </trkpt>
      <trkpt lat="45.5437" lon="6.84753">
        <ele>2931.9</ele>
        <time>2021-03-30T07:58:42Z</time>
      </trkpt>
      <trkpt lat="45.54369" lon="6.84753">
        <ele>2932</ele>
        <time>2021-03-30T07:58:43Z</time>
      </trkpt>
      <trkpt lat="45.54369" lon="6.84752">
        <ele>2932.2</ele>
        <time>2021-03-30T07:59:00Z</time>
      </trkpt>
      <trkpt lat="45.54368" lon="6.84752">
        <ele>2932.2</ele>
        <time>2021-03-30T07:59:01Z</time>
      </trkpt>
      <trkpt lat="45.54367" lon="6.84752">
        <ele>2932.2</ele>
        <time>2021-03-30T07:59:02Z</time>
      </trkpt>
      <trkpt lat="45.54366" lon="6.84752">
        <ele>2932.2</ele>
        <time>2021-03-30T07:59:03Z</time>
      </trkpt>
      <trkpt lat="45.54365" lon="6.84751">
        <ele>2932.4</ele>
        <time>2021-03-30T07:59:04Z</time>
      </trkpt>
      <trkpt lat="45.54364" lon="6.84751">
        <ele>2932.4</ele>
        <time>2021-03-30T07:59:05Z</time>
      </trkpt>
      <trkpt lat="45.54364" lon="6.84751">
        <ele>2932.4</ele>
        <time>2021-03-30T07:59:06Z</time>
      </trkpt>
      <trkpt lat="45.54363" lon="6.8475">
        <ele>2932.7</ele>
        <time>2021-03-30T07:59:07Z</time>
      </trkpt>
      <trkpt lat="45.54362" lon="6.84751">
        <ele>2932.7</ele>
        <time>2021-03-30T07:59:08Z</time>
      </trkpt>
      <trkpt lat="45.54362" lon="6.84752">
        <ele>2932.7</ele>
        <time>2021-03-30T07:59:09Z</time>
      </trkpt>
      <trkpt lat="45.54362" lon="6.84752">
        <ele>2932.7</ele>
        <time>2021-03-30T07:59:10Z</time>
      </trkpt>
      <trkpt lat="45.54362" lon="6.84753">
        <ele>2932.7</ele>
        <time>2021-03-30T07:59:15Z</time>
      </trkpt>
      <trkpt lat="45.54362" lon="6.84754">
        <ele>2932.7</ele>
        <time>2021-03-30T07:59:16Z</time>
      </trkpt>
      <trkpt lat="45.54362" lon="6.84754">
        <ele>2932.7</ele>
        <time>2021-03-30T07:59:17Z</time>
      </trkpt>
      <trkpt lat="45.54362" lon="6.84755">
        <ele>2932.7</ele>
        <time>2021-03-30T07:59:18Z</time>
      </trkpt>
      <trkpt lat="45.54362" lon="6.84756">
        <ele>2932.7</ele>
        <time>2021-03-30T07:59:19Z</time>
      </trkpt>
      <trkpt lat="45.54362" lon="6.84756">
        <ele>2932.7</ele>
        <time>2021-03-30T07:59:20Z</time>
      </trkpt>
      <trkpt lat="45.54362" lon="6.84757">
        <ele>2932.7</ele>
        <time>2021-03-30T07:59:21Z</time>
      </trkpt>
      <trkpt lat="45.54362" lon="6.84758">
        <ele>2932.7</ele>
        <time>2021-03-30T07:59:22Z</time>
      </trkpt>
      <trkpt lat="45.54362" lon="6.84758">
        <ele>2932.7</ele>
        <time>2021-03-30T07:59:23Z</time>
      </trkpt>
      <trkpt lat="45.54362" lon="6.84759">
        <ele>2932.7</ele>
        <time>2021-03-30T07:59:24Z</time>
      </trkpt>
      <trkpt lat="45.54362" lon="6.8476">
        <ele>2932.7</ele>
        <time>2021-03-30T07:59:25Z</time>
      </trkpt>
      <trkpt lat="45.54362" lon="6.8476">
        <ele>2932.7</ele>
        <time>2021-03-30T07:59:26Z</time>
      </trkpt>
      <trkpt lat="45.54361" lon="6.84761">
        <ele>2932.7</ele>
        <time>2021-03-30T07:59:27Z</time>
      </trkpt>
      <trkpt lat="45.54361" lon="6.84761">
        <ele>2932.7</ele>
        <time>2021-03-30T07:59:28Z</time>
      </trkpt>
      <trkpt lat="45.5436" lon="6.84762">
        <ele>2932.7</ele>
        <time>2021-03-30T07:59:29Z</time>
      </trkpt>
      <trkpt lat="45.5436" lon="6.84762">
        <ele>2933.1</ele>
        <time>2021-03-30T07:59:30Z</time>
      </trkpt>
      <trkpt lat="45.54359" lon="6.84763">
        <ele>2933.1</ele>
        <time>2021-03-30T07:59:31Z</time>
      </trkpt>
      <trkpt lat="45.54359" lon="6.84764">
        <ele>2933.1</ele>
        <time>2021-03-30T07:59:32Z</time>
      </trkpt>
      <trkpt lat="45.54358" lon="6.84765">
        <ele>2933.1</ele>
        <time>2021-03-30T07:59:33Z</time>
      </trkpt>
      <trkpt lat="45.54357" lon="6.84765">
        <ele>2933.1</ele>
        <time>2021-03-30T07:59:34Z</time>
      </trkpt>
      <trkpt lat="45.54357" lon="6.84766">
        <ele>2933.5</ele>
        <time>2021-03-30T07:59:35Z</time>
      </trkpt>
      <trkpt lat="45.54356" lon="6.84766">
        <ele>2933.5</ele>
        <time>2021-03-30T07:59:36Z</time>
      </trkpt>
      <trkpt lat="45.54356" lon="6.84767">
        <ele>2933.5</ele>
        <time>2021-03-30T07:59:37Z</time>
      </trkpt>
      <trkpt lat="45.54356" lon="6.84768">
        <ele>2933.5</ele>
        <time>2021-03-30T07:59:38Z</time>
      </trkpt>
      <trkpt lat="45.54355" lon="6.84768">
        <ele>2933.5</ele>
        <time>2021-03-30T07:59:39Z</time>
      </trkpt>
      <trkpt lat="45.54355" lon="6.84769">
        <ele>2933.5</ele>
        <time>2021-03-30T07:59:40Z</time>
      </trkpt>
      <trkpt lat="45.54355" lon="6.8477">
        <ele>2933.5</ele>
        <time>2021-03-30T07:59:41Z</time>
      </trkpt>
      <trkpt lat="45.54355" lon="6.84771">
        <ele>2933.4</ele>
        <time>2021-03-30T07:59:42Z</time>
      </trkpt>
      <trkpt lat="45.54354" lon="6.84772">
        <ele>2933.4</ele>
        <time>2021-03-30T07:59:43Z</time>
      </trkpt>
      <trkpt lat="45.54354" lon="6.84772">
        <ele>2933.4</ele>
        <time>2021-03-30T07:59:44Z</time>
      </trkpt>
      <trkpt lat="45.54354" lon="6.84773">
        <ele>2933.4</ele>
        <time>2021-03-30T07:59:45Z</time>
      </trkpt>
      <trkpt lat="45.54354" lon="6.84774">
        <ele>2933.9</ele>
        <time>2021-03-30T07:59:46Z</time>
      </trkpt>
      <trkpt lat="45.54354" lon="6.84774">
        <ele>2933.9</ele>
        <time>2021-03-30T07:59:47Z</time>
      </trkpt>
      <trkpt lat="45.54354" lon="6.84775">
        <ele>2933.8</ele>
        <time>2021-03-30T07:59:48Z</time>
      </trkpt>
      <trkpt lat="45.54354" lon="6.84776">
        <ele>2933.8</ele>
        <time>2021-03-30T07:59:49Z</time>
      </trkpt>
      <trkpt lat="45.54353" lon="6.84777">
        <ele>2933.8</ele>
        <time>2021-03-30T07:59:50Z</time>
      </trkpt>
      <trkpt lat="45.54353" lon="6.84777">
        <ele>2933.8</ele>
        <time>2021-03-30T07:59:51Z</time>
      </trkpt>
      <trkpt lat="45.54353" lon="6.84778">
        <ele>2933.8</ele>
        <time>2021-03-30T07:59:52Z</time>
      </trkpt>
      <trkpt lat="45.54353" lon="6.84779">
        <ele>2933.8</ele>
        <time>2021-03-30T07:59:53Z</time>
      </trkpt>
      <trkpt lat="45.54353" lon="6.84779">
        <ele>2933.8</ele>
        <time>2021-03-30T07:59:54Z</time>
      </trkpt>
      <trkpt lat="45.54353" lon="6.8478">
        <ele>2933.8</ele>
        <time>2021-03-30T07:59:55Z</time>
      </trkpt>
      <trkpt lat="45.54352" lon="6.84781">
        <ele>2933.8</ele>
        <time>2021-03-30T07:59:56Z</time>
      </trkpt>
      <trkpt lat="45.54352" lon="6.84781">
        <ele>2933.8</ele>
        <time>2021-03-30T07:59:57Z</time>
      </trkpt>
      <trkpt lat="45.54352" lon="6.84782">
        <ele>2933.8</ele>
        <time>2021-03-30T07:59:58Z</time>
      </trkpt>
      <trkpt lat="45.54352" lon="6.84783">
        <ele>2933.8</ele>
        <time>2021-03-30T07:59:59Z</time>
      </trkpt>
      <trkpt lat="45.54352" lon="6.84783">
        <ele>2933.7</ele>
        <time>2021-03-30T08:00:00Z</time>
      </trkpt>
      <trkpt lat="45.54352" lon="6.84784">
        <ele>2933.7</ele>
        <time>2021-03-30T08:00:01Z</time>
      </trkpt>
      <trkpt lat="45.54352" lon="6.84785">
        <ele>2933.7</ele>
        <time>2021-03-30T08:00:02Z</time>
      </trkpt>
      <trkpt lat="45.54352" lon="6.84785">
        <ele>2933.7</ele>
        <time>2021-03-30T08:00:03Z</time>
      </trkpt>
      <trkpt lat="45.54352" lon="6.84786">
        <ele>2933.7</ele>
        <time>2021-03-30T08:00:04Z</time>
      </trkpt>
      <trkpt lat="45.54352" lon="6.84787">
        <ele>2933.7</ele>
        <time>2021-03-30T08:00:05Z</time>
      </trkpt>
      <trkpt lat="45.54352" lon="6.84788">
        <ele>2933.5</ele>
        <time>2021-03-30T08:00:06Z</time>
      </trkpt>
      <trkpt lat="45.54352" lon="6.84789">
        <ele>2933.5</ele>
        <time>2021-03-30T08:00:07Z</time>
      </trkpt>
      <trkpt lat="45.54352" lon="6.84789">
        <ele>2933.5</ele>
        <time>2021-03-30T08:00:08Z</time>
      </trkpt>
      <trkpt lat="45.54352" lon="6.8479">
        <ele>2933.5</ele>
        <time>2021-03-30T08:00:09Z</time>
      </trkpt>
      <trkpt lat="45.54352" lon="6.84791">
        <ele>2933.5</ele>
        <time>2021-03-30T08:00:10Z</time>
      </trkpt>
      <trkpt lat="45.54352" lon="6.84791">
        <ele>2933.5</ele>
        <time>2021-03-30T08:00:11Z</time>
      </trkpt>
      <trkpt lat="45.54352" lon="6.84792">
        <ele>2933.3</ele>
        <time>2021-03-30T08:00:12Z</time>
      </trkpt>
      <trkpt lat="45.54352" lon="6.84792">
        <ele>2933.3</ele>
        <time>2021-03-30T08:00:13Z</time>
      </trkpt>
      <trkpt lat="45.54352" lon="6.84792">
        <ele>2933.3</ele>
        <time>2021-03-30T08:00:14Z</time>
      </trkpt>
      <trkpt lat="45.54352" lon="6.84793">
        <ele>2933.3</ele>
        <time>2021-03-30T08:00:15Z</time>
      </trkpt>
      <trkpt lat="45.54352" lon="6.84793">
        <ele>2933.3</ele>
        <time>2021-03-30T08:00:16Z</time>
      </trkpt>
      <trkpt lat="45.54351" lon="6.84794">
        <ele>2933.3</ele>
        <time>2021-03-30T08:00:17Z</time>
      </trkpt>
      <trkpt lat="45.54351" lon="6.84794">
        <ele>2933.3</ele>
        <time>2021-03-30T08:00:18Z</time>
      </trkpt>
      <trkpt lat="45.54351" lon="6.84795">
        <ele>2933.9</ele>
        <time>2021-03-30T08:00:19Z</time>
      </trkpt>
      <trkpt lat="45.54351" lon="6.84796">
        <ele>2933.6</ele>
        <time>2021-03-30T08:00:20Z</time>
      </trkpt>
      <trkpt lat="45.54351" lon="6.84797">
        <ele>2933.6</ele>
        <time>2021-03-30T08:00:21Z</time>
      </trkpt>
      <trkpt lat="45.54351" lon="6.84797">
        <ele>2933.6</ele>
        <time>2021-03-30T08:00:22Z</time>
      </trkpt>
      <trkpt lat="45.5435" lon="6.84796">
        <ele>2933.6</ele>
        <time>2021-03-30T08:00:23Z</time>
      </trkpt>
      <trkpt lat="45.54349" lon="6.84795">
        <ele>2933.9</ele>
        <time>2021-03-30T08:00:24Z</time>
      </trkpt>
      <trkpt lat="45.54349" lon="6.84794">
        <ele>2933.9</ele>
        <time>2021-03-30T08:00:25Z</time>
      </trkpt>
      <trkpt lat="45.54348" lon="6.84792">
        <ele>2933.9</ele>
        <time>2021-03-30T08:00:26Z</time>
      </trkpt>
      <trkpt lat="45.54347" lon="6.84791">
        <ele>2934.6</ele>
        <time>2021-03-30T08:00:27Z</time>
      </trkpt>
      <trkpt lat="45.54347" lon="6.8479">
        <ele>2934.6</ele>
        <time>2021-03-30T08:00:28Z</time>
      </trkpt>
      <trkpt lat="45.54346" lon="6.84789">
        <ele>2934.6</ele>
        <time>2021-03-30T08:00:29Z</time>
      </trkpt>
      <trkpt lat="45.54346" lon="6.84787">
        <ele>2934.6</ele>
        <time>2021-03-30T08:00:30Z</time>
      </trkpt>
      <trkpt lat="45.54345" lon="6.84786">
        <ele>2934.7</ele>
        <time>2021-03-30T08:00:31Z</time>
      </trkpt>
      <trkpt lat="45.54344" lon="6.84785">
        <ele>2935.3</ele>
        <time>2021-03-30T08:00:48Z</time>
      </trkpt>
      <trkpt lat="45.54344" lon="6.84784">
        <ele>2935.3</ele>
        <time>2021-03-30T08:00:49Z</time>
      </trkpt>
      <trkpt lat="45.54343" lon="6.84782">
        <ele>2935.4</ele>
        <time>2021-03-30T08:00:50Z</time>
      </trkpt>
      <trkpt lat="45.54342" lon="6.84781">
        <ele>2935.4</ele>
        <time>2021-03-30T08:00:51Z</time>
      </trkpt>
      <trkpt lat="45.54342" lon="6.8478">
        <ele>2936</ele>
        <time>2021-03-30T08:00:52Z</time>
      </trkpt>
      <trkpt lat="45.54341" lon="6.8478">
        <ele>2936</ele>
        <time>2021-03-30T08:00:53Z</time>
      </trkpt>
      <trkpt lat="45.5434" lon="6.8478">
        <ele>2936</ele>
        <time>2021-03-30T08:00:54Z</time>
      </trkpt>
      <trkpt lat="45.54339" lon="6.8478">
        <ele>2936</ele>
        <time>2021-03-30T08:00:55Z</time>
      </trkpt>
      <trkpt lat="45.54338" lon="6.8478">
        <ele>2936.7</ele>
        <time>2021-03-30T08:00:56Z</time>
      </trkpt>
      <trkpt lat="45.54337" lon="6.8478">
        <ele>2936.7</ele>
        <time>2021-03-30T08:00:57Z</time>
      </trkpt>
      <trkpt lat="45.54336" lon="6.8478">
        <ele>2936.7</ele>
        <time>2021-03-30T08:00:58Z</time>
      </trkpt>
      <trkpt lat="45.54336" lon="6.8478">
        <ele>2937.5</ele>
        <time>2021-03-30T08:00:59Z</time>
      </trkpt>
      <trkpt lat="45.54335" lon="6.84779">
        <ele>2937.5</ele>
        <time>2021-03-30T08:01:00Z</time>
      </trkpt>
      <trkpt lat="45.54334" lon="6.84779">
        <ele>2937.5</ele>
        <time>2021-03-30T08:01:01Z</time>
      </trkpt>
      <trkpt lat="45.54334" lon="6.84779">
        <ele>2937.5</ele>
        <time>2021-03-30T08:01:02Z</time>
      </trkpt>
      <trkpt lat="45.54333" lon="6.84779">
        <ele>2937.4</ele>
        <time>2021-03-30T08:01:03Z</time>
      </trkpt>
      <trkpt lat="45.54332" lon="6.84778">
        <ele>2938.2</ele>
        <time>2021-03-30T08:01:04Z</time>
      </trkpt>
      <trkpt lat="45.54332" lon="6.84778">
        <ele>2938.2</ele>
        <time>2021-03-30T08:01:05Z</time>
      </trkpt>
      <trkpt lat="45.54331" lon="6.84778">
        <ele>2938.2</ele>
        <time>2021-03-30T08:01:06Z</time>
      </trkpt>
      <trkpt lat="45.54331" lon="6.84778">
        <ele>2938.2</ele>
        <time>2021-03-30T08:01:07Z</time>
      </trkpt>
      <trkpt lat="45.5433" lon="6.84777">
        <ele>2938.2</ele>
        <time>2021-03-30T08:01:08Z</time>
      </trkpt>
      <trkpt lat="45.5433" lon="6.84777">
        <ele>2938.9</ele>
        <time>2021-03-30T08:01:09Z</time>
      </trkpt>
      <trkpt lat="45.54329" lon="6.84777">
        <ele>2938.9</ele>
        <time>2021-03-30T08:01:10Z</time>
      </trkpt>
      <trkpt lat="45.54329" lon="6.84777">
        <ele>2938.9</ele>
        <time>2021-03-30T08:01:11Z</time>
      </trkpt>
      <trkpt lat="45.54328" lon="6.84777">
        <ele>2938.9</ele>
        <time>2021-03-30T08:01:12Z</time>
      </trkpt>
      <trkpt lat="45.54328" lon="6.84777">
        <ele>2938.9</ele>
        <time>2021-03-30T08:01:13Z</time>
      </trkpt>
      <trkpt lat="45.54327" lon="6.84777">
        <ele>2938.9</ele>
        <time>2021-03-30T08:01:14Z</time>
      </trkpt>
      <trkpt lat="45.54327" lon="6.84777">
        <ele>2938.9</ele>
        <time>2021-03-30T08:01:15Z</time>
      </trkpt>
      <trkpt lat="45.54326" lon="6.84778">
        <ele>2939.7</ele>
        <time>2021-03-30T08:01:16Z</time>
      </trkpt>
      <trkpt lat="45.54326" lon="6.84778">
        <ele>2939.7</ele>
        <time>2021-03-30T08:01:17Z</time>
      </trkpt>
      <trkpt lat="45.54325" lon="6.84778">
        <ele>2939.7</ele>
        <time>2021-03-30T08:01:18Z</time>
      </trkpt>
      <trkpt lat="45.54325" lon="6.84778">
        <ele>2939.7</ele>
        <time>2021-03-30T08:01:19Z</time>
      </trkpt>
      <trkpt lat="45.54324" lon="6.84778">
        <ele>2940.5</ele>
        <time>2021-03-30T08:01:20Z</time>
      </trkpt>
      <trkpt lat="45.54323" lon="6.84778">
        <ele>2940.5</ele>
        <time>2021-03-30T08:01:21Z</time>
      </trkpt>
      <trkpt lat="45.54323" lon="6.84778">
        <ele>2940.5</ele>
        <time>2021-03-30T08:01:22Z</time>
      </trkpt>
      <trkpt lat="45.54322" lon="6.84778">
        <ele>2940.5</ele>
        <time>2021-03-30T08:01:23Z</time>
      </trkpt>
      <trkpt lat="45.54322" lon="6.84778">
        <ele>2940.5</ele>
        <time>2021-03-30T08:01:24Z</time>
      </trkpt>
      <trkpt lat="45.54321" lon="6.84779">
        <ele>2940.6</ele>
        <time>2021-03-30T08:01:25Z</time>
      </trkpt>
      <trkpt lat="45.54321" lon="6.84779">
        <ele>2941.4</ele>
        <time>2021-03-30T08:01:26Z</time>
      </trkpt>
      <trkpt lat="45.5432" lon="6.8478">
        <ele>2941.4</ele>
        <time>2021-03-30T08:01:27Z</time>
      </trkpt>
      <trkpt lat="45.5432" lon="6.84781">
        <ele>2941.4</ele>
        <time>2021-03-30T08:01:28Z</time>
      </trkpt>
      <trkpt lat="45.54319" lon="6.84781">
        <ele>2941.4</ele>
        <time>2021-03-30T08:01:29Z</time>
      </trkpt>
      <trkpt lat="45.54319" lon="6.84782">
        <ele>2941.4</ele>
        <time>2021-03-30T08:01:30Z</time>
      </trkpt>
      <trkpt lat="45.54319" lon="6.84783">
        <ele>2941.4</ele>
        <time>2021-03-30T08:01:31Z</time>
      </trkpt>
      <trkpt lat="45.54318" lon="6.84783">
        <ele>2941.4</ele>
        <time>2021-03-30T08:01:32Z</time>
      </trkpt>
      <trkpt lat="45.54318" lon="6.84784">
        <ele>2942.2</ele>
        <time>2021-03-30T08:01:33Z</time>
      </trkpt>
      <trkpt lat="45.54317" lon="6.84785">
        <ele>2942.2</ele>
        <time>2021-03-30T08:01:34Z</time>
      </trkpt>
      <trkpt lat="45.54317" lon="6.84785">
        <ele>2942.2</ele>
        <time>2021-03-30T08:01:35Z</time>
      </trkpt>
      <trkpt lat="45.54316" lon="6.84786">
        <ele>2942.2</ele>
        <time>2021-03-30T08:01:36Z</time>
      </trkpt>
      <trkpt lat="45.54316" lon="6.84787">
        <ele>2942.2</ele>
        <time>2021-03-30T08:01:37Z</time>
      </trkpt>
      <trkpt lat="45.54316" lon="6.84787">
        <ele>2942.2</ele>
        <time>2021-03-30T08:01:38Z</time>
      </trkpt>
      <trkpt lat="45.54315" lon="6.84788">
        <ele>2942.2</ele>
        <time>2021-03-30T08:01:39Z</time>
      </trkpt>
      <trkpt lat="45.54315" lon="6.84788">
        <ele>2942.2</ele>
        <time>2021-03-30T08:01:40Z</time>
      </trkpt>
      <trkpt lat="45.54315" lon="6.84789">
        <ele>2942.2</ele>
        <time>2021-03-30T08:01:41Z</time>
      </trkpt>
      <trkpt lat="45.54315" lon="6.84789">
        <ele>2943.1</ele>
        <time>2021-03-30T08:01:42Z</time>
      </trkpt>
      <trkpt lat="45.54315" lon="6.8479">
        <ele>2943.1</ele>
        <time>2021-03-30T08:01:43Z</time>
      </trkpt>
      <trkpt lat="45.54314" lon="6.84791">
        <ele>2943.1</ele>
        <time>2021-03-30T08:01:44Z</time>
      </trkpt>
      <trkpt lat="45.54314" lon="6.84792">
        <ele>2943.1</ele>
        <time>2021-03-30T08:01:45Z</time>
      </trkpt>
      <trkpt lat="45.54314" lon="6.84793">
        <ele>2943.1</ele>
        <time>2021-03-30T08:01:46Z</time>
      </trkpt>
      <trkpt lat="45.54314" lon="6.84794">
        <ele>2943.1</ele>
        <time>2021-03-30T08:01:47Z</time>
      </trkpt>
      <trkpt lat="45.54314" lon="6.84794">
        <ele>2943.1</ele>
        <time>2021-03-30T08:01:48Z</time>
      </trkpt>
      <trkpt lat="45.54314" lon="6.84796">
        <ele>2943.1</ele>
        <time>2021-03-30T08:01:49Z</time>
      </trkpt>
      <trkpt lat="45.54314" lon="6.84797">
        <ele>2943</ele>
        <time>2021-03-30T08:01:50Z</time>
      </trkpt>
      <trkpt lat="45.54314" lon="6.84798">
        <ele>2943</ele>
        <time>2021-03-30T08:01:51Z</time>
      </trkpt>
      <trkpt lat="45.54313" lon="6.84799">
        <ele>2943</ele>
        <time>2021-03-30T08:01:52Z</time>
      </trkpt>
      <trkpt lat="45.54313" lon="6.84799">
        <ele>2943</ele>
        <time>2021-03-30T08:01:53Z</time>
      </trkpt>
      <trkpt lat="45.54313" lon="6.848">
        <ele>2943</ele>
        <time>2021-03-30T08:01:54Z</time>
      </trkpt>
      <trkpt lat="45.54312" lon="6.84801">
        <ele>2942.9</ele>
        <time>2021-03-30T08:01:55Z</time>
      </trkpt>
      <trkpt lat="45.54312" lon="6.84801">
        <ele>2943.9</ele>
        <time>2021-03-30T08:01:56Z</time>
      </trkpt>
      <trkpt lat="45.54311" lon="6.84802">
        <ele>2943.9</ele>
        <time>2021-03-30T08:01:57Z</time>
      </trkpt>
      <trkpt lat="45.54311" lon="6.84802">
        <ele>2943.9</ele>
        <time>2021-03-30T08:01:58Z</time>
      </trkpt>
      <trkpt lat="45.5431" lon="6.84803">
        <ele>2943.9</ele>
        <time>2021-03-30T08:01:59Z</time>
      </trkpt>
      <trkpt lat="45.5431" lon="6.84804">
        <ele>2943.9</ele>
        <time>2021-03-30T08:02:00Z</time>
      </trkpt>
      <trkpt lat="45.5431" lon="6.84804">
        <ele>2943.9</ele>
        <time>2021-03-30T08:02:01Z</time>
      </trkpt>
      <trkpt lat="45.5431" lon="6.84805">
        <ele>2943.8</ele>
        <time>2021-03-30T08:02:02Z</time>
      </trkpt>
      <trkpt lat="45.5431" lon="6.84805">
        <ele>2943.8</ele>
        <time>2021-03-30T08:02:03Z</time>
      </trkpt>
      <trkpt lat="45.54309" lon="6.84806">
        <ele>2943.8</ele>
        <time>2021-03-30T08:02:04Z</time>
      </trkpt>
      <trkpt lat="45.54309" lon="6.84807">
        <ele>2943.8</ele>
        <time>2021-03-30T08:02:05Z</time>
      </trkpt>
      <trkpt lat="45.54309" lon="6.84807">
        <ele>2944.8</ele>
        <time>2021-03-30T08:02:06Z</time>
      </trkpt>
      <trkpt lat="45.54309" lon="6.84808">
        <ele>2944.8</ele>
        <time>2021-03-30T08:02:07Z</time>
      </trkpt>
      <trkpt lat="45.54308" lon="6.84809">
        <ele>2944.8</ele>
        <time>2021-03-30T08:02:08Z</time>
      </trkpt>
      <trkpt lat="45.54308" lon="6.84809">
        <ele>2944.7</ele>
        <time>2021-03-30T08:02:09Z</time>
      </trkpt>
      <trkpt lat="45.54308" lon="6.8481">
        <ele>2944.7</ele>
        <time>2021-03-30T08:02:10Z</time>
      </trkpt>
      <trkpt lat="45.54307" lon="6.8481">
        <ele>2944.7</ele>
        <time>2021-03-30T08:02:11Z</time>
      </trkpt>
      <trkpt lat="45.54307" lon="6.84811">
        <ele>2944.7</ele>
        <time>2021-03-30T08:02:12Z</time>
      </trkpt>
      <trkpt lat="45.54306" lon="6.84811">
        <ele>2944.7</ele>
        <time>2021-03-30T08:02:13Z</time>
      </trkpt>
      <trkpt lat="45.54306" lon="6.84811">
        <ele>2945.8</ele>
        <time>2021-03-30T08:02:14Z</time>
      </trkpt>
      <trkpt lat="45.54306" lon="6.84812">
        <ele>2945.8</ele>
        <time>2021-03-30T08:02:15Z</time>
      </trkpt>
      <trkpt lat="45.54305" lon="6.84812">
        <ele>2945.8</ele>
        <time>2021-03-30T08:02:16Z</time>
      </trkpt>
      <trkpt lat="45.54305" lon="6.84812">
        <ele>2945.8</ele>
        <time>2021-03-30T08:02:17Z</time>
      </trkpt>
      <trkpt lat="45.54304" lon="6.84812">
        <ele>2945.8</ele>
        <time>2021-03-30T08:02:18Z</time>
      </trkpt>
      <trkpt lat="45.54304" lon="6.84813">
        <ele>2945.8</ele>
        <time>2021-03-30T08:02:19Z</time>
      </trkpt>
      <trkpt lat="45.54303" lon="6.84813">
        <ele>2945.8</ele>
        <time>2021-03-30T08:02:20Z</time>
      </trkpt>
      <trkpt lat="45.54303" lon="6.84813">
        <ele>2945.7</ele>
        <time>2021-03-30T08:02:21Z</time>
      </trkpt>
      <trkpt lat="45.54303" lon="6.84813">
        <ele>2946.9</ele>
        <time>2021-03-30T08:02:22Z</time>
      </trkpt>
      <trkpt lat="45.54302" lon="6.84814">
        <ele>2946.9</ele>
        <time>2021-03-30T08:02:23Z</time>
      </trkpt>
      <trkpt lat="45.54302" lon="6.84814">
        <ele>2946.9</ele>
        <time>2021-03-30T08:02:24Z</time>
      </trkpt>
      <trkpt lat="45.54301" lon="6.84814">
        <ele>2946.9</ele>
        <time>2021-03-30T08:02:25Z</time>
      </trkpt>
      <trkpt lat="45.543" lon="6.84814">
        <ele>2946.9</ele>
        <time>2021-03-30T08:02:26Z</time>
      </trkpt>
      <trkpt lat="45.543" lon="6.84814">
        <ele>2948</ele>
        <time>2021-03-30T08:02:27Z</time>
      </trkpt>
      <trkpt lat="45.54299" lon="6.84814">
        <ele>2948</ele>
        <time>2021-03-30T08:02:28Z</time>
      </trkpt>
      <trkpt lat="45.54299" lon="6.84814">
        <ele>2948</ele>
        <time>2021-03-30T08:02:29Z</time>
      </trkpt>
      <trkpt lat="45.54298" lon="6.84814">
        <ele>2948</ele>
        <time>2021-03-30T08:02:30Z</time>
      </trkpt>
      <trkpt lat="45.54297" lon="6.84814">
        <ele>2948</ele>
        <time>2021-03-30T08:02:31Z</time>
      </trkpt>
      <trkpt lat="45.54297" lon="6.84814">
        <ele>2949</ele>
        <time>2021-03-30T08:02:32Z</time>
      </trkpt>
      <trkpt lat="45.54296" lon="6.84814">
        <ele>2949</ele>
        <time>2021-03-30T08:02:33Z</time>
      </trkpt>
      <trkpt lat="45.54295" lon="6.84815">
        <ele>2949</ele>
        <time>2021-03-30T08:02:34Z</time>
      </trkpt>
      <trkpt lat="45.54294" lon="6.84815">
        <ele>2949</ele>
        <time>2021-03-30T08:02:35Z</time>
      </trkpt>
      <trkpt lat="45.54294" lon="6.84815">
        <ele>2950</ele>
        <time>2021-03-30T08:02:36Z</time>
      </trkpt>
      <trkpt lat="45.54293" lon="6.84815">
        <ele>2950</ele>
        <time>2021-03-30T08:02:37Z</time>
      </trkpt>
      <trkpt lat="45.54293" lon="6.84815">
        <ele>2950</ele>
        <time>2021-03-30T08:02:38Z</time>
      </trkpt>
      <trkpt lat="45.54292" lon="6.84816">
        <ele>2950</ele>
        <time>2021-03-30T08:02:39Z</time>
      </trkpt>
      <trkpt lat="45.54291" lon="6.84816">
        <ele>2950</ele>
        <time>2021-03-30T08:02:40Z</time>
      </trkpt>
      <trkpt lat="45.54291" lon="6.84816">
        <ele>2951</ele>
        <time>2021-03-30T08:02:41Z</time>
      </trkpt>
      <trkpt lat="45.5429" lon="6.84816">
        <ele>2951</ele>
        <time>2021-03-30T08:02:42Z</time>
      </trkpt>
      <trkpt lat="45.54289" lon="6.84816">
        <ele>2951</ele>
        <time>2021-03-30T08:02:43Z</time>
      </trkpt>
      <trkpt lat="45.54289" lon="6.84816">
        <ele>2951</ele>
        <time>2021-03-30T08:02:44Z</time>
      </trkpt>
      <trkpt lat="45.54288" lon="6.84816">
        <ele>2951</ele>
        <time>2021-03-30T08:02:45Z</time>
      </trkpt>
      <trkpt lat="45.54287" lon="6.84817">
        <ele>2952</ele>
        <time>2021-03-30T08:02:46Z</time>
      </trkpt>
      <trkpt lat="45.54287" lon="6.84817">
        <ele>2952</ele>
        <time>2021-03-30T08:02:47Z</time>
      </trkpt>
      <trkpt lat="45.54286" lon="6.84818">
        <ele>2951.8</ele>
        <time>2021-03-30T08:02:48Z</time>
      </trkpt>
      <trkpt lat="45.54285" lon="6.84818">
        <ele>2951.8</ele>
        <time>2021-03-30T08:02:49Z</time>
      </trkpt>
      <trkpt lat="45.54284" lon="6.84818">
        <ele>2952.9</ele>
        <time>2021-03-30T08:02:50Z</time>
      </trkpt>
      <trkpt lat="45.54284" lon="6.84818">
        <ele>2952.9</ele>
        <time>2021-03-30T08:02:51Z</time>
      </trkpt>
      <trkpt lat="45.54283" lon="6.84818">
        <ele>2952.9</ele>
        <time>2021-03-30T08:02:52Z</time>
      </trkpt>
      <trkpt lat="45.54282" lon="6.84818">
        <ele>2952.9</ele>
        <time>2021-03-30T08:02:53Z</time>
      </trkpt>
      <trkpt lat="45.54282" lon="6.84818">
        <ele>2954.1</ele>
        <time>2021-03-30T08:02:54Z</time>
      </trkpt>
      <trkpt lat="45.54281" lon="6.84818">
        <ele>2954.1</ele>
        <time>2021-03-30T08:02:55Z</time>
      </trkpt>
      <trkpt lat="45.54281" lon="6.84819">
        <ele>2954.1</ele>
        <time>2021-03-30T08:02:56Z</time>
      </trkpt>
      <trkpt lat="45.5428" lon="6.84819">
        <ele>2954.1</ele>
        <time>2021-03-30T08:02:57Z</time>
      </trkpt>
      <trkpt lat="45.5428" lon="6.84819">
        <ele>2954.1</ele>
        <time>2021-03-30T08:02:58Z</time>
      </trkpt>
      <trkpt lat="45.54279" lon="6.8482">
        <ele>2954.1</ele>
        <time>2021-03-30T08:02:59Z</time>
      </trkpt>
      <trkpt lat="45.54279" lon="6.8482">
        <ele>2955.2</ele>
        <time>2021-03-30T08:03:00Z</time>
      </trkpt>
      <trkpt lat="45.54278" lon="6.8482">
        <ele>2955.2</ele>
        <time>2021-03-30T08:03:01Z</time>
      </trkpt>
      <trkpt lat="45.54277" lon="6.8482">
        <ele>2955.2</ele>
        <time>2021-03-30T08:03:02Z</time>
      </trkpt>
      <trkpt lat="45.54277" lon="6.84821">
        <ele>2955.2</ele>
        <time>2021-03-30T08:03:03Z</time>
      </trkpt>
      <trkpt lat="45.54276" lon="6.84821">
        <ele>2955.2</ele>
        <time>2021-03-30T08:03:04Z</time>
      </trkpt>
      <trkpt lat="45.54276" lon="6.84821">
        <ele>2956.4</ele>
        <time>2021-03-30T08:03:05Z</time>
      </trkpt>
      <trkpt lat="45.54275" lon="6.84821">
        <ele>2956.4</ele>
        <time>2021-03-30T08:03:06Z</time>
      </trkpt>
      <trkpt lat="45.54274" lon="6.84821">
        <ele>2956.4</ele>
        <time>2021-03-30T08:03:07Z</time>
      </trkpt>
      <trkpt lat="45.54274" lon="6.84822">
        <ele>2956.2</ele>
        <time>2021-03-30T08:03:08Z</time>
      </trkpt>
      <trkpt lat="45.54273" lon="6.84822">
        <ele>2956.2</ele>
        <time>2021-03-30T08:03:09Z</time>
      </trkpt>
      <trkpt lat="45.54272" lon="6.84822">
        <ele>2957.2</ele>
        <time>2021-03-30T08:03:10Z</time>
      </trkpt>
      <trkpt lat="45.54272" lon="6.84822">
        <ele>2957.2</ele>
        <time>2021-03-30T08:03:11Z</time>
      </trkpt>
      <trkpt lat="45.54271" lon="6.84822">
        <ele>2957.2</ele>
        <time>2021-03-30T08:03:12Z</time>
      </trkpt>
      <trkpt lat="45.54271" lon="6.84823">
        <ele>2957.2</ele>
        <time>2021-03-30T08:03:13Z</time>
      </trkpt>
      <trkpt lat="45.5427" lon="6.84823">
        <ele>2957.2</ele>
        <time>2021-03-30T08:03:14Z</time>
      </trkpt>
      <trkpt lat="45.5427" lon="6.84823">
        <ele>2958.1</ele>
        <time>2021-03-30T08:03:15Z</time>
      </trkpt>
      <trkpt lat="45.54269" lon="6.84823">
        <ele>2958.1</ele>
        <time>2021-03-30T08:03:16Z</time>
      </trkpt>
      <trkpt lat="45.54268" lon="6.84823">
        <ele>2958.1</ele>
        <time>2021-03-30T08:03:17Z</time>
      </trkpt>
      <trkpt lat="45.54267" lon="6.84823">
        <ele>2958.1</ele>
        <time>2021-03-30T08:03:18Z</time>
      </trkpt>
      <trkpt lat="45.54267" lon="6.84823">
        <ele>2959</ele>
        <time>2021-03-30T08:03:19Z</time>
      </trkpt>
      <trkpt lat="45.54266" lon="6.84823">
        <ele>2959</ele>
        <time>2021-03-30T08:03:20Z</time>
      </trkpt>
      <trkpt lat="45.54266" lon="6.84823">
        <ele>2959</ele>
        <time>2021-03-30T08:03:21Z</time>
      </trkpt>
      <trkpt lat="45.54265" lon="6.84823">
        <ele>2959</ele>
        <time>2021-03-30T08:03:22Z</time>
      </trkpt>
      <trkpt lat="45.54264" lon="6.84823">
        <ele>2959</ele>
        <time>2021-03-30T08:03:23Z</time>
      </trkpt>
      <trkpt lat="45.54264" lon="6.84823">
        <ele>2959</ele>
        <time>2021-03-30T08:03:24Z</time>
      </trkpt>
      <trkpt lat="45.54263" lon="6.84823">
        <ele>2959.9</ele>
        <time>2021-03-30T08:03:25Z</time>
      </trkpt>
      <trkpt lat="45.54263" lon="6.84823">
        <ele>2959.9</ele>
        <time>2021-03-30T08:03:26Z</time>
      </trkpt>
      <trkpt lat="45.54262" lon="6.84823">
        <ele>2959.9</ele>
        <time>2021-03-30T08:03:27Z</time>
      </trkpt>
      <trkpt lat="45.54262" lon="6.84823">
        <ele>2959.9</ele>
        <time>2021-03-30T08:03:28Z</time>
      </trkpt>
      <trkpt lat="45.54262" lon="6.84823">
        <ele>2959.9</ele>
        <time>2021-03-30T08:03:29Z</time>
      </trkpt>
      <trkpt lat="45.54261" lon="6.84823">
        <ele>2959.9</ele>
        <time>2021-03-30T08:03:30Z</time>
      </trkpt>
      <trkpt lat="45.54261" lon="6.84823">
        <ele>2960.9</ele>
        <time>2021-03-30T08:03:31Z</time>
      </trkpt>
      <trkpt lat="45.5426" lon="6.84823">
        <ele>2960.9</ele>
        <time>2021-03-30T08:03:32Z</time>
      </trkpt>
      <trkpt lat="45.5426" lon="6.84823">
        <ele>2960.9</ele>
        <time>2021-03-30T08:03:33Z</time>
      </trkpt>
      <trkpt lat="45.54259" lon="6.84823">
        <ele>2960.9</ele>
        <time>2021-03-30T08:03:34Z</time>
      </trkpt>
      <trkpt lat="45.54258" lon="6.84823">
        <ele>2960.9</ele>
        <time>2021-03-30T08:03:35Z</time>
      </trkpt>
      <trkpt lat="45.54258" lon="6.84823">
        <ele>2960.9</ele>
        <time>2021-03-30T08:03:36Z</time>
      </trkpt>
      <trkpt lat="45.54257" lon="6.84823">
        <ele>2961.8</ele>
        <time>2021-03-30T08:03:37Z</time>
      </trkpt>
      <trkpt lat="45.54257" lon="6.84822">
        <ele>2961.8</ele>
        <time>2021-03-30T08:03:38Z</time>
      </trkpt>
      <trkpt lat="45.54256" lon="6.84822">
        <ele>2961.8</ele>
        <time>2021-03-30T08:03:39Z</time>
      </trkpt>
      <trkpt lat="45.54255" lon="6.84822">
        <ele>2961.8</ele>
        <time>2021-03-30T08:03:40Z</time>
      </trkpt>
      <trkpt lat="45.54254" lon="6.84822">
        <ele>2962.9</ele>
        <time>2021-03-30T08:03:41Z</time>
      </trkpt>
      <trkpt lat="45.54253" lon="6.84821">
        <ele>2963</ele>
        <time>2021-03-30T08:03:42Z</time>
      </trkpt>
      <trkpt lat="45.54252" lon="6.84821">
        <ele>2963</ele>
        <time>2021-03-30T08:03:43Z</time>
      </trkpt>
      <trkpt lat="45.54251" lon="6.84822">
        <ele>2964</ele>
        <time>2021-03-30T08:03:44Z</time>
      </trkpt>
      <trkpt lat="45.5425" lon="6.84822">
        <ele>2964</ele>
        <time>2021-03-30T08:03:45Z</time>
      </trkpt>
      <trkpt lat="45.5425" lon="6.84822">
        <ele>2963.9</ele>
        <time>2021-03-30T08:03:46Z</time>
      </trkpt>
      <trkpt lat="45.54249" lon="6.84822">
        <ele>2963.9</ele>
        <time>2021-03-30T08:03:47Z</time>
      </trkpt>
      <trkpt lat="45.54248" lon="6.84822">
        <ele>2965</ele>
        <time>2021-03-30T08:03:48Z</time>
      </trkpt>
      <trkpt lat="45.54248" lon="6.84822">
        <ele>2965</ele>
        <time>2021-03-30T08:03:49Z</time>
      </trkpt>
      <trkpt lat="45.54247" lon="6.84822">
        <ele>2964.9</ele>
        <time>2021-03-30T08:03:50Z</time>
      </trkpt>
      <trkpt lat="45.54246" lon="6.84822">
        <ele>2964.9</ele>
        <time>2021-03-30T08:03:51Z</time>
      </trkpt>
      <trkpt lat="45.54246" lon="6.84822">
        <ele>2965.8</ele>
        <time>2021-03-30T08:03:52Z</time>
      </trkpt>
      <trkpt lat="45.54245" lon="6.84823">
        <ele>2965.8</ele>
        <time>2021-03-30T08:03:53Z</time>
      </trkpt>
      <trkpt lat="45.54244" lon="6.84823">
        <ele>2965.8</ele>
        <time>2021-03-30T08:03:54Z</time>
      </trkpt>
      <trkpt lat="45.54244" lon="6.84823">
        <ele>2965.8</ele>
        <time>2021-03-30T08:03:55Z</time>
      </trkpt>
      <trkpt lat="45.54243" lon="6.84823">
        <ele>2965.8</ele>
        <time>2021-03-30T08:03:56Z</time>
      </trkpt>
      <trkpt lat="45.54242" lon="6.84824">
        <ele>2966.7</ele>
        <time>2021-03-30T08:03:57Z</time>
      </trkpt>
      <trkpt lat="45.54242" lon="6.84824">
        <ele>2966.7</ele>
        <time>2021-03-30T08:03:58Z</time>
      </trkpt>
      <trkpt lat="45.54241" lon="6.84825">
        <ele>2966.7</ele>
        <time>2021-03-30T08:03:59Z</time>
      </trkpt>
      <trkpt lat="45.5424" lon="6.84825">
        <ele>2966.7</ele>
        <time>2021-03-30T08:04:00Z</time>
      </trkpt>
      <trkpt lat="45.5424" lon="6.84826">
        <ele>2966.5</ele>
        <time>2021-03-30T08:04:01Z</time>
      </trkpt>
      <trkpt lat="45.5424" lon="6.84827">
        <ele>2966.5</ele>
        <time>2021-03-30T08:04:02Z</time>
      </trkpt>
      <trkpt lat="45.5424" lon="6.84828">
        <ele>2967.4</ele>
        <time>2021-03-30T08:04:03Z</time>
      </trkpt>
      <trkpt lat="45.54239" lon="6.84828">
        <ele>2967.4</ele>
        <time>2021-03-30T08:04:04Z</time>
      </trkpt>
      <trkpt lat="45.54239" lon="6.84829">
        <ele>2967.5</ele>
        <time>2021-03-30T08:04:05Z</time>
      </trkpt>
      <trkpt lat="45.54239" lon="6.8483">
        <ele>2967.5</ele>
        <time>2021-03-30T08:04:06Z</time>
      </trkpt>
      <trkpt lat="45.54238" lon="6.8483">
        <ele>2967.2</ele>
        <time>2021-03-30T08:04:07Z</time>
      </trkpt>
      <trkpt lat="45.54238" lon="6.84831">
        <ele>2967.2</ele>
        <time>2021-03-30T08:04:08Z</time>
      </trkpt>
      <trkpt lat="45.54238" lon="6.84832">
        <ele>2967.2</ele>
        <time>2021-03-30T08:04:09Z</time>
      </trkpt>
      <trkpt lat="45.54238" lon="6.84833">
        <ele>2967.3</ele>
        <time>2021-03-30T08:04:10Z</time>
      </trkpt>
      <trkpt lat="45.54238" lon="6.84833">
        <ele>2967.3</ele>
        <time>2021-03-30T08:04:11Z</time>
      </trkpt>
      <trkpt lat="45.54238" lon="6.84834">
        <ele>2967.3</ele>
        <time>2021-03-30T08:04:12Z</time>
      </trkpt>
      <trkpt lat="45.54238" lon="6.84835">
        <ele>2967</ele>
        <time>2021-03-30T08:04:13Z</time>
      </trkpt>
      <trkpt lat="45.54237" lon="6.84835">
        <ele>2967</ele>
        <time>2021-03-30T08:04:14Z</time>
      </trkpt>
      <trkpt lat="45.54237" lon="6.84836">
        <ele>2967</ele>
        <time>2021-03-30T08:04:15Z</time>
      </trkpt>
      <trkpt lat="45.54237" lon="6.84836">
        <ele>2967.1</ele>
        <time>2021-03-30T08:04:16Z</time>
      </trkpt>
      <trkpt lat="45.54237" lon="6.84837">
        <ele>2967.1</ele>
        <time>2021-03-30T08:04:17Z</time>
      </trkpt>
      <trkpt lat="45.54237" lon="6.84837">
        <ele>2967.1</ele>
        <time>2021-03-30T08:04:18Z</time>
      </trkpt>
      <trkpt lat="45.54237" lon="6.84838">
        <ele>2967.1</ele>
        <time>2021-03-30T08:04:19Z</time>
      </trkpt>
      <trkpt lat="45.54237" lon="6.84839">
        <ele>2966.8</ele>
        <time>2021-03-30T08:04:20Z</time>
      </trkpt>
      <trkpt lat="45.54237" lon="6.84839">
        <ele>2967.7</ele>
        <time>2021-03-30T08:04:21Z</time>
      </trkpt>
      <trkpt lat="45.54237" lon="6.8484">
        <ele>2967.8</ele>
        <time>2021-03-30T08:04:22Z</time>
      </trkpt>
      <trkpt lat="45.54236" lon="6.84841">
        <ele>2967.8</ele>
        <time>2021-03-30T08:04:23Z</time>
      </trkpt>
      <trkpt lat="45.54236" lon="6.84841">
        <ele>2967.8</ele>
        <time>2021-03-30T08:04:24Z</time>
      </trkpt>
      <trkpt lat="45.54236" lon="6.84842">
        <ele>2967.8</ele>
        <time>2021-03-30T08:04:25Z</time>
      </trkpt>
      <trkpt lat="45.54236" lon="6.84842">
        <ele>2967.8</ele>
        <time>2021-03-30T08:04:26Z</time>
      </trkpt>
      <trkpt lat="45.54235" lon="6.84843">
        <ele>2967.9</ele>
        <time>2021-03-30T08:04:27Z</time>
      </trkpt>
      <trkpt lat="45.54235" lon="6.84843">
        <ele>2967.5</ele>
        <time>2021-03-30T08:04:28Z</time>
      </trkpt>
      <trkpt lat="45.54234" lon="6.84844">
        <ele>2967.5</ele>
        <time>2021-03-30T08:04:29Z</time>
      </trkpt>
      <trkpt lat="45.54234" lon="6.84844">
        <ele>2968.3</ele>
        <time>2021-03-30T08:04:30Z</time>
      </trkpt>
      <trkpt lat="45.54233" lon="6.84844">
        <ele>2968.4</ele>
        <time>2021-03-30T08:04:31Z</time>
      </trkpt>
      <trkpt lat="45.54232" lon="6.84844">
        <ele>2968.4</ele>
        <time>2021-03-30T08:04:32Z</time>
      </trkpt>
      <trkpt lat="45.54232" lon="6.84844">
        <ele>2968.4</ele>
        <time>2021-03-30T08:04:33Z</time>
      </trkpt>
      <trkpt lat="45.54231" lon="6.84844">
        <ele>2968.4</ele>
        <time>2021-03-30T08:04:34Z</time>
      </trkpt>
      <trkpt lat="45.5423" lon="6.84844">
        <ele>2969.3</ele>
        <time>2021-03-30T08:04:35Z</time>
      </trkpt>
      <trkpt lat="45.5423" lon="6.84844">
        <ele>2969.3</ele>
        <time>2021-03-30T08:04:36Z</time>
      </trkpt>
      <trkpt lat="45.54229" lon="6.84844">
        <ele>2969.4</ele>
        <time>2021-03-30T08:04:37Z</time>
      </trkpt>
      <trkpt lat="45.54229" lon="6.84843">
        <ele>2969.4</ele>
        <time>2021-03-30T08:04:38Z</time>
      </trkpt>
      <trkpt lat="45.54229" lon="6.84843">
        <ele>2969.4</ele>
        <time>2021-03-30T08:04:39Z</time>
      </trkpt>
      <trkpt lat="45.54229" lon="6.84843">
        <ele>2969.4</ele>
        <time>2021-03-30T08:04:40Z</time>
      </trkpt>
      <trkpt lat="45.54229" lon="6.84843">
        <ele>2969.4</ele>
        <time>2021-03-30T08:04:41Z</time>
      </trkpt>
      <trkpt lat="45.54228" lon="6.84842">
        <ele>2969.8</ele>
        <time>2021-03-30T08:04:42Z</time>
      </trkpt>
      <trkpt lat="45.54228" lon="6.84842">
        <ele>2970.7</ele>
        <time>2021-03-30T08:04:43Z</time>
      </trkpt>
      <trkpt lat="45.54227" lon="6.84842">
        <ele>2970.7</ele>
        <time>2021-03-30T08:04:44Z</time>
      </trkpt>
      <trkpt lat="45.54226" lon="6.84842">
        <ele>2970.7</ele>
        <time>2021-03-30T08:04:45Z</time>
      </trkpt>
      <trkpt lat="45.54225" lon="6.84841">
        <ele>2970.7</ele>
        <time>2021-03-30T08:04:46Z</time>
      </trkpt>
      <trkpt lat="45.54225" lon="6.84841">
        <ele>2970.8</ele>
        <time>2021-03-30T08:04:47Z</time>
      </trkpt>
      <trkpt lat="45.54224" lon="6.84841">
        <ele>2971.8</ele>
        <time>2021-03-30T08:04:48Z</time>
      </trkpt>
      <trkpt lat="45.54223" lon="6.84841">
        <ele>2971.8</ele>
        <time>2021-03-30T08:04:49Z</time>
      </trkpt>
      <trkpt lat="45.54223" lon="6.84841">
        <ele>2971.8</ele>
        <time>2021-03-30T08:04:50Z</time>
      </trkpt>
      <trkpt lat="45.54222" lon="6.84841">
        <ele>2971.8</ele>
        <time>2021-03-30T08:04:51Z</time>
      </trkpt>
      <trkpt lat="45.54222" lon="6.84841">
        <ele>2973</ele>
        <time>2021-03-30T08:04:52Z</time>
      </trkpt>
      <trkpt lat="45.54221" lon="6.84841">
        <ele>2973</ele>
        <time>2021-03-30T08:04:53Z</time>
      </trkpt>
      <trkpt lat="45.5422" lon="6.8484">
        <ele>2973</ele>
        <time>2021-03-30T08:04:54Z</time>
      </trkpt>
      <trkpt lat="45.54219" lon="6.8484">
        <ele>2973</ele>
        <time>2021-03-30T08:04:55Z</time>
      </trkpt>
      <trkpt lat="45.54218" lon="6.8484">
        <ele>2974</ele>
        <time>2021-03-30T08:04:56Z</time>
      </trkpt>
      <trkpt lat="45.54218" lon="6.8484">
        <ele>2974</ele>
        <time>2021-03-30T08:04:57Z</time>
      </trkpt>
      <trkpt lat="45.54217" lon="6.8484">
        <ele>2974.1</ele>
        <time>2021-03-30T08:04:58Z</time>
      </trkpt>
      <trkpt lat="45.54216" lon="6.8484">
        <ele>2974.1</ele>
        <time>2021-03-30T08:04:59Z</time>
      </trkpt>
      <trkpt lat="45.54215" lon="6.8484">
        <ele>2975.2</ele>
        <time>2021-03-30T08:05:00Z</time>
      </trkpt>
      <trkpt lat="45.54215" lon="6.8484">
        <ele>2975.2</ele>
        <time>2021-03-30T08:05:01Z</time>
      </trkpt>
      <trkpt lat="45.54214" lon="6.8484">
        <ele>2975.2</ele>
        <time>2021-03-30T08:05:02Z</time>
      </trkpt>
      <trkpt lat="45.54213" lon="6.8484">
        <ele>2975.3</ele>
        <time>2021-03-30T08:05:03Z</time>
      </trkpt>
      <trkpt lat="45.54212" lon="6.8484">
        <ele>2976.3</ele>
        <time>2021-03-30T08:05:04Z</time>
      </trkpt>
      <trkpt lat="45.54211" lon="6.8484">
        <ele>2976.3</ele>
        <time>2021-03-30T08:05:05Z</time>
      </trkpt>
      <trkpt lat="45.54211" lon="6.84841">
        <ele>2976.3</ele>
        <time>2021-03-30T08:05:06Z</time>
      </trkpt>
      <trkpt lat="45.5421" lon="6.84841">
        <ele>2976.3</ele>
        <time>2021-03-30T08:05:07Z</time>
      </trkpt>
      <trkpt lat="45.54209" lon="6.8484">
        <ele>2977.4</ele>
        <time>2021-03-30T08:05:08Z</time>
      </trkpt>
      <trkpt lat="45.54209" lon="6.8484">
        <ele>2977.4</ele>
        <time>2021-03-30T08:05:09Z</time>
      </trkpt>
      <trkpt lat="45.54208" lon="6.8484">
        <ele>2977.4</ele>
        <time>2021-03-30T08:05:10Z</time>
      </trkpt>
      <trkpt lat="45.54208" lon="6.8484">
        <ele>2977.4</ele>
        <time>2021-03-30T08:05:11Z</time>
      </trkpt>
      <trkpt lat="45.54207" lon="6.84839">
        <ele>2977.4</ele>
        <time>2021-03-30T08:05:12Z</time>
      </trkpt>
      <trkpt lat="45.54206" lon="6.84839">
        <ele>2978.4</ele>
        <time>2021-03-30T08:05:13Z</time>
      </trkpt>
      <trkpt lat="45.54206" lon="6.84839">
        <ele>2978.4</ele>
        <time>2021-03-30T08:05:14Z</time>
      </trkpt>
      <trkpt lat="45.54205" lon="6.84839">
        <ele>2978.4</ele>
        <time>2021-03-30T08:05:15Z</time>
      </trkpt>
      <trkpt lat="45.54205" lon="6.84839">
        <ele>2978.8</ele>
        <time>2021-03-30T08:05:16Z</time>
      </trkpt>
      <trkpt lat="45.54204" lon="6.84839">
        <ele>2978.8</ele>
        <time>2021-03-30T08:05:17Z</time>
      </trkpt>
      <trkpt lat="45.54204" lon="6.84838">
        <ele>2978.8</ele>
        <time>2021-03-30T08:05:18Z</time>
      </trkpt>
      <trkpt lat="45.54203" lon="6.84838">
        <ele>2979.9</ele>
        <time>2021-03-30T08:05:19Z</time>
      </trkpt>
      <trkpt lat="45.54202" lon="6.84838">
        <ele>2979.9</ele>
        <time>2021-03-30T08:05:20Z</time>
      </trkpt>
      <trkpt lat="45.54202" lon="6.84838">
        <ele>2979.9</ele>
        <time>2021-03-30T08:05:21Z</time>
      </trkpt>
      <trkpt lat="45.54201" lon="6.84837">
        <ele>2981.1</ele>
        <time>2021-03-30T08:05:22Z</time>
      </trkpt>
      <trkpt lat="45.542" lon="6.84837">
        <ele>2981.1</ele>
        <time>2021-03-30T08:05:23Z</time>
      </trkpt>
      <trkpt lat="45.54199" lon="6.84836">
        <ele>2981.2</ele>
        <time>2021-03-30T08:05:24Z</time>
      </trkpt>
      <trkpt lat="45.54198" lon="6.84836">
        <ele>2981.2</ele>
        <time>2021-03-30T08:05:25Z</time>
      </trkpt>
      <trkpt lat="45.54198" lon="6.84836">
        <ele>2982.5</ele>
        <time>2021-03-30T08:05:26Z</time>
      </trkpt>
      <trkpt lat="45.54197" lon="6.84835">
        <ele>2982.5</ele>
        <time>2021-03-30T08:05:27Z</time>
      </trkpt>
      <trkpt lat="45.54196" lon="6.84835">
        <ele>2982.5</ele>
        <time>2021-03-30T08:05:28Z</time>
      </trkpt>
      <trkpt lat="45.54196" lon="6.84835">
        <ele>2982.6</ele>
        <time>2021-03-30T08:05:29Z</time>
      </trkpt>
      <trkpt lat="45.54195" lon="6.84835">
        <ele>2982.6</ele>
        <time>2021-03-30T08:05:30Z</time>
      </trkpt>
      <trkpt lat="45.54195" lon="6.84835">
        <ele>2982.6</ele>
        <time>2021-03-30T08:05:31Z</time>
      </trkpt>
      <trkpt lat="45.54194" lon="6.84835">
        <ele>2983.9</ele>
        <time>2021-03-30T08:05:32Z</time>
      </trkpt>
      <trkpt lat="45.54194" lon="6.84835">
        <ele>2983.9</ele>
        <time>2021-03-30T08:05:33Z</time>
      </trkpt>
      <trkpt lat="45.54193" lon="6.84835">
        <ele>2983.9</ele>
        <time>2021-03-30T08:05:34Z</time>
      </trkpt>
      <trkpt lat="45.54192" lon="6.84835">
        <ele>2984</ele>
        <time>2021-03-30T08:05:35Z</time>
      </trkpt>
      <trkpt lat="45.54191" lon="6.84835">
        <ele>2985.4</ele>
        <time>2021-03-30T08:05:36Z</time>
      </trkpt>
      <trkpt lat="45.54191" lon="6.84834">
        <ele>2985.6</ele>
        <time>2021-03-30T08:05:37Z</time>
      </trkpt>
      <trkpt lat="45.5419" lon="6.84834">
        <ele>2985.6</ele>
        <time>2021-03-30T08:05:38Z</time>
      </trkpt>
      <trkpt lat="45.54189" lon="6.84834">
        <ele>2985.6</ele>
        <time>2021-03-30T08:05:39Z</time>
      </trkpt>
      <trkpt lat="45.54188" lon="6.84835">
        <ele>2986.8</ele>
        <time>2021-03-30T08:05:40Z</time>
      </trkpt>
      <trkpt lat="45.54187" lon="6.84835">
        <ele>2986.8</ele>
        <time>2021-03-30T08:05:41Z</time>
      </trkpt>
      <trkpt lat="45.54186" lon="6.84835">
        <ele>2986.8</ele>
        <time>2021-03-30T08:05:42Z</time>
      </trkpt>
      <trkpt lat="45.54186" lon="6.84835">
        <ele>2986.8</ele>
        <time>2021-03-30T08:05:43Z</time>
      </trkpt>
      <trkpt lat="45.54186" lon="6.84835">
        <ele>2986.8</ele>
        <time>2021-03-30T08:05:44Z</time>
      </trkpt>
      <trkpt lat="45.54185" lon="6.84835">
        <ele>2988</ele>
        <time>2021-03-30T08:05:45Z</time>
      </trkpt>
      <trkpt lat="45.54184" lon="6.84835">
        <ele>2988</ele>
        <time>2021-03-30T08:05:46Z</time>
      </trkpt>
      <trkpt lat="45.54183" lon="6.84834">
        <ele>2988.1</ele>
        <time>2021-03-30T08:05:47Z</time>
      </trkpt>
      <trkpt lat="45.54182" lon="6.84834">
        <ele>2989.3</ele>
        <time>2021-03-30T08:05:48Z</time>
      </trkpt>
      <trkpt lat="45.54182" lon="6.84834">
        <ele>2989.3</ele>
        <time>2021-03-30T08:05:49Z</time>
      </trkpt>
      <trkpt lat="45.54181" lon="6.84833">
        <ele>2989.3</ele>
        <time>2021-03-30T08:05:50Z</time>
      </trkpt>
      <trkpt lat="45.54181" lon="6.84833">
        <ele>2989.3</ele>
        <time>2021-03-30T08:05:51Z</time>
      </trkpt>
      <trkpt lat="45.5418" lon="6.84833">
        <ele>2989.3</ele>
        <time>2021-03-30T08:05:52Z</time>
      </trkpt>
      <trkpt lat="45.54179" lon="6.84833">
        <ele>2990.5</ele>
        <time>2021-03-30T08:05:53Z</time>
      </trkpt>
      <trkpt lat="45.54178" lon="6.84833">
        <ele>2990.5</ele>
        <time>2021-03-30T08:05:54Z</time>
      </trkpt>
      <trkpt lat="45.54178" lon="6.84833">
        <ele>2990.5</ele>
        <time>2021-03-30T08:05:55Z</time>
      </trkpt>
      <trkpt lat="45.54177" lon="6.84833">
        <ele>2990.5</ele>
        <time>2021-03-30T08:05:56Z</time>
      </trkpt>
      <trkpt lat="45.54176" lon="6.84833">
        <ele>2991.8</ele>
        <time>2021-03-30T08:05:57Z</time>
      </trkpt>
      <trkpt lat="45.54175" lon="6.84832">
        <ele>2991.8</ele>
        <time>2021-03-30T08:05:58Z</time>
      </trkpt>
      <trkpt lat="45.54174" lon="6.84832">
        <ele>2991.8</ele>
        <time>2021-03-30T08:05:59Z</time>
      </trkpt>
      <trkpt lat="45.54173" lon="6.84832">
        <ele>2993.1</ele>
        <time>2021-03-30T08:06:00Z</time>
      </trkpt>
      <trkpt lat="45.54172" lon="6.84832">
        <ele>2993.1</ele>
        <time>2021-03-30T08:06:01Z</time>
      </trkpt>
      <trkpt lat="45.54171" lon="6.84832">
        <ele>2993.1</ele>
        <time>2021-03-30T08:06:02Z</time>
      </trkpt>
      <trkpt lat="45.5417" lon="6.84832">
        <ele>2994.5</ele>
        <time>2021-03-30T08:06:03Z</time>
      </trkpt>
      <trkpt lat="45.5417" lon="6.84831">
        <ele>2994.5</ele>
        <time>2021-03-30T08:06:04Z</time>
      </trkpt>
      <trkpt lat="45.54169" lon="6.84831">
        <ele>2994.5</ele>
        <time>2021-03-30T08:06:05Z</time>
      </trkpt>
      <trkpt lat="45.54168" lon="6.84831">
        <ele>2994.5</ele>
        <time>2021-03-30T08:06:06Z</time>
      </trkpt>
      <trkpt lat="45.54167" lon="6.8483">
        <ele>2995.9</ele>
        <time>2021-03-30T08:06:07Z</time>
      </trkpt>
      <trkpt lat="45.54165" lon="6.8483">
        <ele>2995.9</ele>
        <time>2021-03-30T08:06:08Z</time>
      </trkpt>
      <trkpt lat="45.54164" lon="6.8483">
        <ele>2997.2</ele>
        <time>2021-03-30T08:06:09Z</time>
      </trkpt>
      <trkpt lat="45.54163" lon="6.8483">
        <ele>2997.2</ele>
        <time>2021-03-30T08:06:10Z</time>
      </trkpt>
      <trkpt lat="45.54163" lon="6.8483">
        <ele>2997.2</ele>
        <time>2021-03-30T08:06:11Z</time>
      </trkpt>
      <trkpt lat="45.54162" lon="6.8483">
        <ele>2998.4</ele>
        <time>2021-03-30T08:06:12Z</time>
      </trkpt>
      <trkpt lat="45.54161" lon="6.8483">
        <ele>2998.4</ele>
        <time>2021-03-30T08:06:13Z</time>
      </trkpt>
      <trkpt lat="45.5416" lon="6.8483">
        <ele>2998.4</ele>
        <time>2021-03-30T08:06:14Z</time>
      </trkpt>
      <trkpt lat="45.54159" lon="6.8483">
        <ele>2998.4</ele>
        <time>2021-03-30T08:06:15Z</time>
      </trkpt>
      <trkpt lat="45.54158" lon="6.8483">
        <ele>2999.6</ele>
        <time>2021-03-30T08:06:16Z</time>
      </trkpt>
      <trkpt lat="45.54157" lon="6.84829">
        <ele>2999.6</ele>
        <time>2021-03-30T08:06:17Z</time>
      </trkpt>
      <trkpt lat="45.54157" lon="6.84829">
        <ele>2999.6</ele>
        <time>2021-03-30T08:06:18Z</time>
      </trkpt>
      <trkpt lat="45.54156" lon="6.84829">
        <ele>2999.6</ele>
        <time>2021-03-30T08:06:19Z</time>
      </trkpt>
      <trkpt lat="45.54155" lon="6.84829">
        <ele>3000.7</ele>
        <time>2021-03-30T08:06:20Z</time>
      </trkpt>
      <trkpt lat="45.54154" lon="6.84828">
        <ele>3000.7</ele>
        <time>2021-03-30T08:06:21Z</time>
      </trkpt>
      <trkpt lat="45.54153" lon="6.84828">
        <ele>3000.7</ele>
        <time>2021-03-30T08:06:22Z</time>
      </trkpt>
      <trkpt lat="45.54152" lon="6.84828">
        <ele>3001.7</ele>
        <time>2021-03-30T08:06:23Z</time>
      </trkpt>
      <trkpt lat="45.54151" lon="6.84828">
        <ele>3001.7</ele>
        <time>2021-03-30T08:06:24Z</time>
      </trkpt>
      <trkpt lat="45.54151" lon="6.84828">
        <ele>3001.7</ele>
        <time>2021-03-30T08:06:25Z</time>
      </trkpt>
      <trkpt lat="45.5415" lon="6.84828">
        <ele>3001.7</ele>
        <time>2021-03-30T08:06:26Z</time>
      </trkpt>
      <trkpt lat="45.54149" lon="6.84828">
        <ele>3002.7</ele>
        <time>2021-03-30T08:06:27Z</time>
      </trkpt>
      <trkpt lat="45.54149" lon="6.84828">
        <ele>3002.7</ele>
        <time>2021-03-30T08:06:28Z</time>
      </trkpt>
      <trkpt lat="45.54149" lon="6.84828">
        <ele>3002.7</ele>
        <time>2021-03-30T08:06:29Z</time>
      </trkpt>
      <trkpt lat="45.54148" lon="6.84828">
        <ele>3002.7</ele>
        <time>2021-03-30T08:06:30Z</time>
      </trkpt>
      <trkpt lat="45.54148" lon="6.84829">
        <ele>3002.7</ele>
        <time>2021-03-30T08:06:31Z</time>
      </trkpt>
      <trkpt lat="45.54148" lon="6.84829">
        <ele>3002.7</ele>
        <time>2021-03-30T08:06:32Z</time>
      </trkpt>
      <trkpt lat="45.54148" lon="6.84829">
        <ele>3002.7</ele>
        <time>2021-03-30T08:06:33Z</time>
      </trkpt>
      <trkpt lat="45.54147" lon="6.84829">
        <ele>3002.7</ele>
        <time>2021-03-30T08:06:34Z</time>
      </trkpt>
      <trkpt lat="45.54147" lon="6.84829">
        <ele>3002.7</ele>
        <time>2021-03-30T08:06:35Z</time>
      </trkpt>
      <trkpt lat="45.54147" lon="6.84829">
        <ele>3003.8</ele>
        <time>2021-03-30T08:06:36Z</time>
      </trkpt>
      <trkpt lat="45.54146" lon="6.8483">
        <ele>3003.8</ele>
        <time>2021-03-30T08:06:37Z</time>
      </trkpt>
      <trkpt lat="45.54146" lon="6.8483">
        <ele>3003.8</ele>
        <time>2021-03-30T08:06:47Z</time>
      </trkpt>
      <trkpt lat="45.54146" lon="6.8483">
        <ele>3003.8</ele>
        <time>2021-03-30T08:06:48Z</time>
      </trkpt>
      <trkpt lat="45.54145" lon="6.8483">
        <ele>3003.8</ele>
        <time>2021-03-30T08:06:49Z</time>
      </trkpt>
      <trkpt lat="45.54145" lon="6.8483">
        <ele>3003.8</ele>
        <time>2021-03-30T08:06:50Z</time>
      </trkpt>
      <trkpt lat="45.54145" lon="6.8483">
        <ele>3003.7</ele>
        <time>2021-03-30T08:06:51Z</time>
      </trkpt>
      <trkpt lat="45.54144" lon="6.84831">
        <ele>3003.7</ele>
        <time>2021-03-30T08:06:52Z</time>
      </trkpt>
      <trkpt lat="45.54144" lon="6.84831">
        <ele>3003.7</ele>
        <time>2021-03-30T08:06:53Z</time>
      </trkpt>
      <trkpt lat="45.54144" lon="6.84831">
        <ele>3003.7</ele>
        <time>2021-03-30T08:06:54Z</time>
      </trkpt>
      <trkpt lat="45.54143" lon="6.84831">
        <ele>3004.8</ele>
        <time>2021-03-30T08:06:55Z</time>
      </trkpt>
      <trkpt lat="45.54143" lon="6.84831">
        <ele>3004.8</ele>
        <time>2021-03-30T08:06:56Z</time>
      </trkpt>
      <trkpt lat="45.54143" lon="6.84831">
        <ele>3004.8</ele>
        <time>2021-03-30T08:07:28Z</time>
      </trkpt>
      <trkpt lat="45.54142" lon="6.84832">
        <ele>3004.8</ele>
        <time>2021-03-30T08:07:29Z</time>
      </trkpt>
      <trkpt lat="45.54142" lon="6.84832">
        <ele>3004.8</ele>
        <time>2021-03-30T08:07:30Z</time>
      </trkpt>
      <trkpt lat="45.54142" lon="6.84832">
        <ele>3004.8</ele>
        <time>2021-03-30T08:07:31Z</time>
      </trkpt>
      <trkpt lat="45.54141" lon="6.84832">
        <ele>3004.8</ele>
        <time>2021-03-30T08:07:32Z</time>
      </trkpt>
      <trkpt lat="45.5414" lon="6.84832">
        <ele>3005.8</ele>
        <time>2021-03-30T08:07:33Z</time>
      </trkpt>
      <trkpt lat="45.54139" lon="6.84832">
        <ele>3005.8</ele>
        <time>2021-03-30T08:07:34Z</time>
      </trkpt>
      <trkpt lat="45.54138" lon="6.84832">
        <ele>3005.8</ele>
        <time>2021-03-30T08:07:35Z</time>
      </trkpt>
      <trkpt lat="45.54138" lon="6.84833">
        <ele>3005.8</ele>
        <time>2021-03-30T08:07:36Z</time>
      </trkpt>
      <trkpt lat="45.54137" lon="6.84833">
        <ele>3006.9</ele>
        <time>2021-03-30T08:07:37Z</time>
      </trkpt>
      <trkpt lat="45.54137" lon="6.84833">
        <ele>3006.9</ele>
        <time>2021-03-30T08:07:38Z</time>
      </trkpt>
      <trkpt lat="45.54136" lon="6.84834">
        <ele>3006.9</ele>
        <time>2021-03-30T08:07:39Z</time>
      </trkpt>
      <trkpt lat="45.54136" lon="6.84834">
        <ele>3006.9</ele>
        <time>2021-03-30T08:07:40Z</time>
      </trkpt>
      <trkpt lat="45.54135" lon="6.84834">
        <ele>3006.9</ele>
        <time>2021-03-30T08:07:41Z</time>
      </trkpt>
      <trkpt lat="45.54134" lon="6.84834">
        <ele>3007.9</ele>
        <time>2021-03-30T08:07:42Z</time>
      </trkpt>
      <trkpt lat="45.54133" lon="6.84834">
        <ele>3007.9</ele>
        <time>2021-03-30T08:07:43Z</time>
      </trkpt>
      <trkpt lat="45.54132" lon="6.84834">
        <ele>3007.9</ele>
        <time>2021-03-30T08:07:44Z</time>
      </trkpt>
      <trkpt lat="45.54131" lon="6.84835">
        <ele>3008.9</ele>
        <time>2021-03-30T08:07:45Z</time>
      </trkpt>
      <trkpt lat="45.5413" lon="6.84835">
        <ele>3008.9</ele>
        <time>2021-03-30T08:07:46Z</time>
      </trkpt>
      <trkpt lat="45.54129" lon="6.84834">
        <ele>3009</ele>
        <time>2021-03-30T08:07:47Z</time>
      </trkpt>
      <trkpt lat="45.54128" lon="6.84835">
        <ele>3009.9</ele>
        <time>2021-03-30T08:07:48Z</time>
      </trkpt>
      <trkpt lat="45.54128" lon="6.84835">
        <ele>3009.9</ele>
        <time>2021-03-30T08:07:49Z</time>
      </trkpt>
      <trkpt lat="45.54127" lon="6.84835">
        <ele>3009.9</ele>
        <time>2021-03-30T08:07:50Z</time>
      </trkpt>
      <trkpt lat="45.54126" lon="6.84835">
        <ele>3009.9</ele>
        <time>2021-03-30T08:07:51Z</time>
      </trkpt>
      <trkpt lat="45.54125" lon="6.84835">
        <ele>3010.8</ele>
        <time>2021-03-30T08:07:52Z</time>
      </trkpt>
      <trkpt lat="45.54124" lon="6.84835">
        <ele>3010.8</ele>
        <time>2021-03-30T08:07:53Z</time>
      </trkpt>
      <trkpt lat="45.54124" lon="6.84835">
        <ele>3010.8</ele>
        <time>2021-03-30T08:07:54Z</time>
      </trkpt>
      <trkpt lat="45.54123" lon="6.84834">
        <ele>3010.8</ele>
        <time>2021-03-30T08:07:55Z</time>
      </trkpt>
      <trkpt lat="45.54121" lon="6.84833">
        <ele>3011.7</ele>
        <time>2021-03-30T08:07:56Z</time>
      </trkpt>
      <trkpt lat="45.5412" lon="6.84833">
        <ele>3011.7</ele>
        <time>2021-03-30T08:07:57Z</time>
      </trkpt>
      <trkpt lat="45.54119" lon="6.84832">
        <ele>3012.7</ele>
        <time>2021-03-30T08:07:58Z</time>
      </trkpt>
      <trkpt lat="45.54118" lon="6.84832">
        <ele>3012.7</ele>
        <time>2021-03-30T08:07:59Z</time>
      </trkpt>
      <trkpt lat="45.54117" lon="6.84832">
        <ele>3012.7</ele>
        <time>2021-03-30T08:08:00Z</time>
      </trkpt>
      <trkpt lat="45.54117" lon="6.84832">
        <ele>3012.7</ele>
        <time>2021-03-30T08:08:01Z</time>
      </trkpt>
      <trkpt lat="45.54116" lon="6.84832">
        <ele>3013.9</ele>
        <time>2021-03-30T08:08:02Z</time>
      </trkpt>
      <trkpt lat="45.54115" lon="6.84833">
        <ele>3013.9</ele>
        <time>2021-03-30T08:08:03Z</time>
      </trkpt>
      <trkpt lat="45.54115" lon="6.84833">
        <ele>3013.9</ele>
        <time>2021-03-30T08:08:04Z</time>
      </trkpt>
      <trkpt lat="45.54115" lon="6.84833">
        <ele>3013.9</ele>
        <time>2021-03-30T08:08:05Z</time>
      </trkpt>
      <trkpt lat="45.54114" lon="6.84833">
        <ele>3013.9</ele>
        <time>2021-03-30T08:08:06Z</time>
      </trkpt>
      <trkpt lat="45.54113" lon="6.84834">
        <ele>3015.1</ele>
        <time>2021-03-30T08:08:07Z</time>
      </trkpt>
      <trkpt lat="45.54112" lon="6.84834">
        <ele>3015.1</ele>
        <time>2021-03-30T08:08:08Z</time>
      </trkpt>
      <trkpt lat="45.54111" lon="6.84834">
        <ele>3015.1</ele>
        <time>2021-03-30T08:08:09Z</time>
      </trkpt>
      <trkpt lat="45.54111" lon="6.84834">
        <ele>3015.1</ele>
        <time>2021-03-30T08:08:10Z</time>
      </trkpt>
      <trkpt lat="45.5411" lon="6.84834">
        <ele>3016.4</ele>
        <time>2021-03-30T08:08:11Z</time>
      </trkpt>
      <trkpt lat="45.5411" lon="6.84835">
        <ele>3016.4</ele>
        <time>2021-03-30T08:08:12Z</time>
      </trkpt>
      <trkpt lat="45.5411" lon="6.84835">
        <ele>3016.4</ele>
        <time>2021-03-30T08:08:13Z</time>
      </trkpt>
      <trkpt lat="45.54109" lon="6.84835">
        <ele>3016.4</ele>
        <time>2021-03-30T08:08:14Z</time>
      </trkpt>
      <trkpt lat="45.54109" lon="6.84835">
        <ele>3016.4</ele>
        <time>2021-03-30T08:08:15Z</time>
      </trkpt>
      <trkpt lat="45.54108" lon="6.84835">
        <ele>3016.4</ele>
        <time>2021-03-30T08:08:16Z</time>
      </trkpt>
      <trkpt lat="45.54107" lon="6.84834">
        <ele>3017.7</ele>
        <time>2021-03-30T08:08:17Z</time>
      </trkpt>
      <trkpt lat="45.54106" lon="6.84835">
        <ele>3017.6</ele>
        <time>2021-03-30T08:08:18Z</time>
      </trkpt>
      <trkpt lat="45.54105" lon="6.84835">
        <ele>3017.6</ele>
        <time>2021-03-30T08:08:19Z</time>
      </trkpt>
      <trkpt lat="45.54104" lon="6.84835">
        <ele>3018.8</ele>
        <time>2021-03-30T08:08:20Z</time>
      </trkpt>
      <trkpt lat="45.54103" lon="6.84835">
        <ele>3018.8</ele>
        <time>2021-03-30T08:08:21Z</time>
      </trkpt>
      <trkpt lat="45.54102" lon="6.84836">
        <ele>3018.8</ele>
        <time>2021-03-30T08:08:22Z</time>
      </trkpt>
      <trkpt lat="45.54102" lon="6.84836">
        <ele>3018.8</ele>
        <time>2021-03-30T08:08:23Z</time>
      </trkpt>
      <trkpt lat="45.54101" lon="6.84837">
        <ele>3019.9</ele>
        <time>2021-03-30T08:08:24Z</time>
      </trkpt>
      <trkpt lat="45.541" lon="6.84837">
        <ele>3019.9</ele>
        <time>2021-03-30T08:08:25Z</time>
      </trkpt>
      <trkpt lat="45.541" lon="6.84838">
        <ele>3019.9</ele>
        <time>2021-03-30T08:08:26Z</time>
      </trkpt>
      <trkpt lat="45.54099" lon="6.84838">
        <ele>3019.9</ele>
        <time>2021-03-30T08:08:27Z</time>
      </trkpt>
      <trkpt lat="45.54099" lon="6.84839">
        <ele>3019.9</ele>
        <time>2021-03-30T08:08:28Z</time>
      </trkpt>
      <trkpt lat="45.54099" lon="6.84839">
        <ele>3019.9</ele>
        <time>2021-03-30T08:08:29Z</time>
      </trkpt>
      <trkpt lat="45.54098" lon="6.8484">
        <ele>3021</ele>
        <time>2021-03-30T08:08:30Z</time>
      </trkpt>
      <trkpt lat="45.54097" lon="6.84841">
        <ele>3021</ele>
        <time>2021-03-30T08:08:31Z</time>
      </trkpt>
      <trkpt lat="45.54097" lon="6.84841">
        <ele>3021</ele>
        <time>2021-03-30T08:08:32Z</time>
      </trkpt>
      <trkpt lat="45.54096" lon="6.84842">
        <ele>3021</ele>
        <time>2021-03-30T08:08:33Z</time>
      </trkpt>
      <trkpt lat="45.54095" lon="6.84842">
        <ele>3022.1</ele>
        <time>2021-03-30T08:08:34Z</time>
      </trkpt>
      <trkpt lat="45.54095" lon="6.84842">
        <ele>3022.1</ele>
        <time>2021-03-30T08:08:35Z</time>
      </trkpt>
      <trkpt lat="45.54094" lon="6.84842">
        <ele>3022.1</ele>
        <time>2021-03-30T08:08:36Z</time>
      </trkpt>
      <trkpt lat="45.54093" lon="6.84842">
        <ele>3022.1</ele>
        <time>2021-03-30T08:08:37Z</time>
      </trkpt>
      <trkpt lat="45.54092" lon="6.84842">
        <ele>3023.2</ele>
        <time>2021-03-30T08:08:38Z</time>
      </trkpt>
      <trkpt lat="45.54091" lon="6.84842">
        <ele>3023.2</ele>
        <time>2021-03-30T08:08:39Z</time>
      </trkpt>
      <trkpt lat="45.54091" lon="6.84842">
        <ele>3023.2</ele>
        <time>2021-03-30T08:08:40Z</time>
      </trkpt>
      <trkpt lat="45.5409" lon="6.84842">
        <ele>3023.2</ele>
        <time>2021-03-30T08:08:41Z</time>
      </trkpt>
      <trkpt lat="45.54089" lon="6.84843">
        <ele>3024.5</ele>
        <time>2021-03-30T08:08:42Z</time>
      </trkpt>
      <trkpt lat="45.54089" lon="6.84843">
        <ele>3024.5</ele>
        <time>2021-03-30T08:08:43Z</time>
      </trkpt>
      <trkpt lat="45.54088" lon="6.84843">
        <ele>3024.5</ele>
        <time>2021-03-30T08:08:44Z</time>
      </trkpt>
      <trkpt lat="45.54088" lon="6.84843">
        <ele>3024.5</ele>
        <time>2021-03-30T08:08:45Z</time>
      </trkpt>
      <trkpt lat="45.54087" lon="6.84843">
        <ele>3024.5</ele>
        <time>2021-03-30T08:08:46Z</time>
      </trkpt>
      <trkpt lat="45.54086" lon="6.84843">
        <ele>3025.9</ele>
        <time>2021-03-30T08:08:47Z</time>
      </trkpt>
      <trkpt lat="45.54086" lon="6.84843">
        <ele>3025.9</ele>
        <time>2021-03-30T08:08:48Z</time>
      </trkpt>
      <trkpt lat="45.54085" lon="6.84843">
        <ele>3025.9</ele>
        <time>2021-03-30T08:08:49Z</time>
      </trkpt>
      <trkpt lat="45.54085" lon="6.84843">
        <ele>3025.9</ele>
        <time>2021-03-30T08:08:50Z</time>
      </trkpt>
      <trkpt lat="45.54084" lon="6.84844">
        <ele>3025.9</ele>
        <time>2021-03-30T08:08:51Z</time>
      </trkpt>
      <trkpt lat="45.54083" lon="6.84844">
        <ele>3027.2</ele>
        <time>2021-03-30T08:08:52Z</time>
      </trkpt>
      <trkpt lat="45.54082" lon="6.84844">
        <ele>3027.2</ele>
        <time>2021-03-30T08:08:53Z</time>
      </trkpt>
      <trkpt lat="45.54081" lon="6.84844">
        <ele>3027.2</ele>
        <time>2021-03-30T08:08:54Z</time>
      </trkpt>
      <trkpt lat="45.54081" lon="6.84844">
        <ele>3027.2</ele>
        <time>2021-03-30T08:08:55Z</time>
      </trkpt>
      <trkpt lat="45.5408" lon="6.84844">
        <ele>3028.5</ele>
        <time>2021-03-30T08:08:56Z</time>
      </trkpt>
      <trkpt lat="45.54079" lon="6.84844">
        <ele>3028.5</ele>
        <time>2021-03-30T08:08:57Z</time>
      </trkpt>
      <trkpt lat="45.54079" lon="6.84844">
        <ele>3028.5</ele>
        <time>2021-03-30T08:08:58Z</time>
      </trkpt>
      <trkpt lat="45.54078" lon="6.84844">
        <ele>3028.5</ele>
        <time>2021-03-30T08:08:59Z</time>
      </trkpt>
      <trkpt lat="45.54078" lon="6.84844">
        <ele>3028.5</ele>
        <time>2021-03-30T08:09:00Z</time>
      </trkpt>
      <trkpt lat="45.54077" lon="6.84845">
        <ele>3029.7</ele>
        <time>2021-03-30T08:09:01Z</time>
      </trkpt>
      <trkpt lat="45.54076" lon="6.84845">
        <ele>3029.7</ele>
        <time>2021-03-30T08:09:02Z</time>
      </trkpt>
      <trkpt lat="45.54076" lon="6.84845">
        <ele>3029.7</ele>
        <time>2021-03-30T08:09:03Z</time>
      </trkpt>
      <trkpt lat="45.54075" lon="6.84846">
        <ele>3029.7</ele>
        <time>2021-03-30T08:09:04Z</time>
      </trkpt>
      <trkpt lat="45.54075" lon="6.84846">
        <ele>3029.7</ele>
        <time>2021-03-30T08:09:05Z</time>
      </trkpt>
      <trkpt lat="45.54074" lon="6.84847">
        <ele>3030.9</ele>
        <time>2021-03-30T08:09:06Z</time>
      </trkpt>
      <trkpt lat="45.54074" lon="6.84847">
        <ele>3030.9</ele>
        <time>2021-03-30T08:09:07Z</time>
      </trkpt>
      <trkpt lat="45.54073" lon="6.84848">
        <ele>3030.9</ele>
        <time>2021-03-30T08:09:08Z</time>
      </trkpt>
      <trkpt lat="45.54073" lon="6.84849">
        <ele>3030.9</ele>
        <time>2021-03-30T08:09:09Z</time>
      </trkpt>
      <trkpt lat="45.54073" lon="6.8485">
        <ele>3030.9</ele>
        <time>2021-03-30T08:09:10Z</time>
      </trkpt>
      <trkpt lat="45.54072" lon="6.84851">
        <ele>3030.9</ele>
        <time>2021-03-30T08:09:11Z</time>
      </trkpt>
      <trkpt lat="45.54072" lon="6.84852">
        <ele>3030.9</ele>
        <time>2021-03-30T08:09:12Z</time>
      </trkpt>
      <trkpt lat="45.54072" lon="6.84853">
        <ele>3030.9</ele>
        <time>2021-03-30T08:09:13Z</time>
      </trkpt>
      <trkpt lat="45.54071" lon="6.84854">
        <ele>3032</ele>
        <time>2021-03-30T08:09:14Z</time>
      </trkpt>
      <trkpt lat="45.54071" lon="6.84854">
        <ele>3032</ele>
        <time>2021-03-30T08:09:15Z</time>
      </trkpt>
      <trkpt lat="45.54071" lon="6.84855">
        <ele>3032</ele>
        <time>2021-03-30T08:09:16Z</time>
      </trkpt>
      <trkpt lat="45.5407" lon="6.84856">
        <ele>3032</ele>
        <time>2021-03-30T08:09:17Z</time>
      </trkpt>
      <trkpt lat="45.5407" lon="6.84857">
        <ele>3032</ele>
        <time>2021-03-30T08:09:18Z</time>
      </trkpt>
      <trkpt lat="45.5407" lon="6.84858">
        <ele>3032</ele>
        <time>2021-03-30T08:09:19Z</time>
      </trkpt>
      <trkpt lat="45.54069" lon="6.84858">
        <ele>3032</ele>
        <time>2021-03-30T08:09:20Z</time>
      </trkpt>
      <trkpt lat="45.54069" lon="6.84859">
        <ele>3032</ele>
        <time>2021-03-30T08:09:21Z</time>
      </trkpt>
      <trkpt lat="45.54069" lon="6.8486">
        <ele>3032</ele>
        <time>2021-03-30T08:09:22Z</time>
      </trkpt>
      <trkpt lat="45.54069" lon="6.8486">
        <ele>3032</ele>
        <time>2021-03-30T08:09:23Z</time>
      </trkpt>
      <trkpt lat="45.54068" lon="6.84861">
        <ele>3033.2</ele>
        <time>2021-03-30T08:09:24Z</time>
      </trkpt>
      <trkpt lat="45.54068" lon="6.84862">
        <ele>3033.2</ele>
        <time>2021-03-30T08:09:25Z</time>
      </trkpt>
      <trkpt lat="45.54067" lon="6.84863">
        <ele>3033.2</ele>
        <time>2021-03-30T08:09:26Z</time>
      </trkpt>
      <trkpt lat="45.54067" lon="6.84864">
        <ele>3033.2</ele>
        <time>2021-03-30T08:09:27Z</time>
      </trkpt>
      <trkpt lat="45.54067" lon="6.84864">
        <ele>3033.2</ele>
        <time>2021-03-30T08:09:28Z</time>
      </trkpt>
      <trkpt lat="45.54067" lon="6.84865">
        <ele>3033.1</ele>
        <time>2021-03-30T08:09:29Z</time>
      </trkpt>
      <trkpt lat="45.54066" lon="6.84865">
        <ele>3033.1</ele>
        <time>2021-03-30T08:09:30Z</time>
      </trkpt>
      <trkpt lat="45.54066" lon="6.84866">
        <ele>3033.1</ele>
        <time>2021-03-30T08:09:31Z</time>
      </trkpt>
      <trkpt lat="45.54066" lon="6.84867">
        <ele>3033.1</ele>
        <time>2021-03-30T08:09:32Z</time>
      </trkpt>
      <trkpt lat="45.54066" lon="6.84867">
        <ele>3033.1</ele>
        <time>2021-03-30T08:09:33Z</time>
      </trkpt>
      <trkpt lat="45.54065" lon="6.84868">
        <ele>3034.4</ele>
        <time>2021-03-30T08:09:34Z</time>
      </trkpt>
      <trkpt lat="45.54065" lon="6.84869">
        <ele>3034.4</ele>
        <time>2021-03-30T08:09:35Z</time>
      </trkpt>
      <trkpt lat="45.54065" lon="6.84869">
        <ele>3034.3</ele>
        <time>2021-03-30T08:09:36Z</time>
      </trkpt>
      <trkpt lat="45.54064" lon="6.8487">
        <ele>3034.3</ele>
        <time>2021-03-30T08:09:37Z</time>
      </trkpt>
      <trkpt lat="45.54064" lon="6.84871">
        <ele>3034.3</ele>
        <time>2021-03-30T08:09:38Z</time>
      </trkpt>
      <trkpt lat="45.54064" lon="6.84872">
        <ele>3034.3</ele>
        <time>2021-03-30T08:09:39Z</time>
      </trkpt>
      <trkpt lat="45.54063" lon="6.84873">
        <ele>3034.3</ele>
        <time>2021-03-30T08:09:40Z</time>
      </trkpt>
      <trkpt lat="45.54063" lon="6.84873">
        <ele>3034.3</ele>
        <time>2021-03-30T08:09:41Z</time>
      </trkpt>
      <trkpt lat="45.54063" lon="6.84874">
        <ele>3034.3</ele>
        <time>2021-03-30T08:09:42Z</time>
      </trkpt>
      <trkpt lat="45.54062" lon="6.84875">
        <ele>3034.3</ele>
        <time>2021-03-30T08:09:43Z</time>
      </trkpt>
      <trkpt lat="45.54062" lon="6.84875">
        <ele>3035.5</ele>
        <time>2021-03-30T08:09:44Z</time>
      </trkpt>
      <trkpt lat="45.54062" lon="6.84876">
        <ele>3035.5</ele>
        <time>2021-03-30T08:09:45Z</time>
      </trkpt>
      <trkpt lat="45.54061" lon="6.84877">
        <ele>3035.5</ele>
        <time>2021-03-30T08:09:46Z</time>
      </trkpt>
      <trkpt lat="45.54061" lon="6.84877">
        <ele>3035.5</ele>
        <time>2021-03-30T08:09:47Z</time>
      </trkpt>
      <trkpt lat="45.54061" lon="6.84878">
        <ele>3035.4</ele>
        <time>2021-03-30T08:09:48Z</time>
      </trkpt>
      <trkpt lat="45.54061" lon="6.84879">
        <ele>3035.4</ele>
        <time>2021-03-30T08:09:49Z</time>
      </trkpt>
      <trkpt lat="45.5406" lon="6.8488">
        <ele>3035.4</ele>
        <time>2021-03-30T08:09:50Z</time>
      </trkpt>
      <trkpt lat="45.5406" lon="6.84881">
        <ele>3035.4</ele>
        <time>2021-03-30T08:09:51Z</time>
      </trkpt>
      <trkpt lat="45.5406" lon="6.84881">
        <ele>3035.4</ele>
        <time>2021-03-30T08:09:52Z</time>
      </trkpt>
      <trkpt lat="45.5406" lon="6.84882">
        <ele>3035.3</ele>
        <time>2021-03-30T08:09:53Z</time>
      </trkpt>
      <trkpt lat="45.54059" lon="6.84882">
        <ele>3036.6</ele>
        <time>2021-03-30T08:09:54Z</time>
      </trkpt>
      <trkpt lat="45.54059" lon="6.84883">
        <ele>3036.6</ele>
        <time>2021-03-30T08:09:55Z</time>
      </trkpt>
      <trkpt lat="45.54059" lon="6.84883">
        <ele>3036.6</ele>
        <time>2021-03-30T08:09:56Z</time>
      </trkpt>
      <trkpt lat="45.54059" lon="6.84884">
        <ele>3036.6</ele>
        <time>2021-03-30T08:09:57Z</time>
      </trkpt>
      <trkpt lat="45.54058" lon="6.84884">
        <ele>3036.6</ele>
        <time>2021-03-30T08:09:58Z</time>
      </trkpt>
      <trkpt lat="45.54058" lon="6.84884">
        <ele>3036.6</ele>
        <time>2021-03-30T08:09:59Z</time>
      </trkpt>
      <trkpt lat="45.54058" lon="6.84884">
        <ele>3036.6</ele>
        <time>2021-03-30T08:10:00Z</time>
      </trkpt>
      <trkpt lat="45.54058" lon="6.84885">
        <ele>3036.6</ele>
        <time>2021-03-30T08:10:01Z</time>
      </trkpt>
      <trkpt lat="45.54057" lon="6.84885">
        <ele>3036.6</ele>
        <time>2021-03-30T08:10:02Z</time>
      </trkpt>
      <trkpt lat="45.54057" lon="6.84886">
        <ele>3036.5</ele>
        <time>2021-03-30T08:10:03Z</time>
      </trkpt>
      <trkpt lat="45.54057" lon="6.84887">
        <ele>3036.5</ele>
        <time>2021-03-30T08:10:04Z</time>
      </trkpt>
      <trkpt lat="45.54056" lon="6.84887">
        <ele>3037.8</ele>
        <time>2021-03-30T08:10:05Z</time>
      </trkpt>
      <trkpt lat="45.54056" lon="6.84888">
        <ele>3037.8</ele>
        <time>2021-03-30T08:10:06Z</time>
      </trkpt>
      <trkpt lat="45.54056" lon="6.84889">
        <ele>3037.8</ele>
        <time>2021-03-30T08:10:07Z</time>
      </trkpt>
      <trkpt lat="45.54055" lon="6.84889">
        <ele>3037.8</ele>
        <time>2021-03-30T08:10:08Z</time>
      </trkpt>
      <trkpt lat="45.54055" lon="6.8489">
        <ele>3037.8</ele>
        <time>2021-03-30T08:10:09Z</time>
      </trkpt>
      <trkpt lat="45.54054" lon="6.84891">
        <ele>3037.6</ele>
        <time>2021-03-30T08:10:10Z</time>
      </trkpt>
      <trkpt lat="45.54054" lon="6.84892">
        <ele>3037.6</ele>
        <time>2021-03-30T08:10:11Z</time>
      </trkpt>
      <trkpt lat="45.54053" lon="6.84892">
        <ele>3038.9</ele>
        <time>2021-03-30T08:10:12Z</time>
      </trkpt>
      <trkpt lat="45.54053" lon="6.84893">
        <ele>3038.9</ele>
        <time>2021-03-30T08:10:13Z</time>
      </trkpt>
      <trkpt lat="45.54053" lon="6.84894">
        <ele>3038.9</ele>
        <time>2021-03-30T08:10:14Z</time>
      </trkpt>
      <trkpt lat="45.54053" lon="6.84895">
        <ele>3038.8</ele>
        <time>2021-03-30T08:10:15Z</time>
      </trkpt>
      <trkpt lat="45.54053" lon="6.84896">
        <ele>3038.8</ele>
        <time>2021-03-30T08:10:16Z</time>
      </trkpt>
      <trkpt lat="45.54053" lon="6.84897">
        <ele>3038.8</ele>
        <time>2021-03-30T08:10:17Z</time>
      </trkpt>
      <trkpt lat="45.54052" lon="6.84898">
        <ele>3038.8</ele>
        <time>2021-03-30T08:10:18Z</time>
      </trkpt>
      <trkpt lat="45.54052" lon="6.84899">
        <ele>3038.8</ele>
        <time>2021-03-30T08:10:19Z</time>
      </trkpt>
      <trkpt lat="45.54052" lon="6.84899">
        <ele>3038.6</ele>
        <time>2021-03-30T08:10:20Z</time>
      </trkpt>
      <trkpt lat="45.54052" lon="6.849">
        <ele>3038.6</ele>
        <time>2021-03-30T08:10:21Z</time>
      </trkpt>
      <trkpt lat="45.54051" lon="6.849">
        <ele>3038.6</ele>
        <time>2021-03-30T08:10:22Z</time>
      </trkpt>
      <trkpt lat="45.54051" lon="6.84901">
        <ele>3038.6</ele>
        <time>2021-03-30T08:10:23Z</time>
      </trkpt>
      <trkpt lat="45.54051" lon="6.84902">
        <ele>3038.6</ele>
        <time>2021-03-30T08:10:24Z</time>
      </trkpt>
      <trkpt lat="45.5405" lon="6.84903">
        <ele>3038.6</ele>
        <time>2021-03-30T08:10:25Z</time>
      </trkpt>
      <trkpt lat="45.5405" lon="6.84904">
        <ele>3039.6</ele>
        <time>2021-03-30T08:10:26Z</time>
      </trkpt>
      <trkpt lat="45.5405" lon="6.84905">
        <ele>3039.6</ele>
        <time>2021-03-30T08:10:27Z</time>
      </trkpt>
      <trkpt lat="45.5405" lon="6.84905">
        <ele>3039.6</ele>
        <time>2021-03-30T08:10:28Z</time>
      </trkpt>
      <trkpt lat="45.54049" lon="6.84906">
        <ele>3039.6</ele>
        <time>2021-03-30T08:10:29Z</time>
      </trkpt>
      <trkpt lat="45.54049" lon="6.84906">
        <ele>3039.6</ele>
        <time>2021-03-30T08:10:30Z</time>
      </trkpt>
      <trkpt lat="45.54049" lon="6.84907">
        <ele>3039.6</ele>
        <time>2021-03-30T08:10:31Z</time>
      </trkpt>
      <trkpt lat="45.54049" lon="6.84907">
        <ele>3039.6</ele>
        <time>2021-03-30T08:10:32Z</time>
      </trkpt>
      <trkpt lat="45.54048" lon="6.84908">
        <ele>3039.4</ele>
        <time>2021-03-30T08:10:33Z</time>
      </trkpt>
      <trkpt lat="45.54048" lon="6.84909">
        <ele>3039.4</ele>
        <time>2021-03-30T08:10:34Z</time>
      </trkpt>
      <trkpt lat="45.54048" lon="6.8491">
        <ele>3039.4</ele>
        <time>2021-03-30T08:10:35Z</time>
      </trkpt>
      <trkpt lat="45.54048" lon="6.8491">
        <ele>3039.4</ele>
        <time>2021-03-30T08:10:36Z</time>
      </trkpt>
      <trkpt lat="45.54047" lon="6.84911">
        <ele>3040.7</ele>
        <time>2021-03-30T08:10:37Z</time>
      </trkpt>
      <trkpt lat="45.54047" lon="6.84912">
        <ele>3040.4</ele>
        <time>2021-03-30T08:10:38Z</time>
      </trkpt>
      <trkpt lat="45.54047" lon="6.84913">
        <ele>3040.4</ele>
        <time>2021-03-30T08:10:39Z</time>
      </trkpt>
      <trkpt lat="45.54046" lon="6.84914">
        <ele>3040.4</ele>
        <time>2021-03-30T08:10:40Z</time>
      </trkpt>
      <trkpt lat="45.54046" lon="6.84915">
        <ele>3040.4</ele>
        <time>2021-03-30T08:10:41Z</time>
      </trkpt>
      <trkpt lat="45.54046" lon="6.84916">
        <ele>3040.4</ele>
        <time>2021-03-30T08:10:42Z</time>
      </trkpt>
      <trkpt lat="45.54045" lon="6.84917">
        <ele>3040.2</ele>
        <time>2021-03-30T08:10:43Z</time>
      </trkpt>
      <trkpt lat="45.54045" lon="6.84917">
        <ele>3040.2</ele>
        <time>2021-03-30T08:10:44Z</time>
      </trkpt>
      <trkpt lat="45.54045" lon="6.84918">
        <ele>3040.2</ele>
        <time>2021-03-30T08:10:45Z</time>
      </trkpt>
      <trkpt lat="45.54045" lon="6.84919">
        <ele>3040.2</ele>
        <time>2021-03-30T08:10:46Z</time>
      </trkpt>
      <trkpt lat="45.54045" lon="6.8492">
        <ele>3040.2</ele>
        <time>2021-03-30T08:10:47Z</time>
      </trkpt>
      <trkpt lat="45.54045" lon="6.84921">
        <ele>3040</ele>
        <time>2021-03-30T08:10:48Z</time>
      </trkpt>
      <trkpt lat="45.54044" lon="6.84922">
        <ele>3040</ele>
        <time>2021-03-30T08:10:49Z</time>
      </trkpt>
      <trkpt lat="45.54044" lon="6.84923">
        <ele>3041.2</ele>
        <time>2021-03-30T08:10:50Z</time>
      </trkpt>
      <trkpt lat="45.54044" lon="6.84923">
        <ele>3041.2</ele>
        <time>2021-03-30T08:10:51Z</time>
      </trkpt>
      <trkpt lat="45.54044" lon="6.84924">
        <ele>3041.2</ele>
        <time>2021-03-30T08:10:52Z</time>
      </trkpt>
      <trkpt lat="45.54043" lon="6.84924">
        <ele>3041.2</ele>
        <time>2021-03-30T08:10:53Z</time>
      </trkpt>
      <trkpt lat="45.54043" lon="6.84925">
        <ele>3041</ele>
        <time>2021-03-30T08:10:54Z</time>
      </trkpt>
      <trkpt lat="45.54043" lon="6.84925">
        <ele>3041</ele>
        <time>2021-03-30T08:10:55Z</time>
      </trkpt>
      <trkpt lat="45.54042" lon="6.84926">
        <ele>3041</ele>
        <time>2021-03-30T08:10:56Z</time>
      </trkpt>
      <trkpt lat="45.54042" lon="6.84926">
        <ele>3041</ele>
        <time>2021-03-30T08:10:57Z</time>
      </trkpt>
      <trkpt lat="45.54041" lon="6.84926">
        <ele>3042.2</ele>
        <time>2021-03-30T08:10:58Z</time>
      </trkpt>
      <trkpt lat="45.5404" lon="6.84924">
        <ele>3042.4</ele>
        <time>2021-03-30T08:10:59Z</time>
      </trkpt>
      <trkpt lat="45.54039" lon="6.84923">
        <ele>3042.4</ele>
        <time>2021-03-30T08:11:00Z</time>
      </trkpt>
      <trkpt lat="45.54039" lon="6.84922">
        <ele>3042.4</ele>
        <time>2021-03-30T08:11:01Z</time>
      </trkpt>
      <trkpt lat="45.54038" lon="6.8492">
        <ele>3043.7</ele>
        <time>2021-03-30T08:11:02Z</time>
      </trkpt>
      <trkpt lat="45.54037" lon="6.84919">
        <ele>3043.7</ele>
        <time>2021-03-30T08:11:03Z</time>
      </trkpt>
      <trkpt lat="45.54036" lon="6.84918">
        <ele>3043.7</ele>
        <time>2021-03-30T08:11:04Z</time>
      </trkpt>
      <trkpt lat="45.54036" lon="6.84917">
        <ele>3043.7</ele>
        <time>2021-03-30T08:11:05Z</time>
      </trkpt>
      <trkpt lat="45.54035" lon="6.84915">
        <ele>3045.1</ele>
        <time>2021-03-30T08:11:06Z</time>
      </trkpt>
      <trkpt lat="45.54034" lon="6.84914">
        <ele>3045.1</ele>
        <time>2021-03-30T08:11:22Z</time>
      </trkpt>
      <trkpt lat="45.54033" lon="6.84913">
        <ele>3045.1</ele>
        <time>2021-03-30T08:11:23Z</time>
      </trkpt>
      <trkpt lat="45.54032" lon="6.84911">
        <ele>3045.3</ele>
        <time>2021-03-30T08:11:24Z</time>
      </trkpt>
      <trkpt lat="45.54032" lon="6.8491">
        <ele>3046.6</ele>
        <time>2021-03-30T08:11:25Z</time>
      </trkpt>
      <trkpt lat="45.54031" lon="6.84909">
        <ele>3046.6</ele>
        <time>2021-03-30T08:11:26Z</time>
      </trkpt>
      <trkpt lat="45.54031" lon="6.84909">
        <ele>3046.6</ele>
        <time>2021-03-30T08:11:27Z</time>
      </trkpt>
      <trkpt lat="45.5403" lon="6.84908">
        <ele>3046.6</ele>
        <time>2021-03-30T08:11:28Z</time>
      </trkpt>
      <trkpt lat="45.5403" lon="6.84907">
        <ele>3046.8</ele>
        <time>2021-03-30T08:11:29Z</time>
      </trkpt>
      <trkpt lat="45.54029" lon="6.84906">
        <ele>3048.2</ele>
        <time>2021-03-30T08:11:30Z</time>
      </trkpt>
      <trkpt lat="45.54029" lon="6.84905">
        <ele>3048.2</ele>
        <time>2021-03-30T08:11:31Z</time>
      </trkpt>
      <trkpt lat="45.54029" lon="6.84905">
        <ele>3048.2</ele>
        <time>2021-03-30T08:11:32Z</time>
      </trkpt>
      <trkpt lat="45.54028" lon="6.84904">
        <ele>3048.2</ele>
        <time>2021-03-30T08:11:33Z</time>
      </trkpt>
      <trkpt lat="45.54028" lon="6.84904">
        <ele>3048.2</ele>
        <time>2021-03-30T08:11:34Z</time>
      </trkpt>
      <trkpt lat="45.54027" lon="6.84903">
        <ele>3048.3</ele>
        <time>2021-03-30T08:11:35Z</time>
      </trkpt>
      <trkpt lat="45.54027" lon="6.84902">
        <ele>3048.3</ele>
        <time>2021-03-30T08:11:36Z</time>
      </trkpt>
      <trkpt lat="45.54026" lon="6.84901">
        <ele>3048.3</ele>
        <time>2021-03-30T08:11:37Z</time>
      </trkpt>
      <trkpt lat="45.54026" lon="6.84901">
        <ele>3049.7</ele>
        <time>2021-03-30T08:11:38Z</time>
      </trkpt>
      <trkpt lat="45.54026" lon="6.849">
        <ele>3049.7</ele>
        <time>2021-03-30T08:11:39Z</time>
      </trkpt>
      <trkpt lat="45.54025" lon="6.84899">
        <ele>3049.7</ele>
        <time>2021-03-30T08:11:40Z</time>
      </trkpt>
      <trkpt lat="45.54025" lon="6.84899">
        <ele>3049.8</ele>
        <time>2021-03-30T08:11:41Z</time>
      </trkpt>
      <trkpt lat="45.54024" lon="6.84898">
        <ele>3049.8</ele>
        <time>2021-03-30T08:11:42Z</time>
      </trkpt>
      <trkpt lat="45.54024" lon="6.84897">
        <ele>3049.8</ele>
        <time>2021-03-30T08:11:43Z</time>
      </trkpt>
      <trkpt lat="45.54024" lon="6.84897">
        <ele>3049.8</ele>
        <time>2021-03-30T08:11:44Z</time>
      </trkpt>
      <trkpt lat="45.54023" lon="6.84896">
        <ele>3049.8</ele>
        <time>2021-03-30T08:11:45Z</time>
      </trkpt>
      <trkpt lat="45.54023" lon="6.84895">
        <ele>3051.2</ele>
        <time>2021-03-30T08:11:46Z</time>
      </trkpt>
      <trkpt lat="45.54023" lon="6.84895">
        <ele>3051.2</ele>
        <time>2021-03-30T08:11:47Z</time>
      </trkpt>
      <trkpt lat="45.54022" lon="6.84894">
        <ele>3051.3</ele>
        <time>2021-03-30T08:11:48Z</time>
      </trkpt>
      <trkpt lat="45.54022" lon="6.84893">
        <ele>3051.3</ele>
        <time>2021-03-30T08:11:49Z</time>
      </trkpt>
      <trkpt lat="45.54022" lon="6.84893">
        <ele>3051.3</ele>
        <time>2021-03-30T08:11:50Z</time>
      </trkpt>
      <trkpt lat="45.54021" lon="6.84892">
        <ele>3051.3</ele>
        <time>2021-03-30T08:11:51Z</time>
      </trkpt>
      <trkpt lat="45.54021" lon="6.84892">
        <ele>3051.3</ele>
        <time>2021-03-30T08:11:52Z</time>
      </trkpt>
      <trkpt lat="45.54021" lon="6.84891">
        <ele>3051.3</ele>
        <time>2021-03-30T08:11:53Z</time>
      </trkpt>
      <trkpt lat="45.54021" lon="6.8489">
        <ele>3051.3</ele>
        <time>2021-03-30T08:11:54Z</time>
      </trkpt>
      <trkpt lat="45.54021" lon="6.8489">
        <ele>3051.4</ele>
        <time>2021-03-30T08:11:55Z</time>
      </trkpt>
      <trkpt lat="45.54021" lon="6.84889">
        <ele>3051.4</ele>
        <time>2021-03-30T08:11:56Z</time>
      </trkpt>
      <trkpt lat="45.5402" lon="6.84889">
        <ele>3051.4</ele>
        <time>2021-03-30T08:11:57Z</time>
      </trkpt>
      <trkpt lat="45.5402" lon="6.84888">
        <ele>3052.7</ele>
        <time>2021-03-30T08:11:58Z</time>
      </trkpt>
      <trkpt lat="45.5402" lon="6.84887">
        <ele>3052.7</ele>
        <time>2021-03-30T08:11:59Z</time>
      </trkpt>
      <trkpt lat="45.5402" lon="6.84887">
        <ele>3052.7</ele>
        <time>2021-03-30T08:12:00Z</time>
      </trkpt>
      <trkpt lat="45.5402" lon="6.84886">
        <ele>3052.8</ele>
        <time>2021-03-30T08:12:01Z</time>
      </trkpt>
      <trkpt lat="45.5402" lon="6.84885">
        <ele>3052.8</ele>
        <time>2021-03-30T08:12:02Z</time>
      </trkpt>
      <trkpt lat="45.54019" lon="6.84884">
        <ele>3052.8</ele>
        <time>2021-03-30T08:12:03Z</time>
      </trkpt>
      <trkpt lat="45.54019" lon="6.84884">
        <ele>3052.8</ele>
        <time>2021-03-30T08:12:04Z</time>
      </trkpt>
      <trkpt lat="45.54019" lon="6.84883">
        <ele>3052.8</ele>
        <time>2021-03-30T08:12:05Z</time>
      </trkpt>
      <trkpt lat="45.54019" lon="6.84883">
        <ele>3052.8</ele>
        <time>2021-03-30T08:12:06Z</time>
      </trkpt>
      <trkpt lat="45.54019" lon="6.84882">
        <ele>3052.8</ele>
        <time>2021-03-30T08:12:07Z</time>
      </trkpt>
      <trkpt lat="45.54019" lon="6.84881">
        <ele>3052.8</ele>
        <time>2021-03-30T08:12:08Z</time>
      </trkpt>
      <trkpt lat="45.54019" lon="6.84881">
        <ele>3052.8</ele>
        <time>2021-03-30T08:12:09Z</time>
      </trkpt>
      <trkpt lat="45.54019" lon="6.8488">
        <ele>3052.8</ele>
        <time>2021-03-30T08:12:10Z</time>
      </trkpt>
      <trkpt lat="45.54018" lon="6.84879">
        <ele>3052.8</ele>
        <time>2021-03-30T08:12:11Z</time>
      </trkpt>
      <trkpt lat="45.54018" lon="6.84879">
        <ele>3052.8</ele>
        <time>2021-03-30T08:12:12Z</time>
      </trkpt>
      <trkpt lat="45.54018" lon="6.84878">
        <ele>3052.8</ele>
        <time>2021-03-30T08:12:13Z</time>
      </trkpt>
      <trkpt lat="45.54017" lon="6.84877">
        <ele>3052.8</ele>
        <time>2021-03-30T08:12:14Z</time>
      </trkpt>
      <trkpt lat="45.54017" lon="6.84877">
        <ele>3054.1</ele>
        <time>2021-03-30T08:12:15Z</time>
      </trkpt>
      <trkpt lat="45.54017" lon="6.84876">
        <ele>3054.1</ele>
        <time>2021-03-30T08:12:16Z</time>
      </trkpt>
      <trkpt lat="45.54017" lon="6.84875">
        <ele>3054.1</ele>
        <time>2021-03-30T08:12:17Z</time>
      </trkpt>
      <trkpt lat="45.54016" lon="6.84875">
        <ele>3054.1</ele>
        <time>2021-03-30T08:12:18Z</time>
      </trkpt>
      <trkpt lat="45.54016" lon="6.84874">
        <ele>3054.1</ele>
        <time>2021-03-30T08:12:19Z</time>
      </trkpt>
      <trkpt lat="45.54016" lon="6.84873">
        <ele>3054.1</ele>
        <time>2021-03-30T08:12:20Z</time>
      </trkpt>
      <trkpt lat="45.54015" lon="6.84873">
        <ele>3054.2</ele>
        <time>2021-03-30T08:12:21Z</time>
      </trkpt>
      <trkpt lat="45.54015" lon="6.84872">
        <ele>3054.2</ele>
        <time>2021-03-30T08:12:22Z</time>
      </trkpt>
      <trkpt lat="45.54015" lon="6.84871">
        <ele>3054.2</ele>
        <time>2021-03-30T08:12:23Z</time>
      </trkpt>
      <trkpt lat="45.54014" lon="6.84871">
        <ele>3054.2</ele>
        <time>2021-03-30T08:12:24Z</time>
      </trkpt>
      <trkpt lat="45.54014" lon="6.8487">
        <ele>3055.4</ele>
        <time>2021-03-30T08:12:25Z</time>
      </trkpt>
      <trkpt lat="45.54014" lon="6.8487">
        <ele>3055.4</ele>
        <time>2021-03-30T08:12:26Z</time>
      </trkpt>
      <trkpt lat="45.54013" lon="6.84869">
        <ele>3055.4</ele>
        <time>2021-03-30T08:12:27Z</time>
      </trkpt>
      <trkpt lat="45.54013" lon="6.84868">
        <ele>3055.5</ele>
        <time>2021-03-30T08:12:28Z</time>
      </trkpt>
      <trkpt lat="45.54012" lon="6.84868">
        <ele>3055.5</ele>
        <time>2021-03-30T08:12:29Z</time>
      </trkpt>
      <trkpt lat="45.54012" lon="6.84867">
        <ele>3055.5</ele>
        <time>2021-03-30T08:12:30Z</time>
      </trkpt>
      <trkpt lat="45.54012" lon="6.84867">
        <ele>3055.5</ele>
        <time>2021-03-30T08:12:31Z</time>
      </trkpt>
      <trkpt lat="45.54012" lon="6.84866">
        <ele>3055.5</ele>
        <time>2021-03-30T08:12:32Z</time>
      </trkpt>
      <trkpt lat="45.54011" lon="6.84865">
        <ele>3055.5</ele>
        <time>2021-03-30T08:12:33Z</time>
      </trkpt>
      <trkpt lat="45.54011" lon="6.84865">
        <ele>3056.9</ele>
        <time>2021-03-30T08:12:34Z</time>
      </trkpt>
      <trkpt lat="45.5401" lon="6.84864">
        <ele>3056.9</ele>
        <time>2021-03-30T08:12:35Z</time>
      </trkpt>
      <trkpt lat="45.5401" lon="6.84863">
        <ele>3056.9</ele>
        <time>2021-03-30T08:12:36Z</time>
      </trkpt>
      <trkpt lat="45.5401" lon="6.84863">
        <ele>3056.9</ele>
        <time>2021-03-30T08:12:37Z</time>
      </trkpt>
      <trkpt lat="45.5401" lon="6.84862">
        <ele>3056.9</ele>
        <time>2021-03-30T08:12:38Z</time>
      </trkpt>
      <trkpt lat="45.5401" lon="6.84862">
        <ele>3056.9</ele>
        <time>2021-03-30T08:12:39Z</time>
      </trkpt>
      <trkpt lat="45.54009" lon="6.84861">
        <ele>3056.9</ele>
        <time>2021-03-30T08:12:40Z</time>
      </trkpt>
      <trkpt lat="45.54009" lon="6.8486">
        <ele>3056.9</ele>
        <time>2021-03-30T08:12:41Z</time>
      </trkpt>
      <trkpt lat="45.54009" lon="6.8486">
        <ele>3057</ele>
        <time>2021-03-30T08:12:42Z</time>
      </trkpt>
      <trkpt lat="45.54009" lon="6.84859">
        <ele>3057</ele>
        <time>2021-03-30T08:12:43Z</time>
      </trkpt>
      <trkpt lat="45.54009" lon="6.84858">
        <ele>3057</ele>
        <time>2021-03-30T08:12:44Z</time>
      </trkpt>
      <trkpt lat="45.54008" lon="6.84858">
        <ele>3057</ele>
        <time>2021-03-30T08:12:45Z</time>
      </trkpt>
      <trkpt lat="45.54008" lon="6.84857">
        <ele>3058.4</ele>
        <time>2021-03-30T08:12:46Z</time>
      </trkpt>
      <trkpt lat="45.54008" lon="6.84857">
        <ele>3058.4</ele>
        <time>2021-03-30T08:12:47Z</time>
      </trkpt>
      <trkpt lat="45.54008" lon="6.84858">
        <ele>3058.4</ele>
        <time>2021-03-30T08:12:48Z</time>
      </trkpt>
      <trkpt lat="45.54008" lon="6.84859">
        <ele>3058.4</ele>
        <time>2021-03-30T08:12:49Z</time>
      </trkpt>
      <trkpt lat="45.54008" lon="6.8486">
        <ele>3058.4</ele>
        <time>2021-03-30T08:12:50Z</time>
      </trkpt>
      <trkpt lat="45.54008" lon="6.84861">
        <ele>3058.3</ele>
        <time>2021-03-30T08:12:51Z</time>
      </trkpt>
      <trkpt lat="45.54007" lon="6.84862">
        <ele>3058.3</ele>
        <time>2021-03-30T08:12:52Z</time>
      </trkpt>
      <trkpt lat="45.54007" lon="6.84863">
        <ele>3058.3</ele>
        <time>2021-03-30T08:12:53Z</time>
      </trkpt>
      <trkpt lat="45.54007" lon="6.84864">
        <ele>3058.3</ele>
        <time>2021-03-30T08:12:54Z</time>
      </trkpt>
      <trkpt lat="45.54007" lon="6.84865">
        <ele>3058.2</ele>
        <time>2021-03-30T08:12:55Z</time>
      </trkpt>
      <trkpt lat="45.54007" lon="6.84866">
        <ele>3058.2</ele>
        <time>2021-03-30T08:12:56Z</time>
      </trkpt>
      <trkpt lat="45.54007" lon="6.84867">
        <ele>3058.2</ele>
        <time>2021-03-30T08:12:57Z</time>
      </trkpt>
      <trkpt lat="45.54007" lon="6.84868">
        <ele>3058.2</ele>
        <time>2021-03-30T08:13:16Z</time>
      </trkpt>
      <trkpt lat="45.54007" lon="6.84869">
        <ele>3058.1</ele>
        <time>2021-03-30T08:13:17Z</time>
      </trkpt>
      <trkpt lat="45.54007" lon="6.8487">
        <ele>3058.1</ele>
        <time>2021-03-30T08:13:18Z</time>
      </trkpt>
      <trkpt lat="45.54007" lon="6.84871">
        <ele>3058.1</ele>
        <time>2021-03-30T08:13:19Z</time>
      </trkpt>
      <trkpt lat="45.54007" lon="6.84872">
        <ele>3058.1</ele>
        <time>2021-03-30T08:13:20Z</time>
      </trkpt>
      <trkpt lat="45.54006" lon="6.84873">
        <ele>3058.1</ele>
        <time>2021-03-30T08:13:21Z</time>
      </trkpt>
      <trkpt lat="45.54006" lon="6.84874">
        <ele>3058</ele>
        <time>2021-03-30T08:13:22Z</time>
      </trkpt>
      <trkpt lat="45.54006" lon="6.84874">
        <ele>3058</ele>
        <time>2021-03-30T08:13:23Z</time>
      </trkpt>
      <trkpt lat="45.54006" lon="6.84875">
        <ele>3058</ele>
        <time>2021-03-30T08:13:24Z</time>
      </trkpt>
      <trkpt lat="45.54006" lon="6.84876">
        <ele>3058</ele>
        <time>2021-03-30T08:13:25Z</time>
      </trkpt>
      <trkpt lat="45.54006" lon="6.84877">
        <ele>3058</ele>
        <time>2021-03-30T08:13:26Z</time>
      </trkpt>
      <trkpt lat="45.54005" lon="6.84878">
        <ele>3057.9</ele>
        <time>2021-03-30T08:13:27Z</time>
      </trkpt>
      <trkpt lat="45.54005" lon="6.84878">
        <ele>3059.5</ele>
        <time>2021-03-30T08:13:28Z</time>
      </trkpt>
      <trkpt lat="45.54005" lon="6.84879">
        <ele>3059.5</ele>
        <time>2021-03-30T08:13:29Z</time>
      </trkpt>
      <trkpt lat="45.54005" lon="6.8488">
        <ele>3059.5</ele>
        <time>2021-03-30T08:13:30Z</time>
      </trkpt>
      <trkpt lat="45.54004" lon="6.8488">
        <ele>3059.5</ele>
        <time>2021-03-30T08:13:31Z</time>
      </trkpt>
      <trkpt lat="45.54004" lon="6.84881">
        <ele>3059.5</ele>
        <time>2021-03-30T08:13:32Z</time>
      </trkpt>
      <trkpt lat="45.54004" lon="6.84882">
        <ele>3059.4</ele>
        <time>2021-03-30T08:13:33Z</time>
      </trkpt>
      <trkpt lat="45.54004" lon="6.84883">
        <ele>3059.4</ele>
        <time>2021-03-30T08:13:34Z</time>
      </trkpt>
      <trkpt lat="45.54003" lon="6.84883">
        <ele>3059.4</ele>
        <time>2021-03-30T08:13:35Z</time>
      </trkpt>
      <trkpt lat="45.54003" lon="6.84884">
        <ele>3059.4</ele>
        <time>2021-03-30T08:13:36Z</time>
      </trkpt>
      <trkpt lat="45.54003" lon="6.84885">
        <ele>3059.4</ele>
        <time>2021-03-30T08:13:37Z</time>
      </trkpt>
      <trkpt lat="45.54003" lon="6.84886">
        <ele>3059.4</ele>
        <time>2021-03-30T08:13:38Z</time>
      </trkpt>
      <trkpt lat="45.54002" lon="6.84886">
        <ele>3059.4</ele>
        <time>2021-03-30T08:13:39Z</time>
      </trkpt>
      <trkpt lat="45.54002" lon="6.84887">
        <ele>3061</ele>
        <time>2021-03-30T08:13:40Z</time>
      </trkpt>
      <trkpt lat="45.54002" lon="6.84888">
        <ele>3061</ele>
        <time>2021-03-30T08:13:41Z</time>
      </trkpt>
      <trkpt lat="45.54001" lon="6.84889">
        <ele>3061</ele>
        <time>2021-03-30T08:13:42Z</time>
      </trkpt>
      <trkpt lat="45.54001" lon="6.8489">
        <ele>3061</ele>
        <time>2021-03-30T08:13:43Z</time>
      </trkpt>
      <trkpt lat="45.54001" lon="6.8489">
        <ele>3060.9</ele>
        <time>2021-03-30T08:13:44Z</time>
      </trkpt>
      <trkpt lat="45.54" lon="6.84891">
        <ele>3060.9</ele>
        <time>2021-03-30T08:13:45Z</time>
      </trkpt>
      <trkpt lat="45.54" lon="6.84892">
        <ele>3060.9</ele>
        <time>2021-03-30T08:13:46Z</time>
      </trkpt>
      <trkpt lat="45.54" lon="6.84893">
        <ele>3060.9</ele>
        <time>2021-03-30T08:13:47Z</time>
      </trkpt>
      <trkpt lat="45.54" lon="6.84894">
        <ele>3060.9</ele>
        <time>2021-03-30T08:13:48Z</time>
      </trkpt>
      <trkpt lat="45.53999" lon="6.84894">
        <ele>3060.9</ele>
        <time>2021-03-30T08:13:49Z</time>
      </trkpt>
      <trkpt lat="45.53999" lon="6.84895">
        <ele>3060.8</ele>
        <time>2021-03-30T08:13:50Z</time>
      </trkpt>
      <trkpt lat="45.53999" lon="6.84896">
        <ele>3062.4</ele>
        <time>2021-03-30T08:13:51Z</time>
      </trkpt>
      <trkpt lat="45.53999" lon="6.84897">
        <ele>3062.4</ele>
        <time>2021-03-30T08:13:52Z</time>
      </trkpt>
      <trkpt lat="45.53999" lon="6.84898">
        <ele>3062.4</ele>
        <time>2021-03-30T08:13:53Z</time>
      </trkpt>
      <trkpt lat="45.53999" lon="6.84898">
        <ele>3062.4</ele>
        <time>2021-03-30T08:13:54Z</time>
      </trkpt>
      <trkpt lat="45.53999" lon="6.84899">
        <ele>3062.3</ele>
        <time>2021-03-30T08:13:55Z</time>
      </trkpt>
      <trkpt lat="45.53999" lon="6.849">
        <ele>3062.3</ele>
        <time>2021-03-30T08:13:56Z</time>
      </trkpt>
      <trkpt lat="45.53999" lon="6.84901">
        <ele>3062.3</ele>
        <time>2021-03-30T08:13:57Z</time>
      </trkpt>
      <trkpt lat="45.53999" lon="6.84901">
        <ele>3062.3</ele>
        <time>2021-03-30T08:13:58Z</time>
      </trkpt>
      <trkpt lat="45.53999" lon="6.84902">
        <ele>3062.3</ele>
        <time>2021-03-30T08:13:59Z</time>
      </trkpt>
      <trkpt lat="45.53999" lon="6.84903">
        <ele>3062.3</ele>
        <time>2021-03-30T08:14:00Z</time>
      </trkpt>
      <trkpt lat="45.53998" lon="6.84904">
        <ele>3062.1</ele>
        <time>2021-03-30T08:14:01Z</time>
      </trkpt>
      <trkpt lat="45.53998" lon="6.84905">
        <ele>3062.1</ele>
        <time>2021-03-30T08:14:02Z</time>
      </trkpt>
      <trkpt lat="45.53998" lon="6.84905">
        <ele>3062.1</ele>
        <time>2021-03-30T08:14:03Z</time>
      </trkpt>
      <trkpt lat="45.53998" lon="6.84906">
        <ele>3062.1</ele>
        <time>2021-03-30T08:14:04Z</time>
      </trkpt>
      <trkpt lat="45.53998" lon="6.84907">
        <ele>3062.1</ele>
        <time>2021-03-30T08:14:05Z</time>
      </trkpt>
      <trkpt lat="45.53998" lon="6.84907">
        <ele>3062.1</ele>
        <time>2021-03-30T08:14:06Z</time>
      </trkpt>
      <trkpt lat="45.53998" lon="6.84908">
        <ele>3061.9</ele>
        <time>2021-03-30T08:14:07Z</time>
      </trkpt>
      <trkpt lat="45.53997" lon="6.84908">
        <ele>3061.9</ele>
        <time>2021-03-30T08:14:08Z</time>
      </trkpt>
      <trkpt lat="45.53997" lon="6.84909">
        <ele>3061.9</ele>
        <time>2021-03-30T08:14:09Z</time>
      </trkpt>
      <trkpt lat="45.53997" lon="6.8491">
        <ele>3061.9</ele>
        <time>2021-03-30T08:14:10Z</time>
      </trkpt>
      <trkpt lat="45.53997" lon="6.84911">
        <ele>3061.9</ele>
        <time>2021-03-30T08:14:11Z</time>
      </trkpt>
      <trkpt lat="45.53997" lon="6.84912">
        <ele>3061.9</ele>
        <time>2021-03-30T08:14:12Z</time>
      </trkpt>
      <trkpt lat="45.53997" lon="6.84912">
        <ele>3061.7</ele>
        <time>2021-03-30T08:14:13Z</time>
      </trkpt>
      <trkpt lat="45.53997" lon="6.84913">
        <ele>3061.7</ele>
        <time>2021-03-30T08:14:14Z</time>
      </trkpt>
      <trkpt lat="45.53997" lon="6.84914">
        <ele>3061.7</ele>
        <time>2021-03-30T08:14:15Z</time>
      </trkpt>
      <trkpt lat="45.53997" lon="6.84914">
        <ele>3061.7</ele>
        <time>2021-03-30T08:14:16Z</time>
      </trkpt>
      <trkpt lat="45.53997" lon="6.84915">
        <ele>3061.7</ele>
        <time>2021-03-30T08:14:17Z</time>
      </trkpt>
      <trkpt lat="45.53997" lon="6.84916">
        <ele>3061.7</ele>
        <time>2021-03-30T08:14:18Z</time>
      </trkpt>
      <trkpt lat="45.53996" lon="6.84916">
        <ele>3063</ele>
        <time>2021-03-30T08:14:19Z</time>
      </trkpt>
      <trkpt lat="45.53996" lon="6.84917">
        <ele>3063</ele>
        <time>2021-03-30T08:14:20Z</time>
      </trkpt>
      <trkpt lat="45.53996" lon="6.84918">
        <ele>3063</ele>
        <time>2021-03-30T08:14:21Z</time>
      </trkpt>
      <trkpt lat="45.53996" lon="6.84918">
        <ele>3063</ele>
        <time>2021-03-30T08:14:22Z</time>
      </trkpt>
      <trkpt lat="45.53996" lon="6.84919">
        <ele>3063</ele>
        <time>2021-03-30T08:14:23Z</time>
      </trkpt>
      <trkpt lat="45.53995" lon="6.84919">
        <ele>3063</ele>
        <time>2021-03-30T08:14:24Z</time>
      </trkpt>
      <trkpt lat="45.53995" lon="6.8492">
        <ele>3063</ele>
        <time>2021-03-30T08:14:25Z</time>
      </trkpt>
      <trkpt lat="45.53995" lon="6.8492">
        <ele>3062.8</ele>
        <time>2021-03-30T08:14:26Z</time>
      </trkpt>
      <trkpt lat="45.53995" lon="6.84921">
        <ele>3062.8</ele>
        <time>2021-03-30T08:14:27Z</time>
      </trkpt>
      <trkpt lat="45.53995" lon="6.84921">
        <ele>3062.8</ele>
        <time>2021-03-30T08:14:28Z</time>
      </trkpt>
      <trkpt lat="45.53995" lon="6.84922">
        <ele>3062.8</ele>
        <time>2021-03-30T08:14:29Z</time>
      </trkpt>
      <trkpt lat="45.53995" lon="6.84922">
        <ele>3062.8</ele>
        <time>2021-03-30T08:14:30Z</time>
      </trkpt>
      <trkpt lat="45.53994" lon="6.84923">
        <ele>3062.8</ele>
        <time>2021-03-30T08:14:31Z</time>
      </trkpt>
      <trkpt lat="45.53995" lon="6.84924">
        <ele>3062.8</ele>
        <time>2021-03-30T08:14:32Z</time>
      </trkpt>
      <trkpt lat="45.53995" lon="6.84925">
        <ele>3062.8</ele>
        <time>2021-03-30T08:14:33Z</time>
      </trkpt>
      <trkpt lat="45.53995" lon="6.84925">
        <ele>3062.5</ele>
        <time>2021-03-30T08:14:34Z</time>
      </trkpt>
      <trkpt lat="45.53995" lon="6.84926">
        <ele>3062.5</ele>
        <time>2021-03-30T08:14:35Z</time>
      </trkpt>
      <trkpt lat="45.53995" lon="6.84927">
        <ele>3062.5</ele>
        <time>2021-03-30T08:14:36Z</time>
      </trkpt>
      <trkpt lat="45.53995" lon="6.84928">
        <ele>3062.5</ele>
        <time>2021-03-30T08:14:37Z</time>
      </trkpt>
      <trkpt lat="45.53995" lon="6.84928">
        <ele>3062.5</ele>
        <time>2021-03-30T08:14:38Z</time>
      </trkpt>
      <trkpt lat="45.53995" lon="6.84929">
        <ele>3062.5</ele>
        <time>2021-03-30T08:14:39Z</time>
      </trkpt>
      <trkpt lat="45.53995" lon="6.8493">
        <ele>3062.3</ele>
        <time>2021-03-30T08:14:40Z</time>
      </trkpt>
      <trkpt lat="45.53994" lon="6.84931">
        <ele>3062.3</ele>
        <time>2021-03-30T08:14:41Z</time>
      </trkpt>
      <trkpt lat="45.53994" lon="6.84931">
        <ele>3062.3</ele>
        <time>2021-03-30T08:14:42Z</time>
      </trkpt>
      <trkpt lat="45.53994" lon="6.84932">
        <ele>3062.3</ele>
        <time>2021-03-30T08:14:43Z</time>
      </trkpt>
      <trkpt lat="45.53994" lon="6.84933">
        <ele>3062.3</ele>
        <time>2021-03-30T08:14:44Z</time>
      </trkpt>
      <trkpt lat="45.53994" lon="6.84933">
        <ele>3062.1</ele>
        <time>2021-03-30T08:14:45Z</time>
      </trkpt>
      <trkpt lat="45.53994" lon="6.84934">
        <ele>3062.1</ele>
        <time>2021-03-30T08:14:46Z</time>
      </trkpt>
      <trkpt lat="45.53995" lon="6.84935">
        <ele>3062.1</ele>
        <time>2021-03-30T08:14:47Z</time>
      </trkpt>
      <trkpt lat="45.53994" lon="6.84935">
        <ele>3062.1</ele>
        <time>2021-03-30T08:14:48Z</time>
      </trkpt>
      <trkpt lat="45.53994" lon="6.84937">
        <ele>3062.1</ele>
        <time>2021-03-30T08:14:49Z</time>
      </trkpt>
      <trkpt lat="45.53994" lon="6.84938">
        <ele>3061.8</ele>
        <time>2021-03-30T08:14:50Z</time>
      </trkpt>
      <trkpt lat="45.53994" lon="6.84939">
        <ele>3061.8</ele>
        <time>2021-03-30T08:15:02Z</time>
      </trkpt>
      <trkpt lat="45.53994" lon="6.84941">
        <ele>3061.8</ele>
        <time>2021-03-30T08:15:03Z</time>
      </trkpt>
      <trkpt lat="45.53994" lon="6.84942">
        <ele>3061.8</ele>
        <time>2021-03-30T08:15:04Z</time>
      </trkpt>
      <trkpt lat="45.53994" lon="6.84943">
        <ele>3061.5</ele>
        <time>2021-03-30T08:15:05Z</time>
      </trkpt>
      <trkpt lat="45.53994" lon="6.84944">
        <ele>3061.5</ele>
        <time>2021-03-30T08:15:06Z</time>
      </trkpt>
      <trkpt lat="45.53994" lon="6.84945">
        <ele>3061.5</ele>
        <time>2021-03-30T08:15:07Z</time>
      </trkpt>
      <trkpt lat="45.53994" lon="6.84946">
        <ele>3061.2</ele>
        <time>2021-03-30T08:15:08Z</time>
      </trkpt>
      <trkpt lat="45.53993" lon="6.84947">
        <ele>3061.2</ele>
        <time>2021-03-30T08:15:09Z</time>
      </trkpt>
      <trkpt lat="45.53993" lon="6.84948">
        <ele>3061.2</ele>
        <time>2021-03-30T08:15:10Z</time>
      </trkpt>
      <trkpt lat="45.53993" lon="6.84949">
        <ele>3061.2</ele>
        <time>2021-03-30T08:15:11Z</time>
      </trkpt>
      <trkpt lat="45.53993" lon="6.8495">
        <ele>3061.2</ele>
        <time>2021-03-30T08:15:12Z</time>
      </trkpt>
      <trkpt lat="45.53993" lon="6.8495">
        <ele>3061.2</ele>
        <time>2021-03-30T08:15:13Z</time>
      </trkpt>
      <trkpt lat="45.53993" lon="6.84951">
        <ele>3060.9</ele>
        <time>2021-03-30T08:15:14Z</time>
      </trkpt>
      <trkpt lat="45.53993" lon="6.84951">
        <ele>3062.1</ele>
        <time>2021-03-30T08:15:15Z</time>
      </trkpt>
      <trkpt lat="45.53993" lon="6.84952">
        <ele>3062.1</ele>
        <time>2021-03-30T08:15:16Z</time>
      </trkpt>
      <trkpt lat="45.53993" lon="6.84953">
        <ele>3062.1</ele>
        <time>2021-03-30T08:15:17Z</time>
      </trkpt>
      <trkpt lat="45.53993" lon="6.84954">
        <ele>3062.1</ele>
        <time>2021-03-30T08:15:18Z</time>
      </trkpt>
      <trkpt lat="45.53993" lon="6.84954">
        <ele>3062.1</ele>
        <time>2021-03-30T08:15:19Z</time>
      </trkpt>
      <trkpt lat="45.53992" lon="6.84955">
        <ele>3061.8</ele>
        <time>2021-03-30T08:15:20Z</time>
      </trkpt>
      <trkpt lat="45.53992" lon="6.84956">
        <ele>3061.8</ele>
        <time>2021-03-30T08:15:21Z</time>
      </trkpt>
      <trkpt lat="45.53992" lon="6.84956">
        <ele>3061.8</ele>
        <time>2021-03-30T08:15:22Z</time>
      </trkpt>
      <trkpt lat="45.53992" lon="6.84957">
        <ele>3061.8</ele>
        <time>2021-03-30T08:15:23Z</time>
      </trkpt>
      <trkpt lat="45.53992" lon="6.84958">
        <ele>3061.8</ele>
        <time>2021-03-30T08:15:24Z</time>
      </trkpt>
      <trkpt lat="45.53992" lon="6.84958">
        <ele>3061.8</ele>
        <time>2021-03-30T08:15:25Z</time>
      </trkpt>
      <trkpt lat="45.53991" lon="6.84959">
        <ele>3061.4</ele>
        <time>2021-03-30T08:15:26Z</time>
      </trkpt>
      <trkpt lat="45.53991" lon="6.8496">
        <ele>3061.4</ele>
        <time>2021-03-30T08:15:27Z</time>
      </trkpt>
      <trkpt lat="45.53991" lon="6.8496">
        <ele>3061.4</ele>
        <time>2021-03-30T08:15:28Z</time>
      </trkpt>
      <trkpt lat="45.53991" lon="6.84961">
        <ele>3061.4</ele>
        <time>2021-03-30T08:15:29Z</time>
      </trkpt>
      <trkpt lat="45.53991" lon="6.84962">
        <ele>3061.4</ele>
        <time>2021-03-30T08:15:30Z</time>
      </trkpt>
      <trkpt lat="45.5399" lon="6.84962">
        <ele>3061.4</ele>
        <time>2021-03-30T08:15:31Z</time>
      </trkpt>
      <trkpt lat="45.5399" lon="6.84963">
        <ele>3062.6</ele>
        <time>2021-03-30T08:15:32Z</time>
      </trkpt>
      <trkpt lat="45.5399" lon="6.84963">
        <ele>3062.2</ele>
        <time>2021-03-30T08:15:33Z</time>
      </trkpt>
      <trkpt lat="45.5399" lon="6.84964">
        <ele>3062.2</ele>
        <time>2021-03-30T08:15:34Z</time>
      </trkpt>
      <trkpt lat="45.53989" lon="6.84965">
        <ele>3062.2</ele>
        <time>2021-03-30T08:15:35Z</time>
      </trkpt>
      <trkpt lat="45.53989" lon="6.84965">
        <ele>3062.2</ele>
        <time>2021-03-30T08:15:36Z</time>
      </trkpt>
      <trkpt lat="45.53989" lon="6.84966">
        <ele>3062.2</ele>
        <time>2021-03-30T08:15:37Z</time>
      </trkpt>
      <trkpt lat="45.53989" lon="6.84967">
        <ele>3062.2</ele>
        <time>2021-03-30T08:15:38Z</time>
      </trkpt>
      <trkpt lat="45.53989" lon="6.84968">
        <ele>3062.2</ele>
        <time>2021-03-30T08:15:39Z</time>
      </trkpt>
      <trkpt lat="45.53988" lon="6.84968">
        <ele>3061.8</ele>
        <time>2021-03-30T08:15:40Z</time>
      </trkpt>
      <trkpt lat="45.53988" lon="6.84969">
        <ele>3061.8</ele>
        <time>2021-03-30T08:15:41Z</time>
      </trkpt>
      <trkpt lat="45.53988" lon="6.8497">
        <ele>3061.8</ele>
        <time>2021-03-30T08:15:42Z</time>
      </trkpt>
      <trkpt lat="45.53988" lon="6.84971">
        <ele>3061.8</ele>
        <time>2021-03-30T08:15:43Z</time>
      </trkpt>
      <trkpt lat="45.53987" lon="6.84971">
        <ele>3062.9</ele>
        <time>2021-03-30T08:15:44Z</time>
      </trkpt>
      <trkpt lat="45.53987" lon="6.84971">
        <ele>3062.9</ele>
        <time>2021-03-30T08:15:45Z</time>
      </trkpt>
      <trkpt lat="45.53987" lon="6.84972">
        <ele>3062.9</ele>
        <time>2021-03-30T08:15:46Z</time>
      </trkpt>
      <trkpt lat="45.53987" lon="6.84972">
        <ele>3062.4</ele>
        <time>2021-03-30T08:15:47Z</time>
      </trkpt>
      <trkpt lat="45.53986" lon="6.84973">
        <ele>3062.4</ele>
        <time>2021-03-30T08:15:48Z</time>
      </trkpt>
      <trkpt lat="45.53986" lon="6.84973">
        <ele>3062.4</ele>
        <time>2021-03-30T08:15:49Z</time>
      </trkpt>
      <trkpt lat="45.53986" lon="6.84974">
        <ele>3062.4</ele>
        <time>2021-03-30T08:15:50Z</time>
      </trkpt>
      <trkpt lat="45.53986" lon="6.84975">
        <ele>3062.4</ele>
        <time>2021-03-30T08:15:51Z</time>
      </trkpt>
      <trkpt lat="45.53986" lon="6.84975">
        <ele>3062.4</ele>
        <time>2021-03-30T08:15:52Z</time>
      </trkpt>
      <trkpt lat="45.53985" lon="6.84976">
        <ele>3062.4</ele>
        <time>2021-03-30T08:15:53Z</time>
      </trkpt>
      <trkpt lat="45.53985" lon="6.84976">
        <ele>3062</ele>
        <time>2021-03-30T08:15:54Z</time>
      </trkpt>
      <trkpt lat="45.53985" lon="6.84977">
        <ele>3062</ele>
        <time>2021-03-30T08:15:55Z</time>
      </trkpt>
      <trkpt lat="45.53985" lon="6.84978">
        <ele>3062</ele>
        <time>2021-03-30T08:15:56Z</time>
      </trkpt>
      <trkpt lat="45.53984" lon="6.84979">
        <ele>3063</ele>
        <time>2021-03-30T08:15:57Z</time>
      </trkpt>
      <trkpt lat="45.53984" lon="6.84979">
        <ele>3063</ele>
        <time>2021-03-30T08:15:58Z</time>
      </trkpt>
      <trkpt lat="45.53984" lon="6.8498">
        <ele>3063</ele>
        <time>2021-03-30T08:15:59Z</time>
      </trkpt>
      <trkpt lat="45.53984" lon="6.84981">
        <ele>3062.6</ele>
        <time>2021-03-30T08:16:00Z</time>
      </trkpt>
      <trkpt lat="45.53983" lon="6.84981">
        <ele>3062.6</ele>
        <time>2021-03-30T08:16:01Z</time>
      </trkpt>
      <trkpt lat="45.53983" lon="6.84982">
        <ele>3062.6</ele>
        <time>2021-03-30T08:16:02Z</time>
      </trkpt>
      <trkpt lat="45.53983" lon="6.84982">
        <ele>3062.6</ele>
        <time>2021-03-30T08:16:03Z</time>
      </trkpt>
      <trkpt lat="45.53982" lon="6.84983">
        <ele>3062.6</ele>
        <time>2021-03-30T08:16:04Z</time>
      </trkpt>
      <trkpt lat="45.53982" lon="6.84983">
        <ele>3062.6</ele>
        <time>2021-03-30T08:16:05Z</time>
      </trkpt>
      <trkpt lat="45.53982" lon="6.84984">
        <ele>3062.6</ele>
        <time>2021-03-30T08:16:06Z</time>
      </trkpt>
      <trkpt lat="45.53981" lon="6.84984">
        <ele>3063.6</ele>
        <time>2021-03-30T08:16:07Z</time>
      </trkpt>
      <trkpt lat="45.53981" lon="6.84985">
        <ele>3063.6</ele>
        <time>2021-03-30T08:16:08Z</time>
      </trkpt>
      <trkpt lat="45.5398" lon="6.84985">
        <ele>3063.1</ele>
        <time>2021-03-30T08:16:09Z</time>
      </trkpt>
      <trkpt lat="45.53979" lon="6.84986">
        <ele>3063.1</ele>
        <time>2021-03-30T08:16:10Z</time>
      </trkpt>
      <trkpt lat="45.53979" lon="6.84987">
        <ele>3063.1</ele>
        <time>2021-03-30T08:16:11Z</time>
      </trkpt>
      <trkpt lat="45.53978" lon="6.84987">
        <ele>3063.1</ele>
        <time>2021-03-30T08:16:12Z</time>
      </trkpt>
      <trkpt lat="45.53978" lon="6.84988">
        <ele>3064.2</ele>
        <time>2021-03-30T08:16:13Z</time>
      </trkpt>
      <trkpt lat="45.53977" lon="6.84988">
        <ele>3064.2</ele>
        <time>2021-03-30T08:16:14Z</time>
      </trkpt>
      <trkpt lat="45.53977" lon="6.84989">
        <ele>3064.2</ele>
        <time>2021-03-30T08:16:15Z</time>
      </trkpt>
      <trkpt lat="45.53976" lon="6.84989">
        <ele>3063.7</ele>
        <time>2021-03-30T08:16:16Z</time>
      </trkpt>
      <trkpt lat="45.53976" lon="6.8499">
        <ele>3063.7</ele>
        <time>2021-03-30T08:16:17Z</time>
      </trkpt>
      <trkpt lat="45.53975" lon="6.8499">
        <ele>3064.8</ele>
        <time>2021-03-30T08:16:18Z</time>
      </trkpt>
      <trkpt lat="45.53975" lon="6.8499">
        <ele>3064.8</ele>
        <time>2021-03-30T08:16:19Z</time>
      </trkpt>
      <trkpt lat="45.53974" lon="6.8499">
        <ele>3064.8</ele>
        <time>2021-03-30T08:16:20Z</time>
      </trkpt>
      <trkpt lat="45.53974" lon="6.8499">
        <ele>3064.8</ele>
        <time>2021-03-30T08:16:21Z</time>
      </trkpt>
      <trkpt lat="45.53973" lon="6.84991">
        <ele>3064.8</ele>
        <time>2021-03-30T08:16:22Z</time>
      </trkpt>
      <trkpt lat="45.53973" lon="6.84991">
        <ele>3064.8</ele>
        <time>2021-03-30T08:16:23Z</time>
      </trkpt>
      <trkpt lat="45.53972" lon="6.84991">
        <ele>3065.9</ele>
        <time>2021-03-30T08:16:24Z</time>
      </trkpt>
      <trkpt lat="45.53972" lon="6.84991">
        <ele>3065.9</ele>
        <time>2021-03-30T08:16:25Z</time>
      </trkpt>
      <trkpt lat="45.53971" lon="6.84992">
        <ele>3065.9</ele>
        <time>2021-03-30T08:16:26Z</time>
      </trkpt>
      <trkpt lat="45.5397" lon="6.84992">
        <ele>3065.9</ele>
        <time>2021-03-30T08:16:27Z</time>
      </trkpt>
      <trkpt lat="45.5397" lon="6.84992">
        <ele>3065.9</ele>
        <time>2021-03-30T08:16:28Z</time>
      </trkpt>
      <trkpt lat="45.53969" lon="6.84992">
        <ele>3065.9</ele>
        <time>2021-03-30T08:16:29Z</time>
      </trkpt>
      <trkpt lat="45.53969" lon="6.84993">
        <ele>3066.9</ele>
        <time>2021-03-30T08:16:30Z</time>
      </trkpt>
      <trkpt lat="45.53968" lon="6.84993">
        <ele>3066.9</ele>
        <time>2021-03-30T08:16:31Z</time>
      </trkpt>
      <trkpt lat="45.53968" lon="6.84993">
        <ele>3066.9</ele>
        <time>2021-03-30T08:16:32Z</time>
      </trkpt>
      <trkpt lat="45.53967" lon="6.84993">
        <ele>3066.3</ele>
        <time>2021-03-30T08:16:33Z</time>
      </trkpt>
      <trkpt lat="45.53967" lon="6.84994">
        <ele>3066.3</ele>
        <time>2021-03-30T08:16:34Z</time>
      </trkpt>
      <trkpt lat="45.53967" lon="6.84994">
        <ele>3066.3</ele>
        <time>2021-03-30T08:16:35Z</time>
      </trkpt>
      <trkpt lat="45.53966" lon="6.84994">
        <ele>3067.3</ele>
        <time>2021-03-30T08:16:36Z</time>
      </trkpt>
      <trkpt lat="45.53966" lon="6.84994">
        <ele>3067.3</ele>
        <time>2021-03-30T08:16:37Z</time>
      </trkpt>
      <trkpt lat="45.53965" lon="6.84994">
        <ele>3067.3</ele>
        <time>2021-03-30T08:16:38Z</time>
      </trkpt>
      <trkpt lat="45.53965" lon="6.84995">
        <ele>3067.3</ele>
        <time>2021-03-30T08:16:39Z</time>
      </trkpt>
      <trkpt lat="45.53965" lon="6.84995">
        <ele>3067.3</ele>
        <time>2021-03-30T08:16:40Z</time>
      </trkpt>
      <trkpt lat="45.53964" lon="6.84995">
        <ele>3067.3</ele>
        <time>2021-03-30T08:16:41Z</time>
      </trkpt>
      <trkpt lat="45.53964" lon="6.84996">
        <ele>3067.3</ele>
        <time>2021-03-30T08:16:42Z</time>
      </trkpt>
      <trkpt lat="45.53963" lon="6.84996">
        <ele>3068.3</ele>
        <time>2021-03-30T08:16:43Z</time>
      </trkpt>
      <trkpt lat="45.53962" lon="6.84996">
        <ele>3068.3</ele>
        <time>2021-03-30T08:16:44Z</time>
      </trkpt>
      <trkpt lat="45.53962" lon="6.84997">
        <ele>3068.3</ele>
        <time>2021-03-30T08:16:45Z</time>
      </trkpt>
      <trkpt lat="45.53961" lon="6.84997">
        <ele>3068.3</ele>
        <time>2021-03-30T08:16:46Z</time>
      </trkpt>
      <trkpt lat="45.53961" lon="6.84997">
        <ele>3068.3</ele>
        <time>2021-03-30T08:16:47Z</time>
      </trkpt>
      <trkpt lat="45.5396" lon="6.84998">
        <ele>3067.7</ele>
        <time>2021-03-30T08:16:48Z</time>
      </trkpt>
      <trkpt lat="45.5396" lon="6.84998">
        <ele>3068.6</ele>
        <time>2021-03-30T08:16:49Z</time>
      </trkpt>
      <trkpt lat="45.53959" lon="6.84999">
        <ele>3068.6</ele>
        <time>2021-03-30T08:16:50Z</time>
      </trkpt>
      <trkpt lat="45.53959" lon="6.84999">
        <ele>3068.6</ele>
        <time>2021-03-30T08:16:51Z</time>
      </trkpt>
      <trkpt lat="45.53959" lon="6.85">
        <ele>3068.6</ele>
        <time>2021-03-30T08:16:52Z</time>
      </trkpt>
      <trkpt lat="45.53958" lon="6.85">
        <ele>3068.6</ele>
        <time>2021-03-30T08:16:53Z</time>
      </trkpt>
      <trkpt lat="45.53958" lon="6.85001">
        <ele>3068.6</ele>
        <time>2021-03-30T08:16:54Z</time>
      </trkpt>
      <trkpt lat="45.53957" lon="6.85002">
        <ele>3068.6</ele>
        <time>2021-03-30T08:16:55Z</time>
      </trkpt>
      <trkpt lat="45.53957" lon="6.85002">
        <ele>3068.9</ele>
        <time>2021-03-30T08:16:56Z</time>
      </trkpt>
      <trkpt lat="45.53956" lon="6.85003">
        <ele>3068.9</ele>
        <time>2021-03-30T08:16:57Z</time>
      </trkpt>
      <trkpt lat="45.53956" lon="6.85003">
        <ele>3068.9</ele>
        <time>2021-03-30T08:16:58Z</time>
      </trkpt>
      <trkpt lat="45.53956" lon="6.85004">
        <ele>3068.9</ele>
        <time>2021-03-30T08:16:59Z</time>
      </trkpt>
      <trkpt lat="45.53955" lon="6.85004">
        <ele>3068.9</ele>
        <time>2021-03-30T08:17:00Z</time>
      </trkpt>
      <trkpt lat="45.53955" lon="6.85004">
        <ele>3068.9</ele>
        <time>2021-03-30T08:17:01Z</time>
      </trkpt>
      <trkpt lat="45.53955" lon="6.85005">
        <ele>3068.9</ele>
        <time>2021-03-30T08:17:02Z</time>
      </trkpt>
      <trkpt lat="45.53954" lon="6.85005">
        <ele>3069.7</ele>
        <time>2021-03-30T08:17:03Z</time>
      </trkpt>
      <trkpt lat="45.53954" lon="6.85005">
        <ele>3069.7</ele>
        <time>2021-03-30T08:17:04Z</time>
      </trkpt>
      <trkpt lat="45.53953" lon="6.85006">
        <ele>3069.7</ele>
        <time>2021-03-30T08:17:05Z</time>
      </trkpt>
      <trkpt lat="45.53953" lon="6.85006">
        <ele>3069.7</ele>
        <time>2021-03-30T08:17:06Z</time>
      </trkpt>
      <trkpt lat="45.53952" lon="6.85006">
        <ele>3069.2</ele>
        <time>2021-03-30T08:17:07Z</time>
      </trkpt>
      <trkpt lat="45.53952" lon="6.85007">
        <ele>3069.2</ele>
        <time>2021-03-30T08:17:08Z</time>
      </trkpt>
      <trkpt lat="45.53951" lon="6.85007">
        <ele>3070</ele>
        <time>2021-03-30T08:17:09Z</time>
      </trkpt>
      <trkpt lat="45.53951" lon="6.85007">
        <ele>3070</ele>
        <time>2021-03-30T08:17:10Z</time>
      </trkpt>
      <trkpt lat="45.5395" lon="6.85008">
        <ele>3070</ele>
        <time>2021-03-30T08:17:11Z</time>
      </trkpt>
      <trkpt lat="45.5395" lon="6.85008">
        <ele>3070</ele>
        <time>2021-03-30T08:17:12Z</time>
      </trkpt>
      <trkpt lat="45.53949" lon="6.85008">
        <ele>3070</ele>
        <time>2021-03-30T08:17:13Z</time>
      </trkpt>
      <trkpt lat="45.53948" lon="6.85008">
        <ele>3070</ele>
        <time>2021-03-30T08:17:14Z</time>
      </trkpt>
      <trkpt lat="45.53948" lon="6.85009">
        <ele>3070.8</ele>
        <time>2021-03-30T08:17:15Z</time>
      </trkpt>
      <trkpt lat="45.53947" lon="6.85009">
        <ele>3070.8</ele>
        <time>2021-03-30T08:17:16Z</time>
      </trkpt>
      <trkpt lat="45.53947" lon="6.85009">
        <ele>3070.8</ele>
        <time>2021-03-30T08:17:17Z</time>
      </trkpt>
      <trkpt lat="45.53946" lon="6.85009">
        <ele>3070.8</ele>
        <time>2021-03-30T08:17:18Z</time>
      </trkpt>
      <trkpt lat="45.53946" lon="6.85009">
        <ele>3070.8</ele>
        <time>2021-03-30T08:17:19Z</time>
      </trkpt>
      <trkpt lat="45.53945" lon="6.8501">
        <ele>3071.7</ele>
        <time>2021-03-30T08:17:20Z</time>
      </trkpt>
      <trkpt lat="45.53944" lon="6.8501">
        <ele>3071.7</ele>
        <time>2021-03-30T08:17:21Z</time>
      </trkpt>
      <trkpt lat="45.53944" lon="6.8501">
        <ele>3071.7</ele>
        <time>2021-03-30T08:17:22Z</time>
      </trkpt>
      <trkpt lat="45.53943" lon="6.85011">
        <ele>3071.1</ele>
        <time>2021-03-30T08:17:23Z</time>
      </trkpt>
      <trkpt lat="45.53943" lon="6.85011">
        <ele>3071.1</ele>
        <time>2021-03-30T08:17:24Z</time>
      </trkpt>
      <trkpt lat="45.53942" lon="6.85012">
        <ele>3072</ele>
        <time>2021-03-30T08:17:25Z</time>
      </trkpt>
      <trkpt lat="45.53942" lon="6.85012">
        <ele>3072</ele>
        <time>2021-03-30T08:17:26Z</time>
      </trkpt>
      <trkpt lat="45.53941" lon="6.85013">
        <ele>3072</ele>
        <time>2021-03-30T08:17:27Z</time>
      </trkpt>
      <trkpt lat="45.5394" lon="6.85013">
        <ele>3072</ele>
        <time>2021-03-30T08:17:28Z</time>
      </trkpt>
      <trkpt lat="45.5394" lon="6.85013">
        <ele>3072</ele>
        <time>2021-03-30T08:17:29Z</time>
      </trkpt>
      <trkpt lat="45.53939" lon="6.85014">
        <ele>3072</ele>
        <time>2021-03-30T08:17:30Z</time>
      </trkpt>
      <trkpt lat="45.53939" lon="6.85015">
        <ele>3072.9</ele>
        <time>2021-03-30T08:17:31Z</time>
      </trkpt>
      <trkpt lat="45.53938" lon="6.85015">
        <ele>3072.3</ele>
        <time>2021-03-30T08:17:32Z</time>
      </trkpt>
      <trkpt lat="45.53938" lon="6.85015">
        <ele>3072.3</ele>
        <time>2021-03-30T08:17:33Z</time>
      </trkpt>
      <trkpt lat="45.53937" lon="6.85016">
        <ele>3072.3</ele>
        <time>2021-03-30T08:17:34Z</time>
      </trkpt>
      <trkpt lat="45.53937" lon="6.85016">
        <ele>3072.3</ele>
        <time>2021-03-30T08:17:35Z</time>
      </trkpt>
      <trkpt lat="45.53936" lon="6.85017">
        <ele>3072.3</ele>
        <time>2021-03-30T08:17:36Z</time>
      </trkpt>
      <trkpt lat="45.53936" lon="6.85017">
        <ele>3073.1</ele>
        <time>2021-03-30T08:17:37Z</time>
      </trkpt>
      <trkpt lat="45.53936" lon="6.85018">
        <ele>3073.1</ele>
        <time>2021-03-30T08:17:38Z</time>
      </trkpt>
      <trkpt lat="45.53935" lon="6.85018">
        <ele>3073.1</ele>
        <time>2021-03-30T08:17:39Z</time>
      </trkpt>
      <trkpt lat="45.53935" lon="6.85018">
        <ele>3073.1</ele>
        <time>2021-03-30T08:17:40Z</time>
      </trkpt>
      <trkpt lat="45.53934" lon="6.85018">
        <ele>3073.1</ele>
        <time>2021-03-30T08:17:41Z</time>
      </trkpt>
      <trkpt lat="45.53934" lon="6.85019">
        <ele>3073.1</ele>
        <time>2021-03-30T08:17:42Z</time>
      </trkpt>
      <trkpt lat="45.53933" lon="6.85019">
        <ele>3073.2</ele>
        <time>2021-03-30T08:17:43Z</time>
      </trkpt>
      <trkpt lat="45.53933" lon="6.8502">
        <ele>3073.2</ele>
        <time>2021-03-30T08:17:44Z</time>
      </trkpt>
      <trkpt lat="45.53932" lon="6.8502">
        <ele>3073.2</ele>
        <time>2021-03-30T08:17:45Z</time>
      </trkpt>
      <trkpt lat="45.53932" lon="6.85021">
        <ele>3073.2</ele>
        <time>2021-03-30T08:17:46Z</time>
      </trkpt>
      <trkpt lat="45.53931" lon="6.85021">
        <ele>3073.2</ele>
        <time>2021-03-30T08:17:47Z</time>
      </trkpt>
      <trkpt lat="45.53931" lon="6.85021">
        <ele>3073.2</ele>
        <time>2021-03-30T08:17:48Z</time>
      </trkpt>
      <trkpt lat="45.5393" lon="6.85021">
        <ele>3073.2</ele>
        <time>2021-03-30T08:17:49Z</time>
      </trkpt>
      <trkpt lat="45.5393" lon="6.85022">
        <ele>3073.8</ele>
        <time>2021-03-30T08:17:50Z</time>
      </trkpt>
      <trkpt lat="45.53929" lon="6.85022">
        <ele>3073.8</ele>
        <time>2021-03-30T08:17:51Z</time>
      </trkpt>
      <trkpt lat="45.53928" lon="6.85022">
        <ele>3073.8</ele>
        <time>2021-03-30T08:17:52Z</time>
      </trkpt>
      <trkpt lat="45.53928" lon="6.85022">
        <ele>3073.8</ele>
        <time>2021-03-30T08:17:53Z</time>
      </trkpt>
      <trkpt lat="45.53927" lon="6.85023">
        <ele>3073.8</ele>
        <time>2021-03-30T08:17:54Z</time>
      </trkpt>
      <trkpt lat="45.53927" lon="6.85023">
        <ele>3074.5</ele>
        <time>2021-03-30T08:17:55Z</time>
      </trkpt>
      <trkpt lat="45.53926" lon="6.85023">
        <ele>3074.5</ele>
        <time>2021-03-30T08:17:56Z</time>
      </trkpt>
      <trkpt lat="45.53926" lon="6.85024">
        <ele>3074</ele>
        <time>2021-03-30T08:17:57Z</time>
      </trkpt>
      <trkpt lat="45.53925" lon="6.85024">
        <ele>3074</ele>
        <time>2021-03-30T08:17:58Z</time>
      </trkpt>
      <trkpt lat="45.53924" lon="6.85024">
        <ele>3074</ele>
        <time>2021-03-30T08:17:59Z</time>
      </trkpt>
      <trkpt lat="45.53924" lon="6.85024">
        <ele>3074.7</ele>
        <time>2021-03-30T08:18:00Z</time>
      </trkpt>
      <trkpt lat="45.53923" lon="6.85025">
        <ele>3074.7</ele>
        <time>2021-03-30T08:18:01Z</time>
      </trkpt>
      <trkpt lat="45.53923" lon="6.85025">
        <ele>3074.7</ele>
        <time>2021-03-30T08:18:02Z</time>
      </trkpt>
      <trkpt lat="45.53922" lon="6.85025">
        <ele>3074.7</ele>
        <time>2021-03-30T08:18:03Z</time>
      </trkpt>
      <trkpt lat="45.53922" lon="6.85026">
        <ele>3074.7</ele>
        <time>2021-03-30T08:18:04Z</time>
      </trkpt>
      <trkpt lat="45.53921" lon="6.85026">
        <ele>3074.7</ele>
        <time>2021-03-30T08:18:05Z</time>
      </trkpt>
      <trkpt lat="45.53921" lon="6.85026">
        <ele>3075.6</ele>
        <time>2021-03-30T08:18:06Z</time>
      </trkpt>
      <trkpt lat="45.5392" lon="6.85027">
        <ele>3075.6</ele>
        <time>2021-03-30T08:18:07Z</time>
      </trkpt>
      <trkpt lat="45.5392" lon="6.85027">
        <ele>3075.6</ele>
        <time>2021-03-30T08:18:08Z</time>
      </trkpt>
      <trkpt lat="45.53919" lon="6.85027">
        <ele>3075.6</ele>
        <time>2021-03-30T08:18:09Z</time>
      </trkpt>
      <trkpt lat="45.53918" lon="6.85027">
        <ele>3075.6</ele>
        <time>2021-03-30T08:18:10Z</time>
      </trkpt>
      <trkpt lat="45.53918" lon="6.85028">
        <ele>3076</ele>
        <time>2021-03-30T08:18:11Z</time>
      </trkpt>
      <trkpt lat="45.53917" lon="6.85028">
        <ele>3076</ele>
        <time>2021-03-30T08:18:12Z</time>
      </trkpt>
      <trkpt lat="45.53917" lon="6.85028">
        <ele>3076</ele>
        <time>2021-03-30T08:18:13Z</time>
      </trkpt>
      <trkpt lat="45.53916" lon="6.85029">
        <ele>3076</ele>
        <time>2021-03-30T08:18:14Z</time>
      </trkpt>
      <trkpt lat="45.53915" lon="6.85029">
        <ele>3076</ele>
        <time>2021-03-30T08:18:15Z</time>
      </trkpt>
      <trkpt lat="45.53915" lon="6.8503">
        <ele>3077</ele>
        <time>2021-03-30T08:18:16Z</time>
      </trkpt>
      <trkpt lat="45.53914" lon="6.8503">
        <ele>3077</ele>
        <time>2021-03-30T08:18:17Z</time>
      </trkpt>
      <trkpt lat="45.53914" lon="6.85031">
        <ele>3077</ele>
        <time>2021-03-30T08:18:18Z</time>
      </trkpt>
      <trkpt lat="45.53913" lon="6.85031">
        <ele>3077</ele>
        <time>2021-03-30T08:18:19Z</time>
      </trkpt>
      <trkpt lat="45.53913" lon="6.85031">
        <ele>3077</ele>
        <time>2021-03-30T08:18:20Z</time>
      </trkpt>
      <trkpt lat="45.53912" lon="6.85032">
        <ele>3077</ele>
        <time>2021-03-30T08:18:21Z</time>
      </trkpt>
      <trkpt lat="45.53912" lon="6.85032">
        <ele>3077.4</ele>
        <time>2021-03-30T08:18:22Z</time>
      </trkpt>
      <trkpt lat="45.53911" lon="6.85032">
        <ele>3077.4</ele>
        <time>2021-03-30T08:18:23Z</time>
      </trkpt>
      <trkpt lat="45.5391" lon="6.85033">
        <ele>3077.4</ele>
        <time>2021-03-30T08:18:24Z</time>
      </trkpt>
      <trkpt lat="45.53909" lon="6.85033">
        <ele>3077.4</ele>
        <time>2021-03-30T08:18:25Z</time>
      </trkpt>
      <trkpt lat="45.53909" lon="6.85034">
        <ele>3078.2</ele>
        <time>2021-03-30T08:18:26Z</time>
      </trkpt>
      <trkpt lat="45.53908" lon="6.85034">
        <ele>3078.2</ele>
        <time>2021-03-30T08:18:27Z</time>
      </trkpt>
      <trkpt lat="45.53908" lon="6.85035">
        <ele>3078.2</ele>
        <time>2021-03-30T08:18:28Z</time>
      </trkpt>
      <trkpt lat="45.53907" lon="6.85035">
        <ele>3078.2</ele>
        <time>2021-03-30T08:18:29Z</time>
      </trkpt>
      <trkpt lat="45.53907" lon="6.85035">
        <ele>3078.2</ele>
        <time>2021-03-30T08:18:30Z</time>
      </trkpt>
      <trkpt lat="45.53907" lon="6.85036">
        <ele>3078.2</ele>
        <time>2021-03-30T08:18:31Z</time>
      </trkpt>
      <trkpt lat="45.53906" lon="6.85036">
        <ele>3079.1</ele>
        <time>2021-03-30T08:18:32Z</time>
      </trkpt>
      <trkpt lat="45.53905" lon="6.85036">
        <ele>3078.6</ele>
        <time>2021-03-30T08:18:33Z</time>
      </trkpt>
      <trkpt lat="45.53905" lon="6.85037">
        <ele>3078.6</ele>
        <time>2021-03-30T08:18:34Z</time>
      </trkpt>
      <trkpt lat="45.53904" lon="6.85038">
        <ele>3078.6</ele>
        <time>2021-03-30T08:18:35Z</time>
      </trkpt>
      <trkpt lat="45.53904" lon="6.85038">
        <ele>3078.6</ele>
        <time>2021-03-30T08:18:36Z</time>
      </trkpt>
      <trkpt lat="45.53903" lon="6.85039">
        <ele>3078.6</ele>
        <time>2021-03-30T08:18:37Z</time>
      </trkpt>
      <trkpt lat="45.53903" lon="6.85039">
        <ele>3079.4</ele>
        <time>2021-03-30T08:18:38Z</time>
      </trkpt>
      <trkpt lat="45.53902" lon="6.85039">
        <ele>3079.4</ele>
        <time>2021-03-30T08:18:39Z</time>
      </trkpt>
      <trkpt lat="45.53902" lon="6.8504">
        <ele>3079.4</ele>
        <time>2021-03-30T08:18:40Z</time>
      </trkpt>
      <trkpt lat="45.53901" lon="6.8504">
        <ele>3079.4</ele>
        <time>2021-03-30T08:18:41Z</time>
      </trkpt>
      <trkpt lat="45.53901" lon="6.8504">
        <ele>3079.4</ele>
        <time>2021-03-30T08:18:42Z</time>
      </trkpt>
      <trkpt lat="45.539" lon="6.85041">
        <ele>3079</ele>
        <time>2021-03-30T08:18:43Z</time>
      </trkpt>
      <trkpt lat="45.53899" lon="6.85041">
        <ele>3079.9</ele>
        <time>2021-03-30T08:18:44Z</time>
      </trkpt>
      <trkpt lat="45.53899" lon="6.85042">
        <ele>3079.9</ele>
        <time>2021-03-30T08:18:45Z</time>
      </trkpt>
      <trkpt lat="45.53898" lon="6.85042">
        <ele>3079.9</ele>
        <time>2021-03-30T08:18:46Z</time>
      </trkpt>
      <trkpt lat="45.53897" lon="6.85043">
        <ele>3079.9</ele>
        <time>2021-03-30T08:18:47Z</time>
      </trkpt>
      <trkpt lat="45.53897" lon="6.85043">
        <ele>3080.9</ele>
        <time>2021-03-30T08:18:48Z</time>
      </trkpt>
      <trkpt lat="45.53896" lon="6.85044">
        <ele>3080.9</ele>
        <time>2021-03-30T08:18:49Z</time>
      </trkpt>
      <trkpt lat="45.53896" lon="6.85044">
        <ele>3080.9</ele>
        <time>2021-03-30T08:18:50Z</time>
      </trkpt>
      <trkpt lat="45.53895" lon="6.85045">
        <ele>3080.5</ele>
        <time>2021-03-30T08:18:51Z</time>
      </trkpt>
      <trkpt lat="45.53894" lon="6.85045">
        <ele>3080.5</ele>
        <time>2021-03-30T08:18:52Z</time>
      </trkpt>
      <trkpt lat="45.53894" lon="6.85046">
        <ele>3081.5</ele>
        <time>2021-03-30T08:18:53Z</time>
      </trkpt>
      <trkpt lat="45.53893" lon="6.85047">
        <ele>3081.5</ele>
        <time>2021-03-30T08:18:54Z</time>
      </trkpt>
      <trkpt lat="45.53893" lon="6.85047">
        <ele>3081.5</ele>
        <time>2021-03-30T08:18:55Z</time>
      </trkpt>
      <trkpt lat="45.53892" lon="6.85048">
        <ele>3081.5</ele>
        <time>2021-03-30T08:18:56Z</time>
      </trkpt>
      <trkpt lat="45.53892" lon="6.85048">
        <ele>3081.5</ele>
        <time>2021-03-30T08:18:57Z</time>
      </trkpt>
      <trkpt lat="45.53891" lon="6.85048">
        <ele>3082.6</ele>
        <time>2021-03-30T08:18:58Z</time>
      </trkpt>
      <trkpt lat="45.5389" lon="6.85049">
        <ele>3082.6</ele>
        <time>2021-03-30T08:18:59Z</time>
      </trkpt>
      <trkpt lat="45.5389" lon="6.8505">
        <ele>3082.2</ele>
        <time>2021-03-30T08:19:00Z</time>
      </trkpt>
      <trkpt lat="45.53889" lon="6.8505">
        <ele>3082.2</ele>
        <time>2021-03-30T08:19:01Z</time>
      </trkpt>
      <trkpt lat="45.53889" lon="6.8505">
        <ele>3082.2</ele>
        <time>2021-03-30T08:19:02Z</time>
      </trkpt>
      <trkpt lat="45.53889" lon="6.8505">
        <ele>3082.2</ele>
        <time>2021-03-30T08:19:03Z</time>
      </trkpt>
      <trkpt lat="45.53889" lon="6.85051">
        <ele>3082.2</ele>
        <time>2021-03-30T08:19:04Z</time>
      </trkpt>
      <trkpt lat="45.53889" lon="6.85051">
        <ele>3082.2</ele>
        <time>2021-03-30T08:19:05Z</time>
      </trkpt>
      <trkpt lat="45.53889" lon="6.85051">
        <ele>3082.2</ele>
        <time>2021-03-30T08:19:06Z</time>
      </trkpt>
      <trkpt lat="45.53889" lon="6.85051">
        <ele>3082.2</ele>
        <time>2021-03-30T08:19:07Z</time>
      </trkpt>
      <trkpt lat="45.53888" lon="6.85051">
        <ele>3082.2</ele>
        <time>2021-03-30T08:19:08Z</time>
      </trkpt>
      <trkpt lat="45.53888" lon="6.85052">
        <ele>3082.2</ele>
        <time>2021-03-30T08:19:09Z</time>
      </trkpt>
      <trkpt lat="45.53888" lon="6.85052">
        <ele>3082.2</ele>
        <time>2021-03-30T08:19:10Z</time>
      </trkpt>
      <trkpt lat="45.53888" lon="6.85052">
        <ele>3083.3</ele>
        <time>2021-03-30T08:19:11Z</time>
      </trkpt>
      <trkpt lat="45.53888" lon="6.85052">
        <ele>3083.3</ele>
        <time>2021-03-30T08:19:12Z</time>
      </trkpt>
      <trkpt lat="45.53888" lon="6.85053">
        <ele>3083.3</ele>
        <time>2021-03-30T08:19:35Z</time>
      </trkpt>
      <trkpt lat="45.53888" lon="6.85053">
        <ele>3083.3</ele>
        <time>2021-03-30T08:19:36Z</time>
      </trkpt>
      <trkpt lat="45.53887" lon="6.85053">
        <ele>3083.3</ele>
        <time>2021-03-30T08:19:37Z</time>
      </trkpt>
      <trkpt lat="45.53887" lon="6.85053">
        <ele>3083.3</ele>
        <time>2021-03-30T08:19:38Z</time>
      </trkpt>
      <trkpt lat="45.53887" lon="6.85053">
        <ele>3082.9</ele>
        <time>2021-03-30T08:19:39Z</time>
      </trkpt>
      <trkpt lat="45.53887" lon="6.85054">
        <ele>3082.9</ele>
        <time>2021-03-30T08:19:40Z</time>
      </trkpt>
      <trkpt lat="45.53887" lon="6.85054">
        <ele>3082.9</ele>
        <time>2021-03-30T08:19:41Z</time>
      </trkpt>
      <trkpt lat="45.53887" lon="6.85054">
        <ele>3082.9</ele>
        <time>2021-03-30T08:19:42Z</time>
      </trkpt>
      <trkpt lat="45.53886" lon="6.85055">
        <ele>3082.9</ele>
        <time>2021-03-30T08:19:43Z</time>
      </trkpt>
      <trkpt lat="45.53886" lon="6.85055">
        <ele>3082.9</ele>
        <time>2021-03-30T08:19:44Z</time>
      </trkpt>
      <trkpt lat="45.53886" lon="6.85055">
        <ele>3082.9</ele>
        <time>2021-03-30T08:19:45Z</time>
      </trkpt>
      <trkpt lat="45.53885" lon="6.85056">
        <ele>3082.9</ele>
        <time>2021-03-30T08:19:46Z</time>
      </trkpt>
      <trkpt lat="45.53885" lon="6.85056">
        <ele>3084</ele>
        <time>2021-03-30T08:19:47Z</time>
      </trkpt>
      <trkpt lat="45.53884" lon="6.85056">
        <ele>3084</ele>
        <time>2021-03-30T08:19:48Z</time>
      </trkpt>
      <trkpt lat="45.53884" lon="6.85057">
        <ele>3084</ele>
        <time>2021-03-30T08:19:49Z</time>
      </trkpt>
      <trkpt lat="45.53884" lon="6.85057">
        <ele>3084</ele>
        <time>2021-03-30T08:19:50Z</time>
      </trkpt>
      <trkpt lat="45.53883" lon="6.85057">
        <ele>3084</ele>
        <time>2021-03-30T08:19:51Z</time>
      </trkpt>
      <trkpt lat="45.53883" lon="6.85058">
        <ele>3084</ele>
        <time>2021-03-30T08:20:33Z</time>
      </trkpt>
      <trkpt lat="45.53883" lon="6.85058">
        <ele>3083.7</ele>
        <time>2021-03-30T08:20:34Z</time>
      </trkpt>
      <trkpt lat="45.53882" lon="6.85058">
        <ele>3083.7</ele>
        <time>2021-03-30T08:20:35Z</time>
      </trkpt>
      <trkpt lat="45.53882" lon="6.85059">
        <ele>3084.8</ele>
        <time>2021-03-30T08:20:36Z</time>
      </trkpt>
      <trkpt lat="45.53881" lon="6.85059">
        <ele>3084.8</ele>
        <time>2021-03-30T08:20:37Z</time>
      </trkpt>
      <trkpt lat="45.53881" lon="6.85059">
        <ele>3084.8</ele>
        <time>2021-03-30T08:20:38Z</time>
      </trkpt>
      <trkpt lat="45.5388" lon="6.8506">
        <ele>3084.8</ele>
        <time>2021-03-30T08:20:39Z</time>
      </trkpt>
      <trkpt lat="45.53879" lon="6.8506">
        <ele>3085.9</ele>
        <time>2021-03-30T08:20:40Z</time>
      </trkpt>
      <trkpt lat="45.53879" lon="6.8506">
        <ele>3085.9</ele>
        <time>2021-03-30T08:20:41Z</time>
      </trkpt>
      <trkpt lat="45.53878" lon="6.85061">
        <ele>3085.9</ele>
        <time>2021-03-30T08:20:42Z</time>
      </trkpt>
      <trkpt lat="45.53878" lon="6.85061">
        <ele>3085.9</ele>
        <time>2021-03-30T08:20:43Z</time>
      </trkpt>
      <trkpt lat="45.53877" lon="6.85061">
        <ele>3085.9</ele>
        <time>2021-03-30T08:20:44Z</time>
      </trkpt>
      <trkpt lat="45.53876" lon="6.85062">
        <ele>3085.9</ele>
        <time>2021-03-30T08:20:45Z</time>
      </trkpt>
      <trkpt lat="45.53876" lon="6.85062">
        <ele>3086.8</ele>
        <time>2021-03-30T08:20:46Z</time>
      </trkpt>
      <trkpt lat="45.53875" lon="6.85062">
        <ele>3087.1</ele>
        <time>2021-03-30T08:20:47Z</time>
      </trkpt>
      <trkpt lat="45.53875" lon="6.85062">
        <ele>3086.8</ele>
        <time>2021-03-30T08:20:48Z</time>
      </trkpt>
      <trkpt lat="45.53875" lon="6.85062">
        <ele>3086.8</ele>
        <time>2021-03-30T08:20:49Z</time>
      </trkpt>
      <trkpt lat="45.53874" lon="6.85063">
        <ele>3086.8</ele>
        <time>2021-03-30T08:20:50Z</time>
      </trkpt>
      <trkpt lat="45.53874" lon="6.85063">
        <ele>3086.8</ele>
        <time>2021-03-30T08:20:51Z</time>
      </trkpt>
      <trkpt lat="45.53874" lon="6.85063">
        <ele>3086.8</ele>
        <time>2021-03-30T08:20:52Z</time>
      </trkpt>
      <trkpt lat="45.53873" lon="6.85064">
        <ele>3086.8</ele>
        <time>2021-03-30T08:20:53Z</time>
      </trkpt>
      <trkpt lat="45.53872" lon="6.85065">
        <ele>3087.9</ele>
        <time>2021-03-30T08:20:54Z</time>
      </trkpt>
      <trkpt lat="45.53872" lon="6.85065">
        <ele>3087.9</ele>
        <time>2021-03-30T08:20:55Z</time>
      </trkpt>
      <trkpt lat="45.53871" lon="6.85065">
        <ele>3087.9</ele>
        <time>2021-03-30T08:20:56Z</time>
      </trkpt>
      <trkpt lat="45.5387" lon="6.85065">
        <ele>3087.9</ele>
        <time>2021-03-30T08:20:57Z</time>
      </trkpt>
      <trkpt lat="45.53869" lon="6.85065">
        <ele>3089.1</ele>
        <time>2021-03-30T08:20:58Z</time>
      </trkpt>
      <trkpt lat="45.53868" lon="6.85066">
        <ele>3089.1</ele>
        <time>2021-03-30T08:20:59Z</time>
      </trkpt>
      <trkpt lat="45.53867" lon="6.85066">
        <ele>3089.1</ele>
        <time>2021-03-30T08:21:00Z</time>
      </trkpt>
      <trkpt lat="45.53866" lon="6.85066">
        <ele>3090.4</ele>
        <time>2021-03-30T08:21:01Z</time>
      </trkpt>
      <trkpt lat="45.53866" lon="6.85066">
        <ele>3090.4</ele>
        <time>2021-03-30T08:21:02Z</time>
      </trkpt>
      <trkpt lat="45.53865" lon="6.85066">
        <ele>3090.4</ele>
        <time>2021-03-30T08:21:03Z</time>
      </trkpt>
      <trkpt lat="45.53864" lon="6.85066">
        <ele>3090.4</ele>
        <time>2021-03-30T08:21:04Z</time>
      </trkpt>
      <trkpt lat="45.53863" lon="6.85066">
        <ele>3091.7</ele>
        <time>2021-03-30T08:21:05Z</time>
      </trkpt>
      <trkpt lat="45.53863" lon="6.85066">
        <ele>3091.5</ele>
        <time>2021-03-30T08:21:06Z</time>
      </trkpt>
      <trkpt lat="45.53862" lon="6.85067">
        <ele>3091.5</ele>
        <time>2021-03-30T08:21:07Z</time>
      </trkpt>
      <trkpt lat="45.53862" lon="6.85067">
        <ele>3091.5</ele>
        <time>2021-03-30T08:21:08Z</time>
      </trkpt>
      <trkpt lat="45.53861" lon="6.85068">
        <ele>3092.9</ele>
        <time>2021-03-30T08:21:09Z</time>
      </trkpt>
      <trkpt lat="45.5386" lon="6.85068">
        <ele>3092.9</ele>
        <time>2021-03-30T08:21:10Z</time>
      </trkpt>
      <trkpt lat="45.53859" lon="6.85069">
        <ele>3092.9</ele>
        <time>2021-03-30T08:21:11Z</time>
      </trkpt>
      <trkpt lat="45.53858" lon="6.85069">
        <ele>3092.9</ele>
        <time>2021-03-30T08:21:12Z</time>
      </trkpt>
      <trkpt lat="45.53858" lon="6.85069">
        <ele>3094.3</ele>
        <time>2021-03-30T08:21:13Z</time>
      </trkpt>
      <trkpt lat="45.53857" lon="6.85069">
        <ele>3094.3</ele>
        <time>2021-03-30T08:21:14Z</time>
      </trkpt>
      <trkpt lat="45.53856" lon="6.8507">
        <ele>3094.3</ele>
        <time>2021-03-30T08:21:15Z</time>
      </trkpt>
      <trkpt lat="45.53856" lon="6.8507">
        <ele>3094.3</ele>
        <time>2021-03-30T08:21:16Z</time>
      </trkpt>
      <trkpt lat="45.53855" lon="6.85071">
        <ele>3094.3</ele>
        <time>2021-03-30T08:21:17Z</time>
      </trkpt>
      <trkpt lat="45.53855" lon="6.85071">
        <ele>3095.6</ele>
        <time>2021-03-30T08:21:18Z</time>
      </trkpt>
      <trkpt lat="45.53854" lon="6.85072">
        <ele>3095.6</ele>
        <time>2021-03-30T08:21:19Z</time>
      </trkpt>
      <trkpt lat="45.53854" lon="6.85072">
        <ele>3095.6</ele>
        <time>2021-03-30T08:21:20Z</time>
      </trkpt>
      <trkpt lat="45.53853" lon="6.85073">
        <ele>3095.6</ele>
        <time>2021-03-30T08:21:21Z</time>
      </trkpt>
      <trkpt lat="45.53852" lon="6.85074">
        <ele>3095.6</ele>
        <time>2021-03-30T08:21:22Z</time>
      </trkpt>
      <trkpt lat="45.53852" lon="6.85074">
        <ele>3096.9</ele>
        <time>2021-03-30T08:21:23Z</time>
      </trkpt>
      <trkpt lat="45.53851" lon="6.85075">
        <ele>3096.7</ele>
        <time>2021-03-30T08:21:24Z</time>
      </trkpt>
      <trkpt lat="45.5385" lon="6.85076">
        <ele>3096.7</ele>
        <time>2021-03-30T08:21:25Z</time>
      </trkpt>
      <trkpt lat="45.5385" lon="6.85077">
        <ele>3096.7</ele>
        <time>2021-03-30T08:21:26Z</time>
      </trkpt>
      <trkpt lat="45.53849" lon="6.85077">
        <ele>3096.7</ele>
        <time>2021-03-30T08:21:27Z</time>
      </trkpt>
      <trkpt lat="45.53849" lon="6.85078">
        <ele>3097.9</ele>
        <time>2021-03-30T08:21:28Z</time>
      </trkpt>
      <trkpt lat="45.53848" lon="6.85079">
        <ele>3097.9</ele>
        <time>2021-03-30T08:21:29Z</time>
      </trkpt>
      <trkpt lat="45.53847" lon="6.8508">
        <ele>3097.8</ele>
        <time>2021-03-30T08:21:30Z</time>
      </trkpt>
      <trkpt lat="45.53847" lon="6.8508">
        <ele>3097.8</ele>
        <time>2021-03-30T08:21:31Z</time>
      </trkpt>
      <trkpt lat="45.53846" lon="6.85081">
        <ele>3097.8</ele>
        <time>2021-03-30T08:21:32Z</time>
      </trkpt>
      <trkpt lat="45.53846" lon="6.85081">
        <ele>3098.8</ele>
        <time>2021-03-30T08:21:33Z</time>
      </trkpt>
      <trkpt lat="45.53846" lon="6.85082">
        <ele>3098.8</ele>
        <time>2021-03-30T08:21:34Z</time>
      </trkpt>
      <trkpt lat="45.53845" lon="6.85083">
        <ele>3098.8</ele>
        <time>2021-03-30T08:21:35Z</time>
      </trkpt>
      <trkpt lat="45.53845" lon="6.85083">
        <ele>3098.8</ele>
        <time>2021-03-30T08:21:36Z</time>
      </trkpt>
      <trkpt lat="45.53844" lon="6.85084">
        <ele>3098.7</ele>
        <time>2021-03-30T08:21:37Z</time>
      </trkpt>
      <trkpt lat="45.53844" lon="6.85084">
        <ele>3098.7</ele>
        <time>2021-03-30T08:21:38Z</time>
      </trkpt>
      <trkpt lat="45.53844" lon="6.85085">
        <ele>3098.7</ele>
        <time>2021-03-30T08:21:39Z</time>
      </trkpt>
      <trkpt lat="45.53844" lon="6.85086">
        <ele>3098.7</ele>
        <time>2021-03-30T08:21:40Z</time>
      </trkpt>
      <trkpt lat="45.53843" lon="6.85086">
        <ele>3098.7</ele>
        <time>2021-03-30T08:21:41Z</time>
      </trkpt>
      <trkpt lat="45.53843" lon="6.85087">
        <ele>3099.8</ele>
        <time>2021-03-30T08:21:42Z</time>
      </trkpt>
      <trkpt lat="45.53842" lon="6.85087">
        <ele>3099.8</ele>
        <time>2021-03-30T08:21:43Z</time>
      </trkpt>
      <trkpt lat="45.53841" lon="6.85088">
        <ele>3099.7</ele>
        <time>2021-03-30T08:21:44Z</time>
      </trkpt>
      <trkpt lat="45.53841" lon="6.85089">
        <ele>3099.7</ele>
        <time>2021-03-30T08:21:45Z</time>
      </trkpt>
      <trkpt lat="45.5384" lon="6.85089">
        <ele>3099.7</ele>
        <time>2021-03-30T08:21:46Z</time>
      </trkpt>
      <trkpt lat="45.5384" lon="6.8509">
        <ele>3100.9</ele>
        <time>2021-03-30T08:21:47Z</time>
      </trkpt>
      <trkpt lat="45.53839" lon="6.8509">
        <ele>3100.9</ele>
        <time>2021-03-30T08:21:48Z</time>
      </trkpt>
      <trkpt lat="45.53839" lon="6.85091">
        <ele>3100.9</ele>
        <time>2021-03-30T08:21:49Z</time>
      </trkpt>
      <trkpt lat="45.53839" lon="6.85091">
        <ele>3100.9</ele>
        <time>2021-03-30T08:21:50Z</time>
      </trkpt>
      <trkpt lat="45.53838" lon="6.85092">
        <ele>3100.9</ele>
        <time>2021-03-30T08:21:51Z</time>
      </trkpt>
      <trkpt lat="45.53838" lon="6.85092">
        <ele>3100.9</ele>
        <time>2021-03-30T08:21:52Z</time>
      </trkpt>
      <trkpt lat="45.53838" lon="6.85092">
        <ele>3100.8</ele>
        <time>2021-03-30T08:21:53Z</time>
      </trkpt>
      <trkpt lat="45.53837" lon="6.85093">
        <ele>3100.8</ele>
        <time>2021-03-30T08:21:54Z</time>
      </trkpt>
      <trkpt lat="45.53837" lon="6.85093">
        <ele>3102</ele>
        <time>2021-03-30T08:21:55Z</time>
      </trkpt>
      <trkpt lat="45.53836" lon="6.85093">
        <ele>3102</ele>
        <time>2021-03-30T08:21:56Z</time>
      </trkpt>
      <trkpt lat="45.53836" lon="6.85094">
        <ele>3102</ele>
        <time>2021-03-30T08:21:57Z</time>
      </trkpt>
      <trkpt lat="45.53836" lon="6.85094">
        <ele>3102</ele>
        <time>2021-03-30T08:21:58Z</time>
      </trkpt>
      <trkpt lat="45.53835" lon="6.85095">
        <ele>3102</ele>
        <time>2021-03-30T08:21:59Z</time>
      </trkpt>
      <trkpt lat="45.53835" lon="6.85095">
        <ele>3102</ele>
        <time>2021-03-30T08:22:04Z</time>
      </trkpt>
      <trkpt lat="45.53835" lon="6.85095">
        <ele>3102</ele>
        <time>2021-03-30T08:22:05Z</time>
      </trkpt>
      <trkpt lat="45.53834" lon="6.85096">
        <ele>3102</ele>
        <time>2021-03-30T08:22:06Z</time>
      </trkpt>
      <trkpt lat="45.53834" lon="6.85096">
        <ele>3103.3</ele>
        <time>2021-03-30T08:22:07Z</time>
      </trkpt>
      <trkpt lat="45.53833" lon="6.85097">
        <ele>3103.2</ele>
        <time>2021-03-30T08:22:08Z</time>
      </trkpt>
      <trkpt lat="45.53833" lon="6.85097">
        <ele>3103.2</ele>
        <time>2021-03-30T08:22:09Z</time>
      </trkpt>
      <trkpt lat="45.53832" lon="6.85098">
        <ele>3103.2</ele>
        <time>2021-03-30T08:22:10Z</time>
      </trkpt>
      <trkpt lat="45.53832" lon="6.85098">
        <ele>3103.2</ele>
        <time>2021-03-30T08:22:11Z</time>
      </trkpt>
      <trkpt lat="45.53831" lon="6.85099">
        <ele>3103.2</ele>
        <time>2021-03-30T08:22:12Z</time>
      </trkpt>
      <trkpt lat="45.53831" lon="6.85099">
        <ele>3103.2</ele>
        <time>2021-03-30T08:22:13Z</time>
      </trkpt>
      <trkpt lat="45.53831" lon="6.851">
        <ele>3104.4</ele>
        <time>2021-03-30T08:22:14Z</time>
      </trkpt>
      <trkpt lat="45.5383" lon="6.85101">
        <ele>3104.4</ele>
        <time>2021-03-30T08:22:15Z</time>
      </trkpt>
      <trkpt lat="45.5383" lon="6.85102">
        <ele>3104.4</ele>
        <time>2021-03-30T08:22:16Z</time>
      </trkpt>
      <trkpt lat="45.53829" lon="6.85102">
        <ele>3104.4</ele>
        <time>2021-03-30T08:22:17Z</time>
      </trkpt>
      <trkpt lat="45.53829" lon="6.85103">
        <ele>3104.4</ele>
        <time>2021-03-30T08:22:18Z</time>
      </trkpt>
      <trkpt lat="45.53828" lon="6.85103">
        <ele>3104.4</ele>
        <time>2021-03-30T08:22:19Z</time>
      </trkpt>
      <trkpt lat="45.53828" lon="6.85104">
        <ele>3105.5</ele>
        <time>2021-03-30T08:22:20Z</time>
      </trkpt>
      <trkpt lat="45.53827" lon="6.85105">
        <ele>3105.5</ele>
        <time>2021-03-30T08:22:21Z</time>
      </trkpt>
      <trkpt lat="45.53827" lon="6.85105">
        <ele>3105.5</ele>
        <time>2021-03-30T08:22:22Z</time>
      </trkpt>
      <trkpt lat="45.53826" lon="6.85106">
        <ele>3105.5</ele>
        <time>2021-03-30T08:22:23Z</time>
      </trkpt>
      <trkpt lat="45.53826" lon="6.85106">
        <ele>3105.5</ele>
        <time>2021-03-30T08:22:24Z</time>
      </trkpt>
      <trkpt lat="45.53825" lon="6.85107">
        <ele>3105.5</ele>
        <time>2021-03-30T08:22:25Z</time>
      </trkpt>
      <trkpt lat="45.53825" lon="6.85108">
        <ele>3106.5</ele>
        <time>2021-03-30T08:22:26Z</time>
      </trkpt>
      <trkpt lat="45.53824" lon="6.85108">
        <ele>3106.5</ele>
        <time>2021-03-30T08:22:27Z</time>
      </trkpt>
      <trkpt lat="45.53824" lon="6.85109">
        <ele>3106.5</ele>
        <time>2021-03-30T08:22:28Z</time>
      </trkpt>
      <trkpt lat="45.53823" lon="6.8511">
        <ele>3106.5</ele>
        <time>2021-03-30T08:22:29Z</time>
      </trkpt>
      <trkpt lat="45.53823" lon="6.85111">
        <ele>3106.5</ele>
        <time>2021-03-30T08:22:30Z</time>
      </trkpt>
      <trkpt lat="45.53822" lon="6.85111">
        <ele>3106.5</ele>
        <time>2021-03-30T08:22:31Z</time>
      </trkpt>
      <trkpt lat="45.53822" lon="6.85112">
        <ele>3107.5</ele>
        <time>2021-03-30T08:22:32Z</time>
      </trkpt>
      <trkpt lat="45.53821" lon="6.85112">
        <ele>3107.5</ele>
        <time>2021-03-30T08:22:33Z</time>
      </trkpt>
      <trkpt lat="45.53821" lon="6.85113">
        <ele>3107.5</ele>
        <time>2021-03-30T08:22:34Z</time>
      </trkpt>
      <trkpt lat="45.53821" lon="6.85114">
        <ele>3107.5</ele>
        <time>2021-03-30T08:22:35Z</time>
      </trkpt>
      <trkpt lat="45.5382" lon="6.85115">
        <ele>3107.5</ele>
        <time>2021-03-30T08:22:36Z</time>
      </trkpt>
      <trkpt lat="45.5382" lon="6.85115">
        <ele>3107.5</ele>
        <time>2021-03-30T08:22:37Z</time>
      </trkpt>
      <trkpt lat="45.53819" lon="6.85116">
        <ele>3107.5</ele>
        <time>2021-03-30T08:22:38Z</time>
      </trkpt>
      <trkpt lat="45.53819" lon="6.85116">
        <ele>3108.5</ele>
        <time>2021-03-30T08:22:39Z</time>
      </trkpt>
      <trkpt lat="45.53818" lon="6.85117">
        <ele>3108.5</ele>
        <time>2021-03-30T08:22:40Z</time>
      </trkpt>
      <trkpt lat="45.53818" lon="6.85117">
        <ele>3108.5</ele>
        <time>2021-03-30T08:22:41Z</time>
      </trkpt>
      <trkpt lat="45.53818" lon="6.85118">
        <ele>3108.5</ele>
        <time>2021-03-30T08:22:42Z</time>
      </trkpt>
      <trkpt lat="45.53818" lon="6.85118">
        <ele>3108.5</ele>
        <time>2021-03-30T08:22:43Z</time>
      </trkpt>
      <trkpt lat="45.53818" lon="6.85118">
        <ele>3108.5</ele>
        <time>2021-03-30T08:22:44Z</time>
      </trkpt>
      <trkpt lat="45.53817" lon="6.85119">
        <ele>3108.5</ele>
        <time>2021-03-30T08:22:45Z</time>
      </trkpt>
      <trkpt lat="45.53817" lon="6.85119">
        <ele>3108.5</ele>
        <time>2021-03-30T08:22:46Z</time>
      </trkpt>
      <trkpt lat="45.53817" lon="6.8512">
        <ele>3108.5</ele>
        <time>2021-03-30T08:22:47Z</time>
      </trkpt>
      <trkpt lat="45.53817" lon="6.85121">
        <ele>3108.5</ele>
        <time>2021-03-30T08:22:48Z</time>
      </trkpt>
      <trkpt lat="45.53817" lon="6.85121">
        <ele>3108.5</ele>
        <time>2021-03-30T08:22:49Z</time>
      </trkpt>
      <trkpt lat="45.53816" lon="6.85122">
        <ele>3108.5</ele>
        <time>2021-03-30T08:22:50Z</time>
      </trkpt>
      <trkpt lat="45.53816" lon="6.85122">
        <ele>3108.6</ele>
        <time>2021-03-30T08:22:51Z</time>
      </trkpt>
      <trkpt lat="45.53816" lon="6.85123">
        <ele>3109.6</ele>
        <time>2021-03-30T08:22:52Z</time>
      </trkpt>
      <trkpt lat="45.53815" lon="6.85124">
        <ele>3109.6</ele>
        <time>2021-03-30T08:22:53Z</time>
      </trkpt>
      <trkpt lat="45.53815" lon="6.85124">
        <ele>3109.6</ele>
        <time>2021-03-30T08:22:54Z</time>
      </trkpt>
      <trkpt lat="45.53814" lon="6.85125">
        <ele>3109.6</ele>
        <time>2021-03-30T08:22:55Z</time>
      </trkpt>
      <trkpt lat="45.53814" lon="6.85126">
        <ele>3109.6</ele>
        <time>2021-03-30T08:22:56Z</time>
      </trkpt>
      <trkpt lat="45.53813" lon="6.85126">
        <ele>3109.6</ele>
        <time>2021-03-30T08:22:57Z</time>
      </trkpt>
      <trkpt lat="45.53813" lon="6.85127">
        <ele>3110.8</ele>
        <time>2021-03-30T08:22:58Z</time>
      </trkpt>
      <trkpt lat="45.53813" lon="6.85128">
        <ele>3110.8</ele>
        <time>2021-03-30T08:22:59Z</time>
      </trkpt>
      <trkpt lat="45.53812" lon="6.85129">
        <ele>3110.8</ele>
        <time>2021-03-30T08:23:00Z</time>
      </trkpt>
      <trkpt lat="45.53812" lon="6.85129">
        <ele>3110.8</ele>
        <time>2021-03-30T08:23:01Z</time>
      </trkpt>
      <trkpt lat="45.53811" lon="6.8513">
        <ele>3110.8</ele>
        <time>2021-03-30T08:23:02Z</time>
      </trkpt>
      <trkpt lat="45.53811" lon="6.85131">
        <ele>3110.9</ele>
        <time>2021-03-30T08:23:03Z</time>
      </trkpt>
      <trkpt lat="45.5381" lon="6.85131">
        <ele>3110.9</ele>
        <time>2021-03-30T08:23:04Z</time>
      </trkpt>
      <trkpt lat="45.5381" lon="6.85132">
        <ele>3112.1</ele>
        <time>2021-03-30T08:23:05Z</time>
      </trkpt>
      <trkpt lat="45.53809" lon="6.85133">
        <ele>3112.1</ele>
        <time>2021-03-30T08:23:06Z</time>
      </trkpt>
      <trkpt lat="45.53809" lon="6.85133">
        <ele>3112.1</ele>
        <time>2021-03-30T08:23:07Z</time>
      </trkpt>
      <trkpt lat="45.53809" lon="6.85134">
        <ele>3112.1</ele>
        <time>2021-03-30T08:23:08Z</time>
      </trkpt>
      <trkpt lat="45.53808" lon="6.85135">
        <ele>3112.1</ele>
        <time>2021-03-30T08:23:09Z</time>
      </trkpt>
      <trkpt lat="45.53808" lon="6.85135">
        <ele>3112.2</ele>
        <time>2021-03-30T08:23:10Z</time>
      </trkpt>
      <trkpt lat="45.53808" lon="6.85136">
        <ele>3112.2</ele>
        <time>2021-03-30T08:23:11Z</time>
      </trkpt>
      <trkpt lat="45.53807" lon="6.85137">
        <ele>3112.2</ele>
        <time>2021-03-30T08:23:12Z</time>
      </trkpt>
      <trkpt lat="45.53807" lon="6.85138">
        <ele>3112.2</ele>
        <time>2021-03-30T08:23:13Z</time>
      </trkpt>
      <trkpt lat="45.53807" lon="6.85139">
        <ele>3113.5</ele>
        <time>2021-03-30T08:23:14Z</time>
      </trkpt>
      <trkpt lat="45.53807" lon="6.85139">
        <ele>3113.5</ele>
        <time>2021-03-30T08:23:15Z</time>
      </trkpt>
      <trkpt lat="45.53806" lon="6.8514">
        <ele>3113.6</ele>
        <time>2021-03-30T08:23:16Z</time>
      </trkpt>
      <trkpt lat="45.53805" lon="6.8514">
        <ele>3113.6</ele>
        <time>2021-03-30T08:23:17Z</time>
      </trkpt>
      <trkpt lat="45.53805" lon="6.85141">
        <ele>3113.6</ele>
        <time>2021-03-30T08:23:18Z</time>
      </trkpt>
      <trkpt lat="45.53805" lon="6.85141">
        <ele>3113.6</ele>
        <time>2021-03-30T08:23:19Z</time>
      </trkpt>
      <trkpt lat="45.53805" lon="6.85142">
        <ele>3113.6</ele>
        <time>2021-03-30T08:23:20Z</time>
      </trkpt>
      <trkpt lat="45.53804" lon="6.85143">
        <ele>3113.6</ele>
        <time>2021-03-30T08:23:21Z</time>
      </trkpt>
      <trkpt lat="45.53804" lon="6.85143">
        <ele>3114.8</ele>
        <time>2021-03-30T08:23:22Z</time>
      </trkpt>
      <trkpt lat="45.53803" lon="6.85144">
        <ele>3114.9</ele>
        <time>2021-03-30T08:23:23Z</time>
      </trkpt>
      <trkpt lat="45.53803" lon="6.85144">
        <ele>3114.9</ele>
        <time>2021-03-30T08:23:24Z</time>
      </trkpt>
      <trkpt lat="45.53803" lon="6.85145">
        <ele>3114.9</ele>
        <time>2021-03-30T08:23:25Z</time>
      </trkpt>
      <trkpt lat="45.53802" lon="6.85145">
        <ele>3114.9</ele>
        <time>2021-03-30T08:23:26Z</time>
      </trkpt>
      <trkpt lat="45.53802" lon="6.85145">
        <ele>3114.9</ele>
        <time>2021-03-30T08:23:27Z</time>
      </trkpt>
      <trkpt lat="45.53802" lon="6.85145">
        <ele>3114.9</ele>
        <time>2021-03-30T08:23:28Z</time>
      </trkpt>
      <trkpt lat="45.53801" lon="6.85146">
        <ele>3114.9</ele>
        <time>2021-03-30T08:23:29Z</time>
      </trkpt>
      <trkpt lat="45.53801" lon="6.85147">
        <ele>3114.9</ele>
        <time>2021-03-30T08:23:30Z</time>
      </trkpt>
      <trkpt lat="45.53801" lon="6.85147">
        <ele>3116.1</ele>
        <time>2021-03-30T08:23:31Z</time>
      </trkpt>
      <trkpt lat="45.53801" lon="6.85148">
        <ele>3116.2</ele>
        <time>2021-03-30T08:23:32Z</time>
      </trkpt>
      <trkpt lat="45.538" lon="6.85149">
        <ele>3116.2</ele>
        <time>2021-03-30T08:23:33Z</time>
      </trkpt>
      <trkpt lat="45.538" lon="6.85149">
        <ele>3116.2</ele>
        <time>2021-03-30T08:23:34Z</time>
      </trkpt>
      <trkpt lat="45.538" lon="6.8515">
        <ele>3116.2</ele>
        <time>2021-03-30T08:23:35Z</time>
      </trkpt>
      <trkpt lat="45.538" lon="6.85151">
        <ele>3116.2</ele>
        <time>2021-03-30T08:23:36Z</time>
      </trkpt>
      <trkpt lat="45.538" lon="6.85151">
        <ele>3116.2</ele>
        <time>2021-03-30T08:23:37Z</time>
      </trkpt>
      <trkpt lat="45.53799" lon="6.85152">
        <ele>3116.3</ele>
        <time>2021-03-30T08:23:38Z</time>
      </trkpt>
      <trkpt lat="45.53799" lon="6.85153">
        <ele>3116.3</ele>
        <time>2021-03-30T08:23:39Z</time>
      </trkpt>
      <trkpt lat="45.53799" lon="6.85154">
        <ele>3116.3</ele>
        <time>2021-03-30T08:23:40Z</time>
      </trkpt>
      <trkpt lat="45.53799" lon="6.85155">
        <ele>3116.3</ele>
        <time>2021-03-30T08:23:41Z</time>
      </trkpt>
      <trkpt lat="45.53799" lon="6.85155">
        <ele>3116.3</ele>
        <time>2021-03-30T08:23:42Z</time>
      </trkpt>
      <trkpt lat="45.53798" lon="6.85156">
        <ele>3116.3</ele>
        <time>2021-03-30T08:23:43Z</time>
      </trkpt>
      <trkpt lat="45.53798" lon="6.85156">
        <ele>3117.4</ele>
        <time>2021-03-30T08:23:44Z</time>
      </trkpt>
      <trkpt lat="45.53797" lon="6.85157">
        <ele>3117.5</ele>
        <time>2021-03-30T08:23:45Z</time>
      </trkpt>
      <trkpt lat="45.53797" lon="6.85157">
        <ele>3117.5</ele>
        <time>2021-03-30T08:23:46Z</time>
      </trkpt>
      <trkpt lat="45.53797" lon="6.85157">
        <ele>3117.5</ele>
        <time>2021-03-30T08:23:47Z</time>
      </trkpt>
      <trkpt lat="45.53797" lon="6.85158">
        <ele>3117.5</ele>
        <time>2021-03-30T08:23:48Z</time>
      </trkpt>
      <trkpt lat="45.53796" lon="6.85159">
        <ele>3117.5</ele>
        <time>2021-03-30T08:23:49Z</time>
      </trkpt>
      <trkpt lat="45.53796" lon="6.85159">
        <ele>3117.5</ele>
        <time>2021-03-30T08:23:50Z</time>
      </trkpt>
      <trkpt lat="45.53795" lon="6.8516">
        <ele>3117.5</ele>
        <time>2021-03-30T08:23:51Z</time>
      </trkpt>
      <trkpt lat="45.53795" lon="6.85161">
        <ele>3117.5</ele>
        <time>2021-03-30T08:23:52Z</time>
      </trkpt>
      <trkpt lat="45.53794" lon="6.85161">
        <ele>3118.8</ele>
        <time>2021-03-30T08:23:53Z</time>
      </trkpt>
      <trkpt lat="45.53794" lon="6.85162">
        <ele>3118.8</ele>
        <time>2021-03-30T08:23:54Z</time>
      </trkpt>
      <trkpt lat="45.53794" lon="6.85163">
        <ele>3118.8</ele>
        <time>2021-03-30T08:23:55Z</time>
      </trkpt>
      <trkpt lat="45.53793" lon="6.85164">
        <ele>3118.8</ele>
        <time>2021-03-30T08:23:56Z</time>
      </trkpt>
      <trkpt lat="45.53793" lon="6.85165">
        <ele>3118.8</ele>
        <time>2021-03-30T08:23:57Z</time>
      </trkpt>
      <trkpt lat="45.53793" lon="6.85166">
        <ele>3118.9</ele>
        <time>2021-03-30T08:23:58Z</time>
      </trkpt>
      <trkpt lat="45.53793" lon="6.85167">
        <ele>3118.9</ele>
        <time>2021-03-30T08:23:59Z</time>
      </trkpt>
      <trkpt lat="45.53793" lon="6.85168">
        <ele>3118.9</ele>
        <time>2021-03-30T08:24:00Z</time>
      </trkpt>
      <trkpt lat="45.53793" lon="6.85169">
        <ele>3118.9</ele>
        <time>2021-03-30T08:24:01Z</time>
      </trkpt>
      <trkpt lat="45.53793" lon="6.8517">
        <ele>3119</ele>
        <time>2021-03-30T08:24:02Z</time>
      </trkpt>
      <trkpt lat="45.53792" lon="6.8517">
        <ele>3119</ele>
        <time>2021-03-30T08:24:03Z</time>
      </trkpt>
      <trkpt lat="45.53792" lon="6.85171">
        <ele>3119</ele>
        <time>2021-03-30T08:24:04Z</time>
      </trkpt>
      <trkpt lat="45.53792" lon="6.85172">
        <ele>3119</ele>
        <time>2021-03-30T08:24:05Z</time>
      </trkpt>
      <trkpt lat="45.53792" lon="6.85173">
        <ele>3119</ele>
        <time>2021-03-30T08:24:06Z</time>
      </trkpt>
      <trkpt lat="45.53792" lon="6.85173">
        <ele>3120.2</ele>
        <time>2021-03-30T08:24:07Z</time>
      </trkpt>
      <trkpt lat="45.53792" lon="6.85174">
        <ele>3120.4</ele>
        <time>2021-03-30T08:24:08Z</time>
      </trkpt>
      <trkpt lat="45.53792" lon="6.85175">
        <ele>3120.4</ele>
        <time>2021-03-30T08:24:09Z</time>
      </trkpt>
      <trkpt lat="45.53792" lon="6.85176">
        <ele>3120.4</ele>
        <time>2021-03-30T08:24:10Z</time>
      </trkpt>
      <trkpt lat="45.53791" lon="6.85177">
        <ele>3120.4</ele>
        <time>2021-03-30T08:24:11Z</time>
      </trkpt>
      <trkpt lat="45.53791" lon="6.85178">
        <ele>3120.4</ele>
        <time>2021-03-30T08:24:12Z</time>
      </trkpt>
      <trkpt lat="45.53791" lon="6.85178">
        <ele>3120.6</ele>
        <time>2021-03-30T08:24:13Z</time>
      </trkpt>
      <trkpt lat="45.53791" lon="6.85179">
        <ele>3120.6</ele>
        <time>2021-03-30T08:24:14Z</time>
      </trkpt>
      <trkpt lat="45.53791" lon="6.8518">
        <ele>3120.6</ele>
        <time>2021-03-30T08:24:15Z</time>
      </trkpt>
      <trkpt lat="45.5379" lon="6.85181">
        <ele>3120.6</ele>
        <time>2021-03-30T08:24:16Z</time>
      </trkpt>
      <trkpt lat="45.5379" lon="6.85181">
        <ele>3120.6</ele>
        <time>2021-03-30T08:24:17Z</time>
      </trkpt>
      <trkpt lat="45.5379" lon="6.85182">
        <ele>3120.6</ele>
        <time>2021-03-30T08:24:18Z</time>
      </trkpt>
      <trkpt lat="45.5379" lon="6.85183">
        <ele>3120.8</ele>
        <time>2021-03-30T08:24:19Z</time>
      </trkpt>
      <trkpt lat="45.53789" lon="6.85183">
        <ele>3120.8</ele>
        <time>2021-03-30T08:24:20Z</time>
      </trkpt>
      <trkpt lat="45.53789" lon="6.85184">
        <ele>3122</ele>
        <time>2021-03-30T08:24:21Z</time>
      </trkpt>
      <trkpt lat="45.53788" lon="6.85184">
        <ele>3122</ele>
        <time>2021-03-30T08:24:22Z</time>
      </trkpt>
      <trkpt lat="45.53788" lon="6.85185">
        <ele>3122</ele>
        <time>2021-03-30T08:24:23Z</time>
      </trkpt>
      <trkpt lat="45.53787" lon="6.85186">
        <ele>3122</ele>
        <time>2021-03-30T08:24:24Z</time>
      </trkpt>
      <trkpt lat="45.53787" lon="6.85186">
        <ele>3122</ele>
        <time>2021-03-30T08:24:25Z</time>
      </trkpt>
      <trkpt lat="45.53787" lon="6.85187">
        <ele>3122.4</ele>
        <time>2021-03-30T08:24:26Z</time>
      </trkpt>
      <trkpt lat="45.53787" lon="6.85187">
        <ele>3122.4</ele>
        <time>2021-03-30T08:24:27Z</time>
      </trkpt>
      <trkpt lat="45.53787" lon="6.85188">
        <ele>3122.4</ele>
        <time>2021-03-30T08:24:28Z</time>
      </trkpt>
      <trkpt lat="45.53787" lon="6.85188">
        <ele>3122.4</ele>
        <time>2021-03-30T08:24:29Z</time>
      </trkpt>
      <trkpt lat="45.53787" lon="6.85189">
        <ele>3122.4</ele>
        <time>2021-03-30T08:24:30Z</time>
      </trkpt>
      <trkpt lat="45.53786" lon="6.85189">
        <ele>3122.4</ele>
        <time>2021-03-30T08:24:31Z</time>
      </trkpt>
      <trkpt lat="45.53786" lon="6.8519">
        <ele>3123.6</ele>
        <time>2021-03-30T08:24:32Z</time>
      </trkpt>
      <trkpt lat="45.53785" lon="6.8519">
        <ele>3123.6</ele>
        <time>2021-03-30T08:24:33Z</time>
      </trkpt>
      <trkpt lat="45.53785" lon="6.85191">
        <ele>3123.6</ele>
        <time>2021-03-30T08:24:34Z</time>
      </trkpt>
      <trkpt lat="45.53785" lon="6.85191">
        <ele>3124</ele>
        <time>2021-03-30T08:24:35Z</time>
      </trkpt>
      <trkpt lat="45.53785" lon="6.85192">
        <ele>3124</ele>
        <time>2021-03-30T08:24:36Z</time>
      </trkpt>
      <trkpt lat="45.53785" lon="6.85192">
        <ele>3124</ele>
        <time>2021-03-30T08:24:37Z</time>
      </trkpt>
      <trkpt lat="45.53784" lon="6.85193">
        <ele>3124</ele>
        <time>2021-03-30T08:24:38Z</time>
      </trkpt>
      <trkpt lat="45.53784" lon="6.85194">
        <ele>3124</ele>
        <time>2021-03-30T08:24:39Z</time>
      </trkpt>
      <trkpt lat="45.53784" lon="6.85194">
        <ele>3124</ele>
        <time>2021-03-30T08:24:40Z</time>
      </trkpt>
      <trkpt lat="45.53784" lon="6.85195">
        <ele>3124</ele>
        <time>2021-03-30T08:24:41Z</time>
      </trkpt>
      <trkpt lat="45.53784" lon="6.85195">
        <ele>3124.5</ele>
        <time>2021-03-30T08:24:42Z</time>
      </trkpt>
      <trkpt lat="45.53783" lon="6.85196">
        <ele>3124.5</ele>
        <time>2021-03-30T08:24:43Z</time>
      </trkpt>
      <trkpt lat="45.53783" lon="6.85196">
        <ele>3124.5</ele>
        <time>2021-03-30T08:24:44Z</time>
      </trkpt>
      <trkpt lat="45.53783" lon="6.85197">
        <ele>3124.5</ele>
        <time>2021-03-30T08:24:45Z</time>
      </trkpt>
      <trkpt lat="45.53783" lon="6.85197">
        <ele>3125.8</ele>
        <time>2021-03-30T08:24:46Z</time>
      </trkpt>
      <trkpt lat="45.53783" lon="6.85198">
        <ele>3125.8</ele>
        <time>2021-03-30T08:24:47Z</time>
      </trkpt>
      <trkpt lat="45.53782" lon="6.85198">
        <ele>3125.8</ele>
        <time>2021-03-30T08:24:48Z</time>
      </trkpt>
      <trkpt lat="45.53782" lon="6.85199">
        <ele>3125.8</ele>
        <time>2021-03-30T08:24:49Z</time>
      </trkpt>
      <trkpt lat="45.53782" lon="6.85199">
        <ele>3125.8</ele>
        <time>2021-03-30T08:24:50Z</time>
      </trkpt>
      <trkpt lat="45.53782" lon="6.852">
        <ele>3126.3</ele>
        <time>2021-03-30T08:24:51Z</time>
      </trkpt>
      <trkpt lat="45.53782" lon="6.852">
        <ele>3126.3</ele>
        <time>2021-03-30T08:24:52Z</time>
      </trkpt>
      <trkpt lat="45.53782" lon="6.85201">
        <ele>3126.3</ele>
        <time>2021-03-30T08:24:53Z</time>
      </trkpt>
      <trkpt lat="45.53782" lon="6.85201">
        <ele>3126.3</ele>
        <time>2021-03-30T08:24:54Z</time>
      </trkpt>
      <trkpt lat="45.53782" lon="6.85202">
        <ele>3126.3</ele>
        <time>2021-03-30T08:24:55Z</time>
      </trkpt>
      <trkpt lat="45.53782" lon="6.85202">
        <ele>3126.3</ele>
        <time>2021-03-30T08:24:56Z</time>
      </trkpt>
      <trkpt lat="45.53781" lon="6.85203">
        <ele>3126.3</ele>
        <time>2021-03-30T08:24:57Z</time>
      </trkpt>
      <trkpt lat="45.53781" lon="6.85204">
        <ele>3126.3</ele>
        <time>2021-03-30T08:24:58Z</time>
      </trkpt>
      <trkpt lat="45.53781" lon="6.85204">
        <ele>3126.9</ele>
        <time>2021-03-30T08:24:59Z</time>
      </trkpt>
      <trkpt lat="45.53781" lon="6.85204">
        <ele>3126.9</ele>
        <time>2021-03-30T08:25:00Z</time>
      </trkpt>
      <trkpt lat="45.5378" lon="6.85205">
        <ele>3126.9</ele>
        <time>2021-03-30T08:25:01Z</time>
      </trkpt>
      <trkpt lat="45.53779" lon="6.85204">
        <ele>3128.4</ele>
        <time>2021-03-30T08:25:02Z</time>
      </trkpt>
      <trkpt lat="45.53779" lon="6.85204">
        <ele>3128.4</ele>
        <time>2021-03-30T08:25:03Z</time>
      </trkpt>
      <trkpt lat="45.53778" lon="6.85204">
        <ele>3128.4</ele>
        <time>2021-03-30T08:25:04Z</time>
      </trkpt>
      <trkpt lat="45.53778" lon="6.85203">
        <ele>3127.8</ele>
        <time>2021-03-30T08:25:05Z</time>
      </trkpt>
      <trkpt lat="45.53777" lon="6.85203">
        <ele>3127.8</ele>
        <time>2021-03-30T08:25:06Z</time>
      </trkpt>
      <trkpt lat="45.53777" lon="6.85203">
        <ele>3129.4</ele>
        <time>2021-03-30T08:25:22Z</time>
      </trkpt>
      <trkpt lat="45.53776" lon="6.85203">
        <ele>3129.4</ele>
        <time>2021-03-30T08:25:23Z</time>
      </trkpt>
      <trkpt lat="45.53776" lon="6.85202">
        <ele>3129.4</ele>
        <time>2021-03-30T08:25:24Z</time>
      </trkpt>
      <trkpt lat="45.53775" lon="6.85202">
        <ele>3129.4</ele>
        <time>2021-03-30T08:25:25Z</time>
      </trkpt>
      <trkpt lat="45.53775" lon="6.85201">
        <ele>3129.4</ele>
        <time>2021-03-30T08:25:26Z</time>
      </trkpt>
      <trkpt lat="45.53775" lon="6.85201">
        <ele>3129.4</ele>
        <time>2021-03-30T08:25:27Z</time>
      </trkpt>
      <trkpt lat="45.53774" lon="6.852">
        <ele>3129.4</ele>
        <time>2021-03-30T08:25:28Z</time>
      </trkpt>
      <trkpt lat="45.53774" lon="6.85199">
        <ele>3128.9</ele>
        <time>2021-03-30T08:25:29Z</time>
      </trkpt>
      <trkpt lat="45.53774" lon="6.85198">
        <ele>3130.5</ele>
        <time>2021-03-30T08:25:30Z</time>
      </trkpt>
      <trkpt lat="45.53773" lon="6.85198">
        <ele>3130.5</ele>
        <time>2021-03-30T08:25:31Z</time>
      </trkpt>
      <trkpt lat="45.53772" lon="6.85197">
        <ele>3130.5</ele>
        <time>2021-03-30T08:25:32Z</time>
      </trkpt>
      <trkpt lat="45.53772" lon="6.85196">
        <ele>3130.5</ele>
        <time>2021-03-30T08:25:33Z</time>
      </trkpt>
      <trkpt lat="45.53772" lon="6.85196">
        <ele>3130.5</ele>
        <time>2021-03-30T08:25:34Z</time>
      </trkpt>
      <trkpt lat="45.53771" lon="6.85195">
        <ele>3130.5</ele>
        <time>2021-03-30T08:25:35Z</time>
      </trkpt>
      <trkpt lat="45.53771" lon="6.85195">
        <ele>3130.1</ele>
        <time>2021-03-30T08:25:36Z</time>
      </trkpt>
      <trkpt lat="45.53771" lon="6.85194">
        <ele>3131.7</ele>
        <time>2021-03-30T08:25:37Z</time>
      </trkpt>
      <trkpt lat="45.5377" lon="6.85193">
        <ele>3131.7</ele>
        <time>2021-03-30T08:25:38Z</time>
      </trkpt>
      <trkpt lat="45.5377" lon="6.85193">
        <ele>3131.7</ele>
        <time>2021-03-30T08:25:39Z</time>
      </trkpt>
      <trkpt lat="45.5377" lon="6.85192">
        <ele>3131.7</ele>
        <time>2021-03-30T08:25:40Z</time>
      </trkpt>
      <trkpt lat="45.5377" lon="6.85191">
        <ele>3131.7</ele>
        <time>2021-03-30T08:25:41Z</time>
      </trkpt>
      <trkpt lat="45.5377" lon="6.85191">
        <ele>3131.3</ele>
        <time>2021-03-30T08:25:42Z</time>
      </trkpt>
      <trkpt lat="45.5377" lon="6.8519">
        <ele>3131.3</ele>
        <time>2021-03-30T08:25:43Z</time>
      </trkpt>
      <trkpt lat="45.5377" lon="6.85189">
        <ele>3131.3</ele>
        <time>2021-03-30T08:25:44Z</time>
      </trkpt>
      <trkpt lat="45.5377" lon="6.85188">
        <ele>3131.3</ele>
        <time>2021-03-30T08:25:45Z</time>
      </trkpt>
      <trkpt lat="45.53769" lon="6.85187">
        <ele>3131.3</ele>
        <time>2021-03-30T08:25:46Z</time>
      </trkpt>
      <trkpt lat="45.53769" lon="6.85187">
        <ele>3131.3</ele>
        <time>2021-03-30T08:25:47Z</time>
      </trkpt>
      <trkpt lat="45.53769" lon="6.85186">
        <ele>3130.9</ele>
        <time>2021-03-30T08:25:48Z</time>
      </trkpt>
      <trkpt lat="45.53769" lon="6.85186">
        <ele>3130.9</ele>
        <time>2021-03-30T08:25:49Z</time>
      </trkpt>
      <trkpt lat="45.53769" lon="6.85185">
        <ele>3130.9</ele>
        <time>2021-03-30T08:25:50Z</time>
      </trkpt>
      <trkpt lat="45.53769" lon="6.85184">
        <ele>3130.9</ele>
        <time>2021-03-30T08:25:51Z</time>
      </trkpt>
      <trkpt lat="45.53769" lon="6.85184">
        <ele>3130.9</ele>
        <time>2021-03-30T08:25:52Z</time>
      </trkpt>
      <trkpt lat="45.53768" lon="6.85183">
        <ele>3130.9</ele>
        <time>2021-03-30T08:25:53Z</time>
      </trkpt>
      <trkpt lat="45.53768" lon="6.85183">
        <ele>3130.9</ele>
        <time>2021-03-30T08:25:54Z</time>
      </trkpt>
      <trkpt lat="45.53768" lon="6.85182">
        <ele>3130.9</ele>
        <time>2021-03-30T08:25:55Z</time>
      </trkpt>
      <trkpt lat="45.53768" lon="6.85182">
        <ele>3132.1</ele>
        <time>2021-03-30T08:25:56Z</time>
      </trkpt>
      <trkpt lat="45.53768" lon="6.85181">
        <ele>3132.1</ele>
        <time>2021-03-30T08:25:57Z</time>
      </trkpt>
      <trkpt lat="45.53767" lon="6.8518">
        <ele>3132.1</ele>
        <time>2021-03-30T08:25:58Z</time>
      </trkpt>
      <trkpt lat="45.53767" lon="6.8518">
        <ele>3132.1</ele>
        <time>2021-03-30T08:25:59Z</time>
      </trkpt>
      <trkpt lat="45.53767" lon="6.85179">
        <ele>3132.1</ele>
        <time>2021-03-30T08:26:00Z</time>
      </trkpt>
      <trkpt lat="45.53767" lon="6.85179">
        <ele>3132.1</ele>
        <time>2021-03-30T08:26:01Z</time>
      </trkpt>
      <trkpt lat="45.53767" lon="6.85178">
        <ele>3132.1</ele>
        <time>2021-03-30T08:26:02Z</time>
      </trkpt>
      <trkpt lat="45.53767" lon="6.85177">
        <ele>3131.8</ele>
        <time>2021-03-30T08:26:03Z</time>
      </trkpt>
      <trkpt lat="45.53766" lon="6.85177">
        <ele>3131.8</ele>
        <time>2021-03-30T08:26:04Z</time>
      </trkpt>
      <trkpt lat="45.53766" lon="6.85177">
        <ele>3131.8</ele>
        <time>2021-03-30T08:26:05Z</time>
      </trkpt>
      <trkpt lat="45.53766" lon="6.85176">
        <ele>3131.8</ele>
        <time>2021-03-30T08:26:06Z</time>
      </trkpt>
      <trkpt lat="45.53766" lon="6.85176">
        <ele>3131.8</ele>
        <time>2021-03-30T08:26:07Z</time>
      </trkpt>
      <trkpt lat="45.53766" lon="6.85175">
        <ele>3131.8</ele>
        <time>2021-03-30T08:26:08Z</time>
      </trkpt>
      <trkpt lat="45.53765" lon="6.85174">
        <ele>3131.8</ele>
        <time>2021-03-30T08:26:09Z</time>
      </trkpt>
      <trkpt lat="45.53765" lon="6.85174">
        <ele>3131.8</ele>
        <time>2021-03-30T08:26:10Z</time>
      </trkpt>
      <trkpt lat="45.53765" lon="6.85173">
        <ele>3131.5</ele>
        <time>2021-03-30T08:26:11Z</time>
      </trkpt>
      <trkpt lat="45.53765" lon="6.85173">
        <ele>3132.8</ele>
        <time>2021-03-30T08:26:12Z</time>
      </trkpt>
      <trkpt lat="45.53764" lon="6.85172">
        <ele>3132.8</ele>
        <time>2021-03-30T08:26:13Z</time>
      </trkpt>
      <trkpt lat="45.53764" lon="6.85172">
        <ele>3132.8</ele>
        <time>2021-03-30T08:26:14Z</time>
      </trkpt>
      <trkpt lat="45.53764" lon="6.85171">
        <ele>3132.8</ele>
        <time>2021-03-30T08:26:15Z</time>
      </trkpt>
      <trkpt lat="45.53764" lon="6.8517">
        <ele>3132.8</ele>
        <time>2021-03-30T08:26:16Z</time>
      </trkpt>
      <trkpt lat="45.53763" lon="6.85169">
        <ele>3132.8</ele>
        <time>2021-03-30T08:26:17Z</time>
      </trkpt>
      <trkpt lat="45.53763" lon="6.85169">
        <ele>3132.5</ele>
        <time>2021-03-30T08:26:18Z</time>
      </trkpt>
      <trkpt lat="45.53763" lon="6.85168">
        <ele>3132.5</ele>
        <time>2021-03-30T08:26:19Z</time>
      </trkpt>
      <trkpt lat="45.53763" lon="6.85168">
        <ele>3132.5</ele>
        <time>2021-03-30T08:26:20Z</time>
      </trkpt>
      <trkpt lat="45.53763" lon="6.85167">
        <ele>3132.5</ele>
        <time>2021-03-30T08:26:21Z</time>
      </trkpt>
      <trkpt lat="45.53762" lon="6.85167">
        <ele>3132.5</ele>
        <time>2021-03-30T08:26:22Z</time>
      </trkpt>
      <trkpt lat="45.53762" lon="6.85166">
        <ele>3132.5</ele>
        <time>2021-03-30T08:26:23Z</time>
      </trkpt>
      <trkpt lat="45.53762" lon="6.85165">
        <ele>3132.5</ele>
        <time>2021-03-30T08:26:24Z</time>
      </trkpt>
      <trkpt lat="45.53761" lon="6.85165">
        <ele>3133.6</ele>
        <time>2021-03-30T08:26:25Z</time>
      </trkpt>
      <trkpt lat="45.53761" lon="6.85164">
        <ele>3133.6</ele>
        <time>2021-03-30T08:26:26Z</time>
      </trkpt>
      <trkpt lat="45.53761" lon="6.85164">
        <ele>3133.6</ele>
        <time>2021-03-30T08:26:27Z</time>
      </trkpt>
      <trkpt lat="45.53761" lon="6.85163">
        <ele>3133.6</ele>
        <time>2021-03-30T08:26:28Z</time>
      </trkpt>
      <trkpt lat="45.5376" lon="6.85163">
        <ele>3133.6</ele>
        <time>2021-03-30T08:26:29Z</time>
      </trkpt>
      <trkpt lat="45.5376" lon="6.85162">
        <ele>3133.6</ele>
        <time>2021-03-30T08:26:30Z</time>
      </trkpt>
      <trkpt lat="45.53759" lon="6.85161">
        <ele>3133.6</ele>
        <time>2021-03-30T08:26:31Z</time>
      </trkpt>
      <trkpt lat="45.53759" lon="6.85161">
        <ele>3134.8</ele>
        <time>2021-03-30T08:26:32Z</time>
      </trkpt>
      <trkpt lat="45.53758" lon="6.8516">
        <ele>3134.6</ele>
        <time>2021-03-30T08:26:33Z</time>
      </trkpt>
      <trkpt lat="45.53758" lon="6.8516">
        <ele>3134.6</ele>
        <time>2021-03-30T08:26:34Z</time>
      </trkpt>
      <trkpt lat="45.53757" lon="6.85159">
        <ele>3134.6</ele>
        <time>2021-03-30T08:26:35Z</time>
      </trkpt>
      <trkpt lat="45.53757" lon="6.85159">
        <ele>3134.6</ele>
        <time>2021-03-30T08:26:36Z</time>
      </trkpt>
      <trkpt lat="45.53757" lon="6.85158">
        <ele>3134.6</ele>
        <time>2021-03-30T08:26:37Z</time>
      </trkpt>
      <trkpt lat="45.53756" lon="6.85158">
        <ele>3134.6</ele>
        <time>2021-03-30T08:26:38Z</time>
      </trkpt>
      <trkpt lat="45.53756" lon="6.85157">
        <ele>3134.6</ele>
        <time>2021-03-30T08:26:39Z</time>
      </trkpt>
      <trkpt lat="45.53756" lon="6.85157">
        <ele>3136</ele>
        <time>2021-03-30T08:26:40Z</time>
      </trkpt>
      <trkpt lat="45.53755" lon="6.85156">
        <ele>3135.8</ele>
        <time>2021-03-30T08:26:41Z</time>
      </trkpt>
      <trkpt lat="45.53755" lon="6.85156">
        <ele>3135.8</ele>
        <time>2021-03-30T08:26:42Z</time>
      </trkpt>
      <trkpt lat="45.53755" lon="6.85155">
        <ele>3135.8</ele>
        <time>2021-03-30T08:26:43Z</time>
      </trkpt>
      <trkpt lat="45.53754" lon="6.85155">
        <ele>3135.8</ele>
        <time>2021-03-30T08:26:44Z</time>
      </trkpt>
      <trkpt lat="45.53754" lon="6.85154">
        <ele>3135.8</ele>
        <time>2021-03-30T08:26:45Z</time>
      </trkpt>
      <trkpt lat="45.53754" lon="6.85153">
        <ele>3135.8</ele>
        <time>2021-03-30T08:26:46Z</time>
      </trkpt>
      <trkpt lat="45.53753" lon="6.85153">
        <ele>3135.8</ele>
        <time>2021-03-30T08:26:47Z</time>
      </trkpt>
      <trkpt lat="45.53753" lon="6.85152">
        <ele>3135.8</ele>
        <time>2021-03-30T08:26:48Z</time>
      </trkpt>
      <trkpt lat="45.53753" lon="6.85152">
        <ele>3137.3</ele>
        <time>2021-03-30T08:26:49Z</time>
      </trkpt>
      <trkpt lat="45.53752" lon="6.85151">
        <ele>3137.3</ele>
        <time>2021-03-30T08:26:50Z</time>
      </trkpt>
      <trkpt lat="45.53752" lon="6.8515">
        <ele>3137.3</ele>
        <time>2021-03-30T08:26:51Z</time>
      </trkpt>
      <trkpt lat="45.53752" lon="6.8515">
        <ele>3137.3</ele>
        <time>2021-03-30T08:26:52Z</time>
      </trkpt>
      <trkpt lat="45.53751" lon="6.85149">
        <ele>3137.3</ele>
        <time>2021-03-30T08:26:53Z</time>
      </trkpt>
      <trkpt lat="45.53751" lon="6.85148">
        <ele>3137.3</ele>
        <time>2021-03-30T08:26:54Z</time>
      </trkpt>
      <trkpt lat="45.53751" lon="6.85148">
        <ele>3137.2</ele>
        <time>2021-03-30T08:26:55Z</time>
      </trkpt>
      <trkpt lat="45.5375" lon="6.85147">
        <ele>3137.2</ele>
        <time>2021-03-30T08:26:56Z</time>
      </trkpt>
      <trkpt lat="45.5375" lon="6.85147">
        <ele>3137.2</ele>
        <time>2021-03-30T08:26:57Z</time>
      </trkpt>
      <trkpt lat="45.5375" lon="6.85146">
        <ele>3137.2</ele>
        <time>2021-03-30T08:26:58Z</time>
      </trkpt>
      <trkpt lat="45.5375" lon="6.85146">
        <ele>3137.2</ele>
        <time>2021-03-30T08:26:59Z</time>
      </trkpt>
      <trkpt lat="45.5375" lon="6.85145">
        <ele>3138.8</ele>
        <time>2021-03-30T08:27:00Z</time>
      </trkpt>
      <trkpt lat="45.53749" lon="6.85144">
        <ele>3138.8</ele>
        <time>2021-03-30T08:27:01Z</time>
      </trkpt>
      <trkpt lat="45.53749" lon="6.85144">
        <ele>3138.8</ele>
        <time>2021-03-30T08:27:02Z</time>
      </trkpt>
      <trkpt lat="45.53749" lon="6.85143">
        <ele>3138.7</ele>
        <time>2021-03-30T08:27:03Z</time>
      </trkpt>
      <trkpt lat="45.53749" lon="6.85142">
        <ele>3138.7</ele>
        <time>2021-03-30T08:27:04Z</time>
      </trkpt>
      <trkpt lat="45.53749" lon="6.85141">
        <ele>3138.7</ele>
        <time>2021-03-30T08:27:05Z</time>
      </trkpt>
      <trkpt lat="45.53749" lon="6.85141">
        <ele>3138.7</ele>
        <time>2021-03-30T08:27:06Z</time>
      </trkpt>
      <trkpt lat="45.53749" lon="6.8514">
        <ele>3138.7</ele>
        <time>2021-03-30T08:27:07Z</time>
      </trkpt>
      <trkpt lat="45.53749" lon="6.8514">
        <ele>3138.7</ele>
        <time>2021-03-30T08:27:08Z</time>
      </trkpt>
      <trkpt lat="45.53749" lon="6.8514">
        <ele>3138.7</ele>
        <time>2021-03-30T08:27:09Z</time>
      </trkpt>
      <trkpt lat="45.53749" lon="6.85139">
        <ele>3138.7</ele>
        <time>2021-03-30T08:27:10Z</time>
      </trkpt>
      <trkpt lat="45.53749" lon="6.85139">
        <ele>3138.7</ele>
        <time>2021-03-30T08:27:11Z</time>
      </trkpt>
      <trkpt lat="45.53749" lon="6.85138">
        <ele>3138.7</ele>
        <time>2021-03-30T08:27:12Z</time>
      </trkpt>
      <trkpt lat="45.53749" lon="6.85138">
        <ele>3138.7</ele>
        <time>2021-03-30T08:27:13Z</time>
      </trkpt>
      <trkpt lat="45.53748" lon="6.85137">
        <ele>3138.7</ele>
        <time>2021-03-30T08:27:14Z</time>
      </trkpt>
      <trkpt lat="45.53748" lon="6.85137">
        <ele>3138.7</ele>
        <time>2021-03-30T08:27:15Z</time>
      </trkpt>
      <trkpt lat="45.53748" lon="6.85136">
        <ele>3138.7</ele>
        <time>2021-03-30T08:27:16Z</time>
      </trkpt>
      <trkpt lat="45.53748" lon="6.85135">
        <ele>3138.7</ele>
        <time>2021-03-30T08:27:17Z</time>
      </trkpt>
      <trkpt lat="45.53748" lon="6.85135">
        <ele>3138.7</ele>
        <time>2021-03-30T08:27:18Z</time>
      </trkpt>
      <trkpt lat="45.53747" lon="6.85134">
        <ele>3138.7</ele>
        <time>2021-03-30T08:27:19Z</time>
      </trkpt>
      <trkpt lat="45.53747" lon="6.85133">
        <ele>3138.7</ele>
        <time>2021-03-30T08:27:20Z</time>
      </trkpt>
      <trkpt lat="45.53747" lon="6.85133">
        <ele>3140.3</ele>
        <time>2021-03-30T08:27:21Z</time>
      </trkpt>
      <trkpt lat="45.53747" lon="6.85132">
        <ele>3140.3</ele>
        <time>2021-03-30T08:27:22Z</time>
      </trkpt>
      <trkpt lat="45.53746" lon="6.85131">
        <ele>3140.3</ele>
        <time>2021-03-30T08:27:23Z</time>
      </trkpt>
      <trkpt lat="45.53746" lon="6.85131">
        <ele>3140.3</ele>
        <time>2021-03-30T08:27:24Z</time>
      </trkpt>
      <trkpt lat="45.53746" lon="6.8513">
        <ele>3140.3</ele>
        <time>2021-03-30T08:27:25Z</time>
      </trkpt>
      <trkpt lat="45.53746" lon="6.85129">
        <ele>3140.3</ele>
        <time>2021-03-30T08:27:26Z</time>
      </trkpt>
      <trkpt lat="45.53745" lon="6.85129">
        <ele>3140.3</ele>
        <time>2021-03-30T08:27:27Z</time>
      </trkpt>
      <trkpt lat="45.53745" lon="6.85128">
        <ele>3140.3</ele>
        <time>2021-03-30T08:27:28Z</time>
      </trkpt>
      <trkpt lat="45.53745" lon="6.85128">
        <ele>3140.3</ele>
        <time>2021-03-30T08:27:29Z</time>
      </trkpt>
      <trkpt lat="45.53745" lon="6.85127">
        <ele>3140.3</ele>
        <time>2021-03-30T08:27:30Z</time>
      </trkpt>
      <trkpt lat="45.53745" lon="6.85127">
        <ele>3140.3</ele>
        <time>2021-03-30T08:27:31Z</time>
      </trkpt>
      <trkpt lat="45.53744" lon="6.85126">
        <ele>3140.4</ele>
        <time>2021-03-30T08:27:32Z</time>
      </trkpt>
      <trkpt lat="45.53744" lon="6.85125">
        <ele>3140.4</ele>
        <time>2021-03-30T08:27:33Z</time>
      </trkpt>
      <trkpt lat="45.53744" lon="6.85125">
        <ele>3140.4</ele>
        <time>2021-03-30T08:27:34Z</time>
      </trkpt>
      <trkpt lat="45.53744" lon="6.85124">
        <ele>3140.4</ele>
        <time>2021-03-30T08:27:35Z</time>
      </trkpt>
      <trkpt lat="45.53744" lon="6.85123">
        <ele>3140.4</ele>
        <time>2021-03-30T08:27:36Z</time>
      </trkpt>
      <trkpt lat="45.53744" lon="6.85123">
        <ele>3140.4</ele>
        <time>2021-03-30T08:27:37Z</time>
      </trkpt>
      <trkpt lat="45.53744" lon="6.85123">
        <ele>3142</ele>
        <time>2021-03-30T08:27:38Z</time>
      </trkpt>
      <trkpt lat="45.53743" lon="6.85122">
        <ele>3142</ele>
        <time>2021-03-30T08:27:39Z</time>
      </trkpt>
      <trkpt lat="45.53743" lon="6.85122">
        <ele>3142.1</ele>
        <time>2021-03-30T08:27:40Z</time>
      </trkpt>
      <trkpt lat="45.53743" lon="6.85121">
        <ele>3142.1</ele>
        <time>2021-03-30T08:27:41Z</time>
      </trkpt>
      <trkpt lat="45.53743" lon="6.85121">
        <ele>3142.1</ele>
        <time>2021-03-30T08:27:42Z</time>
      </trkpt>
      <trkpt lat="45.53742" lon="6.8512">
        <ele>3142.1</ele>
        <time>2021-03-30T08:27:43Z</time>
      </trkpt>
      <trkpt lat="45.53742" lon="6.8512">
        <ele>3142.1</ele>
        <time>2021-03-30T08:27:44Z</time>
      </trkpt>
      <trkpt lat="45.53742" lon="6.85119">
        <ele>3142.1</ele>
        <time>2021-03-30T08:27:45Z</time>
      </trkpt>
      <trkpt lat="45.53742" lon="6.85118">
        <ele>3142.1</ele>
        <time>2021-03-30T08:27:46Z</time>
      </trkpt>
      <trkpt lat="45.53742" lon="6.85118">
        <ele>3142.1</ele>
        <time>2021-03-30T08:27:47Z</time>
      </trkpt>
      <trkpt lat="45.53742" lon="6.85117">
        <ele>3142.2</ele>
        <time>2021-03-30T08:27:48Z</time>
      </trkpt>
      <trkpt lat="45.53741" lon="6.85117">
        <ele>3142.2</ele>
        <time>2021-03-30T08:27:49Z</time>
      </trkpt>
      <trkpt lat="45.53741" lon="6.85116">
        <ele>3142.2</ele>
        <time>2021-03-30T08:27:50Z</time>
      </trkpt>
      <trkpt lat="45.53741" lon="6.85116">
        <ele>3142.2</ele>
        <time>2021-03-30T08:27:51Z</time>
      </trkpt>
      <trkpt lat="45.53741" lon="6.85116">
        <ele>3143.7</ele>
        <time>2021-03-30T08:27:52Z</time>
      </trkpt>
      <trkpt lat="45.5374" lon="6.85115">
        <ele>3143.7</ele>
        <time>2021-03-30T08:27:53Z</time>
      </trkpt>
      <trkpt lat="45.5374" lon="6.85115">
        <ele>3143.7</ele>
        <time>2021-03-30T08:27:54Z</time>
      </trkpt>
      <trkpt lat="45.5374" lon="6.85115">
        <ele>3143.7</ele>
        <time>2021-03-30T08:27:55Z</time>
      </trkpt>
      <trkpt lat="45.5374" lon="6.85114">
        <ele>3143.7</ele>
        <time>2021-03-30T08:27:56Z</time>
      </trkpt>
      <trkpt lat="45.5374" lon="6.85114">
        <ele>3143.7</ele>
        <time>2021-03-30T08:27:57Z</time>
      </trkpt>
      <trkpt lat="45.5374" lon="6.85113">
        <ele>3143.9</ele>
        <time>2021-03-30T08:27:58Z</time>
      </trkpt>
      <trkpt lat="45.53739" lon="6.85113">
        <ele>3143.9</ele>
        <time>2021-03-30T08:27:59Z</time>
      </trkpt>
      <trkpt lat="45.53739" lon="6.85112">
        <ele>3143.9</ele>
        <time>2021-03-30T08:28:00Z</time>
      </trkpt>
      <trkpt lat="45.53739" lon="6.85112">
        <ele>3143.9</ele>
        <time>2021-03-30T08:28:01Z</time>
      </trkpt>
      <trkpt lat="45.53739" lon="6.85111">
        <ele>3143.9</ele>
        <time>2021-03-30T08:28:02Z</time>
      </trkpt>
      <trkpt lat="45.53738" lon="6.85111">
        <ele>3143.9</ele>
        <time>2021-03-30T08:28:03Z</time>
      </trkpt>
      <trkpt lat="45.53738" lon="6.85111">
        <ele>3143.9</ele>
        <time>2021-03-30T08:28:04Z</time>
      </trkpt>
      <trkpt lat="45.53738" lon="6.8511">
        <ele>3145.4</ele>
        <time>2021-03-30T08:28:05Z</time>
      </trkpt>
      <trkpt lat="45.53738" lon="6.8511">
        <ele>3145.4</ele>
        <time>2021-03-30T08:28:06Z</time>
      </trkpt>
      <trkpt lat="45.53737" lon="6.85109">
        <ele>3145.6</ele>
        <time>2021-03-30T08:28:07Z</time>
      </trkpt>
      <trkpt lat="45.53737" lon="6.85109">
        <ele>3145.6</ele>
        <time>2021-03-30T08:28:08Z</time>
      </trkpt>
      <trkpt lat="45.53736" lon="6.85109">
        <ele>3145.6</ele>
        <time>2021-03-30T08:28:09Z</time>
      </trkpt>
      <trkpt lat="45.53736" lon="6.85108">
        <ele>3145.6</ele>
        <time>2021-03-30T08:28:10Z</time>
      </trkpt>
      <trkpt lat="45.53735" lon="6.85108">
        <ele>3145.6</ele>
        <time>2021-03-30T08:28:11Z</time>
      </trkpt>
      <trkpt lat="45.53735" lon="6.85108">
        <ele>3145.6</ele>
        <time>2021-03-30T08:28:12Z</time>
      </trkpt>
      <trkpt lat="45.53735" lon="6.85108">
        <ele>3145.6</ele>
        <time>2021-03-30T08:28:13Z</time>
      </trkpt>
      <trkpt lat="45.53735" lon="6.85107">
        <ele>3145.6</ele>
        <time>2021-03-30T08:28:14Z</time>
      </trkpt>
      <trkpt lat="45.53734" lon="6.85104">
        <ele>3147.4</ele>
        <time>2021-03-30T08:28:15Z</time>
      </trkpt>
      <trkpt lat="45.53733" lon="6.85102">
        <ele>3147.4</ele>
        <time>2021-03-30T08:28:16Z</time>
      </trkpt>
      <trkpt lat="45.53732" lon="6.85099">
        <ele>3149.4</ele>
        <time>2021-03-30T08:28:17Z</time>
      </trkpt>
      <trkpt lat="45.5373" lon="6.85097">
        <ele>3149.4</ele>
        <time>2021-03-30T08:28:18Z</time>
      </trkpt>
      <trkpt lat="45.53729" lon="6.85095">
        <ele>3149.7</ele>
        <time>2021-03-30T08:28:19Z</time>
      </trkpt>
      <trkpt lat="45.53728" lon="6.85093">
        <ele>3151.6</ele>
        <time>2021-03-30T08:29:32Z</time>
      </trkpt>
      <trkpt lat="45.53727" lon="6.85091">
        <ele>3152</ele>
        <time>2021-03-30T08:29:33Z</time>
      </trkpt>
      <trkpt lat="45.53726" lon="6.85089">
        <ele>3154</ele>
        <time>2021-03-30T08:29:34Z</time>
      </trkpt>
      <trkpt lat="45.53724" lon="6.85087">
        <ele>3154.4</ele>
        <time>2021-03-30T08:29:35Z</time>
      </trkpt>
      <trkpt lat="45.53724" lon="6.85086">
        <ele>3154.4</ele>
        <time>2021-03-30T08:29:36Z</time>
      </trkpt>
      <trkpt lat="45.53723" lon="6.85085">
        <ele>3154.4</ele>
        <time>2021-03-30T08:29:37Z</time>
      </trkpt>
      <trkpt lat="45.53723" lon="6.85085">
        <ele>3154.4</ele>
        <time>2021-03-30T08:29:38Z</time>
      </trkpt>
      <trkpt lat="45.53722" lon="6.85084">
        <ele>3156.4</ele>
        <time>2021-03-30T08:29:39Z</time>
      </trkpt>
      <trkpt lat="45.53722" lon="6.85084">
        <ele>3156.4</ele>
        <time>2021-03-30T08:29:40Z</time>
      </trkpt>
      <trkpt lat="45.53722" lon="6.85083">
        <ele>3156.8</ele>
        <time>2021-03-30T08:29:41Z</time>
      </trkpt>
      <trkpt lat="45.53722" lon="6.85082">
        <ele>3156.8</ele>
        <time>2021-03-30T08:29:42Z</time>
      </trkpt>
      <trkpt lat="45.53721" lon="6.85082">
        <ele>3156.8</ele>
        <time>2021-03-30T08:29:43Z</time>
      </trkpt>
      <trkpt lat="45.53721" lon="6.85081">
        <ele>3156.8</ele>
        <time>2021-03-30T08:29:44Z</time>
      </trkpt>
      <trkpt lat="45.53721" lon="6.8508">
        <ele>3156.8</ele>
        <time>2021-03-30T08:29:45Z</time>
      </trkpt>
      <trkpt lat="45.5372" lon="6.8508">
        <ele>3156.8</ele>
        <time>2021-03-30T08:29:46Z</time>
      </trkpt>
      <trkpt lat="45.5372" lon="6.85079">
        <ele>3157.2</ele>
        <time>2021-03-30T08:29:47Z</time>
      </trkpt>
      <trkpt lat="45.5372" lon="6.85078">
        <ele>3157.2</ele>
        <time>2021-03-30T08:29:48Z</time>
      </trkpt>
      <trkpt lat="45.5372" lon="6.85078">
        <ele>3157.2</ele>
        <time>2021-03-30T08:29:49Z</time>
      </trkpt>
      <trkpt lat="45.5372" lon="6.85077">
        <ele>3157.2</ele>
        <time>2021-03-30T08:29:50Z</time>
      </trkpt>
      <trkpt lat="45.5372" lon="6.85076">
        <ele>3157.2</ele>
        <time>2021-03-30T08:29:51Z</time>
      </trkpt>
      <trkpt lat="45.5372" lon="6.85076">
        <ele>3159.2</ele>
        <time>2021-03-30T08:29:52Z</time>
      </trkpt>
      <trkpt lat="45.53719" lon="6.85075">
        <ele>3159.2</ele>
        <time>2021-03-30T08:29:53Z</time>
      </trkpt>
      <trkpt lat="45.53719" lon="6.85075">
        <ele>3159.2</ele>
        <time>2021-03-30T08:29:54Z</time>
      </trkpt>
      <trkpt lat="45.53719" lon="6.85074">
        <ele>3159.6</ele>
        <time>2021-03-30T08:29:55Z</time>
      </trkpt>
      <trkpt lat="45.53719" lon="6.85074">
        <ele>3159.6</ele>
        <time>2021-03-30T08:29:56Z</time>
      </trkpt>
      <trkpt lat="45.53718" lon="6.85073">
        <ele>3159.6</ele>
        <time>2021-03-30T08:29:57Z</time>
      </trkpt>
      <trkpt lat="45.53718" lon="6.85073">
        <ele>3159.6</ele>
        <time>2021-03-30T08:29:58Z</time>
      </trkpt>
      <trkpt lat="45.53718" lon="6.85073">
        <ele>3159.6</ele>
        <time>2021-03-30T08:29:59Z</time>
      </trkpt>
      <trkpt lat="45.53717" lon="6.85072">
        <ele>3159.6</ele>
        <time>2021-03-30T08:30:00Z</time>
      </trkpt>
      <trkpt lat="45.53717" lon="6.85071">
        <ele>3159.6</ele>
        <time>2021-03-30T08:30:01Z</time>
      </trkpt>
      <trkpt lat="45.53717" lon="6.85071">
        <ele>3159.6</ele>
        <time>2021-03-30T08:30:02Z</time>
      </trkpt>
      <trkpt lat="45.53717" lon="6.8507">
        <ele>3159.9</ele>
        <time>2021-03-30T08:30:03Z</time>
      </trkpt>
      <trkpt lat="45.53717" lon="6.8507">
        <ele>3159.9</ele>
        <time>2021-03-30T08:30:04Z</time>
      </trkpt>
      <trkpt lat="45.53717" lon="6.85069">
        <ele>3161.8</ele>
        <time>2021-03-30T08:30:05Z</time>
      </trkpt>
      <trkpt lat="45.53716" lon="6.85069">
        <ele>3161.8</ele>
        <time>2021-03-30T08:30:06Z</time>
      </trkpt>
      <trkpt lat="45.53716" lon="6.85068">
        <ele>3161.8</ele>
        <time>2021-03-30T08:30:07Z</time>
      </trkpt>
      <trkpt lat="45.53716" lon="6.85068">
        <ele>3161.8</ele>
        <time>2021-03-30T08:30:08Z</time>
      </trkpt>
      <trkpt lat="45.53716" lon="6.85068">
        <ele>3161.8</ele>
        <time>2021-03-30T08:30:09Z</time>
      </trkpt>
      <trkpt lat="45.53716" lon="6.85067">
        <ele>3161.8</ele>
        <time>2021-03-30T08:30:10Z</time>
      </trkpt>
      <trkpt lat="45.53716" lon="6.85067">
        <ele>3161.8</ele>
        <time>2021-03-30T08:30:11Z</time>
      </trkpt>
      <trkpt lat="45.53716" lon="6.85066">
        <ele>3162.1</ele>
        <time>2021-03-30T08:30:12Z</time>
      </trkpt>
      <trkpt lat="45.53715" lon="6.85066">
        <ele>3162.1</ele>
        <time>2021-03-30T08:30:13Z</time>
      </trkpt>
      <trkpt lat="45.53715" lon="6.85066">
        <ele>3162.1</ele>
        <time>2021-03-30T08:30:14Z</time>
      </trkpt>
      <trkpt lat="45.53715" lon="6.85066">
        <ele>3162.1</ele>
        <time>2021-03-30T08:30:15Z</time>
      </trkpt>
      <trkpt lat="45.53715" lon="6.85066">
        <ele>3162.1</ele>
        <time>2021-03-30T08:30:16Z</time>
      </trkpt>
      <trkpt lat="45.53715" lon="6.85066">
        <ele>3162.1</ele>
        <time>2021-03-30T08:30:17Z</time>
      </trkpt>
      <trkpt lat="45.53715" lon="6.85066">
        <ele>3162.1</ele>
        <time>2021-03-30T08:30:18Z</time>
      </trkpt>
      <trkpt lat="45.53716" lon="6.85065">
        <ele>3162.1</ele>
        <time>2021-03-30T08:30:19Z</time>
      </trkpt>
      <trkpt lat="45.53715" lon="6.85065">
        <ele>3162.1</ele>
        <time>2021-03-30T08:30:20Z</time>
      </trkpt>
      <trkpt lat="45.53715" lon="6.85065">
        <ele>3162.1</ele>
        <time>2021-03-30T08:30:21Z</time>
      </trkpt>
      <trkpt lat="45.53714" lon="6.85066">
        <ele>3162.1</ele>
        <time>2021-03-30T08:30:49Z</time>
      </trkpt>
      <trkpt lat="45.53713" lon="6.85066">
        <ele>3164.8</ele>
        <time>2021-03-30T08:30:50Z</time>
      </trkpt>
      <trkpt lat="45.53712" lon="6.85067">
        <ele>3164.8</ele>
        <time>2021-03-30T08:30:51Z</time>
      </trkpt>
      <trkpt lat="45.53712" lon="6.85067">
        <ele>3164.8</ele>
        <time>2021-03-30T08:30:52Z</time>
      </trkpt>
      <trkpt lat="45.53711" lon="6.85068">
        <ele>3164.8</ele>
        <time>2021-03-30T08:30:53Z</time>
      </trkpt>
      <trkpt lat="45.53711" lon="6.85069">
        <ele>3164.8</ele>
        <time>2021-03-30T08:30:54Z</time>
      </trkpt>
      <trkpt lat="45.53711" lon="6.85069">
        <ele>3166.6</ele>
        <time>2021-03-30T08:30:55Z</time>
      </trkpt>
      <trkpt lat="45.5371" lon="6.8507">
        <ele>3166.6</ele>
        <time>2021-03-30T08:30:56Z</time>
      </trkpt>
      <trkpt lat="45.5371" lon="6.8507">
        <ele>3166.6</ele>
        <time>2021-03-30T08:30:57Z</time>
      </trkpt>
      <trkpt lat="45.5371" lon="6.85071">
        <ele>3166.4</ele>
        <time>2021-03-30T08:30:58Z</time>
      </trkpt>
      <trkpt lat="45.5371" lon="6.85073">
        <ele>3166.4</ele>
        <time>2021-03-30T08:30:59Z</time>
      </trkpt>
      <trkpt lat="45.5371" lon="6.85074">
        <ele>3166.4</ele>
        <time>2021-03-30T08:31:00Z</time>
      </trkpt>
      <trkpt lat="45.5371" lon="6.85075">
        <ele>3166.4</ele>
        <time>2021-03-30T08:31:01Z</time>
      </trkpt>
      <trkpt lat="45.5371" lon="6.85075">
        <ele>3166.1</ele>
        <time>2021-03-30T08:31:02Z</time>
      </trkpt>
      <trkpt lat="45.5371" lon="6.85076">
        <ele>3166.1</ele>
        <time>2021-03-30T08:31:03Z</time>
      </trkpt>
      <trkpt lat="45.5371" lon="6.85077">
        <ele>3166.1</ele>
        <time>2021-03-30T08:31:04Z</time>
      </trkpt>
      <trkpt lat="45.5371" lon="6.85078">
        <ele>3166.1</ele>
        <time>2021-03-30T08:31:05Z</time>
      </trkpt>
      <trkpt lat="45.53709" lon="6.85078">
        <ele>3166.1</ele>
        <time>2021-03-30T08:31:06Z</time>
      </trkpt>
      <trkpt lat="45.53709" lon="6.85078">
        <ele>3166.1</ele>
        <time>2021-03-30T08:31:07Z</time>
      </trkpt>
      <trkpt lat="45.53708" lon="6.85079">
        <ele>3166.1</ele>
        <time>2021-03-30T08:31:08Z</time>
      </trkpt>
      <trkpt lat="45.53708" lon="6.85079">
        <ele>3167.7</ele>
        <time>2021-03-30T08:31:09Z</time>
      </trkpt>
      <trkpt lat="45.53707" lon="6.8508">
        <ele>3167.7</ele>
        <time>2021-03-30T08:31:11Z</time>
      </trkpt>
      <trkpt lat="45.53706" lon="6.8508">
        <ele>3167.7</ele>
        <time>2021-03-30T08:31:12Z</time>
      </trkpt>
      <trkpt lat="45.53706" lon="6.85081">
        <ele>3167.7</ele>
        <time>2021-03-30T08:31:13Z</time>
      </trkpt>
      <trkpt lat="45.53705" lon="6.85081">
        <ele>3167.7</ele>
        <time>2021-03-30T08:31:14Z</time>
      </trkpt>
      <trkpt lat="45.53705" lon="6.85082">
        <ele>3167.7</ele>
        <time>2021-03-30T08:31:15Z</time>
      </trkpt>
      <trkpt lat="45.53705" lon="6.85082">
        <ele>3169.6</ele>
        <time>2021-03-30T08:31:16Z</time>
      </trkpt>
      <trkpt lat="45.53704" lon="6.85083">
        <ele>3169.6</ele>
        <time>2021-03-30T08:31:17Z</time>
      </trkpt>
      <trkpt lat="45.53704" lon="6.85084">
        <ele>3169.3</ele>
        <time>2021-03-30T08:31:18Z</time>
      </trkpt>
      <trkpt lat="45.53704" lon="6.85084">
        <ele>3169.3</ele>
        <time>2021-03-30T08:31:19Z</time>
      </trkpt>
      <trkpt lat="45.53703" lon="6.85085">
        <ele>3169.3</ele>
        <time>2021-03-30T08:31:20Z</time>
      </trkpt>
      <trkpt lat="45.53703" lon="6.85086">
        <ele>3169.3</ele>
        <time>2021-03-30T08:31:21Z</time>
      </trkpt>
      <trkpt lat="45.53703" lon="6.85086">
        <ele>3169.3</ele>
        <time>2021-03-30T08:31:22Z</time>
      </trkpt>
      <trkpt lat="45.53702" lon="6.85087">
        <ele>3169.3</ele>
        <time>2021-03-30T08:31:23Z</time>
      </trkpt>
      <trkpt lat="45.53702" lon="6.85088">
        <ele>3169</ele>
        <time>2021-03-30T08:31:24Z</time>
      </trkpt>
      <trkpt lat="45.53702" lon="6.85088">
        <ele>3169</ele>
        <time>2021-03-30T08:31:25Z</time>
      </trkpt>
      <trkpt lat="45.53702" lon="6.85089">
        <ele>3169</ele>
        <time>2021-03-30T08:31:26Z</time>
      </trkpt>
      <trkpt lat="45.53702" lon="6.85089">
        <ele>3169</ele>
        <time>2021-03-30T08:31:27Z</time>
      </trkpt>
      <trkpt lat="45.53702" lon="6.8509">
        <ele>3169</ele>
        <time>2021-03-30T08:31:28Z</time>
      </trkpt>
      <trkpt lat="45.53702" lon="6.85091">
        <ele>3171</ele>
        <time>2021-03-30T08:31:29Z</time>
      </trkpt>
      <trkpt lat="45.53702" lon="6.85091">
        <ele>3171</ele>
        <time>2021-03-30T08:31:30Z</time>
      </trkpt>
      <trkpt lat="45.53701" lon="6.85092">
        <ele>3171</ele>
        <time>2021-03-30T08:31:31Z</time>
      </trkpt>
      <trkpt lat="45.53701" lon="6.85092">
        <ele>3170.7</ele>
        <time>2021-03-30T08:31:32Z</time>
      </trkpt>
      <trkpt lat="45.53701" lon="6.85093">
        <ele>3170.7</ele>
        <time>2021-03-30T08:31:33Z</time>
      </trkpt>
      <trkpt lat="45.53701" lon="6.85093">
        <ele>3170.7</ele>
        <time>2021-03-30T08:31:34Z</time>
      </trkpt>
      <trkpt lat="45.53701" lon="6.85094">
        <ele>3170.7</ele>
        <time>2021-03-30T08:31:35Z</time>
      </trkpt>
      <trkpt lat="45.537" lon="6.85094">
        <ele>3170.7</ele>
        <time>2021-03-30T08:31:36Z</time>
      </trkpt>
      <trkpt lat="45.537" lon="6.85095">
        <ele>3170.7</ele>
        <time>2021-03-30T08:31:37Z</time>
      </trkpt>
      <trkpt lat="45.537" lon="6.85095">
        <ele>3170.7</ele>
        <time>2021-03-30T08:31:38Z</time>
      </trkpt>
      <trkpt lat="45.537" lon="6.85096">
        <ele>3170.7</ele>
        <time>2021-03-30T08:31:39Z</time>
      </trkpt>
      <trkpt lat="45.53699" lon="6.85096">
        <ele>3170.7</ele>
        <time>2021-03-30T08:31:40Z</time>
      </trkpt>
      <trkpt lat="45.53699" lon="6.85097">
        <ele>3170.4</ele>
        <time>2021-03-30T08:31:41Z</time>
      </trkpt>
      <trkpt lat="45.53699" lon="6.85097">
        <ele>3170.4</ele>
        <time>2021-03-30T08:31:42Z</time>
      </trkpt>
      <trkpt lat="45.53699" lon="6.85097">
        <ele>3170.4</ele>
        <time>2021-03-30T08:31:43Z</time>
      </trkpt>
      <trkpt lat="45.53699" lon="6.85097">
        <ele>3172.5</ele>
        <time>2021-03-30T08:31:44Z</time>
      </trkpt>
      <trkpt lat="45.53698" lon="6.85098">
        <ele>3172.5</ele>
        <time>2021-03-30T08:31:45Z</time>
      </trkpt>
      <trkpt lat="45.53698" lon="6.85098">
        <ele>3172.5</ele>
        <time>2021-03-30T08:31:46Z</time>
      </trkpt>
      <trkpt lat="45.53698" lon="6.85099">
        <ele>3172.5</ele>
        <time>2021-03-30T08:31:47Z</time>
      </trkpt>
      <trkpt lat="45.53698" lon="6.851">
        <ele>3172.5</ele>
        <time>2021-03-30T08:31:48Z</time>
      </trkpt>
      <trkpt lat="45.53697" lon="6.85101">
        <ele>3172.5</ele>
        <time>2021-03-30T08:31:49Z</time>
      </trkpt>
      <trkpt lat="45.53697" lon="6.85101">
        <ele>3172.3</ele>
        <time>2021-03-30T08:31:50Z</time>
      </trkpt>
      <trkpt lat="45.53697" lon="6.85102">
        <ele>3172.3</ele>
        <time>2021-03-30T08:31:51Z</time>
      </trkpt>
      <trkpt lat="45.53696" lon="6.85102">
        <ele>3172.3</ele>
        <time>2021-03-30T08:31:52Z</time>
      </trkpt>
      <trkpt lat="45.53696" lon="6.85103">
        <ele>3172.3</ele>
        <time>2021-03-30T08:31:53Z</time>
      </trkpt>
      <trkpt lat="45.53695" lon="6.85103">
        <ele>3174.4</ele>
        <time>2021-03-30T08:31:54Z</time>
      </trkpt>
      <trkpt lat="45.53695" lon="6.85104">
        <ele>3174.4</ele>
        <time>2021-03-30T08:31:55Z</time>
      </trkpt>
      <trkpt lat="45.53695" lon="6.85105">
        <ele>3174.4</ele>
        <time>2021-03-30T08:31:56Z</time>
      </trkpt>
      <trkpt lat="45.53694" lon="6.85105">
        <ele>3174.1</ele>
        <time>2021-03-30T08:31:57Z</time>
      </trkpt>
      <trkpt lat="45.53694" lon="6.85106">
        <ele>3174.1</ele>
        <time>2021-03-30T08:31:58Z</time>
      </trkpt>
      <trkpt lat="45.53694" lon="6.85106">
        <ele>3174.1</ele>
        <time>2021-03-30T08:31:59Z</time>
      </trkpt>
      <trkpt lat="45.53693" lon="6.85107">
        <ele>3174.1</ele>
        <time>2021-03-30T08:32:00Z</time>
      </trkpt>
      <trkpt lat="45.53693" lon="6.85107">
        <ele>3174.1</ele>
        <time>2021-03-30T08:32:01Z</time>
      </trkpt>
      <trkpt lat="45.53693" lon="6.85108">
        <ele>3174.1</ele>
        <time>2021-03-30T08:32:02Z</time>
      </trkpt>
      <trkpt lat="45.53693" lon="6.85109">
        <ele>3174.1</ele>
        <time>2021-03-30T08:32:03Z</time>
      </trkpt>
      <trkpt lat="45.53692" lon="6.8511">
        <ele>3176</ele>
        <time>2021-03-30T08:32:04Z</time>
      </trkpt>
      <trkpt lat="45.53691" lon="6.85112">
        <ele>3176</ele>
        <time>2021-03-30T08:32:05Z</time>
      </trkpt>
      <trkpt lat="45.53691" lon="6.85113">
        <ele>3176</ele>
        <time>2021-03-30T08:32:06Z</time>
      </trkpt>
      <trkpt lat="45.5369" lon="6.85114">
        <ele>3175.8</ele>
        <time>2021-03-30T08:32:17Z</time>
      </trkpt>
      <trkpt lat="45.53689" lon="6.85115">
        <ele>3177.9</ele>
        <time>2021-03-30T08:32:18Z</time>
      </trkpt>
      <trkpt lat="45.53689" lon="6.85116">
        <ele>3177.9</ele>
        <time>2021-03-30T08:32:19Z</time>
      </trkpt>
      <trkpt lat="45.53688" lon="6.85117">
        <ele>3177.9</ele>
        <time>2021-03-30T08:32:20Z</time>
      </trkpt>
      <trkpt lat="45.53687" lon="6.85118">
        <ele>3177.8</ele>
        <time>2021-03-30T08:32:21Z</time>
      </trkpt>
      <trkpt lat="45.53686" lon="6.85119">
        <ele>3179.8</ele>
        <time>2021-03-30T08:32:22Z</time>
      </trkpt>
      <trkpt lat="45.53686" lon="6.85121">
        <ele>3179.8</ele>
        <time>2021-03-30T08:32:23Z</time>
      </trkpt>
      <trkpt lat="45.53686" lon="6.85122">
        <ele>3179.7</ele>
        <time>2021-03-30T08:32:24Z</time>
      </trkpt>
      <trkpt lat="45.53686" lon="6.85124">
        <ele>3179.7</ele>
        <time>2021-03-30T08:32:25Z</time>
      </trkpt>
      <trkpt lat="45.53685" lon="6.85125">
        <ele>3179.7</ele>
        <time>2021-03-30T08:32:26Z</time>
      </trkpt>
      <trkpt lat="45.53685" lon="6.85126">
        <ele>3179.6</ele>
        <time>2021-03-30T08:32:27Z</time>
      </trkpt>
      <trkpt lat="45.53685" lon="6.85128">
        <ele>3179.6</ele>
        <time>2021-03-30T08:32:28Z</time>
      </trkpt>
      <trkpt lat="45.53685" lon="6.85129">
        <ele>3179.6</ele>
        <time>2021-03-30T08:32:29Z</time>
      </trkpt>
      <trkpt lat="45.53685" lon="6.85131">
        <ele>3179.5</ele>
        <time>2021-03-30T08:32:30Z</time>
      </trkpt>
      <trkpt lat="45.53684" lon="6.85132">
        <ele>3179.5</ele>
        <time>2021-03-30T08:32:31Z</time>
      </trkpt>
      <trkpt lat="45.53684" lon="6.85133">
        <ele>3179.5</ele>
        <time>2021-03-30T08:32:57Z</time>
      </trkpt>
      <trkpt lat="45.53684" lon="6.85135">
        <ele>3179.5</ele>
        <time>2021-03-30T08:32:58Z</time>
      </trkpt>
      <trkpt lat="45.53684" lon="6.85136">
        <ele>3179.5</ele>
        <time>2021-03-30T08:32:59Z</time>
      </trkpt>
      <trkpt lat="45.53684" lon="6.85138">
        <ele>3179.5</ele>
        <time>2021-03-30T08:33:00Z</time>
      </trkpt>
      <trkpt lat="45.53684" lon="6.85139">
        <ele>3181.6</ele>
        <time>2021-03-30T08:33:01Z</time>
      </trkpt>
      <trkpt lat="45.53683" lon="6.8514">
        <ele>3181.6</ele>
        <time>2021-03-30T08:33:02Z</time>
      </trkpt>
      <trkpt lat="45.53683" lon="6.85142">
        <ele>3181.6</ele>
        <time>2021-03-30T08:33:03Z</time>
      </trkpt>
      <trkpt lat="45.53683" lon="6.85143">
        <ele>3181.6</ele>
        <time>2021-03-30T08:33:04Z</time>
      </trkpt>
      <trkpt lat="45.53683" lon="6.85144">
        <ele>3181.7</ele>
        <time>2021-03-30T08:33:05Z</time>
      </trkpt>
      <trkpt lat="45.53682" lon="6.85144">
        <ele>3181.7</ele>
        <time>2021-03-30T08:33:06Z</time>
      </trkpt>
      <trkpt lat="45.53682" lon="6.85145">
        <ele>3181.7</ele>
        <time>2021-03-30T08:33:07Z</time>
      </trkpt>
      <trkpt lat="45.53682" lon="6.85145">
        <ele>3181.7</ele>
        <time>2021-03-30T08:33:08Z</time>
      </trkpt>
      <trkpt lat="45.53682" lon="6.85146">
        <ele>3181.7</ele>
        <time>2021-03-30T08:33:09Z</time>
      </trkpt>
      <trkpt lat="45.53682" lon="6.85146">
        <ele>3181.7</ele>
        <time>2021-03-30T08:33:10Z</time>
      </trkpt>
      <trkpt lat="45.53682" lon="6.85146">
        <ele>3181.7</ele>
        <time>2021-03-30T08:33:11Z</time>
      </trkpt>
      <trkpt lat="45.53682" lon="6.85147">
        <ele>3181.7</ele>
        <time>2021-03-30T08:33:12Z</time>
      </trkpt>
      <trkpt lat="45.53682" lon="6.85148">
        <ele>3181.7</ele>
        <time>2021-03-30T08:33:13Z</time>
      </trkpt>
      <trkpt lat="45.53682" lon="6.85148">
        <ele>3181.9</ele>
        <time>2021-03-30T08:33:14Z</time>
      </trkpt>
      <trkpt lat="45.53682" lon="6.85149">
        <ele>3181.9</ele>
        <time>2021-03-30T08:33:15Z</time>
      </trkpt>
      <trkpt lat="45.53682" lon="6.85149">
        <ele>3181.9</ele>
        <time>2021-03-30T08:33:16Z</time>
      </trkpt>
      <trkpt lat="45.53682" lon="6.8515">
        <ele>3181.9</ele>
        <time>2021-03-30T08:33:17Z</time>
      </trkpt>
      <trkpt lat="45.53682" lon="6.8515">
        <ele>3181.9</ele>
        <time>2021-03-30T08:33:18Z</time>
      </trkpt>
      <trkpt lat="45.53682" lon="6.85151">
        <ele>3181.9</ele>
        <time>2021-03-30T08:33:19Z</time>
      </trkpt>
      <trkpt lat="45.53682" lon="6.85151">
        <ele>3181.9</ele>
        <time>2021-03-30T08:33:20Z</time>
      </trkpt>
      <trkpt lat="45.53682" lon="6.85152">
        <ele>3182.1</ele>
        <time>2021-03-30T08:33:21Z</time>
      </trkpt>
      <trkpt lat="45.53682" lon="6.85153">
        <ele>3182.1</ele>
        <time>2021-03-30T08:33:22Z</time>
      </trkpt>
      <trkpt lat="45.53681" lon="6.85153">
        <ele>3182.1</ele>
        <time>2021-03-30T08:33:23Z</time>
      </trkpt>
      <trkpt lat="45.53681" lon="6.85154">
        <ele>3182.1</ele>
        <time>2021-03-30T08:33:24Z</time>
      </trkpt>
      <trkpt lat="45.53681" lon="6.85154">
        <ele>3182.1</ele>
        <time>2021-03-30T08:33:25Z</time>
      </trkpt>
      <trkpt lat="45.53681" lon="6.85155">
        <ele>3182.1</ele>
        <time>2021-03-30T08:33:26Z</time>
      </trkpt>
      <trkpt lat="45.53681" lon="6.85157">
        <ele>3182.3</ele>
        <time>2021-03-30T08:33:27Z</time>
      </trkpt>
      <trkpt lat="45.53681" lon="6.85158">
        <ele>3182.3</ele>
        <time>2021-03-30T08:33:28Z</time>
      </trkpt>
      <trkpt lat="45.53681" lon="6.85158">
        <ele>3182.3</ele>
        <time>2021-03-30T08:33:29Z</time>
      </trkpt>
      <trkpt lat="45.53681" lon="6.85159">
        <ele>3184.4</ele>
        <time>2021-03-30T08:33:30Z</time>
      </trkpt>
      <trkpt lat="45.5368" lon="6.8516">
        <ele>3184.4</ele>
        <time>2021-03-30T08:33:33Z</time>
      </trkpt>
      <trkpt lat="45.5368" lon="6.85161">
        <ele>3184.8</ele>
        <time>2021-03-30T08:33:34Z</time>
      </trkpt>
      <trkpt lat="45.5368" lon="6.85162">
        <ele>3184.8</ele>
        <time>2021-03-30T08:33:35Z</time>
      </trkpt>
      <trkpt lat="45.5368" lon="6.85163">
        <ele>3184.8</ele>
        <time>2021-03-30T08:33:36Z</time>
      </trkpt>
      <trkpt lat="45.53679" lon="6.85164">
        <ele>3184.8</ele>
        <time>2021-03-30T08:33:37Z</time>
      </trkpt>
      <trkpt lat="45.53679" lon="6.85164">
        <ele>3184.8</ele>
        <time>2021-03-30T08:33:38Z</time>
      </trkpt>
      <trkpt lat="45.53679" lon="6.85165">
        <ele>3184.8</ele>
        <time>2021-03-30T08:33:39Z</time>
      </trkpt>
      <trkpt lat="45.53679" lon="6.85165">
        <ele>3185.1</ele>
        <time>2021-03-30T08:33:40Z</time>
      </trkpt>
      <trkpt lat="45.53679" lon="6.85166">
        <ele>3185.1</ele>
        <time>2021-03-30T08:33:41Z</time>
      </trkpt>
      <trkpt lat="45.53679" lon="6.85166">
        <ele>3185.1</ele>
        <time>2021-03-30T08:33:42Z</time>
      </trkpt>
      <trkpt lat="45.53679" lon="6.85167">
        <ele>3185.1</ele>
        <time>2021-03-30T08:33:43Z</time>
      </trkpt>
      <trkpt lat="45.53679" lon="6.85167">
        <ele>3185.1</ele>
        <time>2021-03-30T08:33:44Z</time>
      </trkpt>
      <trkpt lat="45.53678" lon="6.85169">
        <ele>3185.1</ele>
        <time>2021-03-30T08:33:45Z</time>
      </trkpt>
      <trkpt lat="45.53678" lon="6.85169">
        <ele>3185.5</ele>
        <time>2021-03-30T08:33:46Z</time>
      </trkpt>
      <trkpt lat="45.53678" lon="6.8517">
        <ele>3185.5</ele>
        <time>2021-03-30T08:33:47Z</time>
      </trkpt>
      <trkpt lat="45.53678" lon="6.85171">
        <ele>3185.5</ele>
        <time>2021-03-30T08:33:48Z</time>
      </trkpt>
      <trkpt lat="45.53678" lon="6.85172">
        <ele>3185.5</ele>
        <time>2021-03-30T08:33:49Z</time>
      </trkpt>
      <trkpt lat="45.53678" lon="6.85172">
        <ele>3185.5</ele>
        <time>2021-03-30T08:33:52Z</time>
      </trkpt>
      <trkpt lat="45.53678" lon="6.85173">
        <ele>3185.5</ele>
        <time>2021-03-30T08:33:53Z</time>
      </trkpt>
      <trkpt lat="45.53678" lon="6.85174">
        <ele>3185.9</ele>
        <time>2021-03-30T08:33:54Z</time>
      </trkpt>
      <trkpt lat="45.53678" lon="6.85175">
        <ele>3185.9</ele>
        <time>2021-03-30T08:33:55Z</time>
      </trkpt>
      <trkpt lat="45.53678" lon="6.85175">
        <ele>3185.9</ele>
        <time>2021-03-30T08:33:56Z</time>
      </trkpt>
      <trkpt lat="45.53678" lon="6.85176">
        <ele>3185.9</ele>
        <time>2021-03-30T08:33:57Z</time>
      </trkpt>
      <trkpt lat="45.53678" lon="6.85177">
        <ele>3185.9</ele>
        <time>2021-03-30T08:33:58Z</time>
      </trkpt>
      <trkpt lat="45.53678" lon="6.85177">
        <ele>3185.9</ele>
        <time>2021-03-30T08:33:59Z</time>
      </trkpt>
      <trkpt lat="45.53678" lon="6.85177">
        <ele>3185.9</ele>
        <time>2021-03-30T08:34:00Z</time>
      </trkpt>
      <trkpt lat="45.53678" lon="6.85178">
        <ele>3186.3</ele>
        <time>2021-03-30T08:34:01Z</time>
      </trkpt>
      <trkpt lat="45.53678" lon="6.85178">
        <ele>3186.3</ele>
        <time>2021-03-30T08:34:02Z</time>
      </trkpt>
      <trkpt lat="45.53678" lon="6.85179">
        <ele>3186.3</ele>
        <time>2021-03-30T08:34:03Z</time>
      </trkpt>
      <trkpt lat="45.53678" lon="6.85179">
        <ele>3186.3</ele>
        <time>2021-03-30T08:34:04Z</time>
      </trkpt>
      <trkpt lat="45.53678" lon="6.8518">
        <ele>3186.3</ele>
        <time>2021-03-30T08:34:05Z</time>
      </trkpt>
      <trkpt lat="45.53678" lon="6.85181">
        <ele>3186.3</ele>
        <time>2021-03-30T08:34:06Z</time>
      </trkpt>
      <trkpt lat="45.53678" lon="6.85181">
        <ele>3188.4</ele>
        <time>2021-03-30T08:34:07Z</time>
      </trkpt>
      <trkpt lat="45.53677" lon="6.85181">
        <ele>3188.4</ele>
        <time>2021-03-30T08:34:08Z</time>
      </trkpt>
      <trkpt lat="45.53676" lon="6.85182">
        <ele>3188.4</ele>
        <time>2021-03-30T08:34:09Z</time>
      </trkpt>
      <trkpt lat="45.53676" lon="6.85182">
        <ele>3188.4</ele>
        <time>2021-03-30T08:34:10Z</time>
      </trkpt>
      <trkpt lat="45.53675" lon="6.85182">
        <ele>3188.4</ele>
        <time>2021-03-30T08:34:48Z</time>
      </trkpt>
      <trkpt lat="45.53675" lon="6.85182">
        <ele>3190.6</ele>
        <time>2021-03-30T08:34:49Z</time>
      </trkpt>
      <trkpt lat="45.53674" lon="6.85182">
        <ele>3190.6</ele>
        <time>2021-03-30T08:34:50Z</time>
      </trkpt>
      <trkpt lat="45.53673" lon="6.85182">
        <ele>3190.6</ele>
        <time>2021-03-30T08:34:51Z</time>
      </trkpt>
      <trkpt lat="45.53673" lon="6.85182">
        <ele>3190.6</ele>
        <time>2021-03-30T08:34:52Z</time>
      </trkpt>
      <trkpt lat="45.53672" lon="6.85181">
        <ele>3190.6</ele>
        <time>2021-03-30T08:34:53Z</time>
      </trkpt>
      <trkpt lat="45.53671" lon="6.8518">
        <ele>3193</ele>
        <time>2021-03-30T08:34:54Z</time>
      </trkpt>
      <trkpt lat="45.53671" lon="6.85179">
        <ele>3193</ele>
        <time>2021-03-30T08:34:55Z</time>
      </trkpt>
      <trkpt lat="45.5367" lon="6.85178">
        <ele>3193</ele>
        <time>2021-03-30T08:34:56Z</time>
      </trkpt>
      <trkpt lat="45.5367" lon="6.85177">
        <ele>3192.6</ele>
        <time>2021-03-30T08:34:57Z</time>
      </trkpt>
      <trkpt lat="45.53669" lon="6.85177">
        <ele>3192.6</ele>
        <time>2021-03-30T08:34:58Z</time>
      </trkpt>
      <trkpt lat="45.53669" lon="6.85176">
        <ele>3192.6</ele>
        <time>2021-03-30T08:34:59Z</time>
      </trkpt>
      <trkpt lat="45.53668" lon="6.85175">
        <ele>3195.1</ele>
        <time>2021-03-30T08:35:00Z</time>
      </trkpt>
      <trkpt lat="45.53668" lon="6.85174">
        <ele>3195.1</ele>
        <time>2021-03-30T08:35:01Z</time>
      </trkpt>
      <trkpt lat="45.53668" lon="6.85173">
        <ele>3194.7</ele>
        <time>2021-03-30T08:35:02Z</time>
      </trkpt>
      <trkpt lat="45.53667" lon="6.85172">
        <ele>3194.7</ele>
        <time>2021-03-30T08:35:14Z</time>
      </trkpt>
      <trkpt lat="45.53667" lon="6.85171">
        <ele>3194.7</ele>
        <time>2021-03-30T08:35:15Z</time>
      </trkpt>
      <trkpt lat="45.53666" lon="6.8517">
        <ele>3194.7</ele>
        <time>2021-03-30T08:35:16Z</time>
      </trkpt>
      <trkpt lat="45.53666" lon="6.8517">
        <ele>3194.7</ele>
        <time>2021-03-30T08:35:17Z</time>
      </trkpt>
      <trkpt lat="45.53665" lon="6.85169">
        <ele>3196.8</ele>
        <time>2021-03-30T08:35:18Z</time>
      </trkpt>
      <trkpt lat="45.53665" lon="6.85168">
        <ele>3196.8</ele>
        <time>2021-03-30T08:35:19Z</time>
      </trkpt>
      <trkpt lat="45.53664" lon="6.85168">
        <ele>3196.8</ele>
        <time>2021-03-30T08:35:20Z</time>
      </trkpt>
      <trkpt lat="45.53664" lon="6.85167">
        <ele>3196.8</ele>
        <time>2021-03-30T08:35:21Z</time>
      </trkpt>
      <trkpt lat="45.53663" lon="6.85167">
        <ele>3196.8</ele>
        <time>2021-03-30T08:35:22Z</time>
      </trkpt>
      <trkpt lat="45.53663" lon="6.85166">
        <ele>3196.8</ele>
        <time>2021-03-30T08:35:23Z</time>
      </trkpt>
      <trkpt lat="45.53663" lon="6.85166">
        <ele>3196.8</ele>
        <time>2021-03-30T08:35:24Z</time>
      </trkpt>
      <trkpt lat="45.53663" lon="6.85165">
        <ele>3196.8</ele>
        <time>2021-03-30T08:35:25Z</time>
      </trkpt>
      <trkpt lat="45.53662" lon="6.85165">
        <ele>3198.7</ele>
        <time>2021-03-30T08:35:26Z</time>
      </trkpt>
      <trkpt lat="45.53662" lon="6.85165">
        <ele>3198.7</ele>
        <time>2021-03-30T08:35:27Z</time>
      </trkpt>
      <trkpt lat="45.53662" lon="6.85164">
        <ele>3198.7</ele>
        <time>2021-03-30T08:35:28Z</time>
      </trkpt>
      <trkpt lat="45.53662" lon="6.85164">
        <ele>3198.7</ele>
        <time>2021-03-30T08:35:29Z</time>
      </trkpt>
      <trkpt lat="45.53661" lon="6.85163">
        <ele>3198.7</ele>
        <time>2021-03-30T08:35:30Z</time>
      </trkpt>
      <trkpt lat="45.53661" lon="6.85163">
        <ele>3198.7</ele>
        <time>2021-03-30T08:35:31Z</time>
      </trkpt>
      <trkpt lat="45.53661" lon="6.85162">
        <ele>3198.7</ele>
        <time>2021-03-30T08:35:32Z</time>
      </trkpt>
      <trkpt lat="45.5366" lon="6.85162">
        <ele>3198.7</ele>
        <time>2021-03-30T08:35:33Z</time>
      </trkpt>
      <trkpt lat="45.5366" lon="6.85161">
        <ele>3198.7</ele>
        <time>2021-03-30T08:35:34Z</time>
      </trkpt>
      <trkpt lat="45.5366" lon="6.8516">
        <ele>3198.4</ele>
        <time>2021-03-30T08:35:35Z</time>
      </trkpt>
      <trkpt lat="45.5366" lon="6.8516">
        <ele>3200.5</ele>
        <time>2021-03-30T08:35:36Z</time>
      </trkpt>
      <trkpt lat="45.53659" lon="6.85159">
        <ele>3200.5</ele>
        <time>2021-03-30T08:35:37Z</time>
      </trkpt>
      <trkpt lat="45.53659" lon="6.85158">
        <ele>3200.5</ele>
        <time>2021-03-30T08:35:38Z</time>
      </trkpt>
      <trkpt lat="45.53659" lon="6.85157">
        <ele>3200.5</ele>
        <time>2021-03-30T08:35:39Z</time>
      </trkpt>
      <trkpt lat="45.53659" lon="6.85156">
        <ele>3200.2</ele>
        <time>2021-03-30T08:35:40Z</time>
      </trkpt>
      <trkpt lat="45.53659" lon="6.85156">
        <ele>3200.2</ele>
        <time>2021-03-30T08:35:41Z</time>
      </trkpt>
      <trkpt lat="45.53659" lon="6.85156">
        <ele>3200.2</ele>
        <time>2021-03-30T08:35:42Z</time>
      </trkpt>
      <trkpt lat="45.53659" lon="6.85155">
        <ele>3200.2</ele>
        <time>2021-03-30T08:35:43Z</time>
      </trkpt>
      <trkpt lat="45.53659" lon="6.85154">
        <ele>3200.2</ele>
        <time>2021-03-30T08:35:44Z</time>
      </trkpt>
      <trkpt lat="45.53658" lon="6.85154">
        <ele>3200.2</ele>
        <time>2021-03-30T08:35:45Z</time>
      </trkpt>
      <trkpt lat="45.53658" lon="6.85153">
        <ele>3200.2</ele>
        <time>2021-03-30T08:35:46Z</time>
      </trkpt>
      <trkpt lat="45.53658" lon="6.85153">
        <ele>3200.2</ele>
        <time>2021-03-30T08:35:47Z</time>
      </trkpt>
      <trkpt lat="45.53658" lon="6.85152">
        <ele>3200.2</ele>
        <time>2021-03-30T08:35:48Z</time>
      </trkpt>
      <trkpt lat="45.53657" lon="6.8515">
        <ele>3199.9</ele>
        <time>2021-03-30T08:35:49Z</time>
      </trkpt>
      <trkpt lat="45.53656" lon="6.85148">
        <ele>3201.5</ele>
        <time>2021-03-30T08:36:08Z</time>
      </trkpt>
      <trkpt lat="45.53656" lon="6.85146">
        <ele>3201.5</ele>
        <time>2021-03-30T08:36:09Z</time>
      </trkpt>
      <trkpt lat="45.53655" lon="6.85144">
        <ele>3201.5</ele>
        <time>2021-03-30T08:36:10Z</time>
      </trkpt>
      <trkpt lat="45.53654" lon="6.85142">
        <ele>3201.2</ele>
        <time>2021-03-30T08:36:11Z</time>
      </trkpt>
      <trkpt lat="45.53653" lon="6.8514">
        <ele>3203</ele>
        <time>2021-03-30T08:36:12Z</time>
      </trkpt>
      <trkpt lat="45.53653" lon="6.85138">
        <ele>3202.8</ele>
        <time>2021-03-30T08:36:13Z</time>
      </trkpt>
      <trkpt lat="45.53652" lon="6.85137">
        <ele>3202.8</ele>
        <time>2021-03-30T08:36:14Z</time>
      </trkpt>
      <trkpt lat="45.53652" lon="6.85136">
        <ele>3202.8</ele>
        <time>2021-03-30T08:36:15Z</time>
      </trkpt>
      <trkpt lat="45.53651" lon="6.85136">
        <ele>3202.8</ele>
        <time>2021-03-30T08:36:16Z</time>
      </trkpt>
      <trkpt lat="45.53651" lon="6.85135">
        <ele>3202.8</ele>
        <time>2021-03-30T08:36:17Z</time>
      </trkpt>
      <trkpt lat="45.53651" lon="6.85135">
        <ele>3204.4</ele>
        <time>2021-03-30T08:36:20Z</time>
      </trkpt>
      <trkpt lat="45.5365" lon="6.85134">
        <ele>3204.4</ele>
        <time>2021-03-30T08:36:21Z</time>
      </trkpt>
      <trkpt lat="45.5365" lon="6.85134">
        <ele>3204.4</ele>
        <time>2021-03-30T08:36:22Z</time>
      </trkpt>
      <trkpt lat="45.53649" lon="6.85133">
        <ele>3204.4</ele>
        <time>2021-03-30T08:36:23Z</time>
      </trkpt>
      <trkpt lat="45.53649" lon="6.85132">
        <ele>3204.4</ele>
        <time>2021-03-30T08:36:24Z</time>
      </trkpt>
      <trkpt lat="45.53649" lon="6.85132">
        <ele>3204.4</ele>
        <time>2021-03-30T08:36:25Z</time>
      </trkpt>
      <trkpt lat="45.53649" lon="6.85132">
        <ele>3204.4</ele>
        <time>2021-03-30T08:36:26Z</time>
      </trkpt>
      <trkpt lat="45.53648" lon="6.85131">
        <ele>3204.4</ele>
        <time>2021-03-30T08:36:27Z</time>
      </trkpt>
      <trkpt lat="45.53648" lon="6.8513">
        <ele>3204.3</ele>
        <time>2021-03-30T08:36:28Z</time>
      </trkpt>
      <trkpt lat="45.53648" lon="6.8513">
        <ele>3204.3</ele>
        <time>2021-03-30T08:36:29Z</time>
      </trkpt>
      <trkpt lat="45.53648" lon="6.85129">
        <ele>3206.2</ele>
        <time>2021-03-30T08:36:30Z</time>
      </trkpt>
      <trkpt lat="45.53647" lon="6.85129">
        <ele>3206.2</ele>
        <time>2021-03-30T08:36:31Z</time>
      </trkpt>
      <trkpt lat="45.53647" lon="6.85128">
        <ele>3206.2</ele>
        <time>2021-03-30T08:36:32Z</time>
      </trkpt>
      <trkpt lat="45.53647" lon="6.85127">
        <ele>3206.2</ele>
        <time>2021-03-30T08:36:33Z</time>
      </trkpt>
      <trkpt lat="45.53647" lon="6.85126">
        <ele>3206.2</ele>
        <time>2021-03-30T08:36:34Z</time>
      </trkpt>
      <trkpt lat="45.53647" lon="6.85126">
        <ele>3206.2</ele>
        <time>2021-03-30T08:36:35Z</time>
      </trkpt>
      <trkpt lat="45.53647" lon="6.85126">
        <ele>3206.2</ele>
        <time>2021-03-30T08:36:36Z</time>
      </trkpt>
      <trkpt lat="45.53647" lon="6.85125">
        <ele>3206.2</ele>
        <time>2021-03-30T08:36:37Z</time>
      </trkpt>
      <trkpt lat="45.53647" lon="6.85125">
        <ele>3206.2</ele>
        <time>2021-03-30T08:36:38Z</time>
      </trkpt>
      <trkpt lat="45.53647" lon="6.85125">
        <ele>3206.2</ele>
        <time>2021-03-30T08:36:39Z</time>
      </trkpt>
      <trkpt lat="45.53647" lon="6.85124">
        <ele>3206.2</ele>
        <time>2021-03-30T08:36:40Z</time>
      </trkpt>
      <trkpt lat="45.53647" lon="6.85124">
        <ele>3206.2</ele>
        <time>2021-03-30T08:36:41Z</time>
      </trkpt>
      <trkpt lat="45.53647" lon="6.85124">
        <ele>3206.2</ele>
        <time>2021-03-30T08:36:42Z</time>
      </trkpt>
      <trkpt lat="45.53647" lon="6.85123">
        <ele>3206.2</ele>
        <time>2021-03-30T08:37:43Z</time>
      </trkpt>
      <trkpt lat="45.53647" lon="6.85123">
        <ele>3206.2</ele>
        <time>2021-03-30T08:37:44Z</time>
      </trkpt>
      <trkpt lat="45.53647" lon="6.85123">
        <ele>3206.2</ele>
        <time>2021-03-30T08:37:45Z</time>
      </trkpt>
      <trkpt lat="45.53647" lon="6.85122">
        <ele>3206.2</ele>
        <time>2021-03-30T08:37:46Z</time>
      </trkpt>
      <trkpt lat="45.53646" lon="6.85123">
        <ele>3206.2</ele>
        <time>2021-03-30T08:37:47Z</time>
      </trkpt>
      <trkpt lat="45.53646" lon="6.85123">
        <ele>3206.2</ele>
        <time>2021-03-30T08:37:48Z</time>
      </trkpt>
      <trkpt lat="45.53646" lon="6.85124">
        <ele>3206.2</ele>
        <time>2021-03-30T08:37:49Z</time>
      </trkpt>
      <trkpt lat="45.53645" lon="6.85124">
        <ele>3206.2</ele>
        <time>2021-03-30T08:37:50Z</time>
      </trkpt>
      <trkpt lat="45.53645" lon="6.85124">
        <ele>3206.2</ele>
        <time>2021-03-30T08:37:51Z</time>
      </trkpt>
      <trkpt lat="45.53645" lon="6.85125">
        <ele>3208.1</ele>
        <time>2021-03-30T08:37:52Z</time>
      </trkpt>
      <trkpt lat="45.53644" lon="6.85125">
        <ele>3208.1</ele>
        <time>2021-03-30T08:37:53Z</time>
      </trkpt>
      <trkpt lat="45.53644" lon="6.85126">
        <ele>3208.1</ele>
        <time>2021-03-30T08:37:54Z</time>
      </trkpt>
      <trkpt lat="45.53644" lon="6.85126">
        <ele>3208.1</ele>
        <time>2021-03-30T08:37:55Z</time>
      </trkpt>
      <trkpt lat="45.53643" lon="6.85126">
        <ele>3208.1</ele>
        <time>2021-03-30T08:37:56Z</time>
      </trkpt>
      <trkpt lat="45.53643" lon="6.85127">
        <ele>3208.2</ele>
        <time>2021-03-30T08:37:57Z</time>
      </trkpt>
      <trkpt lat="45.53643" lon="6.85127">
        <ele>3208.2</ele>
        <time>2021-03-30T08:37:58Z</time>
      </trkpt>
      <trkpt lat="45.53642" lon="6.85127">
        <ele>3208.2</ele>
        <time>2021-03-30T08:37:59Z</time>
      </trkpt>
      <trkpt lat="45.53642" lon="6.85128">
        <ele>3208.2</ele>
        <time>2021-03-30T08:38:00Z</time>
      </trkpt>
      <trkpt lat="45.53641" lon="6.85129">
        <ele>3210.1</ele>
        <time>2021-03-30T08:38:01Z</time>
      </trkpt>
      <trkpt lat="45.53641" lon="6.8513">
        <ele>3210.1</ele>
        <time>2021-03-30T08:38:02Z</time>
      </trkpt>
      <trkpt lat="45.5364" lon="6.8513">
        <ele>3210.1</ele>
        <time>2021-03-30T08:38:03Z</time>
      </trkpt>
      <trkpt lat="45.5364" lon="6.85131">
        <ele>3210.1</ele>
        <time>2021-03-30T08:38:04Z</time>
      </trkpt>
      <trkpt lat="45.5364" lon="6.85131">
        <ele>3210.1</ele>
        <time>2021-03-30T08:38:05Z</time>
      </trkpt>
      <trkpt lat="45.5364" lon="6.85132">
        <ele>3210.1</ele>
        <time>2021-03-30T08:38:06Z</time>
      </trkpt>
      <trkpt lat="45.5364" lon="6.85132">
        <ele>3210.1</ele>
        <time>2021-03-30T08:38:07Z</time>
      </trkpt>
      <trkpt lat="45.5364" lon="6.85133">
        <ele>3210.1</ele>
        <time>2021-03-30T08:38:08Z</time>
      </trkpt>
      <trkpt lat="45.5364" lon="6.85134">
        <ele>3210.1</ele>
        <time>2021-03-30T08:38:09Z</time>
      </trkpt>
      <trkpt lat="45.5364" lon="6.85135">
        <ele>3210.1</ele>
        <time>2021-03-30T08:38:10Z</time>
      </trkpt>
      <trkpt lat="45.53639" lon="6.85136">
        <ele>3210.2</ele>
        <time>2021-03-30T08:38:11Z</time>
      </trkpt>
      <trkpt lat="45.53639" lon="6.85136">
        <ele>3210.2</ele>
        <time>2021-03-30T08:38:12Z</time>
      </trkpt>
      <trkpt lat="45.53639" lon="6.85137">
        <ele>3210.2</ele>
        <time>2021-03-30T08:38:13Z</time>
      </trkpt>
      <trkpt lat="45.53638" lon="6.85138">
        <ele>3212</ele>
        <time>2021-03-30T08:38:14Z</time>
      </trkpt>
      <trkpt lat="45.53638" lon="6.85139">
        <ele>3212</ele>
        <time>2021-03-30T08:38:15Z</time>
      </trkpt>
      <trkpt lat="45.53637" lon="6.8514">
        <ele>3212.1</ele>
        <time>2021-03-30T08:38:16Z</time>
      </trkpt>
      <trkpt lat="45.53637" lon="6.85141">
        <ele>3212.1</ele>
        <time>2021-03-30T08:38:17Z</time>
      </trkpt>
      <trkpt lat="45.53637" lon="6.85141">
        <ele>3212.1</ele>
        <time>2021-03-30T08:38:18Z</time>
      </trkpt>
      <trkpt lat="45.53637" lon="6.85141">
        <ele>3212.1</ele>
        <time>2021-03-30T08:38:19Z</time>
      </trkpt>
      <trkpt lat="45.53636" lon="6.85142">
        <ele>3212.1</ele>
        <time>2021-03-30T08:38:20Z</time>
      </trkpt>
      <trkpt lat="45.53636" lon="6.85143">
        <ele>3212.1</ele>
        <time>2021-03-30T08:38:21Z</time>
      </trkpt>
      <trkpt lat="45.53636" lon="6.85144">
        <ele>3212.1</ele>
        <time>2021-03-30T08:38:22Z</time>
      </trkpt>
      <trkpt lat="45.53635" lon="6.85145">
        <ele>3213.7</ele>
        <time>2021-03-30T08:38:23Z</time>
      </trkpt>
      <trkpt lat="45.53635" lon="6.85146">
        <ele>3213.7</ele>
        <time>2021-03-30T08:38:24Z</time>
      </trkpt>
      <trkpt lat="45.53635" lon="6.85147">
        <ele>3213.7</ele>
        <time>2021-03-30T08:38:25Z</time>
      </trkpt>
      <trkpt lat="45.53634" lon="6.85147">
        <ele>3213.7</ele>
        <time>2021-03-30T08:38:26Z</time>
      </trkpt>
      <trkpt lat="45.53634" lon="6.85149">
        <ele>3213.7</ele>
        <time>2021-03-30T08:38:27Z</time>
      </trkpt>
      <trkpt lat="45.53634" lon="6.85149">
        <ele>3213.7</ele>
        <time>2021-03-30T08:38:28Z</time>
      </trkpt>
      <trkpt lat="45.53634" lon="6.8515">
        <ele>3213.7</ele>
        <time>2021-03-30T08:38:29Z</time>
      </trkpt>
      <trkpt lat="45.53634" lon="6.85151">
        <ele>3213.7</ele>
        <time>2021-03-30T08:38:30Z</time>
      </trkpt>
      <trkpt lat="45.53633" lon="6.85151">
        <ele>3213.7</ele>
        <time>2021-03-30T08:38:31Z</time>
      </trkpt>
      <trkpt lat="45.53633" lon="6.85152">
        <ele>3213.7</ele>
        <time>2021-03-30T08:38:32Z</time>
      </trkpt>
      <trkpt lat="45.53633" lon="6.85152">
        <ele>3215.1</ele>
        <time>2021-03-30T08:38:33Z</time>
      </trkpt>
      <trkpt lat="45.53632" lon="6.85153">
        <ele>3215.1</ele>
        <time>2021-03-30T08:38:34Z</time>
      </trkpt>
      <trkpt lat="45.53632" lon="6.85153">
        <ele>3215.1</ele>
        <time>2021-03-30T08:38:35Z</time>
      </trkpt>
      <trkpt lat="45.53632" lon="6.85153">
        <ele>3215.1</ele>
        <time>2021-03-30T08:38:36Z</time>
      </trkpt>
      <trkpt lat="45.53632" lon="6.85154">
        <ele>3215.1</ele>
        <time>2021-03-30T08:38:37Z</time>
      </trkpt>
      <trkpt lat="45.53631" lon="6.85155">
        <ele>3215.1</ele>
        <time>2021-03-30T08:38:38Z</time>
      </trkpt>
      <trkpt lat="45.53631" lon="6.85155">
        <ele>3215.1</ele>
        <time>2021-03-30T08:38:39Z</time>
      </trkpt>
      <trkpt lat="45.53631" lon="6.85156">
        <ele>3215.1</ele>
        <time>2021-03-30T08:38:40Z</time>
      </trkpt>
      <trkpt lat="45.5363" lon="6.85157">
        <ele>3215.2</ele>
        <time>2021-03-30T08:38:41Z</time>
      </trkpt>
      <trkpt lat="45.5363" lon="6.85158">
        <ele>3215.2</ele>
        <time>2021-03-30T08:38:42Z</time>
      </trkpt>
      <trkpt lat="45.53629" lon="6.85159">
        <ele>3216.4</ele>
        <time>2021-03-30T08:38:43Z</time>
      </trkpt>
      <trkpt lat="45.53629" lon="6.8516">
        <ele>3216.4</ele>
        <time>2021-03-30T08:38:44Z</time>
      </trkpt>
      <trkpt lat="45.53629" lon="6.85161">
        <ele>3216.5</ele>
        <time>2021-03-30T08:38:45Z</time>
      </trkpt>
      <trkpt lat="45.53628" lon="6.85162">
        <ele>3216.5</ele>
        <time>2021-03-30T08:38:46Z</time>
      </trkpt>
      <trkpt lat="45.53628" lon="6.85163">
        <ele>3216.5</ele>
        <time>2021-03-30T08:38:47Z</time>
      </trkpt>
      <trkpt lat="45.53628" lon="6.85164">
        <ele>3216.5</ele>
        <time>2021-03-30T08:38:48Z</time>
      </trkpt>
      <trkpt lat="45.53627" lon="6.85165">
        <ele>3216.5</ele>
        <time>2021-03-30T08:38:49Z</time>
      </trkpt>
      <trkpt lat="45.53627" lon="6.85165">
        <ele>3216.7</ele>
        <time>2021-03-30T08:38:50Z</time>
      </trkpt>
      <trkpt lat="45.53627" lon="6.85166">
        <ele>3216.7</ele>
        <time>2021-03-30T08:38:51Z</time>
      </trkpt>
      <trkpt lat="45.53626" lon="6.85167">
        <ele>3217.8</ele>
        <time>2021-03-30T08:38:52Z</time>
      </trkpt>
      <trkpt lat="45.53626" lon="6.85168">
        <ele>3217.8</ele>
        <time>2021-03-30T08:38:53Z</time>
      </trkpt>
      <trkpt lat="45.53626" lon="6.85169">
        <ele>3217.8</ele>
        <time>2021-03-30T08:38:54Z</time>
      </trkpt>
      <trkpt lat="45.53626" lon="6.85169">
        <ele>3218</ele>
        <time>2021-03-30T08:38:55Z</time>
      </trkpt>
      <trkpt lat="45.53626" lon="6.8517">
        <ele>3218</ele>
        <time>2021-03-30T08:38:56Z</time>
      </trkpt>
      <trkpt lat="45.53625" lon="6.85171">
        <ele>3218</ele>
        <time>2021-03-30T08:38:57Z</time>
      </trkpt>
      <trkpt lat="45.53625" lon="6.85172">
        <ele>3218</ele>
        <time>2021-03-30T08:38:58Z</time>
      </trkpt>
      <trkpt lat="45.53625" lon="6.85174">
        <ele>3218</ele>
        <time>2021-03-30T08:38:59Z</time>
      </trkpt>
      <trkpt lat="45.53624" lon="6.85175">
        <ele>3218.2</ele>
        <time>2021-03-30T08:39:00Z</time>
      </trkpt>
      <trkpt lat="45.53624" lon="6.85175">
        <ele>3218.2</ele>
        <time>2021-03-30T08:39:01Z</time>
      </trkpt>
      <trkpt lat="45.53624" lon="6.85176">
        <ele>3218.2</ele>
        <time>2021-03-30T08:39:02Z</time>
      </trkpt>
      <trkpt lat="45.53624" lon="6.85177">
        <ele>3218.2</ele>
        <time>2021-03-30T08:39:03Z</time>
      </trkpt>
      <trkpt lat="45.53623" lon="6.85178">
        <ele>3219.6</ele>
        <time>2021-03-30T08:39:04Z</time>
      </trkpt>
      <trkpt lat="45.53623" lon="6.85179">
        <ele>3219.6</ele>
        <time>2021-03-30T08:39:05Z</time>
      </trkpt>
      <trkpt lat="45.53623" lon="6.8518">
        <ele>3219.6</ele>
        <time>2021-03-30T08:39:06Z</time>
      </trkpt>
      <trkpt lat="45.53623" lon="6.85181">
        <ele>3219.6</ele>
        <time>2021-03-30T08:39:07Z</time>
      </trkpt>
      <trkpt lat="45.53622" lon="6.85182">
        <ele>3219.6</ele>
        <time>2021-03-30T08:39:08Z</time>
      </trkpt>
      <trkpt lat="45.53622" lon="6.85183">
        <ele>3220</ele>
        <time>2021-03-30T08:39:09Z</time>
      </trkpt>
      <trkpt lat="45.53622" lon="6.85184">
        <ele>3220</ele>
        <time>2021-03-30T08:39:10Z</time>
      </trkpt>
      <trkpt lat="45.53622" lon="6.85185">
        <ele>3220</ele>
        <time>2021-03-30T08:39:11Z</time>
      </trkpt>
      <trkpt lat="45.53622" lon="6.85186">
        <ele>3220</ele>
        <time>2021-03-30T08:39:12Z</time>
      </trkpt>
      <trkpt lat="45.53622" lon="6.85187">
        <ele>3220.3</ele>
        <time>2021-03-30T08:39:13Z</time>
      </trkpt>
      <trkpt lat="45.53621" lon="6.85188">
        <ele>3220.3</ele>
        <time>2021-03-30T08:39:14Z</time>
      </trkpt>
      <trkpt lat="45.53621" lon="6.85189">
        <ele>3220.3</ele>
        <time>2021-03-30T08:39:15Z</time>
      </trkpt>
      <trkpt lat="45.53621" lon="6.85189">
        <ele>3220.3</ele>
        <time>2021-03-30T08:39:16Z</time>
      </trkpt>
      <trkpt lat="45.53621" lon="6.8519">
        <ele>3220.3</ele>
        <time>2021-03-30T08:39:17Z</time>
      </trkpt>
      <trkpt lat="45.53621" lon="6.8519">
        <ele>3220.3</ele>
        <time>2021-03-30T08:39:18Z</time>
      </trkpt>
      <trkpt lat="45.53621" lon="6.85191">
        <ele>3220.7</ele>
        <time>2021-03-30T08:39:19Z</time>
      </trkpt>
      <trkpt lat="45.5362" lon="6.85192">
        <ele>3222</ele>
        <time>2021-03-30T08:39:20Z</time>
      </trkpt>
      <trkpt lat="45.5362" lon="6.85192">
        <ele>3222</ele>
        <time>2021-03-30T08:39:21Z</time>
      </trkpt>
      <trkpt lat="45.5362" lon="6.85193">
        <ele>3222</ele>
        <time>2021-03-30T08:39:22Z</time>
      </trkpt>
      <trkpt lat="45.5362" lon="6.85194">
        <ele>3222</ele>
        <time>2021-03-30T08:39:23Z</time>
      </trkpt>
      <trkpt lat="45.5362" lon="6.85195">
        <ele>3222</ele>
        <time>2021-03-30T08:39:24Z</time>
      </trkpt>
      <trkpt lat="45.5362" lon="6.85196">
        <ele>3222.5</ele>
        <time>2021-03-30T08:39:25Z</time>
      </trkpt>
      <trkpt lat="45.5362" lon="6.85196">
        <ele>3222.5</ele>
        <time>2021-03-30T08:39:26Z</time>
      </trkpt>
      <trkpt lat="45.5362" lon="6.85197">
        <ele>3222.5</ele>
        <time>2021-03-30T08:39:27Z</time>
      </trkpt>
      <trkpt lat="45.5362" lon="6.85198">
        <ele>3222.5</ele>
        <time>2021-03-30T08:39:28Z</time>
      </trkpt>
      <trkpt lat="45.53619" lon="6.85198">
        <ele>3222.5</ele>
        <time>2021-03-30T08:39:29Z</time>
      </trkpt>
      <trkpt lat="45.53619" lon="6.85199">
        <ele>3222.5</ele>
        <time>2021-03-30T08:39:30Z</time>
      </trkpt>
      <trkpt lat="45.53619" lon="6.852">
        <ele>3223</ele>
        <time>2021-03-30T08:39:31Z</time>
      </trkpt>
      <trkpt lat="45.53619" lon="6.85201">
        <ele>3223</ele>
        <time>2021-03-30T08:39:32Z</time>
      </trkpt>
      <trkpt lat="45.53619" lon="6.85201">
        <ele>3223</ele>
        <time>2021-03-30T08:39:33Z</time>
      </trkpt>
      <trkpt lat="45.53619" lon="6.85202">
        <ele>3223</ele>
        <time>2021-03-30T08:39:34Z</time>
      </trkpt>
      <trkpt lat="45.53619" lon="6.85203">
        <ele>3223</ele>
        <time>2021-03-30T08:39:35Z</time>
      </trkpt>
      <trkpt lat="45.53618" lon="6.85204">
        <ele>3223.5</ele>
        <time>2021-03-30T08:39:36Z</time>
      </trkpt>
      <trkpt lat="45.53618" lon="6.85205">
        <ele>3223.5</ele>
        <time>2021-03-30T08:39:37Z</time>
      </trkpt>
      <trkpt lat="45.53618" lon="6.85206">
        <ele>3223.5</ele>
        <time>2021-03-30T08:39:38Z</time>
      </trkpt>
      <trkpt lat="45.53619" lon="6.85207">
        <ele>3223.5</ele>
        <time>2021-03-30T08:39:39Z</time>
      </trkpt>
      <trkpt lat="45.53619" lon="6.85208">
        <ele>3223.5</ele>
        <time>2021-03-30T08:39:40Z</time>
      </trkpt>
      <trkpt lat="45.53619" lon="6.85208">
        <ele>3224.1</ele>
        <time>2021-03-30T08:39:41Z</time>
      </trkpt>
      <trkpt lat="45.53619" lon="6.85209">
        <ele>3224.1</ele>
        <time>2021-03-30T08:39:42Z</time>
      </trkpt>
      <trkpt lat="45.53619" lon="6.8521">
        <ele>3224.1</ele>
        <time>2021-03-30T08:39:43Z</time>
      </trkpt>
      <trkpt lat="45.53619" lon="6.85211">
        <ele>3224.1</ele>
        <time>2021-03-30T08:39:44Z</time>
      </trkpt>
      <trkpt lat="45.53619" lon="6.85211">
        <ele>3224.1</ele>
        <time>2021-03-30T08:39:45Z</time>
      </trkpt>
      <trkpt lat="45.53619" lon="6.85212">
        <ele>3224.1</ele>
        <time>2021-03-30T08:39:46Z</time>
      </trkpt>
      <trkpt lat="45.53619" lon="6.85213">
        <ele>3224.7</ele>
        <time>2021-03-30T08:39:47Z</time>
      </trkpt>
      <trkpt lat="45.53619" lon="6.85214">
        <ele>3224.7</ele>
        <time>2021-03-30T08:39:48Z</time>
      </trkpt>
      <trkpt lat="45.53619" lon="6.85214">
        <ele>3224.7</ele>
        <time>2021-03-30T08:39:49Z</time>
      </trkpt>
      <trkpt lat="45.53619" lon="6.85215">
        <ele>3224.7</ele>
        <time>2021-03-30T08:39:50Z</time>
      </trkpt>
      <trkpt lat="45.53619" lon="6.85216">
        <ele>3224.7</ele>
        <time>2021-03-30T08:39:51Z</time>
      </trkpt>
      <trkpt lat="45.53619" lon="6.85217">
        <ele>3225.4</ele>
        <time>2021-03-30T08:39:52Z</time>
      </trkpt>
      <trkpt lat="45.53619" lon="6.85217">
        <ele>3225.4</ele>
        <time>2021-03-30T08:39:53Z</time>
      </trkpt>
      <trkpt lat="45.53619" lon="6.85218">
        <ele>3225.4</ele>
        <time>2021-03-30T08:39:54Z</time>
      </trkpt>
      <trkpt lat="45.53619" lon="6.85219">
        <ele>3225.4</ele>
        <time>2021-03-30T08:39:55Z</time>
      </trkpt>
      <trkpt lat="45.53619" lon="6.8522">
        <ele>3225.4</ele>
        <time>2021-03-30T08:39:56Z</time>
      </trkpt>
      <trkpt lat="45.53619" lon="6.8522">
        <ele>3225.4</ele>
        <time>2021-03-30T08:39:57Z</time>
      </trkpt>
      <trkpt lat="45.53619" lon="6.85221">
        <ele>3226</ele>
        <time>2021-03-30T08:39:58Z</time>
      </trkpt>
      <trkpt lat="45.53619" lon="6.85222">
        <ele>3226</ele>
        <time>2021-03-30T08:39:59Z</time>
      </trkpt>
      <trkpt lat="45.53619" lon="6.85222">
        <ele>3226</ele>
        <time>2021-03-30T08:40:00Z</time>
      </trkpt>
      <trkpt lat="45.53619" lon="6.85223">
        <ele>3226</ele>
        <time>2021-03-30T08:40:01Z</time>
      </trkpt>
      <trkpt lat="45.53619" lon="6.85224">
        <ele>3226</ele>
        <time>2021-03-30T08:40:02Z</time>
      </trkpt>
      <trkpt lat="45.53619" lon="6.85224">
        <ele>3226</ele>
        <time>2021-03-30T08:40:03Z</time>
      </trkpt>
      <trkpt lat="45.53619" lon="6.85225">
        <ele>3226.6</ele>
        <time>2021-03-30T08:40:04Z</time>
      </trkpt>
      <trkpt lat="45.53618" lon="6.85226">
        <ele>3226.6</ele>
        <time>2021-03-30T08:40:11Z</time>
      </trkpt>
      <trkpt lat="45.53618" lon="6.85227">
        <ele>3226.6</ele>
        <time>2021-03-30T08:40:12Z</time>
      </trkpt>
      <trkpt lat="45.53618" lon="6.85227">
        <ele>3226.6</ele>
        <time>2021-03-30T08:40:13Z</time>
      </trkpt>
      <trkpt lat="45.53618" lon="6.85228">
        <ele>3226.6</ele>
        <time>2021-03-30T08:40:14Z</time>
      </trkpt>
      <trkpt lat="45.53618" lon="6.85229">
        <ele>3226.6</ele>
        <time>2021-03-30T08:40:15Z</time>
      </trkpt>
      <trkpt lat="45.53618" lon="6.85229">
        <ele>3226.6</ele>
        <time>2021-03-30T08:40:16Z</time>
      </trkpt>
      <trkpt lat="45.53618" lon="6.8523">
        <ele>3227</ele>
        <time>2021-03-30T08:40:17Z</time>
      </trkpt>
      <trkpt lat="45.53618" lon="6.85231">
        <ele>3227</ele>
        <time>2021-03-30T08:40:18Z</time>
      </trkpt>
      <trkpt lat="45.53619" lon="6.85231">
        <ele>3227</ele>
        <time>2021-03-30T08:40:19Z</time>
      </trkpt>
      <trkpt lat="45.53619" lon="6.85232">
        <ele>3227</ele>
        <time>2021-03-30T08:40:20Z</time>
      </trkpt>
      <trkpt lat="45.53618" lon="6.85233">
        <ele>3227</ele>
        <time>2021-03-30T08:40:21Z</time>
      </trkpt>
      <trkpt lat="45.53618" lon="6.85233">
        <ele>3227</ele>
        <time>2021-03-30T08:40:22Z</time>
      </trkpt>
      <trkpt lat="45.53618" lon="6.85233">
        <ele>3227</ele>
        <time>2021-03-30T08:40:23Z</time>
      </trkpt>
      <trkpt lat="45.53618" lon="6.85234">
        <ele>3227.3</ele>
        <time>2021-03-30T08:40:24Z</time>
      </trkpt>
      <trkpt lat="45.53618" lon="6.85235">
        <ele>3227.3</ele>
        <time>2021-03-30T08:40:25Z</time>
      </trkpt>
      <trkpt lat="45.53618" lon="6.85235">
        <ele>3227.3</ele>
        <time>2021-03-30T08:40:26Z</time>
      </trkpt>
      <trkpt lat="45.53618" lon="6.85236">
        <ele>3227.3</ele>
        <time>2021-03-30T08:40:27Z</time>
      </trkpt>
      <trkpt lat="45.53618" lon="6.85237">
        <ele>3227.3</ele>
        <time>2021-03-30T08:40:28Z</time>
      </trkpt>
      <trkpt lat="45.53618" lon="6.85238">
        <ele>3227.3</ele>
        <time>2021-03-30T08:40:29Z</time>
      </trkpt>
      <trkpt lat="45.53618" lon="6.85239">
        <ele>3227.4</ele>
        <time>2021-03-30T08:40:30Z</time>
      </trkpt>
      <trkpt lat="45.53619" lon="6.8524">
        <ele>3227.4</ele>
        <time>2021-03-30T08:40:31Z</time>
      </trkpt>
      <trkpt lat="45.53619" lon="6.8524">
        <ele>3227.4</ele>
        <time>2021-03-30T08:40:32Z</time>
      </trkpt>
      <trkpt lat="45.53619" lon="6.85241">
        <ele>3227.4</ele>
        <time>2021-03-30T08:40:33Z</time>
      </trkpt>
      <trkpt lat="45.53619" lon="6.85242">
        <ele>3227.4</ele>
        <time>2021-03-30T08:40:34Z</time>
      </trkpt>
      <trkpt lat="45.53618" lon="6.85243">
        <ele>3227.6</ele>
        <time>2021-03-30T08:40:35Z</time>
      </trkpt>
      <trkpt lat="45.53618" lon="6.85244">
        <ele>3227.6</ele>
        <time>2021-03-30T08:40:36Z</time>
      </trkpt>
      <trkpt lat="45.53617" lon="6.85245">
        <ele>3228.7</ele>
        <time>2021-03-30T08:40:37Z</time>
      </trkpt>
      <trkpt lat="45.53617" lon="6.85246">
        <ele>3228.7</ele>
        <time>2021-03-30T08:40:41Z</time>
      </trkpt>
      <trkpt lat="45.53616" lon="6.85246">
        <ele>3228.7</ele>
        <time>2021-03-30T08:40:42Z</time>
      </trkpt>
      <trkpt lat="45.53616" lon="6.85247">
        <ele>3228.8</ele>
        <time>2021-03-30T08:40:43Z</time>
      </trkpt>
      <trkpt lat="45.53616" lon="6.85248">
        <ele>3228.8</ele>
        <time>2021-03-30T08:40:44Z</time>
      </trkpt>
      <trkpt lat="45.53615" lon="6.85249">
        <ele>3228.8</ele>
        <time>2021-03-30T08:40:45Z</time>
      </trkpt>
      <trkpt lat="45.53615" lon="6.8525">
        <ele>3228.8</ele>
        <time>2021-03-30T08:40:46Z</time>
      </trkpt>
      <trkpt lat="45.53614" lon="6.8525">
        <ele>3229.8</ele>
        <time>2021-03-30T08:40:47Z</time>
      </trkpt>
      <trkpt lat="45.53614" lon="6.85251">
        <ele>3230</ele>
        <time>2021-03-30T08:40:48Z</time>
      </trkpt>
      <trkpt lat="45.53614" lon="6.85252">
        <ele>3230</ele>
        <time>2021-03-30T08:40:49Z</time>
      </trkpt>
      <trkpt lat="45.53614" lon="6.85252">
        <ele>3230</ele>
        <time>2021-03-30T08:40:50Z</time>
      </trkpt>
      <trkpt lat="45.53614" lon="6.85253">
        <ele>3230</ele>
        <time>2021-03-30T08:40:51Z</time>
      </trkpt>
      <trkpt lat="45.53614" lon="6.85254">
        <ele>3230</ele>
        <time>2021-03-30T08:40:52Z</time>
      </trkpt>
      <trkpt lat="45.53614" lon="6.85254">
        <ele>3230</ele>
        <time>2021-03-30T08:40:53Z</time>
      </trkpt>
      <trkpt lat="45.53614" lon="6.85255">
        <ele>3230</ele>
        <time>2021-03-30T08:40:54Z</time>
      </trkpt>
      <trkpt lat="45.53614" lon="6.85256">
        <ele>3230.3</ele>
        <time>2021-03-30T08:40:55Z</time>
      </trkpt>
      <trkpt lat="45.53615" lon="6.85256">
        <ele>3229.3</ele>
        <time>2021-03-30T08:40:56Z</time>
      </trkpt>
      <trkpt lat="45.53615" lon="6.85257">
        <ele>3229.3</ele>
        <time>2021-03-30T08:40:57Z</time>
      </trkpt>
      <trkpt lat="45.53615" lon="6.85258">
        <ele>3229.3</ele>
        <time>2021-03-30T08:40:58Z</time>
      </trkpt>
      <trkpt lat="45.53615" lon="6.85258">
        <ele>3229.3</ele>
        <time>2021-03-30T08:40:59Z</time>
      </trkpt>
      <trkpt lat="45.53615" lon="6.85259">
        <ele>3229.3</ele>
        <time>2021-03-30T08:41:00Z</time>
      </trkpt>
      <trkpt lat="45.53615" lon="6.8526">
        <ele>3229.8</ele>
        <time>2021-03-30T08:41:01Z</time>
      </trkpt>
      <trkpt lat="45.53615" lon="6.85261">
        <ele>3229.8</ele>
        <time>2021-03-30T08:41:02Z</time>
      </trkpt>
      <trkpt lat="45.53615" lon="6.85261">
        <ele>3229.8</ele>
        <time>2021-03-30T08:41:03Z</time>
      </trkpt>
      <trkpt lat="45.53615" lon="6.85262">
        <ele>3229.8</ele>
        <time>2021-03-30T08:41:04Z</time>
      </trkpt>
      <trkpt lat="45.53616" lon="6.85263">
        <ele>3229.8</ele>
        <time>2021-03-30T08:41:05Z</time>
      </trkpt>
      <trkpt lat="45.53616" lon="6.85264">
        <ele>3230.7</ele>
        <time>2021-03-30T08:41:06Z</time>
      </trkpt>
      <trkpt lat="45.53616" lon="6.85265">
        <ele>3230.7</ele>
        <time>2021-03-30T08:41:07Z</time>
      </trkpt>
      <trkpt lat="45.53617" lon="6.85266">
        <ele>3230.7</ele>
        <time>2021-03-30T08:41:08Z</time>
      </trkpt>
      <trkpt lat="45.53617" lon="6.85267">
        <ele>3230.7</ele>
        <time>2021-03-30T08:41:09Z</time>
      </trkpt>
      <trkpt lat="45.53617" lon="6.85267">
        <ele>3230.7</ele>
        <time>2021-03-30T08:41:10Z</time>
      </trkpt>
      <trkpt lat="45.53617" lon="6.85267">
        <ele>3230.7</ele>
        <time>2021-03-30T08:41:11Z</time>
      </trkpt>
      <trkpt lat="45.53617" lon="6.85267">
        <ele>3230.7</ele>
        <time>2021-03-30T08:41:12Z</time>
      </trkpt>
      <trkpt lat="45.53617" lon="6.85267">
        <ele>3230.7</ele>
        <time>2021-03-30T08:41:13Z</time>
      </trkpt>
      <trkpt lat="45.53618" lon="6.85268">
        <ele>3229.7</ele>
        <time>2021-03-30T08:41:14Z</time>
      </trkpt>
      <trkpt lat="45.53618" lon="6.85268">
        <ele>3230.8</ele>
        <time>2021-03-30T08:41:15Z</time>
      </trkpt>
      <trkpt lat="45.53619" lon="6.85268">
        <ele>3230.8</ele>
        <time>2021-03-30T08:41:16Z</time>
      </trkpt>
      <trkpt lat="45.5362" lon="6.85267">
        <ele>3229.7</ele>
        <time>2021-03-30T08:41:17Z</time>
      </trkpt>
      <trkpt lat="45.53621" lon="6.85267">
        <ele>3228.8</ele>
        <time>2021-03-30T08:42:06Z</time>
      </trkpt>
      <trkpt lat="45.53622" lon="6.85266">
        <ele>3228.8</ele>
        <time>2021-03-30T08:42:07Z</time>
      </trkpt>
      <trkpt lat="45.53624" lon="6.85265">
        <ele>3227.9</ele>
        <time>2021-03-30T08:42:08Z</time>
      </trkpt>
      <trkpt lat="45.53625" lon="6.85264">
        <ele>3227.9</ele>
        <time>2021-03-30T08:42:09Z</time>
      </trkpt>
      <trkpt lat="45.53626" lon="6.85264">
        <ele>3227</ele>
        <time>2021-03-30T08:42:10Z</time>
      </trkpt>
      <trkpt lat="45.53625" lon="6.85262">
        <ele>3227</ele>
        <time>2021-03-30T08:42:11Z</time>
      </trkpt>
      <trkpt lat="45.53625" lon="6.85262">
        <ele>3227</ele>
        <time>2021-03-30T08:42:12Z</time>
      </trkpt>
      <trkpt lat="45.53624" lon="6.85261">
        <ele>3227</ele>
        <time>2021-03-30T08:42:13Z</time>
      </trkpt>
      <trkpt lat="45.53624" lon="6.8526">
        <ele>3227</ele>
        <time>2021-03-30T08:42:14Z</time>
      </trkpt>
      <trkpt lat="45.53623" lon="6.85259">
        <ele>3227.3</ele>
        <time>2021-03-30T08:42:15Z</time>
      </trkpt>
      <trkpt lat="45.53623" lon="6.85258">
        <ele>3227.3</ele>
        <time>2021-03-30T08:42:16Z</time>
      </trkpt>
      <trkpt lat="45.53622" lon="6.85258">
        <ele>3227.3</ele>
        <time>2021-03-30T08:42:17Z</time>
      </trkpt>
      <trkpt lat="45.53621" lon="6.85257">
        <ele>3227.3</ele>
        <time>2021-03-30T08:42:18Z</time>
      </trkpt>
      <trkpt lat="45.53621" lon="6.85256">
        <ele>3227.3</ele>
        <time>2021-03-30T08:42:19Z</time>
      </trkpt>
      <trkpt lat="45.5362" lon="6.85255">
        <ele>3228.3</ele>
        <time>2021-03-30T08:42:38Z</time>
      </trkpt>
      <trkpt lat="45.5362" lon="6.85254">
        <ele>3227.9</ele>
        <time>2021-03-30T08:42:39Z</time>
      </trkpt>
      <trkpt lat="45.53619" lon="6.85254">
        <ele>3227.9</ele>
        <time>2021-03-30T08:42:40Z</time>
      </trkpt>
      <trkpt lat="45.53619" lon="6.85253">
        <ele>3227.9</ele>
        <time>2021-03-30T08:42:41Z</time>
      </trkpt>
      <trkpt lat="45.53618" lon="6.85252">
        <ele>3227.9</ele>
        <time>2021-03-30T08:42:42Z</time>
      </trkpt>
      <trkpt lat="45.53618" lon="6.85251">
        <ele>3227.9</ele>
        <time>2021-03-30T08:42:43Z</time>
      </trkpt>
      <trkpt lat="45.53617" lon="6.85251">
        <ele>3228.9</ele>
        <time>2021-03-30T08:42:44Z</time>
      </trkpt>
      <trkpt lat="45.53617" lon="6.85251">
        <ele>3228.9</ele>
        <time>2021-03-30T08:42:45Z</time>
      </trkpt>
      <trkpt lat="45.53616" lon="6.85251">
        <ele>3228.9</ele>
        <time>2021-03-30T08:42:46Z</time>
      </trkpt>
      <trkpt lat="45.53616" lon="6.85251">
        <ele>3228.9</ele>
        <time>2021-03-30T08:42:47Z</time>
      </trkpt>
      <trkpt lat="45.53616" lon="6.85251">
        <ele>3228.9</ele>
        <time>2021-03-30T08:42:48Z</time>
      </trkpt>
      <trkpt lat="45.53615" lon="6.85251">
        <ele>3228.9</ele>
        <time>2021-03-30T08:42:49Z</time>
      </trkpt>
      <trkpt lat="45.53615" lon="6.85251">
        <ele>3228.9</ele>
        <time>2021-03-30T08:42:50Z</time>
      </trkpt>
      <trkpt lat="45.53615" lon="6.85251">
        <ele>3228.9</ele>
        <time>2021-03-30T08:42:51Z</time>
      </trkpt>
      <trkpt lat="45.53614" lon="6.85251">
        <ele>3230</ele>
        <time>2021-03-30T08:42:52Z</time>
      </trkpt>
      <trkpt lat="45.53614" lon="6.85251">
        <ele>3230</ele>
        <time>2021-03-30T08:43:55Z</time>
      </trkpt>
      <trkpt lat="45.53613" lon="6.85251">
        <ele>3230</ele>
        <time>2021-03-30T08:43:56Z</time>
      </trkpt>
      <trkpt lat="45.53613" lon="6.85251">
        <ele>3230</ele>
        <time>2021-03-30T08:43:57Z</time>
      </trkpt>
      <trkpt lat="45.53613" lon="6.85251">
        <ele>3230</ele>
        <time>2021-03-30T08:43:58Z</time>
      </trkpt>
      <trkpt lat="45.53612" lon="6.85251">
        <ele>3230</ele>
        <time>2021-03-30T08:43:59Z</time>
      </trkpt>
      <trkpt lat="45.53612" lon="6.85251">
        <ele>3230</ele>
        <time>2021-03-30T08:44:00Z</time>
      </trkpt>
      <trkpt lat="45.53611" lon="6.85251">
        <ele>3231</ele>
        <time>2021-03-30T08:44:01Z</time>
      </trkpt>
      <trkpt lat="45.53611" lon="6.85251">
        <ele>3231</ele>
        <time>2021-03-30T08:44:02Z</time>
      </trkpt>
      <trkpt lat="45.53611" lon="6.85251">
        <ele>3231</ele>
        <time>2021-03-30T08:44:03Z</time>
      </trkpt>
      <trkpt lat="45.5361" lon="6.85251">
        <ele>3231</ele>
        <time>2021-03-30T08:44:04Z</time>
      </trkpt>
      <trkpt lat="45.5361" lon="6.85251">
        <ele>3231</ele>
        <time>2021-03-30T08:44:05Z</time>
      </trkpt>
      <trkpt lat="45.53609" lon="6.85251">
        <ele>3231</ele>
        <time>2021-03-30T08:44:06Z</time>
      </trkpt>
      <trkpt lat="45.53609" lon="6.85252">
        <ele>3231</ele>
        <time>2021-03-30T08:44:07Z</time>
      </trkpt>
      <trkpt lat="45.5361" lon="6.85254">
        <ele>3231</ele>
        <time>2021-03-30T08:44:08Z</time>
      </trkpt>
      <trkpt lat="45.5361" lon="6.85255">
        <ele>3231</ele>
        <time>2021-03-30T08:44:09Z</time>
      </trkpt>
      <trkpt lat="45.5361" lon="6.85256">
        <ele>3231.3</ele>
        <time>2021-03-30T08:44:10Z</time>
      </trkpt>
      <trkpt lat="45.53611" lon="6.85257">
        <ele>3231.3</ele>
        <time>2021-03-30T08:44:11Z</time>
      </trkpt>
      <trkpt lat="45.53611" lon="6.85258">
        <ele>3231.3</ele>
        <time>2021-03-30T08:44:12Z</time>
      </trkpt>
      <trkpt lat="45.53611" lon="6.85259">
        <ele>3231.3</ele>
        <time>2021-03-30T08:44:13Z</time>
      </trkpt>
      <trkpt lat="45.53611" lon="6.8526">
        <ele>3231.9</ele>
        <time>2021-03-30T08:44:14Z</time>
      </trkpt>
      <trkpt lat="45.53611" lon="6.8526">
        <ele>3231.9</ele>
        <time>2021-03-30T08:44:15Z</time>
      </trkpt>
      <trkpt lat="45.53611" lon="6.85262">
        <ele>3231.9</ele>
        <time>2021-03-30T08:44:16Z</time>
      </trkpt>
      <trkpt lat="45.53611" lon="6.85263">
        <ele>3231.9</ele>
        <time>2021-03-30T08:44:17Z</time>
      </trkpt>
      <trkpt lat="45.53611" lon="6.85264">
        <ele>3232.7</ele>
        <time>2021-03-30T08:44:18Z</time>
      </trkpt>
      <trkpt lat="45.53611" lon="6.85265">
        <ele>3232.7</ele>
        <time>2021-03-30T08:44:19Z</time>
      </trkpt>
      <trkpt lat="45.53611" lon="6.85266">
        <ele>3232.7</ele>
        <time>2021-03-30T08:44:20Z</time>
      </trkpt>
      <trkpt lat="45.53611" lon="6.85267">
        <ele>3232.7</ele>
        <time>2021-03-30T08:44:21Z</time>
      </trkpt>
      <trkpt lat="45.53611" lon="6.85268">
        <ele>3233.9</ele>
        <time>2021-03-30T08:44:22Z</time>
      </trkpt>
      <trkpt lat="45.53611" lon="6.85268">
        <ele>3233.9</ele>
        <time>2021-03-30T08:44:23Z</time>
      </trkpt>
      <trkpt lat="45.53611" lon="6.85269">
        <ele>3233.9</ele>
        <time>2021-03-30T08:44:24Z</time>
      </trkpt>
      <trkpt lat="45.53611" lon="6.8527">
        <ele>3233.9</ele>
        <time>2021-03-30T08:44:25Z</time>
      </trkpt>
      <trkpt lat="45.53612" lon="6.85271">
        <ele>3232.8</ele>
        <time>2021-03-30T08:44:26Z</time>
      </trkpt>
      <trkpt lat="45.53612" lon="6.85272">
        <ele>3232.8</ele>
        <time>2021-03-30T08:44:27Z</time>
      </trkpt>
      <trkpt lat="45.53612" lon="6.85273">
        <ele>3234.2</ele>
        <time>2021-03-30T08:44:28Z</time>
      </trkpt>
      <trkpt lat="45.53612" lon="6.85274">
        <ele>3234.2</ele>
        <time>2021-03-30T08:44:29Z</time>
      </trkpt>
      <trkpt lat="45.53612" lon="6.85275">
        <ele>3234.2</ele>
        <time>2021-03-30T08:44:30Z</time>
      </trkpt>
      <trkpt lat="45.53612" lon="6.85276">
        <ele>3234.2</ele>
        <time>2021-03-30T08:44:31Z</time>
      </trkpt>
      <trkpt lat="45.53612" lon="6.85277">
        <ele>3235.8</ele>
        <time>2021-03-30T08:44:32Z</time>
      </trkpt>
      <trkpt lat="45.53613" lon="6.85278">
        <ele>3235.8</ele>
        <time>2021-03-30T08:44:33Z</time>
      </trkpt>
      <trkpt lat="45.53613" lon="6.85279">
        <ele>3235.8</ele>
        <time>2021-03-30T08:44:34Z</time>
      </trkpt>
      <trkpt lat="45.53613" lon="6.8528">
        <ele>3235.8</ele>
        <time>2021-03-30T08:44:35Z</time>
      </trkpt>
      <trkpt lat="45.53613" lon="6.85281">
        <ele>3235.8</ele>
        <time>2021-03-30T08:44:36Z</time>
      </trkpt>
      <trkpt lat="45.53613" lon="6.85281">
        <ele>3237.5</ele>
        <time>2021-03-30T08:44:37Z</time>
      </trkpt>
      <trkpt lat="45.53613" lon="6.85282">
        <ele>3237.5</ele>
        <time>2021-03-30T08:44:38Z</time>
      </trkpt>
      <trkpt lat="45.53613" lon="6.85282">
        <ele>3237.5</ele>
        <time>2021-03-30T08:44:39Z</time>
      </trkpt>
      <trkpt lat="45.53613" lon="6.85283">
        <ele>3237.5</ele>
        <time>2021-03-30T08:44:40Z</time>
      </trkpt>
      <trkpt lat="45.53613" lon="6.85284">
        <ele>3237.5</ele>
        <time>2021-03-30T08:44:41Z</time>
      </trkpt>
      <trkpt lat="45.53613" lon="6.85285">
        <ele>3237.5</ele>
        <time>2021-03-30T08:44:42Z</time>
      </trkpt>
      <trkpt lat="45.53613" lon="6.85286">
        <ele>3239.2</ele>
        <time>2021-03-30T08:44:43Z</time>
      </trkpt>
      <trkpt lat="45.53613" lon="6.85286">
        <ele>3239.2</ele>
        <time>2021-03-30T08:44:44Z</time>
      </trkpt>
      <trkpt lat="45.53612" lon="6.85287">
        <ele>3239.2</ele>
        <time>2021-03-30T08:44:45Z</time>
      </trkpt>
      <trkpt lat="45.53612" lon="6.85287">
        <ele>3239.2</ele>
        <time>2021-03-30T08:44:46Z</time>
      </trkpt>
      <trkpt lat="45.53612" lon="6.85287">
        <ele>3239.2</ele>
        <time>2021-03-30T08:44:47Z</time>
      </trkpt>
      <trkpt lat="45.53612" lon="6.85288">
        <ele>3239.2</ele>
        <time>2021-03-30T08:44:48Z</time>
      </trkpt>
      <trkpt lat="45.53611" lon="6.85288">
        <ele>3240.4</ele>
        <time>2021-03-30T08:44:49Z</time>
      </trkpt>
      <trkpt lat="45.53611" lon="6.85292">
        <ele>3242.3</ele>
        <time>2021-03-30T08:44:50Z</time>
      </trkpt>
      <trkpt lat="45.53612" lon="6.85295">
        <ele>3243</ele>
        <time>2021-03-30T08:44:51Z</time>
      </trkpt>
      <trkpt lat="45.53612" lon="6.85298">
        <ele>3244.9</ele>
        <time>2021-03-30T08:44:52Z</time>
      </trkpt>
      <trkpt lat="45.53612" lon="6.85301">
        <ele>3244.9</ele>
        <time>2021-03-30T08:45:17Z</time>
      </trkpt>
      <trkpt lat="45.53613" lon="6.85304">
        <ele>3246.8</ele>
        <time>2021-03-30T08:45:18Z</time>
      </trkpt>
      <trkpt lat="45.53613" lon="6.85308">
        <ele>3248.8</ele>
        <time>2021-03-30T08:45:19Z</time>
      </trkpt>
      <trkpt lat="45.53613" lon="6.85311">
        <ele>3248.8</ele>
        <time>2021-03-30T08:45:20Z</time>
      </trkpt>
      <trkpt lat="45.53614" lon="6.85314">
        <ele>3250.6</ele>
        <time>2021-03-30T08:45:21Z</time>
      </trkpt>
      <trkpt lat="45.53614" lon="6.85315">
        <ele>3250.6</ele>
        <time>2021-03-30T08:45:22Z</time>
      </trkpt>
      <trkpt lat="45.53614" lon="6.85315">
        <ele>3252.4</ele>
        <time>2021-03-30T08:45:23Z</time>
      </trkpt>
      <trkpt lat="45.53614" lon="6.85316">
        <ele>3252.4</ele>
        <time>2021-03-30T08:45:24Z</time>
      </trkpt>
      <trkpt lat="45.53614" lon="6.85317">
        <ele>3252.4</ele>
        <time>2021-03-30T08:45:25Z</time>
      </trkpt>
      <trkpt lat="45.53614" lon="6.85317">
        <ele>3252.4</ele>
        <time>2021-03-30T08:45:26Z</time>
      </trkpt>
      <trkpt lat="45.53614" lon="6.85318">
        <ele>3252.4</ele>
        <time>2021-03-30T08:45:27Z</time>
      </trkpt>
      <trkpt lat="45.53614" lon="6.85319">
        <ele>3252.4</ele>
        <time>2021-03-30T08:45:28Z</time>
      </trkpt>
      <trkpt lat="45.53614" lon="6.8532">
        <ele>3254.1</ele>
        <time>2021-03-30T08:45:29Z</time>
      </trkpt>
      <trkpt lat="45.53614" lon="6.85321">
        <ele>3254.1</ele>
        <time>2021-03-30T08:45:30Z</time>
      </trkpt>
      <trkpt lat="45.53614" lon="6.85322">
        <ele>3254.1</ele>
        <time>2021-03-30T08:45:31Z</time>
      </trkpt>
      <trkpt lat="45.53614" lon="6.85323">
        <ele>3254.1</ele>
        <time>2021-03-30T08:45:32Z</time>
      </trkpt>
      <trkpt lat="45.53614" lon="6.85325">
        <ele>3255.7</ele>
        <time>2021-03-30T08:45:33Z</time>
      </trkpt>
      <trkpt lat="45.53615" lon="6.85327">
        <ele>3254.3</ele>
        <time>2021-03-30T08:45:34Z</time>
      </trkpt>
      <trkpt lat="45.53615" lon="6.8533">
        <ele>3255.8</ele>
        <time>2021-03-30T08:45:35Z</time>
      </trkpt>
      <trkpt lat="45.53616" lon="6.85332">
        <ele>3255.8</ele>
        <time>2021-03-30T08:45:36Z</time>
      </trkpt>
      <trkpt lat="45.53616" lon="6.85334">
        <ele>3257.4</ele>
        <time>2021-03-30T08:45:37Z</time>
      </trkpt>
      <trkpt lat="45.53617" lon="6.85336">
        <ele>3257.4</ele>
        <time>2021-03-30T08:45:38Z</time>
      </trkpt>
      <trkpt lat="45.53617" lon="6.85338">
        <ele>3258.9</ele>
        <time>2021-03-30T08:45:39Z</time>
      </trkpt>
      <trkpt lat="45.53618" lon="6.85341">
        <ele>3257.5</ele>
        <time>2021-03-30T08:45:40Z</time>
      </trkpt>
      <trkpt lat="45.53618" lon="6.85343">
        <ele>3259.2</ele>
        <time>2021-03-30T08:45:41Z</time>
      </trkpt>
      <trkpt lat="45.53619" lon="6.85345">
        <ele>3259.2</ele>
        <time>2021-03-30T08:46:16Z</time>
      </trkpt>
      <trkpt lat="45.53619" lon="6.85347">
        <ele>3260.9</ele>
        <time>2021-03-30T08:46:17Z</time>
      </trkpt>
      <trkpt lat="45.5362" lon="6.85349">
        <ele>3260.9</ele>
        <time>2021-03-30T08:46:18Z</time>
      </trkpt>
      <trkpt lat="45.5362" lon="6.85352">
        <ele>3262.7</ele>
        <time>2021-03-30T08:46:19Z</time>
      </trkpt>
      <trkpt lat="45.53621" lon="6.85354">
        <ele>3263.3</ele>
        <time>2021-03-30T08:46:20Z</time>
      </trkpt>
      <trkpt lat="45.53621" lon="6.85354">
        <ele>3263.3</ele>
        <time>2021-03-30T08:46:21Z</time>
      </trkpt>
      <trkpt lat="45.53621" lon="6.85354">
        <ele>3263.3</ele>
        <time>2021-03-30T08:46:22Z</time>
      </trkpt>
      <trkpt lat="45.53621" lon="6.85354">
        <ele>3263.3</ele>
        <time>2021-03-30T08:46:23Z</time>
      </trkpt>
      <trkpt lat="45.53621" lon="6.85354">
        <ele>3263.3</ele>
        <time>2021-03-30T08:46:24Z</time>
      </trkpt>
      <trkpt lat="45.53621" lon="6.85354">
        <ele>3263.3</ele>
        <time>2021-03-30T08:46:25Z</time>
      </trkpt>
      <trkpt lat="45.53622" lon="6.85355">
        <ele>3263.3</ele>
        <time>2021-03-30T08:46:26Z</time>
      </trkpt>
      <trkpt lat="45.53622" lon="6.85356">
        <ele>3263.3</ele>
        <time>2021-03-30T08:46:27Z</time>
      </trkpt>
      <trkpt lat="45.53622" lon="6.85357">
        <ele>3263.3</ele>
        <time>2021-03-30T08:46:28Z</time>
      </trkpt>
      <trkpt lat="45.53622" lon="6.85358">
        <ele>3263.3</ele>
        <time>2021-03-30T08:46:29Z</time>
      </trkpt>
      <trkpt lat="45.53623" lon="6.85359">
        <ele>3265.4</ele>
        <time>2021-03-30T08:46:30Z</time>
      </trkpt>
      <trkpt lat="45.53623" lon="6.85359">
        <ele>3265.4</ele>
        <time>2021-03-30T08:46:31Z</time>
      </trkpt>
      <trkpt lat="45.53623" lon="6.8536">
        <ele>3265.4</ele>
        <time>2021-03-30T08:46:32Z</time>
      </trkpt>
      <trkpt lat="45.53623" lon="6.8536">
        <ele>3265.4</ele>
        <time>2021-03-30T08:46:33Z</time>
      </trkpt>
      <trkpt lat="45.53623" lon="6.85361">
        <ele>3265.4</ele>
        <time>2021-03-30T08:46:34Z</time>
      </trkpt>
      <trkpt lat="45.53623" lon="6.85362">
        <ele>3265.4</ele>
        <time>2021-03-30T08:46:35Z</time>
      </trkpt>
      <trkpt lat="45.53624" lon="6.85362">
        <ele>3264.1</ele>
        <time>2021-03-30T08:46:36Z</time>
      </trkpt>
      <trkpt lat="45.53624" lon="6.85362">
        <ele>3266.1</ele>
        <time>2021-03-30T08:46:37Z</time>
      </trkpt>
      <trkpt lat="45.53624" lon="6.85363">
        <ele>3266.1</ele>
        <time>2021-03-30T08:46:38Z</time>
      </trkpt>
      <trkpt lat="45.53624" lon="6.85364">
        <ele>3266.1</ele>
        <time>2021-03-30T08:46:39Z</time>
      </trkpt>
      <trkpt lat="45.53623" lon="6.85365">
        <ele>3267.4</ele>
        <time>2021-03-30T08:46:40Z</time>
      </trkpt>
      <trkpt lat="45.53623" lon="6.85365">
        <ele>3267.4</ele>
        <time>2021-03-30T08:46:41Z</time>
      </trkpt>
      <trkpt lat="45.53624" lon="6.85366">
        <ele>3266.1</ele>
        <time>2021-03-30T08:46:42Z</time>
      </trkpt>
      <trkpt lat="45.53624" lon="6.85367">
        <ele>3268.1</ele>
        <time>2021-03-30T08:46:43Z</time>
      </trkpt>
      <trkpt lat="45.53624" lon="6.85368">
        <ele>3268.1</ele>
        <time>2021-03-30T08:46:44Z</time>
      </trkpt>
      <trkpt lat="45.53624" lon="6.85368">
        <ele>3268.1</ele>
        <time>2021-03-30T08:46:45Z</time>
      </trkpt>
      <trkpt lat="45.53625" lon="6.85368">
        <ele>3268.1</ele>
        <time>2021-03-30T08:46:46Z</time>
      </trkpt>
      <trkpt lat="45.53625" lon="6.85369">
        <ele>3268.1</ele>
        <time>2021-03-30T08:46:47Z</time>
      </trkpt>
      <trkpt lat="45.53626" lon="6.85369">
        <ele>3268.1</ele>
        <time>2021-03-30T08:46:48Z</time>
      </trkpt>
      <trkpt lat="45.53626" lon="6.85371">
        <ele>3268.1</ele>
        <time>2021-03-30T08:46:49Z</time>
      </trkpt>
      <trkpt lat="45.53627" lon="6.85372">
        <ele>3268.7</ele>
        <time>2021-03-30T08:46:50Z</time>
      </trkpt>
      <trkpt lat="45.53627" lon="6.85372">
        <ele>3268.7</ele>
        <time>2021-03-30T08:46:51Z</time>
      </trkpt>
      <trkpt lat="45.53627" lon="6.85373">
        <ele>3268.7</ele>
        <time>2021-03-30T08:46:52Z</time>
      </trkpt>
      <trkpt lat="45.53627" lon="6.85374">
        <ele>3268.7</ele>
        <time>2021-03-30T08:46:53Z</time>
      </trkpt>
      <trkpt lat="45.53628" lon="6.85375">
        <ele>3268.7</ele>
        <time>2021-03-30T08:46:54Z</time>
      </trkpt>
      <trkpt lat="45.53628" lon="6.85376">
        <ele>3270.5</ele>
        <time>2021-03-30T08:47:02Z</time>
      </trkpt>
      <trkpt lat="45.53628" lon="6.85376">
        <ele>3270.5</ele>
        <time>2021-03-30T08:47:03Z</time>
      </trkpt>
      <trkpt lat="45.53628" lon="6.85377">
        <ele>3270.5</ele>
        <time>2021-03-30T08:47:04Z</time>
      </trkpt>
      <trkpt lat="45.53629" lon="6.85378">
        <ele>3270.5</ele>
        <time>2021-03-30T08:47:05Z</time>
      </trkpt>
      <trkpt lat="45.53629" lon="6.85379">
        <ele>3270.5</ele>
        <time>2021-03-30T08:47:06Z</time>
      </trkpt>
      <trkpt lat="45.53629" lon="6.8538">
        <ele>3270.5</ele>
        <time>2021-03-30T08:47:07Z</time>
      </trkpt>
      <trkpt lat="45.53629" lon="6.8538">
        <ele>3272.4</ele>
        <time>2021-03-30T08:47:08Z</time>
      </trkpt>
      <trkpt lat="45.53629" lon="6.85381">
        <ele>3272.4</ele>
        <time>2021-03-30T08:47:09Z</time>
      </trkpt>
      <trkpt lat="45.53629" lon="6.85381">
        <ele>3272.4</ele>
        <time>2021-03-30T08:47:10Z</time>
      </trkpt>
      <trkpt lat="45.53629" lon="6.85382">
        <ele>3272.4</ele>
        <time>2021-03-30T08:47:11Z</time>
      </trkpt>
      <trkpt lat="45.5363" lon="6.85382">
        <ele>3271.2</ele>
        <time>2021-03-30T08:47:12Z</time>
      </trkpt>
      <trkpt lat="45.5363" lon="6.85382">
        <ele>3271.2</ele>
        <time>2021-03-30T08:47:13Z</time>
      </trkpt>
      <trkpt lat="45.53629" lon="6.85383">
        <ele>3272.4</ele>
        <time>2021-03-30T08:47:14Z</time>
      </trkpt>
      <trkpt lat="45.53629" lon="6.85384">
        <ele>3272.4</ele>
        <time>2021-03-30T08:47:15Z</time>
      </trkpt>
      <trkpt lat="45.5363" lon="6.85386">
        <ele>3273.1</ele>
        <time>2021-03-30T08:47:16Z</time>
      </trkpt>
      <trkpt lat="45.53631" lon="6.85389">
        <ele>3275.1</ele>
        <time>2021-03-30T08:47:22Z</time>
      </trkpt>
      <trkpt lat="45.53631" lon="6.85391">
        <ele>3275.1</ele>
        <time>2021-03-30T08:47:23Z</time>
      </trkpt>
      <trkpt lat="45.53632" lon="6.85393">
        <ele>3277.2</ele>
        <time>2021-03-30T08:47:24Z</time>
      </trkpt>
      <trkpt lat="45.53632" lon="6.85395">
        <ele>3277.2</ele>
        <time>2021-03-30T08:47:25Z</time>
      </trkpt>
      <trkpt lat="45.53632" lon="6.85397">
        <ele>3279.4</ele>
        <time>2021-03-30T08:47:26Z</time>
      </trkpt>
      <trkpt lat="45.53633" lon="6.854">
        <ele>3278.1</ele>
        <time>2021-03-30T08:47:27Z</time>
      </trkpt>
      <trkpt lat="45.53633" lon="6.85402">
        <ele>3280.2</ele>
        <time>2021-03-30T08:47:28Z</time>
      </trkpt>
      <trkpt lat="45.53634" lon="6.85404">
        <ele>3280.2</ele>
        <time>2021-03-30T08:47:29Z</time>
      </trkpt>
      <trkpt lat="45.53634" lon="6.85406">
        <ele>3282.2</ele>
        <time>2021-03-30T08:47:30Z</time>
      </trkpt>
      <trkpt lat="45.53635" lon="6.85408">
        <ele>3282.2</ele>
        <time>2021-03-30T08:47:31Z</time>
      </trkpt>
      <trkpt lat="45.53635" lon="6.85411">
        <ele>3284.3</ele>
        <time>2021-03-30T08:49:30Z</time>
      </trkpt>
      <trkpt lat="45.53636" lon="6.85413">
        <ele>3282.8</ele>
        <time>2021-03-30T08:49:31Z</time>
      </trkpt>
      <trkpt lat="45.53636" lon="6.85415">
        <ele>3284.8</ele>
        <time>2021-03-30T08:49:32Z</time>
      </trkpt>
      <trkpt lat="45.53637" lon="6.85417">
        <ele>3284.8</ele>
        <time>2021-03-30T08:49:33Z</time>
      </trkpt>
      <trkpt lat="45.53637" lon="6.85419">
        <ele>3286.7</ele>
        <time>2021-03-30T08:49:34Z</time>
      </trkpt>
      <trkpt lat="45.53638" lon="6.85422">
        <ele>3286.7</ele>
        <time>2021-03-30T08:49:35Z</time>
      </trkpt>
      <trkpt lat="45.53638" lon="6.85424">
        <ele>3288.5</ele>
        <time>2021-03-30T08:49:36Z</time>
      </trkpt>
      <trkpt lat="45.53638" lon="6.85423">
        <ele>3288.5</ele>
        <time>2021-03-30T08:49:37Z</time>
      </trkpt>
      <trkpt lat="45.53638" lon="6.85423">
        <ele>3288.5</ele>
        <time>2021-03-30T08:49:38Z</time>
      </trkpt>
      <trkpt lat="45.53638" lon="6.85423">
        <ele>3288.5</ele>
        <time>2021-03-30T08:49:39Z</time>
      </trkpt>
      <trkpt lat="45.53637" lon="6.85423">
        <ele>3288.5</ele>
        <time>2021-03-30T08:49:40Z</time>
      </trkpt>
      <trkpt lat="45.53637" lon="6.85423">
        <ele>3288.5</ele>
        <time>2021-03-30T08:49:41Z</time>
      </trkpt>
      <trkpt lat="45.53636" lon="6.85423">
        <ele>3288.5</ele>
        <time>2021-03-30T08:49:42Z</time>
      </trkpt>
      <trkpt lat="45.53635" lon="6.85422">
        <ele>3288.2</ele>
        <time>2021-03-30T08:49:43Z</time>
      </trkpt>
      <trkpt lat="45.53635" lon="6.85422">
        <ele>3288.2</ele>
        <time>2021-03-30T08:49:44Z</time>
      </trkpt>
      <trkpt lat="45.53634" lon="6.85422">
        <ele>3288.2</ele>
        <time>2021-03-30T08:49:45Z</time>
      </trkpt>
      <trkpt lat="45.53634" lon="6.85422">
        <ele>3288.2</ele>
        <time>2021-03-30T08:49:46Z</time>
      </trkpt>
      <trkpt lat="45.53633" lon="6.85422">
        <ele>3288.2</ele>
        <time>2021-03-30T08:49:47Z</time>
      </trkpt>
      <trkpt lat="45.53633" lon="6.85422">
        <ele>3288.2</ele>
        <time>2021-03-30T08:49:48Z</time>
      </trkpt>
      <trkpt lat="45.53632" lon="6.85422">
        <ele>3289.6</ele>
        <time>2021-03-30T08:49:49Z</time>
      </trkpt>
      <trkpt lat="45.53631" lon="6.85423">
        <ele>3291.5</ele>
        <time>2021-03-30T08:49:50Z</time>
      </trkpt>
      <trkpt lat="45.53631" lon="6.85424">
        <ele>3291.5</ele>
        <time>2021-03-30T08:49:51Z</time>
      </trkpt>
      <trkpt lat="45.5363" lon="6.85424">
        <ele>3291.5</ele>
        <time>2021-03-30T08:49:52Z</time>
      </trkpt>
      <trkpt lat="45.5363" lon="6.85425">
        <ele>3291.5</ele>
        <time>2021-03-30T08:49:53Z</time>
      </trkpt>
      <trkpt lat="45.53629" lon="6.85426">
        <ele>3292.9</ele>
        <time>2021-03-30T08:49:54Z</time>
      </trkpt>
      <trkpt lat="45.53629" lon="6.85426">
        <ele>3292.9</ele>
        <time>2021-03-30T08:49:55Z</time>
      </trkpt>
      <trkpt lat="45.53628" lon="6.85427">
        <ele>3294.8</ele>
        <time>2021-03-30T08:49:56Z</time>
      </trkpt>
      <trkpt lat="45.53628" lon="6.85428">
        <ele>3294.8</ele>
        <time>2021-03-30T08:50:57Z</time>
      </trkpt>
      <trkpt lat="45.53627" lon="6.85429">
        <ele>3294.8</ele>
        <time>2021-03-30T08:50:58Z</time>
      </trkpt>
      <trkpt lat="45.53626" lon="6.85429">
        <ele>3296.2</ele>
        <time>2021-03-30T08:50:59Z</time>
      </trkpt>
      <trkpt lat="45.53626" lon="6.8543">
        <ele>3296.2</ele>
        <time>2021-03-30T08:51:00Z</time>
      </trkpt>
      <trkpt lat="45.53625" lon="6.85431">
        <ele>3296.2</ele>
        <time>2021-03-30T08:51:01Z</time>
      </trkpt>
      <trkpt lat="45.53625" lon="6.85431">
        <ele>3298.1</ele>
        <time>2021-03-30T08:51:02Z</time>
      </trkpt>
      <trkpt lat="45.53624" lon="6.85432">
        <ele>3298.1</ele>
        <time>2021-03-30T08:51:03Z</time>
      </trkpt>
      <trkpt lat="45.53624" lon="6.85433">
        <ele>3298.1</ele>
        <time>2021-03-30T08:51:04Z</time>
      </trkpt>
      <trkpt lat="45.53623" lon="6.85434">
        <ele>3299.6</ele>
        <time>2021-03-30T08:51:05Z</time>
      </trkpt>
      <trkpt lat="45.53623" lon="6.85434">
        <ele>3299.6</ele>
        <time>2021-03-30T08:51:06Z</time>
      </trkpt>
      <trkpt lat="45.53622" lon="6.85436">
        <ele>3301.6</ele>
        <time>2021-03-30T08:51:07Z</time>
      </trkpt>
      <trkpt lat="45.53622" lon="6.85437">
        <ele>3301.6</ele>
        <time>2021-03-30T08:51:08Z</time>
      </trkpt>
      <trkpt lat="45.53622" lon="6.85438">
        <ele>3301.6</ele>
        <time>2021-03-30T08:51:13Z</time>
      </trkpt>
      <trkpt lat="45.53623" lon="6.85438">
        <ele>3301.6</ele>
        <time>2021-03-30T08:51:14Z</time>
      </trkpt>
      <trkpt lat="45.53623" lon="6.85439">
        <ele>3301.6</ele>
        <time>2021-03-30T08:51:15Z</time>
      </trkpt>
      <trkpt lat="45.53623" lon="6.8544">
        <ele>3303.6</ele>
        <time>2021-03-30T08:51:16Z</time>
      </trkpt>
      <trkpt lat="45.53623" lon="6.85441">
        <ele>3303.6</ele>
        <time>2021-03-30T08:51:17Z</time>
      </trkpt>
      <trkpt lat="45.53623" lon="6.85442">
        <ele>3303.6</ele>
        <time>2021-03-30T08:51:18Z</time>
      </trkpt>
      <trkpt lat="45.53623" lon="6.85443">
        <ele>3303.6</ele>
        <time>2021-03-30T08:51:19Z</time>
      </trkpt>
      <trkpt lat="45.53623" lon="6.85443">
        <ele>3303.6</ele>
        <time>2021-03-30T08:51:20Z</time>
      </trkpt>
      <trkpt lat="45.53623" lon="6.85443">
        <ele>3303.6</ele>
        <time>2021-03-30T08:51:21Z</time>
      </trkpt>
      <trkpt lat="45.53623" lon="6.85444">
        <ele>3305.6</ele>
        <time>2021-03-30T08:51:22Z</time>
      </trkpt>
      <trkpt lat="45.53623" lon="6.85445">
        <ele>3305.6</ele>
        <time>2021-03-30T08:51:23Z</time>
      </trkpt>
      <trkpt lat="45.53624" lon="6.85445">
        <ele>3304</ele>
        <time>2021-03-30T08:51:24Z</time>
      </trkpt>
      <trkpt lat="45.53624" lon="6.85445">
        <ele>3304</ele>
        <time>2021-03-30T08:51:25Z</time>
      </trkpt>
      <trkpt lat="45.53624" lon="6.85445">
        <ele>3304</ele>
        <time>2021-03-30T08:51:26Z</time>
      </trkpt>
      <trkpt lat="45.53625" lon="6.85445">
        <ele>3304</ele>
        <time>2021-03-30T08:51:27Z</time>
      </trkpt>
      <trkpt lat="45.53625" lon="6.85448">
        <ele>3304</ele>
        <time>2021-03-30T08:51:28Z</time>
      </trkpt>
      <trkpt lat="45.53625" lon="6.8545">
        <ele>3306</ele>
        <time>2021-03-30T08:51:29Z</time>
      </trkpt>
      <trkpt lat="45.53625" lon="6.85452">
        <ele>3306</ele>
        <time>2021-03-30T08:52:36Z</time>
      </trkpt>
      <trkpt lat="45.53625" lon="6.85454">
        <ele>3307.9</ele>
        <time>2021-03-30T08:52:37Z</time>
      </trkpt>
      <trkpt lat="45.53625" lon="6.85456">
        <ele>3307.9</ele>
        <time>2021-03-30T08:52:38Z</time>
      </trkpt>
      <trkpt lat="45.53625" lon="6.85458">
        <ele>3309.7</ele>
        <time>2021-03-30T08:52:39Z</time>
      </trkpt>
      <trkpt lat="45.53625" lon="6.85458">
        <ele>3309.7</ele>
        <time>2021-03-30T08:52:40Z</time>
      </trkpt>
      <trkpt lat="45.53624" lon="6.85458">
        <ele>3309.7</ele>
        <time>2021-03-30T08:52:41Z</time>
      </trkpt>
      <trkpt lat="45.53624" lon="6.85458">
        <ele>3309.7</ele>
        <time>2021-03-30T08:52:42Z</time>
      </trkpt>
      <trkpt lat="45.53624" lon="6.85458">
        <ele>3309.7</ele>
        <time>2021-03-30T08:52:43Z</time>
      </trkpt>
      <trkpt lat="45.53624" lon="6.85458">
        <ele>3309.7</ele>
        <time>2021-03-30T08:52:44Z</time>
      </trkpt>
      <trkpt lat="45.53623" lon="6.85459">
        <ele>3311.2</ele>
        <time>2021-03-30T08:52:45Z</time>
      </trkpt>
      <trkpt lat="45.53623" lon="6.85459">
        <ele>3311.2</ele>
        <time>2021-03-30T08:52:46Z</time>
      </trkpt>
      <trkpt lat="45.53623" lon="6.85459">
        <ele>3311.2</ele>
        <time>2021-03-30T08:52:47Z</time>
      </trkpt>
      <trkpt lat="45.53622" lon="6.85458">
        <ele>3311.2</ele>
        <time>2021-03-30T08:52:48Z</time>
      </trkpt>
      <trkpt lat="45.53622" lon="6.85458">
        <ele>3311.2</ele>
        <time>2021-03-30T08:52:49Z</time>
      </trkpt>
      <trkpt lat="45.53621" lon="6.85458">
        <ele>3311.2</ele>
        <time>2021-03-30T08:52:50Z</time>
      </trkpt>
      <trkpt lat="45.53621" lon="6.85459">
        <ele>3311.2</ele>
        <time>2021-03-30T08:52:51Z</time>
      </trkpt>
      <trkpt lat="45.5362" lon="6.85459">
        <ele>3312.8</ele>
        <time>2021-03-30T08:52:52Z</time>
      </trkpt>
      <trkpt lat="45.5362" lon="6.85459">
        <ele>3312.8</ele>
        <time>2021-03-30T08:52:53Z</time>
      </trkpt>
      <trkpt lat="45.5362" lon="6.85458">
        <ele>3312.8</ele>
        <time>2021-03-30T08:52:54Z</time>
      </trkpt>
      <trkpt lat="45.53619" lon="6.85458">
        <ele>3312.8</ele>
        <time>2021-03-30T08:52:55Z</time>
      </trkpt>
      <trkpt lat="45.53619" lon="6.85458">
        <ele>3312.8</ele>
        <time>2021-03-30T08:52:56Z</time>
      </trkpt>
      <trkpt lat="45.53618" lon="6.85458">
        <ele>3312.8</ele>
        <time>2021-03-30T08:52:57Z</time>
      </trkpt>
      <trkpt lat="45.53618" lon="6.85457">
        <ele>3312.8</ele>
        <time>2021-03-30T08:52:58Z</time>
      </trkpt>
      <trkpt lat="45.53617" lon="6.85457">
        <ele>3314.5</ele>
        <time>2021-03-30T08:52:59Z</time>
      </trkpt>
      <trkpt lat="45.53616" lon="6.85457">
        <ele>3314.5</ele>
        <time>2021-03-30T08:53:00Z</time>
      </trkpt>
      <trkpt lat="45.53616" lon="6.85458">
        <ele>3314.5</ele>
        <time>2021-03-30T08:53:01Z</time>
      </trkpt>
      <trkpt lat="45.53615" lon="6.85458">
        <ele>3314.5</ele>
        <time>2021-03-30T08:53:02Z</time>
      </trkpt>
      <trkpt lat="45.53615" lon="6.85459">
        <ele>3314.5</ele>
        <time>2021-03-30T08:53:03Z</time>
      </trkpt>
      <trkpt lat="45.53615" lon="6.85459">
        <ele>3314.5</ele>
        <time>2021-03-30T08:53:04Z</time>
      </trkpt>
      <trkpt lat="45.53615" lon="6.8546">
        <ele>3314.5</ele>
        <time>2021-03-30T08:53:05Z</time>
      </trkpt>
      <trkpt lat="45.53615" lon="6.8546">
        <ele>3314.5</ele>
        <time>2021-03-30T08:53:06Z</time>
      </trkpt>
      <trkpt lat="45.53614" lon="6.85461">
        <ele>3316.3</ele>
        <time>2021-03-30T08:53:07Z</time>
      </trkpt>
      <trkpt lat="45.53614" lon="6.85461">
        <ele>3316.3</ele>
        <time>2021-03-30T08:53:08Z</time>
      </trkpt>
      <trkpt lat="45.53614" lon="6.85461">
        <ele>3318.1</ele>
        <time>2021-03-30T08:53:09Z</time>
      </trkpt>
      <trkpt lat="45.53614" lon="6.85462">
        <ele>3318.1</ele>
        <time>2021-03-30T08:53:10Z</time>
      </trkpt>
      <trkpt lat="45.53613" lon="6.85462">
        <ele>3318.1</ele>
        <time>2021-03-30T08:53:11Z</time>
      </trkpt>
      <trkpt lat="45.53613" lon="6.85463">
        <ele>3318.1</ele>
        <time>2021-03-30T08:53:59Z</time>
      </trkpt>
      <trkpt lat="45.53613" lon="6.85463">
        <ele>3318.1</ele>
        <time>2021-03-30T08:54:00Z</time>
      </trkpt>
      <trkpt lat="45.53613" lon="6.85464">
        <ele>3318.1</ele>
        <time>2021-03-30T08:54:01Z</time>
      </trkpt>
      <trkpt lat="45.53612" lon="6.85464">
        <ele>3318.1</ele>
        <time>2021-03-30T08:54:02Z</time>
      </trkpt>
      <trkpt lat="45.53612" lon="6.85465">
        <ele>3318.1</ele>
        <time>2021-03-30T08:54:03Z</time>
      </trkpt>
      <trkpt lat="45.53612" lon="6.85465">
        <ele>3318.1</ele>
        <time>2021-03-30T08:54:04Z</time>
      </trkpt>
      <trkpt lat="45.53612" lon="6.85467">
        <ele>3319.8</ele>
        <time>2021-03-30T08:54:05Z</time>
      </trkpt>
      <trkpt lat="45.53613" lon="6.85467">
        <ele>3319.8</ele>
        <time>2021-03-30T08:54:06Z</time>
      </trkpt>
      <trkpt lat="45.53613" lon="6.85468">
        <ele>3319.8</ele>
        <time>2021-03-30T08:54:07Z</time>
      </trkpt>
      <trkpt lat="45.53614" lon="6.85469">
        <ele>3319.8</ele>
        <time>2021-03-30T08:54:08Z</time>
      </trkpt>
      <trkpt lat="45.53614" lon="6.8547">
        <ele>3321.6</ele>
        <time>2021-03-30T08:54:21Z</time>
      </trkpt>
      <trkpt lat="45.53614" lon="6.85471">
        <ele>3321.6</ele>
        <time>2021-03-30T08:54:22Z</time>
      </trkpt>
      <trkpt lat="45.53615" lon="6.85472">
        <ele>3319.8</ele>
        <time>2021-03-30T08:54:23Z</time>
      </trkpt>
      <trkpt lat="45.53615" lon="6.85473">
        <ele>3319.8</ele>
        <time>2021-03-30T08:54:24Z</time>
      </trkpt>
      <trkpt lat="45.53615" lon="6.85474">
        <ele>3319.8</ele>
        <time>2021-03-30T08:54:25Z</time>
      </trkpt>
      <trkpt lat="45.53616" lon="6.85474">
        <ele>3321.7</ele>
        <time>2021-03-30T08:54:26Z</time>
      </trkpt>
      <trkpt lat="45.53616" lon="6.85475">
        <ele>3321.7</ele>
        <time>2021-03-30T08:54:27Z</time>
      </trkpt>
      <trkpt lat="45.53616" lon="6.85476">
        <ele>3321.7</ele>
        <time>2021-03-30T08:54:28Z</time>
      </trkpt>
      <trkpt lat="45.53616" lon="6.85477">
        <ele>3321.7</ele>
        <time>2021-03-30T08:54:29Z</time>
      </trkpt>
      <trkpt lat="45.53616" lon="6.85477">
        <ele>3321.7</ele>
        <time>2021-03-30T08:54:30Z</time>
      </trkpt>
      <trkpt lat="45.53616" lon="6.85478">
        <ele>3321.7</ele>
        <time>2021-03-30T08:54:31Z</time>
      </trkpt>
      <trkpt lat="45.53617" lon="6.85479">
        <ele>3323.5</ele>
        <time>2021-03-30T08:54:32Z</time>
      </trkpt>
      <trkpt lat="45.53617" lon="6.85479">
        <ele>3323.5</ele>
        <time>2021-03-30T08:54:33Z</time>
      </trkpt>
      <trkpt lat="45.53617" lon="6.8548">
        <ele>3323.5</ele>
        <time>2021-03-30T08:54:34Z</time>
      </trkpt>
      <trkpt lat="45.53617" lon="6.8548">
        <ele>3323.5</ele>
        <time>2021-03-30T08:54:35Z</time>
      </trkpt>
      <trkpt lat="45.53618" lon="6.85481">
        <ele>3321.9</ele>
        <time>2021-03-30T08:54:36Z</time>
      </trkpt>
      <trkpt lat="45.53618" lon="6.85481">
        <ele>3321.9</ele>
        <time>2021-03-30T08:54:37Z</time>
      </trkpt>
      <trkpt lat="45.53618" lon="6.85482">
        <ele>3321.9</ele>
        <time>2021-03-30T08:54:38Z</time>
      </trkpt>
      <trkpt lat="45.53618" lon="6.85482">
        <ele>3321.9</ele>
        <time>2021-03-30T08:54:39Z</time>
      </trkpt>
      <trkpt lat="45.53619" lon="6.85483">
        <ele>3323.8</ele>
        <time>2021-03-30T08:54:40Z</time>
      </trkpt>
      <trkpt lat="45.53619" lon="6.85484">
        <ele>3323.8</ele>
        <time>2021-03-30T08:54:41Z</time>
      </trkpt>
      <trkpt lat="45.53619" lon="6.85485">
        <ele>3323.8</ele>
        <time>2021-03-30T08:54:42Z</time>
      </trkpt>
      <trkpt lat="45.53619" lon="6.85486">
        <ele>3323.8</ele>
        <time>2021-03-30T08:54:43Z</time>
      </trkpt>
      <trkpt lat="45.53618" lon="6.85487">
        <ele>3325.6</ele>
        <time>2021-03-30T08:56:09Z</time>
      </trkpt>
      <trkpt lat="45.53618" lon="6.85488">
        <ele>3325.6</ele>
        <time>2021-03-30T08:56:10Z</time>
      </trkpt>
      <trkpt lat="45.53618" lon="6.85489">
        <ele>3325.6</ele>
        <time>2021-03-30T08:56:11Z</time>
      </trkpt>
      <trkpt lat="45.53618" lon="6.8549">
        <ele>3325.6</ele>
        <time>2021-03-30T08:56:12Z</time>
      </trkpt>
      <trkpt lat="45.53617" lon="6.85491">
        <ele>3329.1</ele>
        <time>2021-03-30T08:56:13Z</time>
      </trkpt>
      <trkpt lat="45.53617" lon="6.85492">
        <ele>3329.1</ele>
        <time>2021-03-30T08:56:14Z</time>
      </trkpt>
      <trkpt lat="45.53617" lon="6.85493">
        <ele>3329.1</ele>
        <time>2021-03-30T08:56:15Z</time>
      </trkpt>
      <trkpt lat="45.53617" lon="6.85495">
        <ele>3329.1</ele>
        <time>2021-03-30T08:56:16Z</time>
      </trkpt>
      <trkpt lat="45.53616" lon="6.85496">
        <ele>3330.9</ele>
        <time>2021-03-30T08:56:17Z</time>
      </trkpt>
      <trkpt lat="45.53616" lon="6.85497">
        <ele>3330.9</ele>
        <time>2021-03-30T08:56:18Z</time>
      </trkpt>
      <trkpt lat="45.53616" lon="6.85498">
        <ele>3330.9</ele>
        <time>2021-03-30T08:56:19Z</time>
      </trkpt>
      <trkpt lat="45.53616" lon="6.85499">
        <ele>3330.9</ele>
        <time>2021-03-30T08:56:20Z</time>
      </trkpt>
      <trkpt lat="45.53615" lon="6.855">
        <ele>3332.6</ele>
        <time>2021-03-30T08:56:46Z</time>
      </trkpt>
      <trkpt lat="45.53615" lon="6.85501">
        <ele>3332.6</ele>
        <time>2021-03-30T08:56:47Z</time>
      </trkpt>
      <trkpt lat="45.53615" lon="6.85502">
        <ele>3332.6</ele>
        <time>2021-03-30T08:56:48Z</time>
      </trkpt>
      <trkpt lat="45.53615" lon="6.85503">
        <ele>3332.6</ele>
        <time>2021-03-30T08:56:49Z</time>
      </trkpt>
      <trkpt lat="45.53614" lon="6.85503">
        <ele>3334.3</ele>
        <time>2021-03-30T08:56:50Z</time>
      </trkpt>
      <trkpt lat="45.53613" lon="6.85503">
        <ele>3334.3</ele>
        <time>2021-03-30T08:56:51Z</time>
      </trkpt>
      <trkpt lat="45.53612" lon="6.85503">
        <ele>3334.3</ele>
        <time>2021-03-30T08:56:52Z</time>
      </trkpt>
      <trkpt lat="45.53612" lon="6.85503">
        <ele>3334.3</ele>
        <time>2021-03-30T08:56:53Z</time>
      </trkpt>
      <trkpt lat="45.53611" lon="6.85503">
        <ele>3336</ele>
        <time>2021-03-30T08:56:54Z</time>
      </trkpt>
      <trkpt lat="45.5361" lon="6.85503">
        <ele>3336</ele>
        <time>2021-03-30T08:56:55Z</time>
      </trkpt>
      <trkpt lat="45.5361" lon="6.85503">
        <ele>3336</ele>
        <time>2021-03-30T08:56:56Z</time>
      </trkpt>
      <trkpt lat="45.53609" lon="6.85502">
        <ele>3336</ele>
        <time>2021-03-30T08:56:57Z</time>
      </trkpt>
      <trkpt lat="45.53609" lon="6.85502">
        <ele>3336</ele>
        <time>2021-03-30T08:56:58Z</time>
      </trkpt>
      <trkpt lat="45.53608" lon="6.85502">
        <ele>3337.7</ele>
        <time>2021-03-30T08:56:59Z</time>
      </trkpt>
      <trkpt lat="45.53607" lon="6.85502">
        <ele>3337.7</ele>
        <time>2021-03-30T08:57:00Z</time>
      </trkpt>
      <trkpt lat="45.53606" lon="6.85502">
        <ele>3337.7</ele>
        <time>2021-03-30T08:57:01Z</time>
      </trkpt>
      <trkpt lat="45.53606" lon="6.85502">
        <ele>3337.7</ele>
        <time>2021-03-30T08:57:02Z</time>
      </trkpt>
      <trkpt lat="45.53605" lon="6.85502">
        <ele>3339.3</ele>
        <time>2021-03-30T08:57:03Z</time>
      </trkpt>
      <trkpt lat="45.53605" lon="6.85502">
        <ele>3339.3</ele>
        <time>2021-03-30T08:57:04Z</time>
      </trkpt>
      <trkpt lat="45.53604" lon="6.85502">
        <ele>3339.3</ele>
        <time>2021-03-30T08:57:05Z</time>
      </trkpt>
      <trkpt lat="45.53603" lon="6.85502">
        <ele>3339.3</ele>
        <time>2021-03-30T08:57:06Z</time>
      </trkpt>
      <trkpt lat="45.53603" lon="6.85501">
        <ele>3339.3</ele>
        <time>2021-03-30T08:58:25Z</time>
      </trkpt>
      <trkpt lat="45.53602" lon="6.85501">
        <ele>3340.9</ele>
        <time>2021-03-30T08:58:26Z</time>
      </trkpt>
      <trkpt lat="45.53601" lon="6.85501">
        <ele>3340.9</ele>
        <time>2021-03-30T08:58:27Z</time>
      </trkpt>
      <trkpt lat="45.53601" lon="6.85501">
        <ele>3340.9</ele>
        <time>2021-03-30T08:58:28Z</time>
      </trkpt>
      <trkpt lat="45.536" lon="6.85501">
        <ele>3340.9</ele>
        <time>2021-03-30T08:58:29Z</time>
      </trkpt>
      <trkpt lat="45.536" lon="6.85501">
        <ele>3340.9</ele>
        <time>2021-03-30T08:58:30Z</time>
      </trkpt>
      <trkpt lat="45.536" lon="6.85502">
        <ele>3340.9</ele>
        <time>2021-03-30T08:58:31Z</time>
      </trkpt>
      <trkpt lat="45.536" lon="6.85503">
        <ele>3340.9</ele>
        <time>2021-03-30T08:58:32Z</time>
      </trkpt>
      <trkpt lat="45.536" lon="6.85503">
        <ele>3340.9</ele>
        <time>2021-03-30T08:58:33Z</time>
      </trkpt>
      <trkpt lat="45.536" lon="6.85504">
        <ele>3340.9</ele>
        <time>2021-03-30T08:58:34Z</time>
      </trkpt>
      <trkpt lat="45.536" lon="6.85504">
        <ele>3342.5</ele>
        <time>2021-03-30T08:58:35Z</time>
      </trkpt>
      <trkpt lat="45.536" lon="6.85505">
        <ele>3342.5</ele>
        <time>2021-03-30T08:58:36Z</time>
      </trkpt>
      <trkpt lat="45.536" lon="6.85505">
        <ele>3342.5</ele>
        <time>2021-03-30T08:58:37Z</time>
      </trkpt>
      <trkpt lat="45.536" lon="6.85505">
        <ele>3342.5</ele>
        <time>2021-03-30T08:58:38Z</time>
      </trkpt>
      <trkpt lat="45.536" lon="6.85506">
        <ele>3342.5</ele>
        <time>2021-03-30T08:58:39Z</time>
      </trkpt>
      <trkpt lat="45.536" lon="6.85507">
        <ele>3342.5</ele>
        <time>2021-03-30T08:58:40Z</time>
      </trkpt>
      <trkpt lat="45.536" lon="6.85508">
        <ele>3342.5</ele>
        <time>2021-03-30T08:58:41Z</time>
      </trkpt>
      <trkpt lat="45.536" lon="6.85508">
        <ele>3342.5</ele>
        <time>2021-03-30T08:58:42Z</time>
      </trkpt>
      <trkpt lat="45.536" lon="6.85509">
        <ele>3344.1</ele>
        <time>2021-03-30T08:58:43Z</time>
      </trkpt>
      <trkpt lat="45.53601" lon="6.85509">
        <ele>3344.1</ele>
        <time>2021-03-30T08:58:44Z</time>
      </trkpt>
      <trkpt lat="45.536" lon="6.8551">
        <ele>3344.1</ele>
        <time>2021-03-30T08:58:45Z</time>
      </trkpt>
      <trkpt lat="45.536" lon="6.8551">
        <ele>3344.1</ele>
        <time>2021-03-30T08:59:23Z</time>
      </trkpt>
      <trkpt lat="45.53599" lon="6.8551">
        <ele>3345.6</ele>
        <time>2021-03-30T08:59:24Z</time>
      </trkpt>
      <trkpt lat="45.53599" lon="6.85511">
        <ele>3345.6</ele>
        <time>2021-03-30T08:59:25Z</time>
      </trkpt>
      <trkpt lat="45.53598" lon="6.85511">
        <ele>3345.6</ele>
        <time>2021-03-30T08:59:26Z</time>
      </trkpt>
      <trkpt lat="45.53598" lon="6.85511">
        <ele>3345.6</ele>
        <time>2021-03-30T08:59:27Z</time>
      </trkpt>
      <trkpt lat="45.53598" lon="6.85511">
        <ele>3345.6</ele>
        <time>2021-03-30T08:59:28Z</time>
      </trkpt>
      <trkpt lat="45.53597" lon="6.85511">
        <ele>3345.6</ele>
        <time>2021-03-30T08:59:29Z</time>
      </trkpt>
      <trkpt lat="45.53597" lon="6.85511">
        <ele>3345.6</ele>
        <time>2021-03-30T08:59:30Z</time>
      </trkpt>
      <trkpt lat="45.53596" lon="6.85512">
        <ele>3347</ele>
        <time>2021-03-30T08:59:31Z</time>
      </trkpt>
      <trkpt lat="45.53596" lon="6.85512">
        <ele>3347</ele>
        <time>2021-03-30T08:59:32Z</time>
      </trkpt>
      <trkpt lat="45.53596" lon="6.85512">
        <ele>3347</ele>
        <time>2021-03-30T08:59:33Z</time>
      </trkpt>
      <trkpt lat="45.53595" lon="6.85512">
        <ele>3347</ele>
        <time>2021-03-30T09:00:03Z</time>
      </trkpt>
      <trkpt lat="45.53595" lon="6.85512">
        <ele>3347</ele>
        <time>2021-03-30T09:00:04Z</time>
      </trkpt>
      <trkpt lat="45.53594" lon="6.85512">
        <ele>3347</ele>
        <time>2021-03-30T09:00:05Z</time>
      </trkpt>
      <trkpt lat="45.53594" lon="6.85513">
        <ele>3348.4</ele>
        <time>2021-03-30T09:00:06Z</time>
      </trkpt>
      <trkpt lat="45.53593" lon="6.85513">
        <ele>3349.9</ele>
        <time>2021-03-30T09:00:07Z</time>
      </trkpt>
      <trkpt lat="45.53593" lon="6.85513">
        <ele>3349.9</ele>
        <time>2021-03-30T09:00:08Z</time>
      </trkpt>
      <trkpt lat="45.53593" lon="6.85513">
        <ele>3349.9</ele>
        <time>2021-03-30T09:00:09Z</time>
      </trkpt>
      <trkpt lat="45.53592" lon="6.85513">
        <ele>3349.9</ele>
        <time>2021-03-30T09:00:10Z</time>
      </trkpt>
      <trkpt lat="45.53592" lon="6.85513">
        <ele>3349.9</ele>
        <time>2021-03-30T09:00:11Z</time>
      </trkpt>
      <trkpt lat="45.53591" lon="6.85514">
        <ele>3349.9</ele>
        <time>2021-03-30T09:00:12Z</time>
      </trkpt>
      <trkpt lat="45.53591" lon="6.85514">
        <ele>3349.9</ele>
        <time>2021-03-30T09:00:35Z</time>
      </trkpt>
      <trkpt lat="45.5359" lon="6.85514">
        <ele>3351.3</ele>
        <time>2021-03-30T09:00:36Z</time>
      </trkpt>
      <trkpt lat="45.5359" lon="6.85514">
        <ele>3351.3</ele>
        <time>2021-03-30T09:00:37Z</time>
      </trkpt>
      <trkpt lat="45.5359" lon="6.85514">
        <ele>3351.3</ele>
        <time>2021-03-30T09:00:38Z</time>
      </trkpt>
      <trkpt lat="45.53589" lon="6.85515">
        <ele>3351.3</ele>
        <time>2021-03-30T09:00:39Z</time>
      </trkpt>
      <trkpt lat="45.53589" lon="6.85515">
        <ele>3351.3</ele>
        <time>2021-03-30T09:00:40Z</time>
      </trkpt>
      <trkpt lat="45.53588" lon="6.85515">
        <ele>3351.3</ele>
        <time>2021-03-30T09:00:41Z</time>
      </trkpt>
      <trkpt lat="45.53588" lon="6.85515">
        <ele>3351.3</ele>
        <time>2021-03-30T09:00:42Z</time>
      </trkpt>
      <trkpt lat="45.53588" lon="6.85515">
        <ele>3351.3</ele>
        <time>2021-03-30T09:00:43Z</time>
      </trkpt>
      <trkpt lat="45.53587" lon="6.85514">
        <ele>3352.9</ele>
        <time>2021-03-30T09:00:44Z</time>
      </trkpt>
      <trkpt lat="45.53587" lon="6.85514">
        <ele>3352.9</ele>
        <time>2021-03-30T09:00:45Z</time>
      </trkpt>
      <trkpt lat="45.53587" lon="6.85513">
        <ele>3352.9</ele>
        <time>2021-03-30T09:00:46Z</time>
      </trkpt>
      <trkpt lat="45.53587" lon="6.85513">
        <ele>3352.9</ele>
        <time>2021-03-30T09:00:47Z</time>
      </trkpt>
      <trkpt lat="45.53587" lon="6.85513">
        <ele>3352.9</ele>
        <time>2021-03-30T09:00:48Z</time>
      </trkpt>
      <trkpt lat="45.53586" lon="6.85513">
        <ele>3352.9</ele>
        <time>2021-03-30T09:00:49Z</time>
      </trkpt>
      <trkpt lat="45.53586" lon="6.85513">
        <ele>3352.9</ele>
        <time>2021-03-30T09:00:50Z</time>
      </trkpt>
      <trkpt lat="45.53586" lon="6.85512">
        <ele>3351.5</ele>
        <time>2021-03-30T09:00:51Z</time>
      </trkpt>
      <trkpt lat="45.53586" lon="6.85513">
        <ele>3352.9</ele>
        <time>2021-03-30T09:00:52Z</time>
      </trkpt>
      <trkpt lat="45.53586" lon="6.85514">
        <ele>3352.9</ele>
        <time>2021-03-30T09:00:53Z</time>
      </trkpt>
      <trkpt lat="45.53586" lon="6.85515">
        <ele>3352.9</ele>
        <time>2021-03-30T09:00:54Z</time>
      </trkpt>
      <trkpt lat="45.53586" lon="6.85516">
        <ele>3352.9</ele>
        <time>2021-03-30T09:02:11Z</time>
      </trkpt>
      <trkpt lat="45.53586" lon="6.85517">
        <ele>3354.3</ele>
        <time>2021-03-30T09:02:12Z</time>
      </trkpt>
      <trkpt lat="45.53586" lon="6.85518">
        <ele>3354.3</ele>
        <time>2021-03-30T09:02:13Z</time>
      </trkpt>
      <trkpt lat="45.53586" lon="6.85519">
        <ele>3354.3</ele>
        <time>2021-03-30T09:02:14Z</time>
      </trkpt>
      <trkpt lat="45.53586" lon="6.8552">
        <ele>3354.3</ele>
        <time>2021-03-30T09:02:15Z</time>
      </trkpt>
      <trkpt lat="45.53586" lon="6.85521">
        <ele>3355.7</ele>
        <time>2021-03-30T09:02:16Z</time>
      </trkpt>
      <trkpt lat="45.53587" lon="6.85522">
        <ele>3355.7</ele>
        <time>2021-03-30T09:02:17Z</time>
      </trkpt>
      <trkpt lat="45.53587" lon="6.85523">
        <ele>3355.7</ele>
        <time>2021-03-30T09:02:18Z</time>
      </trkpt>
      <trkpt lat="45.53587" lon="6.85524">
        <ele>3355.7</ele>
        <time>2021-03-30T09:02:19Z</time>
      </trkpt>
      <trkpt lat="45.53588" lon="6.85525">
        <ele>3354.3</ele>
        <time>2021-03-30T09:02:20Z</time>
      </trkpt>
      <trkpt lat="45.53588" lon="6.85526">
        <ele>3355.9</ele>
        <time>2021-03-30T09:02:21Z</time>
      </trkpt>
      <trkpt lat="45.53588" lon="6.85526">
        <ele>3355.9</ele>
        <time>2021-03-30T09:02:22Z</time>
      </trkpt>
      <trkpt lat="45.53589" lon="6.85527">
        <ele>3355.9</ele>
        <time>2021-03-30T09:02:23Z</time>
      </trkpt>
      <trkpt lat="45.5359" lon="6.85528">
        <ele>3355.9</ele>
        <time>2021-03-30T09:02:24Z</time>
      </trkpt>
      <trkpt lat="45.5359" lon="6.85529">
        <ele>3355.9</ele>
        <time>2021-03-30T09:02:25Z</time>
      </trkpt>
      <trkpt lat="45.5359" lon="6.85529">
        <ele>3355.9</ele>
        <time>2021-03-30T09:02:26Z</time>
      </trkpt>
      <trkpt lat="45.53591" lon="6.85529">
        <ele>3354.5</ele>
        <time>2021-03-30T09:02:27Z</time>
      </trkpt>
      <trkpt lat="45.53591" lon="6.85529">
        <ele>3354.5</ele>
        <time>2021-03-30T09:02:28Z</time>
      </trkpt>
      <trkpt lat="45.53591" lon="6.85529">
        <ele>3354.5</ele>
        <time>2021-03-30T09:02:29Z</time>
      </trkpt>
      <trkpt lat="45.53591" lon="6.85529">
        <ele>3354.5</ele>
        <time>2021-03-30T09:02:30Z</time>
      </trkpt>
      <trkpt lat="45.53591" lon="6.8553">
        <ele>3356.1</ele>
        <time>2021-03-30T09:02:31Z</time>
      </trkpt>
      <trkpt lat="45.53591" lon="6.8553">
        <ele>3356.1</ele>
        <time>2021-03-30T09:02:32Z</time>
      </trkpt>
      <trkpt lat="45.53592" lon="6.85531">
        <ele>3356.1</ele>
        <time>2021-03-30T09:02:33Z</time>
      </trkpt>
      <trkpt lat="45.53592" lon="6.85531">
        <ele>3356.1</ele>
        <time>2021-03-30T09:02:34Z</time>
      </trkpt>
      <trkpt lat="45.53592" lon="6.85532">
        <ele>3356.1</ele>
        <time>2021-03-30T09:02:35Z</time>
      </trkpt>
      <trkpt lat="45.53593" lon="6.85532">
        <ele>3356.1</ele>
        <time>2021-03-30T09:02:36Z</time>
      </trkpt>
      <trkpt lat="45.53593" lon="6.85533">
        <ele>3356.1</ele>
        <time>2021-03-30T09:02:37Z</time>
      </trkpt>
      <trkpt lat="45.53593" lon="6.85533">
        <ele>3356.1</ele>
        <time>2021-03-30T09:02:38Z</time>
      </trkpt>
      <trkpt lat="45.53594" lon="6.85533">
        <ele>3354.8</ele>
        <time>2021-03-30T09:02:39Z</time>
      </trkpt>
      <trkpt lat="45.53593" lon="6.85534">
        <ele>3356.1</ele>
        <time>2021-03-30T09:02:40Z</time>
      </trkpt>
      <trkpt lat="45.53592" lon="6.85534">
        <ele>3356.1</ele>
        <time>2021-03-30T09:02:41Z</time>
      </trkpt>
      <trkpt lat="45.5359" lon="6.85533">
        <ele>3357.5</ele>
        <time>2021-03-30T09:02:42Z</time>
      </trkpt>
      <trkpt lat="45.53589" lon="6.85533">
        <ele>3357.5</ele>
        <time>2021-03-30T09:02:43Z</time>
      </trkpt>
      <trkpt lat="45.53588" lon="6.85533">
        <ele>3357.5</ele>
        <time>2021-03-30T09:02:44Z</time>
      </trkpt>
      <trkpt lat="45.53587" lon="6.85533">
        <ele>3358.9</ele>
        <time>2021-03-30T09:02:45Z</time>
      </trkpt>
      <trkpt lat="45.53585" lon="6.85533">
        <ele>3358.9</ele>
        <time>2021-03-30T09:04:00Z</time>
      </trkpt>
      <trkpt lat="45.53584" lon="6.85532">
        <ele>3360.5</ele>
        <time>2021-03-30T09:04:01Z</time>
      </trkpt>
      <trkpt lat="45.53583" lon="6.85532">
        <ele>3360.5</ele>
        <time>2021-03-30T09:04:02Z</time>
      </trkpt>
      <trkpt lat="45.53582" lon="6.85532">
        <ele>3360.5</ele>
        <time>2021-03-30T09:04:03Z</time>
      </trkpt>
      <trkpt lat="45.53581" lon="6.85532">
        <ele>3362</ele>
        <time>2021-03-30T09:04:04Z</time>
      </trkpt>
      <trkpt lat="45.53579" lon="6.85532">
        <ele>3362</ele>
        <time>2021-03-30T09:04:05Z</time>
      </trkpt>
      <trkpt lat="45.53579" lon="6.85532">
        <ele>3362</ele>
        <time>2021-03-30T09:04:06Z</time>
      </trkpt>
      <trkpt lat="45.53578" lon="6.85531">
        <ele>3363.4</ele>
        <time>2021-03-30T09:04:07Z</time>
      </trkpt>
      <trkpt lat="45.53578" lon="6.85531">
        <ele>3363.4</ele>
        <time>2021-03-30T09:04:08Z</time>
      </trkpt>
      <trkpt lat="45.53577" lon="6.85531">
        <ele>3363.4</ele>
        <time>2021-03-30T09:04:09Z</time>
      </trkpt>
      <trkpt lat="45.53577" lon="6.85531">
        <ele>3363.4</ele>
        <time>2021-03-30T09:04:10Z</time>
      </trkpt>
      <trkpt lat="45.53576" lon="6.85531">
        <ele>3363.4</ele>
        <time>2021-03-30T09:04:11Z</time>
      </trkpt>
      <trkpt lat="45.53575" lon="6.85532">
        <ele>3363.4</ele>
        <time>2021-03-30T09:04:12Z</time>
      </trkpt>
      <trkpt lat="45.53575" lon="6.85532">
        <ele>3364.7</ele>
        <time>2021-03-30T09:04:13Z</time>
      </trkpt>
      <trkpt lat="45.53574" lon="6.85533">
        <ele>3364.7</ele>
        <time>2021-03-30T09:04:14Z</time>
      </trkpt>
      <trkpt lat="45.53574" lon="6.85534">
        <ele>3364.7</ele>
        <time>2021-03-30T09:04:15Z</time>
      </trkpt>
      <trkpt lat="45.53573" lon="6.85535">
        <ele>3366.3</ele>
        <time>2021-03-30T09:04:16Z</time>
      </trkpt>
      <trkpt lat="45.53572" lon="6.85536">
        <ele>3367.5</ele>
        <time>2021-03-30T09:04:17Z</time>
      </trkpt>
      <trkpt lat="45.53572" lon="6.85536">
        <ele>3367.5</ele>
        <time>2021-03-30T09:04:18Z</time>
      </trkpt>
      <trkpt lat="45.53571" lon="6.85537">
        <ele>3367.5</ele>
        <time>2021-03-30T09:06:16Z</time>
      </trkpt>
      <trkpt lat="45.5357" lon="6.85538">
        <ele>3367.5</ele>
        <time>2021-03-30T09:06:17Z</time>
      </trkpt>
      <trkpt lat="45.5357" lon="6.85539">
        <ele>3369.1</ele>
        <time>2021-03-30T09:06:18Z</time>
      </trkpt>
      <trkpt lat="45.53569" lon="6.85539">
        <ele>3370.2</ele>
        <time>2021-03-30T09:06:19Z</time>
      </trkpt>
      <trkpt lat="45.53569" lon="6.8554">
        <ele>3370.2</ele>
        <time>2021-03-30T09:06:20Z</time>
      </trkpt>
      <trkpt lat="45.53568" lon="6.85541">
        <ele>3370.2</ele>
        <time>2021-03-30T09:06:21Z</time>
      </trkpt>
      <trkpt lat="45.53567" lon="6.85542">
        <ele>3370.2</ele>
        <time>2021-03-30T09:06:22Z</time>
      </trkpt>
      <trkpt lat="45.53567" lon="6.85543">
        <ele>3371.8</ele>
        <time>2021-03-30T09:06:23Z</time>
      </trkpt>
      <trkpt lat="45.53566" lon="6.85543">
        <ele>3373</ele>
        <time>2021-03-30T09:06:24Z</time>
      </trkpt>
      <trkpt lat="45.53565" lon="6.85544">
        <ele>3373</ele>
        <time>2021-03-30T09:06:25Z</time>
      </trkpt>
      <trkpt lat="45.53565" lon="6.85544">
        <ele>3373</ele>
        <time>2021-03-30T09:06:26Z</time>
      </trkpt>
      <trkpt lat="45.53564" lon="6.85544">
        <ele>3373</ele>
        <time>2021-03-30T09:06:27Z</time>
      </trkpt>
      <trkpt lat="45.53564" lon="6.85543">
        <ele>3373</ele>
        <time>2021-03-30T09:06:28Z</time>
      </trkpt>
      <trkpt lat="45.53564" lon="6.85543">
        <ele>3373</ele>
        <time>2021-03-30T09:06:29Z</time>
      </trkpt>
      <trkpt lat="45.53563" lon="6.85542">
        <ele>3372.8</ele>
        <time>2021-03-30T09:06:30Z</time>
      </trkpt>
      <trkpt lat="45.53563" lon="6.85542">
        <ele>3372.8</ele>
        <time>2021-03-30T09:06:31Z</time>
      </trkpt>
      <trkpt lat="45.53563" lon="6.85541">
        <ele>3372.8</ele>
        <time>2021-03-30T09:06:32Z</time>
      </trkpt>
      <trkpt lat="45.53562" lon="6.85541">
        <ele>3372.8</ele>
        <time>2021-03-30T09:06:33Z</time>
      </trkpt>
      <trkpt lat="45.53562" lon="6.85541">
        <ele>3372.8</ele>
        <time>2021-03-30T09:06:34Z</time>
      </trkpt>
      <trkpt lat="45.53562" lon="6.8554">
        <ele>3372.8</ele>
        <time>2021-03-30T09:06:35Z</time>
      </trkpt>
      <trkpt lat="45.53561" lon="6.8554">
        <ele>3372.8</ele>
        <time>2021-03-30T09:06:36Z</time>
      </trkpt>
      <trkpt lat="45.53561" lon="6.85539">
        <ele>3372.8</ele>
        <time>2021-03-30T09:06:44Z</time>
      </trkpt>
      <trkpt lat="45.53561" lon="6.85539">
        <ele>3372.8</ele>
        <time>2021-03-30T09:06:45Z</time>
      </trkpt>
      <trkpt lat="45.5356" lon="6.85539">
        <ele>3374.2</ele>
        <time>2021-03-30T09:06:46Z</time>
      </trkpt>
      <trkpt lat="45.5356" lon="6.85538">
        <ele>3372.7</ele>
        <time>2021-03-30T09:06:47Z</time>
      </trkpt>
      <trkpt lat="45.5356" lon="6.85538">
        <ele>3372.7</ele>
        <time>2021-03-30T09:06:48Z</time>
      </trkpt>
      <trkpt lat="45.53559" lon="6.85537">
        <ele>3372.7</ele>
        <time>2021-03-30T09:06:49Z</time>
      </trkpt>
      <trkpt lat="45.53559" lon="6.85537">
        <ele>3372.7</ele>
        <time>2021-03-30T09:06:50Z</time>
      </trkpt>
      <trkpt lat="45.53559" lon="6.85539">
        <ele>3374.2</ele>
        <time>2021-03-30T09:06:51Z</time>
      </trkpt>
      <trkpt lat="45.53559" lon="6.85542">
        <ele>3374.2</ele>
        <time>2021-03-30T09:06:52Z</time>
      </trkpt>
      <trkpt lat="45.53559" lon="6.85544">
        <ele>3375.6</ele>
        <time>2021-03-30T09:06:53Z</time>
      </trkpt>
      <trkpt lat="45.53559" lon="6.85547">
        <ele>3378</ele>
        <time>2021-03-30T09:06:54Z</time>
      </trkpt>
      <trkpt lat="45.53559" lon="6.85549">
        <ele>3378</ele>
        <time>2021-03-30T09:09:06Z</time>
      </trkpt>
      <trkpt lat="45.53559" lon="6.85552">
        <ele>3379.5</ele>
        <time>2021-03-30T09:09:07Z</time>
      </trkpt>
      <trkpt lat="45.53559" lon="6.85555">
        <ele>3379.5</ele>
        <time>2021-03-30T09:09:08Z</time>
      </trkpt>
      <trkpt lat="45.53559" lon="6.85557">
        <ele>3381</ele>
        <time>2021-03-30T09:09:09Z</time>
      </trkpt>
      <trkpt lat="45.53559" lon="6.8556">
        <ele>3381</ele>
        <time>2021-03-30T09:09:10Z</time>
      </trkpt>
      <trkpt lat="45.53559" lon="6.85562">
        <ele>3382.5</ele>
        <time>2021-03-30T09:09:11Z</time>
      </trkpt>
      <trkpt lat="45.53559" lon="6.85565">
        <ele>3384.1</ele>
        <time>2021-03-30T09:09:12Z</time>
      </trkpt>
      <trkpt lat="45.53559" lon="6.85565">
        <ele>3384.1</ele>
        <time>2021-03-30T09:09:13Z</time>
      </trkpt>
      <trkpt lat="45.53558" lon="6.85563">
        <ele>3382.5</ele>
        <time>2021-03-30T09:09:14Z</time>
      </trkpt>
      <trkpt lat="45.53556" lon="6.85562">
        <ele>3383.8</ele>
        <time>2021-03-30T09:09:15Z</time>
      </trkpt>
      <trkpt lat="45.53556" lon="6.85562">
        <ele>3383.8</ele>
        <time>2021-03-30T09:09:16Z</time>
      </trkpt>
      <trkpt lat="45.53556" lon="6.85562">
        <ele>3383.8</ele>
        <time>2021-03-30T09:09:17Z</time>
      </trkpt>
      <trkpt lat="45.53555" lon="6.85562">
        <ele>3383.8</ele>
        <time>2021-03-30T09:09:18Z</time>
      </trkpt>
      <trkpt lat="45.53555" lon="6.85562">
        <ele>3383.8</ele>
        <time>2021-03-30T09:09:19Z</time>
      </trkpt>
      <trkpt lat="45.53555" lon="6.85562">
        <ele>3383.8</ele>
        <time>2021-03-30T09:09:20Z</time>
      </trkpt>
      <trkpt lat="45.53555" lon="6.85562">
        <ele>3383.8</ele>
        <time>2021-03-30T09:09:21Z</time>
      </trkpt>
      <trkpt lat="45.53554" lon="6.85561">
        <ele>3385.1</ele>
        <time>2021-03-30T09:09:22Z</time>
      </trkpt>
      <trkpt lat="45.53554" lon="6.85561">
        <ele>3385.1</ele>
        <time>2021-03-30T09:09:23Z</time>
      </trkpt>
      <trkpt lat="45.53553" lon="6.85561">
        <ele>3385.1</ele>
        <time>2021-03-30T09:09:24Z</time>
      </trkpt>
      <trkpt lat="45.53553" lon="6.8556">
        <ele>3385.1</ele>
        <time>2021-03-30T09:09:25Z</time>
      </trkpt>
      <trkpt lat="45.53552" lon="6.8556">
        <ele>3385.1</ele>
        <time>2021-03-30T09:09:26Z</time>
      </trkpt>
      <trkpt lat="45.53552" lon="6.8556">
        <ele>3385.1</ele>
        <time>2021-03-30T09:09:27Z</time>
      </trkpt>
      <trkpt lat="45.53551" lon="6.8556">
        <ele>3384.8</ele>
        <time>2021-03-30T09:09:28Z</time>
      </trkpt>
      <trkpt lat="45.53551" lon="6.85559">
        <ele>3384.8</ele>
        <time>2021-03-30T09:09:29Z</time>
      </trkpt>
      <trkpt lat="45.5355" lon="6.85559">
        <ele>3384.8</ele>
        <time>2021-03-30T09:09:30Z</time>
      </trkpt>
      <trkpt lat="45.5355" lon="6.85559">
        <ele>3384.8</ele>
        <time>2021-03-30T09:09:31Z</time>
      </trkpt>
      <trkpt lat="45.53549" lon="6.85559">
        <ele>3384.8</ele>
        <time>2021-03-30T09:09:32Z</time>
      </trkpt>
      <trkpt lat="45.53549" lon="6.85559">
        <ele>3384.8</ele>
        <time>2021-03-30T09:09:33Z</time>
      </trkpt>
      <trkpt lat="45.53548" lon="6.85559">
        <ele>3385.8</ele>
        <time>2021-03-30T09:09:34Z</time>
      </trkpt>
      <trkpt lat="45.53548" lon="6.85559">
        <ele>3385.8</ele>
        <time>2021-03-30T09:09:35Z</time>
      </trkpt>
      <trkpt lat="45.53547" lon="6.85558">
        <ele>3385.8</ele>
        <time>2021-03-30T09:09:36Z</time>
      </trkpt>
      <trkpt lat="45.53547" lon="6.85558">
        <ele>3385.8</ele>
        <time>2021-03-30T09:09:37Z</time>
      </trkpt>
      <trkpt lat="45.53547" lon="6.85558">
        <ele>3385.8</ele>
        <time>2021-03-30T09:09:38Z</time>
      </trkpt>
      <trkpt lat="45.53546" lon="6.85558">
        <ele>3385.8</ele>
        <time>2021-03-30T09:09:39Z</time>
      </trkpt>
      <trkpt lat="45.53546" lon="6.85557">
        <ele>3385.8</ele>
        <time>2021-03-30T09:09:40Z</time>
      </trkpt>
      <trkpt lat="45.53546" lon="6.85557">
        <ele>3385.8</ele>
        <time>2021-03-30T09:09:41Z</time>
      </trkpt>
      <trkpt lat="45.53546" lon="6.85556">
        <ele>3385.8</ele>
        <time>2021-03-30T09:09:42Z</time>
      </trkpt>
      <trkpt lat="45.53545" lon="6.85556">
        <ele>3386.8</ele>
        <time>2021-03-30T09:09:43Z</time>
      </trkpt>
      <trkpt lat="45.53545" lon="6.85556">
        <ele>3386.8</ele>
        <time>2021-03-30T09:09:44Z</time>
      </trkpt>
      <trkpt lat="45.53544" lon="6.85555">
        <ele>3385.4</ele>
        <time>2021-03-30T09:09:45Z</time>
      </trkpt>
      <trkpt lat="45.53544" lon="6.85555">
        <ele>3385.4</ele>
        <time>2021-03-30T09:09:46Z</time>
      </trkpt>
      <trkpt lat="45.53543" lon="6.85555">
        <ele>3385.4</ele>
        <time>2021-03-30T09:09:47Z</time>
      </trkpt>
      <trkpt lat="45.53543" lon="6.85554">
        <ele>3385.4</ele>
        <time>2021-03-30T09:09:48Z</time>
      </trkpt>
      <trkpt lat="45.53542" lon="6.85554">
        <ele>3386.4</ele>
        <time>2021-03-30T09:09:49Z</time>
      </trkpt>
      <trkpt lat="45.53541" lon="6.85553">
        <ele>3386.4</ele>
        <time>2021-03-30T09:09:50Z</time>
      </trkpt>
      <trkpt lat="45.53541" lon="6.85552">
        <ele>3386.4</ele>
        <time>2021-03-30T09:09:51Z</time>
      </trkpt>
      <trkpt lat="45.5354" lon="6.85551">
        <ele>3385</ele>
        <time>2021-03-30T09:09:52Z</time>
      </trkpt>
      <trkpt lat="45.5354" lon="6.8555">
        <ele>3385</ele>
        <time>2021-03-30T09:09:53Z</time>
      </trkpt>
      <trkpt lat="45.53539" lon="6.85549">
        <ele>3386</ele>
        <time>2021-03-30T09:09:54Z</time>
      </trkpt>
      <trkpt lat="45.53539" lon="6.85548">
        <ele>3386</ele>
        <time>2021-03-30T09:09:55Z</time>
      </trkpt>
      <trkpt lat="45.53538" lon="6.85548">
        <ele>3386</ele>
        <time>2021-03-30T09:09:56Z</time>
      </trkpt>
      <trkpt lat="45.53538" lon="6.85547">
        <ele>3383.9</ele>
        <time>2021-03-30T09:09:57Z</time>
      </trkpt>
      <trkpt lat="45.53537" lon="6.85546">
        <ele>3383.9</ele>
        <time>2021-03-30T09:10:17Z</time>
      </trkpt>
      <trkpt lat="45.53537" lon="6.85545">
        <ele>3383.9</ele>
        <time>2021-03-30T09:10:18Z</time>
      </trkpt>
      <trkpt lat="45.53536" lon="6.85544">
        <ele>3384.9</ele>
        <time>2021-03-30T09:10:19Z</time>
      </trkpt>
      <trkpt lat="45.53535" lon="6.85544">
        <ele>3384.9</ele>
        <time>2021-03-30T09:10:20Z</time>
      </trkpt>
      <trkpt lat="45.53535" lon="6.85543">
        <ele>3384.9</ele>
        <time>2021-03-30T09:10:21Z</time>
      </trkpt>
      <trkpt lat="45.53534" lon="6.85542">
        <ele>3383.6</ele>
        <time>2021-03-30T09:10:22Z</time>
      </trkpt>
      <trkpt lat="45.53534" lon="6.85542">
        <ele>3383.6</ele>
        <time>2021-03-30T09:10:23Z</time>
      </trkpt>
      <trkpt lat="45.53534" lon="6.85541">
        <ele>3383.6</ele>
        <time>2021-03-30T09:10:24Z</time>
      </trkpt>
      <trkpt lat="45.53533" lon="6.85541">
        <ele>3384.5</ele>
        <time>2021-03-30T09:10:25Z</time>
      </trkpt>
      <trkpt lat="45.53533" lon="6.85541">
        <ele>3384.5</ele>
        <time>2021-03-30T09:10:26Z</time>
      </trkpt>
      <trkpt lat="45.53533" lon="6.8554">
        <ele>3384.5</ele>
        <time>2021-03-30T09:10:27Z</time>
      </trkpt>
      <trkpt lat="45.53533" lon="6.8554">
        <ele>3384.5</ele>
        <time>2021-03-30T09:10:28Z</time>
      </trkpt>
      <trkpt lat="45.53532" lon="6.85539">
        <ele>3384.5</ele>
        <time>2021-03-30T09:10:29Z</time>
      </trkpt>
      <trkpt lat="45.53532" lon="6.85539">
        <ele>3384.5</ele>
        <time>2021-03-30T09:10:30Z</time>
      </trkpt>
      <trkpt lat="45.53531" lon="6.85539">
        <ele>3384.5</ele>
        <time>2021-03-30T09:10:31Z</time>
      </trkpt>
      <trkpt lat="45.5353" lon="6.85539">
        <ele>3384.5</ele>
        <time>2021-03-30T09:10:32Z</time>
      </trkpt>
      <trkpt lat="45.5353" lon="6.85538">
        <ele>3384.2</ele>
        <time>2021-03-30T09:10:33Z</time>
      </trkpt>
      <trkpt lat="45.53529" lon="6.85538">
        <ele>3384.2</ele>
        <time>2021-03-30T09:10:34Z</time>
      </trkpt>
      <trkpt lat="45.53529" lon="6.85537">
        <ele>3384.2</ele>
        <time>2021-03-30T09:10:35Z</time>
      </trkpt>
      <trkpt lat="45.53528" lon="6.85537">
        <ele>3384.2</ele>
        <time>2021-03-30T09:10:36Z</time>
      </trkpt>
      <trkpt lat="45.53528" lon="6.85536">
        <ele>3384.2</ele>
        <time>2021-03-30T09:10:37Z</time>
      </trkpt>
      <trkpt lat="45.53528" lon="6.85535">
        <ele>3384.2</ele>
        <time>2021-03-30T09:10:38Z</time>
      </trkpt>
      <trkpt lat="45.53527" lon="6.85535">
        <ele>3385</ele>
        <time>2021-03-30T09:10:39Z</time>
      </trkpt>
      <trkpt lat="45.53527" lon="6.85534">
        <ele>3383.7</ele>
        <time>2021-03-30T09:10:40Z</time>
      </trkpt>
      <trkpt lat="45.53526" lon="6.85534">
        <ele>3383.7</ele>
        <time>2021-03-30T09:10:41Z</time>
      </trkpt>
      <trkpt lat="45.53526" lon="6.85534">
        <ele>3383.7</ele>
        <time>2021-03-30T09:10:42Z</time>
      </trkpt>
      <trkpt lat="45.53525" lon="6.85533">
        <ele>3383.7</ele>
        <time>2021-03-30T09:10:43Z</time>
      </trkpt>
      <trkpt lat="45.53525" lon="6.85533">
        <ele>3383.7</ele>
        <time>2021-03-30T09:10:44Z</time>
      </trkpt>
      <trkpt lat="45.53524" lon="6.85532">
        <ele>3384.5</ele>
        <time>2021-03-30T09:10:45Z</time>
      </trkpt>
      <trkpt lat="45.53524" lon="6.85532">
        <ele>3384.5</ele>
        <time>2021-03-30T09:10:46Z</time>
      </trkpt>
      <trkpt lat="45.53524" lon="6.85532">
        <ele>3384.5</ele>
        <time>2021-03-30T09:10:47Z</time>
      </trkpt>
      <trkpt lat="45.53524" lon="6.85532">
        <ele>3384.5</ele>
        <time>2021-03-30T09:10:48Z</time>
      </trkpt>
      <trkpt lat="45.53524" lon="6.85532">
        <ele>3384.5</ele>
        <time>2021-03-30T09:10:49Z</time>
      </trkpt>
      <trkpt lat="45.53524" lon="6.85531">
        <ele>3384.5</ele>
        <time>2021-03-30T09:10:50Z</time>
      </trkpt>
      <trkpt lat="45.53524" lon="6.85531">
        <ele>3384.5</ele>
        <time>2021-03-30T09:10:51Z</time>
      </trkpt>
      <trkpt lat="45.53523" lon="6.8553">
        <ele>3384.5</ele>
        <time>2021-03-30T09:10:52Z</time>
      </trkpt>
      <trkpt lat="45.53523" lon="6.8553">
        <ele>3383.3</ele>
        <time>2021-03-30T09:10:53Z</time>
      </trkpt>
      <trkpt lat="45.53523" lon="6.85529">
        <ele>3383.3</ele>
        <time>2021-03-30T09:10:54Z</time>
      </trkpt>
      <trkpt lat="45.53523" lon="6.85528">
        <ele>3383.3</ele>
        <time>2021-03-30T09:10:55Z</time>
      </trkpt>
      <trkpt lat="45.53522" lon="6.85528">
        <ele>3383.3</ele>
        <time>2021-03-30T09:10:56Z</time>
      </trkpt>
      <trkpt lat="45.53522" lon="6.85527">
        <ele>3383.3</ele>
        <time>2021-03-30T09:10:57Z</time>
      </trkpt>
      <trkpt lat="45.53521" lon="6.85527">
        <ele>3383.3</ele>
        <time>2021-03-30T09:10:58Z</time>
      </trkpt>
      <trkpt lat="45.53521" lon="6.85526">
        <ele>3384.1</ele>
        <time>2021-03-30T09:10:59Z</time>
      </trkpt>
      <trkpt lat="45.5352" lon="6.85526">
        <ele>3384.1</ele>
        <time>2021-03-30T09:11:00Z</time>
      </trkpt>
      <trkpt lat="45.5352" lon="6.85525">
        <ele>3382.9</ele>
        <time>2021-03-30T09:11:01Z</time>
      </trkpt>
      <trkpt lat="45.53519" lon="6.85524">
        <ele>3382.9</ele>
        <time>2021-03-30T09:11:02Z</time>
      </trkpt>
      <trkpt lat="45.53518" lon="6.85524">
        <ele>3383.6</ele>
        <time>2021-03-30T09:11:03Z</time>
      </trkpt>
      <trkpt lat="45.53518" lon="6.85524">
        <ele>3383.6</ele>
        <time>2021-03-30T09:11:04Z</time>
      </trkpt>
      <trkpt lat="45.53517" lon="6.85523">
        <ele>3383.6</ele>
        <time>2021-03-30T09:11:05Z</time>
      </trkpt>
      <trkpt lat="45.53517" lon="6.85522">
        <ele>3383.6</ele>
        <time>2021-03-30T09:11:06Z</time>
      </trkpt>
      <trkpt lat="45.53516" lon="6.85522">
        <ele>3383.6</ele>
        <time>2021-03-30T09:11:07Z</time>
      </trkpt>
      <trkpt lat="45.53515" lon="6.85521">
        <ele>3383.2</ele>
        <time>2021-03-30T09:11:08Z</time>
      </trkpt>
      <trkpt lat="45.53515" lon="6.8552">
        <ele>3383.2</ele>
        <time>2021-03-30T09:11:09Z</time>
      </trkpt>
      <trkpt lat="45.53514" lon="6.85519">
        <ele>3383.2</ele>
        <time>2021-03-30T09:11:10Z</time>
      </trkpt>
      <trkpt lat="45.53513" lon="6.85518">
        <ele>3383.2</ele>
        <time>2021-03-30T09:11:11Z</time>
      </trkpt>
      <trkpt lat="45.53513" lon="6.85517">
        <ele>3383.2</ele>
        <time>2021-03-30T09:11:12Z</time>
      </trkpt>
      <trkpt lat="45.53512" lon="6.85517">
        <ele>3382.8</ele>
        <time>2021-03-30T09:11:13Z</time>
      </trkpt>
      <trkpt lat="45.53512" lon="6.85516">
        <ele>3382.8</ele>
        <time>2021-03-30T09:11:14Z</time>
      </trkpt>
      <trkpt lat="45.53511" lon="6.85516">
        <ele>3382.8</ele>
        <time>2021-03-30T09:11:15Z</time>
      </trkpt>
      <trkpt lat="45.5351" lon="6.85515">
        <ele>3382.8</ele>
        <time>2021-03-30T09:11:16Z</time>
      </trkpt>
      <trkpt lat="45.53509" lon="6.85514">
        <ele>3383.3</ele>
        <time>2021-03-30T09:11:17Z</time>
      </trkpt>
      <trkpt lat="45.53509" lon="6.85514">
        <ele>3383.3</ele>
        <time>2021-03-30T09:11:18Z</time>
      </trkpt>
      <trkpt lat="45.53508" lon="6.85513">
        <ele>3383.3</ele>
        <time>2021-03-30T09:11:19Z</time>
      </trkpt>
      <trkpt lat="45.53508" lon="6.85513">
        <ele>3383.3</ele>
        <time>2021-03-30T09:11:20Z</time>
      </trkpt>
      <trkpt lat="45.53508" lon="6.85512">
        <ele>3382.4</ele>
        <time>2021-03-30T09:11:21Z</time>
      </trkpt>
      <trkpt lat="45.53507" lon="6.85512">
        <ele>3382.4</ele>
        <time>2021-03-30T09:11:22Z</time>
      </trkpt>
      <trkpt lat="45.53507" lon="6.85511">
        <ele>3382.4</ele>
        <time>2021-03-30T09:11:23Z</time>
      </trkpt>
      <trkpt lat="45.53506" lon="6.8551">
        <ele>3382.4</ele>
        <time>2021-03-30T09:11:24Z</time>
      </trkpt>
      <trkpt lat="45.53506" lon="6.8551">
        <ele>3382.9</ele>
        <time>2021-03-30T09:11:25Z</time>
      </trkpt>
      <trkpt lat="45.53506" lon="6.85509">
        <ele>3382.9</ele>
        <time>2021-03-30T09:11:26Z</time>
      </trkpt>
      <trkpt lat="45.53505" lon="6.85509">
        <ele>3382.9</ele>
        <time>2021-03-30T09:11:27Z</time>
      </trkpt>
      <trkpt lat="45.53505" lon="6.85508">
        <ele>3382</ele>
        <time>2021-03-30T09:11:28Z</time>
      </trkpt>
      <trkpt lat="45.53505" lon="6.85508">
        <ele>3382</ele>
        <time>2021-03-30T09:11:29Z</time>
      </trkpt>
      <trkpt lat="45.53504" lon="6.85508">
        <ele>3382</ele>
        <time>2021-03-30T09:11:30Z</time>
      </trkpt>
      <trkpt lat="45.53504" lon="6.85508">
        <ele>3382</ele>
        <time>2021-03-30T09:11:31Z</time>
      </trkpt>
      <trkpt lat="45.53504" lon="6.85508">
        <ele>3382</ele>
        <time>2021-03-30T09:11:32Z</time>
      </trkpt>
      <trkpt lat="45.53503" lon="6.85508">
        <ele>3382.4</ele>
        <time>2021-03-30T09:11:33Z</time>
      </trkpt>
      <trkpt lat="45.53502" lon="6.85508">
        <ele>3382.4</ele>
        <time>2021-03-30T09:11:34Z</time>
      </trkpt>
      <trkpt lat="45.53502" lon="6.85508">
        <ele>3383.3</ele>
        <time>2021-03-30T09:11:35Z</time>
      </trkpt>
      <trkpt lat="45.53502" lon="6.85509">
        <ele>3383.3</ele>
        <time>2021-03-30T09:12:10Z</time>
      </trkpt>
      <trkpt lat="45.53501" lon="6.85509">
        <ele>3383.3</ele>
        <time>2021-03-30T09:12:11Z</time>
      </trkpt>
      <trkpt lat="45.53501" lon="6.8551">
        <ele>3383.3</ele>
        <time>2021-03-30T09:12:12Z</time>
      </trkpt>
      <trkpt lat="45.53501" lon="6.8551">
        <ele>3383.3</ele>
        <time>2021-03-30T09:12:13Z</time>
      </trkpt>
      <trkpt lat="45.535" lon="6.8551">
        <ele>3383.6</ele>
        <time>2021-03-30T09:12:14Z</time>
      </trkpt>
      <trkpt lat="45.535" lon="6.85511">
        <ele>3383.6</ele>
        <time>2021-03-30T09:12:15Z</time>
      </trkpt>
      <trkpt lat="45.53499" lon="6.85511">
        <ele>3383.6</ele>
        <time>2021-03-30T09:12:16Z</time>
      </trkpt>
      <trkpt lat="45.53499" lon="6.85512">
        <ele>3383.6</ele>
        <time>2021-03-30T09:12:17Z</time>
      </trkpt>
      <trkpt lat="45.53499" lon="6.85512">
        <ele>3383.6</ele>
        <time>2021-03-30T09:12:18Z</time>
      </trkpt>
      <trkpt lat="45.53498" lon="6.85512">
        <ele>3383.6</ele>
        <time>2021-03-30T09:12:19Z</time>
      </trkpt>
      <trkpt lat="45.53498" lon="6.85513">
        <ele>3384.4</ele>
        <time>2021-03-30T09:13:39Z</time>
      </trkpt>
      <trkpt lat="45.53498" lon="6.85513">
        <ele>3384.4</ele>
        <time>2021-03-30T09:13:40Z</time>
      </trkpt>
      <trkpt lat="45.53497" lon="6.85513">
        <ele>3384.4</ele>
        <time>2021-03-30T09:13:41Z</time>
      </trkpt>
      <trkpt lat="45.53497" lon="6.85514">
        <ele>3384.7</ele>
        <time>2021-03-30T09:13:42Z</time>
      </trkpt>
      <trkpt lat="45.53496" lon="6.85513">
        <ele>3384.7</ele>
        <time>2021-03-30T09:13:43Z</time>
      </trkpt>
      <trkpt lat="45.53496" lon="6.85513">
        <ele>3384.7</ele>
        <time>2021-03-30T09:13:44Z</time>
      </trkpt>
      <trkpt lat="45.53495" lon="6.85512">
        <ele>3383.8</ele>
        <time>2021-03-30T09:13:45Z</time>
      </trkpt>
      <trkpt lat="45.53495" lon="6.85512">
        <ele>3383.8</ele>
        <time>2021-03-30T09:13:46Z</time>
      </trkpt>
      <trkpt lat="45.53494" lon="6.85511">
        <ele>3384</ele>
        <time>2021-03-30T09:13:47Z</time>
      </trkpt>
      <trkpt lat="45.53494" lon="6.85511">
        <ele>3384</ele>
        <time>2021-03-30T09:13:48Z</time>
      </trkpt>
      <trkpt lat="45.53494" lon="6.85511">
        <ele>3384</ele>
        <time>2021-03-30T09:13:49Z</time>
      </trkpt>
      <trkpt lat="45.53494" lon="6.85511">
        <ele>3384</ele>
        <time>2021-03-30T09:13:50Z</time>
      </trkpt>
      <trkpt lat="45.53493" lon="6.8551">
        <ele>3384</ele>
        <time>2021-03-30T09:13:51Z</time>
      </trkpt>
      <trkpt lat="45.53492" lon="6.8551">
        <ele>3384</ele>
        <time>2021-03-30T09:13:52Z</time>
      </trkpt>
      <trkpt lat="45.53492" lon="6.85509">
        <ele>3384</ele>
        <time>2021-03-30T09:13:53Z</time>
      </trkpt>
      <trkpt lat="45.53491" lon="6.85509">
        <ele>3384.1</ele>
        <time>2021-03-30T09:13:54Z</time>
      </trkpt>
      <trkpt lat="45.53491" lon="6.85509">
        <ele>3384.1</ele>
        <time>2021-03-30T09:13:55Z</time>
      </trkpt>
      <trkpt lat="45.53491" lon="6.85509">
        <ele>3384.1</ele>
        <time>2021-03-30T09:13:56Z</time>
      </trkpt>
      <trkpt lat="45.53491" lon="6.85509">
        <ele>3384.1</ele>
        <time>2021-03-30T09:13:57Z</time>
      </trkpt>
      <trkpt lat="45.5349" lon="6.85509">
        <ele>3384.1</ele>
        <time>2021-03-30T09:13:58Z</time>
      </trkpt>
      <trkpt lat="45.53489" lon="6.8551">
        <ele>3384.1</ele>
        <time>2021-03-30T09:13:59Z</time>
      </trkpt>
      <trkpt lat="45.53488" lon="6.8551">
        <ele>3384.1</ele>
        <time>2021-03-30T09:14:00Z</time>
      </trkpt>
      <trkpt lat="45.53487" lon="6.8551">
        <ele>3384.1</ele>
        <time>2021-03-30T09:14:01Z</time>
      </trkpt>
      <trkpt lat="45.53487" lon="6.8551">
        <ele>3384.1</ele>
        <time>2021-03-30T09:14:02Z</time>
      </trkpt>
      <trkpt lat="45.53486" lon="6.8551">
        <ele>3384.1</ele>
        <time>2021-03-30T09:14:03Z</time>
      </trkpt>
      <trkpt lat="45.53485" lon="6.8551">
        <ele>3384.1</ele>
        <time>2021-03-30T09:14:04Z</time>
      </trkpt>
      <trkpt lat="45.53485" lon="6.8551">
        <ele>3384.1</ele>
        <time>2021-03-30T09:14:05Z</time>
      </trkpt>
      <trkpt lat="45.53484" lon="6.8551">
        <ele>3384.1</ele>
        <time>2021-03-30T09:14:06Z</time>
      </trkpt>
      <trkpt lat="45.53483" lon="6.8551">
        <ele>3384.1</ele>
        <time>2021-03-30T09:14:07Z</time>
      </trkpt>
      <trkpt lat="45.53483" lon="6.8551">
        <ele>3384.1</ele>
        <time>2021-03-30T09:14:08Z</time>
      </trkpt>
      <trkpt lat="45.53483" lon="6.8551">
        <ele>3384.1</ele>
        <time>2021-03-30T09:14:09Z</time>
      </trkpt>
      <trkpt lat="45.53482" lon="6.8551">
        <ele>3383.9</ele>
        <time>2021-03-30T09:14:10Z</time>
      </trkpt>
      <trkpt lat="45.53481" lon="6.85509">
        <ele>3383.9</ele>
        <time>2021-03-30T09:14:11Z</time>
      </trkpt>
      <trkpt lat="45.5348" lon="6.85509">
        <ele>3383.9</ele>
        <time>2021-03-30T09:14:12Z</time>
      </trkpt>
      <trkpt lat="45.53479" lon="6.85509">
        <ele>3383.8</ele>
        <time>2021-03-30T09:14:13Z</time>
      </trkpt>
      <trkpt lat="45.53478" lon="6.85509">
        <ele>3383.8</ele>
        <time>2021-03-30T09:14:14Z</time>
      </trkpt>
      <trkpt lat="45.53477" lon="6.85509">
        <ele>3383.8</ele>
        <time>2021-03-30T09:14:15Z</time>
      </trkpt>
      <trkpt lat="45.53477" lon="6.85509">
        <ele>3383.8</ele>
        <time>2021-03-30T09:14:16Z</time>
      </trkpt>
      <trkpt lat="45.53476" lon="6.85509">
        <ele>3383.5</ele>
        <time>2021-03-30T09:14:17Z</time>
      </trkpt>
      <trkpt lat="45.53475" lon="6.85509">
        <ele>3383.5</ele>
        <time>2021-03-30T09:14:18Z</time>
      </trkpt>
      <trkpt lat="45.53474" lon="6.8551">
        <ele>3383.5</ele>
        <time>2021-03-30T09:14:19Z</time>
      </trkpt>
      <trkpt lat="45.53474" lon="6.8551">
        <ele>3383.5</ele>
        <time>2021-03-30T09:14:20Z</time>
      </trkpt>
      <trkpt lat="45.53473" lon="6.8551">
        <ele>3383.2</ele>
        <time>2021-03-30T09:14:21Z</time>
      </trkpt>
      <trkpt lat="45.53473" lon="6.8551">
        <ele>3383.2</ele>
        <time>2021-03-30T09:14:22Z</time>
      </trkpt>
      <trkpt lat="45.53472" lon="6.85511">
        <ele>3383.2</ele>
        <time>2021-03-30T09:14:23Z</time>
      </trkpt>
      <trkpt lat="45.53471" lon="6.85511">
        <ele>3383.2</ele>
        <time>2021-03-30T09:14:24Z</time>
      </trkpt>
      <trkpt lat="45.53471" lon="6.85512">
        <ele>3383.2</ele>
        <time>2021-03-30T09:14:25Z</time>
      </trkpt>
      <trkpt lat="45.5347" lon="6.85512">
        <ele>3383.2</ele>
        <time>2021-03-30T09:14:26Z</time>
      </trkpt>
      <trkpt lat="45.5347" lon="6.85512">
        <ele>3382.8</ele>
        <time>2021-03-30T09:14:27Z</time>
      </trkpt>
      <trkpt lat="45.53469" lon="6.85512">
        <ele>3382.8</ele>
        <time>2021-03-30T09:14:28Z</time>
      </trkpt>
      <trkpt lat="45.53468" lon="6.85513">
        <ele>3383.6</ele>
        <time>2021-03-30T09:14:29Z</time>
      </trkpt>
      <trkpt lat="45.53467" lon="6.85513">
        <ele>3383.6</ele>
        <time>2021-03-30T09:14:30Z</time>
      </trkpt>
      <trkpt lat="45.53467" lon="6.85513">
        <ele>3383.2</ele>
        <time>2021-03-30T09:14:31Z</time>
      </trkpt>
      <trkpt lat="45.53466" lon="6.85513">
        <ele>3383.2</ele>
        <time>2021-03-30T09:14:32Z</time>
      </trkpt>
      <trkpt lat="45.53466" lon="6.85513">
        <ele>3382.4</ele>
        <time>2021-03-30T09:14:33Z</time>
      </trkpt>
      <trkpt lat="45.53465" lon="6.85512">
        <ele>3382.4</ele>
        <time>2021-03-30T09:14:34Z</time>
      </trkpt>
      <trkpt lat="45.53464" lon="6.85512">
        <ele>3382.4</ele>
        <time>2021-03-30T09:14:35Z</time>
      </trkpt>
      <trkpt lat="45.53464" lon="6.85512">
        <ele>3381.9</ele>
        <time>2021-03-30T09:14:36Z</time>
      </trkpt>
      <trkpt lat="45.53463" lon="6.85512">
        <ele>3381.9</ele>
        <time>2021-03-30T09:14:37Z</time>
      </trkpt>
      <trkpt lat="45.53463" lon="6.85511">
        <ele>3381.9</ele>
        <time>2021-03-30T09:14:38Z</time>
      </trkpt>
      <trkpt lat="45.53463" lon="6.85511">
        <ele>3381.9</ele>
        <time>2021-03-30T09:14:39Z</time>
      </trkpt>
      <trkpt lat="45.53462" lon="6.85511">
        <ele>3381.9</ele>
        <time>2021-03-30T09:14:40Z</time>
      </trkpt>
      <trkpt lat="45.53462" lon="6.8551">
        <ele>3381.9</ele>
        <time>2021-03-30T09:14:41Z</time>
      </trkpt>
      <trkpt lat="45.53462" lon="6.8551">
        <ele>3381.9</ele>
        <time>2021-03-30T09:14:42Z</time>
      </trkpt>
      <trkpt lat="45.53461" lon="6.85509">
        <ele>3381.9</ele>
        <time>2021-03-30T09:14:43Z</time>
      </trkpt>
      <trkpt lat="45.53461" lon="6.85509">
        <ele>3381.4</ele>
        <time>2021-03-30T09:14:44Z</time>
      </trkpt>
      <trkpt lat="45.5346" lon="6.85509">
        <ele>3381.4</ele>
        <time>2021-03-30T09:14:45Z</time>
      </trkpt>
      <trkpt lat="45.5346" lon="6.85508">
        <ele>3380.6</ele>
        <time>2021-03-30T09:14:46Z</time>
      </trkpt>
      <trkpt lat="45.53459" lon="6.85508">
        <ele>3380.6</ele>
        <time>2021-03-30T09:14:47Z</time>
      </trkpt>
      <trkpt lat="45.53459" lon="6.85508">
        <ele>3380.6</ele>
        <time>2021-03-30T09:14:48Z</time>
      </trkpt>
      <trkpt lat="45.53459" lon="6.85508">
        <ele>3380.6</ele>
        <time>2021-03-30T09:14:49Z</time>
      </trkpt>
      <trkpt lat="45.53458" lon="6.85508">
        <ele>3380</ele>
        <time>2021-03-30T09:14:50Z</time>
      </trkpt>
      <trkpt lat="45.53458" lon="6.85507">
        <ele>3380</ele>
        <time>2021-03-30T09:14:51Z</time>
      </trkpt>
      <trkpt lat="45.53457" lon="6.85507">
        <ele>3380</ele>
        <time>2021-03-30T09:14:52Z</time>
      </trkpt>
      <trkpt lat="45.53457" lon="6.85507">
        <ele>3380</ele>
        <time>2021-03-30T09:14:53Z</time>
      </trkpt>
      <trkpt lat="45.53456" lon="6.85507">
        <ele>3380</ele>
        <time>2021-03-30T09:14:54Z</time>
      </trkpt>
      <trkpt lat="45.53456" lon="6.85507">
        <ele>3380</ele>
        <time>2021-03-30T09:14:55Z</time>
      </trkpt>
      <trkpt lat="45.53455" lon="6.85508">
        <ele>3380</ele>
        <time>2021-03-30T09:14:56Z</time>
      </trkpt>
      <trkpt lat="45.53455" lon="6.85508">
        <ele>3379.3</ele>
        <time>2021-03-30T09:14:57Z</time>
      </trkpt>
      <trkpt lat="45.53455" lon="6.85508">
        <ele>3379.3</ele>
        <time>2021-03-30T09:14:58Z</time>
      </trkpt>
      <trkpt lat="45.53455" lon="6.85508">
        <ele>3380.2</ele>
        <time>2021-03-30T09:14:59Z</time>
      </trkpt>
      <trkpt lat="45.53454" lon="6.85509">
        <ele>3380.2</ele>
        <time>2021-03-30T09:15:00Z</time>
      </trkpt>
      <trkpt lat="45.53454" lon="6.8551">
        <ele>3380.2</ele>
        <time>2021-03-30T09:15:01Z</time>
      </trkpt>
      <trkpt lat="45.53454" lon="6.8551">
        <ele>3380.2</ele>
        <time>2021-03-30T09:15:02Z</time>
      </trkpt>
      <trkpt lat="45.53454" lon="6.85511">
        <ele>3380.2</ele>
        <time>2021-03-30T09:15:03Z</time>
      </trkpt>
      <trkpt lat="45.53454" lon="6.85511">
        <ele>3380.2</ele>
        <time>2021-03-30T09:15:04Z</time>
      </trkpt>
      <trkpt lat="45.53453" lon="6.85512">
        <ele>3380.2</ele>
        <time>2021-03-30T09:15:05Z</time>
      </trkpt>
      <trkpt lat="45.53453" lon="6.85512">
        <ele>3380.2</ele>
        <time>2021-03-30T09:15:06Z</time>
      </trkpt>
      <trkpt lat="45.53453" lon="6.85513">
        <ele>3381</ele>
        <time>2021-03-30T09:15:07Z</time>
      </trkpt>
      <trkpt lat="45.53452" lon="6.85514">
        <ele>3381</ele>
        <time>2021-03-30T09:15:08Z</time>
      </trkpt>
      <trkpt lat="45.53452" lon="6.85515">
        <ele>3380.3</ele>
        <time>2021-03-30T09:15:09Z</time>
      </trkpt>
      <trkpt lat="45.53452" lon="6.85515">
        <ele>3380.3</ele>
        <time>2021-03-30T09:15:10Z</time>
      </trkpt>
      <trkpt lat="45.53452" lon="6.85516">
        <ele>3380.3</ele>
        <time>2021-03-30T09:15:11Z</time>
      </trkpt>
      <trkpt lat="45.53452" lon="6.85516">
        <ele>3380.3</ele>
        <time>2021-03-30T09:15:12Z</time>
      </trkpt>
      <trkpt lat="45.53451" lon="6.85517">
        <ele>3380.3</ele>
        <time>2021-03-30T09:15:13Z</time>
      </trkpt>
      <trkpt lat="45.53451" lon="6.85517">
        <ele>3381.2</ele>
        <time>2021-03-30T09:15:14Z</time>
      </trkpt>
      <trkpt lat="45.53451" lon="6.85518">
        <ele>3381.2</ele>
        <time>2021-03-30T09:15:15Z</time>
      </trkpt>
      <trkpt lat="45.53451" lon="6.85518">
        <ele>3381.2</ele>
        <time>2021-03-30T09:15:16Z</time>
      </trkpt>
      <trkpt lat="45.53451" lon="6.85519">
        <ele>3381.2</ele>
        <time>2021-03-30T09:15:17Z</time>
      </trkpt>
      <trkpt lat="45.53451" lon="6.85519">
        <ele>3381.2</ele>
        <time>2021-03-30T09:15:18Z</time>
      </trkpt>
      <trkpt lat="45.5345" lon="6.8552">
        <ele>3381.2</ele>
        <time>2021-03-30T09:15:19Z</time>
      </trkpt>
      <trkpt lat="45.5345" lon="6.8552">
        <ele>3381.2</ele>
        <time>2021-03-30T09:15:20Z</time>
      </trkpt>
      <trkpt lat="45.5345" lon="6.85521">
        <ele>3381.2</ele>
        <time>2021-03-30T09:15:21Z</time>
      </trkpt>
      <trkpt lat="45.5345" lon="6.85521">
        <ele>3381.2</ele>
        <time>2021-03-30T09:15:22Z</time>
      </trkpt>
      <trkpt lat="45.5345" lon="6.85521">
        <ele>3381.2</ele>
        <time>2021-03-30T09:15:23Z</time>
      </trkpt>
      <trkpt lat="45.5345" lon="6.85521">
        <ele>3381.2</ele>
        <time>2021-03-30T09:15:24Z</time>
      </trkpt>
      <trkpt lat="45.5345" lon="6.85521">
        <ele>3381.2</ele>
        <time>2021-03-30T09:15:25Z</time>
      </trkpt>
      <trkpt lat="45.5345" lon="6.85521">
        <ele>3381.2</ele>
        <time>2021-03-30T09:15:26Z</time>
      </trkpt>
      <trkpt lat="45.5345" lon="6.85521">
        <ele>3381.2</ele>
        <time>2021-03-30T09:15:27Z</time>
      </trkpt>
      <trkpt lat="45.53449" lon="6.85521">
        <ele>3381.2</ele>
        <time>2021-03-30T09:15:28Z</time>
      </trkpt>
      <trkpt lat="45.53449" lon="6.85521">
        <ele>3381.2</ele>
        <time>2021-03-30T09:15:29Z</time>
      </trkpt>
      <trkpt lat="45.53449" lon="6.85521">
        <ele>3381.2</ele>
        <time>2021-03-30T09:15:30Z</time>
      </trkpt>
      <trkpt lat="45.53449" lon="6.85521">
        <ele>3380.5</ele>
        <time>2021-03-30T09:15:31Z</time>
      </trkpt>
      <trkpt lat="45.53449" lon="6.85521">
        <ele>3380.5</ele>
        <time>2021-03-30T09:18:27Z</time>
      </trkpt>
      <trkpt lat="45.53449" lon="6.85521">
        <ele>3380.5</ele>
        <time>2021-03-30T09:18:28Z</time>
      </trkpt>
      <trkpt lat="45.53449" lon="6.85521">
        <ele>3380.5</ele>
        <time>2021-03-30T09:18:29Z</time>
      </trkpt>
      <trkpt lat="45.53449" lon="6.85521">
        <ele>3380.5</ele>
        <time>2021-03-30T09:18:30Z</time>
      </trkpt>
      <trkpt lat="45.53449" lon="6.85521">
        <ele>3380.5</ele>
        <time>2021-03-30T09:18:31Z</time>
      </trkpt>
      <trkpt lat="45.53449" lon="6.85521">
        <ele>3380.5</ele>
        <time>2021-03-30T09:18:32Z</time>
      </trkpt>
      <trkpt lat="45.53448" lon="6.85521">
        <ele>3380.5</ele>
        <time>2021-03-30T09:18:33Z</time>
      </trkpt>
      <trkpt lat="45.53448" lon="6.85521">
        <ele>3380.5</ele>
        <time>2021-03-30T09:18:34Z</time>
      </trkpt>
      <trkpt lat="45.53448" lon="6.85521">
        <ele>3380.5</ele>
        <time>2021-03-30T09:18:35Z</time>
      </trkpt>
      <trkpt lat="45.53448" lon="6.85521">
        <ele>3380.5</ele>
        <time>2021-03-30T09:18:36Z</time>
      </trkpt>
      <trkpt lat="45.53448" lon="6.85521">
        <ele>3380.5</ele>
        <time>2021-03-30T09:18:37Z</time>
      </trkpt>
      <trkpt lat="45.53448" lon="6.85521">
        <ele>3380.5</ele>
        <time>2021-03-30T09:18:38Z</time>
      </trkpt>
      <trkpt lat="45.53448" lon="6.85521">
        <ele>3380.5</ele>
        <time>2021-03-30T09:18:42Z</time>
      </trkpt>
      <trkpt lat="45.53448" lon="6.85521">
        <ele>3380.5</ele>
        <time>2021-03-30T09:18:43Z</time>
      </trkpt>
      <trkpt lat="45.53448" lon="6.85521">
        <ele>3380.5</ele>
        <time>2021-03-30T09:18:44Z</time>
      </trkpt>
      <trkpt lat="45.53447" lon="6.85521">
        <ele>3380.5</ele>
        <time>2021-03-30T09:18:45Z</time>
      </trkpt>
      <trkpt lat="45.53447" lon="6.85521">
        <ele>3380.5</ele>
        <time>2021-03-30T09:18:46Z</time>
      </trkpt>
      <trkpt lat="45.53447" lon="6.85521">
        <ele>3380.5</ele>
        <time>2021-03-30T09:18:47Z</time>
      </trkpt>
      <trkpt lat="45.53447" lon="6.85521">
        <ele>3380.5</ele>
        <time>2021-03-30T09:18:48Z</time>
      </trkpt>
      <trkpt lat="45.53447" lon="6.85521">
        <ele>3380.5</ele>
        <time>2021-03-30T09:18:49Z</time>
      </trkpt>
      <trkpt lat="45.53447" lon="6.85521">
        <ele>3380.5</ele>
        <time>2021-03-30T09:18:50Z</time>
      </trkpt>
      <trkpt lat="45.53447" lon="6.85521">
        <ele>3380.5</ele>
        <time>2021-03-30T09:18:51Z</time>
      </trkpt>
      <trkpt lat="45.53447" lon="6.85521">
        <ele>3380.5</ele>
        <time>2021-03-30T09:29:32Z</time>
      </trkpt>
      <trkpt lat="45.53447" lon="6.85521">
        <ele>3380.5</ele>
        <time>2021-03-30T09:29:33Z</time>
      </trkpt>
      <trkpt lat="45.53447" lon="6.85521">
        <ele>3380.5</ele>
        <time>2021-03-30T09:29:34Z</time>
      </trkpt>
      <trkpt lat="45.53446" lon="6.85521">
        <ele>3380.5</ele>
        <time>2021-03-30T09:29:35Z</time>
      </trkpt>
      <trkpt lat="45.53446" lon="6.85521">
        <ele>3380.5</ele>
        <time>2021-03-30T09:29:36Z</time>
      </trkpt>
      <trkpt lat="45.53446" lon="6.85521">
        <ele>3380.5</ele>
        <time>2021-03-30T09:29:37Z</time>
      </trkpt>
      <trkpt lat="45.53447" lon="6.8552">
        <ele>3380.5</ele>
        <time>2021-03-30T09:29:38Z</time>
      </trkpt>
      <trkpt lat="45.53447" lon="6.85521">
        <ele>3380.5</ele>
        <time>2021-03-30T09:29:39Z</time>
      </trkpt>
      <trkpt lat="45.53447" lon="6.85521">
        <ele>3380.5</ele>
        <time>2021-03-30T09:29:40Z</time>
      </trkpt>
      <trkpt lat="45.53447" lon="6.85522">
        <ele>3381.4</ele>
        <time>2021-03-30T09:29:41Z</time>
      </trkpt>
      <trkpt lat="45.53447" lon="6.85522">
        <ele>3381.4</ele>
        <time>2021-03-30T09:29:42Z</time>
      </trkpt>
      <trkpt lat="45.53447" lon="6.85523">
        <ele>3381.4</ele>
        <time>2021-03-30T09:30:58Z</time>
      </trkpt>
      <trkpt lat="45.53447" lon="6.85523">
        <ele>3381.4</ele>
        <time>2021-03-30T09:30:59Z</time>
      </trkpt>
      <trkpt lat="45.53447" lon="6.85523">
        <ele>3381.4</ele>
        <time>2021-03-30T09:31:00Z</time>
      </trkpt>
      <trkpt lat="45.53447" lon="6.85524">
        <ele>3381.4</ele>
        <time>2021-03-30T09:31:01Z</time>
      </trkpt>
      <trkpt lat="45.53447" lon="6.85524">
        <ele>3381.4</ele>
        <time>2021-03-30T09:31:02Z</time>
      </trkpt>
      <trkpt lat="45.53446" lon="6.85525">
        <ele>3381.4</ele>
        <time>2021-03-30T09:31:03Z</time>
      </trkpt>
      <trkpt lat="45.53446" lon="6.85525">
        <ele>3381.4</ele>
        <time>2021-03-30T09:31:04Z</time>
      </trkpt>
      <trkpt lat="45.53446" lon="6.85526">
        <ele>3382.4</ele>
        <time>2021-03-30T09:31:05Z</time>
      </trkpt>
      <trkpt lat="45.53446" lon="6.85526">
        <ele>3382.4</ele>
        <time>2021-03-30T09:31:06Z</time>
      </trkpt>
      <trkpt lat="45.53447" lon="6.85523">
        <ele>3381.4</ele>
        <time>2021-03-30T09:31:07Z</time>
      </trkpt>
      <trkpt lat="45.53446" lon="6.85522">
        <ele>3381.4</ele>
        <time>2021-03-30T09:31:08Z</time>
      </trkpt>
      <trkpt lat="45.53446" lon="6.85523">
        <ele>3380.6</ele>
        <time>2021-03-30T09:31:09Z</time>
      </trkpt>
      <trkpt lat="45.53446" lon="6.85524">
        <ele>3380.6</ele>
        <time>2021-03-30T09:31:10Z</time>
      </trkpt>
      <trkpt lat="45.53446" lon="6.85525">
        <ele>3380.6</ele>
        <time>2021-03-30T09:31:11Z</time>
      </trkpt>
      <trkpt lat="45.53445" lon="6.85527">
        <ele>3381.6</ele>
        <time>2021-03-30T09:31:12Z</time>
      </trkpt>
      <trkpt lat="45.53445" lon="6.85528">
        <ele>3381.6</ele>
        <time>2021-03-30T09:31:13Z</time>
      </trkpt>
      <trkpt lat="45.53445" lon="6.85529">
        <ele>3381.6</ele>
        <time>2021-03-30T09:31:14Z</time>
      </trkpt>
      <trkpt lat="45.53445" lon="6.8553">
        <ele>3381.6</ele>
        <time>2021-03-30T09:31:15Z</time>
      </trkpt>
      <trkpt lat="45.53445" lon="6.85531">
        <ele>3382.7</ele>
        <time>2021-03-30T09:31:16Z</time>
      </trkpt>
      <trkpt lat="45.53444" lon="6.85532">
        <ele>3382.7</ele>
        <time>2021-03-30T09:31:17Z</time>
      </trkpt>
      <trkpt lat="45.53444" lon="6.85533">
        <ele>3382.7</ele>
        <time>2021-03-30T09:31:18Z</time>
      </trkpt>
      <trkpt lat="45.53444" lon="6.85534">
        <ele>3382.7</ele>
        <time>2021-03-30T09:31:51Z</time>
      </trkpt>
      <trkpt lat="45.53444" lon="6.85535">
        <ele>3383.7</ele>
        <time>2021-03-30T09:31:52Z</time>
      </trkpt>
      <trkpt lat="45.53443" lon="6.85537">
        <ele>3382.9</ele>
        <time>2021-03-30T09:31:53Z</time>
      </trkpt>
      <trkpt lat="45.53443" lon="6.85538">
        <ele>3382.9</ele>
        <time>2021-03-30T09:31:54Z</time>
      </trkpt>
      <trkpt lat="45.53443" lon="6.8554">
        <ele>3384</ele>
        <time>2021-03-30T09:31:55Z</time>
      </trkpt>
      <trkpt lat="45.53442" lon="6.85539">
        <ele>3384</ele>
        <time>2021-03-30T09:31:56Z</time>
      </trkpt>
      <trkpt lat="45.53442" lon="6.85537">
        <ele>3382.9</ele>
        <time>2021-03-30T09:31:57Z</time>
      </trkpt>
      <trkpt lat="45.53442" lon="6.85536">
        <ele>3382.9</ele>
        <time>2021-03-30T09:31:58Z</time>
      </trkpt>
      <trkpt lat="45.53442" lon="6.85534">
        <ele>3381.9</ele>
        <time>2021-03-30T09:31:59Z</time>
      </trkpt>
      <trkpt lat="45.53441" lon="6.85532">
        <ele>3381.9</ele>
        <time>2021-03-30T09:32:00Z</time>
      </trkpt>
      <trkpt lat="45.53441" lon="6.8553">
        <ele>3381.9</ele>
        <time>2021-03-30T09:32:01Z</time>
      </trkpt>
      <trkpt lat="45.5344" lon="6.85529">
        <ele>3380.8</ele>
        <time>2021-03-30T09:32:02Z</time>
      </trkpt>
      <trkpt lat="45.5344" lon="6.85527">
        <ele>3380.8</ele>
        <time>2021-03-30T09:32:03Z</time>
      </trkpt>
      <trkpt lat="45.5344" lon="6.85527">
        <ele>3379.9</ele>
        <time>2021-03-30T09:32:04Z</time>
      </trkpt>
      <trkpt lat="45.53438" lon="6.85529">
        <ele>3379.9</ele>
        <time>2021-03-30T09:32:05Z</time>
      </trkpt>
      <trkpt lat="45.53436" lon="6.85532">
        <ele>3380.1</ele>
        <time>2021-03-30T09:32:06Z</time>
      </trkpt>
      <trkpt lat="45.53437" lon="6.85533">
        <ele>3380.1</ele>
        <time>2021-03-30T09:32:07Z</time>
      </trkpt>
      <trkpt lat="45.53437" lon="6.85533">
        <ele>3381</ele>
        <time>2021-03-30T09:32:08Z</time>
      </trkpt>
      <trkpt lat="45.53438" lon="6.85532">
        <ele>3381</ele>
        <time>2021-03-30T09:32:09Z</time>
      </trkpt>
      <trkpt lat="45.53439" lon="6.85532">
        <ele>3381</ele>
        <time>2021-03-30T09:32:10Z</time>
      </trkpt>
      <trkpt lat="45.5344" lon="6.85532">
        <ele>3381</ele>
        <time>2021-03-30T09:32:11Z</time>
      </trkpt>
      <trkpt lat="45.5344" lon="6.85532">
        <ele>3381.9</ele>
        <time>2021-03-30T09:32:12Z</time>
      </trkpt>
      <trkpt lat="45.53441" lon="6.85531">
        <ele>3381.9</ele>
        <time>2021-03-30T09:32:13Z</time>
      </trkpt>
      <trkpt lat="45.53441" lon="6.85531">
        <ele>3381.9</ele>
        <time>2021-03-30T09:32:14Z</time>
      </trkpt>
      <trkpt lat="45.53441" lon="6.85531">
        <ele>3381.9</ele>
        <time>2021-03-30T09:32:15Z</time>
      </trkpt>
      <trkpt lat="45.53441" lon="6.8553">
        <ele>3381.9</ele>
        <time>2021-03-30T09:32:16Z</time>
      </trkpt>
      <trkpt lat="45.53442" lon="6.8553">
        <ele>3380.8</ele>
        <time>2021-03-30T09:32:17Z</time>
      </trkpt>
      <trkpt lat="45.53442" lon="6.85529">
        <ele>3380.8</ele>
        <time>2021-03-30T09:32:18Z</time>
      </trkpt>
      <trkpt lat="45.53442" lon="6.85529">
        <ele>3380.8</ele>
        <time>2021-03-30T09:32:33Z</time>
      </trkpt>
      <trkpt lat="45.53442" lon="6.85528">
        <ele>3380.8</ele>
        <time>2021-03-30T09:32:34Z</time>
      </trkpt>
      <trkpt lat="45.53443" lon="6.85528">
        <ele>3380.8</ele>
        <time>2021-03-30T09:32:35Z</time>
      </trkpt>
      <trkpt lat="45.53443" lon="6.85527">
        <ele>3380.8</ele>
        <time>2021-03-30T09:32:36Z</time>
      </trkpt>
      <trkpt lat="45.53443" lon="6.85527">
        <ele>3381.6</ele>
        <time>2021-03-30T09:32:37Z</time>
      </trkpt>
      <trkpt lat="45.53443" lon="6.85526">
        <ele>3381.6</ele>
        <time>2021-03-30T09:32:38Z</time>
      </trkpt>
      <trkpt lat="45.53444" lon="6.85526">
        <ele>3381.6</ele>
        <time>2021-03-30T09:32:39Z</time>
      </trkpt>
      <trkpt lat="45.53444" lon="6.85525">
        <ele>3380.6</ele>
        <time>2021-03-30T09:32:40Z</time>
      </trkpt>
      <trkpt lat="45.53444" lon="6.85524">
        <ele>3380.6</ele>
        <time>2021-03-30T09:32:41Z</time>
      </trkpt>
      <trkpt lat="45.53444" lon="6.85523">
        <ele>3380.6</ele>
        <time>2021-03-30T09:32:42Z</time>
      </trkpt>
      <trkpt lat="45.53445" lon="6.85522">
        <ele>3380.6</ele>
        <time>2021-03-30T09:32:43Z</time>
      </trkpt>
      <trkpt lat="45.53445" lon="6.85522">
        <ele>3380.6</ele>
        <time>2021-03-30T09:32:44Z</time>
      </trkpt>
      <trkpt lat="45.53445" lon="6.85522">
        <ele>3380.6</ele>
        <time>2021-03-30T09:32:45Z</time>
      </trkpt>
      <trkpt lat="45.53445" lon="6.85521">
        <ele>3380.6</ele>
        <time>2021-03-30T09:32:46Z</time>
      </trkpt>
      <trkpt lat="45.53446" lon="6.8552">
        <ele>3379.7</ele>
        <time>2021-03-30T09:32:47Z</time>
      </trkpt>
      <trkpt lat="45.53446" lon="6.85519">
        <ele>3379.7</ele>
        <time>2021-03-30T09:32:48Z</time>
      </trkpt>
      <trkpt lat="45.53446" lon="6.85518">
        <ele>3379.7</ele>
        <time>2021-03-30T09:32:49Z</time>
      </trkpt>
      <trkpt lat="45.53446" lon="6.85517">
        <ele>3380.5</ele>
        <time>2021-03-30T09:32:50Z</time>
      </trkpt>
      <trkpt lat="45.53447" lon="6.85517">
        <ele>3379.6</ele>
        <time>2021-03-30T09:32:51Z</time>
      </trkpt>
      <trkpt lat="45.53448" lon="6.85515">
        <ele>3379.6</ele>
        <time>2021-03-30T09:32:52Z</time>
      </trkpt>
      <trkpt lat="45.53449" lon="6.85513">
        <ele>3379.6</ele>
        <time>2021-03-30T09:32:53Z</time>
      </trkpt>
      <trkpt lat="45.53449" lon="6.85513">
        <ele>3379.4</ele>
        <time>2021-03-30T09:32:54Z</time>
      </trkpt>
      <trkpt lat="45.5345" lon="6.85511">
        <ele>3379.4</ele>
        <time>2021-03-30T09:32:55Z</time>
      </trkpt>
      <trkpt lat="45.5345" lon="6.8551">
        <ele>3379.4</ele>
        <time>2021-03-30T09:32:56Z</time>
      </trkpt>
      <trkpt lat="45.5345" lon="6.85509">
        <ele>3379.4</ele>
        <time>2021-03-30T09:32:57Z</time>
      </trkpt>
      <trkpt lat="45.53449" lon="6.85508">
        <ele>3378.5</ele>
        <time>2021-03-30T09:32:58Z</time>
      </trkpt>
      <trkpt lat="45.53449" lon="6.85508">
        <ele>3377.7</ele>
        <time>2021-03-30T09:32:59Z</time>
      </trkpt>
      <trkpt lat="45.53448" lon="6.85508">
        <ele>3377.7</ele>
        <time>2021-03-30T09:33:00Z</time>
      </trkpt>
      <trkpt lat="45.53448" lon="6.85508">
        <ele>3377.7</ele>
        <time>2021-03-30T09:33:01Z</time>
      </trkpt>
      <trkpt lat="45.53448" lon="6.85507">
        <ele>3377.7</ele>
        <time>2021-03-30T09:33:02Z</time>
      </trkpt>
      <trkpt lat="45.53448" lon="6.85507">
        <ele>3377.7</ele>
        <time>2021-03-30T09:33:03Z</time>
      </trkpt>
      <trkpt lat="45.53447" lon="6.85506">
        <ele>3377.7</ele>
        <time>2021-03-30T09:33:04Z</time>
      </trkpt>
      <trkpt lat="45.53446" lon="6.85505">
        <ele>3376.9</ele>
        <time>2021-03-30T09:33:05Z</time>
      </trkpt>
      <trkpt lat="45.53446" lon="6.85505">
        <ele>3376.9</ele>
        <time>2021-03-30T09:33:06Z</time>
      </trkpt>
      <trkpt lat="45.53445" lon="6.85505">
        <ele>3376.9</ele>
        <time>2021-03-30T09:33:07Z</time>
      </trkpt>
      <trkpt lat="45.53445" lon="6.85505">
        <ele>3376.9</ele>
        <time>2021-03-30T09:33:08Z</time>
      </trkpt>
      <trkpt lat="45.53446" lon="6.85507">
        <ele>3376.9</ele>
        <time>2021-03-30T09:33:09Z</time>
      </trkpt>
      <trkpt lat="45.53447" lon="6.85509">
        <ele>3378.7</ele>
        <time>2021-03-30T09:33:10Z</time>
      </trkpt>
      <trkpt lat="45.53447" lon="6.8551">
        <ele>3378.7</ele>
        <time>2021-03-30T09:33:11Z</time>
      </trkpt>
      <trkpt lat="45.53445" lon="6.85509">
        <ele>3377.8</ele>
        <time>2021-03-30T09:33:12Z</time>
      </trkpt>
      <trkpt lat="45.53445" lon="6.85509">
        <ele>3377.8</ele>
        <time>2021-03-30T09:33:13Z</time>
      </trkpt>
      <trkpt lat="45.53444" lon="6.85509">
        <ele>3377.8</ele>
        <time>2021-03-30T09:33:14Z</time>
      </trkpt>
      <trkpt lat="45.53443" lon="6.85508">
        <ele>3377</ele>
        <time>2021-03-30T09:33:15Z</time>
      </trkpt>
      <trkpt lat="45.5344" lon="6.85506">
        <ele>3375.1</ele>
        <time>2021-03-30T09:33:16Z</time>
      </trkpt>
      <trkpt lat="45.53438" lon="6.85506">
        <ele>3375.1</ele>
        <time>2021-03-30T09:33:17Z</time>
      </trkpt>
      <trkpt lat="45.53435" lon="6.85504">
        <ele>3373</ele>
        <time>2021-03-30T09:33:18Z</time>
      </trkpt>
      <trkpt lat="45.53431" lon="6.85501">
        <ele>3371</ele>
        <time>2021-03-30T09:33:19Z</time>
      </trkpt>
      <trkpt lat="45.53427" lon="6.85498">
        <ele>3368.8</ele>
        <time>2021-03-30T09:33:20Z</time>
      </trkpt>
      <trkpt lat="45.53425" lon="6.85497">
        <ele>3368.8</ele>
        <time>2021-03-30T09:33:21Z</time>
      </trkpt>
      <trkpt lat="45.53424" lon="6.85496">
        <ele>3367.8</ele>
        <time>2021-03-30T09:33:22Z</time>
      </trkpt>
      <trkpt lat="45.53424" lon="6.85496">
        <ele>3367.8</ele>
        <time>2021-03-30T09:33:23Z</time>
      </trkpt>
      <trkpt lat="45.53423" lon="6.85496">
        <ele>3367.8</ele>
        <time>2021-03-30T09:33:24Z</time>
      </trkpt>
      <trkpt lat="45.53423" lon="6.85495">
        <ele>3366.6</ele>
        <time>2021-03-30T09:33:25Z</time>
      </trkpt>
      <trkpt lat="45.53423" lon="6.85495">
        <ele>3366.6</ele>
        <time>2021-03-30T09:33:26Z</time>
      </trkpt>
      <trkpt lat="45.53423" lon="6.85495">
        <ele>3366.6</ele>
        <time>2021-03-30T09:33:27Z</time>
      </trkpt>
      <trkpt lat="45.53423" lon="6.85494">
        <ele>3366.6</ele>
        <time>2021-03-30T09:33:28Z</time>
      </trkpt>
      <trkpt lat="45.53422" lon="6.85494">
        <ele>3366.6</ele>
        <time>2021-03-30T09:33:29Z</time>
      </trkpt>
      <trkpt lat="45.53422" lon="6.85494">
        <ele>3365.5</ele>
        <time>2021-03-30T09:33:30Z</time>
      </trkpt>
      <trkpt lat="45.53422" lon="6.85493">
        <ele>3365.5</ele>
        <time>2021-03-30T09:33:31Z</time>
      </trkpt>
      <trkpt lat="45.53422" lon="6.85493">
        <ele>3365.5</ele>
        <time>2021-03-30T09:33:32Z</time>
      </trkpt>
      <trkpt lat="45.53421" lon="6.85493">
        <ele>3365.5</ele>
        <time>2021-03-30T09:33:33Z</time>
      </trkpt>
      <trkpt lat="45.53421" lon="6.85492">
        <ele>3365.5</ele>
        <time>2021-03-30T09:33:34Z</time>
      </trkpt>
      <trkpt lat="45.53421" lon="6.85492">
        <ele>3365.5</ele>
        <time>2021-03-30T09:33:43Z</time>
      </trkpt>
      <trkpt lat="45.53421" lon="6.85492">
        <ele>3365.5</ele>
        <time>2021-03-30T09:33:44Z</time>
      </trkpt>
      <trkpt lat="45.53421" lon="6.85492">
        <ele>3365.5</ele>
        <time>2021-03-30T09:33:45Z</time>
      </trkpt>
      <trkpt lat="45.5342" lon="6.85491">
        <ele>3365.5</ele>
        <time>2021-03-30T09:33:46Z</time>
      </trkpt>
      <trkpt lat="45.5342" lon="6.85491">
        <ele>3364.4</ele>
        <time>2021-03-30T09:33:47Z</time>
      </trkpt>
      <trkpt lat="45.5342" lon="6.85491">
        <ele>3364.4</ele>
        <time>2021-03-30T09:33:48Z</time>
      </trkpt>
      <trkpt lat="45.5342" lon="6.8549">
        <ele>3364.4</ele>
        <time>2021-03-30T09:33:49Z</time>
      </trkpt>
      <trkpt lat="45.53419" lon="6.8549">
        <ele>3364.4</ele>
        <time>2021-03-30T09:33:50Z</time>
      </trkpt>
      <trkpt lat="45.53418" lon="6.85488">
        <ele>3363.3</ele>
        <time>2021-03-30T09:33:51Z</time>
      </trkpt>
      <trkpt lat="45.53418" lon="6.85487">
        <ele>3362.2</ele>
        <time>2021-03-30T09:33:52Z</time>
      </trkpt>
      <trkpt lat="45.53418" lon="6.85485">
        <ele>3362.2</ele>
        <time>2021-03-30T09:33:53Z</time>
      </trkpt>
      <trkpt lat="45.53418" lon="6.85484">
        <ele>3362.2</ele>
        <time>2021-03-30T09:34:04Z</time>
      </trkpt>
      <trkpt lat="45.53418" lon="6.85483">
        <ele>3362.2</ele>
        <time>2021-03-30T09:34:05Z</time>
      </trkpt>
      <trkpt lat="45.53418" lon="6.85482">
        <ele>3361.2</ele>
        <time>2021-03-30T09:34:06Z</time>
      </trkpt>
      <trkpt lat="45.53417" lon="6.85479">
        <ele>3361.2</ele>
        <time>2021-03-30T09:34:07Z</time>
      </trkpt>
      <trkpt lat="45.53416" lon="6.85477">
        <ele>3360.2</ele>
        <time>2021-03-30T09:34:08Z</time>
      </trkpt>
      <trkpt lat="45.53416" lon="6.85476">
        <ele>3359</ele>
        <time>2021-03-30T09:34:09Z</time>
      </trkpt>
      <trkpt lat="45.53415" lon="6.85474">
        <ele>3358</ele>
        <time>2021-03-30T09:34:10Z</time>
      </trkpt>
      <trkpt lat="45.53413" lon="6.85472">
        <ele>3358</ele>
        <time>2021-03-30T09:34:11Z</time>
      </trkpt>
      <trkpt lat="45.53413" lon="6.8547">
        <ele>3356.8</ele>
        <time>2021-03-30T09:34:12Z</time>
      </trkpt>
      <trkpt lat="45.53412" lon="6.85468">
        <ele>3355.8</ele>
        <time>2021-03-30T09:34:13Z</time>
      </trkpt>
      <trkpt lat="45.53412" lon="6.85465">
        <ele>3354.9</ele>
        <time>2021-03-30T09:34:14Z</time>
      </trkpt>
      <trkpt lat="45.53411" lon="6.85464">
        <ele>3354.9</ele>
        <time>2021-03-30T09:34:15Z</time>
      </trkpt>
      <trkpt lat="45.53412" lon="6.85463">
        <ele>3354.9</ele>
        <time>2021-03-30T09:34:16Z</time>
      </trkpt>
      <trkpt lat="45.53412" lon="6.85462">
        <ele>3354.9</ele>
        <time>2021-03-30T09:34:17Z</time>
      </trkpt>
      <trkpt lat="45.53413" lon="6.85462">
        <ele>3356.2</ele>
        <time>2021-03-30T09:34:18Z</time>
      </trkpt>
      <trkpt lat="45.53414" lon="6.85462">
        <ele>3356.2</ele>
        <time>2021-03-30T09:34:19Z</time>
      </trkpt>
      <trkpt lat="45.53416" lon="6.85461">
        <ele>3356.2</ele>
        <time>2021-03-30T09:34:20Z</time>
      </trkpt>
      <trkpt lat="45.53417" lon="6.85462">
        <ele>3357.5</ele>
        <time>2021-03-30T09:34:21Z</time>
      </trkpt>
      <trkpt lat="45.53418" lon="6.85462">
        <ele>3357.5</ele>
        <time>2021-03-30T09:34:22Z</time>
      </trkpt>
      <trkpt lat="45.53418" lon="6.85462">
        <ele>3357.5</ele>
        <time>2021-03-30T09:34:23Z</time>
      </trkpt>
      <trkpt lat="45.53418" lon="6.85462">
        <ele>3357.5</ele>
        <time>2021-03-30T09:34:24Z</time>
      </trkpt>
      <trkpt lat="45.53419" lon="6.85461">
        <ele>3356.7</ele>
        <time>2021-03-30T09:34:25Z</time>
      </trkpt>
      <trkpt lat="45.53419" lon="6.8546">
        <ele>3358</ele>
        <time>2021-03-30T09:34:26Z</time>
      </trkpt>
      <trkpt lat="45.53419" lon="6.8546">
        <ele>3358</ele>
        <time>2021-03-30T09:34:27Z</time>
      </trkpt>
      <trkpt lat="45.53421" lon="6.85461">
        <ele>3358.8</ele>
        <time>2021-03-30T09:34:28Z</time>
      </trkpt>
      <trkpt lat="45.53423" lon="6.85464">
        <ele>3360</ele>
        <time>2021-03-30T09:34:29Z</time>
      </trkpt>
      <trkpt lat="45.53423" lon="6.85464">
        <ele>3360</ele>
        <time>2021-03-30T09:34:30Z</time>
      </trkpt>
      <trkpt lat="45.53424" lon="6.85465">
        <ele>3360</ele>
        <time>2021-03-30T09:34:31Z</time>
      </trkpt>
      <trkpt lat="45.53425" lon="6.85465">
        <ele>3360</ele>
        <time>2021-03-30T09:34:32Z</time>
      </trkpt>
      <trkpt lat="45.53425" lon="6.85465">
        <ele>3361.2</ele>
        <time>2021-03-30T09:34:33Z</time>
      </trkpt>
      <trkpt lat="45.53426" lon="6.85464">
        <ele>3361.2</ele>
        <time>2021-03-30T09:34:34Z</time>
      </trkpt>
      <trkpt lat="45.53427" lon="6.85464">
        <ele>3361.2</ele>
        <time>2021-03-30T09:34:35Z</time>
      </trkpt>
      <trkpt lat="45.53427" lon="6.85463">
        <ele>3361.2</ele>
        <time>2021-03-30T09:34:36Z</time>
      </trkpt>
      <trkpt lat="45.53428" lon="6.85463">
        <ele>3361.2</ele>
        <time>2021-03-30T09:34:37Z</time>
      </trkpt>
      <trkpt lat="45.53429" lon="6.85463">
        <ele>3362.4</ele>
        <time>2021-03-30T09:34:38Z</time>
      </trkpt>
      <trkpt lat="45.5343" lon="6.85463">
        <ele>3362.4</ele>
        <time>2021-03-30T09:34:39Z</time>
      </trkpt>
      <trkpt lat="45.53431" lon="6.85463">
        <ele>3362.4</ele>
        <time>2021-03-30T09:34:40Z</time>
      </trkpt>
      <trkpt lat="45.5342" lon="6.85471">
        <ele>3360.5</ele>
        <time>2021-03-30T09:34:41Z</time>
      </trkpt>
      <trkpt lat="45.53409" lon="6.8548">
        <ele>3357.6</ele>
        <time>2021-03-30T09:35:08Z</time>
      </trkpt>
      <trkpt lat="45.53397" lon="6.85489">
        <ele>3355.4</ele>
        <time>2021-03-30T09:35:09Z</time>
      </trkpt>
      <trkpt lat="45.53395" lon="6.85489">
        <ele>3355.4</ele>
        <time>2021-03-30T09:35:10Z</time>
      </trkpt>
      <trkpt lat="45.53395" lon="6.85486">
        <ele>3353.1</ele>
        <time>2021-03-30T09:35:11Z</time>
      </trkpt>
      <trkpt lat="45.53395" lon="6.85475">
        <ele>3352.1</ele>
        <time>2021-03-30T09:35:12Z</time>
      </trkpt>
      <trkpt lat="45.53397" lon="6.85466">
        <ele>3350</ele>
        <time>2021-03-30T09:35:13Z</time>
      </trkpt>
      <trkpt lat="45.53399" lon="6.85457">
        <ele>3349.1</ele>
        <time>2021-03-30T09:35:14Z</time>
      </trkpt>
      <trkpt lat="45.534" lon="6.85448">
        <ele>3346.2</ele>
        <time>2021-03-30T09:35:15Z</time>
      </trkpt>
      <trkpt lat="45.53395" lon="6.85443">
        <ele>3343.9</ele>
        <time>2021-03-30T09:35:16Z</time>
      </trkpt>
      <trkpt lat="45.5339" lon="6.8544">
        <ele>3339.7</ele>
        <time>2021-03-30T09:35:17Z</time>
      </trkpt>
      <trkpt lat="45.53379" lon="6.854">
        <ele>3324.5</ele>
        <time>2021-03-30T09:35:18Z</time>
      </trkpt>
      <trkpt lat="45.53382" lon="6.85399">
        <ele>3326.1</ele>
        <time>2021-03-30T09:35:19Z</time>
      </trkpt>
      <trkpt lat="45.53382" lon="6.85405">
        <ele>3326.5</ele>
        <time>2021-03-30T09:35:20Z</time>
      </trkpt>
      <trkpt lat="45.53382" lon="6.8541">
        <ele>3328</ele>
        <time>2021-03-30T09:35:21Z</time>
      </trkpt>
      <trkpt lat="45.53382" lon="6.85415">
        <ele>3329</ele>
        <time>2021-03-30T09:35:22Z</time>
      </trkpt>
      <trkpt lat="45.53381" lon="6.8542">
        <ele>3330.2</ele>
        <time>2021-03-30T09:35:23Z</time>
      </trkpt>
      <trkpt lat="45.53384" lon="6.85425">
        <ele>3332.8</ele>
        <time>2021-03-30T09:35:24Z</time>
      </trkpt>
      <trkpt lat="45.53386" lon="6.8543">
        <ele>3334.1</ele>
        <time>2021-03-30T09:35:25Z</time>
      </trkpt>
      <trkpt lat="45.53386" lon="6.85435">
        <ele>3335.3</ele>
        <time>2021-03-30T09:35:26Z</time>
      </trkpt>
      <trkpt lat="45.53386" lon="6.85441">
        <ele>3337.9</ele>
        <time>2021-03-30T09:35:27Z</time>
      </trkpt>
      <trkpt lat="45.53385" lon="6.8545">
        <ele>3340.2</ele>
        <time>2021-03-30T09:35:28Z</time>
      </trkpt>
      <trkpt lat="45.53384" lon="6.85458">
        <ele>3342.5</ele>
        <time>2021-03-30T09:35:29Z</time>
      </trkpt>
      <trkpt lat="45.5338" lon="6.85487">
        <ele>3347.1</ele>
        <time>2021-03-30T09:35:30Z</time>
      </trkpt>
      <trkpt lat="45.5338" lon="6.85484">
        <ele>3348.2</ele>
        <time>2021-03-30T09:35:31Z</time>
      </trkpt>
      <trkpt lat="45.5338" lon="6.85487">
        <ele>3349.4</ele>
        <time>2021-03-30T09:35:32Z</time>
      </trkpt>
      <trkpt lat="45.53379" lon="6.85489">
        <ele>3348.3</ele>
        <time>2021-03-30T09:35:33Z</time>
      </trkpt>
      <trkpt lat="45.53377" lon="6.85495">
        <ele>3349.5</ele>
        <time>2021-03-30T09:35:34Z</time>
      </trkpt>
      <trkpt lat="45.53375" lon="6.85503">
        <ele>3350.9</ele>
        <time>2021-03-30T09:35:35Z</time>
      </trkpt>
      <trkpt lat="45.53412" lon="6.85515">
        <ele>3367</ele>
        <time>2021-03-30T09:35:38Z</time>
      </trkpt>
      <trkpt lat="45.53396" lon="6.85475">
        <ele>3352.1</ele>
        <time>2021-03-30T09:35:39Z</time>
      </trkpt>
      <trkpt lat="45.534" lon="6.85453">
        <ele>3348.1</ele>
        <time>2021-03-30T09:35:40Z</time>
      </trkpt>
      <trkpt lat="45.53394" lon="6.85445">
        <ele>3343.5</ele>
        <time>2021-03-30T09:35:41Z</time>
      </trkpt>
      <trkpt lat="45.53391" lon="6.85437">
        <ele>3339.7</ele>
        <time>2021-03-30T09:35:42Z</time>
      </trkpt>
      <trkpt lat="45.53393" lon="6.85434">
        <ele>3340.1</ele>
        <time>2021-03-30T09:35:43Z</time>
      </trkpt>
      <trkpt lat="45.53415" lon="6.85462">
        <ele>3356.2</ele>
        <time>2021-03-30T09:35:44Z</time>
      </trkpt>
      <trkpt lat="45.53418" lon="6.85461">
        <ele>3357.5</ele>
        <time>2021-03-30T09:35:45Z</time>
      </trkpt>
      <trkpt lat="45.53421" lon="6.85462">
        <ele>3358.8</ele>
        <time>2021-03-30T09:35:46Z</time>
      </trkpt>
      <trkpt lat="45.53422" lon="6.8546">
        <ele>3359.2</ele>
        <time>2021-03-30T09:35:47Z</time>
      </trkpt>
      <trkpt lat="45.53422" lon="6.85458">
        <ele>3359.2</ele>
        <time>2021-03-30T09:35:48Z</time>
      </trkpt>
      <trkpt lat="45.53423" lon="6.85457">
        <ele>3359.2</ele>
        <time>2021-03-30T09:35:49Z</time>
      </trkpt>
      <trkpt lat="45.53421" lon="6.85459">
        <ele>3358</ele>
        <time>2021-03-30T09:35:50Z</time>
      </trkpt>
      <trkpt lat="45.5342" lon="6.8546">
        <ele>3358</ele>
        <time>2021-03-30T09:35:51Z</time>
      </trkpt>
      <trkpt lat="45.5342" lon="6.85462">
        <ele>3358.8</ele>
        <time>2021-03-30T09:35:52Z</time>
      </trkpt>
      <trkpt lat="45.53419" lon="6.85469">
        <ele>3359.6</ele>
        <time>2021-03-30T09:35:53Z</time>
      </trkpt>
      <trkpt lat="45.53419" lon="6.85477">
        <ele>3360.2</ele>
        <time>2021-03-30T09:35:54Z</time>
      </trkpt>
      <trkpt lat="45.53417" lon="6.85486">
        <ele>3362.2</ele>
        <time>2021-03-30T09:35:55Z</time>
      </trkpt>
      <trkpt lat="45.53419" lon="6.85505">
        <ele>3368.8</ele>
        <time>2021-03-30T09:35:56Z</time>
      </trkpt>
      <trkpt lat="45.53422" lon="6.85493">
        <ele>3366.6</ele>
        <time>2021-03-30T09:35:57Z</time>
      </trkpt>
      <trkpt lat="45.53411" lon="6.85461">
        <ele>3354</ele>
        <time>2021-03-30T09:35:58Z</time>
      </trkpt>
      <trkpt lat="45.5341" lon="6.85459">
        <ele>3354</ele>
        <time>2021-03-30T09:35:59Z</time>
      </trkpt>
      <trkpt lat="45.53406" lon="6.85453">
        <ele>3350.5</ele>
        <time>2021-03-30T09:36:00Z</time>
      </trkpt>
      <trkpt lat="45.53402" lon="6.85449">
        <ele>3348.4</ele>
        <time>2021-03-30T09:36:01Z</time>
      </trkpt>
      <trkpt lat="45.53398" lon="6.85439">
        <ele>3344.2</ele>
        <time>2021-03-30T09:36:02Z</time>
      </trkpt>
      <trkpt lat="45.53395" lon="6.85426">
        <ele>3339</ele>
        <time>2021-03-30T09:36:03Z</time>
      </trkpt>
      <trkpt lat="45.53393" lon="6.85414">
        <ele>3335.2</ele>
        <time>2021-03-30T09:36:04Z</time>
      </trkpt>
      <trkpt lat="45.53382" lon="6.85366">
        <ele>3324.2</ele>
        <time>2021-03-30T09:36:05Z</time>
      </trkpt>
      <trkpt lat="45.53382" lon="6.85362">
        <ele>3323.6</ele>
        <time>2021-03-30T09:36:06Z</time>
      </trkpt>
      <trkpt lat="45.5338" lon="6.85358">
        <ele>3319.5</ele>
        <time>2021-03-30T09:36:07Z</time>
      </trkpt>
      <trkpt lat="45.53367" lon="6.85361">
        <ele>3308.6</ele>
        <time>2021-03-30T09:36:08Z</time>
      </trkpt>
      <trkpt lat="45.53356" lon="6.85367">
        <ele>3303.4</ele>
        <time>2021-03-30T09:36:09Z</time>
      </trkpt>
      <trkpt lat="45.53345" lon="6.85373">
        <ele>3301.2</ele>
        <time>2021-03-30T09:36:10Z</time>
      </trkpt>
      <trkpt lat="45.53341" lon="6.85367">
        <ele>3297.5</ele>
        <time>2021-03-30T09:36:11Z</time>
      </trkpt>
      <trkpt lat="45.53337" lon="6.85364">
        <ele>3295</ele>
        <time>2021-03-30T09:36:12Z</time>
      </trkpt>
      <trkpt lat="45.53333" lon="6.85362">
        <ele>3292.5</ele>
        <time>2021-03-30T09:36:13Z</time>
      </trkpt>
      <trkpt lat="45.53328" lon="6.85362">
        <ele>3291</ele>
        <time>2021-03-30T09:36:14Z</time>
      </trkpt>
      <trkpt lat="45.53325" lon="6.85392">
        <ele>3299.8</ele>
        <time>2021-03-30T09:36:15Z</time>
      </trkpt>
      <trkpt lat="45.53312" lon="6.85391">
        <ele>3297.1</ele>
        <time>2021-03-30T09:36:16Z</time>
      </trkpt>
      <trkpt lat="45.5331" lon="6.85401">
        <ele>3299.4</ele>
        <time>2021-03-30T09:36:17Z</time>
      </trkpt>
      <trkpt lat="45.53307" lon="6.85395">
        <ele>3297.3</ele>
        <time>2021-03-30T09:36:18Z</time>
      </trkpt>
      <trkpt lat="45.53331" lon="6.85399">
        <ele>3304.4</ele>
        <time>2021-03-30T09:36:19Z</time>
      </trkpt>
      <trkpt lat="45.53331" lon="6.854">
        <ele>3304.4</ele>
        <time>2021-03-30T09:36:20Z</time>
      </trkpt>
      <trkpt lat="45.5333" lon="6.85404">
        <ele>3305.7</ele>
        <time>2021-03-30T09:36:21Z</time>
      </trkpt>
      <trkpt lat="45.53332" lon="6.85411">
        <ele>3309.2</ele>
        <time>2021-03-30T09:36:22Z</time>
      </trkpt>
      <trkpt lat="45.5339" lon="6.8546">
        <ele>3345.2</ele>
        <time>2021-03-30T09:36:23Z</time>
      </trkpt>
      <trkpt lat="45.53396" lon="6.85467">
        <ele>3350</ele>
        <time>2021-03-30T09:36:24Z</time>
      </trkpt>
      <trkpt lat="45.53402" lon="6.85474">
        <ele>3353.3</ele>
        <time>2021-03-30T09:36:25Z</time>
      </trkpt>
      <trkpt lat="45.53409" lon="6.8548">
        <ele>3357.6</ele>
        <time>2021-03-30T09:36:26Z</time>
      </trkpt>
      <trkpt lat="45.53415" lon="6.85485">
        <ele>3361</ele>
        <time>2021-03-30T09:36:27Z</time>
      </trkpt>
      <trkpt lat="45.53422" lon="6.85488">
        <ele>3364.4</ele>
        <time>2021-03-30T09:36:28Z</time>
      </trkpt>
      <trkpt lat="45.53427" lon="6.85487">
        <ele>3366.6</ele>
        <time>2021-03-30T09:36:29Z</time>
      </trkpt>
      <trkpt lat="45.5343" lon="6.85484">
        <ele>3366.7</ele>
        <time>2021-03-30T09:36:30Z</time>
      </trkpt>
      <trkpt lat="45.53439" lon="6.85488">
        <ele>3370.8</ele>
        <time>2021-03-30T09:36:31Z</time>
      </trkpt>
      <trkpt lat="45.53449" lon="6.85492">
        <ele>3375.6</ele>
        <time>2021-03-30T09:36:32Z</time>
      </trkpt>
      <trkpt lat="45.53457" lon="6.85498">
        <ele>3378.1</ele>
        <time>2021-03-30T09:36:33Z</time>
      </trkpt>
      <trkpt lat="45.53461" lon="6.85506">
        <ele>3381.1</ele>
        <time>2021-03-30T09:36:34Z</time>
      </trkpt>
      <trkpt lat="45.53465" lon="6.85516">
        <ele>3383.2</ele>
        <time>2021-03-30T09:36:35Z</time>
      </trkpt>
      <trkpt lat="45.5347" lon="6.85522">
        <ele>3385.4</ele>
        <time>2021-03-30T09:36:36Z</time>
      </trkpt>
      <trkpt lat="45.53472" lon="6.85525">
        <ele>3385.7</ele>
        <time>2021-03-30T09:36:37Z</time>
      </trkpt>
      <trkpt lat="45.53475" lon="6.85527">
        <ele>3387.1</ele>
        <time>2021-03-30T09:36:38Z</time>
      </trkpt>
      <trkpt lat="45.53438" lon="6.85505">
        <ele>3375.1</ele>
        <time>2021-03-30T09:36:39Z</time>
      </trkpt>
      <trkpt lat="45.53425" lon="6.855">
        <ele>3368.8</ele>
        <time>2021-03-30T09:36:40Z</time>
      </trkpt>
      <trkpt lat="45.53412" lon="6.85494">
        <ele>3361.9</ele>
        <time>2021-03-30T09:36:41Z</time>
      </trkpt>
      <trkpt lat="45.53417" lon="6.85466">
        <ele>3358.4</ele>
        <time>2021-03-30T09:36:42Z</time>
      </trkpt>
      <trkpt lat="45.53416" lon="6.85462">
        <ele>3356.2</ele>
        <time>2021-03-30T09:36:43Z</time>
      </trkpt>
      <trkpt lat="45.53415" lon="6.85461">
        <ele>3355.3</ele>
        <time>2021-03-30T09:36:44Z</time>
      </trkpt>
      <trkpt lat="45.53416" lon="6.8546">
        <ele>3355.3</ele>
        <time>2021-03-30T09:36:45Z</time>
      </trkpt>
      <trkpt lat="45.53418" lon="6.85462">
        <ele>3357.5</ele>
        <time>2021-03-30T09:36:46Z</time>
      </trkpt>
      <trkpt lat="45.53419" lon="6.85464">
        <ele>3357.5</ele>
        <time>2021-03-30T09:36:47Z</time>
      </trkpt>
      <trkpt lat="45.53417" lon="6.85467">
        <ele>3358.4</ele>
        <time>2021-03-30T09:36:48Z</time>
      </trkpt>
      <trkpt lat="45.53417" lon="6.85469">
        <ele>3358.4</ele>
        <time>2021-03-30T09:36:49Z</time>
      </trkpt>
      <trkpt lat="45.53418" lon="6.85474">
        <ele>3360.2</ele>
        <time>2021-03-30T09:36:50Z</time>
      </trkpt>
      <trkpt lat="45.5342" lon="6.85481">
        <ele>3362.4</ele>
        <time>2021-03-30T09:36:51Z</time>
      </trkpt>
      <trkpt lat="45.53423" lon="6.85489">
        <ele>3365.6</ele>
        <time>2021-03-30T09:36:52Z</time>
      </trkpt>
      <trkpt lat="45.53426" lon="6.85487">
        <ele>3366.6</ele>
        <time>2021-03-30T09:36:53Z</time>
      </trkpt>
      <trkpt lat="45.53429" lon="6.85485">
        <ele>3366.7</ele>
        <time>2021-03-30T09:36:54Z</time>
      </trkpt>
      <trkpt lat="45.53429" lon="6.85479">
        <ele>3365.7</ele>
        <time>2021-03-30T09:36:55Z</time>
      </trkpt>
      <trkpt lat="45.53428" lon="6.85478">
        <ele>3364.8</ele>
        <time>2021-03-30T09:36:56Z</time>
      </trkpt>
      <trkpt lat="45.53406" lon="6.85432">
        <ele>3345.7</ele>
        <time>2021-03-30T09:36:57Z</time>
      </trkpt>
      <trkpt lat="45.53404" lon="6.85433">
        <ele>3345.7</ele>
        <time>2021-03-30T09:36:58Z</time>
      </trkpt>
      <trkpt lat="45.534" lon="6.85428">
        <ele>3341.7</ele>
        <time>2021-03-30T09:36:59Z</time>
      </trkpt>
      <trkpt lat="45.53399" lon="6.85427">
        <ele>3340.5</ele>
        <time>2021-03-30T09:37:00Z</time>
      </trkpt>
      <trkpt lat="45.53398" lon="6.85424">
        <ele>3339</ele>
        <time>2021-03-30T09:37:01Z</time>
      </trkpt>
      <trkpt lat="45.53397" lon="6.85421">
        <ele>3337.8</ele>
        <time>2021-03-30T09:37:02Z</time>
      </trkpt>
      <trkpt lat="45.53396" lon="6.8542">
        <ele>3337.8</ele>
        <time>2021-03-30T09:37:03Z</time>
      </trkpt>
      <trkpt lat="45.53393" lon="6.8542">
        <ele>3336.3</ele>
        <time>2021-03-30T09:37:04Z</time>
      </trkpt>
      <trkpt lat="45.53393" lon="6.85421">
        <ele>3336.3</ele>
        <time>2021-03-30T09:37:05Z</time>
      </trkpt>
      <trkpt lat="45.53392" lon="6.85421">
        <ele>3334.7</ele>
        <time>2021-03-30T09:37:06Z</time>
      </trkpt>
      <trkpt lat="45.53394" lon="6.85425">
        <ele>3337.5</ele>
        <time>2021-03-30T09:37:07Z</time>
      </trkpt>
      <trkpt lat="45.53396" lon="6.85427">
        <ele>3340.3</ele>
        <time>2021-03-30T09:37:08Z</time>
      </trkpt>
      <trkpt lat="45.53398" lon="6.85431">
        <ele>3340.3</ele>
        <time>2021-03-30T09:37:09Z</time>
      </trkpt>
      <trkpt lat="45.534" lon="6.85434">
        <ele>3343</ele>
        <time>2021-03-30T09:37:10Z</time>
      </trkpt>
      <trkpt lat="45.53401" lon="6.85437">
        <ele>3345.5</ele>
        <time>2021-03-30T09:37:11Z</time>
      </trkpt>
      <trkpt lat="45.53402" lon="6.85443">
        <ele>3346.5</ele>
        <time>2021-03-30T09:37:12Z</time>
      </trkpt>
      <trkpt lat="45.53402" lon="6.85449">
        <ele>3348.4</ele>
        <time>2021-03-30T09:37:13Z</time>
      </trkpt>
      <trkpt lat="45.53403" lon="6.85455">
        <ele>3349.3</ele>
        <time>2021-03-30T09:37:14Z</time>
      </trkpt>
      <trkpt lat="45.53403" lon="6.85461">
        <ele>3350.3</ele>
        <time>2021-03-30T09:37:15Z</time>
      </trkpt>
      <trkpt lat="45.53404" lon="6.85466">
        <ele>3352.2</ele>
        <time>2021-03-30T09:37:16Z</time>
      </trkpt>
      <trkpt lat="45.53404" lon="6.85472">
        <ele>3354.4</ele>
        <time>2021-03-30T09:37:17Z</time>
      </trkpt>
      <trkpt lat="45.53405" lon="6.85478">
        <ele>3355.4</ele>
        <time>2021-03-30T09:42:48Z</time>
      </trkpt>
      <trkpt lat="45.53405" lon="6.85484">
        <ele>3357.5</ele>
        <time>2021-03-30T09:42:49Z</time>
      </trkpt>
      <trkpt lat="45.53406" lon="6.8549">
        <ele>3358.6</ele>
        <time>2021-03-30T09:42:50Z</time>
      </trkpt>
      <trkpt lat="45.53406" lon="6.85495">
        <ele>3360.7</ele>
        <time>2021-03-30T09:42:51Z</time>
      </trkpt>
      <trkpt lat="45.53407" lon="6.85501">
        <ele>3361.7</ele>
        <time>2021-03-30T09:42:52Z</time>
      </trkpt>
      <trkpt lat="45.53408" lon="6.85504">
        <ele>3362.9</ele>
        <time>2021-03-30T09:42:53Z</time>
      </trkpt>
      <trkpt lat="45.53408" lon="6.85505">
        <ele>3363.9</ele>
        <time>2021-03-30T09:42:54Z</time>
      </trkpt>
      <trkpt lat="45.53408" lon="6.85506">
        <ele>3363.9</ele>
        <time>2021-03-30T09:42:55Z</time>
      </trkpt>
      <trkpt lat="45.53409" lon="6.85508">
        <ele>3363.9</ele>
        <time>2021-03-30T09:42:56Z</time>
      </trkpt>
      <trkpt lat="45.53409" lon="6.85509">
        <ele>3364.8</ele>
        <time>2021-03-30T09:42:57Z</time>
      </trkpt>
      <trkpt lat="45.5341" lon="6.8551">
        <ele>3364.8</ele>
        <time>2021-03-30T09:42:58Z</time>
      </trkpt>
      <trkpt lat="45.5341" lon="6.85511">
        <ele>3364.8</ele>
        <time>2021-03-30T09:42:59Z</time>
      </trkpt>
      <trkpt lat="45.5341" lon="6.85511">
        <ele>3366</ele>
        <time>2021-03-30T09:43:00Z</time>
      </trkpt>
      <trkpt lat="45.53411" lon="6.85512">
        <ele>3366</ele>
        <time>2021-03-30T09:43:01Z</time>
      </trkpt>
      <trkpt lat="45.5341" lon="6.85512">
        <ele>3366</ele>
        <time>2021-03-30T09:43:02Z</time>
      </trkpt>
      <trkpt lat="45.5341" lon="6.85512">
        <ele>3366</ele>
        <time>2021-03-30T09:43:03Z</time>
      </trkpt>
      <trkpt lat="45.5341" lon="6.85513">
        <ele>3365.8</ele>
        <time>2021-03-30T09:43:04Z</time>
      </trkpt>
      <trkpt lat="45.53409" lon="6.85513">
        <ele>3365.8</ele>
        <time>2021-03-30T09:43:05Z</time>
      </trkpt>
      <trkpt lat="45.5341" lon="6.85515">
        <ele>3365.8</ele>
        <time>2021-03-30T09:43:06Z</time>
      </trkpt>
      <trkpt lat="45.5341" lon="6.85515">
        <ele>3365.8</ele>
        <time>2021-03-30T09:43:07Z</time>
      </trkpt>
      <trkpt lat="45.5341" lon="6.85514">
        <ele>3365.8</ele>
        <time>2021-03-30T09:43:08Z</time>
      </trkpt>
      <trkpt lat="45.5341" lon="6.85513">
        <ele>3367</ele>
        <time>2021-03-30T09:43:09Z</time>
      </trkpt>
      <trkpt lat="45.5341" lon="6.85513">
        <ele>3367</ele>
        <time>2021-03-30T09:43:10Z</time>
      </trkpt>
      <trkpt lat="45.53412" lon="6.85513">
        <ele>3367</ele>
        <time>2021-03-30T09:43:11Z</time>
      </trkpt>
      <trkpt lat="45.53415" lon="6.85514">
        <ele>3368.3</ele>
        <time>2021-03-30T09:43:12Z</time>
      </trkpt>
      <trkpt lat="45.53418" lon="6.85518">
        <ele>3370.5</ele>
        <time>2021-03-30T09:43:13Z</time>
      </trkpt>
      <trkpt lat="45.53421" lon="6.8552">
        <ele>3371.7</ele>
        <time>2021-03-30T09:43:14Z</time>
      </trkpt>
      <trkpt lat="45.53422" lon="6.85521">
        <ele>3373.9</ele>
        <time>2021-03-30T09:43:15Z</time>
      </trkpt>
      <trkpt lat="45.53422" lon="6.85521">
        <ele>3373.9</ele>
        <time>2021-03-30T09:43:16Z</time>
      </trkpt>
      <trkpt lat="45.53422" lon="6.85521">
        <ele>3373.9</ele>
        <time>2021-03-30T09:43:17Z</time>
      </trkpt>
      <trkpt lat="45.53422" lon="6.85521">
        <ele>3373.9</ele>
        <time>2021-03-30T09:43:18Z</time>
      </trkpt>
      <trkpt lat="45.53422" lon="6.85521">
        <ele>3373.9</ele>
        <time>2021-03-30T09:43:19Z</time>
      </trkpt>
      <trkpt lat="45.53422" lon="6.85521">
        <ele>3373.9</ele>
        <time>2021-03-30T09:43:20Z</time>
      </trkpt>
      <trkpt lat="45.53422" lon="6.85521">
        <ele>3373.9</ele>
        <time>2021-03-30T09:43:21Z</time>
      </trkpt>
      <trkpt lat="45.53422" lon="6.85521">
        <ele>3373.9</ele>
        <time>2021-03-30T09:43:22Z</time>
      </trkpt>
      <trkpt lat="45.53422" lon="6.85521">
        <ele>3373.9</ele>
        <time>2021-03-30T09:43:23Z</time>
      </trkpt>
      <trkpt lat="45.53424" lon="6.85519">
        <ele>3372.9</ele>
        <time>2021-03-30T09:43:24Z</time>
      </trkpt>
      <trkpt lat="45.53423" lon="6.85516">
        <ele>3371.9</ele>
        <time>2021-03-30T09:43:25Z</time>
      </trkpt>
      <trkpt lat="45.53423" lon="6.85515">
        <ele>3371.9</ele>
        <time>2021-03-30T09:43:26Z</time>
      </trkpt>
      <trkpt lat="45.53423" lon="6.85515">
        <ele>3371.9</ele>
        <time>2021-03-30T09:43:27Z</time>
      </trkpt>
      <trkpt lat="45.53423" lon="6.85514">
        <ele>3371.9</ele>
        <time>2021-03-30T09:43:28Z</time>
      </trkpt>
      <trkpt lat="45.53422" lon="6.85513">
        <ele>3371.9</ele>
        <time>2021-03-30T09:43:29Z</time>
      </trkpt>
      <trkpt lat="45.53422" lon="6.85513">
        <ele>3370.7</ele>
        <time>2021-03-30T09:43:30Z</time>
      </trkpt>
      <trkpt lat="45.53422" lon="6.85512">
        <ele>3369.8</ele>
        <time>2021-03-30T09:43:31Z</time>
      </trkpt>
      <trkpt lat="45.53422" lon="6.85511">
        <ele>3369.8</ele>
        <time>2021-03-30T09:43:32Z</time>
      </trkpt>
      <trkpt lat="45.53421" lon="6.85511">
        <ele>3369.8</ele>
        <time>2021-03-30T09:43:33Z</time>
      </trkpt>
      <trkpt lat="45.5342" lon="6.85507">
        <ele>3368.8</ele>
        <time>2021-03-30T09:43:34Z</time>
      </trkpt>
      <trkpt lat="45.5342" lon="6.85503">
        <ele>3367.7</ele>
        <time>2021-03-30T09:43:35Z</time>
      </trkpt>
      <trkpt lat="45.53419" lon="6.85499">
        <ele>3365.4</ele>
        <time>2021-03-30T09:43:43Z</time>
      </trkpt>
      <trkpt lat="45.53418" lon="6.85495">
        <ele>3364.4</ele>
        <time>2021-03-30T09:43:44Z</time>
      </trkpt>
      <trkpt lat="45.53418" lon="6.85493">
        <ele>3364.4</ele>
        <time>2021-03-30T09:43:45Z</time>
      </trkpt>
      <trkpt lat="45.53418" lon="6.85491">
        <ele>3363.3</ele>
        <time>2021-03-30T09:43:46Z</time>
      </trkpt>
      <trkpt lat="45.53417" lon="6.85492">
        <ele>3364.4</ele>
        <time>2021-03-30T09:43:47Z</time>
      </trkpt>
      <trkpt lat="45.53417" lon="6.85493">
        <ele>3364.4</ele>
        <time>2021-03-30T09:43:48Z</time>
      </trkpt>
      <trkpt lat="45.53416" lon="6.85494">
        <ele>3363.1</ele>
        <time>2021-03-30T09:43:49Z</time>
      </trkpt>
      <trkpt lat="45.53415" lon="6.85495">
        <ele>3364.2</ele>
        <time>2021-03-30T09:43:50Z</time>
      </trkpt>
      <trkpt lat="45.53415" lon="6.85496">
        <ele>3364.2</ele>
        <time>2021-03-30T09:43:51Z</time>
      </trkpt>
      <trkpt lat="45.53414" lon="6.85498">
        <ele>3364.2</ele>
        <time>2021-03-30T09:43:52Z</time>
      </trkpt>
      <trkpt lat="45.53414" lon="6.85499">
        <ele>3364.2</ele>
        <time>2021-03-30T09:43:53Z</time>
      </trkpt>
      <trkpt lat="45.53413" lon="6.855">
        <ele>3364.1</ele>
        <time>2021-03-30T09:43:54Z</time>
      </trkpt>
      <trkpt lat="45.53412" lon="6.85501">
        <ele>3364.1</ele>
        <time>2021-03-30T09:43:55Z</time>
      </trkpt>
      <trkpt lat="45.53412" lon="6.85502">
        <ele>3364.1</ele>
        <time>2021-03-30T09:45:41Z</time>
      </trkpt>
      <trkpt lat="45.53411" lon="6.85503">
        <ele>3364.1</ele>
        <time>2021-03-30T09:45:42Z</time>
      </trkpt>
      <trkpt lat="45.53411" lon="6.85504">
        <ele>3365.1</ele>
        <time>2021-03-30T09:45:43Z</time>
      </trkpt>
      <trkpt lat="45.5341" lon="6.85505">
        <ele>3363.9</ele>
        <time>2021-03-30T09:45:44Z</time>
      </trkpt>
      <trkpt lat="45.53409" lon="6.85506">
        <ele>3363.9</ele>
        <time>2021-03-30T09:45:45Z</time>
      </trkpt>
      <trkpt lat="45.53409" lon="6.85507">
        <ele>3363.9</ele>
        <time>2021-03-30T09:45:46Z</time>
      </trkpt>
      <trkpt lat="45.53408" lon="6.85508">
        <ele>3364.8</ele>
        <time>2021-03-30T09:45:47Z</time>
      </trkpt>
      <trkpt lat="45.53408" lon="6.8551">
        <ele>3364.8</ele>
        <time>2021-03-30T09:45:48Z</time>
      </trkpt>
      <trkpt lat="45.53407" lon="6.85511">
        <ele>3363.7</ele>
        <time>2021-03-30T09:45:49Z</time>
      </trkpt>
      <trkpt lat="45.53406" lon="6.85512">
        <ele>3363.7</ele>
        <time>2021-03-30T09:45:50Z</time>
      </trkpt>
      <trkpt lat="45.53406" lon="6.85513">
        <ele>3364.6</ele>
        <time>2021-03-30T09:47:26Z</time>
      </trkpt>
      <trkpt lat="45.53405" lon="6.85514">
        <ele>3364.6</ele>
        <time>2021-03-30T09:47:27Z</time>
      </trkpt>
      <trkpt lat="45.53405" lon="6.85515">
        <ele>3364.6</ele>
        <time>2021-03-30T09:47:28Z</time>
      </trkpt>
      <trkpt lat="45.53404" lon="6.85516">
        <ele>3363.5</ele>
        <time>2021-03-30T09:47:29Z</time>
      </trkpt>
      <trkpt lat="45.53403" lon="6.85517">
        <ele>3364.5</ele>
        <time>2021-03-30T09:47:30Z</time>
      </trkpt>
      <trkpt lat="45.53403" lon="6.85518">
        <ele>3364.5</ele>
        <time>2021-03-30T09:47:31Z</time>
      </trkpt>
      <trkpt lat="45.53402" lon="6.85519">
        <ele>3364.5</ele>
        <time>2021-03-30T09:47:32Z</time>
      </trkpt>
      <trkpt lat="45.53402" lon="6.8552">
        <ele>3364.5</ele>
        <time>2021-03-30T09:47:33Z</time>
      </trkpt>
      <trkpt lat="45.53402" lon="6.8552">
        <ele>3364.5</ele>
        <time>2021-03-30T09:47:34Z</time>
      </trkpt>
      <trkpt lat="45.53402" lon="6.8552">
        <ele>3364.5</ele>
        <time>2021-03-30T09:47:35Z</time>
      </trkpt>
      <trkpt lat="45.53402" lon="6.8552">
        <ele>3364.5</ele>
        <time>2021-03-30T09:47:36Z</time>
      </trkpt>
      <trkpt lat="45.53404" lon="6.85522">
        <ele>3366.7</ele>
        <time>2021-03-30T09:56:25Z</time>
      </trkpt>
      <trkpt lat="45.53404" lon="6.85523">
        <ele>3365.6</ele>
        <time>2021-03-30T09:56:26Z</time>
      </trkpt>
      <trkpt lat="45.53403" lon="6.85524">
        <ele>3365.6</ele>
        <time>2021-03-30T09:56:27Z</time>
      </trkpt>
      <trkpt lat="45.53402" lon="6.85525">
        <ele>3365.6</ele>
        <time>2021-03-30T09:56:28Z</time>
      </trkpt>
      <trkpt lat="45.53401" lon="6.85526">
        <ele>3366.8</ele>
        <time>2021-03-30T09:56:29Z</time>
      </trkpt>
      <trkpt lat="45.53401" lon="6.85527">
        <ele>3365.8</ele>
        <time>2021-03-30T09:56:30Z</time>
      </trkpt>
      <trkpt lat="45.534" lon="6.85528">
        <ele>3365.8</ele>
        <time>2021-03-30T09:56:31Z</time>
      </trkpt>
      <trkpt lat="45.534" lon="6.85529">
        <ele>3365.8</ele>
        <time>2021-03-30T09:56:32Z</time>
      </trkpt>
      <trkpt lat="45.53401" lon="6.8553">
        <ele>3365.8</ele>
        <time>2021-03-30T09:56:33Z</time>
      </trkpt>
      <trkpt lat="45.53401" lon="6.8553">
        <ele>3367</ele>
        <time>2021-03-30T09:56:34Z</time>
      </trkpt>
      <trkpt lat="45.53401" lon="6.85531">
        <ele>3367</ele>
        <time>2021-03-30T09:56:35Z</time>
      </trkpt>
      <trkpt lat="45.53401" lon="6.85532">
        <ele>3367</ele>
        <time>2021-03-30T09:56:36Z</time>
      </trkpt>
      <trkpt lat="45.53401" lon="6.85532">
        <ele>3367</ele>
        <time>2021-03-30T09:56:37Z</time>
      </trkpt>
      <trkpt lat="45.53401" lon="6.85533">
        <ele>3367</ele>
        <time>2021-03-30T09:56:38Z</time>
      </trkpt>
      <trkpt lat="45.53401" lon="6.85534">
        <ele>3367</ele>
        <time>2021-03-30T09:56:39Z</time>
      </trkpt>
      <trkpt lat="45.53401" lon="6.85534">
        <ele>3368.3</ele>
        <time>2021-03-30T09:56:40Z</time>
      </trkpt>
      <trkpt lat="45.53401" lon="6.85535">
        <ele>3368.3</ele>
        <time>2021-03-30T09:56:41Z</time>
      </trkpt>
      <trkpt lat="45.53401" lon="6.85536">
        <ele>3368.3</ele>
        <time>2021-03-30T09:56:48Z</time>
      </trkpt>
      <trkpt lat="45.53401" lon="6.85536">
        <ele>3368.3</ele>
        <time>2021-03-30T09:56:49Z</time>
      </trkpt>
      <trkpt lat="45.53401" lon="6.85537">
        <ele>3368.3</ele>
        <time>2021-03-30T09:56:50Z</time>
      </trkpt>
      <trkpt lat="45.53401" lon="6.85538">
        <ele>3369.3</ele>
        <time>2021-03-30T09:56:51Z</time>
      </trkpt>
      <trkpt lat="45.534" lon="6.85539">
        <ele>3369.7</ele>
        <time>2021-03-30T09:56:52Z</time>
      </trkpt>
      <trkpt lat="45.534" lon="6.8554">
        <ele>3369.7</ele>
        <time>2021-03-30T09:56:53Z</time>
      </trkpt>
      <trkpt lat="45.53399" lon="6.8554">
        <ele>3369.7</ele>
        <time>2021-03-30T09:56:54Z</time>
      </trkpt>
      <trkpt lat="45.53399" lon="6.85541">
        <ele>3369.7</ele>
        <time>2021-03-30T09:56:55Z</time>
      </trkpt>
      <trkpt lat="45.53398" lon="6.85542">
        <ele>3368.7</ele>
        <time>2021-03-30T09:56:56Z</time>
      </trkpt>
      <trkpt lat="45.53398" lon="6.85543">
        <ele>3368.7</ele>
        <time>2021-03-30T09:56:57Z</time>
      </trkpt>
      <trkpt lat="45.53397" lon="6.85543">
        <ele>3370</ele>
        <time>2021-03-30T09:56:58Z</time>
      </trkpt>
      <trkpt lat="45.53397" lon="6.85543">
        <ele>3370</ele>
        <time>2021-03-30T09:56:59Z</time>
      </trkpt>
      <trkpt lat="45.53396" lon="6.85543">
        <ele>3370</ele>
        <time>2021-03-30T09:57:00Z</time>
      </trkpt>
      <trkpt lat="45.53396" lon="6.85543">
        <ele>3370</ele>
        <time>2021-03-30T09:57:01Z</time>
      </trkpt>
      <trkpt lat="45.53396" lon="6.85542">
        <ele>3368.7</ele>
        <time>2021-03-30T09:57:02Z</time>
      </trkpt>
      <trkpt lat="45.53395" lon="6.85542">
        <ele>3368.7</ele>
        <time>2021-03-30T09:57:03Z</time>
      </trkpt>
      <trkpt lat="45.53395" lon="6.85543">
        <ele>3369</ele>
        <time>2021-03-30T09:57:04Z</time>
      </trkpt>
      <trkpt lat="45.53394" lon="6.85544">
        <ele>3369</ele>
        <time>2021-03-30T09:57:05Z</time>
      </trkpt>
      <trkpt lat="45.53393" lon="6.85545">
        <ele>3369</ele>
        <time>2021-03-30T09:57:06Z</time>
      </trkpt>
      <trkpt lat="45.53393" lon="6.85546">
        <ele>3369</ele>
        <time>2021-03-30T09:57:07Z</time>
      </trkpt>
      <trkpt lat="45.53392" lon="6.85547">
        <ele>3369</ele>
        <time>2021-03-30T09:57:08Z</time>
      </trkpt>
      <trkpt lat="45.53392" lon="6.85548">
        <ele>3370.1</ele>
        <time>2021-03-30T09:57:09Z</time>
      </trkpt>
      <trkpt lat="45.53392" lon="6.85549">
        <ele>3370.1</ele>
        <time>2021-03-30T09:57:10Z</time>
      </trkpt>
      <trkpt lat="45.53391" lon="6.8555">
        <ele>3370.1</ele>
        <time>2021-03-30T09:57:11Z</time>
      </trkpt>
      <trkpt lat="45.53391" lon="6.8555">
        <ele>3370.1</ele>
        <time>2021-03-30T09:57:12Z</time>
      </trkpt>
      <trkpt lat="45.5339" lon="6.85552">
        <ele>3371.4</ele>
        <time>2021-03-30T09:57:13Z</time>
      </trkpt>
      <trkpt lat="45.5339" lon="6.85552">
        <ele>3371.4</ele>
        <time>2021-03-30T09:57:14Z</time>
      </trkpt>
      <trkpt lat="45.53389" lon="6.85553">
        <ele>3371.4</ele>
        <time>2021-03-30T09:57:15Z</time>
      </trkpt>
      <trkpt lat="45.53388" lon="6.85553">
        <ele>3370.4</ele>
        <time>2021-03-30T09:57:16Z</time>
      </trkpt>
      <trkpt lat="45.53388" lon="6.85554">
        <ele>3370.4</ele>
        <time>2021-03-30T09:57:17Z</time>
      </trkpt>
      <trkpt lat="45.53387" lon="6.85554">
        <ele>3370.4</ele>
        <time>2021-03-30T09:57:18Z</time>
      </trkpt>
      <trkpt lat="45.53387" lon="6.85555">
        <ele>3370.4</ele>
        <time>2021-03-30T09:57:19Z</time>
      </trkpt>
      <trkpt lat="45.53386" lon="6.85556">
        <ele>3370.7</ele>
        <time>2021-03-30T09:57:20Z</time>
      </trkpt>
      <trkpt lat="45.53385" lon="6.85557">
        <ele>3370.7</ele>
        <time>2021-03-30T09:57:21Z</time>
      </trkpt>
      <trkpt lat="45.53384" lon="6.85557">
        <ele>3370.7</ele>
        <time>2021-03-30T09:57:22Z</time>
      </trkpt>
      <trkpt lat="45.53384" lon="6.85558">
        <ele>3370.7</ele>
        <time>2021-03-30T09:57:23Z</time>
      </trkpt>
      <trkpt lat="45.53383" lon="6.85559">
        <ele>3369.8</ele>
        <time>2021-03-30T09:57:24Z</time>
      </trkpt>
      <trkpt lat="45.53382" lon="6.8556">
        <ele>3371.2</ele>
        <time>2021-03-30T09:57:25Z</time>
      </trkpt>
      <trkpt lat="45.53381" lon="6.85561">
        <ele>3371.2</ele>
        <time>2021-03-30T09:57:26Z</time>
      </trkpt>
      <trkpt lat="45.5338" lon="6.85562">
        <ele>3371.2</ele>
        <time>2021-03-30T09:57:27Z</time>
      </trkpt>
      <trkpt lat="45.5338" lon="6.85562">
        <ele>3370.4</ele>
        <time>2021-03-30T09:57:28Z</time>
      </trkpt>
      <trkpt lat="45.53379" lon="6.85563">
        <ele>3370.4</ele>
        <time>2021-03-30T09:57:29Z</time>
      </trkpt>
      <trkpt lat="45.53379" lon="6.85563">
        <ele>3370.4</ele>
        <time>2021-03-30T09:57:30Z</time>
      </trkpt>
      <trkpt lat="45.53378" lon="6.85564">
        <ele>3370.4</ele>
        <time>2021-03-30T09:57:31Z</time>
      </trkpt>
      <trkpt lat="45.53378" lon="6.85564">
        <ele>3371.9</ele>
        <time>2021-03-30T09:57:32Z</time>
      </trkpt>
      <trkpt lat="45.53377" lon="6.85565">
        <ele>3371.9</ele>
        <time>2021-03-30T09:57:33Z</time>
      </trkpt>
      <trkpt lat="45.53377" lon="6.85566">
        <ele>3371.1</ele>
        <time>2021-03-30T09:57:34Z</time>
      </trkpt>
      <trkpt lat="45.53376" lon="6.85566">
        <ele>3371.1</ele>
        <time>2021-03-30T09:57:35Z</time>
      </trkpt>
      <trkpt lat="45.53376" lon="6.85567">
        <ele>3371.1</ele>
        <time>2021-03-30T09:57:36Z</time>
      </trkpt>
      <trkpt lat="45.53375" lon="6.85567">
        <ele>3371.1</ele>
        <time>2021-03-30T09:57:37Z</time>
      </trkpt>
      <trkpt lat="45.53375" lon="6.85568">
        <ele>3371.1</ele>
        <time>2021-03-30T09:57:38Z</time>
      </trkpt>
      <trkpt lat="45.53375" lon="6.85568">
        <ele>3371.1</ele>
        <time>2021-03-30T09:57:39Z</time>
      </trkpt>
      <trkpt lat="45.53374" lon="6.85569">
        <ele>3372.6</ele>
        <time>2021-03-30T09:57:40Z</time>
      </trkpt>
      <trkpt lat="45.53374" lon="6.85569">
        <ele>3371.8</ele>
        <time>2021-03-30T09:57:41Z</time>
      </trkpt>
      <trkpt lat="45.53373" lon="6.8557">
        <ele>3371.8</ele>
        <time>2021-03-30T09:57:42Z</time>
      </trkpt>
      <trkpt lat="45.53373" lon="6.8557">
        <ele>3371.8</ele>
        <time>2021-03-30T09:57:43Z</time>
      </trkpt>
      <trkpt lat="45.53373" lon="6.85571">
        <ele>3371.8</ele>
        <time>2021-03-30T09:57:44Z</time>
      </trkpt>
      <trkpt lat="45.53373" lon="6.85571">
        <ele>3371.8</ele>
        <time>2021-03-30T09:57:45Z</time>
      </trkpt>
      <trkpt lat="45.53372" lon="6.85571">
        <ele>3371.8</ele>
        <time>2021-03-30T09:57:46Z</time>
      </trkpt>
      <trkpt lat="45.53371" lon="6.85572">
        <ele>3371.8</ele>
        <time>2021-03-30T09:57:47Z</time>
      </trkpt>
      <trkpt lat="45.5337" lon="6.85572">
        <ele>3370.9</ele>
        <time>2021-03-30T09:57:48Z</time>
      </trkpt>
      <trkpt lat="45.53369" lon="6.85572">
        <ele>3370.9</ele>
        <time>2021-03-30T09:57:49Z</time>
      </trkpt>
      <trkpt lat="45.53369" lon="6.85573">
        <ele>3370.9</ele>
        <time>2021-03-30T09:57:50Z</time>
      </trkpt>
      <trkpt lat="45.53368" lon="6.85573">
        <ele>3371.6</ele>
        <time>2021-03-30T09:57:51Z</time>
      </trkpt>
      <trkpt lat="45.53367" lon="6.85573">
        <ele>3371.6</ele>
        <time>2021-03-30T09:57:52Z</time>
      </trkpt>
      <trkpt lat="45.53366" lon="6.85574">
        <ele>3371.6</ele>
        <time>2021-03-30T09:57:53Z</time>
      </trkpt>
      <trkpt lat="45.53365" lon="6.85574">
        <ele>3371.6</ele>
        <time>2021-03-30T10:03:13Z</time>
      </trkpt>
      <trkpt lat="45.53364" lon="6.85574">
        <ele>3370.6</ele>
        <time>2021-03-30T10:03:14Z</time>
      </trkpt>
      <trkpt lat="45.53363" lon="6.85574">
        <ele>3370.6</ele>
        <time>2021-03-30T10:03:15Z</time>
      </trkpt>
      <trkpt lat="45.53363" lon="6.85575">
        <ele>3370.6</ele>
        <time>2021-03-30T10:03:16Z</time>
      </trkpt>
      <trkpt lat="45.53363" lon="6.85575">
        <ele>3370.6</ele>
        <time>2021-03-30T10:03:17Z</time>
      </trkpt>
      <trkpt lat="45.53362" lon="6.85575">
        <ele>3369.6</ele>
        <time>2021-03-30T10:03:18Z</time>
      </trkpt>
      <trkpt lat="45.53361" lon="6.85576">
        <ele>3369.6</ele>
        <time>2021-03-30T10:03:19Z</time>
      </trkpt>
      <trkpt lat="45.53361" lon="6.85576">
        <ele>3369.6</ele>
        <time>2021-03-30T10:03:20Z</time>
      </trkpt>
      <trkpt lat="45.53361" lon="6.85576">
        <ele>3369.6</ele>
        <time>2021-03-30T10:03:21Z</time>
      </trkpt>
      <trkpt lat="45.53361" lon="6.85576">
        <ele>3369.6</ele>
        <time>2021-03-30T10:03:22Z</time>
      </trkpt>
      <trkpt lat="45.53361" lon="6.85576">
        <ele>3369.6</ele>
        <time>2021-03-30T10:03:23Z</time>
      </trkpt>
      <trkpt lat="45.53361" lon="6.85578">
        <ele>3371.3</ele>
        <time>2021-03-30T10:03:24Z</time>
      </trkpt>
      <trkpt lat="45.53361" lon="6.85578">
        <ele>3371.3</ele>
        <time>2021-03-30T10:03:25Z</time>
      </trkpt>
      <trkpt lat="45.53359" lon="6.8558">
        <ele>3371.3</ele>
        <time>2021-03-30T10:03:26Z</time>
      </trkpt>
      <trkpt lat="45.53358" lon="6.8558">
        <ele>3370.4</ele>
        <time>2021-03-30T10:03:27Z</time>
      </trkpt>
      <trkpt lat="45.53356" lon="6.85581">
        <ele>3370.4</ele>
        <time>2021-03-30T10:03:28Z</time>
      </trkpt>
      <trkpt lat="45.53355" lon="6.85582">
        <ele>3371.2</ele>
        <time>2021-03-30T10:04:05Z</time>
      </trkpt>
      <trkpt lat="45.53354" lon="6.85583">
        <ele>3371.2</ele>
        <time>2021-03-30T10:04:06Z</time>
      </trkpt>
      <trkpt lat="45.53352" lon="6.85584">
        <ele>3370.3</ele>
        <time>2021-03-30T10:04:07Z</time>
      </trkpt>
      <trkpt lat="45.53351" lon="6.85584">
        <ele>3370.3</ele>
        <time>2021-03-30T10:04:08Z</time>
      </trkpt>
      <trkpt lat="45.53351" lon="6.85584">
        <ele>3370.3</ele>
        <time>2021-03-30T10:04:09Z</time>
      </trkpt>
      <trkpt lat="45.5335" lon="6.85584">
        <ele>3369.5</ele>
        <time>2021-03-30T10:04:10Z</time>
      </trkpt>
      <trkpt lat="45.53349" lon="6.85585">
        <ele>3369.5</ele>
        <time>2021-03-30T10:04:11Z</time>
      </trkpt>
      <trkpt lat="45.53348" lon="6.85586">
        <ele>3371.2</ele>
        <time>2021-03-30T10:04:12Z</time>
      </trkpt>
      <trkpt lat="45.53347" lon="6.85586">
        <ele>3371.2</ele>
        <time>2021-03-30T10:04:13Z</time>
      </trkpt>
      <trkpt lat="45.53347" lon="6.85586">
        <ele>3370.4</ele>
        <time>2021-03-30T10:04:14Z</time>
      </trkpt>
      <trkpt lat="45.53347" lon="6.85586">
        <ele>3370.4</ele>
        <time>2021-03-30T10:04:15Z</time>
      </trkpt>
      <trkpt lat="45.53346" lon="6.85586">
        <ele>3370.4</ele>
        <time>2021-03-30T10:04:16Z</time>
      </trkpt>
      <trkpt lat="45.53346" lon="6.85587">
        <ele>3370.4</ele>
        <time>2021-03-30T10:04:17Z</time>
      </trkpt>
      <trkpt lat="45.53345" lon="6.85587">
        <ele>3370.4</ele>
        <time>2021-03-30T10:04:18Z</time>
      </trkpt>
      <trkpt lat="45.53345" lon="6.85587">
        <ele>3370.4</ele>
        <time>2021-03-30T10:04:19Z</time>
      </trkpt>
      <trkpt lat="45.53344" lon="6.85587">
        <ele>3370.4</ele>
        <time>2021-03-30T10:04:20Z</time>
      </trkpt>
      <trkpt lat="45.53344" lon="6.85588">
        <ele>3369.6</ele>
        <time>2021-03-30T10:04:21Z</time>
      </trkpt>
      <trkpt lat="45.53343" lon="6.85589">
        <ele>3369.6</ele>
        <time>2021-03-30T10:04:22Z</time>
      </trkpt>
      <trkpt lat="45.53343" lon="6.85589">
        <ele>3369.6</ele>
        <time>2021-03-30T10:04:23Z</time>
      </trkpt>
      <trkpt lat="45.53342" lon="6.8559">
        <ele>3371.2</ele>
        <time>2021-03-30T10:04:24Z</time>
      </trkpt>
      <trkpt lat="45.53342" lon="6.85591">
        <ele>3371.2</ele>
        <time>2021-03-30T10:04:25Z</time>
      </trkpt>
      <trkpt lat="45.53341" lon="6.85592">
        <ele>3371.2</ele>
        <time>2021-03-30T10:04:26Z</time>
      </trkpt>
      <trkpt lat="45.53341" lon="6.85593">
        <ele>3370.4</ele>
        <time>2021-03-30T10:04:27Z</time>
      </trkpt>
      <trkpt lat="45.53341" lon="6.85594">
        <ele>3370.4</ele>
        <time>2021-03-30T10:04:28Z</time>
      </trkpt>
      <trkpt lat="45.5334" lon="6.85595">
        <ele>3371.9</ele>
        <time>2021-03-30T10:04:29Z</time>
      </trkpt>
      <trkpt lat="45.53339" lon="6.85596">
        <ele>3371.9</ele>
        <time>2021-03-30T10:04:30Z</time>
      </trkpt>
      <trkpt lat="45.53339" lon="6.85597">
        <ele>3371.9</ele>
        <time>2021-03-30T10:04:31Z</time>
      </trkpt>
      <trkpt lat="45.53339" lon="6.85598">
        <ele>3371.9</ele>
        <time>2021-03-30T10:04:32Z</time>
      </trkpt>
      <trkpt lat="45.53339" lon="6.85598">
        <ele>3371.9</ele>
        <time>2021-03-30T10:04:33Z</time>
      </trkpt>
      <trkpt lat="45.53339" lon="6.85598">
        <ele>3371.9</ele>
        <time>2021-03-30T10:04:34Z</time>
      </trkpt>
      <trkpt lat="45.53339" lon="6.856">
        <ele>3373.4</ele>
        <time>2021-03-30T10:04:35Z</time>
      </trkpt>
      <trkpt lat="45.53339" lon="6.856">
        <ele>3373.4</ele>
        <time>2021-03-30T10:04:36Z</time>
      </trkpt>
      <trkpt lat="45.53338" lon="6.856">
        <ele>3372.5</ele>
        <time>2021-03-30T10:04:37Z</time>
      </trkpt>
      <trkpt lat="45.53337" lon="6.856">
        <ele>3372.5</ele>
        <time>2021-03-30T10:04:38Z</time>
      </trkpt>
      <trkpt lat="45.53336" lon="6.85601">
        <ele>3372.5</ele>
        <time>2021-03-30T10:04:39Z</time>
      </trkpt>
      <trkpt lat="45.53335" lon="6.85602">
        <ele>3371.7</ele>
        <time>2021-03-30T10:04:40Z</time>
      </trkpt>
      <trkpt lat="45.53334" lon="6.85602">
        <ele>3371.7</ele>
        <time>2021-03-30T10:04:41Z</time>
      </trkpt>
      <trkpt lat="45.53333" lon="6.85603">
        <ele>3373.2</ele>
        <time>2021-03-30T10:04:42Z</time>
      </trkpt>
      <trkpt lat="45.53332" lon="6.85604">
        <ele>3373.2</ele>
        <time>2021-03-30T10:04:43Z</time>
      </trkpt>
      <trkpt lat="45.53331" lon="6.85604">
        <ele>3372.3</ele>
        <time>2021-03-30T10:04:44Z</time>
      </trkpt>
      <trkpt lat="45.5333" lon="6.85605">
        <ele>3372.3</ele>
        <time>2021-03-30T10:04:45Z</time>
      </trkpt>
      <trkpt lat="45.5333" lon="6.85605">
        <ele>3372.3</ele>
        <time>2021-03-30T10:04:46Z</time>
      </trkpt>
      <trkpt lat="45.53329" lon="6.85606">
        <ele>3371.5</ele>
        <time>2021-03-30T10:04:47Z</time>
      </trkpt>
      <trkpt lat="45.53328" lon="6.85606">
        <ele>3371.5</ele>
        <time>2021-03-30T10:04:48Z</time>
      </trkpt>
      <trkpt lat="45.53327" lon="6.85607">
        <ele>3373</ele>
        <time>2021-03-30T10:04:49Z</time>
      </trkpt>
      <trkpt lat="45.53327" lon="6.85608">
        <ele>3373</ele>
        <time>2021-03-30T10:04:50Z</time>
      </trkpt>
      <trkpt lat="45.53326" lon="6.85608">
        <ele>3372.2</ele>
        <time>2021-03-30T10:04:51Z</time>
      </trkpt>
      <trkpt lat="45.53325" lon="6.85609">
        <ele>3372.2</ele>
        <time>2021-03-30T10:04:52Z</time>
      </trkpt>
      <trkpt lat="45.53324" lon="6.85609">
        <ele>3372.2</ele>
        <time>2021-03-30T10:04:53Z</time>
      </trkpt>
      <trkpt lat="45.53324" lon="6.8561">
        <ele>3372.2</ele>
        <time>2021-03-30T10:04:54Z</time>
      </trkpt>
      <trkpt lat="45.53323" lon="6.85611">
        <ele>3371.4</ele>
        <time>2021-03-30T10:04:55Z</time>
      </trkpt>
      <trkpt lat="45.53322" lon="6.85611">
        <ele>3373</ele>
        <time>2021-03-30T10:04:56Z</time>
      </trkpt>
      <trkpt lat="45.53321" lon="6.85612">
        <ele>3373</ele>
        <time>2021-03-30T10:04:57Z</time>
      </trkpt>
      <trkpt lat="45.5332" lon="6.85612">
        <ele>3373</ele>
        <time>2021-03-30T10:04:58Z</time>
      </trkpt>
      <trkpt lat="45.5332" lon="6.85613">
        <ele>3372.2</ele>
        <time>2021-03-30T10:04:59Z</time>
      </trkpt>
      <trkpt lat="45.53319" lon="6.85613">
        <ele>3372.2</ele>
        <time>2021-03-30T10:05:00Z</time>
      </trkpt>
      <trkpt lat="45.53318" lon="6.85613">
        <ele>3372.2</ele>
        <time>2021-03-30T10:05:01Z</time>
      </trkpt>
      <trkpt lat="45.53318" lon="6.85614">
        <ele>3372.2</ele>
        <time>2021-03-30T10:05:02Z</time>
      </trkpt>
      <trkpt lat="45.53317" lon="6.85614">
        <ele>3372.2</ele>
        <time>2021-03-30T10:05:03Z</time>
      </trkpt>
      <trkpt lat="45.53316" lon="6.85615">
        <ele>3371.5</ele>
        <time>2021-03-30T10:05:04Z</time>
      </trkpt>
      <trkpt lat="45.53316" lon="6.85616">
        <ele>3371.5</ele>
        <time>2021-03-30T10:05:05Z</time>
      </trkpt>
      <trkpt lat="45.53315" lon="6.85616">
        <ele>3373.1</ele>
        <time>2021-03-30T10:05:06Z</time>
      </trkpt>
      <trkpt lat="45.53315" lon="6.85616">
        <ele>3373.1</ele>
        <time>2021-03-30T10:05:07Z</time>
      </trkpt>
      <trkpt lat="45.53314" lon="6.85617">
        <ele>3373.1</ele>
        <time>2021-03-30T10:05:08Z</time>
      </trkpt>
      <trkpt lat="45.53313" lon="6.85617">
        <ele>3372.4</ele>
        <time>2021-03-30T10:05:09Z</time>
      </trkpt>
      <trkpt lat="45.53313" lon="6.85618">
        <ele>3372.4</ele>
        <time>2021-03-30T10:05:10Z</time>
      </trkpt>
      <trkpt lat="45.53312" lon="6.85618">
        <ele>3372.4</ele>
        <time>2021-03-30T10:05:11Z</time>
      </trkpt>
      <trkpt lat="45.53311" lon="6.85619">
        <ele>3372.4</ele>
        <time>2021-03-30T10:05:12Z</time>
      </trkpt>
      <trkpt lat="45.53311" lon="6.8562">
        <ele>3371.7</ele>
        <time>2021-03-30T10:05:13Z</time>
      </trkpt>
      <trkpt lat="45.5331" lon="6.8562">
        <ele>3373.3</ele>
        <time>2021-03-30T10:05:14Z</time>
      </trkpt>
      <trkpt lat="45.5331" lon="6.85621">
        <ele>3373.3</ele>
        <time>2021-03-30T10:05:15Z</time>
      </trkpt>
      <trkpt lat="45.53309" lon="6.85621">
        <ele>3373.3</ele>
        <time>2021-03-30T10:05:16Z</time>
      </trkpt>
      <trkpt lat="45.53308" lon="6.85622">
        <ele>3373.3</ele>
        <time>2021-03-30T10:05:17Z</time>
      </trkpt>
      <trkpt lat="45.53308" lon="6.85622">
        <ele>3372.6</ele>
        <time>2021-03-30T10:05:18Z</time>
      </trkpt>
      <trkpt lat="45.53307" lon="6.85622">
        <ele>3372.6</ele>
        <time>2021-03-30T10:05:19Z</time>
      </trkpt>
      <trkpt lat="45.53307" lon="6.85623">
        <ele>3372.6</ele>
        <time>2021-03-30T10:05:20Z</time>
      </trkpt>
      <trkpt lat="45.53307" lon="6.85623">
        <ele>3372.6</ele>
        <time>2021-03-30T10:05:21Z</time>
      </trkpt>
      <trkpt lat="45.53306" lon="6.85623">
        <ele>3372.6</ele>
        <time>2021-03-30T10:05:22Z</time>
      </trkpt>
      <trkpt lat="45.53306" lon="6.85624">
        <ele>3372.6</ele>
        <time>2021-03-30T10:05:23Z</time>
      </trkpt>
      <trkpt lat="45.53305" lon="6.85625">
        <ele>3374.1</ele>
        <time>2021-03-30T10:05:24Z</time>
      </trkpt>
      <trkpt lat="45.53304" lon="6.85625">
        <ele>3373.5</ele>
        <time>2021-03-30T10:05:25Z</time>
      </trkpt>
      <trkpt lat="45.53304" lon="6.85626">
        <ele>3373.5</ele>
        <time>2021-03-30T10:05:26Z</time>
      </trkpt>
      <trkpt lat="45.53304" lon="6.85627">
        <ele>3373.5</ele>
        <time>2021-03-30T10:05:27Z</time>
      </trkpt>
      <trkpt lat="45.53303" lon="6.85627">
        <ele>3373.5</ele>
        <time>2021-03-30T10:05:28Z</time>
      </trkpt>
      <trkpt lat="45.53303" lon="6.85627">
        <ele>3373.5</ele>
        <time>2021-03-30T10:05:29Z</time>
      </trkpt>
      <trkpt lat="45.53302" lon="6.85628">
        <ele>3373.5</ele>
        <time>2021-03-30T10:05:30Z</time>
      </trkpt>
      <trkpt lat="45.53302" lon="6.85628">
        <ele>3372.9</ele>
        <time>2021-03-30T10:05:31Z</time>
      </trkpt>
      <trkpt lat="45.53301" lon="6.85629">
        <ele>3374.4</ele>
        <time>2021-03-30T10:05:32Z</time>
      </trkpt>
      <trkpt lat="45.53301" lon="6.85629">
        <ele>3374.4</ele>
        <time>2021-03-30T10:05:33Z</time>
      </trkpt>
      <trkpt lat="45.533" lon="6.8563">
        <ele>3374.4</ele>
        <time>2021-03-30T10:05:34Z</time>
      </trkpt>
      <trkpt lat="45.533" lon="6.8563">
        <ele>3374.4</ele>
        <time>2021-03-30T10:05:35Z</time>
      </trkpt>
      <trkpt lat="45.53299" lon="6.85631">
        <ele>3374.4</ele>
        <time>2021-03-30T10:05:36Z</time>
      </trkpt>
      <trkpt lat="45.53299" lon="6.85631">
        <ele>3373.9</ele>
        <time>2021-03-30T10:05:37Z</time>
      </trkpt>
      <trkpt lat="45.53298" lon="6.85632">
        <ele>3373.9</ele>
        <time>2021-03-30T10:05:38Z</time>
      </trkpt>
      <trkpt lat="45.53298" lon="6.85633">
        <ele>3373.9</ele>
        <time>2021-03-30T10:05:39Z</time>
      </trkpt>
      <trkpt lat="45.53297" lon="6.85634">
        <ele>3375.4</ele>
        <time>2021-03-30T10:05:40Z</time>
      </trkpt>
      <trkpt lat="45.53296" lon="6.85635">
        <ele>3375.4</ele>
        <time>2021-03-30T10:05:41Z</time>
      </trkpt>
      <trkpt lat="45.53296" lon="6.85635">
        <ele>3375.4</ele>
        <time>2021-03-30T10:05:42Z</time>
      </trkpt>
      <trkpt lat="45.53296" lon="6.85636">
        <ele>3375</ele>
        <time>2021-03-30T10:05:43Z</time>
      </trkpt>
      <trkpt lat="45.53295" lon="6.85636">
        <ele>3375</ele>
        <time>2021-03-30T10:05:44Z</time>
      </trkpt>
      <trkpt lat="45.53295" lon="6.85637">
        <ele>3376.5</ele>
        <time>2021-03-30T10:05:45Z</time>
      </trkpt>
      <trkpt lat="45.53294" lon="6.85638">
        <ele>3376.5</ele>
        <time>2021-03-30T10:05:46Z</time>
      </trkpt>
      <trkpt lat="45.53294" lon="6.85638">
        <ele>3376.5</ele>
        <time>2021-03-30T10:05:47Z</time>
      </trkpt>
      <trkpt lat="45.53294" lon="6.85639">
        <ele>3376.5</ele>
        <time>2021-03-30T10:05:48Z</time>
      </trkpt>
      <trkpt lat="45.53293" lon="6.8564">
        <ele>3376.5</ele>
        <time>2021-03-30T10:05:49Z</time>
      </trkpt>
      <trkpt lat="45.53293" lon="6.8564">
        <ele>3376.5</ele>
        <time>2021-03-30T10:05:50Z</time>
      </trkpt>
      <trkpt lat="45.53293" lon="6.8564">
        <ele>3376.1</ele>
        <time>2021-03-30T10:05:51Z</time>
      </trkpt>
      <trkpt lat="45.53292" lon="6.85641">
        <ele>3376.1</ele>
        <time>2021-03-30T10:05:52Z</time>
      </trkpt>
      <trkpt lat="45.53292" lon="6.85641">
        <ele>3376.1</ele>
        <time>2021-03-30T10:05:53Z</time>
      </trkpt>
      <trkpt lat="45.53292" lon="6.85641">
        <ele>3377.6</ele>
        <time>2021-03-30T10:05:54Z</time>
      </trkpt>
      <trkpt lat="45.53291" lon="6.85642">
        <ele>3377.6</ele>
        <time>2021-03-30T10:05:55Z</time>
      </trkpt>
      <trkpt lat="45.53291" lon="6.85642">
        <ele>3377.6</ele>
        <time>2021-03-30T10:05:56Z</time>
      </trkpt>
      <trkpt lat="45.5329" lon="6.85642">
        <ele>3377.6</ele>
        <time>2021-03-30T10:05:57Z</time>
      </trkpt>
      <trkpt lat="45.5329" lon="6.85643">
        <ele>3377.6</ele>
        <time>2021-03-30T10:05:58Z</time>
      </trkpt>
      <trkpt lat="45.5329" lon="6.85644">
        <ele>3377.3</ele>
        <time>2021-03-30T10:05:59Z</time>
      </trkpt>
      <trkpt lat="45.53289" lon="6.85644">
        <ele>3377.3</ele>
        <time>2021-03-30T10:06:00Z</time>
      </trkpt>
      <trkpt lat="45.53289" lon="6.85645">
        <ele>3377.3</ele>
        <time>2021-03-30T10:06:01Z</time>
      </trkpt>
      <trkpt lat="45.53288" lon="6.85645">
        <ele>3377.3</ele>
        <time>2021-03-30T10:06:02Z</time>
      </trkpt>
      <trkpt lat="45.53287" lon="6.85646">
        <ele>3378.8</ele>
        <time>2021-03-30T10:06:03Z</time>
      </trkpt>
      <trkpt lat="45.53287" lon="6.85646">
        <ele>3378.4</ele>
        <time>2021-03-30T10:06:04Z</time>
      </trkpt>
      <trkpt lat="45.53286" lon="6.85647">
        <ele>3378.4</ele>
        <time>2021-03-30T10:06:05Z</time>
      </trkpt>
      <trkpt lat="45.53286" lon="6.85647">
        <ele>3378.4</ele>
        <time>2021-03-30T10:06:06Z</time>
      </trkpt>
      <trkpt lat="45.53285" lon="6.85648">
        <ele>3378.4</ele>
        <time>2021-03-30T10:06:07Z</time>
      </trkpt>
      <trkpt lat="45.53285" lon="6.85648">
        <ele>3378.4</ele>
        <time>2021-03-30T10:06:08Z</time>
      </trkpt>
      <trkpt lat="45.53284" lon="6.85649">
        <ele>3378.4</ele>
        <time>2021-03-30T10:06:09Z</time>
      </trkpt>
      <trkpt lat="45.53284" lon="6.85649">
        <ele>3378.1</ele>
        <time>2021-03-30T10:06:10Z</time>
      </trkpt>
      <trkpt lat="45.53283" lon="6.8565">
        <ele>3379.6</ele>
        <time>2021-03-30T10:06:11Z</time>
      </trkpt>
      <trkpt lat="45.53282" lon="6.85651">
        <ele>3379.6</ele>
        <time>2021-03-30T10:06:12Z</time>
      </trkpt>
      <trkpt lat="45.53281" lon="6.85651">
        <ele>3379.6</ele>
        <time>2021-03-30T10:06:13Z</time>
      </trkpt>
      <trkpt lat="45.53281" lon="6.85652">
        <ele>3379.3</ele>
        <time>2021-03-30T10:06:14Z</time>
      </trkpt>
      <trkpt lat="45.5328" lon="6.85652">
        <ele>3379.3</ele>
        <time>2021-03-30T10:06:15Z</time>
      </trkpt>
      <trkpt lat="45.5328" lon="6.85652">
        <ele>3379.3</ele>
        <time>2021-03-30T10:06:16Z</time>
      </trkpt>
      <trkpt lat="45.53279" lon="6.85652">
        <ele>3379.3</ele>
        <time>2021-03-30T10:06:17Z</time>
      </trkpt>
      <trkpt lat="45.53279" lon="6.85652">
        <ele>3379.3</ele>
        <time>2021-03-30T10:06:18Z</time>
      </trkpt>
      <trkpt lat="45.53279" lon="6.85653">
        <ele>3379.3</ele>
        <time>2021-03-30T10:06:19Z</time>
      </trkpt>
      <trkpt lat="45.53278" lon="6.85653">
        <ele>3379.3</ele>
        <time>2021-03-30T10:06:20Z</time>
      </trkpt>
      <trkpt lat="45.53278" lon="6.85653">
        <ele>3379.1</ele>
        <time>2021-03-30T10:06:21Z</time>
      </trkpt>
      <trkpt lat="45.53277" lon="6.85653">
        <ele>3379.1</ele>
        <time>2021-03-30T10:06:22Z</time>
      </trkpt>
      <trkpt lat="45.53277" lon="6.85653">
        <ele>3379.1</ele>
        <time>2021-03-30T10:06:23Z</time>
      </trkpt>
      <trkpt lat="45.53276" lon="6.85654">
        <ele>3379.1</ele>
        <time>2021-03-30T10:06:24Z</time>
      </trkpt>
      <trkpt lat="45.53276" lon="6.85654">
        <ele>3379.1</ele>
        <time>2021-03-30T10:06:25Z</time>
      </trkpt>
      <trkpt lat="45.53275" lon="6.85654">
        <ele>3379.1</ele>
        <time>2021-03-30T10:07:55Z</time>
      </trkpt>
      <trkpt lat="45.53275" lon="6.85654">
        <ele>3379.1</ele>
        <time>2021-03-30T10:07:56Z</time>
      </trkpt>
      <trkpt lat="45.53274" lon="6.85654">
        <ele>3380.5</ele>
        <time>2021-03-30T10:07:57Z</time>
      </trkpt>
      <trkpt lat="45.53274" lon="6.85655">
        <ele>3380.5</ele>
        <time>2021-03-30T10:07:58Z</time>
      </trkpt>
      <trkpt lat="45.53274" lon="6.85655">
        <ele>3380.5</ele>
        <time>2021-03-30T10:07:59Z</time>
      </trkpt>
      <trkpt lat="45.53273" lon="6.85655">
        <ele>3380.5</ele>
        <time>2021-03-30T10:08:00Z</time>
      </trkpt>
      <trkpt lat="45.53272" lon="6.85655">
        <ele>3380.5</ele>
        <time>2021-03-30T10:08:01Z</time>
      </trkpt>
      <trkpt lat="45.53272" lon="6.85656">
        <ele>3380.3</ele>
        <time>2021-03-30T10:08:02Z</time>
      </trkpt>
      <trkpt lat="45.53271" lon="6.85656">
        <ele>3380.3</ele>
        <time>2021-03-30T10:08:03Z</time>
      </trkpt>
      <trkpt lat="45.5327" lon="6.85656">
        <ele>3380.3</ele>
        <time>2021-03-30T10:08:04Z</time>
      </trkpt>
      <trkpt lat="45.53269" lon="6.85656">
        <ele>3380.3</ele>
        <time>2021-03-30T10:08:05Z</time>
      </trkpt>
      <trkpt lat="45.53269" lon="6.85656">
        <ele>3380.3</ele>
        <time>2021-03-30T10:08:06Z</time>
      </trkpt>
      <trkpt lat="45.53268" lon="6.85656">
        <ele>3380.3</ele>
        <time>2021-03-30T10:08:07Z</time>
      </trkpt>
      <trkpt lat="45.53266" lon="6.85657">
        <ele>3380.3</ele>
        <time>2021-03-30T10:08:08Z</time>
      </trkpt>
      <trkpt lat="45.53265" lon="6.85658">
        <ele>3380.2</ele>
        <time>2021-03-30T10:08:09Z</time>
      </trkpt>
      <trkpt lat="45.53263" lon="6.85659">
        <ele>3381.9</ele>
        <time>2021-03-30T10:08:10Z</time>
      </trkpt>
      <trkpt lat="45.53262" lon="6.85659">
        <ele>3381.9</ele>
        <time>2021-03-30T10:08:11Z</time>
      </trkpt>
      <trkpt lat="45.53261" lon="6.8566">
        <ele>3381.9</ele>
        <time>2021-03-30T10:08:12Z</time>
      </trkpt>
      <trkpt lat="45.5326" lon="6.85661">
        <ele>3382</ele>
        <time>2021-03-30T10:08:13Z</time>
      </trkpt>
      <trkpt lat="45.53259" lon="6.85662">
        <ele>3382</ele>
        <time>2021-03-30T10:08:14Z</time>
      </trkpt>
      <trkpt lat="45.53257" lon="6.85663">
        <ele>3382</ele>
        <time>2021-03-30T10:08:15Z</time>
      </trkpt>
      <trkpt lat="45.53256" lon="6.85663">
        <ele>3383.9</ele>
        <time>2021-03-30T10:08:16Z</time>
      </trkpt>
      <trkpt lat="45.53255" lon="6.85664">
        <ele>3383.9</ele>
        <time>2021-03-30T10:08:17Z</time>
      </trkpt>
      <trkpt lat="45.53254" lon="6.85665">
        <ele>3384.1</ele>
        <time>2021-03-30T10:09:10Z</time>
      </trkpt>
      <trkpt lat="45.53252" lon="6.85666">
        <ele>3384.1</ele>
        <time>2021-03-30T10:09:11Z</time>
      </trkpt>
      <trkpt lat="45.53251" lon="6.85667">
        <ele>3384.1</ele>
        <time>2021-03-30T10:09:12Z</time>
      </trkpt>
      <trkpt lat="45.5325" lon="6.85667">
        <ele>3386.1</ele>
        <time>2021-03-30T10:09:13Z</time>
      </trkpt>
      <trkpt lat="45.53249" lon="6.85667">
        <ele>3386.1</ele>
        <time>2021-03-30T10:09:14Z</time>
      </trkpt>
      <trkpt lat="45.53249" lon="6.85667">
        <ele>3386.1</ele>
        <time>2021-03-30T10:09:15Z</time>
      </trkpt>
      <trkpt lat="45.53248" lon="6.85667">
        <ele>3386.1</ele>
        <time>2021-03-30T10:09:16Z</time>
      </trkpt>
      <trkpt lat="45.53247" lon="6.85667">
        <ele>3384.6</ele>
        <time>2021-03-30T10:09:17Z</time>
      </trkpt>
      <trkpt lat="45.53247" lon="6.85667">
        <ele>3384.6</ele>
        <time>2021-03-30T10:09:18Z</time>
      </trkpt>
      <trkpt lat="45.53246" lon="6.85667">
        <ele>3384.6</ele>
        <time>2021-03-30T10:09:19Z</time>
      </trkpt>
      <trkpt lat="45.53245" lon="6.85667">
        <ele>3384.6</ele>
        <time>2021-03-30T10:09:20Z</time>
      </trkpt>
      <trkpt lat="45.53245" lon="6.85667">
        <ele>3384.9</ele>
        <time>2021-03-30T10:09:21Z</time>
      </trkpt>
      <trkpt lat="45.53244" lon="6.85666">
        <ele>3384.9</ele>
        <time>2021-03-30T10:09:22Z</time>
      </trkpt>
      <trkpt lat="45.53243" lon="6.85666">
        <ele>3384.9</ele>
        <time>2021-03-30T10:09:23Z</time>
      </trkpt>
      <trkpt lat="45.53243" lon="6.85666">
        <ele>3384.9</ele>
        <time>2021-03-30T10:09:24Z</time>
      </trkpt>
      <trkpt lat="45.53242" lon="6.85666">
        <ele>3384.9</ele>
        <time>2021-03-30T10:09:25Z</time>
      </trkpt>
      <trkpt lat="45.53242" lon="6.85665">
        <ele>3385.2</ele>
        <time>2021-03-30T10:09:26Z</time>
      </trkpt>
      <trkpt lat="45.53241" lon="6.85665">
        <ele>3385.2</ele>
        <time>2021-03-30T10:09:27Z</time>
      </trkpt>
      <trkpt lat="45.53241" lon="6.85665">
        <ele>3385.2</ele>
        <time>2021-03-30T10:09:28Z</time>
      </trkpt>
      <trkpt lat="45.5324" lon="6.85665">
        <ele>3385.2</ele>
        <time>2021-03-30T10:09:29Z</time>
      </trkpt>
      <trkpt lat="45.5324" lon="6.85664">
        <ele>3385.2</ele>
        <time>2021-03-30T10:09:30Z</time>
      </trkpt>
      <trkpt lat="45.53239" lon="6.85665">
        <ele>3385.2</ele>
        <time>2021-03-30T10:09:31Z</time>
      </trkpt>
      <trkpt lat="45.53238" lon="6.85665">
        <ele>3385.5</ele>
        <time>2021-03-30T10:09:32Z</time>
      </trkpt>
      <trkpt lat="45.53238" lon="6.85665">
        <ele>3385.5</ele>
        <time>2021-03-30T10:09:33Z</time>
      </trkpt>
      <trkpt lat="45.53237" lon="6.85665">
        <ele>3385.5</ele>
        <time>2021-03-30T10:09:34Z</time>
      </trkpt>
      <trkpt lat="45.53236" lon="6.85665">
        <ele>3385.5</ele>
        <time>2021-03-30T10:09:35Z</time>
      </trkpt>
      <trkpt lat="45.53236" lon="6.85665">
        <ele>3385.5</ele>
        <time>2021-03-30T10:09:36Z</time>
      </trkpt>
      <trkpt lat="45.53235" lon="6.85665">
        <ele>3385.9</ele>
        <time>2021-03-30T10:09:37Z</time>
      </trkpt>
      <trkpt lat="45.53235" lon="6.85665">
        <ele>3385.9</ele>
        <time>2021-03-30T10:09:38Z</time>
      </trkpt>
      <trkpt lat="45.53234" lon="6.85665">
        <ele>3385.9</ele>
        <time>2021-03-30T10:09:39Z</time>
      </trkpt>
      <trkpt lat="45.53234" lon="6.85664">
        <ele>3385.9</ele>
        <time>2021-03-30T10:09:40Z</time>
      </trkpt>
      <trkpt lat="45.53233" lon="6.85664">
        <ele>3385.9</ele>
        <time>2021-03-30T10:09:41Z</time>
      </trkpt>
      <trkpt lat="45.53233" lon="6.85664">
        <ele>3385.9</ele>
        <time>2021-03-30T10:09:42Z</time>
      </trkpt>
      <trkpt lat="45.53232" lon="6.85664">
        <ele>3386.3</ele>
        <time>2021-03-30T10:09:43Z</time>
      </trkpt>
      <trkpt lat="45.53232" lon="6.85664">
        <ele>3386.3</ele>
        <time>2021-03-30T10:09:44Z</time>
      </trkpt>
      <trkpt lat="45.53231" lon="6.85664">
        <ele>3386.3</ele>
        <time>2021-03-30T10:09:45Z</time>
      </trkpt>
      <trkpt lat="45.53231" lon="6.85663">
        <ele>3386.3</ele>
        <time>2021-03-30T10:09:46Z</time>
      </trkpt>
      <trkpt lat="45.5323" lon="6.85663">
        <ele>3386.3</ele>
        <time>2021-03-30T10:09:47Z</time>
      </trkpt>
      <trkpt lat="45.5323" lon="6.85663">
        <ele>3386.6</ele>
        <time>2021-03-30T10:09:48Z</time>
      </trkpt>
      <trkpt lat="45.53229" lon="6.85663">
        <ele>3386.6</ele>
        <time>2021-03-30T10:09:49Z</time>
      </trkpt>
      <trkpt lat="45.53229" lon="6.85663">
        <ele>3386.6</ele>
        <time>2021-03-30T10:09:50Z</time>
      </trkpt>
      <trkpt lat="45.53228" lon="6.85663">
        <ele>3384.9</ele>
        <time>2021-03-30T10:09:51Z</time>
      </trkpt>
      <trkpt lat="45.53228" lon="6.85663">
        <ele>3384.9</ele>
        <time>2021-03-30T10:09:52Z</time>
      </trkpt>
      <trkpt lat="45.53227" lon="6.85663">
        <ele>3384.9</ele>
        <time>2021-03-30T10:09:53Z</time>
      </trkpt>
      <trkpt lat="45.53227" lon="6.85662">
        <ele>3384.9</ele>
        <time>2021-03-30T10:09:54Z</time>
      </trkpt>
      <trkpt lat="45.53226" lon="6.85661">
        <ele>3385.4</ele>
        <time>2021-03-30T10:09:55Z</time>
      </trkpt>
      <trkpt lat="45.53226" lon="6.85661">
        <ele>3385.4</ele>
        <time>2021-03-30T10:09:56Z</time>
      </trkpt>
      <trkpt lat="45.53226" lon="6.85661">
        <ele>3385.4</ele>
        <time>2021-03-30T10:09:57Z</time>
      </trkpt>
      <trkpt lat="45.53226" lon="6.85661">
        <ele>3385.4</ele>
        <time>2021-03-30T10:09:58Z</time>
      </trkpt>
      <trkpt lat="45.53226" lon="6.85661">
        <ele>3385.4</ele>
        <time>2021-03-30T10:09:59Z</time>
      </trkpt>
      <trkpt lat="45.53226" lon="6.85661">
        <ele>3385.4</ele>
        <time>2021-03-30T10:10:00Z</time>
      </trkpt>
      <trkpt lat="45.53226" lon="6.85661">
        <ele>3385.4</ele>
        <time>2021-03-30T10:10:01Z</time>
      </trkpt>
      <trkpt lat="45.53226" lon="6.85657">
        <ele>3383.7</ele>
        <time>2021-03-30T10:10:02Z</time>
      </trkpt>
      <trkpt lat="45.53225" lon="6.85657">
        <ele>3383.7</ele>
        <time>2021-03-30T10:10:03Z</time>
      </trkpt>
      <trkpt lat="45.53225" lon="6.85657">
        <ele>3383.7</ele>
        <time>2021-03-30T10:10:04Z</time>
      </trkpt>
      <trkpt lat="45.53224" lon="6.85657">
        <ele>3383.7</ele>
        <time>2021-03-30T10:10:11Z</time>
      </trkpt>
      <trkpt lat="45.53223" lon="6.85657">
        <ele>3384.3</ele>
        <time>2021-03-30T10:10:12Z</time>
      </trkpt>
      <trkpt lat="45.53222" lon="6.85657">
        <ele>3384.3</ele>
        <time>2021-03-30T10:10:13Z</time>
      </trkpt>
      <trkpt lat="45.53221" lon="6.85657">
        <ele>3384.3</ele>
        <time>2021-03-30T10:10:14Z</time>
      </trkpt>
      <trkpt lat="45.53221" lon="6.85657">
        <ele>3384.8</ele>
        <time>2021-03-30T10:10:15Z</time>
      </trkpt>
      <trkpt lat="45.5322" lon="6.85657">
        <ele>3384.8</ele>
        <time>2021-03-30T10:10:16Z</time>
      </trkpt>
      <trkpt lat="45.53219" lon="6.85657">
        <ele>3384.8</ele>
        <time>2021-03-30T10:10:17Z</time>
      </trkpt>
      <trkpt lat="45.53219" lon="6.85657">
        <ele>3384.8</ele>
        <time>2021-03-30T10:10:18Z</time>
      </trkpt>
      <trkpt lat="45.53218" lon="6.85658">
        <ele>3384.8</ele>
        <time>2021-03-30T10:10:19Z</time>
      </trkpt>
      <trkpt lat="45.53218" lon="6.85658">
        <ele>3385.4</ele>
        <time>2021-03-30T10:10:20Z</time>
      </trkpt>
      <trkpt lat="45.53217" lon="6.85658">
        <ele>3385.4</ele>
        <time>2021-03-30T10:10:21Z</time>
      </trkpt>
      <trkpt lat="45.53217" lon="6.85658">
        <ele>3385.4</ele>
        <time>2021-03-30T10:10:22Z</time>
      </trkpt>
      <trkpt lat="45.53216" lon="6.85658">
        <ele>3385.4</ele>
        <time>2021-03-30T10:10:23Z</time>
      </trkpt>
      <trkpt lat="45.53216" lon="6.85658">
        <ele>3385.4</ele>
        <time>2021-03-30T10:10:24Z</time>
      </trkpt>
      <trkpt lat="45.53215" lon="6.85658">
        <ele>3385.4</ele>
        <time>2021-03-30T10:10:25Z</time>
      </trkpt>
      <trkpt lat="45.53215" lon="6.85658">
        <ele>3385.9</ele>
        <time>2021-03-30T10:10:26Z</time>
      </trkpt>
      <trkpt lat="45.53214" lon="6.85658">
        <ele>3385.9</ele>
        <time>2021-03-30T10:10:27Z</time>
      </trkpt>
      <trkpt lat="45.53214" lon="6.85657">
        <ele>3385.9</ele>
        <time>2021-03-30T10:10:28Z</time>
      </trkpt>
      <trkpt lat="45.53213" lon="6.85657">
        <ele>3385.9</ele>
        <time>2021-03-30T10:10:29Z</time>
      </trkpt>
      <trkpt lat="45.53212" lon="6.85657">
        <ele>3385.9</ele>
        <time>2021-03-30T10:10:30Z</time>
      </trkpt>
      <trkpt lat="45.53212" lon="6.85657">
        <ele>3385.9</ele>
        <time>2021-03-30T10:10:31Z</time>
      </trkpt>
      <trkpt lat="45.53211" lon="6.85657">
        <ele>3386.5</ele>
        <time>2021-03-30T10:10:32Z</time>
      </trkpt>
      <trkpt lat="45.53211" lon="6.85657">
        <ele>3386.5</ele>
        <time>2021-03-30T10:10:33Z</time>
      </trkpt>
      <trkpt lat="45.5321" lon="6.85658">
        <ele>3386.5</ele>
        <time>2021-03-30T10:10:34Z</time>
      </trkpt>
      <trkpt lat="45.5321" lon="6.85658">
        <ele>3386.5</ele>
        <time>2021-03-30T10:10:35Z</time>
      </trkpt>
      <trkpt lat="45.53209" lon="6.85657">
        <ele>3386.5</ele>
        <time>2021-03-30T10:10:36Z</time>
      </trkpt>
      <trkpt lat="45.53209" lon="6.85657">
        <ele>3387</ele>
        <time>2021-03-30T10:10:37Z</time>
      </trkpt>
      <trkpt lat="45.53208" lon="6.85657">
        <ele>3387</ele>
        <time>2021-03-30T10:10:38Z</time>
      </trkpt>
      <trkpt lat="45.53207" lon="6.85657">
        <ele>3387</ele>
        <time>2021-03-30T10:10:39Z</time>
      </trkpt>
      <trkpt lat="45.53207" lon="6.85657">
        <ele>3387</ele>
        <time>2021-03-30T10:10:40Z</time>
      </trkpt>
      <trkpt lat="45.53206" lon="6.85657">
        <ele>3387</ele>
        <time>2021-03-30T10:10:41Z</time>
      </trkpt>
      <trkpt lat="45.53206" lon="6.85657">
        <ele>3387.7</ele>
        <time>2021-03-30T10:10:42Z</time>
      </trkpt>
      <trkpt lat="45.53205" lon="6.85658">
        <ele>3387.7</ele>
        <time>2021-03-30T10:10:43Z</time>
      </trkpt>
      <trkpt lat="45.53205" lon="6.85658">
        <ele>3387.7</ele>
        <time>2021-03-30T10:10:44Z</time>
      </trkpt>
      <trkpt lat="45.53204" lon="6.85658">
        <ele>3387.7</ele>
        <time>2021-03-30T10:10:45Z</time>
      </trkpt>
      <trkpt lat="45.53203" lon="6.85658">
        <ele>3387.7</ele>
        <time>2021-03-30T10:10:46Z</time>
      </trkpt>
      <trkpt lat="45.53203" lon="6.85658">
        <ele>3387.7</ele>
        <time>2021-03-30T10:10:47Z</time>
      </trkpt>
      <trkpt lat="45.53202" lon="6.85658">
        <ele>3388.3</ele>
        <time>2021-03-30T10:10:48Z</time>
      </trkpt>
      <trkpt lat="45.53202" lon="6.85658">
        <ele>3388.3</ele>
        <time>2021-03-30T10:10:49Z</time>
      </trkpt>
      <trkpt lat="45.53201" lon="6.85658">
        <ele>3388.3</ele>
        <time>2021-03-30T10:10:50Z</time>
      </trkpt>
      <trkpt lat="45.53201" lon="6.85658">
        <ele>3388.3</ele>
        <time>2021-03-30T10:10:51Z</time>
      </trkpt>
      <trkpt lat="45.532" lon="6.85658">
        <ele>3388.3</ele>
        <time>2021-03-30T10:10:52Z</time>
      </trkpt>
      <trkpt lat="45.532" lon="6.85657">
        <ele>3388.3</ele>
        <time>2021-03-30T10:10:53Z</time>
      </trkpt>
      <trkpt lat="45.532" lon="6.85657">
        <ele>3389.1</ele>
        <time>2021-03-30T10:10:54Z</time>
      </trkpt>
      <trkpt lat="45.53199" lon="6.85657">
        <ele>3389.1</ele>
        <time>2021-03-30T10:10:55Z</time>
      </trkpt>
      <trkpt lat="45.53199" lon="6.85657">
        <ele>3389.1</ele>
        <time>2021-03-30T10:10:56Z</time>
      </trkpt>
      <trkpt lat="45.53198" lon="6.85657">
        <ele>3389.1</ele>
        <time>2021-03-30T10:10:57Z</time>
      </trkpt>
      <trkpt lat="45.53198" lon="6.85657">
        <ele>3389.1</ele>
        <time>2021-03-30T10:10:58Z</time>
      </trkpt>
      <trkpt lat="45.53197" lon="6.85657">
        <ele>3389.1</ele>
        <time>2021-03-30T10:10:59Z</time>
      </trkpt>
      <trkpt lat="45.53197" lon="6.85657">
        <ele>3389.9</ele>
        <time>2021-03-30T10:11:00Z</time>
      </trkpt>
      <trkpt lat="45.53196" lon="6.85657">
        <ele>3389.9</ele>
        <time>2021-03-30T10:11:01Z</time>
      </trkpt>
      <trkpt lat="45.53196" lon="6.85657">
        <ele>3389.9</ele>
        <time>2021-03-30T10:11:02Z</time>
      </trkpt>
      <trkpt lat="45.53195" lon="6.85657">
        <ele>3389.9</ele>
        <time>2021-03-30T10:11:03Z</time>
      </trkpt>
      <trkpt lat="45.53195" lon="6.85656">
        <ele>3389.9</ele>
        <time>2021-03-30T10:11:04Z</time>
      </trkpt>
      <trkpt lat="45.53194" lon="6.85656">
        <ele>3389.9</ele>
        <time>2021-03-30T10:11:05Z</time>
      </trkpt>
      <trkpt lat="45.53194" lon="6.85656">
        <ele>3390.7</ele>
        <time>2021-03-30T10:11:06Z</time>
      </trkpt>
      <trkpt lat="45.53193" lon="6.85656">
        <ele>3390.7</ele>
        <time>2021-03-30T10:11:07Z</time>
      </trkpt>
      <trkpt lat="45.53193" lon="6.85656">
        <ele>3390.7</ele>
        <time>2021-03-30T10:11:08Z</time>
      </trkpt>
      <trkpt lat="45.53192" lon="6.85657">
        <ele>3390.7</ele>
        <time>2021-03-30T10:11:09Z</time>
      </trkpt>
      <trkpt lat="45.53191" lon="6.85657">
        <ele>3390.7</ele>
        <time>2021-03-30T10:11:10Z</time>
      </trkpt>
      <trkpt lat="45.53191" lon="6.85657">
        <ele>3390.7</ele>
        <time>2021-03-30T10:11:11Z</time>
      </trkpt>
      <trkpt lat="45.5319" lon="6.85658">
        <ele>3391.5</ele>
        <time>2021-03-30T10:11:12Z</time>
      </trkpt>
      <trkpt lat="45.5319" lon="6.85658">
        <ele>3391.5</ele>
        <time>2021-03-30T10:11:13Z</time>
      </trkpt>
      <trkpt lat="45.53189" lon="6.85658">
        <ele>3391.5</ele>
        <time>2021-03-30T10:11:14Z</time>
      </trkpt>
      <trkpt lat="45.53189" lon="6.85658">
        <ele>3391.5</ele>
        <time>2021-03-30T10:11:15Z</time>
      </trkpt>
      <trkpt lat="45.53188" lon="6.85658">
        <ele>3391.5</ele>
        <time>2021-03-30T10:11:16Z</time>
      </trkpt>
      <trkpt lat="45.53188" lon="6.85659">
        <ele>3393.1</ele>
        <time>2021-03-30T10:11:17Z</time>
      </trkpt>
      <trkpt lat="45.53187" lon="6.85659">
        <ele>3393.8</ele>
        <time>2021-03-30T10:11:18Z</time>
      </trkpt>
      <trkpt lat="45.53187" lon="6.85659">
        <ele>3393.8</ele>
        <time>2021-03-30T10:11:19Z</time>
      </trkpt>
      <trkpt lat="45.53186" lon="6.85659">
        <ele>3393.8</ele>
        <time>2021-03-30T10:11:20Z</time>
      </trkpt>
      <trkpt lat="45.53185" lon="6.8566">
        <ele>3393.8</ele>
        <time>2021-03-30T10:11:21Z</time>
      </trkpt>
      <trkpt lat="45.53185" lon="6.8566">
        <ele>3393.8</ele>
        <time>2021-03-30T10:11:22Z</time>
      </trkpt>
      <trkpt lat="45.53185" lon="6.8566">
        <ele>3394.5</ele>
        <time>2021-03-30T10:11:23Z</time>
      </trkpt>
      <trkpt lat="45.53184" lon="6.8566">
        <ele>3394.5</ele>
        <time>2021-03-30T10:11:24Z</time>
      </trkpt>
      <trkpt lat="45.53184" lon="6.85661">
        <ele>3394.5</ele>
        <time>2021-03-30T10:11:25Z</time>
      </trkpt>
      <trkpt lat="45.53183" lon="6.85661">
        <ele>3394.5</ele>
        <time>2021-03-30T10:11:26Z</time>
      </trkpt>
      <trkpt lat="45.53183" lon="6.85661">
        <ele>3394.5</ele>
        <time>2021-03-30T10:11:27Z</time>
      </trkpt>
      <trkpt lat="45.53182" lon="6.85661">
        <ele>3394.5</ele>
        <time>2021-03-30T10:11:28Z</time>
      </trkpt>
      <trkpt lat="45.53182" lon="6.85661">
        <ele>3394.5</ele>
        <time>2021-03-30T10:11:29Z</time>
      </trkpt>
      <trkpt lat="45.53181" lon="6.85661">
        <ele>3395.2</ele>
        <time>2021-03-30T10:11:30Z</time>
      </trkpt>
      <trkpt lat="45.53181" lon="6.85661">
        <ele>3395.2</ele>
        <time>2021-03-30T10:11:31Z</time>
      </trkpt>
      <trkpt lat="45.5318" lon="6.85661">
        <ele>3395.2</ele>
        <time>2021-03-30T10:11:32Z</time>
      </trkpt>
      <trkpt lat="45.5318" lon="6.85661">
        <ele>3395.2</ele>
        <time>2021-03-30T10:11:33Z</time>
      </trkpt>
      <trkpt lat="45.53179" lon="6.85661">
        <ele>3395.2</ele>
        <time>2021-03-30T10:11:34Z</time>
      </trkpt>
      <trkpt lat="45.53179" lon="6.85661">
        <ele>3395.2</ele>
        <time>2021-03-30T10:11:35Z</time>
      </trkpt>
      <trkpt lat="45.53178" lon="6.85661">
        <ele>3395.9</ele>
        <time>2021-03-30T10:11:36Z</time>
      </trkpt>
      <trkpt lat="45.53178" lon="6.85661">
        <ele>3395.9</ele>
        <time>2021-03-30T10:11:37Z</time>
      </trkpt>
      <trkpt lat="45.53177" lon="6.85661">
        <ele>3395.9</ele>
        <time>2021-03-30T10:11:38Z</time>
      </trkpt>
      <trkpt lat="45.53177" lon="6.85661">
        <ele>3395.9</ele>
        <time>2021-03-30T10:11:39Z</time>
      </trkpt>
      <trkpt lat="45.53176" lon="6.85661">
        <ele>3395.9</ele>
        <time>2021-03-30T10:11:40Z</time>
      </trkpt>
      <trkpt lat="45.53176" lon="6.85661">
        <ele>3395.9</ele>
        <time>2021-03-30T10:11:41Z</time>
      </trkpt>
      <trkpt lat="45.53176" lon="6.85662">
        <ele>3395.9</ele>
        <time>2021-03-30T10:11:42Z</time>
      </trkpt>
      <trkpt lat="45.53175" lon="6.85662">
        <ele>3396.6</ele>
        <time>2021-03-30T10:11:43Z</time>
      </trkpt>
      <trkpt lat="45.53175" lon="6.85662">
        <ele>3396.6</ele>
        <time>2021-03-30T10:11:44Z</time>
      </trkpt>
      <trkpt lat="45.53174" lon="6.85662">
        <ele>3396.6</ele>
        <time>2021-03-30T10:11:45Z</time>
      </trkpt>
      <trkpt lat="45.53174" lon="6.85662">
        <ele>3396.6</ele>
        <time>2021-03-30T10:11:46Z</time>
      </trkpt>
      <trkpt lat="45.53174" lon="6.85662">
        <ele>3396.6</ele>
        <time>2021-03-30T10:11:47Z</time>
      </trkpt>
      <trkpt lat="45.53173" lon="6.85662">
        <ele>3396.6</ele>
        <time>2021-03-30T10:11:48Z</time>
      </trkpt>
      <trkpt lat="45.53173" lon="6.85663">
        <ele>3396.6</ele>
        <time>2021-03-30T10:11:49Z</time>
      </trkpt>
      <trkpt lat="45.53172" lon="6.85662">
        <ele>3397.4</ele>
        <time>2021-03-30T10:11:50Z</time>
      </trkpt>
      <trkpt lat="45.53172" lon="6.85662">
        <ele>3397.4</ele>
        <time>2021-03-30T10:11:51Z</time>
      </trkpt>
      <trkpt lat="45.53171" lon="6.85662">
        <ele>3397.4</ele>
        <time>2021-03-30T10:11:52Z</time>
      </trkpt>
      <trkpt lat="45.53171" lon="6.85662">
        <ele>3397.4</ele>
        <time>2021-03-30T10:11:53Z</time>
      </trkpt>
      <trkpt lat="45.5317" lon="6.85662">
        <ele>3397.4</ele>
        <time>2021-03-30T10:11:54Z</time>
      </trkpt>
      <trkpt lat="45.5317" lon="6.85661">
        <ele>3397.4</ele>
        <time>2021-03-30T10:11:55Z</time>
      </trkpt>
      <trkpt lat="45.5317" lon="6.85661">
        <ele>3398.2</ele>
        <time>2021-03-30T10:11:56Z</time>
      </trkpt>
      <trkpt lat="45.53169" lon="6.85661">
        <ele>3398.2</ele>
        <time>2021-03-30T10:11:57Z</time>
      </trkpt>
      <trkpt lat="45.53169" lon="6.85661">
        <ele>3398.2</ele>
        <time>2021-03-30T10:11:58Z</time>
      </trkpt>
      <trkpt lat="45.53169" lon="6.8566">
        <ele>3398.2</ele>
        <time>2021-03-30T10:11:59Z</time>
      </trkpt>
      <trkpt lat="45.53169" lon="6.8566">
        <ele>3398.2</ele>
        <time>2021-03-30T10:12:00Z</time>
      </trkpt>
      <trkpt lat="45.53168" lon="6.8566">
        <ele>3398.2</ele>
        <time>2021-03-30T10:12:01Z</time>
      </trkpt>
      <trkpt lat="45.53168" lon="6.85659">
        <ele>3398.2</ele>
        <time>2021-03-30T10:12:02Z</time>
      </trkpt>
      <trkpt lat="45.53167" lon="6.85659">
        <ele>3398.2</ele>
        <time>2021-03-30T10:12:03Z</time>
      </trkpt>
      <trkpt lat="45.53167" lon="6.85658">
        <ele>3396.6</ele>
        <time>2021-03-30T10:12:04Z</time>
      </trkpt>
      <trkpt lat="45.53166" lon="6.85658">
        <ele>3397.4</ele>
        <time>2021-03-30T10:12:05Z</time>
      </trkpt>
      <trkpt lat="45.53166" lon="6.85657">
        <ele>3397.4</ele>
        <time>2021-03-30T10:12:06Z</time>
      </trkpt>
      <trkpt lat="45.53165" lon="6.85657">
        <ele>3397.4</ele>
        <time>2021-03-30T10:12:07Z</time>
      </trkpt>
      <trkpt lat="45.53165" lon="6.85656">
        <ele>3397.4</ele>
        <time>2021-03-30T10:12:08Z</time>
      </trkpt>
      <trkpt lat="45.53164" lon="6.85655">
        <ele>3397.4</ele>
        <time>2021-03-30T10:12:09Z</time>
      </trkpt>
      <trkpt lat="45.53164" lon="6.85654">
        <ele>3395.9</ele>
        <time>2021-03-30T10:12:10Z</time>
      </trkpt>
      <trkpt lat="45.53163" lon="6.85654">
        <ele>3396.7</ele>
        <time>2021-03-30T10:12:11Z</time>
      </trkpt>
      <trkpt lat="45.53163" lon="6.85654">
        <ele>3396.7</ele>
        <time>2021-03-30T10:12:12Z</time>
      </trkpt>
      <trkpt lat="45.53162" lon="6.85653">
        <ele>3396.7</ele>
        <time>2021-03-30T10:12:13Z</time>
      </trkpt>
      <trkpt lat="45.53162" lon="6.85653">
        <ele>3396.7</ele>
        <time>2021-03-30T10:12:14Z</time>
      </trkpt>
      <trkpt lat="45.53161" lon="6.85653">
        <ele>3396.7</ele>
        <time>2021-03-30T10:12:15Z</time>
      </trkpt>
      <trkpt lat="45.5316" lon="6.85654">
        <ele>3399</ele>
        <time>2021-03-30T10:12:16Z</time>
      </trkpt>
      <trkpt lat="45.53159" lon="6.85655">
        <ele>3399</ele>
        <time>2021-03-30T10:12:17Z</time>
      </trkpt>
      <trkpt lat="45.53159" lon="6.85655">
        <ele>3399</ele>
        <time>2021-03-30T10:12:18Z</time>
      </trkpt>
      <trkpt lat="45.53158" lon="6.85655">
        <ele>3399</ele>
        <time>2021-03-30T10:12:19Z</time>
      </trkpt>
      <trkpt lat="45.53158" lon="6.85655">
        <ele>3399</ele>
        <time>2021-03-30T10:12:20Z</time>
      </trkpt>
      <trkpt lat="45.53157" lon="6.85655">
        <ele>3399.8</ele>
        <time>2021-03-30T10:12:21Z</time>
      </trkpt>
      <trkpt lat="45.53156" lon="6.85655">
        <ele>3399.8</ele>
        <time>2021-03-30T10:12:22Z</time>
      </trkpt>
      <trkpt lat="45.53156" lon="6.85655">
        <ele>3399.8</ele>
        <time>2021-03-30T10:12:23Z</time>
      </trkpt>
      <trkpt lat="45.53155" lon="6.85655">
        <ele>3399.8</ele>
        <time>2021-03-30T10:12:24Z</time>
      </trkpt>
      <trkpt lat="45.53155" lon="6.85654">
        <ele>3399.8</ele>
        <time>2021-03-30T10:12:25Z</time>
      </trkpt>
      <trkpt lat="45.53155" lon="6.85654">
        <ele>3398.3</ele>
        <time>2021-03-30T10:12:26Z</time>
      </trkpt>
      <trkpt lat="45.53154" lon="6.85654">
        <ele>3399.1</ele>
        <time>2021-03-30T10:12:27Z</time>
      </trkpt>
      <trkpt lat="45.53154" lon="6.85654">
        <ele>3399.1</ele>
        <time>2021-03-30T10:12:28Z</time>
      </trkpt>
      <trkpt lat="45.53154" lon="6.85654">
        <ele>3399.1</ele>
        <time>2021-03-30T10:12:29Z</time>
      </trkpt>
      <trkpt lat="45.53153" lon="6.85654">
        <ele>3399.1</ele>
        <time>2021-03-30T10:12:30Z</time>
      </trkpt>
      <trkpt lat="45.53153" lon="6.85654">
        <ele>3399.1</ele>
        <time>2021-03-30T10:12:31Z</time>
      </trkpt>
      <trkpt lat="45.53152" lon="6.85654">
        <ele>3399.1</ele>
        <time>2021-03-30T10:12:32Z</time>
      </trkpt>
      <trkpt lat="45.53152" lon="6.85653">
        <ele>3399.8</ele>
        <time>2021-03-30T10:12:33Z</time>
      </trkpt>
      <trkpt lat="45.53151" lon="6.85653">
        <ele>3399.8</ele>
        <time>2021-03-30T10:12:34Z</time>
      </trkpt>
      <trkpt lat="45.5315" lon="6.85653">
        <ele>3399.8</ele>
        <time>2021-03-30T10:12:35Z</time>
      </trkpt>
      <trkpt lat="45.5315" lon="6.85653">
        <ele>3399.8</ele>
        <time>2021-03-30T10:12:36Z</time>
      </trkpt>
      <trkpt lat="45.53149" lon="6.85653">
        <ele>3399.8</ele>
        <time>2021-03-30T10:12:37Z</time>
      </trkpt>
      <trkpt lat="45.53149" lon="6.85653">
        <ele>3399.8</ele>
        <time>2021-03-30T10:12:38Z</time>
      </trkpt>
      <trkpt lat="45.53148" lon="6.85653">
        <ele>3400.6</ele>
        <time>2021-03-30T10:12:39Z</time>
      </trkpt>
      <trkpt lat="45.53148" lon="6.85653">
        <ele>3400.6</ele>
        <time>2021-03-30T10:12:40Z</time>
      </trkpt>
      <trkpt lat="45.53148" lon="6.85652">
        <ele>3400.6</ele>
        <time>2021-03-30T10:12:41Z</time>
      </trkpt>
      <trkpt lat="45.53147" lon="6.85652">
        <ele>3400.6</ele>
        <time>2021-03-30T10:12:42Z</time>
      </trkpt>
      <trkpt lat="45.53147" lon="6.85652">
        <ele>3400.6</ele>
        <time>2021-03-30T10:12:43Z</time>
      </trkpt>
      <trkpt lat="45.53146" lon="6.85652">
        <ele>3400.6</ele>
        <time>2021-03-30T10:12:44Z</time>
      </trkpt>
      <trkpt lat="45.53146" lon="6.85651">
        <ele>3400.6</ele>
        <time>2021-03-30T10:12:45Z</time>
      </trkpt>
      <trkpt lat="45.53146" lon="6.85651">
        <ele>3401.4</ele>
        <time>2021-03-30T10:12:46Z</time>
      </trkpt>
      <trkpt lat="45.53145" lon="6.85651">
        <ele>3401.4</ele>
        <time>2021-03-30T10:12:47Z</time>
      </trkpt>
      <trkpt lat="45.53145" lon="6.85651">
        <ele>3401.4</ele>
        <time>2021-03-30T10:12:48Z</time>
      </trkpt>
      <trkpt lat="45.53144" lon="6.85651">
        <ele>3401.4</ele>
        <time>2021-03-30T10:12:49Z</time>
      </trkpt>
      <trkpt lat="45.53143" lon="6.85651">
        <ele>3401.4</ele>
        <time>2021-03-30T10:12:50Z</time>
      </trkpt>
      <trkpt lat="45.53143" lon="6.8565">
        <ele>3401.4</ele>
        <time>2021-03-30T10:12:51Z</time>
      </trkpt>
      <trkpt lat="45.53142" lon="6.8565">
        <ele>3402.3</ele>
        <time>2021-03-30T10:12:52Z</time>
      </trkpt>
      <trkpt lat="45.53141" lon="6.8565">
        <ele>3402.3</ele>
        <time>2021-03-30T10:12:53Z</time>
      </trkpt>
      <trkpt lat="45.53141" lon="6.8565">
        <ele>3402.3</ele>
        <time>2021-03-30T10:12:54Z</time>
      </trkpt>
      <trkpt lat="45.5314" lon="6.8565">
        <ele>3402.3</ele>
        <time>2021-03-30T10:12:55Z</time>
      </trkpt>
      <trkpt lat="45.5314" lon="6.8565">
        <ele>3402.3</ele>
        <time>2021-03-30T10:12:56Z</time>
      </trkpt>
      <trkpt lat="45.53139" lon="6.8565">
        <ele>3403.3</ele>
        <time>2021-03-30T10:12:57Z</time>
      </trkpt>
      <trkpt lat="45.53138" lon="6.8565">
        <ele>3403.3</ele>
        <time>2021-03-30T10:12:58Z</time>
      </trkpt>
      <trkpt lat="45.53138" lon="6.8565">
        <ele>3403.3</ele>
        <time>2021-03-30T10:12:59Z</time>
      </trkpt>
      <trkpt lat="45.53137" lon="6.8565">
        <ele>3403.3</ele>
        <time>2021-03-30T10:13:00Z</time>
      </trkpt>
      <trkpt lat="45.53137" lon="6.8565">
        <ele>3403.3</ele>
        <time>2021-03-30T10:13:01Z</time>
      </trkpt>
      <trkpt lat="45.53136" lon="6.8565">
        <ele>3403</ele>
        <time>2021-03-30T10:13:02Z</time>
      </trkpt>
      <trkpt lat="45.53135" lon="6.8565">
        <ele>3404.4</ele>
        <time>2021-03-30T10:13:03Z</time>
      </trkpt>
      <trkpt lat="45.53135" lon="6.85651">
        <ele>3404.4</ele>
        <time>2021-03-30T10:13:04Z</time>
      </trkpt>
      <trkpt lat="45.53135" lon="6.85651">
        <ele>3404.4</ele>
        <time>2021-03-30T10:13:05Z</time>
      </trkpt>
      <trkpt lat="45.53135" lon="6.85652">
        <ele>3404.4</ele>
        <time>2021-03-30T10:13:06Z</time>
      </trkpt>
      <trkpt lat="45.53135" lon="6.85652">
        <ele>3404.4</ele>
        <time>2021-03-30T10:13:07Z</time>
      </trkpt>
      <trkpt lat="45.53135" lon="6.85653">
        <ele>3404.4</ele>
        <time>2021-03-30T10:13:08Z</time>
      </trkpt>
      <trkpt lat="45.53135" lon="6.85653">
        <ele>3404.4</ele>
        <time>2021-03-30T10:13:09Z</time>
      </trkpt>
      <trkpt lat="45.53134" lon="6.85654">
        <ele>3404.4</ele>
        <time>2021-03-30T10:13:10Z</time>
      </trkpt>
      <trkpt lat="45.53134" lon="6.85654">
        <ele>3405.9</ele>
        <time>2021-03-30T10:13:11Z</time>
      </trkpt>
      <trkpt lat="45.53134" lon="6.85655">
        <ele>3405.9</ele>
        <time>2021-03-30T10:13:12Z</time>
      </trkpt>
      <trkpt lat="45.53134" lon="6.85655">
        <ele>3405.9</ele>
        <time>2021-03-30T10:13:13Z</time>
      </trkpt>
      <trkpt lat="45.53134" lon="6.85656">
        <ele>3405.9</ele>
        <time>2021-03-30T10:13:14Z</time>
      </trkpt>
      <trkpt lat="45.53134" lon="6.85656">
        <ele>3405.9</ele>
        <time>2021-03-30T10:13:15Z</time>
      </trkpt>
      <trkpt lat="45.53134" lon="6.85657">
        <ele>3405.9</ele>
        <time>2021-03-30T10:13:18Z</time>
      </trkpt>
      <trkpt lat="45.53134" lon="6.85657">
        <ele>3405.9</ele>
        <time>2021-03-30T10:13:19Z</time>
      </trkpt>
      <trkpt lat="45.53134" lon="6.85658">
        <ele>3405.9</ele>
        <time>2021-03-30T10:13:20Z</time>
      </trkpt>
      <trkpt lat="45.53134" lon="6.85658">
        <ele>3405.9</ele>
        <time>2021-03-30T10:13:21Z</time>
      </trkpt>
      <trkpt lat="45.53134" lon="6.85659">
        <ele>3407.5</ele>
        <time>2021-03-30T10:13:22Z</time>
      </trkpt>
      <trkpt lat="45.53133" lon="6.85659">
        <ele>3408.6</ele>
        <time>2021-03-30T10:13:23Z</time>
      </trkpt>
      <trkpt lat="45.53133" lon="6.8566">
        <ele>3408.6</ele>
        <time>2021-03-30T10:13:24Z</time>
      </trkpt>
      <trkpt lat="45.53133" lon="6.8566">
        <ele>3408.6</ele>
        <time>2021-03-30T10:13:25Z</time>
      </trkpt>
      <trkpt lat="45.53133" lon="6.85661">
        <ele>3408.6</ele>
        <time>2021-03-30T10:13:26Z</time>
      </trkpt>
      <trkpt lat="45.53132" lon="6.85661">
        <ele>3408.6</ele>
        <time>2021-03-30T10:13:27Z</time>
      </trkpt>
      <trkpt lat="45.53132" lon="6.85662">
        <ele>3408.6</ele>
        <time>2021-03-30T10:13:28Z</time>
      </trkpt>
      <trkpt lat="45.53132" lon="6.85663">
        <ele>3408.6</ele>
        <time>2021-03-30T10:13:29Z</time>
      </trkpt>
      <trkpt lat="45.53132" lon="6.85663">
        <ele>3410.2</ele>
        <time>2021-03-30T10:13:30Z</time>
      </trkpt>
      <trkpt lat="45.53132" lon="6.85664">
        <ele>3410.2</ele>
        <time>2021-03-30T10:13:31Z</time>
      </trkpt>
      <trkpt lat="45.53132" lon="6.85664">
        <ele>3410.2</ele>
        <time>2021-03-30T10:13:32Z</time>
      </trkpt>
      <trkpt lat="45.53132" lon="6.85665">
        <ele>3410.2</ele>
        <time>2021-03-30T10:13:33Z</time>
      </trkpt>
      <trkpt lat="45.53132" lon="6.85665">
        <ele>3410.2</ele>
        <time>2021-03-30T10:13:34Z</time>
      </trkpt>
      <trkpt lat="45.53132" lon="6.85666">
        <ele>3410.2</ele>
        <time>2021-03-30T10:13:35Z</time>
      </trkpt>
      <trkpt lat="45.53132" lon="6.85666">
        <ele>3410.2</ele>
        <time>2021-03-30T10:13:36Z</time>
      </trkpt>
      <trkpt lat="45.53132" lon="6.85666">
        <ele>3410.2</ele>
        <time>2021-03-30T10:13:37Z</time>
      </trkpt>
      <trkpt lat="45.53132" lon="6.85667">
        <ele>3410.2</ele>
        <time>2021-03-30T10:13:38Z</time>
      </trkpt>
      <trkpt lat="45.53132" lon="6.85668">
        <ele>3411.9</ele>
        <time>2021-03-30T10:13:39Z</time>
      </trkpt>
      <trkpt lat="45.53132" lon="6.85668">
        <ele>3411.9</ele>
        <time>2021-03-30T10:13:40Z</time>
      </trkpt>
      <trkpt lat="45.53132" lon="6.85669">
        <ele>3411.9</ele>
        <time>2021-03-30T10:13:41Z</time>
      </trkpt>
      <trkpt lat="45.53132" lon="6.85669">
        <ele>3411.9</ele>
        <time>2021-03-30T10:13:42Z</time>
      </trkpt>
      <trkpt lat="45.53132" lon="6.85669">
        <ele>3411.9</ele>
        <time>2021-03-30T10:13:43Z</time>
      </trkpt>
      <trkpt lat="45.53131" lon="6.8567">
        <ele>3411.9</ele>
        <time>2021-03-30T10:13:44Z</time>
      </trkpt>
      <trkpt lat="45.53131" lon="6.85671">
        <ele>3411.9</ele>
        <time>2021-03-30T10:13:45Z</time>
      </trkpt>
      <trkpt lat="45.5313" lon="6.85671">
        <ele>3414.7</ele>
        <time>2021-03-30T10:13:46Z</time>
      </trkpt>
      <trkpt lat="45.5313" lon="6.85671">
        <ele>3413</ele>
        <time>2021-03-30T10:13:47Z</time>
      </trkpt>
      <trkpt lat="45.5313" lon="6.85671">
        <ele>3413</ele>
        <time>2021-03-30T10:13:48Z</time>
      </trkpt>
      <trkpt lat="45.5313" lon="6.85671">
        <ele>3413</ele>
        <time>2021-03-30T10:13:49Z</time>
      </trkpt>
      <trkpt lat="45.53129" lon="6.8567">
        <ele>3413</ele>
        <time>2021-03-30T10:13:50Z</time>
      </trkpt>
      <trkpt lat="45.53129" lon="6.8567">
        <ele>3413</ele>
        <time>2021-03-30T10:13:51Z</time>
      </trkpt>
      <trkpt lat="45.53129" lon="6.8567">
        <ele>3413</ele>
        <time>2021-03-30T10:13:52Z</time>
      </trkpt>
      <trkpt lat="45.53129" lon="6.8567">
        <ele>3413</ele>
        <time>2021-03-30T10:13:53Z</time>
      </trkpt>
      <trkpt lat="45.53128" lon="6.85669">
        <ele>3413</ele>
        <time>2021-03-30T10:13:54Z</time>
      </trkpt>
      <trkpt lat="45.53128" lon="6.85669">
        <ele>3413</ele>
        <time>2021-03-30T10:13:55Z</time>
      </trkpt>
      <trkpt lat="45.53128" lon="6.85669">
        <ele>3413</ele>
        <time>2021-03-30T10:13:56Z</time>
      </trkpt>
      <trkpt lat="45.53127" lon="6.85669">
        <ele>3414</ele>
        <time>2021-03-30T10:13:58Z</time>
      </trkpt>
      <trkpt lat="45.53127" lon="6.85668">
        <ele>3414</ele>
        <time>2021-03-30T10:13:59Z</time>
      </trkpt>
      <trkpt lat="45.53127" lon="6.85668">
        <ele>3414</ele>
        <time>2021-03-30T10:14:00Z</time>
      </trkpt>
      <trkpt lat="45.53127" lon="6.85668">
        <ele>3414</ele>
        <time>2021-03-30T10:14:01Z</time>
      </trkpt>
      <trkpt lat="45.53126" lon="6.85668">
        <ele>3414</ele>
        <time>2021-03-30T10:14:02Z</time>
      </trkpt>
      <trkpt lat="45.53126" lon="6.85667">
        <ele>3414</ele>
        <time>2021-03-30T10:14:03Z</time>
      </trkpt>
      <trkpt lat="45.53126" lon="6.85667">
        <ele>3412.3</ele>
        <time>2021-03-30T10:14:04Z</time>
      </trkpt>
      <trkpt lat="45.53125" lon="6.85667">
        <ele>3412.3</ele>
        <time>2021-03-30T10:14:05Z</time>
      </trkpt>
      <trkpt lat="45.53125" lon="6.85667">
        <ele>3412.3</ele>
        <time>2021-03-30T10:14:06Z</time>
      </trkpt>
      <trkpt lat="45.53125" lon="6.85667">
        <ele>3412.3</ele>
        <time>2021-03-30T10:14:07Z</time>
      </trkpt>
      <trkpt lat="45.53124" lon="6.85667">
        <ele>3413.3</ele>
        <time>2021-03-30T10:14:08Z</time>
      </trkpt>
      <trkpt lat="45.53124" lon="6.85666">
        <ele>3413.3</ele>
        <time>2021-03-30T10:14:09Z</time>
      </trkpt>
      <trkpt lat="45.53123" lon="6.85666">
        <ele>3413.3</ele>
        <time>2021-03-30T10:14:10Z</time>
      </trkpt>
      <trkpt lat="45.53123" lon="6.85667">
        <ele>3413.3</ele>
        <time>2021-03-30T10:14:11Z</time>
      </trkpt>
      <trkpt lat="45.53122" lon="6.85667">
        <ele>3413.3</ele>
        <time>2021-03-30T10:14:12Z</time>
      </trkpt>
      <trkpt lat="45.53122" lon="6.85667">
        <ele>3413.3</ele>
        <time>2021-03-30T10:14:13Z</time>
      </trkpt>
      <trkpt lat="45.53121" lon="6.85666">
        <ele>3414.4</ele>
        <time>2021-03-30T10:14:14Z</time>
      </trkpt>
      <trkpt lat="45.53121" lon="6.85666">
        <ele>3414.4</ele>
        <time>2021-03-30T10:14:15Z</time>
      </trkpt>
      <trkpt lat="45.53121" lon="6.85666">
        <ele>3414.4</ele>
        <time>2021-03-30T10:14:16Z</time>
      </trkpt>
      <trkpt lat="45.5312" lon="6.85666">
        <ele>3414.4</ele>
        <time>2021-03-30T10:14:17Z</time>
      </trkpt>
      <trkpt lat="45.5312" lon="6.85665">
        <ele>3414.4</ele>
        <time>2021-03-30T10:14:18Z</time>
      </trkpt>
      <trkpt lat="45.53119" lon="6.85665">
        <ele>3414.4</ele>
        <time>2021-03-30T10:14:19Z</time>
      </trkpt>
      <trkpt lat="45.53119" lon="6.85665">
        <ele>3414.4</ele>
        <time>2021-03-30T10:14:20Z</time>
      </trkpt>
      <trkpt lat="45.53118" lon="6.85665">
        <ele>3415.6</ele>
        <time>2021-03-30T10:14:21Z</time>
      </trkpt>
      <trkpt lat="45.53118" lon="6.85665">
        <ele>3415.6</ele>
        <time>2021-03-30T10:14:22Z</time>
      </trkpt>
      <trkpt lat="45.53117" lon="6.85665">
        <ele>3415.6</ele>
        <time>2021-03-30T10:14:23Z</time>
      </trkpt>
      <trkpt lat="45.53117" lon="6.85665">
        <ele>3415.6</ele>
        <time>2021-03-30T10:14:24Z</time>
      </trkpt>
      <trkpt lat="45.53117" lon="6.85665">
        <ele>3415.6</ele>
        <time>2021-03-30T10:14:25Z</time>
      </trkpt>
      <trkpt lat="45.53117" lon="6.85665">
        <ele>3415.6</ele>
        <time>2021-03-30T10:14:26Z</time>
      </trkpt>
      <trkpt lat="45.53116" lon="6.85664">
        <ele>3415.6</ele>
        <time>2021-03-30T10:14:27Z</time>
      </trkpt>
      <trkpt lat="45.53116" lon="6.85664">
        <ele>3415.6</ele>
        <time>2021-03-30T10:14:28Z</time>
      </trkpt>
      <trkpt lat="45.53115" lon="6.85664">
        <ele>3417</ele>
        <time>2021-03-30T10:14:29Z</time>
      </trkpt>
      <trkpt lat="45.53115" lon="6.85664">
        <ele>3417</ele>
        <time>2021-03-30T10:14:30Z</time>
      </trkpt>
      <trkpt lat="45.53114" lon="6.85664">
        <ele>3417</ele>
        <time>2021-03-30T10:14:31Z</time>
      </trkpt>
      <trkpt lat="45.53114" lon="6.85664">
        <ele>3417</ele>
        <time>2021-03-30T10:14:32Z</time>
      </trkpt>
      <trkpt lat="45.53114" lon="6.85664">
        <ele>3417</ele>
        <time>2021-03-30T10:14:33Z</time>
      </trkpt>
      <trkpt lat="45.53113" lon="6.85663">
        <ele>3417</ele>
        <time>2021-03-30T10:14:34Z</time>
      </trkpt>
      <trkpt lat="45.53113" lon="6.85663">
        <ele>3417</ele>
        <time>2021-03-30T10:14:35Z</time>
      </trkpt>
      <trkpt lat="45.53112" lon="6.85663">
        <ele>3418.5</ele>
        <time>2021-03-30T10:14:36Z</time>
      </trkpt>
      <trkpt lat="45.53112" lon="6.85663">
        <ele>3418.5</ele>
        <time>2021-03-30T10:14:37Z</time>
      </trkpt>
      <trkpt lat="45.53112" lon="6.85663">
        <ele>3418.5</ele>
        <time>2021-03-30T10:14:38Z</time>
      </trkpt>
      <trkpt lat="45.53111" lon="6.85663">
        <ele>3416.7</ele>
        <time>2021-03-30T10:14:39Z</time>
      </trkpt>
      <trkpt lat="45.53111" lon="6.85662">
        <ele>3416.7</ele>
        <time>2021-03-30T10:14:40Z</time>
      </trkpt>
      <trkpt lat="45.5311" lon="6.85662">
        <ele>3416.7</ele>
        <time>2021-03-30T10:14:41Z</time>
      </trkpt>
      <trkpt lat="45.5311" lon="6.85662">
        <ele>3416.7</ele>
        <time>2021-03-30T10:14:42Z</time>
      </trkpt>
      <trkpt lat="45.53109" lon="6.85662">
        <ele>3418.2</ele>
        <time>2021-03-30T10:14:43Z</time>
      </trkpt>
      <trkpt lat="45.53109" lon="6.85662">
        <ele>3418.2</ele>
        <time>2021-03-30T10:14:44Z</time>
      </trkpt>
      <trkpt lat="45.53108" lon="6.85662">
        <ele>3418.2</ele>
        <time>2021-03-30T10:14:45Z</time>
      </trkpt>
      <trkpt lat="45.53108" lon="6.85662">
        <ele>3418.2</ele>
        <time>2021-03-30T10:14:46Z</time>
      </trkpt>
      <trkpt lat="45.53107" lon="6.85662">
        <ele>3418.2</ele>
        <time>2021-03-30T10:14:47Z</time>
      </trkpt>
      <trkpt lat="45.53106" lon="6.85661">
        <ele>3419.6</ele>
        <time>2021-03-30T10:14:48Z</time>
      </trkpt>
      <trkpt lat="45.53106" lon="6.85661">
        <ele>3419.6</ele>
        <time>2021-03-30T10:14:49Z</time>
      </trkpt>
      <trkpt lat="45.53105" lon="6.85661">
        <ele>3419.6</ele>
        <time>2021-03-30T10:14:50Z</time>
      </trkpt>
      <trkpt lat="45.53105" lon="6.85661">
        <ele>3419.6</ele>
        <time>2021-03-30T10:14:51Z</time>
      </trkpt>
      <trkpt lat="45.53104" lon="6.8566">
        <ele>3419.6</ele>
        <time>2021-03-30T10:14:52Z</time>
      </trkpt>
      <trkpt lat="45.53104" lon="6.8566">
        <ele>3419.6</ele>
        <time>2021-03-30T10:14:53Z</time>
      </trkpt>
      <trkpt lat="45.53103" lon="6.85659">
        <ele>3421</ele>
        <time>2021-03-30T10:14:54Z</time>
      </trkpt>
      <trkpt lat="45.53103" lon="6.85659">
        <ele>3421</ele>
        <time>2021-03-30T10:14:55Z</time>
      </trkpt>
      <trkpt lat="45.53102" lon="6.85659">
        <ele>3421</ele>
        <time>2021-03-30T10:14:56Z</time>
      </trkpt>
      <trkpt lat="45.53102" lon="6.85659">
        <ele>3421</ele>
        <time>2021-03-30T10:14:57Z</time>
      </trkpt>
      <trkpt lat="45.53101" lon="6.85659">
        <ele>3421</ele>
        <time>2021-03-30T10:14:58Z</time>
      </trkpt>
      <trkpt lat="45.53101" lon="6.85659">
        <ele>3421</ele>
        <time>2021-03-30T10:14:59Z</time>
      </trkpt>
      <trkpt lat="45.531" lon="6.85659">
        <ele>3422.3</ele>
        <time>2021-03-30T10:15:00Z</time>
      </trkpt>
      <trkpt lat="45.531" lon="6.85659">
        <ele>3422.3</ele>
        <time>2021-03-30T10:15:01Z</time>
      </trkpt>
      <trkpt lat="45.53099" lon="6.85658">
        <ele>3420.6</ele>
        <time>2021-03-30T10:15:02Z</time>
      </trkpt>
      <trkpt lat="45.53099" lon="6.85658">
        <ele>3420.6</ele>
        <time>2021-03-30T10:15:03Z</time>
      </trkpt>
      <trkpt lat="45.53098" lon="6.85657">
        <ele>3420.6</ele>
        <time>2021-03-30T10:15:04Z</time>
      </trkpt>
      <trkpt lat="45.53098" lon="6.85657">
        <ele>3420.6</ele>
        <time>2021-03-30T10:15:05Z</time>
      </trkpt>
      <trkpt lat="45.53098" lon="6.85656">
        <ele>3420.6</ele>
        <time>2021-03-30T10:15:06Z</time>
      </trkpt>
      <trkpt lat="45.53098" lon="6.85656">
        <ele>3420.6</ele>
        <time>2021-03-30T10:15:07Z</time>
      </trkpt>
      <trkpt lat="45.53097" lon="6.85656">
        <ele>3421.9</ele>
        <time>2021-03-30T10:15:08Z</time>
      </trkpt>
      <trkpt lat="45.53097" lon="6.85655">
        <ele>3421.9</ele>
        <time>2021-03-30T10:15:09Z</time>
      </trkpt>
      <trkpt lat="45.53097" lon="6.85655">
        <ele>3421.9</ele>
        <time>2021-03-30T10:15:10Z</time>
      </trkpt>
      <trkpt lat="45.53096" lon="6.85655">
        <ele>3421.9</ele>
        <time>2021-03-30T10:15:11Z</time>
      </trkpt>
      <trkpt lat="45.53096" lon="6.85655">
        <ele>3421.9</ele>
        <time>2021-03-30T10:15:12Z</time>
      </trkpt>
      <trkpt lat="45.53096" lon="6.85654">
        <ele>3420.3</ele>
        <time>2021-03-30T10:15:13Z</time>
      </trkpt>
      <trkpt lat="45.53096" lon="6.85654">
        <ele>3420.3</ele>
        <time>2021-03-30T10:15:14Z</time>
      </trkpt>
      <trkpt lat="45.53095" lon="6.85653">
        <ele>3420.3</ele>
        <time>2021-03-30T10:15:15Z</time>
      </trkpt>
      <trkpt lat="45.53095" lon="6.85653">
        <ele>3420.3</ele>
        <time>2021-03-30T10:15:16Z</time>
      </trkpt>
      <trkpt lat="45.53095" lon="6.85653">
        <ele>3420.3</ele>
        <time>2021-03-30T10:15:17Z</time>
      </trkpt>
      <trkpt lat="45.53095" lon="6.85653">
        <ele>3420.3</ele>
        <time>2021-03-30T10:15:18Z</time>
      </trkpt>
      <trkpt lat="45.53094" lon="6.85652">
        <ele>3421.7</ele>
        <time>2021-03-30T10:15:19Z</time>
      </trkpt>
      <trkpt lat="45.53094" lon="6.85652">
        <ele>3421.7</ele>
        <time>2021-03-30T10:15:20Z</time>
      </trkpt>
      <trkpt lat="45.53093" lon="6.85652">
        <ele>3421.7</ele>
        <time>2021-03-30T10:15:21Z</time>
      </trkpt>
      <trkpt lat="45.53093" lon="6.85652">
        <ele>3421.7</ele>
        <time>2021-03-30T10:15:22Z</time>
      </trkpt>
      <trkpt lat="45.53092" lon="6.85653">
        <ele>3421.7</ele>
        <time>2021-03-30T10:15:23Z</time>
      </trkpt>
      <trkpt lat="45.53092" lon="6.85653">
        <ele>3421.7</ele>
        <time>2021-03-30T10:15:24Z</time>
      </trkpt>
      <trkpt lat="45.53091" lon="6.85654">
        <ele>3421.7</ele>
        <time>2021-03-30T10:15:25Z</time>
      </trkpt>
      <trkpt lat="45.53091" lon="6.85655">
        <ele>3424.9</ele>
        <time>2021-03-30T10:15:26Z</time>
      </trkpt>
      <trkpt lat="45.53091" lon="6.85655">
        <ele>3424.9</ele>
        <time>2021-03-30T10:15:27Z</time>
      </trkpt>
      <trkpt lat="45.53091" lon="6.85656">
        <ele>3424.9</ele>
        <time>2021-03-30T10:15:28Z</time>
      </trkpt>
      <trkpt lat="45.53091" lon="6.85657">
        <ele>3424.9</ele>
        <time>2021-03-30T10:15:29Z</time>
      </trkpt>
      <trkpt lat="45.5309" lon="6.85657">
        <ele>3424.9</ele>
        <time>2021-03-30T10:15:30Z</time>
      </trkpt>
      <trkpt lat="45.5309" lon="6.85658">
        <ele>3424.9</ele>
        <time>2021-03-30T10:15:31Z</time>
      </trkpt>
      <trkpt lat="45.5309" lon="6.85659">
        <ele>3426.7</ele>
        <time>2021-03-30T10:15:32Z</time>
      </trkpt>
      <trkpt lat="45.5309" lon="6.85659">
        <ele>3426.7</ele>
        <time>2021-03-30T10:15:33Z</time>
      </trkpt>
      <trkpt lat="45.5309" lon="6.8566">
        <ele>3426.7</ele>
        <time>2021-03-30T10:15:45Z</time>
      </trkpt>
      <trkpt lat="45.5309" lon="6.85661">
        <ele>3426.7</ele>
        <time>2021-03-30T10:15:46Z</time>
      </trkpt>
      <trkpt lat="45.53089" lon="6.85661">
        <ele>3426.7</ele>
        <time>2021-03-30T10:15:47Z</time>
      </trkpt>
      <trkpt lat="45.53089" lon="6.85662">
        <ele>3426.7</ele>
        <time>2021-03-30T10:15:48Z</time>
      </trkpt>
      <trkpt lat="45.53089" lon="6.85663">
        <ele>3426.7</ele>
        <time>2021-03-30T10:15:49Z</time>
      </trkpt>
      <trkpt lat="45.53089" lon="6.85663">
        <ele>3428.5</ele>
        <time>2021-03-30T10:15:50Z</time>
      </trkpt>
      <trkpt lat="45.53088" lon="6.85664">
        <ele>3430.1</ele>
        <time>2021-03-30T10:15:51Z</time>
      </trkpt>
      <trkpt lat="45.53088" lon="6.85665">
        <ele>3430.1</ele>
        <time>2021-03-30T10:15:52Z</time>
      </trkpt>
      <trkpt lat="45.53088" lon="6.85667">
        <ele>3430.1</ele>
        <time>2021-03-30T10:15:53Z</time>
      </trkpt>
      <trkpt lat="45.53088" lon="6.85668">
        <ele>3432</ele>
        <time>2021-03-30T10:15:54Z</time>
      </trkpt>
      <trkpt lat="45.53088" lon="6.85669">
        <ele>3432</ele>
        <time>2021-03-30T10:15:55Z</time>
      </trkpt>
      <trkpt lat="45.53088" lon="6.8567">
        <ele>3432</ele>
        <time>2021-03-30T10:15:56Z</time>
      </trkpt>
      <trkpt lat="45.53088" lon="6.8567">
        <ele>3432</ele>
        <time>2021-03-30T10:15:57Z</time>
      </trkpt>
      <trkpt lat="45.53089" lon="6.85671">
        <ele>3430.4</ele>
        <time>2021-03-30T10:15:58Z</time>
      </trkpt>
      <trkpt lat="45.53089" lon="6.85672">
        <ele>3432.2</ele>
        <time>2021-03-30T10:15:59Z</time>
      </trkpt>
      <trkpt lat="45.53089" lon="6.85673">
        <ele>3432.2</ele>
        <time>2021-03-30T10:16:00Z</time>
      </trkpt>
      <trkpt lat="45.53089" lon="6.85674">
        <ele>3432.2</ele>
        <time>2021-03-30T10:16:01Z</time>
      </trkpt>
      <trkpt lat="45.53089" lon="6.85675">
        <ele>3432.2</ele>
        <time>2021-03-30T10:16:02Z</time>
      </trkpt>
      <trkpt lat="45.5309" lon="6.85676">
        <ele>3433.9</ele>
        <time>2021-03-30T10:16:03Z</time>
      </trkpt>
      <trkpt lat="45.5309" lon="6.85677">
        <ele>3433.9</ele>
        <time>2021-03-30T10:16:04Z</time>
      </trkpt>
      <trkpt lat="45.5309" lon="6.85677">
        <ele>3433.9</ele>
        <time>2021-03-30T10:16:05Z</time>
      </trkpt>
      <trkpt lat="45.5309" lon="6.85678">
        <ele>3433.9</ele>
        <time>2021-03-30T10:16:06Z</time>
      </trkpt>
      <trkpt lat="45.5309" lon="6.85679">
        <ele>3433.9</ele>
        <time>2021-03-30T10:16:07Z</time>
      </trkpt>
      <trkpt lat="45.5309" lon="6.8568">
        <ele>3435.6</ele>
        <time>2021-03-30T10:16:08Z</time>
      </trkpt>
      <trkpt lat="45.5309" lon="6.85681">
        <ele>3435.6</ele>
        <time>2021-03-30T10:16:09Z</time>
      </trkpt>
      <trkpt lat="45.5309" lon="6.85682">
        <ele>3435.6</ele>
        <time>2021-03-30T10:16:10Z</time>
      </trkpt>
      <trkpt lat="45.5309" lon="6.85682">
        <ele>3435.6</ele>
        <time>2021-03-30T10:16:11Z</time>
      </trkpt>
      <trkpt lat="45.53091" lon="6.85683">
        <ele>3435.6</ele>
        <time>2021-03-30T10:16:12Z</time>
      </trkpt>
      <trkpt lat="45.53091" lon="6.85684">
        <ele>3435.6</ele>
        <time>2021-03-30T10:16:13Z</time>
      </trkpt>
      <trkpt lat="45.53091" lon="6.85685">
        <ele>3437.1</ele>
        <time>2021-03-30T10:16:14Z</time>
      </trkpt>
      <trkpt lat="45.53091" lon="6.85685">
        <ele>3437.1</ele>
        <time>2021-03-30T10:16:15Z</time>
      </trkpt>
      <trkpt lat="45.53091" lon="6.85686">
        <ele>3437.1</ele>
        <time>2021-03-30T10:16:16Z</time>
      </trkpt>
      <trkpt lat="45.53091" lon="6.85687">
        <ele>3437.1</ele>
        <time>2021-03-30T10:16:17Z</time>
      </trkpt>
      <trkpt lat="45.53091" lon="6.85687">
        <ele>3437.1</ele>
        <time>2021-03-30T10:16:18Z</time>
      </trkpt>
      <trkpt lat="45.53091" lon="6.85688">
        <ele>3437.1</ele>
        <time>2021-03-30T10:16:19Z</time>
      </trkpt>
      <trkpt lat="45.5309" lon="6.85689">
        <ele>3438.7</ele>
        <time>2021-03-30T10:16:20Z</time>
      </trkpt>
      <trkpt lat="45.53091" lon="6.8569">
        <ele>3438.7</ele>
        <time>2021-03-30T10:16:21Z</time>
      </trkpt>
      <trkpt lat="45.53091" lon="6.8569">
        <ele>3438.7</ele>
        <time>2021-03-30T10:16:22Z</time>
      </trkpt>
      <trkpt lat="45.53091" lon="6.85691">
        <ele>3438.7</ele>
        <time>2021-03-30T10:16:23Z</time>
      </trkpt>
      <trkpt lat="45.53091" lon="6.85692">
        <ele>3438.7</ele>
        <time>2021-03-30T10:16:24Z</time>
      </trkpt>
      <trkpt lat="45.53091" lon="6.85693">
        <ele>3440.2</ele>
        <time>2021-03-30T10:16:25Z</time>
      </trkpt>
      <trkpt lat="45.53091" lon="6.85694">
        <ele>3440.2</ele>
        <time>2021-03-30T10:16:26Z</time>
      </trkpt>
      <trkpt lat="45.53091" lon="6.85695">
        <ele>3438.5</ele>
        <time>2021-03-30T10:16:27Z</time>
      </trkpt>
      <trkpt lat="45.53092" lon="6.85696">
        <ele>3438.5</ele>
        <time>2021-03-30T10:16:28Z</time>
      </trkpt>
      <trkpt lat="45.53092" lon="6.85697">
        <ele>3438.5</ele>
        <time>2021-03-30T10:16:29Z</time>
      </trkpt>
      <trkpt lat="45.53092" lon="6.85697">
        <ele>3440.1</ele>
        <time>2021-03-30T10:16:30Z</time>
      </trkpt>
      <trkpt lat="45.53092" lon="6.85698">
        <ele>3440.1</ele>
        <time>2021-03-30T10:16:31Z</time>
      </trkpt>
      <trkpt lat="45.53092" lon="6.85699">
        <ele>3440.1</ele>
        <time>2021-03-30T10:16:32Z</time>
      </trkpt>
      <trkpt lat="45.53092" lon="6.857">
        <ele>3440.1</ele>
        <time>2021-03-30T10:16:33Z</time>
      </trkpt>
      <trkpt lat="45.53093" lon="6.85701">
        <ele>3440.1</ele>
        <time>2021-03-30T10:16:34Z</time>
      </trkpt>
      <trkpt lat="45.53093" lon="6.85702">
        <ele>3441.8</ele>
        <time>2021-03-30T10:16:35Z</time>
      </trkpt>
      <trkpt lat="45.53093" lon="6.85702">
        <ele>3441.8</ele>
        <time>2021-03-30T10:16:36Z</time>
      </trkpt>
      <trkpt lat="45.53094" lon="6.85703">
        <ele>3441.8</ele>
        <time>2021-03-30T10:16:37Z</time>
      </trkpt>
      <trkpt lat="45.53094" lon="6.85703">
        <ele>3441.8</ele>
        <time>2021-03-30T10:16:38Z</time>
      </trkpt>
      <trkpt lat="45.53094" lon="6.85704">
        <ele>3441.8</ele>
        <time>2021-03-30T10:16:39Z</time>
      </trkpt>
      <trkpt lat="45.53094" lon="6.85705">
        <ele>3441.8</ele>
        <time>2021-03-30T10:16:40Z</time>
      </trkpt>
      <trkpt lat="45.53095" lon="6.85705">
        <ele>3440.2</ele>
        <time>2021-03-30T10:16:41Z</time>
      </trkpt>
      <trkpt lat="45.53095" lon="6.85706">
        <ele>3441.9</ele>
        <time>2021-03-30T10:16:42Z</time>
      </trkpt>
      <trkpt lat="45.53095" lon="6.85707">
        <ele>3441.9</ele>
        <time>2021-03-30T10:16:43Z</time>
      </trkpt>
      <trkpt lat="45.53095" lon="6.85708">
        <ele>3441.9</ele>
        <time>2021-03-30T10:16:44Z</time>
      </trkpt>
      <trkpt lat="45.53095" lon="6.85708">
        <ele>3441.9</ele>
        <time>2021-03-30T10:16:45Z</time>
      </trkpt>
      <trkpt lat="45.53095" lon="6.85708">
        <ele>3441.9</ele>
        <time>2021-03-30T10:16:46Z</time>
      </trkpt>
      <trkpt lat="45.53095" lon="6.85707">
        <ele>3441.9</ele>
        <time>2021-03-30T10:16:47Z</time>
      </trkpt>
      <trkpt lat="45.53094" lon="6.85707">
        <ele>3443.6</ele>
        <time>2021-03-30T10:16:48Z</time>
      </trkpt>
      <trkpt lat="45.53094" lon="6.85706">
        <ele>3443.6</ele>
        <time>2021-03-30T10:16:49Z</time>
      </trkpt>
      <trkpt lat="45.53094" lon="6.85706">
        <ele>3443.6</ele>
        <time>2021-03-30T10:16:50Z</time>
      </trkpt>
      <trkpt lat="45.53094" lon="6.85706">
        <ele>3441.8</ele>
        <time>2021-03-30T10:16:51Z</time>
      </trkpt>
      <trkpt lat="45.53094" lon="6.85705">
        <ele>3441.8</ele>
        <time>2021-03-30T10:16:52Z</time>
      </trkpt>
      <trkpt lat="45.53093" lon="6.85705">
        <ele>3441.8</ele>
        <time>2021-03-30T10:16:53Z</time>
      </trkpt>
      <trkpt lat="45.53093" lon="6.85705">
        <ele>3441.8</ele>
        <time>2021-03-30T10:16:54Z</time>
      </trkpt>
      <trkpt lat="45.53093" lon="6.85704">
        <ele>3441.8</ele>
        <time>2021-03-30T10:16:55Z</time>
      </trkpt>
      <trkpt lat="45.53093" lon="6.85704">
        <ele>3441.8</ele>
        <time>2021-03-30T10:17:00Z</time>
      </trkpt>
      <trkpt lat="45.53092" lon="6.85703">
        <ele>3441.8</ele>
        <time>2021-03-30T10:17:01Z</time>
      </trkpt>
      <trkpt lat="45.53092" lon="6.85703">
        <ele>3441.8</ele>
        <time>2021-03-30T10:17:02Z</time>
      </trkpt>
      <trkpt lat="45.53092" lon="6.85703">
        <ele>3441.8</ele>
        <time>2021-03-30T10:17:03Z</time>
      </trkpt>
      <trkpt lat="45.53092" lon="6.85702">
        <ele>3441.8</ele>
        <time>2021-03-30T10:17:04Z</time>
      </trkpt>
      <trkpt lat="45.53092" lon="6.85702">
        <ele>3441.8</ele>
        <time>2021-03-30T10:17:05Z</time>
      </trkpt>
      <trkpt lat="45.53091" lon="6.85701">
        <ele>3443.6</ele>
        <time>2021-03-30T10:17:06Z</time>
      </trkpt>
      <trkpt lat="45.53091" lon="6.85701">
        <ele>3441.9</ele>
        <time>2021-03-30T10:17:07Z</time>
      </trkpt>
      <trkpt lat="45.53091" lon="6.85701">
        <ele>3441.9</ele>
        <time>2021-03-30T10:17:08Z</time>
      </trkpt>
      <trkpt lat="45.5309" lon="6.857">
        <ele>3441.9</ele>
        <time>2021-03-30T10:17:09Z</time>
      </trkpt>
      <trkpt lat="45.5309" lon="6.857">
        <ele>3441.9</ele>
        <time>2021-03-30T10:17:10Z</time>
      </trkpt>
      <trkpt lat="45.5309" lon="6.857">
        <ele>3441.9</ele>
        <time>2021-03-30T10:17:11Z</time>
      </trkpt>
      <trkpt lat="45.53089" lon="6.857">
        <ele>3441.9</ele>
        <time>2021-03-30T10:17:12Z</time>
      </trkpt>
      <trkpt lat="45.53089" lon="6.85699">
        <ele>3441.9</ele>
        <time>2021-03-30T10:17:13Z</time>
      </trkpt>
      <trkpt lat="45.53089" lon="6.85699">
        <ele>3441.9</ele>
        <time>2021-03-30T10:17:14Z</time>
      </trkpt>
      <trkpt lat="45.53089" lon="6.85698">
        <ele>3441.9</ele>
        <time>2021-03-30T10:17:15Z</time>
      </trkpt>
      <trkpt lat="45.53089" lon="6.85698">
        <ele>3441.9</ele>
        <time>2021-03-30T10:17:16Z</time>
      </trkpt>
      <trkpt lat="45.53088" lon="6.85698">
        <ele>3443.7</ele>
        <time>2021-03-30T10:17:17Z</time>
      </trkpt>
      <trkpt lat="45.53088" lon="6.85697">
        <ele>3442</ele>
        <time>2021-03-30T10:17:18Z</time>
      </trkpt>
      <trkpt lat="45.53087" lon="6.85696">
        <ele>3442</ele>
        <time>2021-03-30T10:17:19Z</time>
      </trkpt>
      <trkpt lat="45.53087" lon="6.85696">
        <ele>3442</ele>
        <time>2021-03-30T10:17:20Z</time>
      </trkpt>
      <trkpt lat="45.53087" lon="6.85696">
        <ele>3442</ele>
        <time>2021-03-30T10:17:21Z</time>
      </trkpt>
      <trkpt lat="45.53086" lon="6.85695">
        <ele>3442</ele>
        <time>2021-03-30T10:17:22Z</time>
      </trkpt>
      <trkpt lat="45.53086" lon="6.85695">
        <ele>3442</ele>
        <time>2021-03-30T10:17:23Z</time>
      </trkpt>
      <trkpt lat="45.53086" lon="6.85694">
        <ele>3442</ele>
        <time>2021-03-30T10:17:24Z</time>
      </trkpt>
      <trkpt lat="45.53086" lon="6.85694">
        <ele>3442</ele>
        <time>2021-03-30T10:17:25Z</time>
      </trkpt>
      <trkpt lat="45.53085" lon="6.85693">
        <ele>3443.8</ele>
        <time>2021-03-30T10:17:26Z</time>
      </trkpt>
      <trkpt lat="45.53085" lon="6.85693">
        <ele>3443.8</ele>
        <time>2021-03-30T10:17:27Z</time>
      </trkpt>
      <trkpt lat="45.53082" lon="6.8569">
        <ele>3444</ele>
        <time>2021-03-30T10:17:28Z</time>
      </trkpt>
      <trkpt lat="45.5308" lon="6.85688">
        <ele>3442.4</ele>
        <time>2021-03-30T10:18:04Z</time>
      </trkpt>
      <trkpt lat="45.53078" lon="6.85686">
        <ele>3444.2</ele>
        <time>2021-03-30T10:18:05Z</time>
      </trkpt>
      <trkpt lat="45.53076" lon="6.85684">
        <ele>3444.2</ele>
        <time>2021-03-30T10:18:06Z</time>
      </trkpt>
      <trkpt lat="45.53073" lon="6.85681">
        <ele>3446</ele>
        <time>2021-03-30T10:18:07Z</time>
      </trkpt>
      <trkpt lat="45.53071" lon="6.85679">
        <ele>3444.2</ele>
        <time>2021-03-30T10:18:08Z</time>
      </trkpt>
      <trkpt lat="45.53069" lon="6.85677">
        <ele>3445.9</ele>
        <time>2021-03-30T10:18:09Z</time>
      </trkpt>
      <trkpt lat="45.53068" lon="6.85677">
        <ele>3445.9</ele>
        <time>2021-03-30T10:18:10Z</time>
      </trkpt>
      <trkpt lat="45.53068" lon="6.85676">
        <ele>3445.9</ele>
        <time>2021-03-30T10:18:11Z</time>
      </trkpt>
      <trkpt lat="45.53067" lon="6.85676">
        <ele>3447.6</ele>
        <time>2021-03-30T10:18:12Z</time>
      </trkpt>
      <trkpt lat="45.53067" lon="6.85676">
        <ele>3447.6</ele>
        <time>2021-03-30T10:18:13Z</time>
      </trkpt>
      <trkpt lat="45.53066" lon="6.85676">
        <ele>3445.8</ele>
        <time>2021-03-30T10:18:14Z</time>
      </trkpt>
      <trkpt lat="45.53066" lon="6.85675">
        <ele>3445.8</ele>
        <time>2021-03-30T10:18:15Z</time>
      </trkpt>
      <trkpt lat="45.53065" lon="6.85675">
        <ele>3445.8</ele>
        <time>2021-03-30T10:18:16Z</time>
      </trkpt>
      <trkpt lat="45.53065" lon="6.85675">
        <ele>3445.8</ele>
        <time>2021-03-30T10:18:17Z</time>
      </trkpt>
      <trkpt lat="45.53065" lon="6.85674">
        <ele>3445.8</ele>
        <time>2021-03-30T10:18:18Z</time>
      </trkpt>
      <trkpt lat="45.53064" lon="6.85674">
        <ele>3447.5</ele>
        <time>2021-03-30T10:18:19Z</time>
      </trkpt>
      <trkpt lat="45.53064" lon="6.85674">
        <ele>3447.5</ele>
        <time>2021-03-30T10:18:20Z</time>
      </trkpt>
      <trkpt lat="45.53063" lon="6.85674">
        <ele>3447.5</ele>
        <time>2021-03-30T10:18:21Z</time>
      </trkpt>
      <trkpt lat="45.53063" lon="6.85674">
        <ele>3447.5</ele>
        <time>2021-03-30T10:18:22Z</time>
      </trkpt>
      <trkpt lat="45.53062" lon="6.85674">
        <ele>3447.5</ele>
        <time>2021-03-30T10:18:23Z</time>
      </trkpt>
      <trkpt lat="45.53062" lon="6.85673">
        <ele>3447.5</ele>
        <time>2021-03-30T10:18:24Z</time>
      </trkpt>
      <trkpt lat="45.53062" lon="6.85673">
        <ele>3447.5</ele>
        <time>2021-03-30T10:18:25Z</time>
      </trkpt>
      <trkpt lat="45.53061" lon="6.85673">
        <ele>3449.3</ele>
        <time>2021-03-30T10:18:26Z</time>
      </trkpt>
      <trkpt lat="45.53061" lon="6.85673">
        <ele>3449.3</ele>
        <time>2021-03-30T10:18:27Z</time>
      </trkpt>
      <trkpt lat="45.5306" lon="6.85672">
        <ele>3449.3</ele>
        <time>2021-03-30T10:18:28Z</time>
      </trkpt>
      <trkpt lat="45.5306" lon="6.85673">
        <ele>3449.3</ele>
        <time>2021-03-30T10:18:29Z</time>
      </trkpt>
      <trkpt lat="45.53059" lon="6.85674">
        <ele>3449.3</ele>
        <time>2021-03-30T10:18:30Z</time>
      </trkpt>
      <trkpt lat="45.53059" lon="6.85675">
        <ele>3449.3</ele>
        <time>2021-03-30T10:19:26Z</time>
      </trkpt>
      <trkpt lat="45.53058" lon="6.85676">
        <ele>3453.1</ele>
        <time>2021-03-30T10:19:27Z</time>
      </trkpt>
      <trkpt lat="45.53058" lon="6.85677">
        <ele>3453.1</ele>
        <time>2021-03-30T10:19:28Z</time>
      </trkpt>
      <trkpt lat="45.53057" lon="6.85679">
        <ele>3453.1</ele>
        <time>2021-03-30T10:19:29Z</time>
      </trkpt>
      <trkpt lat="45.53057" lon="6.85679">
        <ele>3453.1</ele>
        <time>2021-03-30T10:19:30Z</time>
      </trkpt>
      <trkpt lat="45.53057" lon="6.8568">
        <ele>3454.9</ele>
        <time>2021-03-30T10:19:31Z</time>
      </trkpt>
      <trkpt lat="45.53057" lon="6.85681">
        <ele>3454.9</ele>
        <time>2021-03-30T10:19:32Z</time>
      </trkpt>
      <trkpt lat="45.53056" lon="6.85682">
        <ele>3454.9</ele>
        <time>2021-03-30T10:19:33Z</time>
      </trkpt>
      <trkpt lat="45.53056" lon="6.85683">
        <ele>3454.9</ele>
        <time>2021-03-30T10:19:34Z</time>
      </trkpt>
      <trkpt lat="45.53056" lon="6.85684">
        <ele>3454.9</ele>
        <time>2021-03-30T10:19:35Z</time>
      </trkpt>
      <trkpt lat="45.53056" lon="6.85685">
        <ele>3456.7</ele>
        <time>2021-03-30T10:19:36Z</time>
      </trkpt>
      <trkpt lat="45.53056" lon="6.85685">
        <ele>3456.7</ele>
        <time>2021-03-30T10:19:37Z</time>
      </trkpt>
      <trkpt lat="45.53056" lon="6.85686">
        <ele>3456.7</ele>
        <time>2021-03-30T10:19:38Z</time>
      </trkpt>
      <trkpt lat="45.53056" lon="6.85687">
        <ele>3456.7</ele>
        <time>2021-03-30T10:19:39Z</time>
      </trkpt>
      <trkpt lat="45.53056" lon="6.85688">
        <ele>3456.7</ele>
        <time>2021-03-30T10:19:40Z</time>
      </trkpt>
      <trkpt lat="45.53056" lon="6.85689">
        <ele>3458.5</ele>
        <time>2021-03-30T10:19:41Z</time>
      </trkpt>
      <trkpt lat="45.53056" lon="6.8569">
        <ele>3458.5</ele>
        <time>2021-03-30T10:19:42Z</time>
      </trkpt>
      <trkpt lat="45.53056" lon="6.85691">
        <ele>3458.5</ele>
        <time>2021-03-30T10:19:43Z</time>
      </trkpt>
      <trkpt lat="45.53056" lon="6.85691">
        <ele>3458.5</ele>
        <time>2021-03-30T10:19:44Z</time>
      </trkpt>
      <trkpt lat="45.53056" lon="6.85692">
        <ele>3458.5</ele>
        <time>2021-03-30T10:19:45Z</time>
      </trkpt>
      <trkpt lat="45.53056" lon="6.85693">
        <ele>3460.4</ele>
        <time>2021-03-30T10:19:46Z</time>
      </trkpt>
      <trkpt lat="45.53056" lon="6.85694">
        <ele>3460.4</ele>
        <time>2021-03-30T10:19:47Z</time>
      </trkpt>
      <trkpt lat="45.53056" lon="6.85695">
        <ele>3460.4</ele>
        <time>2021-03-30T10:19:48Z</time>
      </trkpt>
      <trkpt lat="45.53056" lon="6.85695">
        <ele>3460.4</ele>
        <time>2021-03-30T10:19:49Z</time>
      </trkpt>
      <trkpt lat="45.53057" lon="6.85696">
        <ele>3460.4</ele>
        <time>2021-03-30T10:19:50Z</time>
      </trkpt>
      <trkpt lat="45.53057" lon="6.85697">
        <ele>3460.4</ele>
        <time>2021-03-30T10:19:51Z</time>
      </trkpt>
      <trkpt lat="45.53057" lon="6.85698">
        <ele>3462.4</ele>
        <time>2021-03-30T10:19:52Z</time>
      </trkpt>
      <trkpt lat="45.53056" lon="6.85698">
        <ele>3462.4</ele>
        <time>2021-03-30T10:19:53Z</time>
      </trkpt>
      <trkpt lat="45.53056" lon="6.85699">
        <ele>3462.4</ele>
        <time>2021-03-30T10:19:54Z</time>
      </trkpt>
      <trkpt lat="45.53056" lon="6.85699">
        <ele>3462.4</ele>
        <time>2021-03-30T10:19:55Z</time>
      </trkpt>
      <trkpt lat="45.53056" lon="6.857">
        <ele>3462.4</ele>
        <time>2021-03-30T10:19:56Z</time>
      </trkpt>
      <trkpt lat="45.53056" lon="6.85701">
        <ele>3462.4</ele>
        <time>2021-03-30T10:19:57Z</time>
      </trkpt>
      <trkpt lat="45.53056" lon="6.85702">
        <ele>3464.4</ele>
        <time>2021-03-30T10:19:58Z</time>
      </trkpt>
      <trkpt lat="45.53056" lon="6.85702">
        <ele>3464.4</ele>
        <time>2021-03-30T10:19:59Z</time>
      </trkpt>
      <trkpt lat="45.53056" lon="6.85703">
        <ele>3464.4</ele>
        <time>2021-03-30T10:20:00Z</time>
      </trkpt>
      <trkpt lat="45.53057" lon="6.85704">
        <ele>3464.4</ele>
        <time>2021-03-30T10:20:01Z</time>
      </trkpt>
      <trkpt lat="45.53056" lon="6.85705">
        <ele>3464.4</ele>
        <time>2021-03-30T10:20:02Z</time>
      </trkpt>
      <trkpt lat="45.53056" lon="6.85706">
        <ele>3466.5</ele>
        <time>2021-03-30T10:20:03Z</time>
      </trkpt>
      <trkpt lat="45.53056" lon="6.85707">
        <ele>3466.5</ele>
        <time>2021-03-30T10:20:04Z</time>
      </trkpt>
      <trkpt lat="45.53056" lon="6.85707">
        <ele>3466.5</ele>
        <time>2021-03-30T10:20:05Z</time>
      </trkpt>
      <trkpt lat="45.53055" lon="6.85707">
        <ele>3468.6</ele>
        <time>2021-03-30T10:20:06Z</time>
      </trkpt>
      <trkpt lat="45.53055" lon="6.85706">
        <ele>3468.6</ele>
        <time>2021-03-30T10:20:07Z</time>
      </trkpt>
      <trkpt lat="45.53054" lon="6.85705">
        <ele>3466.4</ele>
        <time>2021-03-30T10:20:08Z</time>
      </trkpt>
      <trkpt lat="45.53054" lon="6.85704">
        <ele>3466.4</ele>
        <time>2021-03-30T10:20:09Z</time>
      </trkpt>
      <trkpt lat="45.53053" lon="6.85704">
        <ele>3466.4</ele>
        <time>2021-03-30T10:20:10Z</time>
      </trkpt>
      <trkpt lat="45.53053" lon="6.85703">
        <ele>3466.4</ele>
        <time>2021-03-30T10:20:11Z</time>
      </trkpt>
      <trkpt lat="45.53053" lon="6.85702">
        <ele>3466.4</ele>
        <time>2021-03-30T10:20:12Z</time>
      </trkpt>
      <trkpt lat="45.53052" lon="6.85701">
        <ele>3466.4</ele>
        <time>2021-03-30T10:20:13Z</time>
      </trkpt>
      <trkpt lat="45.53052" lon="6.857">
        <ele>3466.4</ele>
        <time>2021-03-30T10:20:14Z</time>
      </trkpt>
      <trkpt lat="45.53051" lon="6.857">
        <ele>3466.4</ele>
        <time>2021-03-30T10:20:22Z</time>
      </trkpt>
      <trkpt lat="45.53051" lon="6.85699">
        <ele>3466.4</ele>
        <time>2021-03-30T10:20:23Z</time>
      </trkpt>
      <trkpt lat="45.5305" lon="6.85698">
        <ele>3466.4</ele>
        <time>2021-03-30T10:20:24Z</time>
      </trkpt>
      <trkpt lat="45.5305" lon="6.85697">
        <ele>3466.4</ele>
        <time>2021-03-30T10:20:25Z</time>
      </trkpt>
      <trkpt lat="45.53049" lon="6.85696">
        <ele>3466.4</ele>
        <time>2021-03-30T10:20:26Z</time>
      </trkpt>
      <trkpt lat="45.53049" lon="6.85696">
        <ele>3466.4</ele>
        <time>2021-03-30T10:20:27Z</time>
      </trkpt>
      <trkpt lat="45.53048" lon="6.85695">
        <ele>3466.4</ele>
        <time>2021-03-30T10:20:28Z</time>
      </trkpt>
      <trkpt lat="45.53048" lon="6.85694">
        <ele>3466.4</ele>
        <time>2021-03-30T10:20:29Z</time>
      </trkpt>
      <trkpt lat="45.53047" lon="6.85693">
        <ele>3466.4</ele>
        <time>2021-03-30T10:20:30Z</time>
      </trkpt>
      <trkpt lat="45.53047" lon="6.85692">
        <ele>3464.6</ele>
        <time>2021-03-30T10:20:31Z</time>
      </trkpt>
      <trkpt lat="45.53046" lon="6.85692">
        <ele>3464.6</ele>
        <time>2021-03-30T10:21:01Z</time>
      </trkpt>
      <trkpt lat="45.53046" lon="6.85691">
        <ele>3466.4</ele>
        <time>2021-03-30T10:21:02Z</time>
      </trkpt>
      <trkpt lat="45.53045" lon="6.8569">
        <ele>3466.4</ele>
        <time>2021-03-30T10:21:03Z</time>
      </trkpt>
      <trkpt lat="45.53045" lon="6.85689">
        <ele>3466.4</ele>
        <time>2021-03-30T10:21:04Z</time>
      </trkpt>
      <trkpt lat="45.53045" lon="6.85688">
        <ele>3464.6</ele>
        <time>2021-03-30T10:21:05Z</time>
      </trkpt>
      <trkpt lat="45.53044" lon="6.85688">
        <ele>3464.6</ele>
        <time>2021-03-30T10:21:06Z</time>
      </trkpt>
      <trkpt lat="45.53044" lon="6.85687">
        <ele>3464.6</ele>
        <time>2021-03-30T10:21:07Z</time>
      </trkpt>
      <trkpt lat="45.53044" lon="6.85686">
        <ele>3464.6</ele>
        <time>2021-03-30T10:21:08Z</time>
      </trkpt>
      <trkpt lat="45.53043" lon="6.85685">
        <ele>3464.6</ele>
        <time>2021-03-30T10:21:09Z</time>
      </trkpt>
      <trkpt lat="45.53043" lon="6.85685">
        <ele>3466.3</ele>
        <time>2021-03-30T10:21:10Z</time>
      </trkpt>
      <trkpt lat="45.53043" lon="6.85684">
        <ele>3466.3</ele>
        <time>2021-03-30T10:21:11Z</time>
      </trkpt>
      <trkpt lat="45.53043" lon="6.85684">
        <ele>3464.5</ele>
        <time>2021-03-30T10:21:12Z</time>
      </trkpt>
      <trkpt lat="45.53042" lon="6.85684">
        <ele>3464.5</ele>
        <time>2021-03-30T10:21:13Z</time>
      </trkpt>
      <trkpt lat="45.53041" lon="6.85684">
        <ele>3466.3</ele>
        <time>2021-03-30T10:21:14Z</time>
      </trkpt>
      <trkpt lat="45.53041" lon="6.85685">
        <ele>3466.3</ele>
        <time>2021-03-30T10:21:15Z</time>
      </trkpt>
      <trkpt lat="45.5304" lon="6.85686">
        <ele>3466.3</ele>
        <time>2021-03-30T10:21:16Z</time>
      </trkpt>
      <trkpt lat="45.5304" lon="6.85686">
        <ele>3467.9</ele>
        <time>2021-03-30T10:21:17Z</time>
      </trkpt>
      <trkpt lat="45.5304" lon="6.85687">
        <ele>3467.9</ele>
        <time>2021-03-30T10:21:18Z</time>
      </trkpt>
      <trkpt lat="45.53039" lon="6.85687">
        <ele>3467.9</ele>
        <time>2021-03-30T10:21:19Z</time>
      </trkpt>
      <trkpt lat="45.53039" lon="6.85688">
        <ele>3467.9</ele>
        <time>2021-03-30T10:21:20Z</time>
      </trkpt>
      <trkpt lat="45.53038" lon="6.85689">
        <ele>3469.8</ele>
        <time>2021-03-30T10:21:21Z</time>
      </trkpt>
      <trkpt lat="45.53038" lon="6.85689">
        <ele>3469.8</ele>
        <time>2021-03-30T10:21:22Z</time>
      </trkpt>
      <trkpt lat="45.53037" lon="6.8569">
        <ele>3469.8</ele>
        <time>2021-03-30T10:21:58Z</time>
      </trkpt>
      <trkpt lat="45.53037" lon="6.8569">
        <ele>3471.4</ele>
        <time>2021-03-30T10:21:59Z</time>
      </trkpt>
      <trkpt lat="45.53037" lon="6.85691">
        <ele>3471.4</ele>
        <time>2021-03-30T10:22:00Z</time>
      </trkpt>
      <trkpt lat="45.53036" lon="6.85692">
        <ele>3471.4</ele>
        <time>2021-03-30T10:22:01Z</time>
      </trkpt>
      <trkpt lat="45.53036" lon="6.85692">
        <ele>3471.4</ele>
        <time>2021-03-30T10:22:02Z</time>
      </trkpt>
      <trkpt lat="45.53035" lon="6.85692">
        <ele>3471.4</ele>
        <time>2021-03-30T10:22:03Z</time>
      </trkpt>
      <trkpt lat="45.53035" lon="6.85691">
        <ele>3471.4</ele>
        <time>2021-03-30T10:22:04Z</time>
      </trkpt>
      <trkpt lat="45.53034" lon="6.8569">
        <ele>3471.4</ele>
        <time>2021-03-30T10:22:05Z</time>
      </trkpt>
      <trkpt lat="45.53034" lon="6.8569">
        <ele>3473.2</ele>
        <time>2021-03-30T10:22:06Z</time>
      </trkpt>
      <trkpt lat="45.53034" lon="6.8569">
        <ele>3473.2</ele>
        <time>2021-03-30T10:22:07Z</time>
      </trkpt>
      <trkpt lat="45.53034" lon="6.85689">
        <ele>3473.2</ele>
        <time>2021-03-30T10:22:08Z</time>
      </trkpt>
      <trkpt lat="45.53033" lon="6.85689">
        <ele>3473.2</ele>
        <time>2021-03-30T10:22:09Z</time>
      </trkpt>
      <trkpt lat="45.53033" lon="6.85688">
        <ele>3471.4</ele>
        <time>2021-03-30T10:22:10Z</time>
      </trkpt>
      <trkpt lat="45.53033" lon="6.85688">
        <ele>3471.4</ele>
        <time>2021-03-30T10:22:11Z</time>
      </trkpt>
      <trkpt lat="45.53032" lon="6.85687">
        <ele>3471.4</ele>
        <time>2021-03-30T10:22:12Z</time>
      </trkpt>
      <trkpt lat="45.53032" lon="6.85686">
        <ele>3471.4</ele>
        <time>2021-03-30T10:22:13Z</time>
      </trkpt>
      <trkpt lat="45.53031" lon="6.85685">
        <ele>3473.3</ele>
        <time>2021-03-30T10:22:14Z</time>
      </trkpt>
      <trkpt lat="45.53031" lon="6.85684">
        <ele>3471.5</ele>
        <time>2021-03-30T10:22:15Z</time>
      </trkpt>
      <trkpt lat="45.5303" lon="6.85683">
        <ele>3471.5</ele>
        <time>2021-03-30T10:22:16Z</time>
      </trkpt>
      <trkpt lat="45.5303" lon="6.85683">
        <ele>3471.5</ele>
        <time>2021-03-30T10:22:17Z</time>
      </trkpt>
      <trkpt lat="45.5303" lon="6.85682">
        <ele>3471.5</ele>
        <time>2021-03-30T10:22:18Z</time>
      </trkpt>
      <trkpt lat="45.53029" lon="6.85682">
        <ele>3471.5</ele>
        <time>2021-03-30T10:22:19Z</time>
      </trkpt>
      <trkpt lat="45.53029" lon="6.85682">
        <ele>3471.5</ele>
        <time>2021-03-30T10:22:20Z</time>
      </trkpt>
      <trkpt lat="45.53029" lon="6.85681">
        <ele>3471.5</ele>
        <time>2021-03-30T10:22:21Z</time>
      </trkpt>
      <trkpt lat="45.53029" lon="6.85681">
        <ele>3471.5</ele>
        <time>2021-03-30T10:22:22Z</time>
      </trkpt>
      <trkpt lat="45.53028" lon="6.8568">
        <ele>3469.6</ele>
        <time>2021-03-30T10:22:23Z</time>
      </trkpt>
      <trkpt lat="45.53028" lon="6.85679">
        <ele>3471.6</ele>
        <time>2021-03-30T10:22:24Z</time>
      </trkpt>
      <trkpt lat="45.53028" lon="6.85679">
        <ele>3471.6</ele>
        <time>2021-03-30T10:22:25Z</time>
      </trkpt>
      <trkpt lat="45.53028" lon="6.85678">
        <ele>3471.6</ele>
        <time>2021-03-30T10:22:26Z</time>
      </trkpt>
      <trkpt lat="45.53027" lon="6.85677">
        <ele>3471.6</ele>
        <time>2021-03-30T10:22:27Z</time>
      </trkpt>
      <trkpt lat="45.53027" lon="6.85676">
        <ele>3471.6</ele>
        <time>2021-03-30T10:22:28Z</time>
      </trkpt>
      <trkpt lat="45.53027" lon="6.85676">
        <ele>3469.6</ele>
        <time>2021-03-30T10:22:29Z</time>
      </trkpt>
      <trkpt lat="45.53026" lon="6.85675">
        <ele>3469.6</ele>
        <time>2021-03-30T10:22:30Z</time>
      </trkpt>
      <trkpt lat="45.53026" lon="6.85674">
        <ele>3469.6</ele>
        <time>2021-03-30T10:22:31Z</time>
      </trkpt>
      <trkpt lat="45.53026" lon="6.85674">
        <ele>3469.6</ele>
        <time>2021-03-30T10:22:32Z</time>
      </trkpt>
      <trkpt lat="45.53026" lon="6.85673">
        <ele>3469.6</ele>
        <time>2021-03-30T10:22:33Z</time>
      </trkpt>
      <trkpt lat="45.53025" lon="6.85672">
        <ele>3471.5</ele>
        <time>2021-03-30T10:22:34Z</time>
      </trkpt>
      <trkpt lat="45.53025" lon="6.85671">
        <ele>3469.5</ele>
        <time>2021-03-30T10:22:35Z</time>
      </trkpt>
      <trkpt lat="45.53025" lon="6.85671">
        <ele>3469.5</ele>
        <time>2021-03-30T10:22:36Z</time>
      </trkpt>
      <trkpt lat="45.53024" lon="6.8567">
        <ele>3469.5</ele>
        <time>2021-03-30T10:22:37Z</time>
      </trkpt>
      <trkpt lat="45.53024" lon="6.85669">
        <ele>3469.5</ele>
        <time>2021-03-30T10:22:38Z</time>
      </trkpt>
      <trkpt lat="45.53024" lon="6.85668">
        <ele>3469.5</ele>
        <time>2021-03-30T10:22:39Z</time>
      </trkpt>
      <trkpt lat="45.53024" lon="6.85668">
        <ele>3469.5</ele>
        <time>2021-03-30T10:22:40Z</time>
      </trkpt>
      <trkpt lat="45.53024" lon="6.85667">
        <ele>3469.5</ele>
        <time>2021-03-30T10:22:41Z</time>
      </trkpt>
      <trkpt lat="45.53023" lon="6.85667">
        <ele>3467.4</ele>
        <time>2021-03-30T10:22:42Z</time>
      </trkpt>
      <trkpt lat="45.53023" lon="6.85666">
        <ele>3467.4</ele>
        <time>2021-03-30T10:22:43Z</time>
      </trkpt>
      <trkpt lat="45.53023" lon="6.85666">
        <ele>3467.4</ele>
        <time>2021-03-30T10:22:44Z</time>
      </trkpt>
      <trkpt lat="45.53022" lon="6.85665">
        <ele>3467.4</ele>
        <time>2021-03-30T10:22:45Z</time>
      </trkpt>
      <trkpt lat="45.53022" lon="6.85665">
        <ele>3469.2</ele>
        <time>2021-03-30T10:22:46Z</time>
      </trkpt>
      <trkpt lat="45.53022" lon="6.85665">
        <ele>3469.2</ele>
        <time>2021-03-30T10:22:47Z</time>
      </trkpt>
      <trkpt lat="45.53022" lon="6.85664">
        <ele>3469.2</ele>
        <time>2021-03-30T10:22:48Z</time>
      </trkpt>
      <trkpt lat="45.53021" lon="6.85663">
        <ele>3469.2</ele>
        <time>2021-03-30T10:22:49Z</time>
      </trkpt>
      <trkpt lat="45.53021" lon="6.85663">
        <ele>3467.2</ele>
        <time>2021-03-30T10:22:50Z</time>
      </trkpt>
      <trkpt lat="45.53021" lon="6.85662">
        <ele>3467.2</ele>
        <time>2021-03-30T10:22:51Z</time>
      </trkpt>
      <trkpt lat="45.53021" lon="6.85662">
        <ele>3467.2</ele>
        <time>2021-03-30T10:22:52Z</time>
      </trkpt>
      <trkpt lat="45.53021" lon="6.85661">
        <ele>3467.2</ele>
        <time>2021-03-30T10:22:53Z</time>
      </trkpt>
      <trkpt lat="45.5302" lon="6.85661">
        <ele>3467.2</ele>
        <time>2021-03-30T10:22:54Z</time>
      </trkpt>
      <trkpt lat="45.5302" lon="6.8566">
        <ele>3467.2</ele>
        <time>2021-03-30T10:22:55Z</time>
      </trkpt>
      <trkpt lat="45.5302" lon="6.85659">
        <ele>3467.2</ele>
        <time>2021-03-30T10:22:56Z</time>
      </trkpt>
      <trkpt lat="45.53019" lon="6.85659">
        <ele>3467.2</ele>
        <time>2021-03-30T10:22:57Z</time>
      </trkpt>
      <trkpt lat="45.53019" lon="6.85658">
        <ele>3466.9</ele>
        <time>2021-03-30T10:22:58Z</time>
      </trkpt>
      <trkpt lat="45.53019" lon="6.85658">
        <ele>3466.9</ele>
        <time>2021-03-30T10:22:59Z</time>
      </trkpt>
      <trkpt lat="45.53019" lon="6.85657">
        <ele>3466.9</ele>
        <time>2021-03-30T10:23:00Z</time>
      </trkpt>
      <trkpt lat="45.53018" lon="6.85657">
        <ele>3466.9</ele>
        <time>2021-03-30T10:23:01Z</time>
      </trkpt>
      <trkpt lat="45.53018" lon="6.85656">
        <ele>3466.9</ele>
        <time>2021-03-30T10:23:02Z</time>
      </trkpt>
      <trkpt lat="45.53018" lon="6.85655">
        <ele>3466.9</ele>
        <time>2021-03-30T10:23:03Z</time>
      </trkpt>
      <trkpt lat="45.53018" lon="6.85654">
        <ele>3465</ele>
        <time>2021-03-30T10:23:04Z</time>
      </trkpt>
      <trkpt lat="45.53017" lon="6.85653">
        <ele>3465</ele>
        <time>2021-03-30T10:23:05Z</time>
      </trkpt>
      <trkpt lat="45.53017" lon="6.85652">
        <ele>3465</ele>
        <time>2021-03-30T10:23:06Z</time>
      </trkpt>
      <trkpt lat="45.53017" lon="6.85652">
        <ele>3465</ele>
        <time>2021-03-30T10:23:07Z</time>
      </trkpt>
      <trkpt lat="45.53016" lon="6.85651">
        <ele>3465</ele>
        <time>2021-03-30T10:23:08Z</time>
      </trkpt>
      <trkpt lat="45.53016" lon="6.85651">
        <ele>3466.6</ele>
        <time>2021-03-30T10:23:09Z</time>
      </trkpt>
      <trkpt lat="45.53016" lon="6.8565">
        <ele>3464.8</ele>
        <time>2021-03-30T10:23:10Z</time>
      </trkpt>
      <trkpt lat="45.53016" lon="6.85649">
        <ele>3464.8</ele>
        <time>2021-03-30T10:23:11Z</time>
      </trkpt>
      <trkpt lat="45.53015" lon="6.85648">
        <ele>3464.8</ele>
        <time>2021-03-30T10:23:12Z</time>
      </trkpt>
      <trkpt lat="45.53015" lon="6.85648">
        <ele>3464.8</ele>
        <time>2021-03-30T10:23:13Z</time>
      </trkpt>
      <trkpt lat="45.53015" lon="6.85647">
        <ele>3464.8</ele>
        <time>2021-03-30T10:23:14Z</time>
      </trkpt>
      <trkpt lat="45.53014" lon="6.85647">
        <ele>3464.8</ele>
        <time>2021-03-30T10:23:15Z</time>
      </trkpt>
      <trkpt lat="45.53014" lon="6.85646">
        <ele>3464.8</ele>
        <time>2021-03-30T10:23:16Z</time>
      </trkpt>
      <trkpt lat="45.53014" lon="6.85646">
        <ele>3464.8</ele>
        <time>2021-03-30T10:23:17Z</time>
      </trkpt>
      <trkpt lat="45.53014" lon="6.85645">
        <ele>3463.1</ele>
        <time>2021-03-30T10:23:18Z</time>
      </trkpt>
      <trkpt lat="45.53013" lon="6.85645">
        <ele>3464.7</ele>
        <time>2021-03-30T10:23:19Z</time>
      </trkpt>
      <trkpt lat="45.53013" lon="6.85645">
        <ele>3464.7</ele>
        <time>2021-03-30T10:23:20Z</time>
      </trkpt>
      <trkpt lat="45.53013" lon="6.85644">
        <ele>3464.7</ele>
        <time>2021-03-30T10:23:21Z</time>
      </trkpt>
      <trkpt lat="45.53012" lon="6.85644">
        <ele>3464.7</ele>
        <time>2021-03-30T10:23:22Z</time>
      </trkpt>
      <trkpt lat="45.53012" lon="6.85643">
        <ele>3464.7</ele>
        <time>2021-03-30T10:23:23Z</time>
      </trkpt>
      <trkpt lat="45.53012" lon="6.85643">
        <ele>3464.7</ele>
        <time>2021-03-30T10:23:28Z</time>
      </trkpt>
      <trkpt lat="45.53012" lon="6.85642">
        <ele>3464.7</ele>
        <time>2021-03-30T10:23:29Z</time>
      </trkpt>
      <trkpt lat="45.53011" lon="6.85642">
        <ele>3464.7</ele>
        <time>2021-03-30T10:23:30Z</time>
      </trkpt>
      <trkpt lat="45.53011" lon="6.85642">
        <ele>3464.7</ele>
        <time>2021-03-30T10:23:31Z</time>
      </trkpt>
      <trkpt lat="45.53011" lon="6.85641">
        <ele>3462.9</ele>
        <time>2021-03-30T10:23:32Z</time>
      </trkpt>
      <trkpt lat="45.5301" lon="6.85641">
        <ele>3462.9</ele>
        <time>2021-03-30T10:23:33Z</time>
      </trkpt>
      <trkpt lat="45.5301" lon="6.8564">
        <ele>3464.6</ele>
        <time>2021-03-30T10:23:34Z</time>
      </trkpt>
      <trkpt lat="45.5301" lon="6.85639">
        <ele>3464.6</ele>
        <time>2021-03-30T10:23:35Z</time>
      </trkpt>
      <trkpt lat="45.53009" lon="6.85638">
        <ele>3464.6</ele>
        <time>2021-03-30T10:23:36Z</time>
      </trkpt>
      <trkpt lat="45.53009" lon="6.85637">
        <ele>3464.6</ele>
        <time>2021-03-30T10:23:37Z</time>
      </trkpt>
      <trkpt lat="45.53009" lon="6.85636">
        <ele>3462.8</ele>
        <time>2021-03-30T10:23:38Z</time>
      </trkpt>
      <trkpt lat="45.53008" lon="6.85636">
        <ele>3462.8</ele>
        <time>2021-03-30T10:23:39Z</time>
      </trkpt>
      <trkpt lat="45.53008" lon="6.85635">
        <ele>3462.8</ele>
        <time>2021-03-30T10:23:40Z</time>
      </trkpt>
      <trkpt lat="45.53008" lon="6.85634">
        <ele>3462.8</ele>
        <time>2021-03-30T10:23:41Z</time>
      </trkpt>
      <trkpt lat="45.53008" lon="6.85633">
        <ele>3462.8</ele>
        <time>2021-03-30T10:23:42Z</time>
      </trkpt>
      <trkpt lat="45.53007" lon="6.85632">
        <ele>3462.7</ele>
        <time>2021-03-30T10:23:43Z</time>
      </trkpt>
      <trkpt lat="45.53007" lon="6.85631">
        <ele>3462.7</ele>
        <time>2021-03-30T10:23:44Z</time>
      </trkpt>
      <trkpt lat="45.53007" lon="6.85631">
        <ele>3462.7</ele>
        <time>2021-03-30T10:23:45Z</time>
      </trkpt>
      <trkpt lat="45.53006" lon="6.8563">
        <ele>3462.7</ele>
        <time>2021-03-30T10:23:46Z</time>
      </trkpt>
      <trkpt lat="45.53006" lon="6.8563">
        <ele>3462.7</ele>
        <time>2021-03-30T10:23:47Z</time>
      </trkpt>
      <trkpt lat="45.53006" lon="6.85629">
        <ele>3462.7</ele>
        <time>2021-03-30T10:23:48Z</time>
      </trkpt>
      <trkpt lat="45.53005" lon="6.85629">
        <ele>3462.7</ele>
        <time>2021-03-30T10:23:49Z</time>
      </trkpt>
      <trkpt lat="45.53005" lon="6.85628">
        <ele>3460.9</ele>
        <time>2021-03-30T10:23:50Z</time>
      </trkpt>
      <trkpt lat="45.53005" lon="6.85628">
        <ele>3460.9</ele>
        <time>2021-03-30T10:23:51Z</time>
      </trkpt>
      <trkpt lat="45.53005" lon="6.85627">
        <ele>3460.9</ele>
        <time>2021-03-30T10:23:52Z</time>
      </trkpt>
      <trkpt lat="45.53004" lon="6.85627">
        <ele>3460.9</ele>
        <time>2021-03-30T10:23:53Z</time>
      </trkpt>
      <trkpt lat="45.53004" lon="6.85625">
        <ele>3462.8</ele>
        <time>2021-03-30T10:23:54Z</time>
      </trkpt>
      <trkpt lat="45.53003" lon="6.85625">
        <ele>3462.8</ele>
        <time>2021-03-30T10:23:55Z</time>
      </trkpt>
      <trkpt lat="45.53003" lon="6.85624">
        <ele>3460.9</ele>
        <time>2021-03-30T10:23:56Z</time>
      </trkpt>
      <trkpt lat="45.53002" lon="6.85623">
        <ele>3460.9</ele>
        <time>2021-03-30T10:23:59Z</time>
      </trkpt>
      <trkpt lat="45.53002" lon="6.85622">
        <ele>3460.9</ele>
        <time>2021-03-30T10:24:00Z</time>
      </trkpt>
      <trkpt lat="45.53001" lon="6.85621">
        <ele>3462.8</ele>
        <time>2021-03-30T10:24:01Z</time>
      </trkpt>
      <trkpt lat="45.53001" lon="6.8562">
        <ele>3462.8</ele>
        <time>2021-03-30T10:24:02Z</time>
      </trkpt>
      <trkpt lat="45.53" lon="6.8562">
        <ele>3461</ele>
        <time>2021-03-30T10:24:03Z</time>
      </trkpt>
      <trkpt lat="45.53" lon="6.85619">
        <ele>3461</ele>
        <time>2021-03-30T10:24:04Z</time>
      </trkpt>
      <trkpt lat="45.53" lon="6.85618">
        <ele>3461</ele>
        <time>2021-03-30T10:24:05Z</time>
      </trkpt>
      <trkpt lat="45.52999" lon="6.85618">
        <ele>3461</ele>
        <time>2021-03-30T10:24:06Z</time>
      </trkpt>
      <trkpt lat="45.52999" lon="6.85617">
        <ele>3461</ele>
        <time>2021-03-30T10:24:07Z</time>
      </trkpt>
      <trkpt lat="45.52998" lon="6.85616">
        <ele>3461</ele>
        <time>2021-03-30T10:24:08Z</time>
      </trkpt>
      <trkpt lat="45.52998" lon="6.85616">
        <ele>3461</ele>
        <time>2021-03-30T10:24:09Z</time>
      </trkpt>
      <trkpt lat="45.52998" lon="6.85615">
        <ele>3461</ele>
        <time>2021-03-30T10:24:10Z</time>
      </trkpt>
      <trkpt lat="45.52997" lon="6.85614">
        <ele>3461</ele>
        <time>2021-03-30T10:24:11Z</time>
      </trkpt>
      <trkpt lat="45.52997" lon="6.85614">
        <ele>3461</ele>
        <time>2021-03-30T10:24:12Z</time>
      </trkpt>
      <trkpt lat="45.52997" lon="6.85613">
        <ele>3461</ele>
        <time>2021-03-30T10:24:13Z</time>
      </trkpt>
      <trkpt lat="45.52997" lon="6.85612">
        <ele>3461</ele>
        <time>2021-03-30T10:24:14Z</time>
      </trkpt>
      <trkpt lat="45.52997" lon="6.85612">
        <ele>3461</ele>
        <time>2021-03-30T10:24:15Z</time>
      </trkpt>
      <trkpt lat="45.52996" lon="6.85611">
        <ele>3459.3</ele>
        <time>2021-03-30T10:24:16Z</time>
      </trkpt>
      <trkpt lat="45.52996" lon="6.8561">
        <ele>3459.3</ele>
        <time>2021-03-30T10:24:17Z</time>
      </trkpt>
      <trkpt lat="45.52996" lon="6.8561">
        <ele>3459.3</ele>
        <time>2021-03-30T10:24:18Z</time>
      </trkpt>
      <trkpt lat="45.52995" lon="6.85609">
        <ele>3459.3</ele>
        <time>2021-03-30T10:24:19Z</time>
      </trkpt>
      <trkpt lat="45.52995" lon="6.85609">
        <ele>3461.1</ele>
        <time>2021-03-30T10:24:20Z</time>
      </trkpt>
      <trkpt lat="45.52995" lon="6.85608">
        <ele>3461.1</ele>
        <time>2021-03-30T10:24:21Z</time>
      </trkpt>
      <trkpt lat="45.52994" lon="6.85608">
        <ele>3461.1</ele>
        <time>2021-03-30T10:24:22Z</time>
      </trkpt>
      <trkpt lat="45.52994" lon="6.85607">
        <ele>3461.1</ele>
        <time>2021-03-30T10:24:23Z</time>
      </trkpt>
      <trkpt lat="45.52994" lon="6.85607">
        <ele>3459.4</ele>
        <time>2021-03-30T10:24:24Z</time>
      </trkpt>
      <trkpt lat="45.52993" lon="6.85606">
        <ele>3459.4</ele>
        <time>2021-03-30T10:24:25Z</time>
      </trkpt>
      <trkpt lat="45.52993" lon="6.85606">
        <ele>3459.4</ele>
        <time>2021-03-30T10:24:26Z</time>
      </trkpt>
      <trkpt lat="45.52992" lon="6.85605">
        <ele>3459.4</ele>
        <time>2021-03-30T10:24:27Z</time>
      </trkpt>
      <trkpt lat="45.52992" lon="6.85605">
        <ele>3461.2</ele>
        <time>2021-03-30T10:24:28Z</time>
      </trkpt>
      <trkpt lat="45.52992" lon="6.85604">
        <ele>3461.2</ele>
        <time>2021-03-30T10:24:29Z</time>
      </trkpt>
      <trkpt lat="45.52991" lon="6.85603">
        <ele>3461.2</ele>
        <time>2021-03-30T10:24:30Z</time>
      </trkpt>
      <trkpt lat="45.52991" lon="6.85603">
        <ele>3461.2</ele>
        <time>2021-03-30T10:24:31Z</time>
      </trkpt>
      <trkpt lat="45.5299" lon="6.85602">
        <ele>3459.5</ele>
        <time>2021-03-30T10:24:32Z</time>
      </trkpt>
      <trkpt lat="45.5299" lon="6.85602">
        <ele>3459.5</ele>
        <time>2021-03-30T10:24:33Z</time>
      </trkpt>
      <trkpt lat="45.5299" lon="6.85601">
        <ele>3459.5</ele>
        <time>2021-03-30T10:24:34Z</time>
      </trkpt>
      <trkpt lat="45.52989" lon="6.856">
        <ele>3461.2</ele>
        <time>2021-03-30T10:24:35Z</time>
      </trkpt>
      <trkpt lat="45.52989" lon="6.856">
        <ele>3461.2</ele>
        <time>2021-03-30T10:24:36Z</time>
      </trkpt>
      <trkpt lat="45.52988" lon="6.856">
        <ele>3461.2</ele>
        <time>2021-03-30T10:24:37Z</time>
      </trkpt>
      <trkpt lat="45.52988" lon="6.85599">
        <ele>3461.2</ele>
        <time>2021-03-30T10:24:38Z</time>
      </trkpt>
      <trkpt lat="45.52987" lon="6.85599">
        <ele>3461.2</ele>
        <time>2021-03-30T10:24:39Z</time>
      </trkpt>
      <trkpt lat="45.52987" lon="6.85599">
        <ele>3461.2</ele>
        <time>2021-03-30T10:24:40Z</time>
      </trkpt>
      <trkpt lat="45.52986" lon="6.85599">
        <ele>3462.9</ele>
        <time>2021-03-30T10:24:41Z</time>
      </trkpt>
      <trkpt lat="45.52986" lon="6.85599">
        <ele>3462.9</ele>
        <time>2021-03-30T10:24:42Z</time>
      </trkpt>
      <trkpt lat="45.52985" lon="6.85599">
        <ele>3462.9</ele>
        <time>2021-03-30T10:24:43Z</time>
      </trkpt>
      <trkpt lat="45.52984" lon="6.85599">
        <ele>3462.9</ele>
        <time>2021-03-30T10:24:44Z</time>
      </trkpt>
      <trkpt lat="45.52984" lon="6.85599">
        <ele>3462.9</ele>
        <time>2021-03-30T10:24:45Z</time>
      </trkpt>
      <trkpt lat="45.52983" lon="6.85598">
        <ele>3462.9</ele>
        <time>2021-03-30T10:24:46Z</time>
      </trkpt>
      <trkpt lat="45.52983" lon="6.85598">
        <ele>3462.9</ele>
        <time>2021-03-30T10:24:47Z</time>
      </trkpt>
      <trkpt lat="45.52982" lon="6.85598">
        <ele>3462.9</ele>
        <time>2021-03-30T10:24:48Z</time>
      </trkpt>
      <trkpt lat="45.52981" lon="6.85598">
        <ele>3462.9</ele>
        <time>2021-03-30T10:24:49Z</time>
      </trkpt>
      <trkpt lat="45.52981" lon="6.85598">
        <ele>3462.9</ele>
        <time>2021-03-30T10:24:50Z</time>
      </trkpt>
      <trkpt lat="45.5298" lon="6.85598">
        <ele>3464.5</ele>
        <time>2021-03-30T10:24:51Z</time>
      </trkpt>
      <trkpt lat="45.52979" lon="6.85598">
        <ele>3464.5</ele>
        <time>2021-03-30T10:24:52Z</time>
      </trkpt>
      <trkpt lat="45.52979" lon="6.85597">
        <ele>3464.5</ele>
        <time>2021-03-30T10:24:53Z</time>
      </trkpt>
      <trkpt lat="45.52978" lon="6.85597">
        <ele>3464.5</ele>
        <time>2021-03-30T10:24:54Z</time>
      </trkpt>
      <trkpt lat="45.52977" lon="6.85597">
        <ele>3464.5</ele>
        <time>2021-03-30T10:24:55Z</time>
      </trkpt>
      <trkpt lat="45.52977" lon="6.85597">
        <ele>3466.2</ele>
        <time>2021-03-30T10:24:56Z</time>
      </trkpt>
      <trkpt lat="45.52977" lon="6.85597">
        <ele>3466.2</ele>
        <time>2021-03-30T10:24:57Z</time>
      </trkpt>
      <trkpt lat="45.52976" lon="6.85597">
        <ele>3466.2</ele>
        <time>2021-03-30T10:24:58Z</time>
      </trkpt>
      <trkpt lat="45.52976" lon="6.85597">
        <ele>3466.2</ele>
        <time>2021-03-30T10:24:59Z</time>
      </trkpt>
      <trkpt lat="45.52975" lon="6.85597">
        <ele>3466.2</ele>
        <time>2021-03-30T10:25:00Z</time>
      </trkpt>
      <trkpt lat="45.52975" lon="6.85597">
        <ele>3466.2</ele>
        <time>2021-03-30T10:25:01Z</time>
      </trkpt>
      <trkpt lat="45.52974" lon="6.85596">
        <ele>3467.9</ele>
        <time>2021-03-30T10:25:02Z</time>
      </trkpt>
      <trkpt lat="45.52973" lon="6.85596">
        <ele>3467.9</ele>
        <time>2021-03-30T10:25:03Z</time>
      </trkpt>
      <trkpt lat="45.52973" lon="6.85596">
        <ele>3467.9</ele>
        <time>2021-03-30T10:25:04Z</time>
      </trkpt>
      <trkpt lat="45.52973" lon="6.85596">
        <ele>3467.9</ele>
        <time>2021-03-30T10:25:05Z</time>
      </trkpt>
      <trkpt lat="45.52972" lon="6.85596">
        <ele>3467.9</ele>
        <time>2021-03-30T10:25:06Z</time>
      </trkpt>
      <trkpt lat="45.52972" lon="6.85595">
        <ele>3467.9</ele>
        <time>2021-03-30T10:25:07Z</time>
      </trkpt>
      <trkpt lat="45.52971" lon="6.85595">
        <ele>3469.6</ele>
        <time>2021-03-30T10:25:08Z</time>
      </trkpt>
      <trkpt lat="45.5297" lon="6.85595">
        <ele>3469.6</ele>
        <time>2021-03-30T10:25:09Z</time>
      </trkpt>
      <trkpt lat="45.52969" lon="6.85595">
        <ele>3469.6</ele>
        <time>2021-03-30T10:25:10Z</time>
      </trkpt>
      <trkpt lat="45.52968" lon="6.85595">
        <ele>3471.4</ele>
        <time>2021-03-30T10:25:11Z</time>
      </trkpt>
      <trkpt lat="45.52967" lon="6.85595">
        <ele>3471.4</ele>
        <time>2021-03-30T10:25:12Z</time>
      </trkpt>
      <trkpt lat="45.52966" lon="6.85595">
        <ele>3471.4</ele>
        <time>2021-03-30T10:25:13Z</time>
      </trkpt>
      <trkpt lat="45.52965" lon="6.85595">
        <ele>3471.4</ele>
        <time>2021-03-30T10:25:14Z</time>
      </trkpt>
      <trkpt lat="45.52965" lon="6.85594">
        <ele>3473.2</ele>
        <time>2021-03-30T10:25:15Z</time>
      </trkpt>
      <trkpt lat="45.52964" lon="6.85594">
        <ele>3473.2</ele>
        <time>2021-03-30T10:25:16Z</time>
      </trkpt>
      <trkpt lat="45.52963" lon="6.85594">
        <ele>3473.2</ele>
        <time>2021-03-30T10:25:35Z</time>
      </trkpt>
      <trkpt lat="45.52962" lon="6.85594">
        <ele>3473.1</ele>
        <time>2021-03-30T10:25:36Z</time>
      </trkpt>
      <trkpt lat="45.52961" lon="6.85594">
        <ele>3473.1</ele>
        <time>2021-03-30T10:25:37Z</time>
      </trkpt>
      <trkpt lat="45.5296" lon="6.85594">
        <ele>3473.1</ele>
        <time>2021-03-30T10:25:38Z</time>
      </trkpt>
      <trkpt lat="45.52959" lon="6.85594">
        <ele>3473.1</ele>
        <time>2021-03-30T10:25:39Z</time>
      </trkpt>
      <trkpt lat="45.52959" lon="6.85593">
        <ele>3474.7</ele>
        <time>2021-03-30T10:25:40Z</time>
      </trkpt>
      <trkpt lat="45.52958" lon="6.85593">
        <ele>3474.7</ele>
        <time>2021-03-30T10:25:41Z</time>
      </trkpt>
      <trkpt lat="45.52958" lon="6.85593">
        <ele>3474.7</ele>
        <time>2021-03-30T10:25:42Z</time>
      </trkpt>
      <trkpt lat="45.52957" lon="6.85593">
        <ele>3474.7</ele>
        <time>2021-03-30T10:25:43Z</time>
      </trkpt>
      <trkpt lat="45.52957" lon="6.85593">
        <ele>3474.7</ele>
        <time>2021-03-30T10:25:44Z</time>
      </trkpt>
      <trkpt lat="45.52956" lon="6.85592">
        <ele>3474.7</ele>
        <time>2021-03-30T10:25:45Z</time>
      </trkpt>
      <trkpt lat="45.52955" lon="6.85592">
        <ele>3476.2</ele>
        <time>2021-03-30T10:25:46Z</time>
      </trkpt>
      <trkpt lat="45.52954" lon="6.85592">
        <ele>3476.2</ele>
        <time>2021-03-30T10:25:47Z</time>
      </trkpt>
      <trkpt lat="45.52954" lon="6.85592">
        <ele>3476.2</ele>
        <time>2021-03-30T10:25:48Z</time>
      </trkpt>
      <trkpt lat="45.52953" lon="6.85591">
        <ele>3477.8</ele>
        <time>2021-03-30T10:25:49Z</time>
      </trkpt>
      <trkpt lat="45.52952" lon="6.85591">
        <ele>3477.8</ele>
        <time>2021-03-30T10:25:50Z</time>
      </trkpt>
      <trkpt lat="45.52951" lon="6.85591">
        <ele>3477.8</ele>
        <time>2021-03-30T10:25:51Z</time>
      </trkpt>
      <trkpt lat="45.5295" lon="6.85591">
        <ele>3477.8</ele>
        <time>2021-03-30T10:25:57Z</time>
      </trkpt>
      <trkpt lat="45.52949" lon="6.85591">
        <ele>3479.6</ele>
        <time>2021-03-30T10:25:58Z</time>
      </trkpt>
      <trkpt lat="45.52949" lon="6.85591">
        <ele>3479.6</ele>
        <time>2021-03-30T10:25:59Z</time>
      </trkpt>
      <trkpt lat="45.52948" lon="6.85591">
        <ele>3479.6</ele>
        <time>2021-03-30T10:26:00Z</time>
      </trkpt>
      <trkpt lat="45.52947" lon="6.85592">
        <ele>3481.6</ele>
        <time>2021-03-30T10:26:01Z</time>
      </trkpt>
      <trkpt lat="45.52946" lon="6.85592">
        <ele>3481.6</ele>
        <time>2021-03-30T10:26:02Z</time>
      </trkpt>
      <trkpt lat="45.52946" lon="6.85592">
        <ele>3481.6</ele>
        <time>2021-03-30T10:26:03Z</time>
      </trkpt>
      <trkpt lat="45.52945" lon="6.85592">
        <ele>3481.6</ele>
        <time>2021-03-30T10:26:04Z</time>
      </trkpt>
      <trkpt lat="45.52945" lon="6.85592">
        <ele>3481.6</ele>
        <time>2021-03-30T10:26:05Z</time>
      </trkpt>
      <trkpt lat="45.52944" lon="6.85592">
        <ele>3484.9</ele>
        <time>2021-03-30T10:26:06Z</time>
      </trkpt>
      <trkpt lat="45.52943" lon="6.85592">
        <ele>3484.9</ele>
        <time>2021-03-30T10:26:07Z</time>
      </trkpt>
      <trkpt lat="45.52943" lon="6.85592">
        <ele>3484.9</ele>
        <time>2021-03-30T10:26:08Z</time>
      </trkpt>
      <trkpt lat="45.52942" lon="6.85592">
        <ele>3484.9</ele>
        <time>2021-03-30T10:26:09Z</time>
      </trkpt>
      <trkpt lat="45.52942" lon="6.85592">
        <ele>3484.9</ele>
        <time>2021-03-30T10:26:31Z</time>
      </trkpt>
      <trkpt lat="45.52941" lon="6.85592">
        <ele>3484.9</ele>
        <time>2021-03-30T10:26:32Z</time>
      </trkpt>
      <trkpt lat="45.52941" lon="6.85592">
        <ele>3486.9</ele>
        <time>2021-03-30T10:26:33Z</time>
      </trkpt>
      <trkpt lat="45.5294" lon="6.85593">
        <ele>3486.9</ele>
        <time>2021-03-30T10:26:34Z</time>
      </trkpt>
      <trkpt lat="45.5294" lon="6.85593">
        <ele>3486.9</ele>
        <time>2021-03-30T10:26:35Z</time>
      </trkpt>
      <trkpt lat="45.52939" lon="6.85593">
        <ele>3486.9</ele>
        <time>2021-03-30T10:26:36Z</time>
      </trkpt>
      <trkpt lat="45.52938" lon="6.85592">
        <ele>3486.9</ele>
        <time>2021-03-30T10:26:37Z</time>
      </trkpt>
      <trkpt lat="45.52938" lon="6.85592">
        <ele>3488.6</ele>
        <time>2021-03-30T10:26:38Z</time>
      </trkpt>
      <trkpt lat="45.52937" lon="6.85592">
        <ele>3488.6</ele>
        <time>2021-03-30T10:26:39Z</time>
      </trkpt>
      <trkpt lat="45.52937" lon="6.85592">
        <ele>3488.6</ele>
        <time>2021-03-30T10:26:40Z</time>
      </trkpt>
      <trkpt lat="45.52936" lon="6.85591">
        <ele>3488.6</ele>
        <time>2021-03-30T10:26:41Z</time>
      </trkpt>
      <trkpt lat="45.52936" lon="6.85591">
        <ele>3488.6</ele>
        <time>2021-03-30T10:26:42Z</time>
      </trkpt>
      <trkpt lat="45.52935" lon="6.85591">
        <ele>3488.6</ele>
        <time>2021-03-30T10:26:43Z</time>
      </trkpt>
      <trkpt lat="45.52935" lon="6.85591">
        <ele>3490.3</ele>
        <time>2021-03-30T10:26:44Z</time>
      </trkpt>
      <trkpt lat="45.52934" lon="6.85591">
        <ele>3490.3</ele>
        <time>2021-03-30T10:26:45Z</time>
      </trkpt>
      <trkpt lat="45.52934" lon="6.85591">
        <ele>3490.3</ele>
        <time>2021-03-30T10:26:46Z</time>
      </trkpt>
      <trkpt lat="45.52933" lon="6.85591">
        <ele>3490.3</ele>
        <time>2021-03-30T10:26:47Z</time>
      </trkpt>
      <trkpt lat="45.52933" lon="6.8559">
        <ele>3490.3</ele>
        <time>2021-03-30T10:26:48Z</time>
      </trkpt>
      <trkpt lat="45.52932" lon="6.8559">
        <ele>3491.9</ele>
        <time>2021-03-30T10:26:49Z</time>
      </trkpt>
      <trkpt lat="45.52931" lon="6.8559">
        <ele>3491.9</ele>
        <time>2021-03-30T10:26:50Z</time>
      </trkpt>
      <trkpt lat="45.52931" lon="6.8559">
        <ele>3491.9</ele>
        <time>2021-03-30T10:26:51Z</time>
      </trkpt>
      <trkpt lat="45.5293" lon="6.8559">
        <ele>3490.3</ele>
        <time>2021-03-30T10:26:52Z</time>
      </trkpt>
      <trkpt lat="45.5293" lon="6.8559">
        <ele>3490.3</ele>
        <time>2021-03-30T10:26:53Z</time>
      </trkpt>
      <trkpt lat="45.5293" lon="6.85589">
        <ele>3490.3</ele>
        <time>2021-03-30T10:26:54Z</time>
      </trkpt>
      <trkpt lat="45.52929" lon="6.85589">
        <ele>3490.3</ele>
        <time>2021-03-30T10:26:55Z</time>
      </trkpt>
      <trkpt lat="45.52929" lon="6.85589">
        <ele>3492</ele>
        <time>2021-03-30T10:26:56Z</time>
      </trkpt>
      <trkpt lat="45.52928" lon="6.85589">
        <ele>3492</ele>
        <time>2021-03-30T10:26:57Z</time>
      </trkpt>
      <trkpt lat="45.52928" lon="6.85589">
        <ele>3492</ele>
        <time>2021-03-30T10:26:58Z</time>
      </trkpt>
      <trkpt lat="45.52927" lon="6.85588">
        <ele>3492</ele>
        <time>2021-03-30T10:26:59Z</time>
      </trkpt>
      <trkpt lat="45.52927" lon="6.85588">
        <ele>3492</ele>
        <time>2021-03-30T10:27:00Z</time>
      </trkpt>
      <trkpt lat="45.52926" lon="6.85588">
        <ele>3492</ele>
        <time>2021-03-30T10:27:01Z</time>
      </trkpt>
      <trkpt lat="45.52926" lon="6.85588">
        <ele>3493.8</ele>
        <time>2021-03-30T10:27:02Z</time>
      </trkpt>
      <trkpt lat="45.52925" lon="6.85587">
        <ele>3493.8</ele>
        <time>2021-03-30T10:27:03Z</time>
      </trkpt>
      <trkpt lat="45.52925" lon="6.85587">
        <ele>3493.8</ele>
        <time>2021-03-30T10:27:04Z</time>
      </trkpt>
      <trkpt lat="45.52924" lon="6.85587">
        <ele>3493.8</ele>
        <time>2021-03-30T10:27:05Z</time>
      </trkpt>
      <trkpt lat="45.52924" lon="6.85586">
        <ele>3493.8</ele>
        <time>2021-03-30T10:27:06Z</time>
      </trkpt>
      <trkpt lat="45.52923" lon="6.85586">
        <ele>3493.8</ele>
        <time>2021-03-30T10:27:07Z</time>
      </trkpt>
      <trkpt lat="45.52923" lon="6.85586">
        <ele>3495.7</ele>
        <time>2021-03-30T10:27:08Z</time>
      </trkpt>
      <trkpt lat="45.52922" lon="6.85586">
        <ele>3495.7</ele>
        <time>2021-03-30T10:27:09Z</time>
      </trkpt>
      <trkpt lat="45.52922" lon="6.85585">
        <ele>3494</ele>
        <time>2021-03-30T10:27:10Z</time>
      </trkpt>
      <trkpt lat="45.52922" lon="6.85585">
        <ele>3494</ele>
        <time>2021-03-30T10:27:11Z</time>
      </trkpt>
      <trkpt lat="45.52922" lon="6.85585">
        <ele>3494</ele>
        <time>2021-03-30T10:27:12Z</time>
      </trkpt>
      <trkpt lat="45.52922" lon="6.85585">
        <ele>3494</ele>
        <time>2021-03-30T10:27:13Z</time>
      </trkpt>
      <trkpt lat="45.52922" lon="6.85585">
        <ele>3494</ele>
        <time>2021-03-30T10:27:14Z</time>
      </trkpt>
      <trkpt lat="45.52922" lon="6.85585">
        <ele>3494</ele>
        <time>2021-03-30T10:27:15Z</time>
      </trkpt>
      <trkpt lat="45.52922" lon="6.85585">
        <ele>3494</ele>
        <time>2021-03-30T10:27:16Z</time>
      </trkpt>
      <trkpt lat="45.52922" lon="6.85585">
        <ele>3494</ele>
        <time>2021-03-30T10:27:17Z</time>
      </trkpt>
      <trkpt lat="45.52922" lon="6.85585">
        <ele>3494</ele>
        <time>2021-03-30T10:27:18Z</time>
      </trkpt>
      <trkpt lat="45.52922" lon="6.85585">
        <ele>3494</ele>
        <time>2021-03-30T10:27:19Z</time>
      </trkpt>
      <trkpt lat="45.5292" lon="6.8558">
        <ele>3494.3</ele>
        <time>2021-03-30T10:27:50Z</time>
      </trkpt>
      <trkpt lat="45.52919" lon="6.8558">
        <ele>3494.3</ele>
        <time>2021-03-30T10:27:51Z</time>
      </trkpt>
      <trkpt lat="45.52919" lon="6.8558">
        <ele>3494.3</ele>
        <time>2021-03-30T10:27:52Z</time>
      </trkpt>
      <trkpt lat="45.52919" lon="6.8558">
        <ele>3494.3</ele>
        <time>2021-03-30T10:27:53Z</time>
      </trkpt>
      <trkpt lat="45.52919" lon="6.8558">
        <ele>3494.3</ele>
        <time>2021-03-30T10:27:54Z</time>
      </trkpt>
      <trkpt lat="45.52919" lon="6.8558">
        <ele>3494.3</ele>
        <time>2021-03-30T10:27:55Z</time>
      </trkpt>
      <trkpt lat="45.52919" lon="6.8558">
        <ele>3494.3</ele>
        <time>2021-03-30T10:27:56Z</time>
      </trkpt>
      <trkpt lat="45.52919" lon="6.8558">
        <ele>3494.3</ele>
        <time>2021-03-30T10:27:57Z</time>
      </trkpt>
      <trkpt lat="45.52918" lon="6.85581">
        <ele>3494.3</ele>
        <time>2021-03-30T10:27:58Z</time>
      </trkpt>
      <trkpt lat="45.52918" lon="6.85581">
        <ele>3494.3</ele>
        <time>2021-03-30T10:27:59Z</time>
      </trkpt>
      <trkpt lat="45.52918" lon="6.85581">
        <ele>3494.3</ele>
        <time>2021-03-30T10:28:00Z</time>
      </trkpt>
      <trkpt lat="45.52918" lon="6.85581">
        <ele>3494.3</ele>
        <time>2021-03-30T10:28:01Z</time>
      </trkpt>
      <trkpt lat="45.52919" lon="6.85584">
        <ele>3496</ele>
        <time>2021-03-30T10:28:09Z</time>
      </trkpt>
      <trkpt lat="45.52919" lon="6.85584">
        <ele>3496</ele>
        <time>2021-03-30T10:28:10Z</time>
      </trkpt>
      <trkpt lat="45.52918" lon="6.85584">
        <ele>3496</ele>
        <time>2021-03-30T10:28:11Z</time>
      </trkpt>
      <trkpt lat="45.52919" lon="6.85584">
        <ele>3496</ele>
        <time>2021-03-30T10:28:12Z</time>
      </trkpt>
      <trkpt lat="45.52919" lon="6.85585">
        <ele>3496</ele>
        <time>2021-03-30T10:28:13Z</time>
      </trkpt>
      <trkpt lat="45.52919" lon="6.85585">
        <ele>3496</ele>
        <time>2021-03-30T10:28:14Z</time>
      </trkpt>
      <trkpt lat="45.5292" lon="6.85586">
        <ele>3497.6</ele>
        <time>2021-03-30T10:28:15Z</time>
      </trkpt>
      <trkpt lat="45.5292" lon="6.85586">
        <ele>3495.7</ele>
        <time>2021-03-30T10:28:16Z</time>
      </trkpt>
      <trkpt lat="45.52921" lon="6.85587">
        <ele>3495.7</ele>
        <time>2021-03-30T10:28:17Z</time>
      </trkpt>
      <trkpt lat="45.52921" lon="6.85588">
        <ele>3495.7</ele>
        <time>2021-03-30T10:28:18Z</time>
      </trkpt>
      <trkpt lat="45.52922" lon="6.85589">
        <ele>3495.7</ele>
        <time>2021-03-30T10:28:19Z</time>
      </trkpt>
      <trkpt lat="45.52922" lon="6.85589">
        <ele>3495.7</ele>
        <time>2021-03-30T10:28:20Z</time>
      </trkpt>
      <trkpt lat="45.52923" lon="6.8559">
        <ele>3495.7</ele>
        <time>2021-03-30T10:28:21Z</time>
      </trkpt>
      <trkpt lat="45.52923" lon="6.85591">
        <ele>3497.2</ele>
        <time>2021-03-30T10:28:22Z</time>
      </trkpt>
      <trkpt lat="45.52923" lon="6.85591">
        <ele>3495.3</ele>
        <time>2021-03-30T10:28:23Z</time>
      </trkpt>
      <trkpt lat="45.52923" lon="6.85592">
        <ele>3495.3</ele>
        <time>2021-03-30T10:28:24Z</time>
      </trkpt>
      <trkpt lat="45.52923" lon="6.85593">
        <ele>3495.3</ele>
        <time>2021-03-30T10:28:25Z</time>
      </trkpt>
      <trkpt lat="45.52924" lon="6.85594">
        <ele>3495.3</ele>
        <time>2021-03-30T10:28:26Z</time>
      </trkpt>
      <trkpt lat="45.52924" lon="6.85595">
        <ele>3496.8</ele>
        <time>2021-03-30T10:28:27Z</time>
      </trkpt>
      <trkpt lat="45.52924" lon="6.85596">
        <ele>3496.8</ele>
        <time>2021-03-30T10:28:28Z</time>
      </trkpt>
      <trkpt lat="45.52924" lon="6.85597">
        <ele>3496.8</ele>
        <time>2021-03-30T10:28:29Z</time>
      </trkpt>
      <trkpt lat="45.52924" lon="6.85598">
        <ele>3496.8</ele>
        <time>2021-03-30T10:28:30Z</time>
      </trkpt>
      <trkpt lat="45.52924" lon="6.85599">
        <ele>3498.3</ele>
        <time>2021-03-30T10:28:31Z</time>
      </trkpt>
      <trkpt lat="45.52924" lon="6.856">
        <ele>3498.3</ele>
        <time>2021-03-30T10:28:32Z</time>
      </trkpt>
      <trkpt lat="45.52924" lon="6.85601">
        <ele>3498.3</ele>
        <time>2021-03-30T10:28:33Z</time>
      </trkpt>
      <trkpt lat="45.52924" lon="6.85601">
        <ele>3498.3</ele>
        <time>2021-03-30T10:28:34Z</time>
      </trkpt>
      <trkpt lat="45.52924" lon="6.85602">
        <ele>3498.3</ele>
        <time>2021-03-30T10:28:35Z</time>
      </trkpt>
      <trkpt lat="45.52924" lon="6.85602">
        <ele>3498.3</ele>
        <time>2021-03-30T10:28:36Z</time>
      </trkpt>
      <trkpt lat="45.52925" lon="6.85603">
        <ele>3499.8</ele>
        <time>2021-03-30T10:28:37Z</time>
      </trkpt>
      <trkpt lat="45.52925" lon="6.85604">
        <ele>3499.8</ele>
        <time>2021-03-30T10:28:38Z</time>
      </trkpt>
      <trkpt lat="45.52925" lon="6.85605">
        <ele>3499.8</ele>
        <time>2021-03-30T10:28:39Z</time>
      </trkpt>
      <trkpt lat="45.52925" lon="6.85605">
        <ele>3499.8</ele>
        <time>2021-03-30T10:28:40Z</time>
      </trkpt>
      <trkpt lat="45.52925" lon="6.85606">
        <ele>3499.8</ele>
        <time>2021-03-30T10:28:41Z</time>
      </trkpt>
      <trkpt lat="45.52925" lon="6.85606">
        <ele>3499.8</ele>
        <time>2021-03-30T10:28:42Z</time>
      </trkpt>
      <trkpt lat="45.52926" lon="6.85607">
        <ele>3499.8</ele>
        <time>2021-03-30T10:28:44Z</time>
      </trkpt>
      <trkpt lat="45.52926" lon="6.85607">
        <ele>3501.4</ele>
        <time>2021-03-30T10:28:45Z</time>
      </trkpt>
      <trkpt lat="45.52926" lon="6.85608">
        <ele>3501.4</ele>
        <time>2021-03-30T10:28:46Z</time>
      </trkpt>
      <trkpt lat="45.52926" lon="6.85608">
        <ele>3501.4</ele>
        <time>2021-03-30T10:28:47Z</time>
      </trkpt>
      <trkpt lat="45.52926" lon="6.85609">
        <ele>3499.7</ele>
        <time>2021-03-30T10:28:48Z</time>
      </trkpt>
      <trkpt lat="45.52926" lon="6.85609">
        <ele>3499.7</ele>
        <time>2021-03-30T10:28:49Z</time>
      </trkpt>
      <trkpt lat="45.52926" lon="6.8561">
        <ele>3499.7</ele>
        <time>2021-03-30T10:28:50Z</time>
      </trkpt>
      <trkpt lat="45.52927" lon="6.8561">
        <ele>3499.7</ele>
        <time>2021-03-30T10:28:51Z</time>
      </trkpt>
      <trkpt lat="45.52927" lon="6.85611">
        <ele>3499.7</ele>
        <time>2021-03-30T10:28:52Z</time>
      </trkpt>
      <trkpt lat="45.52927" lon="6.85611">
        <ele>3499.7</ele>
        <time>2021-03-30T10:28:53Z</time>
      </trkpt>
      <trkpt lat="45.52927" lon="6.85611">
        <ele>3499.7</ele>
        <time>2021-03-30T10:28:54Z</time>
      </trkpt>
      <trkpt lat="45.52928" lon="6.85612">
        <ele>3501.4</ele>
        <time>2021-03-30T10:28:55Z</time>
      </trkpt>
      <trkpt lat="45.52928" lon="6.85613">
        <ele>3501.4</ele>
        <time>2021-03-30T10:28:56Z</time>
      </trkpt>
      <trkpt lat="45.52928" lon="6.85613">
        <ele>3501.4</ele>
        <time>2021-03-30T10:28:57Z</time>
      </trkpt>
      <trkpt lat="45.52928" lon="6.85615">
        <ele>3501.4</ele>
        <time>2021-03-30T10:28:58Z</time>
      </trkpt>
      <trkpt lat="45.52929" lon="6.85615">
        <ele>3501.4</ele>
        <time>2021-03-30T10:28:59Z</time>
      </trkpt>
      <trkpt lat="45.52929" lon="6.85616">
        <ele>3503.2</ele>
        <time>2021-03-30T10:29:00Z</time>
      </trkpt>
      <trkpt lat="45.52929" lon="6.85617">
        <ele>3501.6</ele>
        <time>2021-03-30T10:29:01Z</time>
      </trkpt>
      <trkpt lat="45.5293" lon="6.85617">
        <ele>3501.6</ele>
        <time>2021-03-30T10:29:02Z</time>
      </trkpt>
      <trkpt lat="45.5293" lon="6.85618">
        <ele>3501.6</ele>
        <time>2021-03-30T10:29:05Z</time>
      </trkpt>
      <trkpt lat="45.52931" lon="6.85619">
        <ele>3501.6</ele>
        <time>2021-03-30T10:29:06Z</time>
      </trkpt>
      <trkpt lat="45.52931" lon="6.8562">
        <ele>3501.6</ele>
        <time>2021-03-30T10:29:07Z</time>
      </trkpt>
      <trkpt lat="45.52931" lon="6.8562">
        <ele>3503.4</ele>
        <time>2021-03-30T10:29:08Z</time>
      </trkpt>
      <trkpt lat="45.52931" lon="6.85621">
        <ele>3503.4</ele>
        <time>2021-03-30T10:29:09Z</time>
      </trkpt>
      <trkpt lat="45.52932" lon="6.85622">
        <ele>3503.4</ele>
        <time>2021-03-30T10:29:10Z</time>
      </trkpt>
      <trkpt lat="45.52932" lon="6.85622">
        <ele>3503.4</ele>
        <time>2021-03-30T10:29:11Z</time>
      </trkpt>
      <trkpt lat="45.52932" lon="6.85623">
        <ele>3503.4</ele>
        <time>2021-03-30T10:29:12Z</time>
      </trkpt>
      <trkpt lat="45.52932" lon="6.85624">
        <ele>3501.9</ele>
        <time>2021-03-30T10:29:13Z</time>
      </trkpt>
      <trkpt lat="45.52933" lon="6.85625">
        <ele>3503.7</ele>
        <time>2021-03-30T10:29:14Z</time>
      </trkpt>
      <trkpt lat="45.52933" lon="6.85625">
        <ele>3503.7</ele>
        <time>2021-03-30T10:29:15Z</time>
      </trkpt>
      <trkpt lat="45.52934" lon="6.85626">
        <ele>3503.7</ele>
        <time>2021-03-30T10:29:16Z</time>
      </trkpt>
      <trkpt lat="45.52935" lon="6.85627">
        <ele>3503.7</ele>
        <time>2021-03-30T10:29:17Z</time>
      </trkpt>
      <trkpt lat="45.52935" lon="6.85627">
        <ele>3503.7</ele>
        <time>2021-03-30T10:29:18Z</time>
      </trkpt>
      <trkpt lat="45.52936" lon="6.85628">
        <ele>3502.1</ele>
        <time>2021-03-30T10:29:19Z</time>
      </trkpt>
      <trkpt lat="45.52936" lon="6.85628">
        <ele>3502.1</ele>
        <time>2021-03-30T10:29:20Z</time>
      </trkpt>
      <trkpt lat="45.52936" lon="6.85629">
        <ele>3503.9</ele>
        <time>2021-03-30T10:29:21Z</time>
      </trkpt>
      <trkpt lat="45.52937" lon="6.85629">
        <ele>3503.9</ele>
        <time>2021-03-30T10:29:22Z</time>
      </trkpt>
      <trkpt lat="45.52937" lon="6.8563">
        <ele>3503.9</ele>
        <time>2021-03-30T10:29:23Z</time>
      </trkpt>
      <trkpt lat="45.52937" lon="6.8563">
        <ele>3503.9</ele>
        <time>2021-03-30T10:29:24Z</time>
      </trkpt>
      <trkpt lat="45.52938" lon="6.85631">
        <ele>3503.9</ele>
        <time>2021-03-30T10:29:32Z</time>
      </trkpt>
      <trkpt lat="45.52938" lon="6.85631">
        <ele>3502.2</ele>
        <time>2021-03-30T10:29:33Z</time>
      </trkpt>
      <trkpt lat="45.52939" lon="6.85631">
        <ele>3502.2</ele>
        <time>2021-03-30T10:29:34Z</time>
      </trkpt>
      <trkpt lat="45.52939" lon="6.85632">
        <ele>3502.2</ele>
        <time>2021-03-30T10:29:35Z</time>
      </trkpt>
      <trkpt lat="45.52939" lon="6.85632">
        <ele>3502.2</ele>
        <time>2021-03-30T10:29:36Z</time>
      </trkpt>
      <trkpt lat="45.5294" lon="6.85633">
        <ele>3502.2</ele>
        <time>2021-03-30T10:29:37Z</time>
      </trkpt>
      <trkpt lat="45.5294" lon="6.85633">
        <ele>3504</ele>
        <time>2021-03-30T10:29:38Z</time>
      </trkpt>
      <trkpt lat="45.5294" lon="6.85633">
        <ele>3504</ele>
        <time>2021-03-30T10:29:39Z</time>
      </trkpt>
      <trkpt lat="45.52941" lon="6.85634">
        <ele>3504</ele>
        <time>2021-03-30T10:29:40Z</time>
      </trkpt>
      <trkpt lat="45.52941" lon="6.85634">
        <ele>3502.1</ele>
        <time>2021-03-30T10:29:41Z</time>
      </trkpt>
      <trkpt lat="45.52941" lon="6.85635">
        <ele>3502.1</ele>
        <time>2021-03-30T10:29:42Z</time>
      </trkpt>
      <trkpt lat="45.52942" lon="6.85635">
        <ele>3502.1</ele>
        <time>2021-03-30T10:30:50Z</time>
      </trkpt>
      <trkpt lat="45.52942" lon="6.85636">
        <ele>3502.1</ele>
        <time>2021-03-30T10:30:51Z</time>
      </trkpt>
      <trkpt lat="45.52943" lon="6.85636">
        <ele>3502.1</ele>
        <time>2021-03-30T10:30:52Z</time>
      </trkpt>
      <trkpt lat="45.52943" lon="6.85636">
        <ele>3502.1</ele>
        <time>2021-03-30T10:30:53Z</time>
      </trkpt>
      <trkpt lat="45.52943" lon="6.85637">
        <ele>3502.1</ele>
        <time>2021-03-30T10:30:54Z</time>
      </trkpt>
      <trkpt lat="45.52943" lon="6.85637">
        <ele>3502.1</ele>
        <time>2021-03-30T10:30:55Z</time>
      </trkpt>
      <trkpt lat="45.52942" lon="6.85636">
        <ele>3502.1</ele>
        <time>2021-03-30T10:30:56Z</time>
      </trkpt>
      <trkpt lat="45.52941" lon="6.85636">
        <ele>3502.1</ele>
        <time>2021-03-30T10:30:57Z</time>
      </trkpt>
      <trkpt lat="45.52941" lon="6.85636">
        <ele>3504</ele>
        <time>2021-03-30T10:30:58Z</time>
      </trkpt>
      <trkpt lat="45.5294" lon="6.85636">
        <ele>3504</ele>
        <time>2021-03-30T10:30:59Z</time>
      </trkpt>
      <trkpt lat="45.52939" lon="6.85636">
        <ele>3504</ele>
        <time>2021-03-30T10:31:00Z</time>
      </trkpt>
      <trkpt lat="45.52938" lon="6.85636">
        <ele>3504</ele>
        <time>2021-03-30T10:31:01Z</time>
      </trkpt>
      <trkpt lat="45.52938" lon="6.85636">
        <ele>3505.6</ele>
        <time>2021-03-30T10:31:02Z</time>
      </trkpt>
      <trkpt lat="45.52937" lon="6.85635">
        <ele>3505.6</ele>
        <time>2021-03-30T10:31:03Z</time>
      </trkpt>
      <trkpt lat="45.52936" lon="6.85635">
        <ele>3505.6</ele>
        <time>2021-03-30T10:31:04Z</time>
      </trkpt>
      <trkpt lat="45.52936" lon="6.85635">
        <ele>3505.6</ele>
        <time>2021-03-30T10:31:05Z</time>
      </trkpt>
      <trkpt lat="45.52935" lon="6.85635">
        <ele>3507.2</ele>
        <time>2021-03-30T10:31:06Z</time>
      </trkpt>
      <trkpt lat="45.52934" lon="6.85635">
        <ele>3507.2</ele>
        <time>2021-03-30T10:31:07Z</time>
      </trkpt>
      <trkpt lat="45.52934" lon="6.85635">
        <ele>3507.2</ele>
        <time>2021-03-30T10:31:08Z</time>
      </trkpt>
      <trkpt lat="45.52933" lon="6.85635">
        <ele>3507.2</ele>
        <time>2021-03-30T10:31:09Z</time>
      </trkpt>
      <trkpt lat="45.52932" lon="6.85634">
        <ele>3507.2</ele>
        <time>2021-03-30T10:31:10Z</time>
      </trkpt>
      <trkpt lat="45.52932" lon="6.85634">
        <ele>3508.7</ele>
        <time>2021-03-30T10:31:11Z</time>
      </trkpt>
      <trkpt lat="45.52931" lon="6.85634">
        <ele>3508.7</ele>
        <time>2021-03-30T10:31:12Z</time>
      </trkpt>
      <trkpt lat="45.52931" lon="6.85633">
        <ele>3508.7</ele>
        <time>2021-03-30T10:31:13Z</time>
      </trkpt>
      <trkpt lat="45.5293" lon="6.85633">
        <ele>3508.7</ele>
        <time>2021-03-30T10:31:14Z</time>
      </trkpt>
      <trkpt lat="45.5293" lon="6.85633">
        <ele>3508.7</ele>
        <time>2021-03-30T10:31:15Z</time>
      </trkpt>
      <trkpt lat="45.52929" lon="6.85633">
        <ele>3510.3</ele>
        <time>2021-03-30T10:31:16Z</time>
      </trkpt>
      <trkpt lat="45.52928" lon="6.85633">
        <ele>3508.6</ele>
        <time>2021-03-30T10:31:17Z</time>
      </trkpt>
      <trkpt lat="45.52928" lon="6.85633">
        <ele>3508.6</ele>
        <time>2021-03-30T10:31:18Z</time>
      </trkpt>
      <trkpt lat="45.52927" lon="6.85633">
        <ele>3508.6</ele>
        <time>2021-03-30T10:31:19Z</time>
      </trkpt>
      <trkpt lat="45.52926" lon="6.85632">
        <ele>3508.6</ele>
        <time>2021-03-30T10:31:20Z</time>
      </trkpt>
      <trkpt lat="45.52926" lon="6.85632">
        <ele>3510.3</ele>
        <time>2021-03-30T10:31:21Z</time>
      </trkpt>
      <trkpt lat="45.52925" lon="6.85632">
        <ele>3510.3</ele>
        <time>2021-03-30T10:31:22Z</time>
      </trkpt>
      <trkpt lat="45.52925" lon="6.85632">
        <ele>3510.3</ele>
        <time>2021-03-30T10:31:23Z</time>
      </trkpt>
      <trkpt lat="45.52924" lon="6.85631">
        <ele>3510.3</ele>
        <time>2021-03-30T10:31:24Z</time>
      </trkpt>
      <trkpt lat="45.52924" lon="6.85631">
        <ele>3510.3</ele>
        <time>2021-03-30T10:31:25Z</time>
      </trkpt>
      <trkpt lat="45.52923" lon="6.85631">
        <ele>3510.3</ele>
        <time>2021-03-30T10:31:26Z</time>
      </trkpt>
      <trkpt lat="45.52923" lon="6.8563">
        <ele>3512.2</ele>
        <time>2021-03-30T10:31:27Z</time>
      </trkpt>
      <trkpt lat="45.52923" lon="6.8563">
        <ele>3512.2</ele>
        <time>2021-03-30T10:31:28Z</time>
      </trkpt>
      <trkpt lat="45.52922" lon="6.8563">
        <ele>3512.2</ele>
        <time>2021-03-30T10:31:29Z</time>
      </trkpt>
      <trkpt lat="45.52922" lon="6.8563">
        <ele>3512.2</ele>
        <time>2021-03-30T10:31:30Z</time>
      </trkpt>
      <trkpt lat="45.52921" lon="6.8563">
        <ele>3512.2</ele>
        <time>2021-03-30T10:31:31Z</time>
      </trkpt>
      <trkpt lat="45.52921" lon="6.8563">
        <ele>3512.2</ele>
        <time>2021-03-30T10:31:32Z</time>
      </trkpt>
      <trkpt lat="45.52921" lon="6.8563">
        <ele>3512.2</ele>
        <time>2021-03-30T10:31:33Z</time>
      </trkpt>
      <trkpt lat="45.5292" lon="6.8563">
        <ele>3512.2</ele>
        <time>2021-03-30T10:31:34Z</time>
      </trkpt>
      <trkpt lat="45.5292" lon="6.8563">
        <ele>3514.1</ele>
        <time>2021-03-30T10:31:35Z</time>
      </trkpt>
      <trkpt lat="45.5292" lon="6.8563">
        <ele>3514.1</ele>
        <time>2021-03-30T10:31:36Z</time>
      </trkpt>
      <trkpt lat="45.52919" lon="6.85629">
        <ele>3514.1</ele>
        <time>2021-03-30T10:31:37Z</time>
      </trkpt>
      <trkpt lat="45.52919" lon="6.85629">
        <ele>3514.1</ele>
        <time>2021-03-30T10:31:38Z</time>
      </trkpt>
      <trkpt lat="45.52918" lon="6.85629">
        <ele>3514.1</ele>
        <time>2021-03-30T10:31:39Z</time>
      </trkpt>
      <trkpt lat="45.52918" lon="6.85629">
        <ele>3514.1</ele>
        <time>2021-03-30T10:31:40Z</time>
      </trkpt>
      <trkpt lat="45.52917" lon="6.85629">
        <ele>3514.1</ele>
        <time>2021-03-30T10:31:41Z</time>
      </trkpt>
      <trkpt lat="45.52917" lon="6.85629">
        <ele>3514.1</ele>
        <time>2021-03-30T10:31:42Z</time>
      </trkpt>
      <trkpt lat="45.52917" lon="6.85629">
        <ele>3516</ele>
        <time>2021-03-30T10:31:43Z</time>
      </trkpt>
      <trkpt lat="45.52916" lon="6.85629">
        <ele>3516</ele>
        <time>2021-03-30T10:31:44Z</time>
      </trkpt>
      <trkpt lat="45.52915" lon="6.85629">
        <ele>3516</ele>
        <time>2021-03-30T10:31:45Z</time>
      </trkpt>
      <trkpt lat="45.52915" lon="6.85629">
        <ele>3516</ele>
        <time>2021-03-30T10:31:46Z</time>
      </trkpt>
      <trkpt lat="45.52915" lon="6.85629">
        <ele>3516</ele>
        <time>2021-03-30T10:31:47Z</time>
      </trkpt>
      <trkpt lat="45.52914" lon="6.85628">
        <ele>3516</ele>
        <time>2021-03-30T10:31:48Z</time>
      </trkpt>
      <trkpt lat="45.52914" lon="6.85628">
        <ele>3516</ele>
        <time>2021-03-30T10:31:49Z</time>
      </trkpt>
      <trkpt lat="45.52913" lon="6.85628">
        <ele>3516</ele>
        <time>2021-03-30T10:31:50Z</time>
      </trkpt>
      <trkpt lat="45.52913" lon="6.85628">
        <ele>3516</ele>
        <time>2021-03-30T10:31:51Z</time>
      </trkpt>
      <trkpt lat="45.52912" lon="6.85628">
        <ele>3516</ele>
        <time>2021-03-30T10:31:52Z</time>
      </trkpt>
      <trkpt lat="45.52912" lon="6.85628">
        <ele>3516</ele>
        <time>2021-03-30T10:31:53Z</time>
      </trkpt>
      <trkpt lat="45.52911" lon="6.85628">
        <ele>3517.7</ele>
        <time>2021-03-30T10:31:54Z</time>
      </trkpt>
      <trkpt lat="45.5291" lon="6.85628">
        <ele>3517.7</ele>
        <time>2021-03-30T10:31:55Z</time>
      </trkpt>
      <trkpt lat="45.5291" lon="6.85628">
        <ele>3517.7</ele>
        <time>2021-03-30T10:31:56Z</time>
      </trkpt>
      <trkpt lat="45.52909" lon="6.85628">
        <ele>3517.7</ele>
        <time>2021-03-30T10:31:57Z</time>
      </trkpt>
      <trkpt lat="45.52909" lon="6.85628">
        <ele>3517.7</ele>
        <time>2021-03-30T10:31:58Z</time>
      </trkpt>
      <trkpt lat="45.52908" lon="6.85627">
        <ele>3517.7</ele>
        <time>2021-03-30T10:31:59Z</time>
      </trkpt>
      <trkpt lat="45.52908" lon="6.85627">
        <ele>3519.4</ele>
        <time>2021-03-30T10:32:00Z</time>
      </trkpt>
      <trkpt lat="45.52907" lon="6.85626">
        <ele>3519.4</ele>
        <time>2021-03-30T10:32:01Z</time>
      </trkpt>
      <trkpt lat="45.52907" lon="6.85626">
        <ele>3519.4</ele>
        <time>2021-03-30T10:32:02Z</time>
      </trkpt>
      <trkpt lat="45.52906" lon="6.85626">
        <ele>3519.4</ele>
        <time>2021-03-30T10:32:03Z</time>
      </trkpt>
      <trkpt lat="45.52906" lon="6.85625">
        <ele>3519.4</ele>
        <time>2021-03-30T10:32:04Z</time>
      </trkpt>
      <trkpt lat="45.52905" lon="6.85625">
        <ele>3519.4</ele>
        <time>2021-03-30T10:32:05Z</time>
      </trkpt>
      <trkpt lat="45.52904" lon="6.85625">
        <ele>3521</ele>
        <time>2021-03-30T10:32:06Z</time>
      </trkpt>
      <trkpt lat="45.52904" lon="6.85625">
        <ele>3521</ele>
        <time>2021-03-30T10:32:07Z</time>
      </trkpt>
      <trkpt lat="45.52903" lon="6.85624">
        <ele>3521</ele>
        <time>2021-03-30T10:32:08Z</time>
      </trkpt>
      <trkpt lat="45.52903" lon="6.85624">
        <ele>3519.3</ele>
        <time>2021-03-30T10:32:09Z</time>
      </trkpt>
      <trkpt lat="45.52902" lon="6.85624">
        <ele>3519.3</ele>
        <time>2021-03-30T10:32:10Z</time>
      </trkpt>
      <trkpt lat="45.52902" lon="6.85623">
        <ele>3519.3</ele>
        <time>2021-03-30T10:32:11Z</time>
      </trkpt>
      <trkpt lat="45.52902" lon="6.85622">
        <ele>3521</ele>
        <time>2021-03-30T10:32:12Z</time>
      </trkpt>
      <trkpt lat="45.52901" lon="6.85622">
        <ele>3521</ele>
        <time>2021-03-30T10:32:13Z</time>
      </trkpt>
      <trkpt lat="45.52901" lon="6.85622">
        <ele>3521</ele>
        <time>2021-03-30T10:32:14Z</time>
      </trkpt>
      <trkpt lat="45.52901" lon="6.85622">
        <ele>3521</ele>
        <time>2021-03-30T10:32:15Z</time>
      </trkpt>
      <trkpt lat="45.52901" lon="6.85622">
        <ele>3521</ele>
        <time>2021-03-30T10:32:16Z</time>
      </trkpt>
      <trkpt lat="45.52901" lon="6.85622">
        <ele>3521</ele>
        <time>2021-03-30T10:32:17Z</time>
      </trkpt>
      <trkpt lat="45.52901" lon="6.85622">
        <ele>3521</ele>
        <time>2021-03-30T10:32:18Z</time>
      </trkpt>
      <trkpt lat="45.529" lon="6.85621">
        <ele>3521</ele>
        <time>2021-03-30T10:32:19Z</time>
      </trkpt>
      <trkpt lat="45.529" lon="6.85621">
        <ele>3521</ele>
        <time>2021-03-30T10:32:20Z</time>
      </trkpt>
      <trkpt lat="45.529" lon="6.85621">
        <ele>3521</ele>
        <time>2021-03-30T10:32:21Z</time>
      </trkpt>
      <trkpt lat="45.52899" lon="6.85621">
        <ele>3521</ele>
        <time>2021-03-30T10:32:22Z</time>
      </trkpt>
      <trkpt lat="45.52899" lon="6.85621">
        <ele>3521</ele>
        <time>2021-03-30T10:32:23Z</time>
      </trkpt>
      <trkpt lat="45.52899" lon="6.85621">
        <ele>3521</ele>
        <time>2021-03-30T10:32:24Z</time>
      </trkpt>
      <trkpt lat="45.52899" lon="6.85621">
        <ele>3521</ele>
        <time>2021-03-30T10:32:25Z</time>
      </trkpt>
      <trkpt lat="45.52899" lon="6.85621">
        <ele>3521</ele>
        <time>2021-03-30T10:32:26Z</time>
      </trkpt>
      <trkpt lat="45.52898" lon="6.85621">
        <ele>3522.7</ele>
        <time>2021-03-30T10:32:27Z</time>
      </trkpt>
      <trkpt lat="45.52898" lon="6.85621">
        <ele>3522.7</ele>
        <time>2021-03-30T10:32:28Z</time>
      </trkpt>
      <trkpt lat="45.52898" lon="6.85621">
        <ele>3522.7</ele>
        <time>2021-03-30T10:32:29Z</time>
      </trkpt>
      <trkpt lat="45.52898" lon="6.8562">
        <ele>3522.7</ele>
        <time>2021-03-30T10:32:44Z</time>
      </trkpt>
      <trkpt lat="45.52898" lon="6.8562">
        <ele>3522.7</ele>
        <time>2021-03-30T10:32:45Z</time>
      </trkpt>
      <trkpt lat="45.52898" lon="6.8562">
        <ele>3522.7</ele>
        <time>2021-03-30T10:32:46Z</time>
      </trkpt>
      <trkpt lat="45.52898" lon="6.85622">
        <ele>3522.7</ele>
        <time>2021-03-30T10:32:47Z</time>
      </trkpt>
      <trkpt lat="45.52899" lon="6.85622">
        <ele>3522.7</ele>
        <time>2021-03-30T10:32:48Z</time>
      </trkpt>
      <trkpt lat="45.52899" lon="6.85623">
        <ele>3522.7</ele>
        <time>2021-03-30T10:32:49Z</time>
      </trkpt>
      <trkpt lat="45.52899" lon="6.85624">
        <ele>3524.4</ele>
        <time>2021-03-30T10:32:50Z</time>
      </trkpt>
      <trkpt lat="45.52899" lon="6.85626">
        <ele>3524.4</ele>
        <time>2021-03-30T10:32:51Z</time>
      </trkpt>
      <trkpt lat="45.52899" lon="6.85627">
        <ele>3524.4</ele>
        <time>2021-03-30T10:32:52Z</time>
      </trkpt>
      <trkpt lat="45.52899" lon="6.85628">
        <ele>3524.4</ele>
        <time>2021-03-30T10:32:53Z</time>
      </trkpt>
      <trkpt lat="45.52899" lon="6.85629">
        <ele>3526</ele>
        <time>2021-03-30T10:32:55Z</time>
      </trkpt>
      <trkpt lat="45.52898" lon="6.8563">
        <ele>3526</ele>
        <time>2021-03-30T10:32:56Z</time>
      </trkpt>
      <trkpt lat="45.52898" lon="6.85631">
        <ele>3526</ele>
        <time>2021-03-30T10:32:57Z</time>
      </trkpt>
      <trkpt lat="45.52898" lon="6.85632">
        <ele>3526</ele>
        <time>2021-03-30T10:32:58Z</time>
      </trkpt>
      <trkpt lat="45.52898" lon="6.85633">
        <ele>3526</ele>
        <time>2021-03-30T10:32:59Z</time>
      </trkpt>
      <trkpt lat="45.52898" lon="6.85635">
        <ele>3527.6</ele>
        <time>2021-03-30T10:33:00Z</time>
      </trkpt>
      <trkpt lat="45.52898" lon="6.85637">
        <ele>3527.6</ele>
        <time>2021-03-30T10:33:01Z</time>
      </trkpt>
      <trkpt lat="45.52898" lon="6.85638">
        <ele>3529.1</ele>
        <time>2021-03-30T10:33:02Z</time>
      </trkpt>
      <trkpt lat="45.52898" lon="6.8564">
        <ele>3529.1</ele>
        <time>2021-03-30T10:33:03Z</time>
      </trkpt>
      <trkpt lat="45.52898" lon="6.85642">
        <ele>3530.6</ele>
        <time>2021-03-30T10:33:04Z</time>
      </trkpt>
      <trkpt lat="45.52898" lon="6.85644">
        <ele>3530.6</ele>
        <time>2021-03-30T10:33:19Z</time>
      </trkpt>
      <trkpt lat="45.52898" lon="6.85645">
        <ele>3530.6</ele>
        <time>2021-03-30T10:33:20Z</time>
      </trkpt>
      <trkpt lat="45.52898" lon="6.85647">
        <ele>3532.1</ele>
        <time>2021-03-30T10:33:21Z</time>
      </trkpt>
      <trkpt lat="45.52898" lon="6.85649">
        <ele>3532.1</ele>
        <time>2021-03-30T10:33:22Z</time>
      </trkpt>
      <trkpt lat="45.52898" lon="6.85651">
        <ele>3533.5</ele>
        <time>2021-03-30T10:33:23Z</time>
      </trkpt>
      <trkpt lat="45.52898" lon="6.85652">
        <ele>3533.5</ele>
        <time>2021-03-30T10:33:24Z</time>
      </trkpt>
      <trkpt lat="45.52898" lon="6.85654">
        <ele>3533.5</ele>
        <time>2021-03-30T10:33:25Z</time>
      </trkpt>
      <trkpt lat="45.52899" lon="6.85655">
        <ele>3535.1</ele>
        <time>2021-03-30T10:33:26Z</time>
      </trkpt>
      <trkpt lat="45.52899" lon="6.85656">
        <ele>3533.5</ele>
        <time>2021-03-30T10:33:27Z</time>
      </trkpt>
      <trkpt lat="45.529" lon="6.85657">
        <ele>3533.5</ele>
        <time>2021-03-30T10:33:28Z</time>
      </trkpt>
      <trkpt lat="45.529" lon="6.85657">
        <ele>3533.5</ele>
        <time>2021-03-30T10:33:29Z</time>
      </trkpt>
      <trkpt lat="45.529" lon="6.85658">
        <ele>3533.5</ele>
        <time>2021-03-30T10:33:33Z</time>
      </trkpt>
      <trkpt lat="45.52901" lon="6.85659">
        <ele>3535.2</ele>
        <time>2021-03-30T10:33:34Z</time>
      </trkpt>
      <trkpt lat="45.52901" lon="6.85659">
        <ele>3535.2</ele>
        <time>2021-03-30T10:33:35Z</time>
      </trkpt>
      <trkpt lat="45.52901" lon="6.8566">
        <ele>3535.2</ele>
        <time>2021-03-30T10:33:36Z</time>
      </trkpt>
      <trkpt lat="45.52902" lon="6.8566">
        <ele>3535.2</ele>
        <time>2021-03-30T10:33:37Z</time>
      </trkpt>
      <trkpt lat="45.52903" lon="6.85664">
        <ele>3535.5</ele>
        <time>2021-03-30T10:33:38Z</time>
      </trkpt>
      <trkpt lat="45.52905" lon="6.85667">
        <ele>3535.5</ele>
        <time>2021-03-30T10:33:39Z</time>
      </trkpt>
      <trkpt lat="45.52907" lon="6.8567">
        <ele>3535.8</ele>
        <time>2021-03-30T10:33:40Z</time>
      </trkpt>
      <trkpt lat="45.52908" lon="6.85673">
        <ele>3536.1</ele>
        <time>2021-03-30T10:33:41Z</time>
      </trkpt>
      <trkpt lat="45.5291" lon="6.85676">
        <ele>3537.8</ele>
        <time>2021-03-30T10:33:42Z</time>
      </trkpt>
      <trkpt lat="45.52911" lon="6.85679">
        <ele>3536.2</ele>
        <time>2021-03-30T10:35:00Z</time>
      </trkpt>
      <trkpt lat="45.52913" lon="6.85682">
        <ele>3537.9</ele>
        <time>2021-03-30T10:35:01Z</time>
      </trkpt>
      <trkpt lat="45.52915" lon="6.85685">
        <ele>3537.9</ele>
        <time>2021-03-30T10:35:02Z</time>
      </trkpt>
      <trkpt lat="45.52916" lon="6.85688">
        <ele>3537.9</ele>
        <time>2021-03-30T10:35:03Z</time>
      </trkpt>
      <trkpt lat="45.52917" lon="6.85689">
        <ele>3539.6</ele>
        <time>2021-03-30T10:35:04Z</time>
      </trkpt>
      <trkpt lat="45.52917" lon="6.8569">
        <ele>3539.6</ele>
        <time>2021-03-30T10:35:05Z</time>
      </trkpt>
      <trkpt lat="45.52917" lon="6.85691">
        <ele>3537.9</ele>
        <time>2021-03-30T10:35:06Z</time>
      </trkpt>
      <trkpt lat="45.52918" lon="6.85692">
        <ele>3537.9</ele>
        <time>2021-03-30T10:35:07Z</time>
      </trkpt>
      <trkpt lat="45.52918" lon="6.85693">
        <ele>3539.7</ele>
        <time>2021-03-30T10:35:08Z</time>
      </trkpt>
      <trkpt lat="45.52918" lon="6.85693">
        <ele>3539.7</ele>
        <time>2021-03-30T10:35:09Z</time>
      </trkpt>
      <trkpt lat="45.52918" lon="6.85693">
        <ele>3539.7</ele>
        <time>2021-03-30T10:35:10Z</time>
      </trkpt>
      <trkpt lat="45.52919" lon="6.85694">
        <ele>3539.7</ele>
        <time>2021-03-30T10:35:11Z</time>
      </trkpt>
      <trkpt lat="45.52919" lon="6.85695">
        <ele>3539.7</ele>
        <time>2021-03-30T10:35:12Z</time>
      </trkpt>
      <trkpt lat="45.5292" lon="6.85696">
        <ele>3539.7</ele>
        <time>2021-03-30T10:35:13Z</time>
      </trkpt>
      <trkpt lat="45.52921" lon="6.85697">
        <ele>3538</ele>
        <time>2021-03-30T10:35:14Z</time>
      </trkpt>
      <trkpt lat="45.52922" lon="6.85698">
        <ele>3539.8</ele>
        <time>2021-03-30T10:35:15Z</time>
      </trkpt>
      <trkpt lat="45.52923" lon="6.85698">
        <ele>3538.2</ele>
        <time>2021-03-30T10:35:16Z</time>
      </trkpt>
      <trkpt lat="45.52924" lon="6.85699">
        <ele>3538.2</ele>
        <time>2021-03-30T10:35:17Z</time>
      </trkpt>
      <trkpt lat="45.52925" lon="6.857">
        <ele>3538.2</ele>
        <time>2021-03-30T10:35:18Z</time>
      </trkpt>
      <trkpt lat="45.52926" lon="6.85701">
        <ele>3538.2</ele>
        <time>2021-03-30T10:35:30Z</time>
      </trkpt>
      <trkpt lat="45.52927" lon="6.85702">
        <ele>3538.6</ele>
        <time>2021-03-30T10:35:31Z</time>
      </trkpt>
      <trkpt lat="45.52928" lon="6.85702">
        <ele>3538.6</ele>
        <time>2021-03-30T10:35:32Z</time>
      </trkpt>
      <trkpt lat="45.52929" lon="6.85703">
        <ele>3538.6</ele>
        <time>2021-03-30T10:35:33Z</time>
      </trkpt>
      <trkpt lat="45.5293" lon="6.85704">
        <ele>3537.2</ele>
        <time>2021-03-30T10:35:34Z</time>
      </trkpt>
      <trkpt lat="45.5293" lon="6.85705">
        <ele>3537.2</ele>
        <time>2021-03-30T10:35:35Z</time>
      </trkpt>
      <trkpt lat="45.5293" lon="6.85706">
        <ele>3539.2</ele>
        <time>2021-03-30T10:35:36Z</time>
      </trkpt>
      <trkpt lat="45.52931" lon="6.85707">
        <ele>3539.2</ele>
        <time>2021-03-30T10:35:37Z</time>
      </trkpt>
      <trkpt lat="45.52931" lon="6.85708">
        <ele>3539.2</ele>
        <time>2021-03-30T10:35:38Z</time>
      </trkpt>
      <trkpt lat="45.52931" lon="6.85709">
        <ele>3539.2</ele>
        <time>2021-03-30T10:35:39Z</time>
      </trkpt>
      <trkpt lat="45.52932" lon="6.8571">
        <ele>3539.2</ele>
        <time>2021-03-30T10:35:40Z</time>
      </trkpt>
      <trkpt lat="45.52932" lon="6.8571">
        <ele>3541.3</ele>
        <time>2021-03-30T10:35:41Z</time>
      </trkpt>
      <trkpt lat="45.52932" lon="6.85711">
        <ele>3540</ele>
        <time>2021-03-30T10:35:42Z</time>
      </trkpt>
      <trkpt lat="45.52933" lon="6.85711">
        <ele>3540</ele>
        <time>2021-03-30T10:35:43Z</time>
      </trkpt>
      <trkpt lat="45.52933" lon="6.85711">
        <ele>3540</ele>
        <time>2021-03-30T10:35:44Z</time>
      </trkpt>
      <trkpt lat="45.52933" lon="6.85712">
        <ele>3540</ele>
        <time>2021-03-30T10:35:45Z</time>
      </trkpt>
      <trkpt lat="45.52933" lon="6.85712">
        <ele>3540</ele>
        <time>2021-03-30T10:35:46Z</time>
      </trkpt>
      <trkpt lat="45.52934" lon="6.85714">
        <ele>3540</ele>
        <time>2021-03-30T10:35:47Z</time>
      </trkpt>
      <trkpt lat="45.52934" lon="6.85715">
        <ele>3542.1</ele>
        <time>2021-03-30T10:35:48Z</time>
      </trkpt>
      <trkpt lat="45.52935" lon="6.85717">
        <ele>3540.7</ele>
        <time>2021-03-30T10:36:35Z</time>
      </trkpt>
      <trkpt lat="45.52936" lon="6.85718">
        <ele>3540.7</ele>
        <time>2021-03-30T10:36:36Z</time>
      </trkpt>
      <trkpt lat="45.52937" lon="6.85719">
        <ele>3542.8</ele>
        <time>2021-03-30T10:36:37Z</time>
      </trkpt>
      <trkpt lat="45.52938" lon="6.8572">
        <ele>3542.8</ele>
        <time>2021-03-30T10:36:38Z</time>
      </trkpt>
      <trkpt lat="45.52938" lon="6.85722">
        <ele>3541.3</ele>
        <time>2021-03-30T10:36:39Z</time>
      </trkpt>
      <trkpt lat="45.52938" lon="6.85721">
        <ele>3542.8</ele>
        <time>2021-03-30T10:36:40Z</time>
      </trkpt>
      <trkpt lat="45.52938" lon="6.85721">
        <ele>3542.8</ele>
        <time>2021-03-30T10:36:41Z</time>
      </trkpt>
      <trkpt lat="45.52937" lon="6.8572">
        <ele>3542.8</ele>
        <time>2021-03-30T10:36:42Z</time>
      </trkpt>
      <trkpt lat="45.52937" lon="6.8572">
        <ele>3542.8</ele>
        <time>2021-03-30T10:36:43Z</time>
      </trkpt>
      <trkpt lat="45.52937" lon="6.85719">
        <ele>3542.8</ele>
        <time>2021-03-30T10:36:44Z</time>
      </trkpt>
      <trkpt lat="45.52936" lon="6.85719">
        <ele>3542.8</ele>
        <time>2021-03-30T10:37:46Z</time>
      </trkpt>
      <trkpt lat="45.52936" lon="6.85718">
        <ele>3540.7</ele>
        <time>2021-03-30T10:37:47Z</time>
      </trkpt>
      <trkpt lat="45.52936" lon="6.85718">
        <ele>3540.7</ele>
        <time>2021-03-30T10:37:48Z</time>
      </trkpt>
      <trkpt lat="45.52935" lon="6.85717">
        <ele>3540.7</ele>
        <time>2021-03-30T10:37:49Z</time>
      </trkpt>
      <trkpt lat="45.52935" lon="6.85717">
        <ele>3542.1</ele>
        <time>2021-03-30T10:37:50Z</time>
      </trkpt>
      <trkpt lat="45.52935" lon="6.85716">
        <ele>3542.1</ele>
        <time>2021-03-30T10:37:51Z</time>
      </trkpt>
      <trkpt lat="45.52934" lon="6.85716">
        <ele>3542.1</ele>
        <time>2021-03-30T10:37:52Z</time>
      </trkpt>
      <trkpt lat="45.52934" lon="6.85715">
        <ele>3542.1</ele>
        <time>2021-03-30T10:37:53Z</time>
      </trkpt>
      <trkpt lat="45.52934" lon="6.85715">
        <ele>3542.1</ele>
        <time>2021-03-30T10:37:54Z</time>
      </trkpt>
      <trkpt lat="45.52933" lon="6.85714">
        <ele>3540</ele>
        <time>2021-03-30T10:37:55Z</time>
      </trkpt>
      <trkpt lat="45.52933" lon="6.85714">
        <ele>3540</ele>
        <time>2021-03-30T10:38:16Z</time>
      </trkpt>
      <trkpt lat="45.52933" lon="6.85713">
        <ele>3540</ele>
        <time>2021-03-30T10:38:17Z</time>
      </trkpt>
      <trkpt lat="45.52932" lon="6.85713">
        <ele>3540</ele>
        <time>2021-03-30T10:38:18Z</time>
      </trkpt>
      <trkpt lat="45.52932" lon="6.85712">
        <ele>3541.3</ele>
        <time>2021-03-30T10:38:19Z</time>
      </trkpt>
      <trkpt lat="45.52931" lon="6.85711">
        <ele>3541.3</ele>
        <time>2021-03-30T10:38:20Z</time>
      </trkpt>
      <trkpt lat="45.52931" lon="6.85711">
        <ele>3541.3</ele>
        <time>2021-03-30T10:38:21Z</time>
      </trkpt>
      <trkpt lat="45.5293" lon="6.8571">
        <ele>3541.3</ele>
        <time>2021-03-30T10:38:22Z</time>
      </trkpt>
      <trkpt lat="45.5293" lon="6.8571">
        <ele>3539.2</ele>
        <time>2021-03-30T10:38:23Z</time>
      </trkpt>
      <trkpt lat="45.5293" lon="6.85709">
        <ele>3539.2</ele>
        <time>2021-03-30T10:38:24Z</time>
      </trkpt>
      <trkpt lat="45.52929" lon="6.85709">
        <ele>3539.2</ele>
        <time>2021-03-30T10:38:25Z</time>
      </trkpt>
      <trkpt lat="45.52929" lon="6.85708">
        <ele>3540.6</ele>
        <time>2021-03-30T10:38:26Z</time>
      </trkpt>
      <trkpt lat="45.52928" lon="6.85708">
        <ele>3540.6</ele>
        <time>2021-03-30T10:38:27Z</time>
      </trkpt>
      <trkpt lat="45.52928" lon="6.85707">
        <ele>3540.6</ele>
        <time>2021-03-30T10:38:28Z</time>
      </trkpt>
      <trkpt lat="45.52927" lon="6.85707">
        <ele>3540.6</ele>
        <time>2021-03-30T10:38:29Z</time>
      </trkpt>
      <trkpt lat="45.52927" lon="6.85706">
        <ele>3540.6</ele>
        <time>2021-03-30T10:38:30Z</time>
      </trkpt>
      <trkpt lat="45.52926" lon="6.85705">
        <ele>3538.6</ele>
        <time>2021-03-30T10:38:31Z</time>
      </trkpt>
      <trkpt lat="45.52926" lon="6.85705">
        <ele>3540.1</ele>
        <time>2021-03-30T10:38:32Z</time>
      </trkpt>
      <trkpt lat="45.52925" lon="6.85705">
        <ele>3540.1</ele>
        <time>2021-03-30T10:38:33Z</time>
      </trkpt>
      <trkpt lat="45.52925" lon="6.85705">
        <ele>3540.1</ele>
        <time>2021-03-30T10:38:34Z</time>
      </trkpt>
      <trkpt lat="45.52925" lon="6.85705">
        <ele>3540.1</ele>
        <time>2021-03-30T10:38:35Z</time>
      </trkpt>
      <trkpt lat="45.52924" lon="6.85704">
        <ele>3540.1</ele>
        <time>2021-03-30T10:38:36Z</time>
      </trkpt>
      <trkpt lat="45.52924" lon="6.85703">
        <ele>3540.1</ele>
        <time>2021-03-30T10:38:37Z</time>
      </trkpt>
      <trkpt lat="45.52924" lon="6.85703">
        <ele>3540.1</ele>
        <time>2021-03-30T10:38:38Z</time>
      </trkpt>
      <trkpt lat="45.52924" lon="6.85702">
        <ele>3540.1</ele>
        <time>2021-03-30T10:38:39Z</time>
      </trkpt>
      <trkpt lat="45.52923" lon="6.85702">
        <ele>3540.1</ele>
        <time>2021-03-30T10:38:40Z</time>
      </trkpt>
      <trkpt lat="45.52923" lon="6.85701">
        <ele>3538.2</ele>
        <time>2021-03-30T10:38:41Z</time>
      </trkpt>
      <trkpt lat="45.52923" lon="6.857">
        <ele>3539.8</ele>
        <time>2021-03-30T10:38:42Z</time>
      </trkpt>
      <trkpt lat="45.52922" lon="6.857">
        <ele>3539.8</ele>
        <time>2021-03-30T10:38:43Z</time>
      </trkpt>
      <trkpt lat="45.52922" lon="6.85699">
        <ele>3539.8</ele>
        <time>2021-03-30T10:38:44Z</time>
      </trkpt>
      <trkpt lat="45.52922" lon="6.85698">
        <ele>3539.8</ele>
        <time>2021-03-30T10:38:45Z</time>
      </trkpt>
      <trkpt lat="45.52921" lon="6.85698">
        <ele>3539.8</ele>
        <time>2021-03-30T10:38:46Z</time>
      </trkpt>
      <trkpt lat="45.52921" lon="6.85697">
        <ele>3539.8</ele>
        <time>2021-03-30T10:38:47Z</time>
      </trkpt>
      <trkpt lat="45.52921" lon="6.85697">
        <ele>3538</ele>
        <time>2021-03-30T10:38:48Z</time>
      </trkpt>
      <trkpt lat="45.52921" lon="6.85696">
        <ele>3538</ele>
        <time>2021-03-30T10:38:49Z</time>
      </trkpt>
      <trkpt lat="45.5292" lon="6.85696">
        <ele>3538</ele>
        <time>2021-03-30T10:38:50Z</time>
      </trkpt>
      <trkpt lat="45.5292" lon="6.85695">
        <ele>3538</ele>
        <time>2021-03-30T10:38:51Z</time>
      </trkpt>
      <trkpt lat="45.5292" lon="6.85694">
        <ele>3538</ele>
        <time>2021-03-30T10:38:52Z</time>
      </trkpt>
      <trkpt lat="45.5292" lon="6.85694">
        <ele>3539.7</ele>
        <time>2021-03-30T10:38:53Z</time>
      </trkpt>
      <trkpt lat="45.52919" lon="6.85693">
        <ele>3539.7</ele>
        <time>2021-03-30T10:38:54Z</time>
      </trkpt>
      <trkpt lat="45.52919" lon="6.85692">
        <ele>3537.9</ele>
        <time>2021-03-30T10:38:55Z</time>
      </trkpt>
      <trkpt lat="45.52919" lon="6.85691">
        <ele>3537.9</ele>
        <time>2021-03-30T10:38:56Z</time>
      </trkpt>
      <trkpt lat="45.52918" lon="6.85691">
        <ele>3537.9</ele>
        <time>2021-03-30T10:38:57Z</time>
      </trkpt>
      <trkpt lat="45.52918" lon="6.85691">
        <ele>3537.9</ele>
        <time>2021-03-30T10:38:58Z</time>
      </trkpt>
      <trkpt lat="45.52917" lon="6.85691">
        <ele>3539.6</ele>
        <time>2021-03-30T10:38:59Z</time>
      </trkpt>
      <trkpt lat="45.52917" lon="6.85691">
        <ele>3539.6</ele>
        <time>2021-03-30T10:39:00Z</time>
      </trkpt>
      <trkpt lat="45.52916" lon="6.85691">
        <ele>3539.6</ele>
        <time>2021-03-30T10:39:01Z</time>
      </trkpt>
      <trkpt lat="45.52916" lon="6.85691">
        <ele>3539.6</ele>
        <time>2021-03-30T10:39:02Z</time>
      </trkpt>
      <trkpt lat="45.52915" lon="6.85691">
        <ele>3539.6</ele>
        <time>2021-03-30T10:39:03Z</time>
      </trkpt>
      <trkpt lat="45.52915" lon="6.85691">
        <ele>3539.6</ele>
        <time>2021-03-30T10:39:04Z</time>
      </trkpt>
      <trkpt lat="45.52914" lon="6.85691">
        <ele>3539.6</ele>
        <time>2021-03-30T10:39:05Z</time>
      </trkpt>
      <trkpt lat="45.52914" lon="6.85691">
        <ele>3541.3</ele>
        <time>2021-03-30T10:39:06Z</time>
      </trkpt>
      <trkpt lat="45.52913" lon="6.85691">
        <ele>3541.3</ele>
        <time>2021-03-30T10:39:11Z</time>
      </trkpt>
      <trkpt lat="45.52913" lon="6.85691">
        <ele>3541.3</ele>
        <time>2021-03-30T10:39:12Z</time>
      </trkpt>
      <trkpt lat="45.52912" lon="6.85691">
        <ele>3541.3</ele>
        <time>2021-03-30T10:39:13Z</time>
      </trkpt>
      <trkpt lat="45.52912" lon="6.85691">
        <ele>3541.3</ele>
        <time>2021-03-30T10:39:14Z</time>
      </trkpt>
      <trkpt lat="45.52911" lon="6.85691">
        <ele>3541.3</ele>
        <time>2021-03-30T10:39:15Z</time>
      </trkpt>
      <trkpt lat="45.52911" lon="6.85691">
        <ele>3542.8</ele>
        <time>2021-03-30T10:39:16Z</time>
      </trkpt>
      <trkpt lat="45.52911" lon="6.85694">
        <ele>3544.5</ele>
        <time>2021-03-30T10:39:17Z</time>
      </trkpt>
      <trkpt lat="45.52911" lon="6.85697">
        <ele>3544.5</ele>
        <time>2021-03-30T10:39:18Z</time>
      </trkpt>
      <trkpt lat="45.52911" lon="6.85699">
        <ele>3544.8</ele>
        <time>2021-03-30T10:39:19Z</time>
      </trkpt>
      <trkpt lat="45.52912" lon="6.85701">
        <ele>3544.8</ele>
        <time>2021-03-30T10:39:20Z</time>
      </trkpt>
      <trkpt lat="45.52912" lon="6.85703">
        <ele>3546.7</ele>
        <time>2021-03-30T10:39:48Z</time>
      </trkpt>
      <trkpt lat="45.52913" lon="6.85706">
        <ele>3548.7</ele>
        <time>2021-03-30T10:39:49Z</time>
      </trkpt>
      <trkpt lat="45.52913" lon="6.85708">
        <ele>3548.7</ele>
        <time>2021-03-30T10:39:50Z</time>
      </trkpt>
      <trkpt lat="45.52913" lon="6.8571">
        <ele>3550.8</ele>
        <time>2021-03-30T10:39:51Z</time>
      </trkpt>
      <trkpt lat="45.52914" lon="6.85713">
        <ele>3550.8</ele>
        <time>2021-03-30T10:39:52Z</time>
      </trkpt>
      <trkpt lat="45.52914" lon="6.85715">
        <ele>3553</ele>
        <time>2021-03-30T10:39:53Z</time>
      </trkpt>
      <trkpt lat="45.52914" lon="6.85717">
        <ele>3551.4</ele>
        <time>2021-03-30T10:39:54Z</time>
      </trkpt>
      <trkpt lat="45.52915" lon="6.8572">
        <ele>3553.5</ele>
        <time>2021-03-30T10:39:55Z</time>
      </trkpt>
      <trkpt lat="45.52915" lon="6.85722">
        <ele>3553.5</ele>
        <time>2021-03-30T10:39:56Z</time>
      </trkpt>
      <trkpt lat="45.52916" lon="6.85724">
        <ele>3555.6</ele>
        <time>2021-03-30T10:39:57Z</time>
      </trkpt>
      <trkpt lat="45.52916" lon="6.85727">
        <ele>3555.6</ele>
        <time>2021-03-30T10:41:51Z</time>
      </trkpt>
      <trkpt lat="45.52916" lon="6.85729">
        <ele>3557.6</ele>
        <time>2021-03-30T10:41:52Z</time>
      </trkpt>
      <trkpt lat="45.52917" lon="6.85731">
        <ele>3557.6</ele>
        <time>2021-03-30T10:41:53Z</time>
      </trkpt>
      <trkpt lat="45.52917" lon="6.85734">
        <ele>3559.5</ele>
        <time>2021-03-30T10:41:54Z</time>
      </trkpt>
      <trkpt lat="45.52917" lon="6.85736">
        <ele>3559.6</ele>
        <time>2021-03-30T10:41:55Z</time>
      </trkpt>
      <trkpt lat="45.52918" lon="6.85738">
        <ele>3559.6</ele>
        <time>2021-03-30T10:41:56Z</time>
      </trkpt>
      <trkpt lat="45.52918" lon="6.8574">
        <ele>3561.4</ele>
        <time>2021-03-30T10:41:57Z</time>
      </trkpt>
      <trkpt lat="45.52918" lon="6.85741">
        <ele>3561.4</ele>
        <time>2021-03-30T10:41:58Z</time>
      </trkpt>
      <trkpt lat="45.52917" lon="6.85741">
        <ele>3563.2</ele>
        <time>2021-03-30T10:41:59Z</time>
      </trkpt>
      <trkpt lat="45.52916" lon="6.85741">
        <ele>3563.2</ele>
        <time>2021-03-30T10:42:00Z</time>
      </trkpt>
      <trkpt lat="45.52916" lon="6.85742">
        <ele>3563.2</ele>
        <time>2021-03-30T10:42:01Z</time>
      </trkpt>
      <trkpt lat="45.52915" lon="6.85742">
        <ele>3563.2</ele>
        <time>2021-03-30T10:43:42Z</time>
      </trkpt>
      <trkpt lat="45.52914" lon="6.85742">
        <ele>3563.2</ele>
        <time>2021-03-30T10:43:43Z</time>
      </trkpt>
      <trkpt lat="45.52914" lon="6.85742">
        <ele>3564.9</ele>
        <time>2021-03-30T10:43:44Z</time>
      </trkpt>
      <trkpt lat="45.52913" lon="6.85743">
        <ele>3564.9</ele>
        <time>2021-03-30T10:43:45Z</time>
      </trkpt>
      <trkpt lat="45.52913" lon="6.85743">
        <ele>3564.9</ele>
        <time>2021-03-30T10:43:46Z</time>
      </trkpt>
      <trkpt lat="45.52912" lon="6.85743">
        <ele>3564.9</ele>
        <time>2021-03-30T10:43:47Z</time>
      </trkpt>
      <trkpt lat="45.52912" lon="6.85743">
        <ele>3564.9</ele>
        <time>2021-03-30T10:43:48Z</time>
      </trkpt>
      <trkpt lat="45.52911" lon="6.85743">
        <ele>3566.6</ele>
        <time>2021-03-30T10:43:49Z</time>
      </trkpt>
      <trkpt lat="45.52911" lon="6.85743">
        <ele>3566.6</ele>
        <time>2021-03-30T10:43:50Z</time>
      </trkpt>
      <trkpt lat="45.5291" lon="6.85742">
        <ele>3566.6</ele>
        <time>2021-03-30T10:43:51Z</time>
      </trkpt>
      <trkpt lat="45.5291" lon="6.85742">
        <ele>3566.6</ele>
        <time>2021-03-30T10:43:52Z</time>
      </trkpt>
      <trkpt lat="45.52909" lon="6.85741">
        <ele>3566.6</ele>
        <time>2021-03-30T10:43:53Z</time>
      </trkpt>
      <trkpt lat="45.52909" lon="6.85741">
        <ele>3566.6</ele>
        <time>2021-03-30T10:43:54Z</time>
      </trkpt>
      <trkpt lat="45.52908" lon="6.85741">
        <ele>3566.6</ele>
        <time>2021-03-30T10:43:55Z</time>
      </trkpt>
      <trkpt lat="45.52908" lon="6.8574">
        <ele>3568.2</ele>
        <time>2021-03-30T10:43:56Z</time>
      </trkpt>
      <trkpt lat="45.52908" lon="6.8574">
        <ele>3568.2</ele>
        <time>2021-03-30T10:43:57Z</time>
      </trkpt>
      <trkpt lat="45.52907" lon="6.8574">
        <ele>3566.3</ele>
        <time>2021-03-30T10:43:58Z</time>
      </trkpt>
      <trkpt lat="45.52907" lon="6.8574">
        <ele>3566.3</ele>
        <time>2021-03-30T10:43:59Z</time>
      </trkpt>
      <trkpt lat="45.52906" lon="6.8574">
        <ele>3566.3</ele>
        <time>2021-03-30T10:44:00Z</time>
      </trkpt>
      <trkpt lat="45.52906" lon="6.8574">
        <ele>3568.2</ele>
        <time>2021-03-30T10:44:01Z</time>
      </trkpt>
      <trkpt lat="45.52905" lon="6.8574">
        <ele>3569.9</ele>
        <time>2021-03-30T10:44:02Z</time>
      </trkpt>
      <trkpt lat="45.52904" lon="6.85741">
        <ele>3569.9</ele>
        <time>2021-03-30T10:44:03Z</time>
      </trkpt>
      <trkpt lat="45.52904" lon="6.85741">
        <ele>3569.9</ele>
        <time>2021-03-30T10:44:04Z</time>
      </trkpt>
      <trkpt lat="45.52903" lon="6.85742">
        <ele>3569.9</ele>
        <time>2021-03-30T10:44:05Z</time>
      </trkpt>
      <trkpt lat="45.52902" lon="6.85742">
        <ele>3569.9</ele>
        <time>2021-03-30T10:47:11Z</time>
      </trkpt>
      <trkpt lat="45.52902" lon="6.85742">
        <ele>3571.6</ele>
        <time>2021-03-30T10:47:12Z</time>
      </trkpt>
      <trkpt lat="45.52901" lon="6.85743">
        <ele>3571.6</ele>
        <time>2021-03-30T10:47:13Z</time>
      </trkpt>
      <trkpt lat="45.529" lon="6.85743">
        <ele>3571.6</ele>
        <time>2021-03-30T10:47:14Z</time>
      </trkpt>
      <trkpt lat="45.529" lon="6.85743">
        <ele>3571.6</ele>
        <time>2021-03-30T10:47:15Z</time>
      </trkpt>
      <trkpt lat="45.52899" lon="6.85744">
        <ele>3573.4</ele>
        <time>2021-03-30T10:47:16Z</time>
      </trkpt>
      <trkpt lat="45.52898" lon="6.85744">
        <ele>3573.4</ele>
        <time>2021-03-30T10:47:17Z</time>
      </trkpt>
      <trkpt lat="45.52898" lon="6.85744">
        <ele>3575.5</ele>
        <time>2021-03-30T10:47:18Z</time>
      </trkpt>
      <trkpt lat="45.52897" lon="6.85745">
        <ele>3575.5</ele>
        <time>2021-03-30T10:47:19Z</time>
      </trkpt>
      <trkpt lat="45.52896" lon="6.85744">
        <ele>3573.4</ele>
        <time>2021-03-30T10:47:20Z</time>
      </trkpt>
      <trkpt lat="45.52895" lon="6.85743">
        <ele>3575.3</ele>
        <time>2021-03-30T10:47:35Z</time>
      </trkpt>
      <trkpt lat="45.52895" lon="6.85741">
        <ele>3575.3</ele>
        <time>2021-03-30T10:47:36Z</time>
      </trkpt>
      <trkpt lat="45.52894" lon="6.8574">
        <ele>3575.3</ele>
        <time>2021-03-30T10:47:37Z</time>
      </trkpt>
      <trkpt lat="45.52893" lon="6.85739">
        <ele>3573.2</ele>
        <time>2021-03-30T10:47:38Z</time>
      </trkpt>
      <trkpt lat="45.52892" lon="6.85738">
        <ele>3575.1</ele>
        <time>2021-03-30T10:47:39Z</time>
      </trkpt>
      <trkpt lat="45.52892" lon="6.85737">
        <ele>3575.1</ele>
        <time>2021-03-30T10:47:40Z</time>
      </trkpt>
      <trkpt lat="45.52891" lon="6.85736">
        <ele>3575.1</ele>
        <time>2021-03-30T10:47:41Z</time>
      </trkpt>
      <trkpt lat="45.5289" lon="6.85735">
        <ele>3575</ele>
        <time>2021-03-30T10:47:42Z</time>
      </trkpt>
      <trkpt lat="45.52889" lon="6.85734">
        <ele>3575</ele>
        <time>2021-03-30T10:47:43Z</time>
      </trkpt>
      <trkpt lat="45.52889" lon="6.85734">
        <ele>3575</ele>
        <time>2021-03-30T10:47:44Z</time>
      </trkpt>
      <trkpt lat="45.52888" lon="6.85733">
        <ele>3575</ele>
        <time>2021-03-30T10:47:56Z</time>
      </trkpt>
      <trkpt lat="45.52888" lon="6.85733">
        <ele>3575</ele>
        <time>2021-03-30T10:47:57Z</time>
      </trkpt>
      <trkpt lat="45.52887" lon="6.85732">
        <ele>3577.1</ele>
        <time>2021-03-30T10:47:58Z</time>
      </trkpt>
      <trkpt lat="45.52886" lon="6.85732">
        <ele>3577.1</ele>
        <time>2021-03-30T10:47:59Z</time>
      </trkpt>
      <trkpt lat="45.52886" lon="6.85732">
        <ele>3577.1</ele>
        <time>2021-03-30T10:48:00Z</time>
      </trkpt>
      <trkpt lat="45.52885" lon="6.85731">
        <ele>3575</ele>
        <time>2021-03-30T10:48:01Z</time>
      </trkpt>
      <trkpt lat="45.52885" lon="6.85731">
        <ele>3575</ele>
        <time>2021-03-30T10:48:02Z</time>
      </trkpt>
      <trkpt lat="45.52884" lon="6.8573">
        <ele>3575</ele>
        <time>2021-03-30T10:48:03Z</time>
      </trkpt>
      <trkpt lat="45.52883" lon="6.8573">
        <ele>3577</ele>
        <time>2021-03-30T10:48:04Z</time>
      </trkpt>
      <trkpt lat="45.52883" lon="6.85729">
        <ele>3577</ele>
        <time>2021-03-30T10:48:05Z</time>
      </trkpt>
      <trkpt lat="45.52883" lon="6.85729">
        <ele>3577</ele>
        <time>2021-03-30T10:48:06Z</time>
      </trkpt>
      <trkpt lat="45.52882" lon="6.85728">
        <ele>3577</ele>
        <time>2021-03-30T10:48:07Z</time>
      </trkpt>
      <trkpt lat="45.52882" lon="6.85728">
        <ele>3577</ele>
        <time>2021-03-30T10:48:08Z</time>
      </trkpt>
      <trkpt lat="45.52882" lon="6.85727">
        <ele>3574.9</ele>
        <time>2021-03-30T10:48:09Z</time>
      </trkpt>
      <trkpt lat="45.52881" lon="6.85727">
        <ele>3574.9</ele>
        <time>2021-03-30T10:48:10Z</time>
      </trkpt>
      <trkpt lat="45.52881" lon="6.85726">
        <ele>3576.9</ele>
        <time>2021-03-30T10:48:11Z</time>
      </trkpt>
      <trkpt lat="45.5288" lon="6.85726">
        <ele>3576.9</ele>
        <time>2021-03-30T10:48:12Z</time>
      </trkpt>
      <trkpt lat="45.5288" lon="6.85725">
        <ele>3576.9</ele>
        <time>2021-03-30T10:48:13Z</time>
      </trkpt>
      <trkpt lat="45.5288" lon="6.85725">
        <ele>3576.9</ele>
        <time>2021-03-30T10:48:14Z</time>
      </trkpt>
      <trkpt lat="45.52879" lon="6.85724">
        <ele>3576.9</ele>
        <time>2021-03-30T10:48:15Z</time>
      </trkpt>
      <trkpt lat="45.52879" lon="6.85724">
        <ele>3576.9</ele>
        <time>2021-03-30T10:48:16Z</time>
      </trkpt>
      <trkpt lat="45.52879" lon="6.85723">
        <ele>3576.9</ele>
        <time>2021-03-30T10:48:17Z</time>
      </trkpt>
      <trkpt lat="45.52878" lon="6.85722">
        <ele>3576.5</ele>
        <time>2021-03-30T10:48:18Z</time>
      </trkpt>
      <trkpt lat="45.52877" lon="6.85721">
        <ele>3576.5</ele>
        <time>2021-03-30T10:48:19Z</time>
      </trkpt>
      <trkpt lat="45.52876" lon="6.85721">
        <ele>3576.5</ele>
        <time>2021-03-30T10:48:20Z</time>
      </trkpt>
      <trkpt lat="45.52875" lon="6.8572">
        <ele>3576.5</ele>
        <time>2021-03-30T10:48:21Z</time>
      </trkpt>
      <trkpt lat="45.52875" lon="6.8572">
        <ele>3578.4</ele>
        <time>2021-03-30T10:48:22Z</time>
      </trkpt>
      <trkpt lat="45.52874" lon="6.85719">
        <ele>3578.4</ele>
        <time>2021-03-30T10:48:23Z</time>
      </trkpt>
      <trkpt lat="45.52873" lon="6.85718">
        <ele>3576.1</ele>
        <time>2021-03-30T10:48:24Z</time>
      </trkpt>
      <trkpt lat="45.52872" lon="6.85718">
        <ele>3578</ele>
        <time>2021-03-30T10:49:21Z</time>
      </trkpt>
      <trkpt lat="45.52871" lon="6.85717">
        <ele>3578</ele>
        <time>2021-03-30T10:49:22Z</time>
      </trkpt>
      <trkpt lat="45.5287" lon="6.85716">
        <ele>3578</ele>
        <time>2021-03-30T10:49:23Z</time>
      </trkpt>
      <trkpt lat="45.52869" lon="6.85716">
        <ele>3578</ele>
        <time>2021-03-30T10:49:24Z</time>
      </trkpt>
      <trkpt lat="45.52868" lon="6.85715">
        <ele>3580</ele>
        <time>2021-03-30T10:49:25Z</time>
      </trkpt>
      <trkpt lat="45.52868" lon="6.85714">
        <ele>3580</ele>
        <time>2021-03-30T10:49:26Z</time>
      </trkpt>
      <trkpt lat="45.52867" lon="6.85714">
        <ele>3577.6</ele>
        <time>2021-03-30T10:49:27Z</time>
      </trkpt>
      <trkpt lat="45.52866" lon="6.85713">
        <ele>3579.7</ele>
        <time>2021-03-30T10:49:28Z</time>
      </trkpt>
      <trkpt lat="45.52865" lon="6.85713">
        <ele>3579.7</ele>
        <time>2021-03-30T10:49:29Z</time>
      </trkpt>
      <trkpt lat="45.52864" lon="6.85712">
        <ele>3579.7</ele>
        <time>2021-03-30T10:49:30Z</time>
      </trkpt>
      <trkpt lat="45.52863" lon="6.85711">
        <ele>3579.7</ele>
        <time>2021-03-30T10:51:20Z</time>
      </trkpt>
      <trkpt lat="45.52862" lon="6.85711">
        <ele>3581.8</ele>
        <time>2021-03-30T10:51:21Z</time>
      </trkpt>
      <trkpt lat="45.52862" lon="6.8571">
        <ele>3579.5</ele>
        <time>2021-03-30T10:51:22Z</time>
      </trkpt>
      <trkpt lat="45.52861" lon="6.85709">
        <ele>3579.5</ele>
        <time>2021-03-30T10:51:23Z</time>
      </trkpt>
      <trkpt lat="45.5286" lon="6.85709">
        <ele>3581.6</ele>
        <time>2021-03-30T10:51:24Z</time>
      </trkpt>
      <trkpt lat="45.52859" lon="6.85708">
        <ele>3581.6</ele>
        <time>2021-03-30T10:51:25Z</time>
      </trkpt>
      <trkpt lat="45.52858" lon="6.85707">
        <ele>3581.6</ele>
        <time>2021-03-30T10:51:26Z</time>
      </trkpt>
      <trkpt lat="45.52857" lon="6.85707">
        <ele>3581.6</ele>
        <time>2021-03-30T10:51:27Z</time>
      </trkpt>
      <trkpt lat="45.52856" lon="6.85706">
        <ele>3583.6</ele>
        <time>2021-03-30T10:51:28Z</time>
      </trkpt>
      <trkpt lat="45.52855" lon="6.85705">
        <ele>3581.4</ele>
        <time>2021-03-30T10:51:29Z</time>
      </trkpt>
      <trkpt lat="45.52855" lon="6.85705">
        <ele>3581.4</ele>
        <time>2021-03-30T10:51:30Z</time>
      </trkpt>
      <trkpt lat="45.52854" lon="6.85704">
        <ele>3583.2</ele>
        <time>2021-03-30T10:52:01Z</time>
      </trkpt>
      <trkpt lat="45.52853" lon="6.85704">
        <ele>3583.2</ele>
        <time>2021-03-30T10:52:02Z</time>
      </trkpt>
      <trkpt lat="45.52852" lon="6.85703">
        <ele>3583.2</ele>
        <time>2021-03-30T10:52:03Z</time>
      </trkpt>
      <trkpt lat="45.52851" lon="6.85702">
        <ele>3583.2</ele>
        <time>2021-03-30T10:52:04Z</time>
      </trkpt>
      <trkpt lat="45.5285" lon="6.85702">
        <ele>3584.8</ele>
        <time>2021-03-30T10:52:05Z</time>
      </trkpt>
      <trkpt lat="45.52849" lon="6.85701">
        <ele>3582.8</ele>
        <time>2021-03-30T10:52:06Z</time>
      </trkpt>
      <trkpt lat="45.52849" lon="6.857">
        <ele>3582.8</ele>
        <time>2021-03-30T10:52:07Z</time>
      </trkpt>
      <trkpt lat="45.52848" lon="6.85699">
        <ele>3582.8</ele>
        <time>2021-03-30T10:52:08Z</time>
      </trkpt>
      <trkpt lat="45.52848" lon="6.85699">
        <ele>3584.3</ele>
        <time>2021-03-30T10:52:09Z</time>
      </trkpt>
      <trkpt lat="45.52848" lon="6.85698">
        <ele>3584.3</ele>
        <time>2021-03-30T10:52:10Z</time>
      </trkpt>
      <trkpt lat="45.52847" lon="6.85698">
        <ele>3584.3</ele>
        <time>2021-03-30T10:52:11Z</time>
      </trkpt>
      <trkpt lat="45.52847" lon="6.85698">
        <ele>3584.3</ele>
        <time>2021-03-30T10:52:12Z</time>
      </trkpt>
      <trkpt lat="45.52846" lon="6.85698">
        <ele>3584.3</ele>
        <time>2021-03-30T10:52:13Z</time>
      </trkpt>
      <trkpt lat="45.52845" lon="6.85697">
        <ele>3582.4</ele>
        <time>2021-03-30T10:52:14Z</time>
      </trkpt>
      <trkpt lat="45.52845" lon="6.85696">
        <ele>3583.9</ele>
        <time>2021-03-30T10:52:15Z</time>
      </trkpt>
      <trkpt lat="45.52844" lon="6.85696">
        <ele>3583.9</ele>
        <time>2021-03-30T10:52:16Z</time>
      </trkpt>
      <trkpt lat="45.52844" lon="6.85695">
        <ele>3583.9</ele>
        <time>2021-03-30T10:52:17Z</time>
      </trkpt>
      <trkpt lat="45.52843" lon="6.85694">
        <ele>3583.9</ele>
        <time>2021-03-30T10:52:18Z</time>
      </trkpt>
      <trkpt lat="45.52842" lon="6.85694">
        <ele>3583.9</ele>
        <time>2021-03-30T10:52:19Z</time>
      </trkpt>
      <trkpt lat="45.52841" lon="6.85694">
        <ele>3585.5</ele>
        <time>2021-03-30T10:52:20Z</time>
      </trkpt>
      <trkpt lat="45.52841" lon="6.85694">
        <ele>3585.5</ele>
        <time>2021-03-30T10:52:21Z</time>
      </trkpt>
      <trkpt lat="45.52841" lon="6.85694">
        <ele>3585.5</ele>
        <time>2021-03-30T10:52:22Z</time>
      </trkpt>
      <trkpt lat="45.5284" lon="6.85693">
        <ele>3585.5</ele>
        <time>2021-03-30T10:52:23Z</time>
      </trkpt>
      <trkpt lat="45.5284" lon="6.85693">
        <ele>3585.5</ele>
        <time>2021-03-30T10:52:24Z</time>
      </trkpt>
      <trkpt lat="45.52839" lon="6.85693">
        <ele>3583.7</ele>
        <time>2021-03-30T10:52:25Z</time>
      </trkpt>
      <trkpt lat="45.52839" lon="6.85692">
        <ele>3583.7</ele>
        <time>2021-03-30T10:52:26Z</time>
      </trkpt>
      <trkpt lat="45.52839" lon="6.85692">
        <ele>3585.4</ele>
        <time>2021-03-30T10:52:27Z</time>
      </trkpt>
      <trkpt lat="45.52838" lon="6.85691">
        <ele>3585.4</ele>
        <time>2021-03-30T10:52:28Z</time>
      </trkpt>
      <trkpt lat="45.52838" lon="6.85691">
        <ele>3585.4</ele>
        <time>2021-03-30T10:52:29Z</time>
      </trkpt>
      <trkpt lat="45.52837" lon="6.85691">
        <ele>3585.4</ele>
        <time>2021-03-30T10:52:30Z</time>
      </trkpt>
      <trkpt lat="45.52836" lon="6.8569">
        <ele>3586.9</ele>
        <time>2021-03-30T10:52:36Z</time>
      </trkpt>
      <trkpt lat="45.52835" lon="6.8569">
        <ele>3586.9</ele>
        <time>2021-03-30T10:52:37Z</time>
      </trkpt>
      <trkpt lat="45.52834" lon="6.85689">
        <ele>3586.9</ele>
        <time>2021-03-30T10:52:38Z</time>
      </trkpt>
      <trkpt lat="45.52834" lon="6.85689">
        <ele>3586.9</ele>
        <time>2021-03-30T10:52:39Z</time>
      </trkpt>
      <trkpt lat="45.52833" lon="6.85689">
        <ele>3588.4</ele>
        <time>2021-03-30T10:52:40Z</time>
      </trkpt>
      <trkpt lat="45.52832" lon="6.85688">
        <ele>3586.8</ele>
        <time>2021-03-30T10:52:41Z</time>
      </trkpt>
      <trkpt lat="45.52831" lon="6.85688">
        <ele>3586.8</ele>
        <time>2021-03-30T10:52:42Z</time>
      </trkpt>
      <trkpt lat="45.52831" lon="6.85688">
        <ele>3586.8</ele>
        <time>2021-03-30T10:52:43Z</time>
      </trkpt>
      <trkpt lat="45.5283" lon="6.85688">
        <ele>3586.8</ele>
        <time>2021-03-30T10:52:44Z</time>
      </trkpt>
      <trkpt lat="45.52829" lon="6.85689">
        <ele>3589.8</ele>
        <time>2021-03-30T10:52:45Z</time>
      </trkpt>
      <trkpt lat="45.52828" lon="6.85689">
        <ele>3589.8</ele>
        <time>2021-03-30T10:52:46Z</time>
      </trkpt>
      <trkpt lat="45.52828" lon="6.85689">
        <ele>3589.8</ele>
        <time>2021-03-30T10:52:47Z</time>
      </trkpt>
      <trkpt lat="45.52827" lon="6.85689">
        <ele>3589.8</ele>
        <time>2021-03-30T10:52:48Z</time>
      </trkpt>
      <trkpt lat="45.52826" lon="6.8569">
        <ele>3591</ele>
        <time>2021-03-30T10:52:49Z</time>
      </trkpt>
      <trkpt lat="45.52826" lon="6.85689">
        <ele>3591</ele>
        <time>2021-03-30T10:52:50Z</time>
      </trkpt>
      <trkpt lat="45.52825" lon="6.8569">
        <ele>3591</ele>
        <time>2021-03-30T10:52:51Z</time>
      </trkpt>
      <trkpt lat="45.52825" lon="6.8569">
        <ele>3591</ele>
        <time>2021-03-30T10:52:52Z</time>
      </trkpt>
      <trkpt lat="45.52824" lon="6.8569">
        <ele>3591</ele>
        <time>2021-03-30T10:52:53Z</time>
      </trkpt>
      <trkpt lat="45.52824" lon="6.8569">
        <ele>3592.1</ele>
        <time>2021-03-30T10:52:54Z</time>
      </trkpt>
      <trkpt lat="45.52823" lon="6.85689">
        <ele>3592.1</ele>
        <time>2021-03-30T10:52:55Z</time>
      </trkpt>
      <trkpt lat="45.52823" lon="6.85689">
        <ele>3592.1</ele>
        <time>2021-03-30T10:52:56Z</time>
      </trkpt>
      <trkpt lat="45.52822" lon="6.85689">
        <ele>3592.1</ele>
        <time>2021-03-30T10:52:57Z</time>
      </trkpt>
      <trkpt lat="45.52821" lon="6.85688">
        <ele>3590.5</ele>
        <time>2021-03-30T10:52:58Z</time>
      </trkpt>
      <trkpt lat="45.52821" lon="6.85688">
        <ele>3591.6</ele>
        <time>2021-03-30T10:52:59Z</time>
      </trkpt>
      <trkpt lat="45.5282" lon="6.85688">
        <ele>3591.6</ele>
        <time>2021-03-30T10:53:00Z</time>
      </trkpt>
      <trkpt lat="45.5282" lon="6.85688">
        <ele>3591.6</ele>
        <time>2021-03-30T10:53:01Z</time>
      </trkpt>
      <trkpt lat="45.52819" lon="6.85688">
        <ele>3591.6</ele>
        <time>2021-03-30T10:53:02Z</time>
      </trkpt>
      <trkpt lat="45.52819" lon="6.85687">
        <ele>3591.6</ele>
        <time>2021-03-30T10:53:03Z</time>
      </trkpt>
      <trkpt lat="45.52818" lon="6.85687">
        <ele>3591.6</ele>
        <time>2021-03-30T10:53:04Z</time>
      </trkpt>
      <trkpt lat="45.52818" lon="6.85687">
        <ele>3592.6</ele>
        <time>2021-03-30T10:53:05Z</time>
      </trkpt>
      <trkpt lat="45.52817" lon="6.85687">
        <ele>3592.6</ele>
        <time>2021-03-30T10:53:06Z</time>
      </trkpt>
      <trkpt lat="45.52817" lon="6.85687">
        <ele>3592.6</ele>
        <time>2021-03-30T10:53:20Z</time>
      </trkpt>
      <trkpt lat="45.52816" lon="6.85687">
        <ele>3592.6</ele>
        <time>2021-03-30T10:53:21Z</time>
      </trkpt>
      <trkpt lat="45.52816" lon="6.85686">
        <ele>3592.6</ele>
        <time>2021-03-30T10:53:22Z</time>
      </trkpt>
      <trkpt lat="45.52815" lon="6.85686">
        <ele>3592.6</ele>
        <time>2021-03-30T10:53:23Z</time>
      </trkpt>
      <trkpt lat="45.52815" lon="6.85686">
        <ele>3593.7</ele>
        <time>2021-03-30T10:53:24Z</time>
      </trkpt>
      <trkpt lat="45.52814" lon="6.85686">
        <ele>3593.7</ele>
        <time>2021-03-30T10:53:25Z</time>
      </trkpt>
      <trkpt lat="45.52813" lon="6.85686">
        <ele>3593.7</ele>
        <time>2021-03-30T10:53:26Z</time>
      </trkpt>
      <trkpt lat="45.52813" lon="6.85686">
        <ele>3593.7</ele>
        <time>2021-03-30T10:53:27Z</time>
      </trkpt>
      <trkpt lat="45.52812" lon="6.85686">
        <ele>3593.7</ele>
        <time>2021-03-30T10:53:28Z</time>
      </trkpt>
      <trkpt lat="45.52812" lon="6.85685">
        <ele>3594.7</ele>
        <time>2021-03-30T10:53:29Z</time>
      </trkpt>
      <trkpt lat="45.52811" lon="6.85685">
        <ele>3594.7</ele>
        <time>2021-03-30T10:53:30Z</time>
      </trkpt>
      <trkpt lat="45.5281" lon="6.85685">
        <ele>3594.7</ele>
        <time>2021-03-30T10:53:31Z</time>
      </trkpt>
      <trkpt lat="45.52809" lon="6.85685">
        <ele>3594.7</ele>
        <time>2021-03-30T10:53:32Z</time>
      </trkpt>
      <trkpt lat="45.52809" lon="6.85684">
        <ele>3594.7</ele>
        <time>2021-03-30T10:53:33Z</time>
      </trkpt>
      <trkpt lat="45.52808" lon="6.85684">
        <ele>3594.3</ele>
        <time>2021-03-30T10:53:34Z</time>
      </trkpt>
      <trkpt lat="45.52808" lon="6.85684">
        <ele>3594.3</ele>
        <time>2021-03-30T10:53:35Z</time>
      </trkpt>
      <trkpt lat="45.52807" lon="6.85683">
        <ele>3594.3</ele>
        <time>2021-03-30T10:53:36Z</time>
      </trkpt>
      <trkpt lat="45.52807" lon="6.85683">
        <ele>3594.3</ele>
        <time>2021-03-30T10:53:37Z</time>
      </trkpt>
      <trkpt lat="45.52806" lon="6.85683">
        <ele>3594.3</ele>
        <time>2021-03-30T10:53:38Z</time>
      </trkpt>
      <trkpt lat="45.52803" lon="6.85684">
        <ele>3595.3</ele>
        <time>2021-03-30T10:53:39Z</time>
      </trkpt>
      <trkpt lat="45.52801" lon="6.85686">
        <ele>3597.6</ele>
        <time>2021-03-30T10:53:40Z</time>
      </trkpt>
      <trkpt lat="45.52798" lon="6.85687">
        <ele>3598.4</ele>
        <time>2021-03-30T10:53:41Z</time>
      </trkpt>
      <trkpt lat="45.52795" lon="6.85688">
        <ele>3599.2</ele>
        <time>2021-03-30T10:53:42Z</time>
      </trkpt>
      <trkpt lat="45.52793" lon="6.8569">
        <ele>3601.3</ele>
        <time>2021-03-30T10:53:43Z</time>
      </trkpt>
      <trkpt lat="45.5279" lon="6.85691">
        <ele>3601.9</ele>
        <time>2021-03-30T10:53:44Z</time>
      </trkpt>
      <trkpt lat="45.52787" lon="6.85693">
        <ele>3602.5</ele>
        <time>2021-03-30T10:53:45Z</time>
      </trkpt>
      <trkpt lat="45.52785" lon="6.85694">
        <ele>3603.9</ele>
        <time>2021-03-30T10:54:48Z</time>
      </trkpt>
      <trkpt lat="45.52782" lon="6.85696">
        <ele>3604.5</ele>
        <time>2021-03-30T10:54:49Z</time>
      </trkpt>
      <trkpt lat="45.5278" lon="6.85697">
        <ele>3605</ele>
        <time>2021-03-30T10:54:50Z</time>
      </trkpt>
      <trkpt lat="45.52779" lon="6.85697">
        <ele>3606.5</ele>
        <time>2021-03-30T10:54:51Z</time>
      </trkpt>
      <trkpt lat="45.52778" lon="6.85698">
        <ele>3607</ele>
        <time>2021-03-30T10:54:52Z</time>
      </trkpt>
      <trkpt lat="45.52778" lon="6.85698">
        <ele>3607</ele>
        <time>2021-03-30T10:54:53Z</time>
      </trkpt>
      <trkpt lat="45.52777" lon="6.85699">
        <ele>3607</ele>
        <time>2021-03-30T10:54:54Z</time>
      </trkpt>
      <trkpt lat="45.52776" lon="6.85699">
        <ele>3607</ele>
        <time>2021-03-30T10:54:55Z</time>
      </trkpt>
      <trkpt lat="45.52776" lon="6.85699">
        <ele>3607.5</ele>
        <time>2021-03-30T10:54:56Z</time>
      </trkpt>
      <trkpt lat="45.52775" lon="6.85699">
        <ele>3607.5</ele>
        <time>2021-03-30T10:54:57Z</time>
      </trkpt>
      <trkpt lat="45.52774" lon="6.85699">
        <ele>3607.5</ele>
        <time>2021-03-30T10:54:58Z</time>
      </trkpt>
      <trkpt lat="45.52774" lon="6.85699">
        <ele>3607.5</ele>
        <time>2021-03-30T10:54:59Z</time>
      </trkpt>
      <trkpt lat="45.52773" lon="6.857">
        <ele>3607.5</ele>
        <time>2021-03-30T10:55:00Z</time>
      </trkpt>
      <trkpt lat="45.52773" lon="6.857">
        <ele>3607.5</ele>
        <time>2021-03-30T10:55:01Z</time>
      </trkpt>
      <trkpt lat="45.52773" lon="6.857">
        <ele>3607.9</ele>
        <time>2021-03-30T10:55:02Z</time>
      </trkpt>
      <trkpt lat="45.52772" lon="6.857">
        <ele>3607.9</ele>
        <time>2021-03-30T10:55:03Z</time>
      </trkpt>
      <trkpt lat="45.52772" lon="6.857">
        <ele>3607.9</ele>
        <time>2021-03-30T10:55:04Z</time>
      </trkpt>
      <trkpt lat="45.52772" lon="6.857">
        <ele>3607.9</ele>
        <time>2021-03-30T10:55:05Z</time>
      </trkpt>
      <trkpt lat="45.52772" lon="6.85701">
        <ele>3607.9</ele>
        <time>2021-03-30T10:55:06Z</time>
      </trkpt>
      <trkpt lat="45.52771" lon="6.85702">
        <ele>3609.4</ele>
        <time>2021-03-30T10:55:07Z</time>
      </trkpt>
      <trkpt lat="45.52772" lon="6.85706">
        <ele>3609.4</ele>
        <time>2021-03-30T10:55:08Z</time>
      </trkpt>
      <trkpt lat="45.52773" lon="6.8571">
        <ele>3610.5</ele>
        <time>2021-03-30T10:55:57Z</time>
      </trkpt>
      <trkpt lat="45.52775" lon="6.85713">
        <ele>3612.1</ele>
        <time>2021-03-30T10:55:58Z</time>
      </trkpt>
      <trkpt lat="45.52776" lon="6.85717">
        <ele>3613.7</ele>
        <time>2021-03-30T10:55:59Z</time>
      </trkpt>
      <trkpt lat="45.52777" lon="6.85721">
        <ele>3615</ele>
        <time>2021-03-30T10:56:00Z</time>
      </trkpt>
      <trkpt lat="45.52778" lon="6.85725">
        <ele>3616.7</ele>
        <time>2021-03-30T10:56:01Z</time>
      </trkpt>
      <trkpt lat="45.52779" lon="6.85726">
        <ele>3616.4</ele>
        <time>2021-03-30T10:56:02Z</time>
      </trkpt>
      <trkpt lat="45.52779" lon="6.85727">
        <ele>3616.4</ele>
        <time>2021-03-30T10:56:03Z</time>
      </trkpt>
      <trkpt lat="45.5278" lon="6.85727">
        <ele>3616.4</ele>
        <time>2021-03-30T10:56:04Z</time>
      </trkpt>
      <trkpt lat="45.5278" lon="6.85727">
        <ele>3618.2</ele>
        <time>2021-03-30T10:56:05Z</time>
      </trkpt>
      <trkpt lat="45.5278" lon="6.85728">
        <ele>3618.2</ele>
        <time>2021-03-30T10:56:06Z</time>
      </trkpt>
      <trkpt lat="45.5278" lon="6.85728">
        <ele>3618.2</ele>
        <time>2021-03-30T10:56:07Z</time>
      </trkpt>
      <trkpt lat="45.52781" lon="6.85729">
        <ele>3618.2</ele>
        <time>2021-03-30T10:56:08Z</time>
      </trkpt>
      <trkpt lat="45.52781" lon="6.85729">
        <ele>3618.2</ele>
        <time>2021-03-30T10:56:09Z</time>
      </trkpt>
      <trkpt lat="45.52781" lon="6.8573">
        <ele>3618.2</ele>
        <time>2021-03-30T10:56:10Z</time>
      </trkpt>
      <trkpt lat="45.52782" lon="6.8573">
        <ele>3618.2</ele>
        <time>2021-03-30T10:56:11Z</time>
      </trkpt>
      <trkpt lat="45.52782" lon="6.85731">
        <ele>3617.9</ele>
        <time>2021-03-30T10:56:12Z</time>
      </trkpt>
      <trkpt lat="45.52782" lon="6.85731">
        <ele>3617.9</ele>
        <time>2021-03-30T10:56:13Z</time>
      </trkpt>
      <trkpt lat="45.52783" lon="6.85732">
        <ele>3619.7</ele>
        <time>2021-03-30T10:56:14Z</time>
      </trkpt>
      <trkpt lat="45.52783" lon="6.85732">
        <ele>3619.7</ele>
        <time>2021-03-30T10:56:29Z</time>
      </trkpt>
      <trkpt lat="45.52783" lon="6.85733">
        <ele>3619.7</ele>
        <time>2021-03-30T10:56:30Z</time>
      </trkpt>
      <trkpt lat="45.52784" lon="6.85733">
        <ele>3619.7</ele>
        <time>2021-03-30T10:56:31Z</time>
      </trkpt>
      <trkpt lat="45.52784" lon="6.85734">
        <ele>3619.7</ele>
        <time>2021-03-30T10:56:32Z</time>
      </trkpt>
      <trkpt lat="45.52784" lon="6.85734">
        <ele>3619.7</ele>
        <time>2021-03-30T10:56:33Z</time>
      </trkpt>
      <trkpt lat="45.52785" lon="6.85735">
        <ele>3619.7</ele>
        <time>2021-03-30T10:56:34Z</time>
      </trkpt>
      <trkpt lat="45.52785" lon="6.85735">
        <ele>3619.3</ele>
        <time>2021-03-30T10:56:35Z</time>
      </trkpt>
      <trkpt lat="45.52786" lon="6.85736">
        <ele>3621.2</ele>
        <time>2021-03-30T10:56:36Z</time>
      </trkpt>
      <trkpt lat="45.52786" lon="6.85737">
        <ele>3621.2</ele>
        <time>2021-03-30T10:56:37Z</time>
      </trkpt>
      <trkpt lat="45.52786" lon="6.85737">
        <ele>3621.2</ele>
        <time>2021-03-30T10:56:38Z</time>
      </trkpt>
      <trkpt lat="45.52787" lon="6.85738">
        <ele>3621.2</ele>
        <time>2021-03-30T10:56:39Z</time>
      </trkpt>
      <trkpt lat="45.52787" lon="6.85739">
        <ele>3621.2</ele>
        <time>2021-03-30T10:56:40Z</time>
      </trkpt>
      <trkpt lat="45.52788" lon="6.8574">
        <ele>3621.2</ele>
        <time>2021-03-30T10:56:41Z</time>
      </trkpt>
      <trkpt lat="45.52788" lon="6.8574">
        <ele>3622.7</ele>
        <time>2021-03-30T10:56:42Z</time>
      </trkpt>
      <trkpt lat="45.52788" lon="6.8574">
        <ele>3622.7</ele>
        <time>2021-03-30T10:56:43Z</time>
      </trkpt>
      <trkpt lat="45.52788" lon="6.85742">
        <ele>3622.7</ele>
        <time>2021-03-30T10:56:44Z</time>
      </trkpt>
      <trkpt lat="45.52789" lon="6.85743">
        <ele>3622.7</ele>
        <time>2021-03-30T10:56:45Z</time>
      </trkpt>
      <trkpt lat="45.52789" lon="6.85744">
        <ele>3624.8</ele>
        <time>2021-03-30T10:56:46Z</time>
      </trkpt>
      <trkpt lat="45.5279" lon="6.85745">
        <ele>3624.8</ele>
        <time>2021-03-30T10:56:47Z</time>
      </trkpt>
      <trkpt lat="45.5279" lon="6.85745">
        <ele>3624.8</ele>
        <time>2021-03-30T10:56:48Z</time>
      </trkpt>
      <trkpt lat="45.52791" lon="6.85745">
        <ele>3624.8</ele>
        <time>2021-03-30T10:56:49Z</time>
      </trkpt>
      <trkpt lat="45.52791" lon="6.85745">
        <ele>3624.3</ele>
        <time>2021-03-30T10:56:50Z</time>
      </trkpt>
      <trkpt lat="45.52792" lon="6.85745">
        <ele>3624.3</ele>
        <time>2021-03-30T10:56:51Z</time>
      </trkpt>
      <trkpt lat="45.52793" lon="6.85746">
        <ele>3624.3</ele>
        <time>2021-03-30T10:56:52Z</time>
      </trkpt>
      <trkpt lat="45.52793" lon="6.85746">
        <ele>3624.3</ele>
        <time>2021-03-30T10:56:53Z</time>
      </trkpt>
      <trkpt lat="45.52794" lon="6.85747">
        <ele>3624.3</ele>
        <time>2021-03-30T10:56:54Z</time>
      </trkpt>
      <trkpt lat="45.52794" lon="6.85748">
        <ele>3623.7</ele>
        <time>2021-03-30T10:56:55Z</time>
      </trkpt>
      <trkpt lat="45.52794" lon="6.85748">
        <ele>3623.7</ele>
        <time>2021-03-30T10:56:56Z</time>
      </trkpt>
      <trkpt lat="45.52795" lon="6.85749">
        <ele>3625.9</ele>
        <time>2021-03-30T10:56:57Z</time>
      </trkpt>
      <trkpt lat="45.52795" lon="6.85749">
        <ele>3625.9</ele>
        <time>2021-03-30T10:56:58Z</time>
      </trkpt>
      <trkpt lat="45.52796" lon="6.8575">
        <ele>3625.9</ele>
        <time>2021-03-30T10:56:59Z</time>
      </trkpt>
      <trkpt lat="45.52796" lon="6.8575">
        <ele>3625.9</ele>
        <time>2021-03-30T10:57:00Z</time>
      </trkpt>
      <trkpt lat="45.52796" lon="6.85751">
        <ele>3625.9</ele>
        <time>2021-03-30T10:57:01Z</time>
      </trkpt>
      <trkpt lat="45.52797" lon="6.85751">
        <ele>3625.9</ele>
        <time>2021-03-30T10:57:02Z</time>
      </trkpt>
      <trkpt lat="45.52797" lon="6.85752">
        <ele>3625.9</ele>
        <time>2021-03-30T10:57:03Z</time>
      </trkpt>
      <trkpt lat="45.52797" lon="6.85752">
        <ele>3625.3</ele>
        <time>2021-03-30T10:57:04Z</time>
      </trkpt>
      <trkpt lat="45.52797" lon="6.85752">
        <ele>3625.3</ele>
        <time>2021-03-30T10:57:05Z</time>
      </trkpt>
      <trkpt lat="45.52797" lon="6.85753">
        <ele>3625.3</ele>
        <time>2021-03-30T10:57:06Z</time>
      </trkpt>
      <trkpt lat="45.52797" lon="6.85753">
        <ele>3625.3</ele>
        <time>2021-03-30T10:57:07Z</time>
      </trkpt>
      <trkpt lat="45.52796" lon="6.85753">
        <ele>3625.9</ele>
        <time>2021-03-30T10:57:08Z</time>
      </trkpt>
      <trkpt lat="45.52796" lon="6.85752">
        <ele>3625.9</ele>
        <time>2021-03-30T10:57:09Z</time>
      </trkpt>
      <trkpt lat="45.52796" lon="6.85752">
        <ele>3625.9</ele>
        <time>2021-03-30T10:57:10Z</time>
      </trkpt>
      <trkpt lat="45.52795" lon="6.85752">
        <ele>3625.9</ele>
        <time>2021-03-30T10:57:11Z</time>
      </trkpt>
      <trkpt lat="45.52795" lon="6.85752">
        <ele>3625.9</ele>
        <time>2021-03-30T10:57:12Z</time>
      </trkpt>
      <trkpt lat="45.52795" lon="6.85752">
        <ele>3625.9</ele>
        <time>2021-03-30T10:57:13Z</time>
      </trkpt>
      <trkpt lat="45.52794" lon="6.85752">
        <ele>3625.9</ele>
        <time>2021-03-30T10:57:14Z</time>
      </trkpt>
      <trkpt lat="45.52794" lon="6.85752">
        <ele>3625.9</ele>
        <time>2021-03-30T10:57:15Z</time>
      </trkpt>
      <trkpt lat="45.52794" lon="6.85752">
        <ele>3626.4</ele>
        <time>2021-03-30T10:57:16Z</time>
      </trkpt>
      <trkpt lat="45.52793" lon="6.85751">
        <ele>3626.4</ele>
        <time>2021-03-30T10:57:17Z</time>
      </trkpt>
      <trkpt lat="45.52793" lon="6.85751">
        <ele>3626.4</ele>
        <time>2021-03-30T10:58:00Z</time>
      </trkpt>
      <trkpt lat="45.52792" lon="6.85751">
        <ele>3626.4</ele>
        <time>2021-03-30T10:58:01Z</time>
      </trkpt>
      <trkpt lat="45.52792" lon="6.85751">
        <ele>3626.4</ele>
        <time>2021-03-30T10:58:02Z</time>
      </trkpt>
      <trkpt lat="45.52792" lon="6.85751">
        <ele>3626.4</ele>
        <time>2021-03-30T10:58:03Z</time>
      </trkpt>
      <trkpt lat="45.52791" lon="6.85751">
        <ele>3626.4</ele>
        <time>2021-03-30T10:58:04Z</time>
      </trkpt>
      <trkpt lat="45.52791" lon="6.85751">
        <ele>3626.4</ele>
        <time>2021-03-30T10:58:05Z</time>
      </trkpt>
      <trkpt lat="45.52791" lon="6.85751">
        <ele>3627</ele>
        <time>2021-03-30T10:58:06Z</time>
      </trkpt>
      <trkpt lat="45.5279" lon="6.85751">
        <ele>3627</ele>
        <time>2021-03-30T10:58:07Z</time>
      </trkpt>
      <trkpt lat="45.5279" lon="6.8575">
        <ele>3627</ele>
        <time>2021-03-30T10:58:08Z</time>
      </trkpt>
      <trkpt lat="45.52789" lon="6.8575">
        <ele>3627</ele>
        <time>2021-03-30T10:58:09Z</time>
      </trkpt>
      <trkpt lat="45.52789" lon="6.85751">
        <ele>3627</ele>
        <time>2021-03-30T10:58:10Z</time>
      </trkpt>
      <trkpt lat="45.52788" lon="6.85752">
        <ele>3627</ele>
        <time>2021-03-30T10:58:11Z</time>
      </trkpt>
      <trkpt lat="45.52788" lon="6.85754">
        <ele>3629.2</ele>
        <time>2021-03-30T10:58:12Z</time>
      </trkpt>
      <trkpt lat="45.52788" lon="6.85754">
        <ele>3629.2</ele>
        <time>2021-03-30T10:58:13Z</time>
      </trkpt>
      <trkpt lat="45.52787" lon="6.85755">
        <ele>3629.8</ele>
        <time>2021-03-30T10:58:14Z</time>
      </trkpt>
      <trkpt lat="45.52787" lon="6.85756">
        <ele>3629.8</ele>
        <time>2021-03-30T10:58:15Z</time>
      </trkpt>
      <trkpt lat="45.52786" lon="6.85756">
        <ele>3629.8</ele>
        <time>2021-03-30T10:58:16Z</time>
      </trkpt>
      <trkpt lat="45.52786" lon="6.85757">
        <ele>3629.8</ele>
        <time>2021-03-30T10:58:17Z</time>
      </trkpt>
      <trkpt lat="45.52785" lon="6.85757">
        <ele>3629.8</ele>
        <time>2021-03-30T10:58:18Z</time>
      </trkpt>
      <trkpt lat="45.52785" lon="6.85757">
        <ele>3629.8</ele>
        <time>2021-03-30T10:58:19Z</time>
      </trkpt>
      <trkpt lat="45.52783" lon="6.85756">
        <ele>3630.3</ele>
        <time>2021-03-30T10:58:20Z</time>
      </trkpt>
      <trkpt lat="45.52783" lon="6.85756">
        <ele>3630.3</ele>
        <time>2021-03-30T10:58:21Z</time>
      </trkpt>
      <trkpt lat="45.52782" lon="6.85756">
        <ele>3630.3</ele>
        <time>2021-03-30T10:58:22Z</time>
      </trkpt>
      <trkpt lat="45.52782" lon="6.85756">
        <ele>3630.3</ele>
        <time>2021-03-30T10:58:23Z</time>
      </trkpt>
      <trkpt lat="45.52781" lon="6.85756">
        <ele>3630.8</ele>
        <time>2021-03-30T10:58:24Z</time>
      </trkpt>
      <trkpt lat="45.5278" lon="6.85756">
        <ele>3630.8</ele>
        <time>2021-03-30T10:58:25Z</time>
      </trkpt>
      <trkpt lat="45.5278" lon="6.85757">
        <ele>3632.9</ele>
        <time>2021-03-30T10:58:26Z</time>
      </trkpt>
      <trkpt lat="45.5278" lon="6.85759">
        <ele>3632.9</ele>
        <time>2021-03-30T10:58:27Z</time>
      </trkpt>
      <trkpt lat="45.52781" lon="6.8576">
        <ele>3632.9</ele>
        <time>2021-03-30T10:58:28Z</time>
      </trkpt>
      <trkpt lat="45.52781" lon="6.85762">
        <ele>3634.8</ele>
        <time>2021-03-30T10:58:29Z</time>
      </trkpt>
      <trkpt lat="45.52782" lon="6.85763">
        <ele>3634.8</ele>
        <time>2021-03-30T10:58:30Z</time>
      </trkpt>
      <trkpt lat="45.52782" lon="6.85765">
        <ele>3634.5</ele>
        <time>2021-03-30T10:58:31Z</time>
      </trkpt>
      <trkpt lat="45.52782" lon="6.85766">
        <ele>3636.3</ele>
        <time>2021-03-30T10:58:32Z</time>
      </trkpt>
      <trkpt lat="45.52783" lon="6.85768">
        <ele>3636.3</ele>
        <time>2021-03-30T10:58:33Z</time>
      </trkpt>
      <trkpt lat="45.52783" lon="6.85769">
        <ele>3636.3</ele>
        <time>2021-03-30T10:58:34Z</time>
      </trkpt>
      <trkpt lat="45.52784" lon="6.8577">
        <ele>3638</ele>
        <time>2021-03-30T10:59:24Z</time>
      </trkpt>
      <trkpt lat="45.52784" lon="6.85772">
        <ele>3638</ele>
        <time>2021-03-30T10:59:25Z</time>
      </trkpt>
      <trkpt lat="45.52785" lon="6.85773">
        <ele>3637.9</ele>
        <time>2021-03-30T10:59:26Z</time>
      </trkpt>
      <trkpt lat="45.52785" lon="6.85775">
        <ele>3639.7</ele>
        <time>2021-03-30T10:59:27Z</time>
      </trkpt>
      <trkpt lat="45.52786" lon="6.85776">
        <ele>3639.7</ele>
        <time>2021-03-30T10:59:28Z</time>
      </trkpt>
      <trkpt lat="45.52786" lon="6.85777">
        <ele>3639.7</ele>
        <time>2021-03-30T10:59:29Z</time>
      </trkpt>
      <trkpt lat="45.52787" lon="6.85777">
        <ele>3639.7</ele>
        <time>2021-03-30T10:59:30Z</time>
      </trkpt>
      <trkpt lat="45.52787" lon="6.85777">
        <ele>3639.7</ele>
        <time>2021-03-30T10:59:31Z</time>
      </trkpt>
      <trkpt lat="45.52788" lon="6.85778">
        <ele>3639.7</ele>
        <time>2021-03-30T10:59:32Z</time>
      </trkpt>
      <trkpt lat="45.52788" lon="6.85778">
        <ele>3639.7</ele>
        <time>2021-03-30T10:59:33Z</time>
      </trkpt>
      <trkpt lat="45.52788" lon="6.85777">
        <ele>3639.8</ele>
        <time>2021-03-30T10:59:34Z</time>
      </trkpt>
      <trkpt lat="45.52788" lon="6.85778">
        <ele>3639.8</ele>
        <time>2021-03-30T10:59:35Z</time>
      </trkpt>
      <trkpt lat="45.52789" lon="6.85778">
        <ele>3639.8</ele>
        <time>2021-03-30T10:59:36Z</time>
      </trkpt>
      <trkpt lat="45.5279" lon="6.85778">
        <ele>3639.8</ele>
        <time>2021-03-30T10:59:37Z</time>
      </trkpt>
      <trkpt lat="45.5279" lon="6.85778">
        <ele>3639.8</ele>
        <time>2021-03-30T10:59:38Z</time>
      </trkpt>
      <trkpt lat="45.52791" lon="6.85778">
        <ele>3639.8</ele>
        <time>2021-03-30T10:59:39Z</time>
      </trkpt>
      <trkpt lat="45.52791" lon="6.85778">
        <ele>3639.7</ele>
        <time>2021-03-30T10:59:40Z</time>
      </trkpt>
      <trkpt lat="45.52792" lon="6.85778">
        <ele>3639.7</ele>
        <time>2021-03-30T10:59:41Z</time>
      </trkpt>
      <trkpt lat="45.52793" lon="6.85779">
        <ele>3639.7</ele>
        <time>2021-03-30T10:59:42Z</time>
      </trkpt>
      <trkpt lat="45.52793" lon="6.85779">
        <ele>3641.8</ele>
        <time>2021-03-30T10:59:43Z</time>
      </trkpt>
      <trkpt lat="45.52794" lon="6.8578">
        <ele>3641.8</ele>
        <time>2021-03-30T10:59:44Z</time>
      </trkpt>
      <trkpt lat="45.52794" lon="6.85781">
        <ele>3641.8</ele>
        <time>2021-03-30T10:59:45Z</time>
      </trkpt>
      <trkpt lat="45.52795" lon="6.85782">
        <ele>3641.8</ele>
        <time>2021-03-30T10:59:46Z</time>
      </trkpt>
      <trkpt lat="45.52795" lon="6.85783">
        <ele>3641.8</ele>
        <time>2021-03-30T10:59:47Z</time>
      </trkpt>
      <trkpt lat="45.52795" lon="6.85784">
        <ele>3644.1</ele>
        <time>2021-03-30T10:59:48Z</time>
      </trkpt>
      <trkpt lat="45.52796" lon="6.85785">
        <ele>3644.1</ele>
        <time>2021-03-30T10:59:49Z</time>
      </trkpt>
      <trkpt lat="45.52796" lon="6.85785">
        <ele>3644.1</ele>
        <time>2021-03-30T10:59:50Z</time>
      </trkpt>
      <trkpt lat="45.52796" lon="6.85786">
        <ele>3644.1</ele>
        <time>2021-03-30T10:59:51Z</time>
      </trkpt>
      <trkpt lat="45.52796" lon="6.85787">
        <ele>3644.1</ele>
        <time>2021-03-30T10:59:52Z</time>
      </trkpt>
      <trkpt lat="45.52797" lon="6.85788">
        <ele>3646.3</ele>
        <time>2021-03-30T10:59:53Z</time>
      </trkpt>
      <trkpt lat="45.52797" lon="6.85788">
        <ele>3646.3</ele>
        <time>2021-03-30T10:59:54Z</time>
      </trkpt>
      <trkpt lat="45.52798" lon="6.85789">
        <ele>3646.3</ele>
        <time>2021-03-30T10:59:55Z</time>
      </trkpt>
      <trkpt lat="45.52798" lon="6.85789">
        <ele>3646.3</ele>
        <time>2021-03-30T10:59:56Z</time>
      </trkpt>
      <trkpt lat="45.52799" lon="6.8579">
        <ele>3646.3</ele>
        <time>2021-03-30T10:59:57Z</time>
      </trkpt>
      <trkpt lat="45.52799" lon="6.8579">
        <ele>3646.3</ele>
        <time>2021-03-30T10:59:58Z</time>
      </trkpt>
      <trkpt lat="45.52799" lon="6.85791">
        <ele>3646.3</ele>
        <time>2021-03-30T10:59:59Z</time>
      </trkpt>
      <trkpt lat="45.528" lon="6.85791">
        <ele>3646.3</ele>
        <time>2021-03-30T11:00:00Z</time>
      </trkpt>
      <trkpt lat="45.528" lon="6.85791">
        <ele>3646.1</ele>
        <time>2021-03-30T11:00:01Z</time>
      </trkpt>
      <trkpt lat="45.528" lon="6.85791">
        <ele>3646.1</ele>
        <time>2021-03-30T11:00:02Z</time>
      </trkpt>
      <trkpt lat="45.52801" lon="6.85792">
        <ele>3648.6</ele>
        <time>2021-03-30T11:00:03Z</time>
      </trkpt>
      <trkpt lat="45.52801" lon="6.85793">
        <ele>3648.6</ele>
        <time>2021-03-30T11:00:04Z</time>
      </trkpt>
      <trkpt lat="45.52802" lon="6.85794">
        <ele>3648.6</ele>
        <time>2021-03-30T11:00:05Z</time>
      </trkpt>
      <trkpt lat="45.52802" lon="6.85795">
        <ele>3648.6</ele>
        <time>2021-03-30T11:00:06Z</time>
      </trkpt>
      <trkpt lat="45.52802" lon="6.85795">
        <ele>3648.6</ele>
        <time>2021-03-30T11:00:07Z</time>
      </trkpt>
      <trkpt lat="45.52803" lon="6.85796">
        <ele>3651</ele>
        <time>2021-03-30T11:00:08Z</time>
      </trkpt>
      <trkpt lat="45.52803" lon="6.85796">
        <ele>3650.7</ele>
        <time>2021-03-30T11:00:09Z</time>
      </trkpt>
      <trkpt lat="45.52803" lon="6.85797">
        <ele>3650.7</ele>
        <time>2021-03-30T11:00:10Z</time>
      </trkpt>
      <trkpt lat="45.52803" lon="6.85798">
        <ele>3650.7</ele>
        <time>2021-03-30T11:00:11Z</time>
      </trkpt>
      <trkpt lat="45.52804" lon="6.85799">
        <ele>3650.7</ele>
        <time>2021-03-30T11:00:12Z</time>
      </trkpt>
      <trkpt lat="45.52804" lon="6.858">
        <ele>3650.7</ele>
        <time>2021-03-30T11:00:13Z</time>
      </trkpt>
      <trkpt lat="45.52804" lon="6.858">
        <ele>3650.7</ele>
        <time>2021-03-30T11:00:14Z</time>
      </trkpt>
      <trkpt lat="45.52804" lon="6.85801">
        <ele>3653.2</ele>
        <time>2021-03-30T11:00:15Z</time>
      </trkpt>
      <trkpt lat="45.52805" lon="6.85801">
        <ele>3653.2</ele>
        <time>2021-03-30T11:00:16Z</time>
      </trkpt>
      <trkpt lat="45.52805" lon="6.85802">
        <ele>3653.2</ele>
        <time>2021-03-30T11:00:17Z</time>
      </trkpt>
      <trkpt lat="45.52805" lon="6.85802">
        <ele>3653.2</ele>
        <time>2021-03-30T11:00:18Z</time>
      </trkpt>
      <trkpt lat="45.52805" lon="6.85803">
        <ele>3653.2</ele>
        <time>2021-03-30T11:00:19Z</time>
      </trkpt>
      <trkpt lat="45.52805" lon="6.85803">
        <ele>3653.2</ele>
        <time>2021-03-30T11:00:20Z</time>
      </trkpt>
      <trkpt lat="45.52805" lon="6.85802">
        <ele>3653.2</ele>
        <time>2021-03-30T11:00:21Z</time>
      </trkpt>
      <trkpt lat="45.52805" lon="6.85801">
        <ele>3653.2</ele>
        <time>2021-03-30T11:00:22Z</time>
      </trkpt>
      <trkpt lat="45.52804" lon="6.85801">
        <ele>3653.2</ele>
        <time>2021-03-30T11:00:23Z</time>
      </trkpt>
      <trkpt lat="45.52804" lon="6.858">
        <ele>3653.2</ele>
        <time>2021-03-30T11:00:24Z</time>
      </trkpt>
      <trkpt lat="45.52804" lon="6.858">
        <ele>3650.7</ele>
        <time>2021-03-30T11:00:25Z</time>
      </trkpt>
      <trkpt lat="45.52803" lon="6.85799">
        <ele>3650.7</ele>
        <time>2021-03-30T11:00:26Z</time>
      </trkpt>
      <trkpt lat="45.52803" lon="6.85798">
        <ele>3650.7</ele>
        <time>2021-03-30T11:00:27Z</time>
      </trkpt>
      <trkpt lat="45.52803" lon="6.85798">
        <ele>3651</ele>
        <time>2021-03-30T11:00:28Z</time>
      </trkpt>
      <trkpt lat="45.52802" lon="6.85797">
        <ele>3651</ele>
        <time>2021-03-30T11:00:29Z</time>
      </trkpt>
      <trkpt lat="45.52802" lon="6.85797">
        <ele>3651</ele>
        <time>2021-03-30T11:01:10Z</time>
      </trkpt>
      <trkpt lat="45.52802" lon="6.85796">
        <ele>3651</ele>
        <time>2021-03-30T11:01:11Z</time>
      </trkpt>
      <trkpt lat="45.52801" lon="6.85795">
        <ele>3648.6</ele>
        <time>2021-03-30T11:01:12Z</time>
      </trkpt>
      <trkpt lat="45.52801" lon="6.85795">
        <ele>3648.6</ele>
        <time>2021-03-30T11:01:13Z</time>
      </trkpt>
      <trkpt lat="45.52801" lon="6.85794">
        <ele>3648.6</ele>
        <time>2021-03-30T11:01:14Z</time>
      </trkpt>
      <trkpt lat="45.528" lon="6.85794">
        <ele>3648.6</ele>
        <time>2021-03-30T11:01:15Z</time>
      </trkpt>
      <trkpt lat="45.528" lon="6.85795">
        <ele>3648.6</ele>
        <time>2021-03-30T11:01:16Z</time>
      </trkpt>
      <trkpt lat="45.52799" lon="6.85795">
        <ele>3648.7</ele>
        <time>2021-03-30T11:01:17Z</time>
      </trkpt>
      <trkpt lat="45.52799" lon="6.85795">
        <ele>3648.7</ele>
        <time>2021-03-30T11:01:18Z</time>
      </trkpt>
      <trkpt lat="45.52798" lon="6.85794">
        <ele>3648.7</ele>
        <time>2021-03-30T11:01:19Z</time>
      </trkpt>
      <trkpt lat="45.52797" lon="6.85794">
        <ele>3648.7</ele>
        <time>2021-03-30T11:01:20Z</time>
      </trkpt>
      <trkpt lat="45.52796" lon="6.85793">
        <ele>3648.7</ele>
        <time>2021-03-30T11:01:21Z</time>
      </trkpt>
      <trkpt lat="45.52796" lon="6.85793">
        <ele>3648.7</ele>
        <time>2021-03-30T11:01:22Z</time>
      </trkpt>
      <trkpt lat="45.52795" lon="6.85793">
        <ele>3648.7</ele>
        <time>2021-03-30T11:01:23Z</time>
      </trkpt>
      <trkpt lat="45.52795" lon="6.85794">
        <ele>3648.7</ele>
        <time>2021-03-30T11:01:24Z</time>
      </trkpt>
      <trkpt lat="45.52794" lon="6.85794">
        <ele>3648.7</ele>
        <time>2021-03-30T11:01:25Z</time>
      </trkpt>
      <trkpt lat="45.52794" lon="6.85795">
        <ele>3648.7</ele>
        <time>2021-03-30T11:01:26Z</time>
      </trkpt>
      <trkpt lat="45.52794" lon="6.85796">
        <ele>3651.1</ele>
        <time>2021-03-30T11:01:27Z</time>
      </trkpt>
      <trkpt lat="45.52794" lon="6.85797">
        <ele>3651.1</ele>
        <time>2021-03-30T11:01:28Z</time>
      </trkpt>
      <trkpt lat="45.52794" lon="6.85798">
        <ele>3651.1</ele>
        <time>2021-03-30T11:01:29Z</time>
      </trkpt>
      <trkpt lat="45.52794" lon="6.85798">
        <ele>3651.1</ele>
        <time>2021-03-30T11:01:30Z</time>
      </trkpt>
      <trkpt lat="45.52794" lon="6.85799">
        <ele>3650.7</ele>
        <time>2021-03-30T11:01:31Z</time>
      </trkpt>
      <trkpt lat="45.52793" lon="6.858">
        <ele>3650.7</ele>
        <time>2021-03-30T11:01:32Z</time>
      </trkpt>
      <trkpt lat="45.52793" lon="6.858">
        <ele>3650.7</ele>
        <time>2021-03-30T11:01:33Z</time>
      </trkpt>
      <trkpt lat="45.52792" lon="6.858">
        <ele>3650.7</ele>
        <time>2021-03-30T11:01:34Z</time>
      </trkpt>
      <trkpt lat="45.52792" lon="6.858">
        <ele>3653.1</ele>
        <time>2021-03-30T11:01:35Z</time>
      </trkpt>
      <trkpt lat="45.52791" lon="6.85801">
        <ele>3653.1</ele>
        <time>2021-03-30T11:01:36Z</time>
      </trkpt>
      <trkpt lat="45.52791" lon="6.85801">
        <ele>3652.3</ele>
        <time>2021-03-30T11:01:37Z</time>
      </trkpt>
      <trkpt lat="45.5279" lon="6.85802">
        <ele>3652.3</ele>
        <time>2021-03-30T11:01:38Z</time>
      </trkpt>
      <trkpt lat="45.52789" lon="6.85802">
        <ele>3652.3</ele>
        <time>2021-03-30T11:01:39Z</time>
      </trkpt>
      <trkpt lat="45.52789" lon="6.85802">
        <ele>3652.3</ele>
        <time>2021-03-30T11:01:40Z</time>
      </trkpt>
      <trkpt lat="45.52788" lon="6.85802">
        <ele>3652.3</ele>
        <time>2021-03-30T11:01:41Z</time>
      </trkpt>
      <trkpt lat="45.52788" lon="6.85802">
        <ele>3652.3</ele>
        <time>2021-03-30T11:01:42Z</time>
      </trkpt>
      <trkpt lat="45.52788" lon="6.85802">
        <ele>3651.3</ele>
        <time>2021-03-30T11:01:43Z</time>
      </trkpt>
      <trkpt lat="45.52787" lon="6.85802">
        <ele>3651.3</ele>
        <time>2021-03-30T11:01:44Z</time>
      </trkpt>
      <trkpt lat="45.52786" lon="6.85801">
        <ele>3651.3</ele>
        <time>2021-03-30T11:01:45Z</time>
      </trkpt>
      <trkpt lat="45.52786" lon="6.85801">
        <ele>3651.3</ele>
        <time>2021-03-30T11:01:46Z</time>
      </trkpt>
      <trkpt lat="45.52786" lon="6.85802">
        <ele>3651.3</ele>
        <time>2021-03-30T11:01:47Z</time>
      </trkpt>
      <trkpt lat="45.52786" lon="6.85802">
        <ele>3651.3</ele>
        <time>2021-03-30T11:01:48Z</time>
      </trkpt>
      <trkpt lat="45.52786" lon="6.85803">
        <ele>3651.3</ele>
        <time>2021-03-30T11:01:49Z</time>
      </trkpt>
      <trkpt lat="45.52787" lon="6.85803">
        <ele>3651.3</ele>
        <time>2021-03-30T11:01:50Z</time>
      </trkpt>
      <trkpt lat="45.52787" lon="6.85804">
        <ele>3651.3</ele>
        <time>2021-03-30T11:01:51Z</time>
      </trkpt>
      <trkpt lat="45.52787" lon="6.85804">
        <ele>3651.3</ele>
        <time>2021-03-30T11:01:52Z</time>
      </trkpt>
      <trkpt lat="45.52788" lon="6.85805">
        <ele>3654.6</ele>
        <time>2021-03-30T11:01:53Z</time>
      </trkpt>
      <trkpt lat="45.52788" lon="6.85805">
        <ele>3654.6</ele>
        <time>2021-03-30T11:01:54Z</time>
      </trkpt>
      <trkpt lat="45.52789" lon="6.85806">
        <ele>3654.6</ele>
        <time>2021-03-30T11:01:55Z</time>
      </trkpt>
      <trkpt lat="45.52789" lon="6.85806">
        <ele>3654.6</ele>
        <time>2021-03-30T11:01:56Z</time>
      </trkpt>
      <trkpt lat="45.52789" lon="6.85807">
        <ele>3654.6</ele>
        <time>2021-03-30T11:01:57Z</time>
      </trkpt>
      <trkpt lat="45.5279" lon="6.85807">
        <ele>3654.6</ele>
        <time>2021-03-30T11:01:58Z</time>
      </trkpt>
      <trkpt lat="45.5279" lon="6.85808">
        <ele>3654.6</ele>
        <time>2021-03-30T11:02:14Z</time>
      </trkpt>
      <trkpt lat="45.5279" lon="6.85808">
        <ele>3654.6</ele>
        <time>2021-03-30T11:02:15Z</time>
      </trkpt>
      <trkpt lat="45.52791" lon="6.85808">
        <ele>3655.4</ele>
        <time>2021-03-30T11:02:16Z</time>
      </trkpt>
      <trkpt lat="45.52791" lon="6.85809">
        <ele>3657.7</ele>
        <time>2021-03-30T11:02:17Z</time>
      </trkpt>
      <trkpt lat="45.52792" lon="6.85809">
        <ele>3657.7</ele>
        <time>2021-03-30T11:02:18Z</time>
      </trkpt>
      <trkpt lat="45.52792" lon="6.8581">
        <ele>3657.7</ele>
        <time>2021-03-30T11:02:19Z</time>
      </trkpt>
      <trkpt lat="45.52792" lon="6.85811">
        <ele>3657.7</ele>
        <time>2021-03-30T11:02:20Z</time>
      </trkpt>
      <trkpt lat="45.52793" lon="6.85811">
        <ele>3657.7</ele>
        <time>2021-03-30T11:02:21Z</time>
      </trkpt>
      <trkpt lat="45.52794" lon="6.85812">
        <ele>3657.7</ele>
        <time>2021-03-30T11:02:22Z</time>
      </trkpt>
      <trkpt lat="45.52794" lon="6.85812">
        <ele>3657.7</ele>
        <time>2021-03-30T11:02:23Z</time>
      </trkpt>
      <trkpt lat="45.52794" lon="6.85812">
        <ele>3658.2</ele>
        <time>2021-03-30T11:02:24Z</time>
      </trkpt>
      <trkpt lat="45.52795" lon="6.85813">
        <ele>3660.4</ele>
        <time>2021-03-30T11:02:25Z</time>
      </trkpt>
      <trkpt lat="45.52795" lon="6.85814">
        <ele>3660.4</ele>
        <time>2021-03-30T11:02:26Z</time>
      </trkpt>
      <trkpt lat="45.52795" lon="6.85815">
        <ele>3660.4</ele>
        <time>2021-03-30T11:02:27Z</time>
      </trkpt>
      <trkpt lat="45.52796" lon="6.85815">
        <ele>3660.4</ele>
        <time>2021-03-30T11:02:28Z</time>
      </trkpt>
      <trkpt lat="45.52796" lon="6.85816">
        <ele>3660.4</ele>
        <time>2021-03-30T11:02:29Z</time>
      </trkpt>
      <trkpt lat="45.52797" lon="6.85817">
        <ele>3660.6</ele>
        <time>2021-03-30T11:02:30Z</time>
      </trkpt>
      <trkpt lat="45.52797" lon="6.85817">
        <ele>3662.6</ele>
        <time>2021-03-30T11:02:31Z</time>
      </trkpt>
      <trkpt lat="45.52798" lon="6.85818">
        <ele>3662.6</ele>
        <time>2021-03-30T11:02:32Z</time>
      </trkpt>
      <trkpt lat="45.52798" lon="6.85819">
        <ele>3662.6</ele>
        <time>2021-03-30T11:02:33Z</time>
      </trkpt>
      <trkpt lat="45.52798" lon="6.8582">
        <ele>3662.6</ele>
        <time>2021-03-30T11:02:34Z</time>
      </trkpt>
      <trkpt lat="45.52799" lon="6.8582">
        <ele>3662.6</ele>
        <time>2021-03-30T11:02:35Z</time>
      </trkpt>
      <trkpt lat="45.52799" lon="6.85821">
        <ele>3662.6</ele>
        <time>2021-03-30T11:02:36Z</time>
      </trkpt>
      <trkpt lat="45.52799" lon="6.85822">
        <ele>3662.6</ele>
        <time>2021-03-30T11:02:37Z</time>
      </trkpt>
      <trkpt lat="45.528" lon="6.85822">
        <ele>3664.6</ele>
        <time>2021-03-30T11:02:38Z</time>
      </trkpt>
      <trkpt lat="45.528" lon="6.85823">
        <ele>3664.6</ele>
        <time>2021-03-30T11:02:39Z</time>
      </trkpt>
      <trkpt lat="45.52801" lon="6.85823">
        <ele>3664.6</ele>
        <time>2021-03-30T11:02:40Z</time>
      </trkpt>
      <trkpt lat="45.52801" lon="6.85824">
        <ele>3664.6</ele>
        <time>2021-03-30T11:02:41Z</time>
      </trkpt>
      <trkpt lat="45.52802" lon="6.85824">
        <ele>3664.6</ele>
        <time>2021-03-30T11:02:42Z</time>
      </trkpt>
      <trkpt lat="45.52802" lon="6.85825">
        <ele>3664.6</ele>
        <time>2021-03-30T11:02:43Z</time>
      </trkpt>
      <trkpt lat="45.52801" lon="6.85824">
        <ele>3664.6</ele>
        <time>2021-03-30T11:02:44Z</time>
      </trkpt>
      <trkpt lat="45.52801" lon="6.85824">
        <ele>3664.6</ele>
        <time>2021-03-30T11:02:45Z</time>
      </trkpt>
      <trkpt lat="45.528" lon="6.85824">
        <ele>3664.6</ele>
        <time>2021-03-30T11:02:46Z</time>
      </trkpt>
      <trkpt lat="45.528" lon="6.85823">
        <ele>3664.5</ele>
        <time>2021-03-30T11:02:47Z</time>
      </trkpt>
      <trkpt lat="45.52799" lon="6.85823">
        <ele>3664.5</ele>
        <time>2021-03-30T11:02:48Z</time>
      </trkpt>
      <trkpt lat="45.52798" lon="6.85823">
        <ele>3664.5</ele>
        <time>2021-03-30T11:02:49Z</time>
      </trkpt>
      <trkpt lat="45.52798" lon="6.85822">
        <ele>3664.5</ele>
        <time>2021-03-30T11:02:50Z</time>
      </trkpt>
      <trkpt lat="45.52797" lon="6.85822">
        <ele>3664.5</ele>
        <time>2021-03-30T11:02:51Z</time>
      </trkpt>
      <trkpt lat="45.52796" lon="6.85822">
        <ele>3662.3</ele>
        <time>2021-03-30T11:02:52Z</time>
      </trkpt>
      <trkpt lat="45.52796" lon="6.85821">
        <ele>3662.3</ele>
        <time>2021-03-30T11:02:53Z</time>
      </trkpt>
      <trkpt lat="45.52795" lon="6.85821">
        <ele>3662.3</ele>
        <time>2021-03-30T11:02:54Z</time>
      </trkpt>
      <trkpt lat="45.52795" lon="6.85821">
        <ele>3662.3</ele>
        <time>2021-03-30T11:02:55Z</time>
      </trkpt>
      <trkpt lat="45.52794" lon="6.8582">
        <ele>3662.3</ele>
        <time>2021-03-30T11:02:56Z</time>
      </trkpt>
      <trkpt lat="45.52793" lon="6.8582">
        <ele>3661.7</ele>
        <time>2021-03-30T11:03:15Z</time>
      </trkpt>
      <trkpt lat="45.52793" lon="6.85819">
        <ele>3661.7</ele>
        <time>2021-03-30T11:03:16Z</time>
      </trkpt>
      <trkpt lat="45.52792" lon="6.85819">
        <ele>3661.7</ele>
        <time>2021-03-30T11:03:17Z</time>
      </trkpt>
      <trkpt lat="45.52791" lon="6.85819">
        <ele>3661.7</ele>
        <time>2021-03-30T11:03:18Z</time>
      </trkpt>
      <trkpt lat="45.52791" lon="6.85818">
        <ele>3661.7</ele>
        <time>2021-03-30T11:03:19Z</time>
      </trkpt>
      <trkpt lat="45.5279" lon="6.85819">
        <ele>3660.7</ele>
        <time>2021-03-30T11:03:20Z</time>
      </trkpt>
      <trkpt lat="45.5279" lon="6.85819">
        <ele>3660.7</ele>
        <time>2021-03-30T11:03:21Z</time>
      </trkpt>
      <trkpt lat="45.52789" lon="6.85819">
        <ele>3660.7</ele>
        <time>2021-03-30T11:03:22Z</time>
      </trkpt>
      <trkpt lat="45.52789" lon="6.85819">
        <ele>3660.7</ele>
        <time>2021-03-30T11:03:23Z</time>
      </trkpt>
      <trkpt lat="45.52788" lon="6.85819">
        <ele>3660.7</ele>
        <time>2021-03-30T11:03:24Z</time>
      </trkpt>
      <trkpt lat="45.52787" lon="6.85819">
        <ele>3659.4</ele>
        <time>2021-03-30T11:03:25Z</time>
      </trkpt>
      <trkpt lat="45.52787" lon="6.85819">
        <ele>3659.4</ele>
        <time>2021-03-30T11:03:26Z</time>
      </trkpt>
      <trkpt lat="45.52786" lon="6.85819">
        <ele>3659.4</ele>
        <time>2021-03-30T11:03:27Z</time>
      </trkpt>
      <trkpt lat="45.52786" lon="6.85818">
        <ele>3659.4</ele>
        <time>2021-03-30T11:03:28Z</time>
      </trkpt>
      <trkpt lat="45.52785" lon="6.85819">
        <ele>3659.4</ele>
        <time>2021-03-30T11:03:29Z</time>
      </trkpt>
      <trkpt lat="45.52785" lon="6.85819">
        <ele>3657.8</ele>
        <time>2021-03-30T11:03:30Z</time>
      </trkpt>
      <trkpt lat="45.52784" lon="6.85818">
        <ele>3657.8</ele>
        <time>2021-03-30T11:03:31Z</time>
      </trkpt>
      <trkpt lat="45.52783" lon="6.85818">
        <ele>3657.8</ele>
        <time>2021-03-30T11:03:32Z</time>
      </trkpt>
      <trkpt lat="45.52783" lon="6.85818">
        <ele>3657.8</ele>
        <time>2021-03-30T11:03:33Z</time>
      </trkpt>
      <trkpt lat="45.52782" lon="6.85818">
        <ele>3657.8</ele>
        <time>2021-03-30T11:03:34Z</time>
      </trkpt>
      <trkpt lat="45.52782" lon="6.85819">
        <ele>3655.8</ele>
        <time>2021-03-30T11:03:35Z</time>
      </trkpt>
      <trkpt lat="45.52781" lon="6.85819">
        <ele>3655.8</ele>
        <time>2021-03-30T11:03:36Z</time>
      </trkpt>
      <trkpt lat="45.5278" lon="6.85819">
        <ele>3655.8</ele>
        <time>2021-03-30T11:03:37Z</time>
      </trkpt>
      <trkpt lat="45.5278" lon="6.85819">
        <ele>3655.8</ele>
        <time>2021-03-30T11:03:38Z</time>
      </trkpt>
      <trkpt lat="45.52779" lon="6.85819">
        <ele>3655.8</ele>
        <time>2021-03-30T11:03:39Z</time>
      </trkpt>
      <trkpt lat="45.52778" lon="6.85819">
        <ele>3653.6</ele>
        <time>2021-03-30T11:03:40Z</time>
      </trkpt>
      <trkpt lat="45.52777" lon="6.85819">
        <ele>3653.6</ele>
        <time>2021-03-30T11:03:41Z</time>
      </trkpt>
      <trkpt lat="45.52777" lon="6.85819">
        <ele>3653.6</ele>
        <time>2021-03-30T11:03:42Z</time>
      </trkpt>
      <trkpt lat="45.52776" lon="6.85819">
        <ele>3653.6</ele>
        <time>2021-03-30T11:03:43Z</time>
      </trkpt>
      <trkpt lat="45.52775" lon="6.85819">
        <ele>3651.3</ele>
        <time>2021-03-30T11:03:44Z</time>
      </trkpt>
      <trkpt lat="45.52775" lon="6.85819">
        <ele>3651.3</ele>
        <time>2021-03-30T11:03:45Z</time>
      </trkpt>
      <trkpt lat="45.52775" lon="6.85819">
        <ele>3651.3</ele>
        <time>2021-03-30T11:03:46Z</time>
      </trkpt>
      <trkpt lat="45.52774" lon="6.85819">
        <ele>3651.3</ele>
        <time>2021-03-30T11:03:47Z</time>
      </trkpt>
      <trkpt lat="45.52773" lon="6.85819">
        <ele>3651.3</ele>
        <time>2021-03-30T11:03:48Z</time>
      </trkpt>
      <trkpt lat="45.52773" lon="6.85819">
        <ele>3651.3</ele>
        <time>2021-03-30T11:03:49Z</time>
      </trkpt>
      <trkpt lat="45.52772" lon="6.8582">
        <ele>3649</ele>
        <time>2021-03-30T11:03:50Z</time>
      </trkpt>
      <trkpt lat="45.52772" lon="6.8582">
        <ele>3649</ele>
        <time>2021-03-30T11:03:51Z</time>
      </trkpt>
      <trkpt lat="45.52771" lon="6.8582">
        <ele>3649</ele>
        <time>2021-03-30T11:03:52Z</time>
      </trkpt>
      <trkpt lat="45.52771" lon="6.85819">
        <ele>3649</ele>
        <time>2021-03-30T11:03:53Z</time>
      </trkpt>
      <trkpt lat="45.5277" lon="6.85819">
        <ele>3649</ele>
        <time>2021-03-30T11:03:54Z</time>
      </trkpt>
      <trkpt lat="45.52769" lon="6.85819">
        <ele>3646.9</ele>
        <time>2021-03-30T11:03:55Z</time>
      </trkpt>
      <trkpt lat="45.52769" lon="6.85819">
        <ele>3646.9</ele>
        <time>2021-03-30T11:03:56Z</time>
      </trkpt>
      <trkpt lat="45.52768" lon="6.85818">
        <ele>3646.9</ele>
        <time>2021-03-30T11:03:57Z</time>
      </trkpt>
      <trkpt lat="45.52767" lon="6.85818">
        <ele>3646.9</ele>
        <time>2021-03-30T11:03:58Z</time>
      </trkpt>
      <trkpt lat="45.52767" lon="6.85818">
        <ele>3644.9</ele>
        <time>2021-03-30T11:03:59Z</time>
      </trkpt>
      <trkpt lat="45.52767" lon="6.85818">
        <ele>3646.9</ele>
        <time>2021-03-30T11:04:00Z</time>
      </trkpt>
      <trkpt lat="45.52768" lon="6.85819">
        <ele>3646.9</ele>
        <time>2021-03-30T11:04:01Z</time>
      </trkpt>
      <trkpt lat="45.52768" lon="6.8582">
        <ele>3646.9</ele>
        <time>2021-03-30T11:04:02Z</time>
      </trkpt>
      <trkpt lat="45.52769" lon="6.85821">
        <ele>3646.9</ele>
        <time>2021-03-30T11:04:03Z</time>
      </trkpt>
      <trkpt lat="45.5277" lon="6.85822">
        <ele>3649</ele>
        <time>2021-03-30T11:04:04Z</time>
      </trkpt>
      <trkpt lat="45.52771" lon="6.85822">
        <ele>3650.3</ele>
        <time>2021-03-30T11:04:05Z</time>
      </trkpt>
      <trkpt lat="45.52771" lon="6.85823">
        <ele>3650.3</ele>
        <time>2021-03-30T11:04:06Z</time>
      </trkpt>
      <trkpt lat="45.52772" lon="6.85824">
        <ele>3650.3</ele>
        <time>2021-03-30T11:04:07Z</time>
      </trkpt>
      <trkpt lat="45.52773" lon="6.85825">
        <ele>3652.7</ele>
        <time>2021-03-30T11:04:08Z</time>
      </trkpt>
      <trkpt lat="45.52774" lon="6.85826">
        <ele>3652.7</ele>
        <time>2021-03-30T11:04:09Z</time>
      </trkpt>
      <trkpt lat="45.52774" lon="6.85826">
        <ele>3653.9</ele>
        <time>2021-03-30T11:04:10Z</time>
      </trkpt>
      <trkpt lat="45.52775" lon="6.85827">
        <ele>3653.9</ele>
        <time>2021-03-30T11:04:11Z</time>
      </trkpt>
      <trkpt lat="45.52776" lon="6.85828">
        <ele>3656.4</ele>
        <time>2021-03-30T11:05:35Z</time>
      </trkpt>
      <trkpt lat="45.52777" lon="6.85829">
        <ele>3656.4</ele>
        <time>2021-03-30T11:05:36Z</time>
      </trkpt>
      <trkpt lat="45.52777" lon="6.8583">
        <ele>3656.4</ele>
        <time>2021-03-30T11:05:37Z</time>
      </trkpt>
      <trkpt lat="45.52778" lon="6.8583">
        <ele>3657.8</ele>
        <time>2021-03-30T11:05:38Z</time>
      </trkpt>
      <trkpt lat="45.52779" lon="6.85831">
        <ele>3657.8</ele>
        <time>2021-03-30T11:05:39Z</time>
      </trkpt>
      <trkpt lat="45.52779" lon="6.85832">
        <ele>3660.3</ele>
        <time>2021-03-30T11:05:40Z</time>
      </trkpt>
      <trkpt lat="45.5278" lon="6.85832">
        <ele>3660.3</ele>
        <time>2021-03-30T11:05:41Z</time>
      </trkpt>
      <trkpt lat="45.5278" lon="6.85832">
        <ele>3660.3</ele>
        <time>2021-03-30T11:05:42Z</time>
      </trkpt>
      <trkpt lat="45.52781" lon="6.85833">
        <ele>3660.3</ele>
        <time>2021-03-30T11:05:43Z</time>
      </trkpt>
      <trkpt lat="45.52781" lon="6.85833">
        <ele>3660.3</ele>
        <time>2021-03-30T11:05:44Z</time>
      </trkpt>
      <trkpt lat="45.52781" lon="6.85834">
        <ele>3660.3</ele>
        <time>2021-03-30T11:05:45Z</time>
      </trkpt>
      <trkpt lat="45.52782" lon="6.85834">
        <ele>3660.3</ele>
        <time>2021-03-30T11:05:46Z</time>
      </trkpt>
      <trkpt lat="45.52782" lon="6.85835">
        <ele>3664.2</ele>
        <time>2021-03-30T11:05:47Z</time>
      </trkpt>
      <trkpt lat="45.52783" lon="6.85835">
        <ele>3664.2</ele>
        <time>2021-03-30T11:05:48Z</time>
      </trkpt>
      <trkpt lat="45.52783" lon="6.85836">
        <ele>3664.2</ele>
        <time>2021-03-30T11:05:49Z</time>
      </trkpt>
      <trkpt lat="45.52784" lon="6.85836">
        <ele>3664.2</ele>
        <time>2021-03-30T11:05:50Z</time>
      </trkpt>
      <trkpt lat="45.52784" lon="6.85837">
        <ele>3664.2</ele>
        <time>2021-03-30T11:05:51Z</time>
      </trkpt>
      <trkpt lat="45.52784" lon="6.85837">
        <ele>3664.2</ele>
        <time>2021-03-30T11:05:52Z</time>
      </trkpt>
      <trkpt lat="45.52785" lon="6.85838">
        <ele>3664.2</ele>
        <time>2021-03-30T11:05:53Z</time>
      </trkpt>
      <trkpt lat="45.52785" lon="6.85838">
        <ele>3666.1</ele>
        <time>2021-03-30T11:05:54Z</time>
      </trkpt>
      <trkpt lat="45.52786" lon="6.85839">
        <ele>3668</ele>
        <time>2021-03-30T11:05:55Z</time>
      </trkpt>
      <trkpt lat="45.52786" lon="6.85839">
        <ele>3668</ele>
        <time>2021-03-30T11:05:56Z</time>
      </trkpt>
      <trkpt lat="45.52786" lon="6.8584">
        <ele>3668</ele>
        <time>2021-03-30T11:05:57Z</time>
      </trkpt>
      <trkpt lat="45.52787" lon="6.8584">
        <ele>3668</ele>
        <time>2021-03-30T11:05:58Z</time>
      </trkpt>
      <trkpt lat="45.52787" lon="6.8584">
        <ele>3668</ele>
        <time>2021-03-30T11:05:59Z</time>
      </trkpt>
      <trkpt lat="45.52788" lon="6.8584">
        <ele>3668</ele>
        <time>2021-03-30T11:06:00Z</time>
      </trkpt>
      <trkpt lat="45.52788" lon="6.85841">
        <ele>3669.8</ele>
        <time>2021-03-30T11:06:01Z</time>
      </trkpt>
      <trkpt lat="45.52788" lon="6.85841">
        <ele>3669.8</ele>
        <time>2021-03-30T11:06:02Z</time>
      </trkpt>
      <trkpt lat="45.52788" lon="6.85841">
        <ele>3669.8</ele>
        <time>2021-03-30T11:06:03Z</time>
      </trkpt>
      <trkpt lat="45.52788" lon="6.85841">
        <ele>3669.8</ele>
        <time>2021-03-30T11:06:04Z</time>
      </trkpt>
      <trkpt lat="45.52788" lon="6.85842">
        <ele>3669.8</ele>
        <time>2021-03-30T11:06:05Z</time>
      </trkpt>
      <trkpt lat="45.52787" lon="6.85843">
        <ele>3668</ele>
        <time>2021-03-30T11:06:34Z</time>
      </trkpt>
      <trkpt lat="45.52786" lon="6.85843">
        <ele>3668</ele>
        <time>2021-03-30T11:06:35Z</time>
      </trkpt>
      <trkpt lat="45.52784" lon="6.85843">
        <ele>3668</ele>
        <time>2021-03-30T11:06:36Z</time>
      </trkpt>
      <trkpt lat="45.52783" lon="6.85844">
        <ele>3668</ele>
        <time>2021-03-30T11:06:37Z</time>
      </trkpt>
      <trkpt lat="45.52782" lon="6.85844">
        <ele>3668</ele>
        <time>2021-03-30T11:06:38Z</time>
      </trkpt>
      <trkpt lat="45.52781" lon="6.85844">
        <ele>3665.4</ele>
        <time>2021-03-30T11:06:39Z</time>
      </trkpt>
      <trkpt lat="45.5278" lon="6.85845">
        <ele>3665.4</ele>
        <time>2021-03-30T11:06:40Z</time>
      </trkpt>
      <trkpt lat="45.52779" lon="6.85845">
        <ele>3662.5</ele>
        <time>2021-03-30T11:06:41Z</time>
      </trkpt>
      <trkpt lat="45.52778" lon="6.85845">
        <ele>3662.5</ele>
        <time>2021-03-30T11:06:42Z</time>
      </trkpt>
      <trkpt lat="45.52777" lon="6.85845">
        <ele>3662.5</ele>
        <time>2021-03-30T11:06:43Z</time>
      </trkpt>
      <trkpt lat="45.52777" lon="6.85845">
        <ele>3662.5</ele>
        <time>2021-03-30T11:06:44Z</time>
      </trkpt>
      <trkpt lat="45.52777" lon="6.85845">
        <ele>3662.5</ele>
        <time>2021-03-30T11:06:45Z</time>
      </trkpt>
      <trkpt lat="45.52777" lon="6.85844">
        <ele>3662.5</ele>
        <time>2021-03-30T11:06:46Z</time>
      </trkpt>
      <trkpt lat="45.52776" lon="6.85844">
        <ele>3659.6</ele>
        <time>2021-03-30T11:06:47Z</time>
      </trkpt>
      <trkpt lat="45.52775" lon="6.85844">
        <ele>3659.6</ele>
        <time>2021-03-30T11:06:48Z</time>
      </trkpt>
      <trkpt lat="45.52775" lon="6.85844">
        <ele>3659.6</ele>
        <time>2021-03-30T11:06:49Z</time>
      </trkpt>
      <trkpt lat="45.52774" lon="6.85844">
        <ele>3659.6</ele>
        <time>2021-03-30T11:06:50Z</time>
      </trkpt>
      <trkpt lat="45.52773" lon="6.85844">
        <ele>3659.6</ele>
        <time>2021-03-30T11:06:51Z</time>
      </trkpt>
      <trkpt lat="45.52773" lon="6.85844">
        <ele>3659.6</ele>
        <time>2021-03-30T11:06:52Z</time>
      </trkpt>
      <trkpt lat="45.52772" lon="6.85845">
        <ele>3656.6</ele>
        <time>2021-03-30T11:06:53Z</time>
      </trkpt>
      <trkpt lat="45.52773" lon="6.85846">
        <ele>3656.6</ele>
        <time>2021-03-30T11:06:54Z</time>
      </trkpt>
      <trkpt lat="45.52773" lon="6.85846">
        <ele>3656.6</ele>
        <time>2021-03-30T11:06:55Z</time>
      </trkpt>
      <trkpt lat="45.52773" lon="6.85847">
        <ele>3659.6</ele>
        <time>2021-03-30T11:06:56Z</time>
      </trkpt>
      <trkpt lat="45.52773" lon="6.85848">
        <ele>3661.4</ele>
        <time>2021-03-30T11:06:57Z</time>
      </trkpt>
      <trkpt lat="45.52773" lon="6.85849">
        <ele>3661.4</ele>
        <time>2021-03-30T11:06:58Z</time>
      </trkpt>
      <trkpt lat="45.52773" lon="6.85849">
        <ele>3661.4</ele>
        <time>2021-03-30T11:06:59Z</time>
      </trkpt>
      <trkpt lat="45.52773" lon="6.8585">
        <ele>3661.4</ele>
        <time>2021-03-30T11:07:00Z</time>
      </trkpt>
      <trkpt lat="45.52773" lon="6.85851">
        <ele>3661.4</ele>
        <time>2021-03-30T11:07:01Z</time>
      </trkpt>
      <trkpt lat="45.52773" lon="6.85852">
        <ele>3663.5</ele>
        <time>2021-03-30T11:07:02Z</time>
      </trkpt>
      <trkpt lat="45.52774" lon="6.85852">
        <ele>3663.5</ele>
        <time>2021-03-30T11:07:03Z</time>
      </trkpt>
      <trkpt lat="45.52774" lon="6.85853">
        <ele>3663.5</ele>
        <time>2021-03-30T11:23:34Z</time>
      </trkpt>
      <trkpt lat="45.52774" lon="6.85854">
        <ele>3663.5</ele>
        <time>2021-03-30T11:23:35Z</time>
      </trkpt>
      <trkpt lat="45.52774" lon="6.85855">
        <ele>3663.5</ele>
        <time>2021-03-30T11:23:36Z</time>
      </trkpt>
      <trkpt lat="45.52774" lon="6.85855">
        <ele>3663.5</ele>
        <time>2021-03-30T11:23:37Z</time>
      </trkpt>
      <trkpt lat="45.52774" lon="6.85856">
        <ele>3665.5</ele>
        <time>2021-03-30T11:23:38Z</time>
      </trkpt>
      <trkpt lat="45.52774" lon="6.85857">
        <ele>3665.5</ele>
        <time>2021-03-30T11:23:39Z</time>
      </trkpt>
      <trkpt lat="45.52774" lon="6.85858">
        <ele>3665.5</ele>
        <time>2021-03-30T11:23:40Z</time>
      </trkpt>
      <trkpt lat="45.52775" lon="6.85858">
        <ele>3665.5</ele>
        <time>2021-03-30T11:23:41Z</time>
      </trkpt>
      <trkpt lat="45.52775" lon="6.85859">
        <ele>3665.5</ele>
        <time>2021-03-30T11:23:42Z</time>
      </trkpt>
      <trkpt lat="45.52775" lon="6.8586">
        <ele>3665.5</ele>
        <time>2021-03-30T11:23:43Z</time>
      </trkpt>
      <trkpt lat="45.52775" lon="6.85861">
        <ele>3667.4</ele>
        <time>2021-03-30T11:23:44Z</time>
      </trkpt>
      <trkpt lat="45.52775" lon="6.85861">
        <ele>3667.4</ele>
        <time>2021-03-30T11:23:45Z</time>
      </trkpt>
      <trkpt lat="45.52775" lon="6.85862">
        <ele>3667.4</ele>
        <time>2021-03-30T11:23:46Z</time>
      </trkpt>
      <trkpt lat="45.52775" lon="6.85863">
        <ele>3667.4</ele>
        <time>2021-03-30T11:23:47Z</time>
      </trkpt>
      <trkpt lat="45.52775" lon="6.85864">
        <ele>3667.4</ele>
        <time>2021-03-30T11:23:48Z</time>
      </trkpt>
      <trkpt lat="45.52775" lon="6.85864">
        <ele>3667.4</ele>
        <time>2021-03-30T11:23:49Z</time>
      </trkpt>
      <trkpt lat="45.52776" lon="6.85865">
        <ele>3668.9</ele>
        <time>2021-03-30T11:23:50Z</time>
      </trkpt>
      <trkpt lat="45.52776" lon="6.85875">
        <ele>3674.1</ele>
        <time>2021-03-30T11:23:51Z</time>
      </trkpt>
      <trkpt lat="45.52777" lon="6.85884">
        <ele>3673.8</ele>
        <time>2021-03-30T11:23:52Z</time>
      </trkpt>
      <trkpt lat="45.52778" lon="6.85893">
        <ele>3671.8</ele>
        <time>2021-03-30T11:28:30Z</time>
      </trkpt>
      <trkpt lat="45.52779" lon="6.85902">
        <ele>3671.2</ele>
        <time>2021-03-30T11:28:31Z</time>
      </trkpt>
      <trkpt lat="45.5278" lon="6.85911">
        <ele>3668.6</ele>
        <time>2021-03-30T11:28:32Z</time>
      </trkpt>
      <trkpt lat="45.52781" lon="6.8592">
        <ele>3667.1</ele>
        <time>2021-03-30T11:28:33Z</time>
      </trkpt>
      <trkpt lat="45.52782" lon="6.85929">
        <ele>3668</ele>
        <time>2021-03-30T11:28:34Z</time>
      </trkpt>
      <trkpt lat="45.52783" lon="6.85929">
        <ele>3668</ele>
        <time>2021-03-30T11:28:35Z</time>
      </trkpt>
      <trkpt lat="45.52783" lon="6.8593">
        <ele>3668</ele>
        <time>2021-03-30T11:28:36Z</time>
      </trkpt>
      <trkpt lat="45.52783" lon="6.8593">
        <ele>3668</ele>
        <time>2021-03-30T11:28:37Z</time>
      </trkpt>
      <trkpt lat="45.52783" lon="6.85931">
        <ele>3668</ele>
        <time>2021-03-30T11:28:38Z</time>
      </trkpt>
      <trkpt lat="45.52784" lon="6.85931">
        <ele>3668</ele>
        <time>2021-03-30T11:28:39Z</time>
      </trkpt>
      <trkpt lat="45.52784" lon="6.85932">
        <ele>3668</ele>
        <time>2021-03-30T11:34:38Z</time>
      </trkpt>
      <trkpt lat="45.52784" lon="6.85932">
        <ele>3668</ele>
        <time>2021-03-30T11:34:39Z</time>
      </trkpt>
      <trkpt lat="45.52784" lon="6.85933">
        <ele>3668</ele>
        <time>2021-03-30T11:34:40Z</time>
      </trkpt>
      <trkpt lat="45.52784" lon="6.85934">
        <ele>3668.2</ele>
        <time>2021-03-30T11:34:41Z</time>
      </trkpt>
      <trkpt lat="45.52785" lon="6.85934">
        <ele>3668.2</ele>
        <time>2021-03-30T11:34:42Z</time>
      </trkpt>
      <trkpt lat="45.52785" lon="6.85935">
        <ele>3668.2</ele>
        <time>2021-03-30T11:34:43Z</time>
      </trkpt>
      <trkpt lat="45.52785" lon="6.85935">
        <ele>3669.1</ele>
        <time>2021-03-30T11:34:44Z</time>
      </trkpt>
      <trkpt lat="45.52785" lon="6.85936">
        <ele>3669.1</ele>
        <time>2021-03-30T11:34:45Z</time>
      </trkpt>
      <trkpt lat="45.52785" lon="6.85937">
        <ele>3669.1</ele>
        <time>2021-03-30T11:34:46Z</time>
      </trkpt>
      <trkpt lat="45.52786" lon="6.85937">
        <ele>3669.1</ele>
        <time>2021-03-30T11:34:47Z</time>
      </trkpt>
      <trkpt lat="45.52786" lon="6.85938">
        <ele>3669.3</ele>
        <time>2021-03-30T11:34:48Z</time>
      </trkpt>
      <trkpt lat="45.52786" lon="6.85938">
        <ele>3669.3</ele>
        <time>2021-03-30T11:35:21Z</time>
      </trkpt>
      <trkpt lat="45.52786" lon="6.85939">
        <ele>3669.3</ele>
        <time>2021-03-30T11:35:22Z</time>
      </trkpt>
      <trkpt lat="45.52786" lon="6.85939">
        <ele>3669.3</ele>
        <time>2021-03-30T11:35:23Z</time>
      </trkpt>
      <trkpt lat="45.52787" lon="6.8594">
        <ele>3669.3</ele>
        <time>2021-03-30T11:35:24Z</time>
      </trkpt>
      <trkpt lat="45.52787" lon="6.85941">
        <ele>3669.3</ele>
        <time>2021-03-30T11:35:25Z</time>
      </trkpt>
      <trkpt lat="45.52787" lon="6.85941">
        <ele>3669.3</ele>
        <time>2021-03-30T11:35:26Z</time>
      </trkpt>
      <trkpt lat="45.52787" lon="6.85942">
        <ele>3669.7</ele>
        <time>2021-03-30T11:35:27Z</time>
      </trkpt>
      <trkpt lat="45.52787" lon="6.85942">
        <ele>3669.7</ele>
        <time>2021-03-30T11:35:28Z</time>
      </trkpt>
      <trkpt lat="45.52787" lon="6.85943">
        <ele>3669.7</ele>
        <time>2021-03-30T11:35:29Z</time>
      </trkpt>
      <trkpt lat="45.52788" lon="6.85943">
        <ele>3669.7</ele>
        <time>2021-03-30T11:35:30Z</time>
      </trkpt>
      <trkpt lat="45.52788" lon="6.85944">
        <ele>3670.2</ele>
        <time>2021-03-30T11:35:31Z</time>
      </trkpt>
      <trkpt lat="45.52788" lon="6.85945">
        <ele>3670.2</ele>
        <time>2021-03-30T11:35:32Z</time>
      </trkpt>
      <trkpt lat="45.52788" lon="6.85945">
        <ele>3670.2</ele>
        <time>2021-03-30T11:45:36Z</time>
      </trkpt>
      <trkpt lat="45.52788" lon="6.85946">
        <ele>3670.2</ele>
        <time>2021-03-30T11:45:37Z</time>
      </trkpt>
      <trkpt lat="45.52789" lon="6.85946">
        <ele>3670.9</ele>
        <time>2021-03-30T11:45:38Z</time>
      </trkpt>
      <trkpt lat="45.52789" lon="6.85947">
        <ele>3670.9</ele>
        <time>2021-03-30T11:45:39Z</time>
      </trkpt>
      <trkpt lat="45.52789" lon="6.85948">
        <ele>3670.9</ele>
        <time>2021-03-30T11:45:40Z</time>
      </trkpt>
      <trkpt lat="45.52789" lon="6.85948">
        <ele>3670.9</ele>
        <time>2021-03-30T11:45:41Z</time>
      </trkpt>
      <trkpt lat="45.52789" lon="6.85949">
        <ele>3670.9</ele>
        <time>2021-03-30T11:45:42Z</time>
      </trkpt>
      <trkpt lat="45.5279" lon="6.85949">
        <ele>3670.9</ele>
        <time>2021-03-30T11:45:43Z</time>
      </trkpt>
      <trkpt lat="45.5279" lon="6.8595">
        <ele>3670.9</ele>
        <time>2021-03-30T11:45:44Z</time>
      </trkpt>
      <trkpt lat="45.5279" lon="6.8595">
        <ele>3672.1</ele>
        <time>2021-03-30T11:45:45Z</time>
      </trkpt>
      <trkpt lat="45.5279" lon="6.85951">
        <ele>3672.1</ele>
        <time>2021-03-30T11:48:56Z</time>
      </trkpt>
      <trkpt lat="45.5279" lon="6.85952">
        <ele>3672.1</ele>
        <time>2021-03-30T11:48:57Z</time>
      </trkpt>
      <trkpt lat="45.52791" lon="6.85952">
        <ele>3672.1</ele>
        <time>2021-03-30T11:48:58Z</time>
      </trkpt>
      <trkpt lat="45.52791" lon="6.85953">
        <ele>3672.1</ele>
        <time>2021-03-30T11:48:59Z</time>
      </trkpt>
      <trkpt lat="45.52791" lon="6.85953">
        <ele>3672.3</ele>
        <time>2021-03-30T11:49:00Z</time>
      </trkpt>
      <trkpt lat="45.52791" lon="6.85954">
        <ele>3672.3</ele>
        <time>2021-03-30T11:49:01Z</time>
      </trkpt>
      <trkpt lat="45.52791" lon="6.85954">
        <ele>3672.3</ele>
        <time>2021-03-30T11:49:02Z</time>
      </trkpt>
      <trkpt lat="45.52792" lon="6.85955">
        <ele>3673.9</ele>
        <time>2021-03-30T11:49:03Z</time>
      </trkpt>
      <trkpt lat="45.52792" lon="6.85956">
        <ele>3673.9</ele>
        <time>2021-03-30T11:49:04Z</time>
      </trkpt>
      <trkpt lat="45.52792" lon="6.85956">
        <ele>3673.9</ele>
        <time>2021-03-30T11:49:05Z</time>
      </trkpt>
      <trkpt lat="45.52792" lon="6.85957">
        <ele>3673.9</ele>
        <time>2021-03-30T11:49:06Z</time>
      </trkpt>
      <trkpt lat="45.52792" lon="6.85957">
        <ele>3673.9</ele>
        <time>2021-03-30T11:57:03Z</time>
      </trkpt>
      <trkpt lat="45.52792" lon="6.85958">
        <ele>3673.9</ele>
        <time>2021-03-30T11:57:04Z</time>
      </trkpt>
      <trkpt lat="45.52793" lon="6.85959">
        <ele>3673.9</ele>
        <time>2021-03-30T11:57:05Z</time>
      </trkpt>
      <trkpt lat="45.52793" lon="6.85959">
        <ele>3675.9</ele>
        <time>2021-03-30T11:57:06Z</time>
      </trkpt>
      <trkpt lat="45.52793" lon="6.8596">
        <ele>3675.9</ele>
        <time>2021-03-30T11:57:07Z</time>
      </trkpt>
      <trkpt lat="45.52793" lon="6.8596">
        <ele>3675.9</ele>
        <time>2021-03-30T11:57:08Z</time>
      </trkpt>
      <trkpt lat="45.52793" lon="6.85961">
        <ele>3675.9</ele>
        <time>2021-03-30T11:57:09Z</time>
      </trkpt>
      <trkpt lat="45.52794" lon="6.85961">
        <ele>3675.9</ele>
        <time>2021-03-30T11:57:10Z</time>
      </trkpt>
      <trkpt lat="45.52794" lon="6.85962">
        <ele>3675.8</ele>
        <time>2021-03-30T11:57:11Z</time>
      </trkpt>
      <trkpt lat="45.52794" lon="6.85963">
        <ele>3675.8</ele>
        <time>2021-03-30T11:57:12Z</time>
      </trkpt>
      <trkpt lat="45.52794" lon="6.85963">
        <ele>3675.8</ele>
        <time>2021-03-30T11:57:13Z</time>
      </trkpt>
      <trkpt lat="45.52794" lon="6.85964">
        <ele>3677.9</ele>
        <time>2021-03-30T11:57:41Z</time>
      </trkpt>
      <trkpt lat="45.52795" lon="6.85964">
        <ele>3677.9</ele>
        <time>2021-03-30T11:57:42Z</time>
      </trkpt>
      <trkpt lat="45.52795" lon="6.85965">
        <ele>3677.9</ele>
        <time>2021-03-30T11:57:43Z</time>
      </trkpt>
      <trkpt lat="45.52795" lon="6.85965">
        <ele>3677.9</ele>
        <time>2021-03-30T11:57:44Z</time>
      </trkpt>
      <trkpt lat="45.52795" lon="6.85966">
        <ele>3677.9</ele>
        <time>2021-03-30T11:57:45Z</time>
      </trkpt>
      <trkpt lat="45.52795" lon="6.85967">
        <ele>3677.9</ele>
        <time>2021-03-30T11:57:46Z</time>
      </trkpt>
      <trkpt lat="45.52796" lon="6.85967">
        <ele>3677.9</ele>
        <time>2021-03-30T11:57:47Z</time>
      </trkpt>
      <trkpt lat="45.52796" lon="6.85968">
        <ele>3680</ele>
        <time>2021-03-30T11:57:48Z</time>
      </trkpt>
      <trkpt lat="45.52796" lon="6.85968">
        <ele>3680</ele>
        <time>2021-03-30T11:57:49Z</time>
      </trkpt>
      <trkpt lat="45.52794" lon="6.85958">
        <ele>3673.9</ele>
        <time>2021-03-30T11:57:50Z</time>
      </trkpt>
      <trkpt lat="45.52791" lon="6.85947">
        <ele>3671.2</ele>
        <time>2021-03-30T12:02:20Z</time>
      </trkpt>
      <trkpt lat="45.52789" lon="6.85937">
        <ele>3669.8</ele>
        <time>2021-03-30T12:02:21Z</time>
      </trkpt>
      <trkpt lat="45.52787" lon="6.85926">
        <ele>3669</ele>
        <time>2021-03-30T12:02:22Z</time>
      </trkpt>
      <trkpt lat="45.52785" lon="6.85916">
        <ele>3669</ele>
        <time>2021-03-30T12:02:23Z</time>
      </trkpt>
      <trkpt lat="45.52782" lon="6.85905">
        <ele>3671.3</ele>
        <time>2021-03-30T12:02:24Z</time>
      </trkpt>
      <trkpt lat="45.5278" lon="6.85895">
        <ele>3672.7</ele>
        <time>2021-03-30T12:02:25Z</time>
      </trkpt>
      <trkpt lat="45.52779" lon="6.85893">
        <ele>3674.3</ele>
        <time>2021-03-30T12:02:26Z</time>
      </trkpt>
      <trkpt lat="45.52779" lon="6.85892">
        <ele>3674.3</ele>
        <time>2021-03-30T12:02:27Z</time>
      </trkpt>
      <trkpt lat="45.52779" lon="6.85891">
        <ele>3671.8</ele>
        <time>2021-03-30T12:02:28Z</time>
      </trkpt>
      <trkpt lat="45.52778" lon="6.8589">
        <ele>3671.8</ele>
        <time>2021-03-30T12:02:29Z</time>
      </trkpt>
      <trkpt lat="45.52778" lon="6.85889">
        <ele>3673</ele>
        <time>2021-03-30T12:02:51Z</time>
      </trkpt>
      <trkpt lat="45.52777" lon="6.85888">
        <ele>3673</ele>
        <time>2021-03-30T12:02:52Z</time>
      </trkpt>
      <trkpt lat="45.52777" lon="6.85887">
        <ele>3673</ele>
        <time>2021-03-30T12:02:53Z</time>
      </trkpt>
      <trkpt lat="45.52776" lon="6.85887">
        <ele>3673</ele>
        <time>2021-03-30T12:02:54Z</time>
      </trkpt>
      <trkpt lat="45.52776" lon="6.85886">
        <ele>3670.7</ele>
        <time>2021-03-30T12:02:55Z</time>
      </trkpt>
      <trkpt lat="45.52775" lon="6.85885">
        <ele>3670.7</ele>
        <time>2021-03-30T12:02:56Z</time>
      </trkpt>
      <trkpt lat="45.52775" lon="6.85884">
        <ele>3670.7</ele>
        <time>2021-03-30T12:02:57Z</time>
      </trkpt>
      <trkpt lat="45.52775" lon="6.85883">
        <ele>3670.7</ele>
        <time>2021-03-30T12:02:58Z</time>
      </trkpt>
      <trkpt lat="45.52775" lon="6.85883">
        <ele>3670.7</ele>
        <time>2021-03-30T12:02:59Z</time>
      </trkpt>
      <trkpt lat="45.52775" lon="6.85882">
        <ele>3670.7</ele>
        <time>2021-03-30T12:03:00Z</time>
      </trkpt>
      <trkpt lat="45.52775" lon="6.85881">
        <ele>3670.9</ele>
        <time>2021-03-30T12:03:01Z</time>
      </trkpt>
      <trkpt lat="45.52775" lon="6.8588">
        <ele>3670.9</ele>
        <time>2021-03-30T12:03:02Z</time>
      </trkpt>
      <trkpt lat="45.52775" lon="6.8588">
        <ele>3670.9</ele>
        <time>2021-03-30T12:03:03Z</time>
      </trkpt>
      <trkpt lat="45.52775" lon="6.85879">
        <ele>3670.9</ele>
        <time>2021-03-30T12:03:04Z</time>
      </trkpt>
      <trkpt lat="45.52775" lon="6.85879">
        <ele>3670.9</ele>
        <time>2021-03-30T12:03:05Z</time>
      </trkpt>
      <trkpt lat="45.52775" lon="6.85878">
        <ele>3670.9</ele>
        <time>2021-03-30T12:03:06Z</time>
      </trkpt>
      <trkpt lat="45.52774" lon="6.85878">
        <ele>3670.9</ele>
        <time>2021-03-30T12:03:07Z</time>
      </trkpt>
      <trkpt lat="45.52774" lon="6.85878">
        <ele>3670.9</ele>
        <time>2021-03-30T12:03:08Z</time>
      </trkpt>
      <trkpt lat="45.52774" lon="6.85877">
        <ele>3670.7</ele>
        <time>2021-03-30T12:03:09Z</time>
      </trkpt>
      <trkpt lat="45.52774" lon="6.85876">
        <ele>3670.7</ele>
        <time>2021-03-30T12:03:10Z</time>
      </trkpt>
      <trkpt lat="45.52774" lon="6.85875">
        <ele>3670.7</ele>
        <time>2021-03-30T12:03:11Z</time>
      </trkpt>
      <trkpt lat="45.52774" lon="6.85874">
        <ele>3670.7</ele>
        <time>2021-03-30T12:03:12Z</time>
      </trkpt>
      <trkpt lat="45.52774" lon="6.85873">
        <ele>3670</ele>
        <time>2021-03-30T12:03:16Z</time>
      </trkpt>
      <trkpt lat="45.52774" lon="6.85872">
        <ele>3670</ele>
        <time>2021-03-30T12:03:17Z</time>
      </trkpt>
      <trkpt lat="45.52773" lon="6.85871">
        <ele>3670</ele>
        <time>2021-03-30T12:03:18Z</time>
      </trkpt>
      <trkpt lat="45.52773" lon="6.8587">
        <ele>3670</ele>
        <time>2021-03-30T12:03:19Z</time>
      </trkpt>
      <trkpt lat="45.52773" lon="6.85869">
        <ele>3668.9</ele>
        <time>2021-03-30T12:03:20Z</time>
      </trkpt>
      <trkpt lat="45.52773" lon="6.85868">
        <ele>3668.9</ele>
        <time>2021-03-30T12:03:21Z</time>
      </trkpt>
      <trkpt lat="45.52773" lon="6.85867">
        <ele>3668.9</ele>
        <time>2021-03-30T12:03:22Z</time>
      </trkpt>
      <trkpt lat="45.52773" lon="6.85867">
        <ele>3668.9</ele>
        <time>2021-03-30T12:03:23Z</time>
      </trkpt>
      <trkpt lat="45.52773" lon="6.85866">
        <ele>3668.9</ele>
        <time>2021-03-30T12:03:24Z</time>
      </trkpt>
      <trkpt lat="45.52773" lon="6.85865">
        <ele>3668.9</ele>
        <time>2021-03-30T12:03:25Z</time>
      </trkpt>
      <trkpt lat="45.52773" lon="6.85864">
        <ele>3667.4</ele>
        <time>2021-03-30T12:03:26Z</time>
      </trkpt>
      <trkpt lat="45.52773" lon="6.85863">
        <ele>3667.4</ele>
        <time>2021-03-30T12:03:27Z</time>
      </trkpt>
      <trkpt lat="45.52773" lon="6.85862">
        <ele>3667.4</ele>
        <time>2021-03-30T12:03:28Z</time>
      </trkpt>
      <trkpt lat="45.52773" lon="6.85861">
        <ele>3667.4</ele>
        <time>2021-03-30T12:03:29Z</time>
      </trkpt>
      <trkpt lat="45.52773" lon="6.8586">
        <ele>3665.5</ele>
        <time>2021-03-30T12:03:30Z</time>
      </trkpt>
      <trkpt lat="45.52773" lon="6.8586">
        <ele>3662.1</ele>
        <time>2021-03-30T12:03:31Z</time>
      </trkpt>
      <trkpt lat="45.52772" lon="6.8586">
        <ele>3662.1</ele>
        <time>2021-03-30T12:03:32Z</time>
      </trkpt>
      <trkpt lat="45.52772" lon="6.85858">
        <ele>3662.1</ele>
        <time>2021-03-30T12:03:33Z</time>
      </trkpt>
      <trkpt lat="45.52772" lon="6.85856">
        <ele>3662.1</ele>
        <time>2021-03-30T12:03:34Z</time>
      </trkpt>
      <trkpt lat="45.52772" lon="6.85855">
        <ele>3660.2</ele>
        <time>2021-03-30T12:03:35Z</time>
      </trkpt>
      <trkpt lat="45.52772" lon="6.85853">
        <ele>3660.2</ele>
        <time>2021-03-30T12:03:36Z</time>
      </trkpt>
      <trkpt lat="45.52773" lon="6.85851">
        <ele>3658.3</ele>
        <time>2021-03-30T12:03:37Z</time>
      </trkpt>
      <trkpt lat="45.52773" lon="6.8585">
        <ele>3658.3</ele>
        <time>2021-03-30T12:03:38Z</time>
      </trkpt>
      <trkpt lat="45.52773" lon="6.85848">
        <ele>3658.3</ele>
        <time>2021-03-30T12:03:39Z</time>
      </trkpt>
      <trkpt lat="45.52773" lon="6.85846">
        <ele>3659.6</ele>
        <time>2021-03-30T12:03:40Z</time>
      </trkpt>
      <trkpt lat="45.52773" lon="6.85845">
        <ele>3659.6</ele>
        <time>2021-03-30T12:03:41Z</time>
      </trkpt>
      <trkpt lat="45.52773" lon="6.85843">
        <ele>3659.6</ele>
        <time>2021-03-30T12:27:25Z</time>
      </trkpt>
      <trkpt lat="45.52773" lon="6.85841">
        <ele>3657.9</ele>
        <time>2021-03-30T12:27:26Z</time>
      </trkpt>
      <trkpt lat="45.52775" lon="6.85841">
        <ele>3657.9</ele>
        <time>2021-03-30T12:27:27Z</time>
      </trkpt>
      <trkpt lat="45.52777" lon="6.85841">
        <ele>3660.8</ele>
        <time>2021-03-30T12:27:28Z</time>
      </trkpt>
      <trkpt lat="45.5278" lon="6.85841">
        <ele>3663.5</ele>
        <time>2021-03-30T12:27:29Z</time>
      </trkpt>
      <trkpt lat="45.52781" lon="6.85842">
        <ele>3663.5</ele>
        <time>2021-03-30T12:27:30Z</time>
      </trkpt>
      <trkpt lat="45.52783" lon="6.85842">
        <ele>3665.9</ele>
        <time>2021-03-30T12:27:31Z</time>
      </trkpt>
      <trkpt lat="45.52784" lon="6.85842">
        <ele>3665.9</ele>
        <time>2021-03-30T12:27:32Z</time>
      </trkpt>
      <trkpt lat="45.52785" lon="6.85841">
        <ele>3665.9</ele>
        <time>2021-03-30T12:27:33Z</time>
      </trkpt>
      <trkpt lat="45.52785" lon="6.8584">
        <ele>3665.9</ele>
        <time>2021-03-30T12:27:34Z</time>
      </trkpt>
      <trkpt lat="45.52785" lon="6.8584">
        <ele>3668</ele>
        <time>2021-03-30T12:27:35Z</time>
      </trkpt>
      <trkpt lat="45.52785" lon="6.85839">
        <ele>3668</ele>
        <time>2021-03-30T12:27:36Z</time>
      </trkpt>
      <trkpt lat="45.52785" lon="6.85838">
        <ele>3666.1</ele>
        <time>2021-03-30T12:27:37Z</time>
      </trkpt>
      <trkpt lat="45.52785" lon="6.85838">
        <ele>3666.1</ele>
        <time>2021-03-30T12:27:38Z</time>
      </trkpt>
      <trkpt lat="45.52785" lon="6.85837">
        <ele>3666.1</ele>
        <time>2021-03-30T12:27:39Z</time>
      </trkpt>
      <trkpt lat="45.52785" lon="6.85836">
        <ele>3666.1</ele>
        <time>2021-03-30T12:27:40Z</time>
      </trkpt>
      <trkpt lat="45.52785" lon="6.85836">
        <ele>3666.1</ele>
        <time>2021-03-30T12:27:41Z</time>
      </trkpt>
      <trkpt lat="45.52785" lon="6.85835">
        <ele>3666.1</ele>
        <time>2021-03-30T12:27:42Z</time>
      </trkpt>
      <trkpt lat="45.52785" lon="6.85834">
        <ele>3664.4</ele>
        <time>2021-03-30T12:27:43Z</time>
      </trkpt>
      <trkpt lat="45.52785" lon="6.85834">
        <ele>3664.4</ele>
        <time>2021-03-30T12:27:46Z</time>
      </trkpt>
      <trkpt lat="45.52786" lon="6.85833">
        <ele>3664.4</ele>
        <time>2021-03-30T12:27:47Z</time>
      </trkpt>
      <trkpt lat="45.52783" lon="6.8583">
        <ele>3661</ele>
        <time>2021-03-30T12:27:48Z</time>
      </trkpt>
      <trkpt lat="45.52781" lon="6.85827">
        <ele>3658.8</ele>
        <time>2021-03-30T12:27:49Z</time>
      </trkpt>
      <trkpt lat="45.52778" lon="6.85823">
        <ele>3655.1</ele>
        <time>2021-03-30T12:27:50Z</time>
      </trkpt>
      <trkpt lat="45.52775" lon="6.8582">
        <ele>3651.3</ele>
        <time>2021-03-30T12:27:51Z</time>
      </trkpt>
      <trkpt lat="45.52773" lon="6.85816">
        <ele>3649.8</ele>
        <time>2021-03-30T12:27:52Z</time>
      </trkpt>
      <trkpt lat="45.52771" lon="6.85813">
        <ele>3647.6</ele>
        <time>2021-03-30T12:27:53Z</time>
      </trkpt>
      <trkpt lat="45.52772" lon="6.85811">
        <ele>3646</ele>
        <time>2021-03-30T12:27:54Z</time>
      </trkpt>
      <trkpt lat="45.52774" lon="6.85811">
        <ele>3648.2</ele>
        <time>2021-03-30T12:27:55Z</time>
      </trkpt>
      <trkpt lat="45.52775" lon="6.8581">
        <ele>3648.2</ele>
        <time>2021-03-30T12:27:56Z</time>
      </trkpt>
      <trkpt lat="45.52779" lon="6.85811">
        <ele>3650.3</ele>
        <time>2021-03-30T12:27:57Z</time>
      </trkpt>
      <trkpt lat="45.52783" lon="6.85813">
        <ele>3654.2</ele>
        <time>2021-03-30T12:27:58Z</time>
      </trkpt>
      <trkpt lat="45.52788" lon="6.85812">
        <ele>3656.8</ele>
        <time>2021-03-30T12:27:59Z</time>
      </trkpt>
      <trkpt lat="45.52793" lon="6.85809">
        <ele>3657.7</ele>
        <time>2021-03-30T12:28:00Z</time>
      </trkpt>
      <trkpt lat="45.52796" lon="6.85806">
        <ele>3655.9</ele>
        <time>2021-03-30T12:28:01Z</time>
      </trkpt>
      <trkpt lat="45.52797" lon="6.85802">
        <ele>3653.5</ele>
        <time>2021-03-30T12:28:02Z</time>
      </trkpt>
      <trkpt lat="45.52795" lon="6.85797">
        <ele>3651.1</ele>
        <time>2021-03-30T12:28:03Z</time>
      </trkpt>
      <trkpt lat="45.52794" lon="6.85795">
        <ele>3648.7</ele>
        <time>2021-03-30T12:28:04Z</time>
      </trkpt>
      <trkpt lat="45.52791" lon="6.85792">
        <ele>3648.4</ele>
        <time>2021-03-30T12:28:05Z</time>
      </trkpt>
      <trkpt lat="45.52788" lon="6.85789">
        <ele>3645.7</ele>
        <time>2021-03-30T12:28:06Z</time>
      </trkpt>
      <trkpt lat="45.52786" lon="6.85786">
        <ele>3643.2</ele>
        <time>2021-03-30T12:28:07Z</time>
      </trkpt>
      <trkpt lat="45.52784" lon="6.85785">
        <ele>3642.5</ele>
        <time>2021-03-30T12:28:08Z</time>
      </trkpt>
      <trkpt lat="45.52785" lon="6.85784">
        <ele>3642.5</ele>
        <time>2021-03-30T12:28:09Z</time>
      </trkpt>
      <trkpt lat="45.52788" lon="6.85784">
        <ele>3643.7</ele>
        <time>2021-03-30T12:28:10Z</time>
      </trkpt>
      <trkpt lat="45.52794" lon="6.85783">
        <ele>3641.8</ele>
        <time>2021-03-30T12:28:11Z</time>
      </trkpt>
      <trkpt lat="45.52796" lon="6.85781">
        <ele>3641.8</ele>
        <time>2021-03-30T12:28:12Z</time>
      </trkpt>
      <trkpt lat="45.52797" lon="6.8578">
        <ele>3641.8</ele>
        <time>2021-03-30T12:28:13Z</time>
      </trkpt>
      <trkpt lat="45.52797" lon="6.8578">
        <ele>3641.8</ele>
        <time>2021-03-30T12:28:14Z</time>
      </trkpt>
      <trkpt lat="45.52797" lon="6.8578">
        <ele>3641.8</ele>
        <time>2021-03-30T12:28:15Z</time>
      </trkpt>
      <trkpt lat="45.52797" lon="6.8578">
        <ele>3641.8</ele>
        <time>2021-03-30T12:28:16Z</time>
      </trkpt>
      <trkpt lat="45.52797" lon="6.8578">
        <ele>3641.8</ele>
        <time>2021-03-30T12:28:17Z</time>
      </trkpt>
      <trkpt lat="45.52797" lon="6.8578">
        <ele>3641.8</ele>
        <time>2021-03-30T12:28:18Z</time>
      </trkpt>
      <trkpt lat="45.52797" lon="6.8578">
        <ele>3641.8</ele>
        <time>2021-03-30T12:28:19Z</time>
      </trkpt>
      <trkpt lat="45.52797" lon="6.8578">
        <ele>3641.8</ele>
        <time>2021-03-30T12:28:20Z</time>
      </trkpt>
      <trkpt lat="45.52797" lon="6.8578">
        <ele>3641.8</ele>
        <time>2021-03-30T12:28:21Z</time>
      </trkpt>
      <trkpt lat="45.52797" lon="6.8578">
        <ele>3641.8</ele>
        <time>2021-03-30T12:28:22Z</time>
      </trkpt>
      <trkpt lat="45.52797" lon="6.8578">
        <ele>3641.8</ele>
        <time>2021-03-30T12:28:23Z</time>
      </trkpt>
      <trkpt lat="45.52788" lon="6.85771">
        <ele>3637.8</ele>
        <time>2021-03-30T12:28:30Z</time>
      </trkpt>
      <trkpt lat="45.52785" lon="6.85768">
        <ele>3636.1</ele>
        <time>2021-03-30T12:28:31Z</time>
      </trkpt>
      <trkpt lat="45.52783" lon="6.85766">
        <ele>3634.5</ele>
        <time>2021-03-30T12:28:32Z</time>
      </trkpt>
      <trkpt lat="45.52781" lon="6.85764">
        <ele>3634.8</ele>
        <time>2021-03-30T12:28:33Z</time>
      </trkpt>
      <trkpt lat="45.52778" lon="6.85761">
        <ele>3633.2</ele>
        <time>2021-03-30T12:28:34Z</time>
      </trkpt>
      <trkpt lat="45.52776" lon="6.85759">
        <ele>3633.4</ele>
        <time>2021-03-30T12:28:35Z</time>
      </trkpt>
      <trkpt lat="45.52773" lon="6.85756">
        <ele>3631.5</ele>
        <time>2021-03-30T12:28:36Z</time>
      </trkpt>
      <trkpt lat="45.52774" lon="6.85754">
        <ele>3631.5</ele>
        <time>2021-03-30T12:28:37Z</time>
      </trkpt>
      <trkpt lat="45.52776" lon="6.85753">
        <ele>3631.2</ele>
        <time>2021-03-30T12:28:38Z</time>
      </trkpt>
      <trkpt lat="45.52778" lon="6.85753">
        <ele>3631.2</ele>
        <time>2021-03-30T12:28:39Z</time>
      </trkpt>
      <trkpt lat="45.52782" lon="6.85755">
        <ele>3630.3</ele>
        <time>2021-03-30T12:28:40Z</time>
      </trkpt>
      <trkpt lat="45.52786" lon="6.85756">
        <ele>3629.8</ele>
        <time>2021-03-30T12:28:41Z</time>
      </trkpt>
      <trkpt lat="45.52789" lon="6.85758">
        <ele>3631.5</ele>
        <time>2021-03-30T12:28:42Z</time>
      </trkpt>
      <trkpt lat="45.52793" lon="6.85758">
        <ele>3630.9</ele>
        <time>2021-03-30T12:28:43Z</time>
      </trkpt>
      <trkpt lat="45.52794" lon="6.85759">
        <ele>3630.4</ele>
        <time>2021-03-30T12:28:44Z</time>
      </trkpt>
      <trkpt lat="45.52798" lon="6.85759">
        <ele>3629.9</ele>
        <time>2021-03-30T12:28:45Z</time>
      </trkpt>
      <trkpt lat="45.52799" lon="6.85758">
        <ele>3629.9</ele>
        <time>2021-03-30T12:28:46Z</time>
      </trkpt>
      <trkpt lat="45.52802" lon="6.85759">
        <ele>3629.4</ele>
        <time>2021-03-30T12:28:47Z</time>
      </trkpt>
      <trkpt lat="45.52803" lon="6.85759">
        <ele>3628.9</ele>
        <time>2021-03-30T12:28:48Z</time>
      </trkpt>
      <trkpt lat="45.52806" lon="6.85759">
        <ele>3628.4</ele>
        <time>2021-03-30T12:28:49Z</time>
      </trkpt>
      <trkpt lat="45.52807" lon="6.85759">
        <ele>3628.4</ele>
        <time>2021-03-30T12:28:50Z</time>
      </trkpt>
      <trkpt lat="45.52809" lon="6.85759">
        <ele>3627.8</ele>
        <time>2021-03-30T12:28:51Z</time>
      </trkpt>
      <trkpt lat="45.52811" lon="6.8576">
        <ele>3627.8</ele>
        <time>2021-03-30T12:28:52Z</time>
      </trkpt>
      <trkpt lat="45.52812" lon="6.85761">
        <ele>3627.2</ele>
        <time>2021-03-30T12:28:53Z</time>
      </trkpt>
      <trkpt lat="45.52814" lon="6.8576">
        <ele>3627.2</ele>
        <time>2021-03-30T12:28:54Z</time>
      </trkpt>
      <trkpt lat="45.52815" lon="6.85754">
        <ele>3624.2</ele>
        <time>2021-03-30T12:28:55Z</time>
      </trkpt>
      <trkpt lat="45.52815" lon="6.85752">
        <ele>3621.8</ele>
        <time>2021-03-30T12:28:56Z</time>
      </trkpt>
      <trkpt lat="45.52814" lon="6.85747">
        <ele>3620.1</ele>
        <time>2021-03-30T12:28:57Z</time>
      </trkpt>
      <trkpt lat="45.52812" lon="6.85741">
        <ele>3618</ele>
        <time>2021-03-30T12:28:58Z</time>
      </trkpt>
      <trkpt lat="45.52811" lon="6.85735">
        <ele>3614.7</ele>
        <time>2021-03-30T12:28:59Z</time>
      </trkpt>
      <trkpt lat="45.52812" lon="6.85729">
        <ele>3612</ele>
        <time>2021-03-30T12:29:00Z</time>
      </trkpt>
      <trkpt lat="45.52815" lon="6.85725">
        <ele>3610</ele>
        <time>2021-03-30T12:29:01Z</time>
      </trkpt>
      <trkpt lat="45.52818" lon="6.85725">
        <ele>3608.3</ele>
        <time>2021-03-30T12:29:02Z</time>
      </trkpt>
      <trkpt lat="45.52821" lon="6.85726">
        <ele>3607.5</ele>
        <time>2021-03-30T12:29:03Z</time>
      </trkpt>
      <trkpt lat="45.52824" lon="6.85728">
        <ele>3608.7</ele>
        <time>2021-03-30T12:29:04Z</time>
      </trkpt>
      <trkpt lat="45.52825" lon="6.85728">
        <ele>3608.7</ele>
        <time>2021-03-30T12:29:05Z</time>
      </trkpt>
      <trkpt lat="45.52827" lon="6.85728">
        <ele>3607.8</ele>
        <time>2021-03-30T12:29:06Z</time>
      </trkpt>
      <trkpt lat="45.52829" lon="6.85728">
        <ele>3607.8</ele>
        <time>2021-03-30T12:29:07Z</time>
      </trkpt>
      <trkpt lat="45.5283" lon="6.85728">
        <ele>3606.8</ele>
        <time>2021-03-30T12:29:08Z</time>
      </trkpt>
      <trkpt lat="45.52832" lon="6.85725">
        <ele>3604.6</ele>
        <time>2021-03-30T12:29:09Z</time>
      </trkpt>
      <trkpt lat="45.52832" lon="6.8572">
        <ele>3602.4</ele>
        <time>2021-03-30T12:29:10Z</time>
      </trkpt>
      <trkpt lat="45.52831" lon="6.85716">
        <ele>3600.1</ele>
        <time>2021-03-30T12:29:11Z</time>
      </trkpt>
      <trkpt lat="45.5283" lon="6.85712">
        <ele>3599</ele>
        <time>2021-03-30T12:29:12Z</time>
      </trkpt>
      <trkpt lat="45.52828" lon="6.85707">
        <ele>3596.9</ele>
        <time>2021-03-30T12:29:13Z</time>
      </trkpt>
      <trkpt lat="45.52826" lon="6.85704">
        <ele>3596.1</ele>
        <time>2021-03-30T12:29:14Z</time>
      </trkpt>
      <trkpt lat="45.52824" lon="6.85699">
        <ele>3595.3</ele>
        <time>2021-03-30T12:29:15Z</time>
      </trkpt>
      <trkpt lat="45.52822" lon="6.85695">
        <ele>3593.7</ele>
        <time>2021-03-30T12:29:16Z</time>
      </trkpt>
      <trkpt lat="45.5282" lon="6.85691">
        <ele>3593.1</ele>
        <time>2021-03-30T12:29:17Z</time>
      </trkpt>
      <trkpt lat="45.52818" lon="6.85688">
        <ele>3592.6</ele>
        <time>2021-03-30T12:29:18Z</time>
      </trkpt>
      <trkpt lat="45.52816" lon="6.85685">
        <ele>3592.6</ele>
        <time>2021-03-30T12:29:19Z</time>
      </trkpt>
      <trkpt lat="45.52814" lon="6.85681">
        <ele>3592.2</ele>
        <time>2021-03-30T12:29:20Z</time>
      </trkpt>
      <trkpt lat="45.52813" lon="6.85678">
        <ele>3590.8</ele>
        <time>2021-03-30T12:29:21Z</time>
      </trkpt>
      <trkpt lat="45.52815" lon="6.85676">
        <ele>3590.8</ele>
        <time>2021-03-30T12:29:22Z</time>
      </trkpt>
      <trkpt lat="45.52816" lon="6.85677">
        <ele>3589.6</ele>
        <time>2021-03-30T12:29:23Z</time>
      </trkpt>
      <trkpt lat="45.52818" lon="6.85677">
        <ele>3588.5</ele>
        <time>2021-03-30T12:29:24Z</time>
      </trkpt>
      <trkpt lat="45.52821" lon="6.85681">
        <ele>3589</ele>
        <time>2021-03-30T12:29:25Z</time>
      </trkpt>
      <trkpt lat="45.52824" lon="6.85685">
        <ele>3589.4</ele>
        <time>2021-03-30T12:29:26Z</time>
      </trkpt>
      <trkpt lat="45.52826" lon="6.85688">
        <ele>3589.4</ele>
        <time>2021-03-30T12:29:27Z</time>
      </trkpt>
      <trkpt lat="45.52828" lon="6.85692">
        <ele>3589.8</ele>
        <time>2021-03-30T12:29:28Z</time>
      </trkpt>
      <trkpt lat="45.5283" lon="6.85695">
        <ele>3591.4</ele>
        <time>2021-03-30T12:29:29Z</time>
      </trkpt>
      <trkpt lat="45.52833" lon="6.85699">
        <ele>3591.9</ele>
        <time>2021-03-30T12:29:30Z</time>
      </trkpt>
      <trkpt lat="45.52834" lon="6.857">
        <ele>3590.5</ele>
        <time>2021-03-30T12:29:31Z</time>
      </trkpt>
      <trkpt lat="45.52836" lon="6.85703">
        <ele>3592.4</ele>
        <time>2021-03-30T12:29:32Z</time>
      </trkpt>
      <trkpt lat="45.52838" lon="6.85705">
        <ele>3590.9</ele>
        <time>2021-03-30T12:29:33Z</time>
      </trkpt>
      <trkpt lat="45.52839" lon="6.85706">
        <ele>3591.4</ele>
        <time>2021-03-30T12:29:34Z</time>
      </trkpt>
      <trkpt lat="45.5284" lon="6.85709">
        <ele>3591.4</ele>
        <time>2021-03-30T12:29:35Z</time>
      </trkpt>
      <trkpt lat="45.52841" lon="6.8571">
        <ele>3593.6</ele>
        <time>2021-03-30T12:29:36Z</time>
      </trkpt>
      <trkpt lat="45.52842" lon="6.85714">
        <ele>3592.2</ele>
        <time>2021-03-30T12:29:37Z</time>
      </trkpt>
      <trkpt lat="45.52843" lon="6.85715">
        <ele>3594.5</ele>
        <time>2021-03-30T12:29:38Z</time>
      </trkpt>
      <trkpt lat="45.52844" lon="6.85719">
        <ele>3596.9</ele>
        <time>2021-03-30T12:29:39Z</time>
      </trkpt>
      <trkpt lat="45.52844" lon="6.85721">
        <ele>3596.9</ele>
        <time>2021-03-30T12:29:40Z</time>
      </trkpt>
      <trkpt lat="45.52844" lon="6.85722">
        <ele>3596.9</ele>
        <time>2021-03-30T12:29:41Z</time>
      </trkpt>
      <trkpt lat="45.52844" lon="6.85723">
        <ele>3596.9</ele>
        <time>2021-03-30T12:29:42Z</time>
      </trkpt>
      <trkpt lat="45.52844" lon="6.85723">
        <ele>3596.9</ele>
        <time>2021-03-30T12:29:43Z</time>
      </trkpt>
      <trkpt lat="45.52844" lon="6.85723">
        <ele>3596.9</ele>
        <time>2021-03-30T12:29:44Z</time>
      </trkpt>
      <trkpt lat="45.52844" lon="6.85723">
        <ele>3596.9</ele>
        <time>2021-03-30T12:29:45Z</time>
      </trkpt>
      <trkpt lat="45.52846" lon="6.85724">
        <ele>3597.8</ele>
        <time>2021-03-30T12:29:46Z</time>
      </trkpt>
      <trkpt lat="45.52847" lon="6.85726">
        <ele>3597.8</ele>
        <time>2021-03-30T12:29:47Z</time>
      </trkpt>
      <trkpt lat="45.52847" lon="6.85727">
        <ele>3597.8</ele>
        <time>2021-03-30T12:29:48Z</time>
      </trkpt>
      <trkpt lat="45.52848" lon="6.85728">
        <ele>3600</ele>
        <time>2021-03-30T12:29:49Z</time>
      </trkpt>
      <trkpt lat="45.52848" lon="6.85729">
        <ele>3598.6</ele>
        <time>2021-03-30T12:29:50Z</time>
      </trkpt>
      <trkpt lat="45.52849" lon="6.85729">
        <ele>3598.6</ele>
        <time>2021-03-30T12:29:51Z</time>
      </trkpt>
      <trkpt lat="45.52849" lon="6.85729">
        <ele>3598.6</ele>
        <time>2021-03-30T12:29:52Z</time>
      </trkpt>
      <trkpt lat="45.52849" lon="6.85729">
        <ele>3598.6</ele>
        <time>2021-03-30T12:29:53Z</time>
      </trkpt>
      <trkpt lat="45.52848" lon="6.8573">
        <ele>3598.6</ele>
        <time>2021-03-30T12:29:54Z</time>
      </trkpt>
      <trkpt lat="45.52849" lon="6.85731">
        <ele>3598.6</ele>
        <time>2021-03-30T12:29:55Z</time>
      </trkpt>
      <trkpt lat="45.5285" lon="6.85732">
        <ele>3600.8</ele>
        <time>2021-03-30T12:29:56Z</time>
      </trkpt>
      <trkpt lat="45.52851" lon="6.85733">
        <ele>3600.8</ele>
        <time>2021-03-30T12:29:57Z</time>
      </trkpt>
      <trkpt lat="45.52852" lon="6.85734">
        <ele>3599.2</ele>
        <time>2021-03-30T12:29:58Z</time>
      </trkpt>
      <trkpt lat="45.52853" lon="6.85735">
        <ele>3599.2</ele>
        <time>2021-03-30T12:29:59Z</time>
      </trkpt>
      <trkpt lat="45.52854" lon="6.85736">
        <ele>3599.5</ele>
        <time>2021-03-30T12:30:00Z</time>
      </trkpt>
      <trkpt lat="45.52855" lon="6.85737">
        <ele>3599.5</ele>
        <time>2021-03-30T12:30:01Z</time>
      </trkpt>
      <trkpt lat="45.52857" lon="6.85737">
        <ele>3597.5</ele>
        <time>2021-03-30T12:30:02Z</time>
      </trkpt>
      <trkpt lat="45.52858" lon="6.85737">
        <ele>3597.5</ele>
        <time>2021-03-30T12:30:03Z</time>
      </trkpt>
      <trkpt lat="45.5286" lon="6.85733">
        <ele>3593.3</ele>
        <time>2021-03-30T12:30:04Z</time>
      </trkpt>
      <trkpt lat="45.52861" lon="6.85732">
        <ele>3593.3</ele>
        <time>2021-03-30T12:30:05Z</time>
      </trkpt>
      <trkpt lat="45.52861" lon="6.8573">
        <ele>3591.1</ele>
        <time>2021-03-30T12:30:06Z</time>
      </trkpt>
      <trkpt lat="45.52861" lon="6.85728">
        <ele>3591.1</ele>
        <time>2021-03-30T12:30:07Z</time>
      </trkpt>
      <trkpt lat="45.52861" lon="6.85727">
        <ele>3591.1</ele>
        <time>2021-03-30T12:30:08Z</time>
      </trkpt>
      <trkpt lat="45.52862" lon="6.85728">
        <ele>3591.1</ele>
        <time>2021-03-30T12:30:09Z</time>
      </trkpt>
      <trkpt lat="45.52864" lon="6.8573">
        <ele>3588.9</ele>
        <time>2021-03-30T12:30:10Z</time>
      </trkpt>
      <trkpt lat="45.52866" lon="6.85732">
        <ele>3591.1</ele>
        <time>2021-03-30T12:30:11Z</time>
      </trkpt>
      <trkpt lat="45.52869" lon="6.85734">
        <ele>3589</ele>
        <time>2021-03-30T12:30:12Z</time>
      </trkpt>
      <trkpt lat="45.52871" lon="6.85735">
        <ele>3587</ele>
        <time>2021-03-30T12:30:13Z</time>
      </trkpt>
      <trkpt lat="45.52872" lon="6.85736">
        <ele>3587</ele>
        <time>2021-03-30T12:30:14Z</time>
      </trkpt>
      <trkpt lat="45.52874" lon="6.85739">
        <ele>3587.2</ele>
        <time>2021-03-30T12:30:15Z</time>
      </trkpt>
      <trkpt lat="45.52875" lon="6.85741">
        <ele>3587.5</ele>
        <time>2021-03-30T12:30:16Z</time>
      </trkpt>
      <trkpt lat="45.52877" lon="6.85745">
        <ele>3589.8</ele>
        <time>2021-03-30T12:30:17Z</time>
      </trkpt>
      <trkpt lat="45.52879" lon="6.85748">
        <ele>3587.8</ele>
        <time>2021-03-30T12:30:18Z</time>
      </trkpt>
      <trkpt lat="45.5288" lon="6.85749">
        <ele>3590.3</ele>
        <time>2021-03-30T12:30:19Z</time>
      </trkpt>
      <trkpt lat="45.5288" lon="6.8575">
        <ele>3590.3</ele>
        <time>2021-03-30T12:30:20Z</time>
      </trkpt>
      <trkpt lat="45.52881" lon="6.8575">
        <ele>3590.3</ele>
        <time>2021-03-30T12:30:21Z</time>
      </trkpt>
      <trkpt lat="45.52881" lon="6.8575">
        <ele>3588.2</ele>
        <time>2021-03-30T12:30:22Z</time>
      </trkpt>
      <trkpt lat="45.52882" lon="6.85751">
        <ele>3588.2</ele>
        <time>2021-03-30T12:30:23Z</time>
      </trkpt>
      <trkpt lat="45.52883" lon="6.85751">
        <ele>3588.2</ele>
        <time>2021-03-30T12:30:24Z</time>
      </trkpt>
      <trkpt lat="45.52884" lon="6.85752">
        <ele>3588.2</ele>
        <time>2021-03-30T12:30:25Z</time>
      </trkpt>
      <trkpt lat="45.52884" lon="6.85752">
        <ele>3586</ele>
        <time>2021-03-30T12:30:26Z</time>
      </trkpt>
      <trkpt lat="45.52885" lon="6.85752">
        <ele>3586</ele>
        <time>2021-03-30T12:30:27Z</time>
      </trkpt>
      <trkpt lat="45.52886" lon="6.85753">
        <ele>3586</ele>
        <time>2021-03-30T12:30:28Z</time>
      </trkpt>
      <trkpt lat="45.52887" lon="6.85753">
        <ele>3588.5</ele>
        <time>2021-03-30T12:30:29Z</time>
      </trkpt>
      <trkpt lat="45.52887" lon="6.85754">
        <ele>3586.3</ele>
        <time>2021-03-30T12:30:34Z</time>
      </trkpt>
      <trkpt lat="45.52888" lon="6.85754">
        <ele>3586.3</ele>
        <time>2021-03-30T12:30:35Z</time>
      </trkpt>
      <trkpt lat="45.52891" lon="6.85752">
        <ele>3581.7</ele>
        <time>2021-03-30T12:30:36Z</time>
      </trkpt>
      <trkpt lat="45.52893" lon="6.85748">
        <ele>3579.4</ele>
        <time>2021-03-30T12:30:37Z</time>
      </trkpt>
      <trkpt lat="45.52894" lon="6.85744">
        <ele>3575.3</ele>
        <time>2021-03-30T12:30:38Z</time>
      </trkpt>
      <trkpt lat="45.52894" lon="6.85739">
        <ele>3573.2</ele>
        <time>2021-03-30T12:30:39Z</time>
      </trkpt>
      <trkpt lat="45.52894" lon="6.85738">
        <ele>3573.2</ele>
        <time>2021-03-30T12:30:40Z</time>
      </trkpt>
      <trkpt lat="45.52896" lon="6.85734">
        <ele>3571.2</ele>
        <time>2021-03-30T12:30:41Z</time>
      </trkpt>
      <trkpt lat="45.52897" lon="6.85733">
        <ele>3569.4</ele>
        <time>2021-03-30T12:30:42Z</time>
      </trkpt>
      <trkpt lat="45.52898" lon="6.85732">
        <ele>3569.4</ele>
        <time>2021-03-30T12:30:43Z</time>
      </trkpt>
      <trkpt lat="45.529" lon="6.85732">
        <ele>3567.6</ele>
        <time>2021-03-30T12:30:44Z</time>
      </trkpt>
      <trkpt lat="45.52903" lon="6.85732">
        <ele>3566</ele>
        <time>2021-03-30T12:30:45Z</time>
      </trkpt>
      <trkpt lat="45.52908" lon="6.85733">
        <ele>3564.4</ele>
        <time>2021-03-30T12:30:46Z</time>
      </trkpt>
      <trkpt lat="45.52912" lon="6.85731">
        <ele>3559.3</ele>
        <time>2021-03-30T12:30:47Z</time>
      </trkpt>
      <trkpt lat="45.52916" lon="6.85728">
        <ele>3557.6</ele>
        <time>2021-03-30T12:30:48Z</time>
      </trkpt>
      <trkpt lat="45.52918" lon="6.85723">
        <ele>3553.9</ele>
        <time>2021-03-30T12:30:49Z</time>
      </trkpt>
      <trkpt lat="45.52919" lon="6.8572">
        <ele>3551.8</ele>
        <time>2021-03-30T12:30:50Z</time>
      </trkpt>
      <trkpt lat="45.5292" lon="6.85716">
        <ele>3549.7</ele>
        <time>2021-03-30T12:30:51Z</time>
      </trkpt>
      <trkpt lat="45.5292" lon="6.85715">
        <ele>3548</ele>
        <time>2021-03-30T12:30:52Z</time>
      </trkpt>
      <trkpt lat="45.52922" lon="6.85713">
        <ele>3545.9</ele>
        <time>2021-03-30T12:30:53Z</time>
      </trkpt>
      <trkpt lat="45.52923" lon="6.85711">
        <ele>3545.9</ele>
        <time>2021-03-30T12:30:54Z</time>
      </trkpt>
      <trkpt lat="45.52924" lon="6.8571">
        <ele>3542.1</ele>
        <time>2021-03-30T12:30:55Z</time>
      </trkpt>
      <trkpt lat="45.52924" lon="6.85708">
        <ele>3542.1</ele>
        <time>2021-03-30T12:30:56Z</time>
      </trkpt>
      <trkpt lat="45.52925" lon="6.85708">
        <ele>3542.1</ele>
        <time>2021-03-30T12:30:57Z</time>
      </trkpt>
      <trkpt lat="45.52925" lon="6.8571">
        <ele>3542.1</ele>
        <time>2021-03-30T12:30:58Z</time>
      </trkpt>
      <trkpt lat="45.52925" lon="6.85711">
        <ele>3544.2</ele>
        <time>2021-03-30T12:30:59Z</time>
      </trkpt>
      <trkpt lat="45.52924" lon="6.85712">
        <ele>3544.2</ele>
        <time>2021-03-30T12:31:00Z</time>
      </trkpt>
      <trkpt lat="45.52924" lon="6.85713">
        <ele>3544.2</ele>
        <time>2021-03-30T12:31:01Z</time>
      </trkpt>
      <trkpt lat="45.52924" lon="6.85714">
        <ele>3544.2</ele>
        <time>2021-03-30T12:31:02Z</time>
      </trkpt>
      <trkpt lat="45.52923" lon="6.85715">
        <ele>3546.4</ele>
        <time>2021-03-30T12:31:03Z</time>
      </trkpt>
      <trkpt lat="45.52923" lon="6.85716">
        <ele>3546.4</ele>
        <time>2021-03-30T12:31:04Z</time>
      </trkpt>
      <trkpt lat="45.52923" lon="6.85717">
        <ele>3548</ele>
        <time>2021-03-30T12:31:05Z</time>
      </trkpt>
      <trkpt lat="45.52923" lon="6.85718">
        <ele>3548</ele>
        <time>2021-03-30T12:31:06Z</time>
      </trkpt>
      <trkpt lat="45.52922" lon="6.85719">
        <ele>3550.1</ele>
        <time>2021-03-30T12:31:07Z</time>
      </trkpt>
      <trkpt lat="45.52922" lon="6.8572">
        <ele>3550.1</ele>
        <time>2021-03-30T12:31:08Z</time>
      </trkpt>
      <trkpt lat="45.52922" lon="6.85721">
        <ele>3550.1</ele>
        <time>2021-03-30T12:32:04Z</time>
      </trkpt>
      <trkpt lat="45.52922" lon="6.85723">
        <ele>3550.1</ele>
        <time>2021-03-30T12:32:05Z</time>
      </trkpt>
      <trkpt lat="45.52925" lon="6.85723">
        <ele>3550.5</ele>
        <time>2021-03-30T12:32:06Z</time>
      </trkpt>
      <trkpt lat="45.52926" lon="6.85723">
        <ele>3549</ele>
        <time>2021-03-30T12:32:07Z</time>
      </trkpt>
      <trkpt lat="45.52929" lon="6.8572">
        <ele>3547</ele>
        <time>2021-03-30T12:32:08Z</time>
      </trkpt>
      <trkpt lat="45.5293" lon="6.85716">
        <ele>3543.4</ele>
        <time>2021-03-30T12:32:09Z</time>
      </trkpt>
      <trkpt lat="45.5293" lon="6.8571">
        <ele>3541.3</ele>
        <time>2021-03-30T12:32:10Z</time>
      </trkpt>
      <trkpt lat="45.52929" lon="6.85704">
        <ele>3538.6</ele>
        <time>2021-03-30T12:32:11Z</time>
      </trkpt>
      <trkpt lat="45.52927" lon="6.85698">
        <ele>3536.7</ele>
        <time>2021-03-30T12:32:12Z</time>
      </trkpt>
      <trkpt lat="45.52926" lon="6.85693">
        <ele>3536.3</ele>
        <time>2021-03-30T12:32:13Z</time>
      </trkpt>
      <trkpt lat="45.52924" lon="6.85689">
        <ele>3534.5</ele>
        <time>2021-03-30T12:32:14Z</time>
      </trkpt>
      <trkpt lat="45.52924" lon="6.85685">
        <ele>3532.8</ele>
        <time>2021-03-30T12:32:15Z</time>
      </trkpt>
      <trkpt lat="45.52924" lon="6.85682">
        <ele>3531.1</ele>
        <time>2021-03-30T12:32:16Z</time>
      </trkpt>
      <trkpt lat="45.52925" lon="6.8568">
        <ele>3531.1</ele>
        <time>2021-03-30T12:32:17Z</time>
      </trkpt>
      <trkpt lat="45.52928" lon="6.85679">
        <ele>3527.7</ele>
        <time>2021-03-30T12:32:18Z</time>
      </trkpt>
      <trkpt lat="45.5293" lon="6.85678">
        <ele>3526.3</ele>
        <time>2021-03-30T12:32:19Z</time>
      </trkpt>
      <trkpt lat="45.52932" lon="6.85675">
        <ele>3524.5</ele>
        <time>2021-03-30T12:32:20Z</time>
      </trkpt>
      <trkpt lat="45.52933" lon="6.85671">
        <ele>3521.1</ele>
        <time>2021-03-30T12:32:21Z</time>
      </trkpt>
      <trkpt lat="45.52934" lon="6.85667">
        <ele>3521.1</ele>
        <time>2021-03-30T12:32:22Z</time>
      </trkpt>
      <trkpt lat="45.52935" lon="6.85663">
        <ele>3519.2</ele>
        <time>2021-03-30T12:32:23Z</time>
      </trkpt>
      <trkpt lat="45.52936" lon="6.85662">
        <ele>3515.8</ele>
        <time>2021-03-30T12:32:24Z</time>
      </trkpt>
      <trkpt lat="45.52939" lon="6.85663">
        <ele>3516.1</ele>
        <time>2021-03-30T12:32:25Z</time>
      </trkpt>
      <trkpt lat="45.5294" lon="6.85663">
        <ele>3516.1</ele>
        <time>2021-03-30T12:32:26Z</time>
      </trkpt>
      <trkpt lat="45.52943" lon="6.85661">
        <ele>3512.4</ele>
        <time>2021-03-30T12:32:27Z</time>
      </trkpt>
      <trkpt lat="45.52943" lon="6.85659">
        <ele>3512.4</ele>
        <time>2021-03-30T12:32:28Z</time>
      </trkpt>
      <trkpt lat="45.52943" lon="6.85655">
        <ele>3510.5</ele>
        <time>2021-03-30T12:32:29Z</time>
      </trkpt>
      <trkpt lat="45.52941" lon="6.8565">
        <ele>3507.1</ele>
        <time>2021-03-30T12:32:30Z</time>
      </trkpt>
      <trkpt lat="45.52939" lon="6.85646">
        <ele>3508.9</ele>
        <time>2021-03-30T12:32:31Z</time>
      </trkpt>
      <trkpt lat="45.5294" lon="6.85646">
        <ele>3508.9</ele>
        <time>2021-03-30T12:32:32Z</time>
      </trkpt>
      <trkpt lat="45.52941" lon="6.85647">
        <ele>3508.9</ele>
        <time>2021-03-30T12:32:33Z</time>
      </trkpt>
      <trkpt lat="45.52942" lon="6.85648">
        <ele>3507.1</ele>
        <time>2021-03-30T12:32:34Z</time>
      </trkpt>
      <trkpt lat="45.52944" lon="6.85649">
        <ele>3507.1</ele>
        <time>2021-03-30T12:32:35Z</time>
      </trkpt>
      <trkpt lat="45.52945" lon="6.8565">
        <ele>3505.7</ele>
        <time>2021-03-30T12:32:36Z</time>
      </trkpt>
      <trkpt lat="45.52949" lon="6.85651">
        <ele>3503.9</ele>
        <time>2021-03-30T12:32:37Z</time>
      </trkpt>
      <trkpt lat="45.52954" lon="6.85649">
        <ele>3498.9</ele>
        <time>2021-03-30T12:32:38Z</time>
      </trkpt>
      <trkpt lat="45.52958" lon="6.85646">
        <ele>3497.4</ele>
        <time>2021-03-30T12:32:39Z</time>
      </trkpt>
      <trkpt lat="45.5296" lon="6.85642">
        <ele>3494.2</ele>
        <time>2021-03-30T12:32:40Z</time>
      </trkpt>
      <trkpt lat="45.5296" lon="6.85641">
        <ele>3494.2</ele>
        <time>2021-03-30T12:32:41Z</time>
      </trkpt>
      <trkpt lat="45.52962" lon="6.85641">
        <ele>3492.6</ele>
        <time>2021-03-30T12:32:42Z</time>
      </trkpt>
      <trkpt lat="45.52964" lon="6.85642">
        <ele>3492.5</ele>
        <time>2021-03-30T12:32:43Z</time>
      </trkpt>
      <trkpt lat="45.52967" lon="6.85644">
        <ele>3490.8</ele>
        <time>2021-03-30T12:32:44Z</time>
      </trkpt>
      <trkpt lat="45.52968" lon="6.85644">
        <ele>3488.9</ele>
        <time>2021-03-30T12:32:45Z</time>
      </trkpt>
      <trkpt lat="45.52971" lon="6.85643">
        <ele>3487.1</ele>
        <time>2021-03-30T12:32:46Z</time>
      </trkpt>
      <trkpt lat="45.52975" lon="6.8564">
        <ele>3483.7</ele>
        <time>2021-03-30T12:32:47Z</time>
      </trkpt>
      <trkpt lat="45.52977" lon="6.85636">
        <ele>3480.2</ele>
        <time>2021-03-30T12:32:48Z</time>
      </trkpt>
      <trkpt lat="45.52977" lon="6.85631">
        <ele>3478.5</ele>
        <time>2021-03-30T12:32:49Z</time>
      </trkpt>
      <trkpt lat="45.52976" lon="6.85627">
        <ele>3478.4</ele>
        <time>2021-03-30T12:32:50Z</time>
      </trkpt>
      <trkpt lat="45.52974" lon="6.85626">
        <ele>3480.2</ele>
        <time>2021-03-30T12:32:51Z</time>
      </trkpt>
      <trkpt lat="45.52971" lon="6.85625">
        <ele>3480.2</ele>
        <time>2021-03-30T12:32:52Z</time>
      </trkpt>
      <trkpt lat="45.5297" lon="6.85624">
        <ele>3482</ele>
        <time>2021-03-30T12:32:53Z</time>
      </trkpt>
      <trkpt lat="45.52968" lon="6.85624">
        <ele>3482</ele>
        <time>2021-03-30T12:32:54Z</time>
      </trkpt>
      <trkpt lat="45.52966" lon="6.85624">
        <ele>3482</ele>
        <time>2021-03-30T12:32:55Z</time>
      </trkpt>
      <trkpt lat="45.52967" lon="6.85624">
        <ele>3482</ele>
        <time>2021-03-30T12:32:56Z</time>
      </trkpt>
      <trkpt lat="45.52968" lon="6.85624">
        <ele>3483.8</ele>
        <time>2021-03-30T12:32:57Z</time>
      </trkpt>
      <trkpt lat="45.52969" lon="6.85625">
        <ele>3482</ele>
        <time>2021-03-30T12:32:58Z</time>
      </trkpt>
      <trkpt lat="45.52969" lon="6.85625">
        <ele>3482</ele>
        <time>2021-03-30T12:32:59Z</time>
      </trkpt>
      <trkpt lat="45.5297" lon="6.85625">
        <ele>3482</ele>
        <time>2021-03-30T12:33:00Z</time>
      </trkpt>
      <trkpt lat="45.52971" lon="6.85626">
        <ele>3482</ele>
        <time>2021-03-30T12:33:31Z</time>
      </trkpt>
      <trkpt lat="45.52972" lon="6.85626">
        <ele>3480.2</ele>
        <time>2021-03-30T12:33:32Z</time>
      </trkpt>
      <trkpt lat="45.52973" lon="6.85625">
        <ele>3480.2</ele>
        <time>2021-03-30T12:33:33Z</time>
      </trkpt>
      <trkpt lat="45.52975" lon="6.85624">
        <ele>3476.6</ele>
        <time>2021-03-30T12:33:34Z</time>
      </trkpt>
      <trkpt lat="45.52977" lon="6.85623">
        <ele>3474.9</ele>
        <time>2021-03-30T12:33:35Z</time>
      </trkpt>
      <trkpt lat="45.52978" lon="6.85622">
        <ele>3474.9</ele>
        <time>2021-03-30T12:33:36Z</time>
      </trkpt>
      <trkpt lat="45.52979" lon="6.85621">
        <ele>3474.9</ele>
        <time>2021-03-30T12:33:37Z</time>
      </trkpt>
      <trkpt lat="45.5298" lon="6.8562">
        <ele>3474.9</ele>
        <time>2021-03-30T12:33:38Z</time>
      </trkpt>
      <trkpt lat="45.52981" lon="6.85621">
        <ele>3473.2</ele>
        <time>2021-03-30T12:33:39Z</time>
      </trkpt>
      <trkpt lat="45.52982" lon="6.85621">
        <ele>3473.2</ele>
        <time>2021-03-30T12:33:40Z</time>
      </trkpt>
      <trkpt lat="45.52984" lon="6.85619">
        <ele>3469.8</ele>
        <time>2021-03-30T12:33:41Z</time>
      </trkpt>
      <trkpt lat="45.52984" lon="6.85615">
        <ele>3468</ele>
        <time>2021-03-30T12:33:42Z</time>
      </trkpt>
      <trkpt lat="45.52984" lon="6.8561">
        <ele>3466.2</ele>
        <time>2021-03-30T12:33:43Z</time>
      </trkpt>
      <trkpt lat="45.52986" lon="6.85606">
        <ele>3464.5</ele>
        <time>2021-03-30T12:33:44Z</time>
      </trkpt>
      <trkpt lat="45.52987" lon="6.85605">
        <ele>3462.9</ele>
        <time>2021-03-30T12:33:45Z</time>
      </trkpt>
      <trkpt lat="45.52988" lon="6.85606">
        <ele>3462.9</ele>
        <time>2021-03-30T12:33:46Z</time>
      </trkpt>
      <trkpt lat="45.5299" lon="6.85605">
        <ele>3461.2</ele>
        <time>2021-03-30T12:33:47Z</time>
      </trkpt>
      <trkpt lat="45.52991" lon="6.85602">
        <ele>3459.5</ele>
        <time>2021-03-30T12:33:48Z</time>
      </trkpt>
      <trkpt lat="45.52992" lon="6.856">
        <ele>3459.5</ele>
        <time>2021-03-30T12:33:49Z</time>
      </trkpt>
      <trkpt lat="45.52992" lon="6.85597">
        <ele>3457.8</ele>
        <time>2021-03-30T12:33:50Z</time>
      </trkpt>
      <trkpt lat="45.52993" lon="6.85596">
        <ele>3456.1</ele>
        <time>2021-03-30T12:33:51Z</time>
      </trkpt>
      <trkpt lat="45.52994" lon="6.85597">
        <ele>3456.1</ele>
        <time>2021-03-30T12:33:52Z</time>
      </trkpt>
      <trkpt lat="45.52995" lon="6.856">
        <ele>3457.7</ele>
        <time>2021-03-30T12:33:53Z</time>
      </trkpt>
      <trkpt lat="45.52996" lon="6.85605">
        <ele>3457.5</ele>
        <time>2021-03-30T12:33:54Z</time>
      </trkpt>
      <trkpt lat="45.52997" lon="6.85607">
        <ele>3457.5</ele>
        <time>2021-03-30T12:33:55Z</time>
      </trkpt>
      <trkpt lat="45.52999" lon="6.85611">
        <ele>3457.3</ele>
        <time>2021-03-30T12:33:56Z</time>
      </trkpt>
      <trkpt lat="45.53001" lon="6.85615">
        <ele>3459.1</ele>
        <time>2021-03-30T12:33:57Z</time>
      </trkpt>
      <trkpt lat="45.53003" lon="6.85619">
        <ele>3459</ele>
        <time>2021-03-30T12:33:58Z</time>
      </trkpt>
      <trkpt lat="45.53004" lon="6.85623">
        <ele>3459</ele>
        <time>2021-03-30T12:33:59Z</time>
      </trkpt>
      <trkpt lat="45.53005" lon="6.85625">
        <ele>3460.9</ele>
        <time>2021-03-30T12:34:00Z</time>
      </trkpt>
      <trkpt lat="45.53007" lon="6.8563">
        <ele>3462.7</ele>
        <time>2021-03-30T12:34:01Z</time>
      </trkpt>
      <trkpt lat="45.53008" lon="6.85632">
        <ele>3460.9</ele>
        <time>2021-03-30T12:34:02Z</time>
      </trkpt>
      <trkpt lat="45.53009" lon="6.85634">
        <ele>3462.8</ele>
        <time>2021-03-30T12:34:03Z</time>
      </trkpt>
      <trkpt lat="45.53008" lon="6.85635">
        <ele>3462.8</ele>
        <time>2021-03-30T12:34:04Z</time>
      </trkpt>
      <trkpt lat="45.53008" lon="6.85635">
        <ele>3462.8</ele>
        <time>2021-03-30T12:34:05Z</time>
      </trkpt>
      <trkpt lat="45.53008" lon="6.85635">
        <ele>3462.8</ele>
        <time>2021-03-30T12:34:06Z</time>
      </trkpt>
      <trkpt lat="45.53008" lon="6.85635">
        <ele>3462.8</ele>
        <time>2021-03-30T12:34:07Z</time>
      </trkpt>
      <trkpt lat="45.53008" lon="6.85635">
        <ele>3462.8</ele>
        <time>2021-03-30T12:34:08Z</time>
      </trkpt>
      <trkpt lat="45.53007" lon="6.85637">
        <ele>3466.3</ele>
        <time>2021-03-30T12:34:09Z</time>
      </trkpt>
      <trkpt lat="45.53007" lon="6.85637">
        <ele>3466.3</ele>
        <time>2021-03-30T12:34:10Z</time>
      </trkpt>
      <trkpt lat="45.53007" lon="6.85638">
        <ele>3466.3</ele>
        <time>2021-03-30T12:34:11Z</time>
      </trkpt>
      <trkpt lat="45.53007" lon="6.85638">
        <ele>3466.3</ele>
        <time>2021-03-30T12:34:12Z</time>
      </trkpt>
      <trkpt lat="45.53007" lon="6.85638">
        <ele>3466.3</ele>
        <time>2021-03-30T12:34:13Z</time>
      </trkpt>
      <trkpt lat="45.53008" lon="6.85639">
        <ele>3464.6</ele>
        <time>2021-03-30T12:34:14Z</time>
      </trkpt>
      <trkpt lat="45.53018" lon="6.85649">
        <ele>3463.3</ele>
        <time>2021-03-30T12:34:36Z</time>
      </trkpt>
      <trkpt lat="45.53021" lon="6.85652">
        <ele>3463.4</ele>
        <time>2021-03-30T12:34:37Z</time>
      </trkpt>
      <trkpt lat="45.53023" lon="6.85655">
        <ele>3463.5</ele>
        <time>2021-03-30T12:34:38Z</time>
      </trkpt>
      <trkpt lat="45.53025" lon="6.85659">
        <ele>3465.4</ele>
        <time>2021-03-30T12:34:39Z</time>
      </trkpt>
      <trkpt lat="45.53028" lon="6.85663">
        <ele>3465.5</ele>
        <time>2021-03-30T12:34:40Z</time>
      </trkpt>
      <trkpt lat="45.53031" lon="6.85667">
        <ele>3463.6</ele>
        <time>2021-03-30T12:34:41Z</time>
      </trkpt>
      <trkpt lat="45.53034" lon="6.8567">
        <ele>3462</ele>
        <time>2021-03-30T12:34:42Z</time>
      </trkpt>
      <trkpt lat="45.53038" lon="6.85672">
        <ele>3462.4</ele>
        <time>2021-03-30T12:34:43Z</time>
      </trkpt>
      <trkpt lat="45.53043" lon="6.85672">
        <ele>3460.7</ele>
        <time>2021-03-30T12:34:44Z</time>
      </trkpt>
      <trkpt lat="45.53048" lon="6.85667">
        <ele>3453.2</ele>
        <time>2021-03-30T12:34:45Z</time>
      </trkpt>
      <trkpt lat="45.53052" lon="6.85659">
        <ele>3449.2</ele>
        <time>2021-03-30T12:34:46Z</time>
      </trkpt>
      <trkpt lat="45.53056" lon="6.85651">
        <ele>3441.6</ele>
        <time>2021-03-30T12:34:47Z</time>
      </trkpt>
      <trkpt lat="45.53056" lon="6.85644">
        <ele>3438.2</ele>
        <time>2021-03-30T12:34:48Z</time>
      </trkpt>
      <trkpt lat="45.53058" lon="6.85638">
        <ele>3436.4</ele>
        <time>2021-03-30T12:34:49Z</time>
      </trkpt>
      <trkpt lat="45.5306" lon="6.85635">
        <ele>3432.8</ele>
        <time>2021-03-30T12:34:50Z</time>
      </trkpt>
      <trkpt lat="45.53064" lon="6.85636">
        <ele>3431.1</ele>
        <time>2021-03-30T12:34:51Z</time>
      </trkpt>
      <trkpt lat="45.53069" lon="6.8564">
        <ele>3429.6</ele>
        <time>2021-03-30T12:34:52Z</time>
      </trkpt>
      <trkpt lat="45.53075" lon="6.85647">
        <ele>3429.7</ele>
        <time>2021-03-30T12:34:53Z</time>
      </trkpt>
      <trkpt lat="45.5308" lon="6.85653">
        <ele>3428.1</ele>
        <time>2021-03-30T12:34:54Z</time>
      </trkpt>
      <trkpt lat="45.53082" lon="6.85659">
        <ele>3431.6</ele>
        <time>2021-03-30T12:34:55Z</time>
      </trkpt>
      <trkpt lat="45.53086" lon="6.85666">
        <ele>3430.1</ele>
        <time>2021-03-30T12:34:56Z</time>
      </trkpt>
      <trkpt lat="45.5309" lon="6.85655">
        <ele>3424.9</ele>
        <time>2021-03-30T12:34:57Z</time>
      </trkpt>
      <trkpt lat="45.53093" lon="6.85654">
        <ele>3421.7</ele>
        <time>2021-03-30T12:34:58Z</time>
      </trkpt>
      <trkpt lat="45.53101" lon="6.85654">
        <ele>3419.3</ele>
        <time>2021-03-30T12:34:59Z</time>
      </trkpt>
      <trkpt lat="45.53107" lon="6.85664">
        <ele>3420</ele>
        <time>2021-03-30T12:35:00Z</time>
      </trkpt>
      <trkpt lat="45.53113" lon="6.85667">
        <ele>3417</ele>
        <time>2021-03-30T12:35:01Z</time>
      </trkpt>
      <trkpt lat="45.53119" lon="6.85671">
        <ele>3416.1</ele>
        <time>2021-03-30T12:35:02Z</time>
      </trkpt>
      <trkpt lat="45.53125" lon="6.85649">
        <ele>3406</ele>
        <time>2021-03-30T12:35:03Z</time>
      </trkpt>
      <trkpt lat="45.53131" lon="6.85644">
        <ele>3402.7</ele>
        <time>2021-03-30T12:35:04Z</time>
      </trkpt>
      <trkpt lat="45.53141" lon="6.85645">
        <ele>3399.6</ele>
        <time>2021-03-30T12:35:05Z</time>
      </trkpt>
      <trkpt lat="45.53147" lon="6.85633">
        <ele>3395.2</ele>
        <time>2021-03-30T12:35:06Z</time>
      </trkpt>
      <trkpt lat="45.53153" lon="6.85633">
        <ele>3393.8</ele>
        <time>2021-03-30T12:35:07Z</time>
      </trkpt>
      <trkpt lat="45.53154" lon="6.85628">
        <ele>3391.1</ele>
        <time>2021-03-30T12:35:08Z</time>
      </trkpt>
      <trkpt lat="45.53157" lon="6.85625">
        <ele>3390.3</ele>
        <time>2021-03-30T12:35:09Z</time>
      </trkpt>
      <trkpt lat="45.53163" lon="6.85615">
        <ele>3384.5</ele>
        <time>2021-03-30T12:35:10Z</time>
      </trkpt>
      <trkpt lat="45.53171" lon="6.85614">
        <ele>3382</ele>
        <time>2021-03-30T12:35:11Z</time>
      </trkpt>
      <trkpt lat="45.5318" lon="6.85615">
        <ele>3379.7</ele>
        <time>2021-03-30T12:35:12Z</time>
      </trkpt>
      <trkpt lat="45.53188" lon="6.85616">
        <ele>3379.2</ele>
        <time>2021-03-30T12:35:13Z</time>
      </trkpt>
      <trkpt lat="45.53196" lon="6.85615">
        <ele>3376.2</ele>
        <time>2021-03-30T12:35:14Z</time>
      </trkpt>
      <trkpt lat="45.53195" lon="6.85617">
        <ele>3377.7</ele>
        <time>2021-03-30T12:35:15Z</time>
      </trkpt>
      <trkpt lat="45.53195" lon="6.85619">
        <ele>3377.7</ele>
        <time>2021-03-30T12:35:16Z</time>
      </trkpt>
      <trkpt lat="45.53195" lon="6.8562">
        <ele>3379.2</ele>
        <time>2021-03-30T12:35:17Z</time>
      </trkpt>
      <trkpt lat="45.53195" lon="6.85622">
        <ele>3379.2</ele>
        <time>2021-03-30T12:35:18Z</time>
      </trkpt>
      <trkpt lat="45.53195" lon="6.85624">
        <ele>3380.6</ele>
        <time>2021-03-30T12:35:19Z</time>
      </trkpt>
      <trkpt lat="45.53195" lon="6.85626">
        <ele>3380.6</ele>
        <time>2021-03-30T12:35:20Z</time>
      </trkpt>
      <trkpt lat="45.53195" lon="6.85628">
        <ele>3380.6</ele>
        <time>2021-03-30T12:35:21Z</time>
      </trkpt>
      <trkpt lat="45.53196" lon="6.8563">
        <ele>3382</ele>
        <time>2021-03-30T12:35:22Z</time>
      </trkpt>
      <trkpt lat="45.53196" lon="6.85632">
        <ele>3382</ele>
        <time>2021-03-30T12:35:23Z</time>
      </trkpt>
      <trkpt lat="45.53196" lon="6.85634">
        <ele>3383.3</ele>
        <time>2021-03-30T12:35:24Z</time>
      </trkpt>
      <trkpt lat="45.53196" lon="6.85636">
        <ele>3383.3</ele>
        <time>2021-03-30T12:35:25Z</time>
      </trkpt>
      <trkpt lat="45.53196" lon="6.85638">
        <ele>3384.6</ele>
        <time>2021-03-30T12:35:26Z</time>
      </trkpt>
      <trkpt lat="45.53196" lon="6.85639">
        <ele>3384.6</ele>
        <time>2021-03-30T12:37:18Z</time>
      </trkpt>
      <trkpt lat="45.53196" lon="6.85641">
        <ele>3385.9</ele>
        <time>2021-03-30T12:37:19Z</time>
      </trkpt>
      <trkpt lat="45.53202" lon="6.85642">
        <ele>3384.4</ele>
        <time>2021-03-30T12:37:20Z</time>
      </trkpt>
      <trkpt lat="45.53209" lon="6.85645">
        <ele>3382.5</ele>
        <time>2021-03-30T12:37:21Z</time>
      </trkpt>
      <trkpt lat="45.53217" lon="6.85647">
        <ele>3382.6</ele>
        <time>2021-03-30T12:37:22Z</time>
      </trkpt>
      <trkpt lat="45.53226" lon="6.8565">
        <ele>3380.8</ele>
        <time>2021-03-30T12:37:23Z</time>
      </trkpt>
      <trkpt lat="45.53234" lon="6.85652">
        <ele>3380.9</ele>
        <time>2021-03-30T12:37:24Z</time>
      </trkpt>
      <trkpt lat="45.53243" lon="6.85654">
        <ele>3381.4</ele>
        <time>2021-03-30T12:37:25Z</time>
      </trkpt>
      <trkpt lat="45.53255" lon="6.85656">
        <ele>3380.5</ele>
        <time>2021-03-30T12:37:26Z</time>
      </trkpt>
      <trkpt lat="45.53265" lon="6.85652">
        <ele>3378.7</ele>
        <time>2021-03-30T12:37:27Z</time>
      </trkpt>
      <trkpt lat="45.53273" lon="6.85646">
        <ele>3377.4</ele>
        <time>2021-03-30T12:37:28Z</time>
      </trkpt>
      <trkpt lat="45.53283" lon="6.85633">
        <ele>3373.6</ele>
        <time>2021-03-30T12:37:29Z</time>
      </trkpt>
      <trkpt lat="45.53292" lon="6.85625">
        <ele>3371.4</ele>
        <time>2021-03-30T12:37:30Z</time>
      </trkpt>
      <trkpt lat="45.53302" lon="6.85615">
        <ele>3368.1</ele>
        <time>2021-03-30T12:37:31Z</time>
      </trkpt>
      <trkpt lat="45.53308" lon="6.85607">
        <ele>3367.1</ele>
        <time>2021-03-30T12:37:32Z</time>
      </trkpt>
      <trkpt lat="45.53308" lon="6.8559">
        <ele>3362.8</ele>
        <time>2021-03-30T12:37:33Z</time>
      </trkpt>
      <trkpt lat="45.5331" lon="6.85577">
        <ele>3357.9</ele>
        <time>2021-03-30T12:37:34Z</time>
      </trkpt>
      <trkpt lat="45.53309" lon="6.85563">
        <ele>3351.4</ele>
        <time>2021-03-30T12:37:35Z</time>
      </trkpt>
      <trkpt lat="45.53304" lon="6.8555">
        <ele>3345.9</ele>
        <time>2021-03-30T12:37:36Z</time>
      </trkpt>
      <trkpt lat="45.53289" lon="6.85545">
        <ele>3341.7</ele>
        <time>2021-03-30T12:37:37Z</time>
      </trkpt>
      <trkpt lat="45.53276" lon="6.85542">
        <ele>3339.5</ele>
        <time>2021-03-30T12:37:38Z</time>
      </trkpt>
      <trkpt lat="45.53268" lon="6.85537">
        <ele>3338</ele>
        <time>2021-03-30T12:37:39Z</time>
      </trkpt>
      <trkpt lat="45.53261" lon="6.85526">
        <ele>3335.3</ele>
        <time>2021-03-30T12:37:40Z</time>
      </trkpt>
      <trkpt lat="45.53256" lon="6.85522">
        <ele>3334.2</ele>
        <time>2021-03-30T12:37:41Z</time>
      </trkpt>
      <trkpt lat="45.5325" lon="6.85514">
        <ele>3332</ele>
        <time>2021-03-30T12:37:42Z</time>
      </trkpt>
      <trkpt lat="45.53247" lon="6.85501">
        <ele>3328.5</ele>
        <time>2021-03-30T12:37:43Z</time>
      </trkpt>
      <trkpt lat="45.53245" lon="6.85507">
        <ele>3330</ele>
        <time>2021-03-30T12:37:44Z</time>
      </trkpt>
      <trkpt lat="45.53243" lon="6.85501">
        <ele>3328.7</ele>
        <time>2021-03-30T12:37:45Z</time>
      </trkpt>
      <trkpt lat="45.5324" lon="6.85496">
        <ele>3327.5</ele>
        <time>2021-03-30T12:37:46Z</time>
      </trkpt>
      <trkpt lat="45.53238" lon="6.85489">
        <ele>3325</ele>
        <time>2021-03-30T12:37:47Z</time>
      </trkpt>
      <trkpt lat="45.53237" lon="6.85479">
        <ele>3322.3</ele>
        <time>2021-03-30T12:37:48Z</time>
      </trkpt>
      <trkpt lat="45.53237" lon="6.8547">
        <ele>3319.8</ele>
        <time>2021-03-30T12:37:49Z</time>
      </trkpt>
      <trkpt lat="45.53228" lon="6.85462">
        <ele>3318.6</ele>
        <time>2021-03-30T12:37:50Z</time>
      </trkpt>
      <trkpt lat="45.53223" lon="6.85456">
        <ele>3317.1</ele>
        <time>2021-03-30T12:37:51Z</time>
      </trkpt>
      <trkpt lat="45.53224" lon="6.85452">
        <ele>3315.2</ele>
        <time>2021-03-30T12:37:52Z</time>
      </trkpt>
      <trkpt lat="45.53233" lon="6.85443">
        <ele>3311.5</ele>
        <time>2021-03-30T12:37:53Z</time>
      </trkpt>
      <trkpt lat="45.53235" lon="6.85435">
        <ele>3308.4</ele>
        <time>2021-03-30T12:37:54Z</time>
      </trkpt>
      <trkpt lat="45.53235" lon="6.85427">
        <ele>3307</ele>
        <time>2021-03-30T12:37:55Z</time>
      </trkpt>
      <trkpt lat="45.53233" lon="6.85424">
        <ele>3305.7</ele>
        <time>2021-03-30T12:37:56Z</time>
      </trkpt>
      <trkpt lat="45.53235" lon="6.85422">
        <ele>3304.3</ele>
        <time>2021-03-30T12:37:57Z</time>
      </trkpt>
      <trkpt lat="45.53239" lon="6.85421">
        <ele>3303.7</ele>
        <time>2021-03-30T12:37:58Z</time>
      </trkpt>
      <trkpt lat="45.53241" lon="6.85421">
        <ele>3303.7</ele>
        <time>2021-03-30T12:37:59Z</time>
      </trkpt>
      <trkpt lat="45.53243" lon="6.85416">
        <ele>3302</ele>
        <time>2021-03-30T12:38:00Z</time>
      </trkpt>
      <trkpt lat="45.53245" lon="6.85409">
        <ele>3299.2</ele>
        <time>2021-03-30T12:38:01Z</time>
      </trkpt>
      <trkpt lat="45.53246" lon="6.85403">
        <ele>3297.5</ele>
        <time>2021-03-30T12:38:02Z</time>
      </trkpt>
      <trkpt lat="45.53248" lon="6.85397">
        <ele>3296</ele>
        <time>2021-03-30T12:38:03Z</time>
      </trkpt>
      <trkpt lat="45.53253" lon="6.85392">
        <ele>3292.7</ele>
        <time>2021-03-30T12:38:04Z</time>
      </trkpt>
      <trkpt lat="45.53254" lon="6.85396">
        <ele>3294.1</ele>
        <time>2021-03-30T12:38:05Z</time>
      </trkpt>
      <trkpt lat="45.53252" lon="6.85395">
        <ele>3294.1</ele>
        <time>2021-03-30T12:38:06Z</time>
      </trkpt>
      <trkpt lat="45.53251" lon="6.85395">
        <ele>3294.1</ele>
        <time>2021-03-30T12:38:07Z</time>
      </trkpt>
      <trkpt lat="45.53249" lon="6.85394">
        <ele>3294.3</ele>
        <time>2021-03-30T12:38:08Z</time>
      </trkpt>
      <trkpt lat="45.53248" lon="6.85394">
        <ele>3294.3</ele>
        <time>2021-03-30T12:38:09Z</time>
      </trkpt>
      <trkpt lat="45.53249" lon="6.85394">
        <ele>3294.3</ele>
        <time>2021-03-30T12:38:10Z</time>
      </trkpt>
      <trkpt lat="45.53249" lon="6.85393">
        <ele>3294.3</ele>
        <time>2021-03-30T12:38:11Z</time>
      </trkpt>
      <trkpt lat="45.5325" lon="6.85393">
        <ele>3294.3</ele>
        <time>2021-03-30T12:38:12Z</time>
      </trkpt>
      <trkpt lat="45.5325" lon="6.85392">
        <ele>3294.3</ele>
        <time>2021-03-30T12:38:13Z</time>
      </trkpt>
      <trkpt lat="45.53251" lon="6.85392">
        <ele>3292.7</ele>
        <time>2021-03-30T12:38:14Z</time>
      </trkpt>
      <trkpt lat="45.53251" lon="6.85392">
        <ele>3292.7</ele>
        <time>2021-03-30T12:38:15Z</time>
      </trkpt>
      <trkpt lat="45.53255" lon="6.85389">
        <ele>3292.6</ele>
        <time>2021-03-30T12:38:16Z</time>
      </trkpt>
      <trkpt lat="45.53256" lon="6.85387">
        <ele>3291.2</ele>
        <time>2021-03-30T12:38:17Z</time>
      </trkpt>
      <trkpt lat="45.5326" lon="6.85384">
        <ele>3289.7</ele>
        <time>2021-03-30T12:38:18Z</time>
      </trkpt>
      <trkpt lat="45.53264" lon="6.8538">
        <ele>3289.6</ele>
        <time>2021-03-30T12:38:19Z</time>
      </trkpt>
      <trkpt lat="45.53268" lon="6.85377">
        <ele>3288.2</ele>
        <time>2021-03-30T12:38:20Z</time>
      </trkpt>
      <trkpt lat="45.53271" lon="6.85375">
        <ele>3286.8</ele>
        <time>2021-03-30T12:38:21Z</time>
      </trkpt>
      <trkpt lat="45.53274" lon="6.85372">
        <ele>3286.8</ele>
        <time>2021-03-30T12:38:22Z</time>
      </trkpt>
      <trkpt lat="45.53277" lon="6.85369">
        <ele>3285.5</ele>
        <time>2021-03-30T12:38:23Z</time>
      </trkpt>
      <trkpt lat="45.5328" lon="6.85366">
        <ele>3284.2</ele>
        <time>2021-03-30T12:38:24Z</time>
      </trkpt>
      <trkpt lat="45.53281" lon="6.85361">
        <ele>3283</ele>
        <time>2021-03-30T12:38:25Z</time>
      </trkpt>
      <trkpt lat="45.5328" lon="6.85354">
        <ele>3281.2</ele>
        <time>2021-03-30T12:38:26Z</time>
      </trkpt>
      <trkpt lat="45.53276" lon="6.85345">
        <ele>3276.7</ele>
        <time>2021-03-30T12:38:27Z</time>
      </trkpt>
      <trkpt lat="45.53276" lon="6.85341">
        <ele>3275.3</ele>
        <time>2021-03-30T12:38:28Z</time>
      </trkpt>
      <trkpt lat="45.53275" lon="6.85336">
        <ele>3274</ele>
        <time>2021-03-30T12:38:29Z</time>
      </trkpt>
      <trkpt lat="45.53275" lon="6.85332">
        <ele>3272.7</ele>
        <time>2021-03-30T12:38:30Z</time>
      </trkpt>
      <trkpt lat="45.53276" lon="6.85329">
        <ele>3272.7</ele>
        <time>2021-03-30T12:38:31Z</time>
      </trkpt>
      <trkpt lat="45.53274" lon="6.85323">
        <ele>3269.7</ele>
        <time>2021-03-30T12:38:32Z</time>
      </trkpt>
      <trkpt lat="45.5327" lon="6.85318">
        <ele>3267.9</ele>
        <time>2021-03-30T12:38:33Z</time>
      </trkpt>
      <trkpt lat="45.53265" lon="6.85315">
        <ele>3265.9</ele>
        <time>2021-03-30T12:38:34Z</time>
      </trkpt>
      <trkpt lat="45.53262" lon="6.85317">
        <ele>3267.4</ele>
        <time>2021-03-30T12:38:35Z</time>
      </trkpt>
      <trkpt lat="45.53261" lon="6.85315">
        <ele>3265.8</ele>
        <time>2021-03-30T12:38:36Z</time>
      </trkpt>
      <trkpt lat="45.53262" lon="6.85308">
        <ele>3264.1</ele>
        <time>2021-03-30T12:38:37Z</time>
      </trkpt>
      <trkpt lat="45.53263" lon="6.85304">
        <ele>3262.6</ele>
        <time>2021-03-30T12:38:38Z</time>
      </trkpt>
      <trkpt lat="45.53258" lon="6.85301">
        <ele>3260.6</ele>
        <time>2021-03-30T12:38:39Z</time>
      </trkpt>
      <trkpt lat="45.53254" lon="6.85299">
        <ele>3260.4</ele>
        <time>2021-03-30T12:38:40Z</time>
      </trkpt>
      <trkpt lat="45.53252" lon="6.85298">
        <ele>3258.8</ele>
        <time>2021-03-30T12:38:41Z</time>
      </trkpt>
      <trkpt lat="45.53251" lon="6.85296">
        <ele>3258.8</ele>
        <time>2021-03-30T12:38:42Z</time>
      </trkpt>
      <trkpt lat="45.53254" lon="6.85295">
        <ele>3258.8</ele>
        <time>2021-03-30T12:38:43Z</time>
      </trkpt>
      <trkpt lat="45.53255" lon="6.85295">
        <ele>3258.9</ele>
        <time>2021-03-30T12:38:44Z</time>
      </trkpt>
      <trkpt lat="45.53253" lon="6.85295">
        <ele>3258.8</ele>
        <time>2021-03-30T12:38:45Z</time>
      </trkpt>
      <trkpt lat="45.53251" lon="6.85294">
        <ele>3258.8</ele>
        <time>2021-03-30T12:38:46Z</time>
      </trkpt>
      <trkpt lat="45.53249" lon="6.85294">
        <ele>3257.2</ele>
        <time>2021-03-30T12:38:47Z</time>
      </trkpt>
      <trkpt lat="45.53248" lon="6.85293">
        <ele>3257.2</ele>
        <time>2021-03-30T12:38:48Z</time>
      </trkpt>
      <trkpt lat="45.53246" lon="6.85293">
        <ele>3257.2</ele>
        <time>2021-03-30T12:38:49Z</time>
      </trkpt>
      <trkpt lat="45.53244" lon="6.85292">
        <ele>3257.2</ele>
        <time>2021-03-30T12:38:50Z</time>
      </trkpt>
      <trkpt lat="45.53242" lon="6.85292">
        <ele>3257.2</ele>
        <time>2021-03-30T12:38:51Z</time>
      </trkpt>
      <trkpt lat="45.5324" lon="6.85291">
        <ele>3257.3</ele>
        <time>2021-03-30T12:38:52Z</time>
      </trkpt>
      <trkpt lat="45.53238" lon="6.85291">
        <ele>3257.4</ele>
        <time>2021-03-30T12:38:53Z</time>
      </trkpt>
      <trkpt lat="45.53236" lon="6.8529">
        <ele>3257.4</ele>
        <time>2021-03-30T12:40:42Z</time>
      </trkpt>
      <trkpt lat="45.53235" lon="6.8529">
        <ele>3257.6</ele>
        <time>2021-03-30T12:40:43Z</time>
      </trkpt>
      <trkpt lat="45.53229" lon="6.85291">
        <ele>3258</ele>
        <time>2021-03-30T12:40:44Z</time>
      </trkpt>
      <trkpt lat="45.53224" lon="6.85291">
        <ele>3258.3</ele>
        <time>2021-03-30T12:40:45Z</time>
      </trkpt>
      <trkpt lat="45.5322" lon="6.8529">
        <ele>3258.8</ele>
        <time>2021-03-30T12:40:46Z</time>
      </trkpt>
      <trkpt lat="45.53239" lon="6.85274">
        <ele>3250.9</ele>
        <time>2021-03-30T12:40:47Z</time>
      </trkpt>
      <trkpt lat="45.53242" lon="6.85269">
        <ele>3249.1</ele>
        <time>2021-03-30T12:40:48Z</time>
      </trkpt>
      <trkpt lat="45.53244" lon="6.8526">
        <ele>3245.6</ele>
        <time>2021-03-30T12:40:49Z</time>
      </trkpt>
      <trkpt lat="45.53245" lon="6.85252">
        <ele>3242.2</ele>
        <time>2021-03-30T12:40:50Z</time>
      </trkpt>
      <trkpt lat="45.53242" lon="6.85246">
        <ele>3239.1</ele>
        <time>2021-03-30T12:40:51Z</time>
      </trkpt>
      <trkpt lat="45.53225" lon="6.85245">
        <ele>3239.2</ele>
        <time>2021-03-30T12:40:52Z</time>
      </trkpt>
      <trkpt lat="45.53224" lon="6.85244">
        <ele>3239.2</ele>
        <time>2021-03-30T12:40:53Z</time>
      </trkpt>
      <trkpt lat="45.53217" lon="6.85237">
        <ele>3235.8</ele>
        <time>2021-03-30T12:40:54Z</time>
      </trkpt>
      <trkpt lat="45.53208" lon="6.85233">
        <ele>3234.3</ele>
        <time>2021-03-30T12:40:55Z</time>
      </trkpt>
      <trkpt lat="45.53205" lon="6.85231">
        <ele>3234.5</ele>
        <time>2021-03-30T12:40:56Z</time>
      </trkpt>
      <trkpt lat="45.53205" lon="6.85227">
        <ele>3232.5</ele>
        <time>2021-03-30T12:40:57Z</time>
      </trkpt>
      <trkpt lat="45.53206" lon="6.85225">
        <ele>3230.4</ele>
        <time>2021-03-30T12:40:58Z</time>
      </trkpt>
      <trkpt lat="45.53204" lon="6.85226">
        <ele>3232.5</ele>
        <time>2021-03-30T12:40:59Z</time>
      </trkpt>
      <trkpt lat="45.53204" lon="6.85228">
        <ele>3232.5</ele>
        <time>2021-03-30T12:41:00Z</time>
      </trkpt>
      <trkpt lat="45.53204" lon="6.8523">
        <ele>3234.5</ele>
        <time>2021-03-30T12:41:01Z</time>
      </trkpt>
      <trkpt lat="45.53204" lon="6.85232">
        <ele>3234.5</ele>
        <time>2021-03-30T12:41:02Z</time>
      </trkpt>
      <trkpt lat="45.53203" lon="6.85233">
        <ele>3234.5</ele>
        <time>2021-03-30T12:41:03Z</time>
      </trkpt>
      <trkpt lat="45.53203" lon="6.85235">
        <ele>3236.4</ele>
        <time>2021-03-30T12:41:04Z</time>
      </trkpt>
      <trkpt lat="45.53202" lon="6.85236">
        <ele>3236.6</ele>
        <time>2021-03-30T12:41:05Z</time>
      </trkpt>
      <trkpt lat="45.532" lon="6.85236">
        <ele>3236.6</ele>
        <time>2021-03-30T12:41:06Z</time>
      </trkpt>
      <trkpt lat="45.53199" lon="6.85238">
        <ele>3238.6</ele>
        <time>2021-03-30T12:41:07Z</time>
      </trkpt>
      <trkpt lat="45.53199" lon="6.85239">
        <ele>3238.6</ele>
        <time>2021-03-30T12:41:08Z</time>
      </trkpt>
      <trkpt lat="45.532" lon="6.8524">
        <ele>3238.6</ele>
        <time>2021-03-30T12:41:09Z</time>
      </trkpt>
      <trkpt lat="45.532" lon="6.85241">
        <ele>3238.6</ele>
        <time>2021-03-30T12:41:10Z</time>
      </trkpt>
      <trkpt lat="45.532" lon="6.85241">
        <ele>3238.4</ele>
        <time>2021-03-30T12:41:11Z</time>
      </trkpt>
      <trkpt lat="45.532" lon="6.85242">
        <ele>3240.2</ele>
        <time>2021-03-30T12:41:12Z</time>
      </trkpt>
      <trkpt lat="45.532" lon="6.85243">
        <ele>3240.2</ele>
        <time>2021-03-30T12:41:13Z</time>
      </trkpt>
      <trkpt lat="45.532" lon="6.85244">
        <ele>3240.2</ele>
        <time>2021-03-30T12:41:14Z</time>
      </trkpt>
      <trkpt lat="45.532" lon="6.85245">
        <ele>3240.2</ele>
        <time>2021-03-30T12:41:15Z</time>
      </trkpt>
      <trkpt lat="45.532" lon="6.85245">
        <ele>3240.2</ele>
        <time>2021-03-30T12:41:16Z</time>
      </trkpt>
      <trkpt lat="45.532" lon="6.85246">
        <ele>3240.2</ele>
        <time>2021-03-30T12:41:17Z</time>
      </trkpt>
      <trkpt lat="45.532" lon="6.85247">
        <ele>3242.1</ele>
        <time>2021-03-30T12:41:20Z</time>
      </trkpt>
      <trkpt lat="45.532" lon="6.85248">
        <ele>3242.1</ele>
        <time>2021-03-30T12:41:21Z</time>
      </trkpt>
      <trkpt lat="45.53201" lon="6.85249">
        <ele>3242.1</ele>
        <time>2021-03-30T12:41:22Z</time>
      </trkpt>
      <trkpt lat="45.53201" lon="6.85249">
        <ele>3242.1</ele>
        <time>2021-03-30T12:41:23Z</time>
      </trkpt>
      <trkpt lat="45.53201" lon="6.8525">
        <ele>3242.1</ele>
        <time>2021-03-30T12:41:24Z</time>
      </trkpt>
      <trkpt lat="45.532" lon="6.85249">
        <ele>3242.1</ele>
        <time>2021-03-30T12:41:25Z</time>
      </trkpt>
      <trkpt lat="45.53199" lon="6.85249">
        <ele>3242.3</ele>
        <time>2021-03-30T12:41:26Z</time>
      </trkpt>
      <trkpt lat="45.53199" lon="6.85248">
        <ele>3242.3</ele>
        <time>2021-03-30T12:41:27Z</time>
      </trkpt>
      <trkpt lat="45.53198" lon="6.85247">
        <ele>3242.3</ele>
        <time>2021-03-30T12:41:28Z</time>
      </trkpt>
      <trkpt lat="45.53197" lon="6.85247">
        <ele>3242.3</ele>
        <time>2021-03-30T12:41:29Z</time>
      </trkpt>
      <trkpt lat="45.53197" lon="6.85246">
        <ele>3240.4</ele>
        <time>2021-03-30T12:41:30Z</time>
      </trkpt>
      <trkpt lat="45.53196" lon="6.85245">
        <ele>3240.7</ele>
        <time>2021-03-30T12:42:06Z</time>
      </trkpt>
      <trkpt lat="45.53195" lon="6.85245">
        <ele>3240.7</ele>
        <time>2021-03-30T12:42:07Z</time>
      </trkpt>
      <trkpt lat="45.53196" lon="6.85239">
        <ele>3238.9</ele>
        <time>2021-03-30T12:42:08Z</time>
      </trkpt>
      <trkpt lat="45.53197" lon="6.85232">
        <ele>3234.9</ele>
        <time>2021-03-30T12:42:09Z</time>
      </trkpt>
      <trkpt lat="45.53199" lon="6.85226">
        <ele>3232.9</ele>
        <time>2021-03-30T12:42:10Z</time>
      </trkpt>
      <trkpt lat="45.53198" lon="6.8522">
        <ele>3228.7</ele>
        <time>2021-03-30T12:42:11Z</time>
      </trkpt>
      <trkpt lat="45.53194" lon="6.85216">
        <ele>3226.8</ele>
        <time>2021-03-30T12:42:12Z</time>
      </trkpt>
      <trkpt lat="45.5319" lon="6.85215">
        <ele>3227.3</ele>
        <time>2021-03-30T12:42:13Z</time>
      </trkpt>
      <trkpt lat="45.53187" lon="6.85215">
        <ele>3227.5</ele>
        <time>2021-03-30T12:42:14Z</time>
      </trkpt>
      <trkpt lat="45.53184" lon="6.85215">
        <ele>3227.7</ele>
        <time>2021-03-30T12:42:15Z</time>
      </trkpt>
      <trkpt lat="45.53183" lon="6.85214">
        <ele>3227.7</ele>
        <time>2021-03-30T12:42:16Z</time>
      </trkpt>
      <trkpt lat="45.5318" lon="6.85212">
        <ele>3225.8</ele>
        <time>2021-03-30T12:42:17Z</time>
      </trkpt>
      <trkpt lat="45.53179" lon="6.8521">
        <ele>3226</ele>
        <time>2021-03-30T12:42:18Z</time>
      </trkpt>
      <trkpt lat="45.53178" lon="6.85209">
        <ele>3226</ele>
        <time>2021-03-30T12:42:19Z</time>
      </trkpt>
      <trkpt lat="45.53181" lon="6.85205">
        <ele>3223.8</ele>
        <time>2021-03-30T12:42:20Z</time>
      </trkpt>
      <trkpt lat="45.53183" lon="6.85203">
        <ele>3221.6</ele>
        <time>2021-03-30T12:42:21Z</time>
      </trkpt>
      <trkpt lat="45.53186" lon="6.85202">
        <ele>3221.4</ele>
        <time>2021-03-30T12:42:22Z</time>
      </trkpt>
      <trkpt lat="45.53189" lon="6.852">
        <ele>3221.2</ele>
        <time>2021-03-30T12:42:23Z</time>
      </trkpt>
      <trkpt lat="45.5319" lon="6.85199">
        <ele>3219.2</ele>
        <time>2021-03-30T12:42:24Z</time>
      </trkpt>
      <trkpt lat="45.53191" lon="6.85198">
        <ele>3219.1</ele>
        <time>2021-03-30T12:42:25Z</time>
      </trkpt>
      <trkpt lat="45.53192" lon="6.85197">
        <ele>3219.1</ele>
        <time>2021-03-30T12:42:26Z</time>
      </trkpt>
      <trkpt lat="45.53194" lon="6.85193">
        <ele>3216.9</ele>
        <time>2021-03-30T12:42:27Z</time>
      </trkpt>
      <trkpt lat="45.53194" lon="6.85191">
        <ele>3214.9</ele>
        <time>2021-03-30T12:42:28Z</time>
      </trkpt>
      <trkpt lat="45.53192" lon="6.85186">
        <ele>3215.1</ele>
        <time>2021-03-30T12:42:29Z</time>
      </trkpt>
      <trkpt lat="45.53191" lon="6.85186">
        <ele>3213.1</ele>
        <time>2021-03-30T12:42:30Z</time>
      </trkpt>
      <trkpt lat="45.53187" lon="6.85186">
        <ele>3213.2</ele>
        <time>2021-03-30T12:42:31Z</time>
      </trkpt>
      <trkpt lat="45.53183" lon="6.85188">
        <ele>3215.5</ele>
        <time>2021-03-30T12:42:32Z</time>
      </trkpt>
      <trkpt lat="45.53179" lon="6.85185">
        <ele>3213.6</ele>
        <time>2021-03-30T12:42:33Z</time>
      </trkpt>
      <trkpt lat="45.53174" lon="6.85184">
        <ele>3214</ele>
        <time>2021-03-30T12:42:34Z</time>
      </trkpt>
      <trkpt lat="45.53171" lon="6.85185">
        <ele>3214.1</ele>
        <time>2021-03-30T12:42:35Z</time>
      </trkpt>
      <trkpt lat="45.53168" lon="6.85183">
        <ele>3214.3</ele>
        <time>2021-03-30T12:42:36Z</time>
      </trkpt>
      <trkpt lat="45.53164" lon="6.85182">
        <ele>3212.4</ele>
        <time>2021-03-30T12:42:37Z</time>
      </trkpt>
      <trkpt lat="45.53162" lon="6.85181">
        <ele>3212.5</ele>
        <time>2021-03-30T12:42:38Z</time>
      </trkpt>
      <trkpt lat="45.5317" lon="6.85177">
        <ele>3209.7</ele>
        <time>2021-03-30T12:42:39Z</time>
      </trkpt>
      <trkpt lat="45.5317" lon="6.85165">
        <ele>3202.8</ele>
        <time>2021-03-30T12:42:40Z</time>
      </trkpt>
      <trkpt lat="45.53169" lon="6.85159">
        <ele>3200.9</ele>
        <time>2021-03-30T12:42:41Z</time>
      </trkpt>
      <trkpt lat="45.53169" lon="6.85154">
        <ele>3198.8</ele>
        <time>2021-03-30T12:42:42Z</time>
      </trkpt>
      <trkpt lat="45.53166" lon="6.85153">
        <ele>3199.1</ele>
        <time>2021-03-30T12:42:43Z</time>
      </trkpt>
      <trkpt lat="45.53163" lon="6.85151">
        <ele>3197.3</ele>
        <time>2021-03-30T12:42:44Z</time>
      </trkpt>
      <trkpt lat="45.53159" lon="6.85149">
        <ele>3197.5</ele>
        <time>2021-03-30T12:42:45Z</time>
      </trkpt>
      <trkpt lat="45.53156" lon="6.85147">
        <ele>3195.8</ele>
        <time>2021-03-30T12:42:46Z</time>
      </trkpt>
      <trkpt lat="45.53152" lon="6.85145">
        <ele>3196</ele>
        <time>2021-03-30T12:42:47Z</time>
      </trkpt>
      <trkpt lat="45.53148" lon="6.85142">
        <ele>3194.5</ele>
        <time>2021-03-30T12:42:48Z</time>
      </trkpt>
      <trkpt lat="45.53146" lon="6.8514">
        <ele>3194.5</ele>
        <time>2021-03-30T12:42:49Z</time>
      </trkpt>
      <trkpt lat="45.53146" lon="6.8514">
        <ele>3194.5</ele>
        <time>2021-03-30T12:42:50Z</time>
      </trkpt>
      <trkpt lat="45.53148" lon="6.85139">
        <ele>3194.5</ele>
        <time>2021-03-30T12:42:51Z</time>
      </trkpt>
      <trkpt lat="45.53149" lon="6.85139">
        <ele>3192.2</ele>
        <time>2021-03-30T12:42:52Z</time>
      </trkpt>
      <trkpt lat="45.5315" lon="6.85139">
        <ele>3192.2</ele>
        <time>2021-03-30T12:42:53Z</time>
      </trkpt>
      <trkpt lat="45.53155" lon="6.85139">
        <ele>3191.9</ele>
        <time>2021-03-30T12:42:54Z</time>
      </trkpt>
      <trkpt lat="45.53158" lon="6.8514">
        <ele>3193.5</ele>
        <time>2021-03-30T12:42:55Z</time>
      </trkpt>
      <trkpt lat="45.53162" lon="6.85141">
        <ele>3193.3</ele>
        <time>2021-03-30T12:42:56Z</time>
      </trkpt>
      <trkpt lat="45.53165" lon="6.85141">
        <ele>3193</ele>
        <time>2021-03-30T12:42:57Z</time>
      </trkpt>
      <trkpt lat="45.53168" lon="6.8514">
        <ele>3192.8</ele>
        <time>2021-03-30T12:42:58Z</time>
      </trkpt>
      <trkpt lat="45.53172" lon="6.85139">
        <ele>3192.5</ele>
        <time>2021-03-30T12:42:59Z</time>
      </trkpt>
      <trkpt lat="45.53175" lon="6.85139">
        <ele>3190.1</ele>
        <time>2021-03-30T12:43:00Z</time>
      </trkpt>
      <trkpt lat="45.53178" lon="6.85138">
        <ele>3189.8</ele>
        <time>2021-03-30T12:43:01Z</time>
      </trkpt>
      <trkpt lat="45.53182" lon="6.85137">
        <ele>3189.3</ele>
        <time>2021-03-30T12:43:02Z</time>
      </trkpt>
      <trkpt lat="45.53179" lon="6.85133">
        <ele>3187.3</ele>
        <time>2021-03-30T12:43:03Z</time>
      </trkpt>
      <trkpt lat="45.53175" lon="6.8513">
        <ele>3185.7</ele>
        <time>2021-03-30T12:43:04Z</time>
      </trkpt>
      <trkpt lat="45.5317" lon="6.85122">
        <ele>3183.8</ele>
        <time>2021-03-30T12:43:05Z</time>
      </trkpt>
      <trkpt lat="45.53168" lon="6.85119">
        <ele>3181.9</ele>
        <time>2021-03-30T12:43:06Z</time>
      </trkpt>
      <trkpt lat="45.53165" lon="6.85117">
        <ele>3180.2</ele>
        <time>2021-03-30T12:43:07Z</time>
      </trkpt>
      <trkpt lat="45.5316" lon="6.85117">
        <ele>3180.8</ele>
        <time>2021-03-30T12:43:08Z</time>
      </trkpt>
      <trkpt lat="45.53155" lon="6.85116">
        <ele>3181.1</ele>
        <time>2021-03-30T12:43:09Z</time>
      </trkpt>
      <trkpt lat="45.5315" lon="6.85113">
        <ele>3179.7</ele>
        <time>2021-03-30T12:43:10Z</time>
      </trkpt>
      <trkpt lat="45.53145" lon="6.8511">
        <ele>3180.3</ele>
        <time>2021-03-30T12:43:11Z</time>
      </trkpt>
      <trkpt lat="45.5314" lon="6.85107">
        <ele>3178.7</ele>
        <time>2021-03-30T12:43:12Z</time>
      </trkpt>
      <trkpt lat="45.53136" lon="6.85105">
        <ele>3177.4</ele>
        <time>2021-03-30T12:43:13Z</time>
      </trkpt>
      <trkpt lat="45.53132" lon="6.85102">
        <ele>3177.6</ele>
        <time>2021-03-30T12:43:14Z</time>
      </trkpt>
      <trkpt lat="45.53128" lon="6.85099">
        <ele>3175.9</ele>
        <time>2021-03-30T12:43:15Z</time>
      </trkpt>
      <trkpt lat="45.53125" lon="6.85096">
        <ele>3174.1</ele>
        <time>2021-03-30T12:43:16Z</time>
      </trkpt>
      <trkpt lat="45.53121" lon="6.85094">
        <ele>3174.2</ele>
        <time>2021-03-30T12:43:17Z</time>
      </trkpt>
      <trkpt lat="45.53117" lon="6.8509">
        <ele>3172.3</ele>
        <time>2021-03-30T12:43:18Z</time>
      </trkpt>
      <trkpt lat="45.53112" lon="6.85086">
        <ele>3170.2</ele>
        <time>2021-03-30T12:43:19Z</time>
      </trkpt>
      <trkpt lat="45.53107" lon="6.85082">
        <ele>3168.1</ele>
        <time>2021-03-30T12:43:20Z</time>
      </trkpt>
      <trkpt lat="45.53106" lon="6.85074">
        <ele>3164.1</ele>
        <time>2021-03-30T12:43:21Z</time>
      </trkpt>
      <trkpt lat="45.53106" lon="6.85069">
        <ele>3162.4</ele>
        <time>2021-03-30T12:43:22Z</time>
      </trkpt>
      <trkpt lat="45.5311" lon="6.85066">
        <ele>3160.8</ele>
        <time>2021-03-30T12:43:23Z</time>
      </trkpt>
      <trkpt lat="45.53123" lon="6.85067">
        <ele>3162.6</ele>
        <time>2021-03-30T12:43:24Z</time>
      </trkpt>
      <trkpt lat="45.53129" lon="6.85059">
        <ele>3159.1</ele>
        <time>2021-03-30T12:43:25Z</time>
      </trkpt>
      <trkpt lat="45.53133" lon="6.8505">
        <ele>3155.4</ele>
        <time>2021-03-30T12:43:26Z</time>
      </trkpt>
      <trkpt lat="45.53134" lon="6.85043">
        <ele>3151.4</ele>
        <time>2021-03-30T12:43:27Z</time>
      </trkpt>
      <trkpt lat="45.53134" lon="6.85038">
        <ele>3149.4</ele>
        <time>2021-03-30T12:43:28Z</time>
      </trkpt>
      <trkpt lat="45.53135" lon="6.85037">
        <ele>3149.4</ele>
        <time>2021-03-30T12:43:29Z</time>
      </trkpt>
      <trkpt lat="45.53132" lon="6.85041">
        <ele>3151.6</ele>
        <time>2021-03-30T12:43:30Z</time>
      </trkpt>
      <trkpt lat="45.53131" lon="6.8504">
        <ele>3149.7</ele>
        <time>2021-03-30T12:43:31Z</time>
      </trkpt>
      <trkpt lat="45.53131" lon="6.85039">
        <ele>3149.7</ele>
        <time>2021-03-30T12:43:32Z</time>
      </trkpt>
      <trkpt lat="45.53131" lon="6.85038">
        <ele>3149.7</ele>
        <time>2021-03-30T12:43:33Z</time>
      </trkpt>
      <trkpt lat="45.5313" lon="6.85037">
        <ele>3149.9</ele>
        <time>2021-03-30T12:43:34Z</time>
      </trkpt>
      <trkpt lat="45.5313" lon="6.85036">
        <ele>3147.9</ele>
        <time>2021-03-30T12:43:35Z</time>
      </trkpt>
      <trkpt lat="45.5313" lon="6.85035">
        <ele>3147.9</ele>
        <time>2021-03-30T12:43:36Z</time>
      </trkpt>
      <trkpt lat="45.5313" lon="6.85034">
        <ele>3147.9</ele>
        <time>2021-03-30T12:43:37Z</time>
      </trkpt>
      <trkpt lat="45.53129" lon="6.85034">
        <ele>3147.9</ele>
        <time>2021-03-30T12:43:38Z</time>
      </trkpt>
      <trkpt lat="45.53129" lon="6.85033">
        <ele>3147.9</ele>
        <time>2021-03-30T12:43:39Z</time>
      </trkpt>
      <trkpt lat="45.53129" lon="6.85032">
        <ele>3145.9</ele>
        <time>2021-03-30T12:43:40Z</time>
      </trkpt>
      <trkpt lat="45.53128" lon="6.85031">
        <ele>3145.9</ele>
        <time>2021-03-30T12:45:26Z</time>
      </trkpt>
      <trkpt lat="45.53128" lon="6.8503">
        <ele>3145.9</ele>
        <time>2021-03-30T12:45:27Z</time>
      </trkpt>
      <trkpt lat="45.53133" lon="6.85031">
        <ele>3145.7</ele>
        <time>2021-03-30T12:45:28Z</time>
      </trkpt>
      <trkpt lat="45.53138" lon="6.85033">
        <ele>3147.1</ele>
        <time>2021-03-30T12:45:29Z</time>
      </trkpt>
      <trkpt lat="45.53142" lon="6.85036">
        <ele>3146.8</ele>
        <time>2021-03-30T12:45:30Z</time>
      </trkpt>
      <trkpt lat="45.53146" lon="6.85037">
        <ele>3148.2</ele>
        <time>2021-03-30T12:45:31Z</time>
      </trkpt>
      <trkpt lat="45.53149" lon="6.85038">
        <ele>3147.9</ele>
        <time>2021-03-30T12:45:32Z</time>
      </trkpt>
      <trkpt lat="45.53152" lon="6.85038">
        <ele>3147.6</ele>
        <time>2021-03-30T12:45:33Z</time>
      </trkpt>
      <trkpt lat="45.53156" lon="6.85037">
        <ele>3147.2</ele>
        <time>2021-03-30T12:45:34Z</time>
      </trkpt>
      <trkpt lat="45.5316" lon="6.85036">
        <ele>3144.9</ele>
        <time>2021-03-30T12:45:35Z</time>
      </trkpt>
      <trkpt lat="45.53166" lon="6.85034">
        <ele>3144.3</ele>
        <time>2021-03-30T12:45:36Z</time>
      </trkpt>
      <trkpt lat="45.53171" lon="6.8503">
        <ele>3141.8</ele>
        <time>2021-03-30T12:45:37Z</time>
      </trkpt>
      <trkpt lat="45.53175" lon="6.85025">
        <ele>3139.8</ele>
        <time>2021-03-30T12:45:38Z</time>
      </trkpt>
      <trkpt lat="45.53178" lon="6.85019">
        <ele>3137.8</ele>
        <time>2021-03-30T12:45:39Z</time>
      </trkpt>
      <trkpt lat="45.5318" lon="6.85012">
        <ele>3134.4</ele>
        <time>2021-03-30T12:45:40Z</time>
      </trkpt>
      <trkpt lat="45.53181" lon="6.85004">
        <ele>3131.2</ele>
        <time>2021-03-30T12:45:41Z</time>
      </trkpt>
      <trkpt lat="45.5318" lon="6.84999">
        <ele>3129.5</ele>
        <time>2021-03-30T12:45:42Z</time>
      </trkpt>
      <trkpt lat="45.53158" lon="6.84995">
        <ele>3129.3</ele>
        <time>2021-03-30T12:45:43Z</time>
      </trkpt>
      <trkpt lat="45.53157" lon="6.84996">
        <ele>3129.6</ele>
        <time>2021-03-30T12:45:44Z</time>
      </trkpt>
      <trkpt lat="45.53154" lon="6.84996">
        <ele>3129.8</ele>
        <time>2021-03-30T12:45:45Z</time>
      </trkpt>
      <trkpt lat="45.53154" lon="6.84996">
        <ele>3129.8</ele>
        <time>2021-03-30T12:45:46Z</time>
      </trkpt>
      <trkpt lat="45.53157" lon="6.84995">
        <ele>3129.6</ele>
        <time>2021-03-30T12:45:47Z</time>
      </trkpt>
      <trkpt lat="45.53159" lon="6.84995">
        <ele>3129.3</ele>
        <time>2021-03-30T12:45:48Z</time>
      </trkpt>
      <trkpt lat="45.53162" lon="6.84996">
        <ele>3129.1</ele>
        <time>2021-03-30T12:45:49Z</time>
      </trkpt>
      <trkpt lat="45.53165" lon="6.84996">
        <ele>3128.9</ele>
        <time>2021-03-30T12:45:50Z</time>
      </trkpt>
      <trkpt lat="45.5317" lon="6.84994">
        <ele>3128.4</ele>
        <time>2021-03-30T12:45:51Z</time>
      </trkpt>
      <trkpt lat="45.53174" lon="6.84991">
        <ele>3126.4</ele>
        <time>2021-03-30T12:45:52Z</time>
      </trkpt>
      <trkpt lat="45.5317" lon="6.84979">
        <ele>3121.9</ele>
        <time>2021-03-30T12:45:53Z</time>
      </trkpt>
      <trkpt lat="45.53167" lon="6.84974">
        <ele>3120.6</ele>
        <time>2021-03-30T12:45:54Z</time>
      </trkpt>
      <trkpt lat="45.53164" lon="6.84971">
        <ele>3119.4</ele>
        <time>2021-03-30T12:45:55Z</time>
      </trkpt>
      <trkpt lat="45.53161" lon="6.84969">
        <ele>3119.7</ele>
        <time>2021-03-30T12:45:56Z</time>
      </trkpt>
      <trkpt lat="45.5316" lon="6.8497">
        <ele>3119.9</ele>
        <time>2021-03-30T12:45:57Z</time>
      </trkpt>
      <trkpt lat="45.53162" lon="6.84972">
        <ele>3121.1</ele>
        <time>2021-03-30T12:45:58Z</time>
      </trkpt>
      <trkpt lat="45.53165" lon="6.84974">
        <ele>3120.9</ele>
        <time>2021-03-30T12:45:59Z</time>
      </trkpt>
      <trkpt lat="45.5317" lon="6.84975">
        <ele>3120.6</ele>
        <time>2021-03-30T12:46:00Z</time>
      </trkpt>
      <trkpt lat="45.53174" lon="6.84975">
        <ele>3120.2</ele>
        <time>2021-03-30T12:46:01Z</time>
      </trkpt>
      <trkpt lat="45.53177" lon="6.84974">
        <ele>3120</ele>
        <time>2021-03-30T12:46:02Z</time>
      </trkpt>
      <trkpt lat="45.53181" lon="6.84973">
        <ele>3119.8</ele>
        <time>2021-03-30T12:46:03Z</time>
      </trkpt>
      <trkpt lat="45.53185" lon="6.84973">
        <ele>3119.5</ele>
        <time>2021-03-30T12:46:04Z</time>
      </trkpt>
      <trkpt lat="45.53188" lon="6.84974">
        <ele>3119.4</ele>
        <time>2021-03-30T12:46:05Z</time>
      </trkpt>
      <trkpt lat="45.53191" lon="6.84975">
        <ele>3119.3</ele>
        <time>2021-03-30T12:46:06Z</time>
      </trkpt>
      <trkpt lat="45.53195" lon="6.84975">
        <ele>3119.3</ele>
        <time>2021-03-30T12:46:07Z</time>
      </trkpt>
      <trkpt lat="45.53199" lon="6.84974">
        <ele>3119.2</ele>
        <time>2021-03-30T12:46:08Z</time>
      </trkpt>
      <trkpt lat="45.53204" lon="6.84972">
        <ele>3117.5</ele>
        <time>2021-03-30T12:46:09Z</time>
      </trkpt>
      <trkpt lat="45.53207" lon="6.84968">
        <ele>3117.2</ele>
        <time>2021-03-30T12:46:10Z</time>
      </trkpt>
      <trkpt lat="45.53209" lon="6.84963">
        <ele>3114.1</ele>
        <time>2021-03-30T12:46:11Z</time>
      </trkpt>
      <trkpt lat="45.5321" lon="6.84957">
        <ele>3112.7</ele>
        <time>2021-03-30T12:46:12Z</time>
      </trkpt>
      <trkpt lat="45.5321" lon="6.84951">
        <ele>3111.3</ele>
        <time>2021-03-30T12:46:13Z</time>
      </trkpt>
      <trkpt lat="45.53211" lon="6.84947">
        <ele>3109.9</ele>
        <time>2021-03-30T12:46:14Z</time>
      </trkpt>
      <trkpt lat="45.53214" lon="6.84944">
        <ele>3108</ele>
        <time>2021-03-30T12:46:15Z</time>
      </trkpt>
      <trkpt lat="45.53219" lon="6.84942">
        <ele>3106.1</ele>
        <time>2021-03-30T12:46:16Z</time>
      </trkpt>
      <trkpt lat="45.53223" lon="6.84941">
        <ele>3106</ele>
        <time>2021-03-30T12:46:17Z</time>
      </trkpt>
      <trkpt lat="45.53226" lon="6.8494">
        <ele>3106.1</ele>
        <time>2021-03-30T12:46:18Z</time>
      </trkpt>
      <trkpt lat="45.53227" lon="6.8494">
        <ele>3106.3</ele>
        <time>2021-03-30T12:46:19Z</time>
      </trkpt>
      <trkpt lat="45.5323" lon="6.84939">
        <ele>3106.7</ele>
        <time>2021-03-30T12:46:20Z</time>
      </trkpt>
      <trkpt lat="45.53231" lon="6.84938">
        <ele>3106.7</ele>
        <time>2021-03-30T12:46:21Z</time>
      </trkpt>
      <trkpt lat="45.53234" lon="6.8493">
        <ele>3104.7</ele>
        <time>2021-03-30T12:46:22Z</time>
      </trkpt>
      <trkpt lat="45.53238" lon="6.84923">
        <ele>3103.1</ele>
        <time>2021-03-30T12:46:23Z</time>
      </trkpt>
      <trkpt lat="45.53236" lon="6.84916">
        <ele>3100.4</ele>
        <time>2021-03-30T12:46:24Z</time>
      </trkpt>
      <trkpt lat="45.5324" lon="6.8491">
        <ele>3100.3</ele>
        <time>2021-03-30T12:46:25Z</time>
      </trkpt>
      <trkpt lat="45.53243" lon="6.84904">
        <ele>3100.8</ele>
        <time>2021-03-30T12:46:26Z</time>
      </trkpt>
      <trkpt lat="45.53246" lon="6.849">
        <ele>3101.9</ele>
        <time>2021-03-30T12:46:27Z</time>
      </trkpt>
      <trkpt lat="45.53247" lon="6.84903">
        <ele>3101.9</ele>
        <time>2021-03-30T12:46:28Z</time>
      </trkpt>
      <trkpt lat="45.53248" lon="6.84903">
        <ele>3105.9</ele>
        <time>2021-03-30T12:46:29Z</time>
      </trkpt>
      <trkpt lat="45.53247" lon="6.84904">
        <ele>3103.2</ele>
        <time>2021-03-30T12:46:30Z</time>
      </trkpt>
      <trkpt lat="45.53245" lon="6.84905">
        <ele>3103.2</ele>
        <time>2021-03-30T12:46:31Z</time>
      </trkpt>
      <trkpt lat="45.53245" lon="6.84905">
        <ele>3100.8</ele>
        <time>2021-03-30T12:46:32Z</time>
      </trkpt>
      <trkpt lat="45.53245" lon="6.84905">
        <ele>3100.8</ele>
        <time>2021-03-30T12:46:33Z</time>
      </trkpt>
      <trkpt lat="45.53245" lon="6.84905">
        <ele>3100.8</ele>
        <time>2021-03-30T12:46:34Z</time>
      </trkpt>
      <trkpt lat="45.53245" lon="6.84905">
        <ele>3100.8</ele>
        <time>2021-03-30T12:46:35Z</time>
      </trkpt>
      <trkpt lat="45.53245" lon="6.84905">
        <ele>3100.8</ele>
        <time>2021-03-30T12:46:36Z</time>
      </trkpt>
      <trkpt lat="45.53245" lon="6.84905">
        <ele>3100.8</ele>
        <time>2021-03-30T12:46:37Z</time>
      </trkpt>
      <trkpt lat="45.53245" lon="6.84905">
        <ele>3100.8</ele>
        <time>2021-03-30T12:46:38Z</time>
      </trkpt>
      <trkpt lat="45.53245" lon="6.84905">
        <ele>3100.8</ele>
        <time>2021-03-30T12:46:39Z</time>
      </trkpt>
      <trkpt lat="45.53245" lon="6.84905">
        <ele>3100.8</ele>
        <time>2021-03-30T12:46:40Z</time>
      </trkpt>
      <trkpt lat="45.53246" lon="6.84899">
        <ele>3101.9</ele>
        <time>2021-03-30T12:47:03Z</time>
      </trkpt>
      <trkpt lat="45.53247" lon="6.84895">
        <ele>3100.6</ele>
        <time>2021-03-30T12:47:04Z</time>
      </trkpt>
      <trkpt lat="45.53247" lon="6.84889">
        <ele>3098.2</ele>
        <time>2021-03-30T12:47:05Z</time>
      </trkpt>
      <trkpt lat="45.53246" lon="6.84883">
        <ele>3097</ele>
        <time>2021-03-30T12:47:06Z</time>
      </trkpt>
      <trkpt lat="45.53244" lon="6.84877">
        <ele>3091.8</ele>
        <time>2021-03-30T12:47:07Z</time>
      </trkpt>
      <trkpt lat="45.53244" lon="6.84871">
        <ele>3090.5</ele>
        <time>2021-03-30T12:47:08Z</time>
      </trkpt>
      <trkpt lat="45.53247" lon="6.84866">
        <ele>3092.1</ele>
        <time>2021-03-30T12:47:09Z</time>
      </trkpt>
      <trkpt lat="45.53252" lon="6.84862">
        <ele>3097.5</ele>
        <time>2021-03-30T12:47:10Z</time>
      </trkpt>
      <trkpt lat="45.53258" lon="6.84859">
        <ele>3103.6</ele>
        <time>2021-03-30T12:47:11Z</time>
      </trkpt>
      <trkpt lat="45.53263" lon="6.84855">
        <ele>3109.7</ele>
        <time>2021-03-30T12:47:12Z</time>
      </trkpt>
      <trkpt lat="45.53266" lon="6.84852">
        <ele>3111.9</ele>
        <time>2021-03-30T12:47:13Z</time>
      </trkpt>
      <trkpt lat="45.5327" lon="6.84847">
        <ele>3114.1</ele>
        <time>2021-03-30T12:47:14Z</time>
      </trkpt>
      <trkpt lat="45.53272" lon="6.84843">
        <ele>3116.3</ele>
        <time>2021-03-30T12:47:15Z</time>
      </trkpt>
      <trkpt lat="45.53274" lon="6.84839">
        <ele>3115</ele>
        <time>2021-03-30T12:47:16Z</time>
      </trkpt>
      <trkpt lat="45.53276" lon="6.84834">
        <ele>3117.2</ele>
        <time>2021-03-30T12:47:17Z</time>
      </trkpt>
      <trkpt lat="45.53279" lon="6.84828">
        <ele>3119.3</ele>
        <time>2021-03-30T12:47:18Z</time>
      </trkpt>
      <trkpt lat="45.53282" lon="6.84824">
        <ele>3121.1</ele>
        <time>2021-03-30T12:47:19Z</time>
      </trkpt>
      <trkpt lat="45.53284" lon="6.84823">
        <ele>3124.4</ele>
        <time>2021-03-30T12:47:20Z</time>
      </trkpt>
      <trkpt lat="45.53284" lon="6.84824">
        <ele>3124.4</ele>
        <time>2021-03-30T12:47:21Z</time>
      </trkpt>
      <trkpt lat="45.53285" lon="6.84824">
        <ele>3124.4</ele>
        <time>2021-03-30T12:47:22Z</time>
      </trkpt>
      <trkpt lat="45.53286" lon="6.84825">
        <ele>3124.4</ele>
        <time>2021-03-30T12:47:23Z</time>
      </trkpt>
      <trkpt lat="45.53286" lon="6.84826">
        <ele>3126</ele>
        <time>2021-03-30T12:47:24Z</time>
      </trkpt>
      <trkpt lat="45.53287" lon="6.84827">
        <ele>3129</ele>
        <time>2021-03-30T12:47:25Z</time>
      </trkpt>
      <trkpt lat="45.53288" lon="6.84828">
        <ele>3129</ele>
        <time>2021-03-30T12:47:26Z</time>
      </trkpt>
      <trkpt lat="45.53289" lon="6.84828">
        <ele>3129</ele>
        <time>2021-03-30T12:47:27Z</time>
      </trkpt>
      <trkpt lat="45.53289" lon="6.84829">
        <ele>3129</ele>
        <time>2021-03-30T12:47:28Z</time>
      </trkpt>
      <trkpt lat="45.5329" lon="6.8483">
        <ele>3129</ele>
        <time>2021-03-30T12:47:29Z</time>
      </trkpt>
      <trkpt lat="45.53291" lon="6.84831">
        <ele>3133.2</ele>
        <time>2021-03-30T12:47:30Z</time>
      </trkpt>
      <trkpt lat="45.53291" lon="6.84832">
        <ele>3133.2</ele>
        <time>2021-03-30T12:51:00Z</time>
      </trkpt>
      <trkpt lat="45.53292" lon="6.84832">
        <ele>3133.2</ele>
        <time>2021-03-30T12:51:01Z</time>
      </trkpt>
      <trkpt lat="45.53295" lon="6.84829">
        <ele>3134.4</ele>
        <time>2021-03-30T12:51:02Z</time>
      </trkpt>
      <trkpt lat="45.53298" lon="6.84824">
        <ele>3135.5</ele>
        <time>2021-03-30T12:51:03Z</time>
      </trkpt>
      <trkpt lat="45.53301" lon="6.84818">
        <ele>3136.7</ele>
        <time>2021-03-30T12:51:04Z</time>
      </trkpt>
      <trkpt lat="45.53304" lon="6.84813">
        <ele>3135.9</ele>
        <time>2021-03-30T12:51:05Z</time>
      </trkpt>
      <trkpt lat="45.53307" lon="6.84808">
        <ele>3137.2</ele>
        <time>2021-03-30T12:51:06Z</time>
      </trkpt>
      <trkpt lat="45.5331" lon="6.84805">
        <ele>3140.5</ele>
        <time>2021-03-30T12:51:07Z</time>
      </trkpt>
      <trkpt lat="45.53313" lon="6.84803">
        <ele>3141.6</ele>
        <time>2021-03-30T12:51:08Z</time>
      </trkpt>
      <trkpt lat="45.53316" lon="6.84801">
        <ele>3144.5</ele>
        <time>2021-03-30T12:51:09Z</time>
      </trkpt>
      <trkpt lat="45.53319" lon="6.84798">
        <ele>3145.6</ele>
        <time>2021-03-30T12:51:10Z</time>
      </trkpt>
      <trkpt lat="45.53321" lon="6.84795">
        <ele>3146.9</ele>
        <time>2021-03-30T12:51:11Z</time>
      </trkpt>
      <trkpt lat="45.53323" lon="6.84791">
        <ele>3145.2</ele>
        <time>2021-03-30T12:51:12Z</time>
      </trkpt>
      <trkpt lat="45.53323" lon="6.84787">
        <ele>3146.8</ele>
        <time>2021-03-30T12:51:13Z</time>
      </trkpt>
      <trkpt lat="45.53324" lon="6.84781">
        <ele>3144.7</ele>
        <time>2021-03-30T12:51:14Z</time>
      </trkpt>
      <trkpt lat="45.53325" lon="6.84779">
        <ele>3144.7</ele>
        <time>2021-03-30T12:51:15Z</time>
      </trkpt>
      <trkpt lat="45.53326" lon="6.84775">
        <ele>3146.3</ele>
        <time>2021-03-30T12:51:16Z</time>
      </trkpt>
      <trkpt lat="45.53327" lon="6.84771">
        <ele>3143.6</ele>
        <time>2021-03-30T12:51:17Z</time>
      </trkpt>
      <trkpt lat="45.53328" lon="6.84767">
        <ele>3140.7</ele>
        <time>2021-03-30T12:51:18Z</time>
      </trkpt>
      <trkpt lat="45.53328" lon="6.84763">
        <ele>3137.7</ele>
        <time>2021-03-30T12:51:19Z</time>
      </trkpt>
      <trkpt lat="45.53329" lon="6.84758">
        <ele>3138.8</ele>
        <time>2021-03-30T12:51:20Z</time>
      </trkpt>
      <trkpt lat="45.5333" lon="6.84756">
        <ele>3135.4</ele>
        <time>2021-03-30T12:51:21Z</time>
      </trkpt>
      <trkpt lat="45.53331" lon="6.84752">
        <ele>3131.8</ele>
        <time>2021-03-30T12:51:22Z</time>
      </trkpt>
      <trkpt lat="45.53333" lon="6.8475">
        <ele>3136.3</ele>
        <time>2021-03-30T12:51:23Z</time>
      </trkpt>
      <trkpt lat="45.53333" lon="6.84748">
        <ele>3132.5</ele>
        <time>2021-03-30T12:51:24Z</time>
      </trkpt>
      <trkpt lat="45.53333" lon="6.84744">
        <ele>3128.4</ele>
        <time>2021-03-30T12:51:25Z</time>
      </trkpt>
      <trkpt lat="45.53334" lon="6.84742">
        <ele>3128.4</ele>
        <time>2021-03-30T12:51:26Z</time>
      </trkpt>
      <trkpt lat="45.53336" lon="6.84739">
        <ele>3128.9</ele>
        <time>2021-03-30T12:51:27Z</time>
      </trkpt>
      <trkpt lat="45.53337" lon="6.84738">
        <ele>3128.9</ele>
        <time>2021-03-30T12:51:28Z</time>
      </trkpt>
      <trkpt lat="45.53338" lon="6.84734">
        <ele>3129.4</ele>
        <time>2021-03-30T12:51:29Z</time>
      </trkpt>
      <trkpt lat="45.53338" lon="6.84727">
        <ele>3124.8</ele>
        <time>2021-03-30T12:51:30Z</time>
      </trkpt>
      <trkpt lat="45.53338" lon="6.84724">
        <ele>3120</ele>
        <time>2021-03-30T12:51:31Z</time>
      </trkpt>
      <trkpt lat="45.53338" lon="6.84718">
        <ele>3103.9</ele>
        <time>2021-03-30T12:51:32Z</time>
      </trkpt>
      <trkpt lat="45.53338" lon="6.84712">
        <ele>3104.6</ele>
        <time>2021-03-30T12:51:33Z</time>
      </trkpt>
      <trkpt lat="45.5334" lon="6.84708">
        <ele>3099.3</ele>
        <time>2021-03-30T12:51:34Z</time>
      </trkpt>
      <trkpt lat="45.53341" lon="6.84707">
        <ele>3099.3</ele>
        <time>2021-03-30T12:51:35Z</time>
      </trkpt>
      <trkpt lat="45.53342" lon="6.84707">
        <ele>3105.6</ele>
        <time>2021-03-30T12:51:36Z</time>
      </trkpt>
      <trkpt lat="45.53343" lon="6.84708">
        <ele>3105.6</ele>
        <time>2021-03-30T12:51:37Z</time>
      </trkpt>
      <trkpt lat="45.53342" lon="6.8471">
        <ele>3105.6</ele>
        <time>2021-03-30T12:51:38Z</time>
      </trkpt>
      <trkpt lat="45.53342" lon="6.8471">
        <ele>3105.6</ele>
        <time>2021-03-30T12:51:39Z</time>
      </trkpt>
      <trkpt lat="45.53342" lon="6.84712">
        <ele>3110.7</ele>
        <time>2021-03-30T12:51:40Z</time>
      </trkpt>
      <trkpt lat="45.53342" lon="6.84713">
        <ele>3110.7</ele>
        <time>2021-03-30T12:51:41Z</time>
      </trkpt>
      <trkpt lat="45.53342" lon="6.84713">
        <ele>3110.7</ele>
        <time>2021-03-30T12:51:42Z</time>
      </trkpt>
      <trkpt lat="45.53342" lon="6.84713">
        <ele>3110.7</ele>
        <time>2021-03-30T12:51:43Z</time>
      </trkpt>
      <trkpt lat="45.53342" lon="6.84713">
        <ele>3110.7</ele>
        <time>2021-03-30T12:51:44Z</time>
      </trkpt>
      <trkpt lat="45.53339" lon="6.84716">
        <ele>3109.8</ele>
        <time>2021-03-30T12:51:45Z</time>
      </trkpt>
      <trkpt lat="45.53339" lon="6.84716">
        <ele>3109.8</ele>
        <time>2021-03-30T12:51:46Z</time>
      </trkpt>
      <trkpt lat="45.53337" lon="6.84716">
        <ele>3103.9</ele>
        <time>2021-03-30T12:51:52Z</time>
      </trkpt>
      <trkpt lat="45.53337" lon="6.84715">
        <ele>3103.9</ele>
        <time>2021-03-30T12:51:53Z</time>
      </trkpt>
      <trkpt lat="45.53337" lon="6.84714">
        <ele>3098.4</ele>
        <time>2021-03-30T12:51:54Z</time>
      </trkpt>
      <trkpt lat="45.53338" lon="6.84713">
        <ele>3104.6</ele>
        <time>2021-03-30T12:51:55Z</time>
      </trkpt>
      <trkpt lat="45.53339" lon="6.84712">
        <ele>3104.6</ele>
        <time>2021-03-30T12:51:56Z</time>
      </trkpt>
      <trkpt lat="45.5334" lon="6.84711">
        <ele>3104.6</ele>
        <time>2021-03-30T12:51:57Z</time>
      </trkpt>
      <trkpt lat="45.5334" lon="6.84709">
        <ele>3099.3</ele>
        <time>2021-03-30T12:51:58Z</time>
      </trkpt>
      <trkpt lat="45.5334" lon="6.84709">
        <ele>3099.3</ele>
        <time>2021-03-30T12:51:59Z</time>
      </trkpt>
      <trkpt lat="45.53339" lon="6.84709">
        <ele>3099.3</ele>
        <time>2021-03-30T12:52:00Z</time>
      </trkpt>
      <trkpt lat="45.53339" lon="6.84709">
        <ele>3099.3</ele>
        <time>2021-03-30T12:52:01Z</time>
      </trkpt>
      <trkpt lat="45.53339" lon="6.84708">
        <ele>3099.3</ele>
        <time>2021-03-30T12:52:02Z</time>
      </trkpt>
      <trkpt lat="45.53338" lon="6.84708">
        <ele>3099.3</ele>
        <time>2021-03-30T12:52:03Z</time>
      </trkpt>
      <trkpt lat="45.53338" lon="6.84708">
        <ele>3092.9</ele>
        <time>2021-03-30T12:52:04Z</time>
      </trkpt>
      <trkpt lat="45.53337" lon="6.84708">
        <ele>3092.9</ele>
        <time>2021-03-30T12:52:05Z</time>
      </trkpt>
      <trkpt lat="45.53337" lon="6.84707">
        <ele>3092.9</ele>
        <time>2021-03-30T12:52:06Z</time>
      </trkpt>
      <trkpt lat="45.53335" lon="6.84707">
        <ele>3092.9</ele>
        <time>2021-03-30T12:52:07Z</time>
      </trkpt>
      <trkpt lat="45.53334" lon="6.84708">
        <ele>3086.6</ele>
        <time>2021-03-30T12:52:08Z</time>
      </trkpt>
      <trkpt lat="45.53333" lon="6.84708">
        <ele>3086.6</ele>
        <time>2021-03-30T12:52:09Z</time>
      </trkpt>
      <trkpt lat="45.53333" lon="6.84708">
        <ele>3086.6</ele>
        <time>2021-03-30T12:52:10Z</time>
      </trkpt>
      <trkpt lat="45.53332" lon="6.84706">
        <ele>3074.5</ele>
        <time>2021-03-30T12:52:11Z</time>
      </trkpt>
      <trkpt lat="45.53329" lon="6.84705">
        <ele>3074.5</ele>
        <time>2021-03-30T12:52:12Z</time>
      </trkpt>
      <trkpt lat="45.53326" lon="6.84705">
        <ele>3063.6</ele>
        <time>2021-03-30T12:52:13Z</time>
      </trkpt>
      <trkpt lat="45.53323" lon="6.84706">
        <ele>3069.9</ele>
        <time>2021-03-30T12:52:14Z</time>
      </trkpt>
      <trkpt lat="45.53322" lon="6.84707">
        <ele>3065.7</ele>
        <time>2021-03-30T12:52:15Z</time>
      </trkpt>
      <trkpt lat="45.53323" lon="6.84706">
        <ele>3065.7</ele>
        <time>2021-03-30T12:52:16Z</time>
      </trkpt>
      <trkpt lat="45.53323" lon="6.84705">
        <ele>3063.6</ele>
        <time>2021-03-30T12:52:17Z</time>
      </trkpt>
      <trkpt lat="45.53324" lon="6.84705">
        <ele>3063.6</ele>
        <time>2021-03-30T12:52:18Z</time>
      </trkpt>
      <trkpt lat="45.53324" lon="6.84704">
        <ele>3063.6</ele>
        <time>2021-03-30T12:52:19Z</time>
      </trkpt>
      <trkpt lat="45.53325" lon="6.84703">
        <ele>3063.6</ele>
        <time>2021-03-30T12:52:20Z</time>
      </trkpt>
      <trkpt lat="45.53325" lon="6.84702">
        <ele>3063.6</ele>
        <time>2021-03-30T12:52:21Z</time>
      </trkpt>
      <trkpt lat="45.53325" lon="6.84701">
        <ele>3057.3</ele>
        <time>2021-03-30T12:52:22Z</time>
      </trkpt>
      <trkpt lat="45.53328" lon="6.84696">
        <ele>3056.6</ele>
        <time>2021-03-30T12:52:23Z</time>
      </trkpt>
      <trkpt lat="45.53331" lon="6.84692">
        <ele>3057.2</ele>
        <time>2021-03-30T12:52:24Z</time>
      </trkpt>
      <trkpt lat="45.53333" lon="6.84689">
        <ele>3064</ele>
        <time>2021-03-30T12:52:25Z</time>
      </trkpt>
      <trkpt lat="45.53335" lon="6.84687">
        <ele>3059</ele>
        <time>2021-03-30T12:52:26Z</time>
      </trkpt>
      <trkpt lat="45.53336" lon="6.84686">
        <ele>3066.4</ele>
        <time>2021-03-30T12:52:27Z</time>
      </trkpt>
      <trkpt lat="45.53336" lon="6.84685">
        <ele>3066.4</ele>
        <time>2021-03-30T12:52:28Z</time>
      </trkpt>
      <trkpt lat="45.53336" lon="6.84685">
        <ele>3066.4</ele>
        <time>2021-03-30T12:52:29Z</time>
      </trkpt>
      <trkpt lat="45.53336" lon="6.84684">
        <ele>3066.4</ele>
        <time>2021-03-30T12:52:30Z</time>
      </trkpt>
      <trkpt lat="45.53336" lon="6.84684">
        <ele>3062.1</ele>
        <time>2021-03-30T12:52:31Z</time>
      </trkpt>
      <trkpt lat="45.53336" lon="6.84684">
        <ele>3062.1</ele>
        <time>2021-03-30T12:52:32Z</time>
      </trkpt>
      <trkpt lat="45.53336" lon="6.84683">
        <ele>3062.1</ele>
        <time>2021-03-30T12:52:33Z</time>
      </trkpt>
      <trkpt lat="45.53336" lon="6.84683">
        <ele>3062.1</ele>
        <time>2021-03-30T12:52:34Z</time>
      </trkpt>
      <trkpt lat="45.53336" lon="6.84682">
        <ele>3062.1</ele>
        <time>2021-03-30T12:52:35Z</time>
      </trkpt>
      <trkpt lat="45.53336" lon="6.84682">
        <ele>3062.1</ele>
        <time>2021-03-30T12:52:36Z</time>
      </trkpt>
      <trkpt lat="45.53336" lon="6.84681">
        <ele>3062.1</ele>
        <time>2021-03-30T12:52:37Z</time>
      </trkpt>
      <trkpt lat="45.53336" lon="6.84681">
        <ele>3062.1</ele>
        <time>2021-03-30T12:52:38Z</time>
      </trkpt>
      <trkpt lat="45.53336" lon="6.8468">
        <ele>3062.1</ele>
        <time>2021-03-30T12:52:39Z</time>
      </trkpt>
      <trkpt lat="45.53337" lon="6.8468">
        <ele>3058.4</ele>
        <time>2021-03-30T12:52:40Z</time>
      </trkpt>
      <trkpt lat="45.53337" lon="6.84679">
        <ele>3058.4</ele>
        <time>2021-03-30T12:52:41Z</time>
      </trkpt>
      <trkpt lat="45.53337" lon="6.84679">
        <ele>3058.4</ele>
        <time>2021-03-30T12:52:42Z</time>
      </trkpt>
      <trkpt lat="45.53337" lon="6.84678">
        <ele>3058.4</ele>
        <time>2021-03-30T12:52:43Z</time>
      </trkpt>
      <trkpt lat="45.53337" lon="6.84678">
        <ele>3058.4</ele>
        <time>2021-03-30T12:52:44Z</time>
      </trkpt>
      <trkpt lat="45.53337" lon="6.84677">
        <ele>3058.4</ele>
        <time>2021-03-30T12:52:45Z</time>
      </trkpt>
      <trkpt lat="45.53337" lon="6.84677">
        <ele>3058.4</ele>
        <time>2021-03-30T12:52:46Z</time>
      </trkpt>
      <trkpt lat="45.53337" lon="6.84676">
        <ele>3058.4</ele>
        <time>2021-03-30T12:53:04Z</time>
      </trkpt>
      <trkpt lat="45.53337" lon="6.84676">
        <ele>3058.4</ele>
        <time>2021-03-30T12:53:05Z</time>
      </trkpt>
      <trkpt lat="45.53338" lon="6.84672">
        <ele>3055.5</ele>
        <time>2021-03-30T12:53:06Z</time>
      </trkpt>
      <trkpt lat="45.53337" lon="6.8467">
        <ele>3053.1</ele>
        <time>2021-03-30T12:53:07Z</time>
      </trkpt>
      <trkpt lat="45.53335" lon="6.84668">
        <ele>3053.1</ele>
        <time>2021-03-30T12:53:08Z</time>
      </trkpt>
      <trkpt lat="45.53332" lon="6.84668">
        <ele>3045.3</ele>
        <time>2021-03-30T12:53:09Z</time>
      </trkpt>
      <trkpt lat="45.5333" lon="6.84668">
        <ele>3038</ele>
        <time>2021-03-30T12:53:10Z</time>
      </trkpt>
      <trkpt lat="45.53327" lon="6.84668">
        <ele>3031.3</ele>
        <time>2021-03-30T12:53:11Z</time>
      </trkpt>
      <trkpt lat="45.53326" lon="6.84668">
        <ele>3025.5</ele>
        <time>2021-03-30T12:53:12Z</time>
      </trkpt>
      <trkpt lat="45.53323" lon="6.84666">
        <ele>3023.5</ele>
        <time>2021-03-30T12:53:13Z</time>
      </trkpt>
      <trkpt lat="45.53321" lon="6.84662">
        <ele>3017.3</ele>
        <time>2021-03-30T12:53:14Z</time>
      </trkpt>
      <trkpt lat="45.5332" lon="6.84658">
        <ele>3016</ele>
        <time>2021-03-30T12:53:15Z</time>
      </trkpt>
      <trkpt lat="45.5332" lon="6.84652">
        <ele>3011.3</ele>
        <time>2021-03-30T12:53:16Z</time>
      </trkpt>
      <trkpt lat="45.5332" lon="6.84647">
        <ele>3013.7</ele>
        <time>2021-03-30T12:53:17Z</time>
      </trkpt>
      <trkpt lat="45.53322" lon="6.84643">
        <ele>3012.2</ele>
        <time>2021-03-30T12:53:18Z</time>
      </trkpt>
      <trkpt lat="45.53323" lon="6.84638">
        <ele>3015.2</ele>
        <time>2021-03-30T12:53:19Z</time>
      </trkpt>
      <trkpt lat="45.53324" lon="6.84633">
        <ele>3013.1</ele>
        <time>2021-03-30T12:53:20Z</time>
      </trkpt>
      <trkpt lat="45.53325" lon="6.84627">
        <ele>3007.7</ele>
        <time>2021-03-30T12:53:21Z</time>
      </trkpt>
      <trkpt lat="45.53326" lon="6.8462">
        <ele>3010.4</ele>
        <time>2021-03-30T12:53:22Z</time>
      </trkpt>
      <trkpt lat="45.53326" lon="6.84614">
        <ele>2998</ele>
        <time>2021-03-30T12:53:23Z</time>
      </trkpt>
      <trkpt lat="45.53324" lon="6.84608">
        <ele>2995.4</ele>
        <time>2021-03-30T12:53:24Z</time>
      </trkpt>
      <trkpt lat="45.53323" lon="6.84604">
        <ele>2988.5</ele>
        <time>2021-03-30T12:53:25Z</time>
      </trkpt>
      <trkpt lat="45.53322" lon="6.84602">
        <ele>2987.5</ele>
        <time>2021-03-30T12:53:26Z</time>
      </trkpt>
      <trkpt lat="45.53321" lon="6.84597">
        <ele>2987.7</ele>
        <time>2021-03-30T12:53:27Z</time>
      </trkpt>
      <trkpt lat="45.53321" lon="6.84595">
        <ele>2987.7</ele>
        <time>2021-03-30T12:53:28Z</time>
      </trkpt>
      <trkpt lat="45.53322" lon="6.84593">
        <ele>2989.3</ele>
        <time>2021-03-30T12:53:29Z</time>
      </trkpt>
      <trkpt lat="45.53323" lon="6.84591">
        <ele>2989.3</ele>
        <time>2021-03-30T12:53:30Z</time>
      </trkpt>
      <trkpt lat="45.53324" lon="6.8459">
        <ele>2994.2</ele>
        <time>2021-03-30T12:53:31Z</time>
      </trkpt>
      <trkpt lat="45.53325" lon="6.84588">
        <ele>2997.2</ele>
        <time>2021-03-30T12:53:32Z</time>
      </trkpt>
      <trkpt lat="45.53326" lon="6.84584">
        <ele>3001.3</ele>
        <time>2021-03-30T12:53:33Z</time>
      </trkpt>
      <trkpt lat="45.53326" lon="6.84582">
        <ele>3007.1</ele>
        <time>2021-03-30T12:53:34Z</time>
      </trkpt>
      <trkpt lat="45.53327" lon="6.84576">
        <ele>3016.9</ele>
        <time>2021-03-30T12:53:35Z</time>
      </trkpt>
      <trkpt lat="45.53328" lon="6.8457">
        <ele>3022</ele>
        <time>2021-03-30T12:53:36Z</time>
      </trkpt>
      <trkpt lat="45.53329" lon="6.84563">
        <ele>3037.5</ele>
        <time>2021-03-30T12:53:37Z</time>
      </trkpt>
      <trkpt lat="45.5333" lon="6.84556">
        <ele>3041.8</ele>
        <time>2021-03-30T12:53:38Z</time>
      </trkpt>
      <trkpt lat="45.53332" lon="6.84551">
        <ele>3051.4</ele>
        <time>2021-03-30T12:53:39Z</time>
      </trkpt>
      <trkpt lat="45.53333" lon="6.84544">
        <ele>3057.6</ele>
        <time>2021-03-30T12:53:40Z</time>
      </trkpt>
      <trkpt lat="45.53326" lon="6.84544">
        <ele>3042.4</ele>
        <time>2021-03-30T12:53:41Z</time>
      </trkpt>
      <trkpt lat="45.53324" lon="6.84538">
        <ele>3048.8</ele>
        <time>2021-03-30T12:53:42Z</time>
      </trkpt>
      <trkpt lat="45.53311" lon="6.84548">
        <ele>3024.8</ele>
        <time>2021-03-30T12:53:43Z</time>
      </trkpt>
      <trkpt lat="45.53305" lon="6.84555">
        <ele>3012.7</ele>
        <time>2021-03-30T12:53:44Z</time>
      </trkpt>
      <trkpt lat="45.53301" lon="6.84546">
        <ele>3015.8</ele>
        <time>2021-03-30T12:53:45Z</time>
      </trkpt>
      <trkpt lat="45.53298" lon="6.8454">
        <ele>3015.5</ele>
        <time>2021-03-30T12:53:46Z</time>
      </trkpt>
      <trkpt lat="45.53299" lon="6.84536">
        <ele>3017.8</ele>
        <time>2021-03-30T12:53:47Z</time>
      </trkpt>
      <trkpt lat="45.53297" lon="6.84529">
        <ele>3021.8</ele>
        <time>2021-03-30T12:53:48Z</time>
      </trkpt>
      <trkpt lat="45.53293" lon="6.84526">
        <ele>3015.8</ele>
        <time>2021-03-30T12:53:49Z</time>
      </trkpt>
      <trkpt lat="45.53283" lon="6.84533">
        <ele>3005.2</ele>
        <time>2021-03-30T12:53:50Z</time>
      </trkpt>
      <trkpt lat="45.53277" lon="6.84536">
        <ele>2997.1</ele>
        <time>2021-03-30T12:53:51Z</time>
      </trkpt>
      <trkpt lat="45.53272" lon="6.84543">
        <ele>2988.7</ele>
        <time>2021-03-30T12:53:52Z</time>
      </trkpt>
      <trkpt lat="45.53271" lon="6.84549">
        <ele>2987.9</ele>
        <time>2021-03-30T12:53:53Z</time>
      </trkpt>
      <trkpt lat="45.5327" lon="6.8455">
        <ele>2987.9</ele>
        <time>2021-03-30T12:53:54Z</time>
      </trkpt>
      <trkpt lat="45.53269" lon="6.84551">
        <ele>2985</ele>
        <time>2021-03-30T12:53:55Z</time>
      </trkpt>
      <trkpt lat="45.53271" lon="6.84551">
        <ele>2987.9</ele>
        <time>2021-03-30T12:53:56Z</time>
      </trkpt>
      <trkpt lat="45.53271" lon="6.84551">
        <ele>2987.9</ele>
        <time>2021-03-30T12:53:57Z</time>
      </trkpt>
      <trkpt lat="45.53271" lon="6.84551">
        <ele>2987.9</ele>
        <time>2021-03-30T12:53:58Z</time>
      </trkpt>
      <trkpt lat="45.53271" lon="6.84551">
        <ele>2987.9</ele>
        <time>2021-03-30T12:53:59Z</time>
      </trkpt>
      <trkpt lat="45.53271" lon="6.84551">
        <ele>2987.9</ele>
        <time>2021-03-30T12:54:00Z</time>
      </trkpt>
      <trkpt lat="45.53272" lon="6.84554">
        <ele>2989.7</ele>
        <time>2021-03-30T12:54:01Z</time>
      </trkpt>
      <trkpt lat="45.53272" lon="6.84553">
        <ele>2989.7</ele>
        <time>2021-03-30T12:54:02Z</time>
      </trkpt>
      <trkpt lat="45.53273" lon="6.84552">
        <ele>2989.7</ele>
        <time>2021-03-30T12:54:03Z</time>
      </trkpt>
      <trkpt lat="45.53273" lon="6.84551">
        <ele>2990.8</ele>
        <time>2021-03-30T12:54:04Z</time>
      </trkpt>
      <trkpt lat="45.53273" lon="6.8455">
        <ele>2990.8</ele>
        <time>2021-03-30T12:54:05Z</time>
      </trkpt>
      <trkpt lat="45.53274" lon="6.84549">
        <ele>2990.8</ele>
        <time>2021-03-30T12:54:06Z</time>
      </trkpt>
      <trkpt lat="45.53274" lon="6.84548">
        <ele>2990.8</ele>
        <time>2021-03-30T12:54:09Z</time>
      </trkpt>
      <trkpt lat="45.53274" lon="6.84547">
        <ele>2990.8</ele>
        <time>2021-03-30T12:54:10Z</time>
      </trkpt>
      <trkpt lat="45.53272" lon="6.84538">
        <ele>2989.5</ele>
        <time>2021-03-30T12:54:11Z</time>
      </trkpt>
      <trkpt lat="45.53273" lon="6.8453">
        <ele>2994.6</ele>
        <time>2021-03-30T12:54:12Z</time>
      </trkpt>
      <trkpt lat="45.53271" lon="6.84517">
        <ele>2992.6</ele>
        <time>2021-03-30T12:54:13Z</time>
      </trkpt>
      <trkpt lat="45.53261" lon="6.845">
        <ele>2979</ele>
        <time>2021-03-30T12:54:14Z</time>
      </trkpt>
      <trkpt lat="45.53259" lon="6.84489">
        <ele>2971.4</ele>
        <time>2021-03-30T12:54:15Z</time>
      </trkpt>
      <trkpt lat="45.53256" lon="6.84478">
        <ele>2964</ele>
        <time>2021-03-30T12:54:16Z</time>
      </trkpt>
      <trkpt lat="45.53254" lon="6.84466">
        <ele>2958.1</ele>
        <time>2021-03-30T12:54:17Z</time>
      </trkpt>
      <trkpt lat="45.53252" lon="6.84459">
        <ele>2955.8</ele>
        <time>2021-03-30T12:54:18Z</time>
      </trkpt>
      <trkpt lat="45.53252" lon="6.84452">
        <ele>2953.2</ele>
        <time>2021-03-30T12:54:19Z</time>
      </trkpt>
      <trkpt lat="45.53251" lon="6.84446">
        <ele>2951.1</ele>
        <time>2021-03-30T12:54:20Z</time>
      </trkpt>
      <trkpt lat="45.5325" lon="6.84441">
        <ele>2947.5</ele>
        <time>2021-03-30T12:54:21Z</time>
      </trkpt>
      <trkpt lat="45.53251" lon="6.84435">
        <ele>2948.2</ele>
        <time>2021-03-30T12:54:22Z</time>
      </trkpt>
      <trkpt lat="45.53251" lon="6.84429">
        <ele>2945.6</ele>
        <time>2021-03-30T12:54:23Z</time>
      </trkpt>
      <trkpt lat="45.53247" lon="6.84429">
        <ele>2943.4</ele>
        <time>2021-03-30T12:54:24Z</time>
      </trkpt>
      <trkpt lat="45.53247" lon="6.84428">
        <ele>2943.4</ele>
        <time>2021-03-30T12:54:25Z</time>
      </trkpt>
      <trkpt lat="45.53246" lon="6.84426">
        <ele>2943.1</ele>
        <time>2021-03-30T12:54:26Z</time>
      </trkpt>
      <trkpt lat="45.53246" lon="6.84424">
        <ele>2943.1</ele>
        <time>2021-03-30T12:54:27Z</time>
      </trkpt>
      <trkpt lat="45.53246" lon="6.84422">
        <ele>2943</ele>
        <time>2021-03-30T12:54:28Z</time>
      </trkpt>
      <trkpt lat="45.53247" lon="6.84417">
        <ele>2942.9</ele>
        <time>2021-03-30T12:54:29Z</time>
      </trkpt>
      <trkpt lat="45.53246" lon="6.84415">
        <ele>2942.9</ele>
        <time>2021-03-30T12:54:30Z</time>
      </trkpt>
      <trkpt lat="45.53246" lon="6.84411">
        <ele>2942.9</ele>
        <time>2021-03-30T12:54:31Z</time>
      </trkpt>
      <trkpt lat="45.53243" lon="6.84409">
        <ele>2940.6</ele>
        <time>2021-03-30T12:54:32Z</time>
      </trkpt>
      <trkpt lat="45.53239" lon="6.84408">
        <ele>2936.6</ele>
        <time>2021-03-30T12:54:33Z</time>
      </trkpt>
      <trkpt lat="45.53234" lon="6.84408">
        <ele>2934.9</ele>
        <time>2021-03-30T12:54:34Z</time>
      </trkpt>
      <trkpt lat="45.5323" lon="6.84407">
        <ele>2933.3</ele>
        <time>2021-03-30T12:54:35Z</time>
      </trkpt>
      <trkpt lat="45.53224" lon="6.84404">
        <ele>2929.9</ele>
        <time>2021-03-30T12:54:36Z</time>
      </trkpt>
      <trkpt lat="45.53222" lon="6.84401">
        <ele>2928</ele>
        <time>2021-03-30T12:54:37Z</time>
      </trkpt>
      <trkpt lat="45.53223" lon="6.84396">
        <ele>2927.7</ele>
        <time>2021-03-30T12:54:38Z</time>
      </trkpt>
      <trkpt lat="45.5322" lon="6.8439">
        <ele>2925.7</ele>
        <time>2021-03-30T12:54:39Z</time>
      </trkpt>
      <trkpt lat="45.53219" lon="6.84387">
        <ele>2925.4</ele>
        <time>2021-03-30T12:54:40Z</time>
      </trkpt>
      <trkpt lat="45.53216" lon="6.84378">
        <ele>2923.1</ele>
        <time>2021-03-30T12:54:41Z</time>
      </trkpt>
      <trkpt lat="45.53214" lon="6.84372">
        <ele>2921.4</ele>
        <time>2021-03-30T12:54:42Z</time>
      </trkpt>
      <trkpt lat="45.53214" lon="6.84366">
        <ele>2920.7</ele>
        <time>2021-03-30T12:54:43Z</time>
      </trkpt>
      <trkpt lat="45.53213" lon="6.8436">
        <ele>2920.4</ele>
        <time>2021-03-30T12:54:44Z</time>
      </trkpt>
      <trkpt lat="45.53202" lon="6.8436">
        <ele>2916</ele>
        <time>2021-03-30T12:54:45Z</time>
      </trkpt>
      <trkpt lat="45.53198" lon="6.84355">
        <ele>2914.3</ele>
        <time>2021-03-30T12:54:46Z</time>
      </trkpt>
      <trkpt lat="45.53195" lon="6.84348">
        <ele>2912.2</ele>
        <time>2021-03-30T12:54:47Z</time>
      </trkpt>
      <trkpt lat="45.53194" lon="6.84338">
        <ele>2911.6</ele>
        <time>2021-03-30T12:54:48Z</time>
      </trkpt>
      <trkpt lat="45.53193" lon="6.8433">
        <ele>2909.7</ele>
        <time>2021-03-30T12:54:49Z</time>
      </trkpt>
      <trkpt lat="45.53192" lon="6.84322">
        <ele>2909.2</ele>
        <time>2021-03-30T12:54:50Z</time>
      </trkpt>
      <trkpt lat="45.5319" lon="6.84314">
        <ele>2907.5</ele>
        <time>2021-03-30T12:54:51Z</time>
      </trkpt>
      <trkpt lat="45.53183" lon="6.84308">
        <ele>2905.2</ele>
        <time>2021-03-30T12:54:52Z</time>
      </trkpt>
      <trkpt lat="45.53178" lon="6.84303">
        <ele>2903.2</ele>
        <time>2021-03-30T12:54:53Z</time>
      </trkpt>
      <trkpt lat="45.53185" lon="6.84307">
        <ele>2906.2</ele>
        <time>2021-03-30T12:54:54Z</time>
      </trkpt>
      <trkpt lat="45.53185" lon="6.84305">
        <ele>2906.1</ele>
        <time>2021-03-30T12:54:55Z</time>
      </trkpt>
      <trkpt lat="45.53185" lon="6.84303">
        <ele>2906.1</ele>
        <time>2021-03-30T12:54:56Z</time>
      </trkpt>
      <trkpt lat="45.53185" lon="6.84301">
        <ele>2906</ele>
        <time>2021-03-30T12:54:57Z</time>
      </trkpt>
      <trkpt lat="45.53186" lon="6.84299">
        <ele>2906</ele>
        <time>2021-03-30T12:54:58Z</time>
      </trkpt>
      <trkpt lat="45.53186" lon="6.84297">
        <ele>2906</ele>
        <time>2021-03-30T12:54:59Z</time>
      </trkpt>
      <trkpt lat="45.53186" lon="6.84295">
        <ele>2906</ele>
        <time>2021-03-30T12:55:00Z</time>
      </trkpt>
      <trkpt lat="45.53186" lon="6.84293">
        <ele>2905.9</ele>
        <time>2021-03-30T12:55:01Z</time>
      </trkpt>
      <trkpt lat="45.53186" lon="6.84291">
        <ele>2905.9</ele>
        <time>2021-03-30T12:55:02Z</time>
      </trkpt>
      <trkpt lat="45.53186" lon="6.84289">
        <ele>2905.9</ele>
        <time>2021-03-30T12:55:03Z</time>
      </trkpt>
      <trkpt lat="45.53187" lon="6.84287">
        <ele>2905.9</ele>
        <time>2021-03-30T12:56:27Z</time>
      </trkpt>
      <trkpt lat="45.53187" lon="6.84285">
        <ele>2905.9</ele>
        <time>2021-03-30T12:56:28Z</time>
      </trkpt>
      <trkpt lat="45.53188" lon="6.84277">
        <ele>2907.3</ele>
        <time>2021-03-30T12:56:29Z</time>
      </trkpt>
      <trkpt lat="45.53188" lon="6.8427">
        <ele>2907.4</ele>
        <time>2021-03-30T12:56:30Z</time>
      </trkpt>
      <trkpt lat="45.53189" lon="6.84263">
        <ele>2907.4</ele>
        <time>2021-03-30T12:56:31Z</time>
      </trkpt>
      <trkpt lat="45.53189" lon="6.84258">
        <ele>2907.3</ele>
        <time>2021-03-30T12:56:32Z</time>
      </trkpt>
      <trkpt lat="45.5319" lon="6.84254">
        <ele>2907.2</ele>
        <time>2021-03-30T12:56:33Z</time>
      </trkpt>
      <trkpt lat="45.5319" lon="6.84251">
        <ele>2907.2</ele>
        <time>2021-03-30T12:56:34Z</time>
      </trkpt>
      <trkpt lat="45.53189" lon="6.8425">
        <ele>2907.1</ele>
        <time>2021-03-30T12:56:35Z</time>
      </trkpt>
      <trkpt lat="45.53187" lon="6.84246">
        <ele>2905.4</ele>
        <time>2021-03-30T12:56:36Z</time>
      </trkpt>
      <trkpt lat="45.53187" lon="6.84245">
        <ele>2905.4</ele>
        <time>2021-03-30T12:56:37Z</time>
      </trkpt>
      <trkpt lat="45.53185" lon="6.8424">
        <ele>2905.3</ele>
        <time>2021-03-30T12:56:38Z</time>
      </trkpt>
      <trkpt lat="45.53184" lon="6.84239">
        <ele>2903.8</ele>
        <time>2021-03-30T12:56:39Z</time>
      </trkpt>
      <trkpt lat="45.53182" lon="6.84235">
        <ele>2903.6</ele>
        <time>2021-03-30T12:56:40Z</time>
      </trkpt>
      <trkpt lat="45.53182" lon="6.84234">
        <ele>2903.6</ele>
        <time>2021-03-30T12:56:41Z</time>
      </trkpt>
      <trkpt lat="45.53179" lon="6.8423">
        <ele>2902</ele>
        <time>2021-03-30T12:56:42Z</time>
      </trkpt>
      <trkpt lat="45.53178" lon="6.84229">
        <ele>2900.2</ele>
        <time>2021-03-30T12:56:43Z</time>
      </trkpt>
      <trkpt lat="45.53176" lon="6.84226">
        <ele>2900.2</ele>
        <time>2021-03-30T12:56:44Z</time>
      </trkpt>
      <trkpt lat="45.53175" lon="6.84225">
        <ele>2898.4</ele>
        <time>2021-03-30T12:56:45Z</time>
      </trkpt>
      <trkpt lat="45.53175" lon="6.84223">
        <ele>2898.4</ele>
        <time>2021-03-30T12:56:46Z</time>
      </trkpt>
      <trkpt lat="45.53175" lon="6.84222">
        <ele>2898.4</ele>
        <time>2021-03-30T12:56:47Z</time>
      </trkpt>
      <trkpt lat="45.53174" lon="6.84221">
        <ele>2898.2</ele>
        <time>2021-03-30T12:56:48Z</time>
      </trkpt>
      <trkpt lat="45.53174" lon="6.84219">
        <ele>2898.2</ele>
        <time>2021-03-30T12:56:49Z</time>
      </trkpt>
      <trkpt lat="45.53173" lon="6.84217">
        <ele>2898.2</ele>
        <time>2021-03-30T12:56:50Z</time>
      </trkpt>
      <trkpt lat="45.53172" lon="6.84214">
        <ele>2896.3</ele>
        <time>2021-03-30T12:56:51Z</time>
      </trkpt>
      <trkpt lat="45.53172" lon="6.84213">
        <ele>2896.3</ele>
        <time>2021-03-30T12:56:52Z</time>
      </trkpt>
      <trkpt lat="45.53171" lon="6.84212">
        <ele>2896</ele>
        <time>2021-03-30T12:56:53Z</time>
      </trkpt>
      <trkpt lat="45.5317" lon="6.84208">
        <ele>2895.8</ele>
        <time>2021-03-30T12:56:54Z</time>
      </trkpt>
      <trkpt lat="45.53169" lon="6.84206">
        <ele>2894.1</ele>
        <time>2021-03-30T12:56:55Z</time>
      </trkpt>
      <trkpt lat="45.53168" lon="6.84201">
        <ele>2893.8</ele>
        <time>2021-03-30T12:56:56Z</time>
      </trkpt>
      <trkpt lat="45.53167" lon="6.842">
        <ele>2893.8</ele>
        <time>2021-03-30T12:56:57Z</time>
      </trkpt>
      <trkpt lat="45.53166" lon="6.84196">
        <ele>2891.7</ele>
        <time>2021-03-30T12:56:58Z</time>
      </trkpt>
      <trkpt lat="45.53164" lon="6.84193">
        <ele>2891.3</ele>
        <time>2021-03-30T12:56:59Z</time>
      </trkpt>
      <trkpt lat="45.53162" lon="6.8419">
        <ele>2889.2</ele>
        <time>2021-03-30T12:57:00Z</time>
      </trkpt>
      <trkpt lat="45.53161" lon="6.84189">
        <ele>2889.2</ele>
        <time>2021-03-30T12:57:01Z</time>
      </trkpt>
      <trkpt lat="45.5316" lon="6.84187">
        <ele>2887.6</ele>
        <time>2021-03-30T12:57:02Z</time>
      </trkpt>
      <trkpt lat="45.53159" lon="6.84186">
        <ele>2887.2</ele>
        <time>2021-03-30T12:57:03Z</time>
      </trkpt>
      <trkpt lat="45.53157" lon="6.84184">
        <ele>2885.7</ele>
        <time>2021-03-30T12:57:04Z</time>
      </trkpt>
      <trkpt lat="45.53157" lon="6.84183">
        <ele>2885.7</ele>
        <time>2021-03-30T12:57:05Z</time>
      </trkpt>
      <trkpt lat="45.53156" lon="6.84182">
        <ele>2885.2</ele>
        <time>2021-03-30T12:57:06Z</time>
      </trkpt>
      <trkpt lat="45.53154" lon="6.8418">
        <ele>2883.8</ele>
        <time>2021-03-30T12:57:07Z</time>
      </trkpt>
      <trkpt lat="45.53152" lon="6.84177">
        <ele>2883.4</ele>
        <time>2021-03-30T12:57:08Z</time>
      </trkpt>
      <trkpt lat="45.53151" lon="6.84176">
        <ele>2882.1</ele>
        <time>2021-03-30T12:57:09Z</time>
      </trkpt>
      <trkpt lat="45.53149" lon="6.84173">
        <ele>2881.7</ele>
        <time>2021-03-30T12:57:10Z</time>
      </trkpt>
      <trkpt lat="45.53148" lon="6.84173">
        <ele>2880.5</ele>
        <time>2021-03-30T12:57:11Z</time>
      </trkpt>
      <trkpt lat="45.53147" lon="6.84171">
        <ele>2880.5</ele>
        <time>2021-03-30T12:57:12Z</time>
      </trkpt>
      <trkpt lat="45.53147" lon="6.84171">
        <ele>2880.5</ele>
        <time>2021-03-30T12:57:13Z</time>
      </trkpt>
      <trkpt lat="45.53146" lon="6.8417">
        <ele>2880.5</ele>
        <time>2021-03-30T12:57:14Z</time>
      </trkpt>
      <trkpt lat="45.53145" lon="6.84168">
        <ele>2879</ele>
        <time>2021-03-30T12:57:15Z</time>
      </trkpt>
      <trkpt lat="45.53145" lon="6.84167">
        <ele>2879</ele>
        <time>2021-03-30T12:57:16Z</time>
      </trkpt>
      <trkpt lat="45.53144" lon="6.84166">
        <ele>2879</ele>
        <time>2021-03-30T12:57:17Z</time>
      </trkpt>
      <trkpt lat="45.53143" lon="6.84165">
        <ele>2879</ele>
        <time>2021-03-30T12:57:18Z</time>
      </trkpt>
      <trkpt lat="45.53143" lon="6.84164">
        <ele>2878.5</ele>
        <time>2021-03-30T12:57:19Z</time>
      </trkpt>
      <trkpt lat="45.53142" lon="6.84164">
        <ele>2877.3</ele>
        <time>2021-03-30T12:57:20Z</time>
      </trkpt>
      <trkpt lat="45.53141" lon="6.84163">
        <ele>2877.3</ele>
        <time>2021-03-30T12:57:21Z</time>
      </trkpt>
      <trkpt lat="45.5314" lon="6.84163">
        <ele>2877.3</ele>
        <time>2021-03-30T12:57:22Z</time>
      </trkpt>
      <trkpt lat="45.5314" lon="6.84163">
        <ele>2877.3</ele>
        <time>2021-03-30T12:57:23Z</time>
      </trkpt>
      <trkpt lat="45.53139" lon="6.84162">
        <ele>2876.1</ele>
        <time>2021-03-30T12:57:24Z</time>
      </trkpt>
      <trkpt lat="45.53139" lon="6.84161">
        <ele>2876.1</ele>
        <time>2021-03-30T12:57:25Z</time>
      </trkpt>
      <trkpt lat="45.53138" lon="6.84161">
        <ele>2876.1</ele>
        <time>2021-03-30T12:57:26Z</time>
      </trkpt>
      <trkpt lat="45.53137" lon="6.84161">
        <ele>2876.1</ele>
        <time>2021-03-30T12:57:27Z</time>
      </trkpt>
      <trkpt lat="45.53137" lon="6.8416">
        <ele>2875.6</ele>
        <time>2021-03-30T12:57:28Z</time>
      </trkpt>
      <trkpt lat="45.53137" lon="6.8416">
        <ele>2875.6</ele>
        <time>2021-03-30T12:57:29Z</time>
      </trkpt>
      <trkpt lat="45.53137" lon="6.8416">
        <ele>2875.6</ele>
        <time>2021-03-30T12:57:30Z</time>
      </trkpt>
      <trkpt lat="45.53137" lon="6.8416">
        <ele>2875.6</ele>
        <time>2021-03-30T12:57:31Z</time>
      </trkpt>
      <trkpt lat="45.53137" lon="6.84161">
        <ele>2875.6</ele>
        <time>2021-03-30T12:57:32Z</time>
      </trkpt>
      <trkpt lat="45.53137" lon="6.84161">
        <ele>2875.6</ele>
        <time>2021-03-30T12:57:33Z</time>
      </trkpt>
      <trkpt lat="45.53136" lon="6.8416">
        <ele>2874.4</ele>
        <time>2021-03-30T12:57:34Z</time>
      </trkpt>
      <trkpt lat="45.53136" lon="6.8416">
        <ele>2874.4</ele>
        <time>2021-03-30T12:57:35Z</time>
      </trkpt>
      <trkpt lat="45.53135" lon="6.8416">
        <ele>2874.4</ele>
        <time>2021-03-30T12:57:36Z</time>
      </trkpt>
      <trkpt lat="45.53135" lon="6.84159">
        <ele>2874.4</ele>
        <time>2021-03-30T12:57:37Z</time>
      </trkpt>
      <trkpt lat="45.53134" lon="6.84158">
        <ele>2874.4</ele>
        <time>2021-03-30T12:57:38Z</time>
      </trkpt>
      <trkpt lat="45.53134" lon="6.84158">
        <ele>2874.4</ele>
        <time>2021-03-30T12:57:39Z</time>
      </trkpt>
      <trkpt lat="45.53133" lon="6.84157">
        <ele>2873.2</ele>
        <time>2021-03-30T12:57:40Z</time>
      </trkpt>
      <trkpt lat="45.53133" lon="6.84156">
        <ele>2872.6</ele>
        <time>2021-03-30T12:57:41Z</time>
      </trkpt>
      <trkpt lat="45.53133" lon="6.84155">
        <ele>2872.6</ele>
        <time>2021-03-30T12:57:42Z</time>
      </trkpt>
      <trkpt lat="45.53132" lon="6.84155">
        <ele>2872.6</ele>
        <time>2021-03-30T12:57:43Z</time>
      </trkpt>
      <trkpt lat="45.53132" lon="6.84155">
        <ele>2872.6</ele>
        <time>2021-03-30T12:57:44Z</time>
      </trkpt>
      <trkpt lat="45.53132" lon="6.84155">
        <ele>2872.6</ele>
        <time>2021-03-30T12:57:45Z</time>
      </trkpt>
      <trkpt lat="45.53132" lon="6.84155">
        <ele>2872.6</ele>
        <time>2021-03-30T12:57:46Z</time>
      </trkpt>
      <trkpt lat="45.53131" lon="6.84155">
        <ele>2872.6</ele>
        <time>2021-03-30T12:57:47Z</time>
      </trkpt>
      <trkpt lat="45.5313" lon="6.84155">
        <ele>2871.6</ele>
        <time>2021-03-30T12:57:48Z</time>
      </trkpt>
      <trkpt lat="45.5313" lon="6.84154">
        <ele>2871.6</ele>
        <time>2021-03-30T12:57:49Z</time>
      </trkpt>
      <trkpt lat="45.53129" lon="6.84154">
        <ele>2871.6</ele>
        <time>2021-03-30T12:57:50Z</time>
      </trkpt>
      <trkpt lat="45.53129" lon="6.84153">
        <ele>2871.6</ele>
        <time>2021-03-30T12:57:51Z</time>
      </trkpt>
      <trkpt lat="45.53128" lon="6.84153">
        <ele>2871.6</ele>
        <time>2021-03-30T12:57:52Z</time>
      </trkpt>
      <trkpt lat="45.53128" lon="6.84153">
        <ele>2871.6</ele>
        <time>2021-03-30T12:57:53Z</time>
      </trkpt>
      <trkpt lat="45.53127" lon="6.84152">
        <ele>2870</ele>
        <time>2021-03-30T12:57:54Z</time>
      </trkpt>
      <trkpt lat="45.53127" lon="6.84152">
        <ele>2870</ele>
        <time>2021-03-30T12:57:55Z</time>
      </trkpt>
      <trkpt lat="45.53127" lon="6.84152">
        <ele>2870</ele>
        <time>2021-03-30T12:57:56Z</time>
      </trkpt>
      <trkpt lat="45.53127" lon="6.84152">
        <ele>2870</ele>
        <time>2021-03-30T12:57:57Z</time>
      </trkpt>
      <trkpt lat="45.53127" lon="6.84152">
        <ele>2870</ele>
        <time>2021-03-30T12:57:58Z</time>
      </trkpt>
      <trkpt lat="45.53127" lon="6.84152">
        <ele>2870</ele>
        <time>2021-03-30T12:57:59Z</time>
      </trkpt>
      <trkpt lat="45.53127" lon="6.84152">
        <ele>2870</ele>
        <time>2021-03-30T12:58:00Z</time>
      </trkpt>
      <trkpt lat="45.53127" lon="6.84152">
        <ele>2870</ele>
        <time>2021-03-30T12:58:01Z</time>
      </trkpt>
      <trkpt lat="45.53127" lon="6.84152">
        <ele>2870</ele>
        <time>2021-03-30T12:58:02Z</time>
      </trkpt>
      <trkpt lat="45.53127" lon="6.84152">
        <ele>2870</ele>
        <time>2021-03-30T12:58:03Z</time>
      </trkpt>
      <trkpt lat="45.53126" lon="6.84151">
        <ele>2870</ele>
        <time>2021-03-30T12:58:04Z</time>
      </trkpt>
      <trkpt lat="45.53124" lon="6.8414">
        <ele>2867.6</ele>
        <time>2021-03-30T12:58:56Z</time>
      </trkpt>
      <trkpt lat="45.53121" lon="6.84137">
        <ele>2865.8</ele>
        <time>2021-03-30T12:58:57Z</time>
      </trkpt>
      <trkpt lat="45.53117" lon="6.84134">
        <ele>2863.8</ele>
        <time>2021-03-30T12:58:58Z</time>
      </trkpt>
      <trkpt lat="45.53113" lon="6.84131">
        <ele>2862.7</ele>
        <time>2021-03-30T12:58:59Z</time>
      </trkpt>
      <trkpt lat="45.53108" lon="6.84127">
        <ele>2859.3</ele>
        <time>2021-03-30T12:59:00Z</time>
      </trkpt>
      <trkpt lat="45.53098" lon="6.84122">
        <ele>2854.5</ele>
        <time>2021-03-30T12:59:01Z</time>
      </trkpt>
      <trkpt lat="45.53093" lon="6.84119">
        <ele>2852.5</ele>
        <time>2021-03-30T12:59:02Z</time>
      </trkpt>
      <trkpt lat="45.53087" lon="6.84116">
        <ele>2849.3</ele>
        <time>2021-03-30T12:59:03Z</time>
      </trkpt>
      <trkpt lat="45.53087" lon="6.84106">
        <ele>2847.5</ele>
        <time>2021-03-30T12:59:04Z</time>
      </trkpt>
      <trkpt lat="45.5309" lon="6.84099">
        <ele>2846.8</ele>
        <time>2021-03-30T12:59:05Z</time>
      </trkpt>
      <trkpt lat="45.53094" lon="6.84094">
        <ele>2846.9</ele>
        <time>2021-03-30T12:59:06Z</time>
      </trkpt>
      <trkpt lat="45.53097" lon="6.84089">
        <ele>2846.9</ele>
        <time>2021-03-30T12:59:07Z</time>
      </trkpt>
      <trkpt lat="45.53099" lon="6.8408">
        <ele>2845.8</ele>
        <time>2021-03-30T12:59:08Z</time>
      </trkpt>
      <trkpt lat="45.53101" lon="6.84074">
        <ele>2844.9</ele>
        <time>2021-03-30T12:59:09Z</time>
      </trkpt>
      <trkpt lat="45.53096" lon="6.84067">
        <ele>2842.2</ele>
        <time>2021-03-30T12:59:10Z</time>
      </trkpt>
      <trkpt lat="45.53091" lon="6.84058">
        <ele>2838.3</ele>
        <time>2021-03-30T12:59:11Z</time>
      </trkpt>
      <trkpt lat="45.5309" lon="6.84053">
        <ele>2836.2</ele>
        <time>2021-03-30T12:59:12Z</time>
      </trkpt>
      <trkpt lat="45.53084" lon="6.84054">
        <ele>2835</ele>
        <time>2021-03-30T12:59:13Z</time>
      </trkpt>
      <trkpt lat="45.53084" lon="6.84048">
        <ele>2833</ele>
        <time>2021-03-30T12:59:14Z</time>
      </trkpt>
      <trkpt lat="45.53085" lon="6.84044">
        <ele>2831.9</ele>
        <time>2021-03-30T12:59:15Z</time>
      </trkpt>
      <trkpt lat="45.53085" lon="6.84037">
        <ele>2830.9</ele>
        <time>2021-03-30T12:59:16Z</time>
      </trkpt>
      <trkpt lat="45.53083" lon="6.84029">
        <ele>2828.8</ele>
        <time>2021-03-30T12:59:17Z</time>
      </trkpt>
      <trkpt lat="45.5307" lon="6.84022">
        <ele>2821</ele>
        <time>2021-03-30T12:59:18Z</time>
      </trkpt>
      <trkpt lat="45.53065" lon="6.8402">
        <ele>2819.9</ele>
        <time>2021-03-30T12:59:19Z</time>
      </trkpt>
      <trkpt lat="45.5306" lon="6.84017">
        <ele>2816.5</ele>
        <time>2021-03-30T12:59:20Z</time>
      </trkpt>
      <trkpt lat="45.5306" lon="6.84005">
        <ele>2812.9</ele>
        <time>2021-03-30T12:59:21Z</time>
      </trkpt>
      <trkpt lat="45.5306" lon="6.8399">
        <ele>2809.5</ele>
        <time>2021-03-30T12:59:22Z</time>
      </trkpt>
      <trkpt lat="45.53048" lon="6.83987">
        <ele>2803.4</ele>
        <time>2021-03-30T12:59:23Z</time>
      </trkpt>
      <trkpt lat="45.53041" lon="6.83984">
        <ele>2800.1</ele>
        <time>2021-03-30T12:59:24Z</time>
      </trkpt>
      <trkpt lat="45.53035" lon="6.83979">
        <ele>2797</ele>
        <time>2021-03-30T12:59:25Z</time>
      </trkpt>
      <trkpt lat="45.53033" lon="6.83972">
        <ele>2794.8</ele>
        <time>2021-03-30T12:59:26Z</time>
      </trkpt>
      <trkpt lat="45.5303" lon="6.83963">
        <ele>2790.2</ele>
        <time>2021-03-30T12:59:27Z</time>
      </trkpt>
      <trkpt lat="45.5304" lon="6.83951">
        <ele>2790.8</ele>
        <time>2021-03-30T12:59:28Z</time>
      </trkpt>
      <trkpt lat="45.53043" lon="6.83937">
        <ele>2787.9</ele>
        <time>2021-03-30T12:59:29Z</time>
      </trkpt>
      <trkpt lat="45.53046" lon="6.83923">
        <ele>2784.2</ele>
        <time>2021-03-30T12:59:30Z</time>
      </trkpt>
      <trkpt lat="45.53049" lon="6.83914">
        <ele>2782.6</ele>
        <time>2021-03-30T12:59:31Z</time>
      </trkpt>
      <trkpt lat="45.53049" lon="6.83903">
        <ele>2778.5</ele>
        <time>2021-03-30T12:59:32Z</time>
      </trkpt>
      <trkpt lat="45.53051" lon="6.83894">
        <ele>2777.1</ele>
        <time>2021-03-30T12:59:33Z</time>
      </trkpt>
      <trkpt lat="45.5305" lon="6.83886">
        <ele>2774.5</ele>
        <time>2021-03-30T12:59:34Z</time>
      </trkpt>
      <trkpt lat="45.53049" lon="6.83873">
        <ele>2770.4</ele>
        <time>2021-03-30T12:59:35Z</time>
      </trkpt>
      <trkpt lat="45.53044" lon="6.83868">
        <ele>2766.5</ele>
        <time>2021-03-30T12:59:36Z</time>
      </trkpt>
      <trkpt lat="45.53038" lon="6.83862">
        <ele>2763.2</ele>
        <time>2021-03-30T12:59:37Z</time>
      </trkpt>
      <trkpt lat="45.53029" lon="6.83857">
        <ele>2758.7</ele>
        <time>2021-03-30T12:59:38Z</time>
      </trkpt>
      <trkpt lat="45.53021" lon="6.83851">
        <ele>2752.7</ele>
        <time>2021-03-30T12:59:39Z</time>
      </trkpt>
      <trkpt lat="45.53018" lon="6.83843">
        <ele>2749.4</ele>
        <time>2021-03-30T12:59:40Z</time>
      </trkpt>
      <trkpt lat="45.53019" lon="6.83835">
        <ele>2749.1</ele>
        <time>2021-03-30T12:59:41Z</time>
      </trkpt>
      <trkpt lat="45.53022" lon="6.83829">
        <ele>2746.7</ele>
        <time>2021-03-30T12:59:42Z</time>
      </trkpt>
      <trkpt lat="45.53024" lon="6.83823">
        <ele>2746.6</ele>
        <time>2021-03-30T12:59:43Z</time>
      </trkpt>
      <trkpt lat="45.53017" lon="6.83817">
        <ele>2742.5</ele>
        <time>2021-03-30T12:59:44Z</time>
      </trkpt>
      <trkpt lat="45.53017" lon="6.8381">
        <ele>2741.5</ele>
        <time>2021-03-30T12:59:45Z</time>
      </trkpt>
      <trkpt lat="45.53015" lon="6.83805">
        <ele>2739.7</ele>
        <time>2021-03-30T12:59:46Z</time>
      </trkpt>
      <trkpt lat="45.5302" lon="6.83805">
        <ele>2741.6</ele>
        <time>2021-03-30T12:59:47Z</time>
      </trkpt>
      <trkpt lat="45.53023" lon="6.83802">
        <ele>2741.8</ele>
        <time>2021-03-30T12:59:48Z</time>
      </trkpt>
      <trkpt lat="45.53023" lon="6.83801">
        <ele>2741.8</ele>
        <time>2021-03-30T12:59:49Z</time>
      </trkpt>
      <trkpt lat="45.5302" lon="6.83798">
        <ele>2739.9</ele>
        <time>2021-03-30T12:59:50Z</time>
      </trkpt>
      <trkpt lat="45.53017" lon="6.83798">
        <ele>2738.9</ele>
        <time>2021-03-30T12:59:51Z</time>
      </trkpt>
      <trkpt lat="45.53011" lon="6.838">
        <ele>2737.1</ele>
        <time>2021-03-30T12:59:52Z</time>
      </trkpt>
      <trkpt lat="45.53006" lon="6.83803">
        <ele>2736.1</ele>
        <time>2021-03-30T12:59:53Z</time>
      </trkpt>
      <trkpt lat="45.53001" lon="6.83804">
        <ele>2734.1</ele>
        <time>2021-03-30T12:59:54Z</time>
      </trkpt>
      <trkpt lat="45.52996" lon="6.83808">
        <ele>2734.1</ele>
        <time>2021-03-30T12:59:55Z</time>
      </trkpt>
      <trkpt lat="45.52993" lon="6.8381">
        <ele>2734.1</ele>
        <time>2021-03-30T12:59:56Z</time>
      </trkpt>
      <trkpt lat="45.52992" lon="6.83814">
        <ele>2734.3</ele>
        <time>2021-03-30T12:59:57Z</time>
      </trkpt>
      <trkpt lat="45.5299" lon="6.83818">
        <ele>2735.4</ele>
        <time>2021-03-30T12:59:58Z</time>
      </trkpt>
      <trkpt lat="45.52989" lon="6.8382">
        <ele>2734.6</ele>
        <time>2021-03-30T12:59:59Z</time>
      </trkpt>
      <trkpt lat="45.52988" lon="6.83817">
        <ele>2734.6</ele>
        <time>2021-03-30T13:00:00Z</time>
      </trkpt>
      <trkpt lat="45.52988" lon="6.83818">
        <ele>2734.6</ele>
        <time>2021-03-30T13:00:01Z</time>
      </trkpt>
      <trkpt lat="45.52987" lon="6.83818">
        <ele>2734.6</ele>
        <time>2021-03-30T13:00:02Z</time>
      </trkpt>
      <trkpt lat="45.52986" lon="6.83818">
        <ele>2733.9</ele>
        <time>2021-03-30T13:00:03Z</time>
      </trkpt>
      <trkpt lat="45.52985" lon="6.83818">
        <ele>2733.9</ele>
        <time>2021-03-30T13:00:04Z</time>
      </trkpt>
      <trkpt lat="45.52984" lon="6.83818">
        <ele>2733.9</ele>
        <time>2021-03-30T13:00:05Z</time>
      </trkpt>
      <trkpt lat="45.52983" lon="6.83818">
        <ele>2733.2</ele>
        <time>2021-03-30T13:00:06Z</time>
      </trkpt>
      <trkpt lat="45.52982" lon="6.83818">
        <ele>2733.2</ele>
        <time>2021-03-30T13:00:07Z</time>
      </trkpt>
      <trkpt lat="45.52981" lon="6.83818">
        <ele>2733.2</ele>
        <time>2021-03-30T13:00:08Z</time>
      </trkpt>
      <trkpt lat="45.52981" lon="6.83818">
        <ele>2733.2</ele>
        <time>2021-03-30T13:00:09Z</time>
      </trkpt>
      <trkpt lat="45.5298" lon="6.83819">
        <ele>2732.5</ele>
        <time>2021-03-30T13:00:10Z</time>
      </trkpt>
      <trkpt lat="45.52979" lon="6.83819">
        <ele>2732.5</ele>
        <time>2021-03-30T13:02:08Z</time>
      </trkpt>
      <trkpt lat="45.52978" lon="6.83819">
        <ele>2732.5</ele>
        <time>2021-03-30T13:02:09Z</time>
      </trkpt>
      <trkpt lat="45.52974" lon="6.83814">
        <ele>2730.1</ele>
        <time>2021-03-30T13:02:10Z</time>
      </trkpt>
      <trkpt lat="45.52971" lon="6.83808">
        <ele>2727.4</ele>
        <time>2021-03-30T13:02:11Z</time>
      </trkpt>
      <trkpt lat="45.52967" lon="6.83798">
        <ele>2724.8</ele>
        <time>2021-03-30T13:02:12Z</time>
      </trkpt>
      <trkpt lat="45.52964" lon="6.83792">
        <ele>2723.1</ele>
        <time>2021-03-30T13:02:13Z</time>
      </trkpt>
      <trkpt lat="45.52965" lon="6.83784">
        <ele>2721.7</ele>
        <time>2021-03-30T13:02:14Z</time>
      </trkpt>
      <trkpt lat="45.52968" lon="6.83776">
        <ele>2719.5</ele>
        <time>2021-03-30T13:02:15Z</time>
      </trkpt>
      <trkpt lat="45.5297" lon="6.83769">
        <ele>2718.3</ele>
        <time>2021-03-30T13:02:16Z</time>
      </trkpt>
      <trkpt lat="45.52972" lon="6.83763">
        <ele>2718.2</ele>
        <time>2021-03-30T13:02:17Z</time>
      </trkpt>
      <trkpt lat="45.52972" lon="6.83757">
        <ele>2716.5</ele>
        <time>2021-03-30T13:02:18Z</time>
      </trkpt>
      <trkpt lat="45.52971" lon="6.83754">
        <ele>2715.6</ele>
        <time>2021-03-30T13:02:19Z</time>
      </trkpt>
      <trkpt lat="45.52974" lon="6.83749">
        <ele>2714.7</ele>
        <time>2021-03-30T13:02:20Z</time>
      </trkpt>
      <trkpt lat="45.52974" lon="6.83746">
        <ele>2715.6</ele>
        <time>2021-03-30T13:02:21Z</time>
      </trkpt>
      <trkpt lat="45.52971" lon="6.83741">
        <ele>2712.9</ele>
        <time>2021-03-30T13:02:22Z</time>
      </trkpt>
      <trkpt lat="45.52967" lon="6.83741">
        <ele>2712.1</ele>
        <time>2021-03-30T13:02:23Z</time>
      </trkpt>
      <trkpt lat="45.52962" lon="6.83738">
        <ele>2710.3</ele>
        <time>2021-03-30T13:02:24Z</time>
      </trkpt>
      <trkpt lat="45.5296" lon="6.83732">
        <ele>2708.7</ele>
        <time>2021-03-30T13:02:25Z</time>
      </trkpt>
      <trkpt lat="45.52958" lon="6.83729">
        <ele>2707.2</ele>
        <time>2021-03-30T13:02:26Z</time>
      </trkpt>
      <trkpt lat="45.52964" lon="6.83723">
        <ele>2707.7</ele>
        <time>2021-03-30T13:02:27Z</time>
      </trkpt>
      <trkpt lat="45.52968" lon="6.83718">
        <ele>2706.9</ele>
        <time>2021-03-30T13:02:28Z</time>
      </trkpt>
      <trkpt lat="45.52969" lon="6.83714">
        <ele>2707.1</ele>
        <time>2021-03-30T13:02:29Z</time>
      </trkpt>
      <trkpt lat="45.52964" lon="6.83712">
        <ele>2705.4</ele>
        <time>2021-03-30T13:02:30Z</time>
      </trkpt>
      <trkpt lat="45.52966" lon="6.83708">
        <ele>2705.5</ele>
        <time>2021-03-30T13:02:31Z</time>
      </trkpt>
      <trkpt lat="45.52966" lon="6.83703">
        <ele>2704.9</ele>
        <time>2021-03-30T13:02:32Z</time>
      </trkpt>
      <trkpt lat="45.52966" lon="6.83698">
        <ele>2704.2</ele>
        <time>2021-03-30T13:02:33Z</time>
      </trkpt>
      <trkpt lat="45.52968" lon="6.83686">
        <ele>2702.9</ele>
        <time>2021-03-30T13:02:34Z</time>
      </trkpt>
      <trkpt lat="45.52972" lon="6.83676">
        <ele>2702.6</ele>
        <time>2021-03-30T13:02:35Z</time>
      </trkpt>
      <trkpt lat="45.52974" lon="6.83664">
        <ele>2700.8</ele>
        <time>2021-03-30T13:02:36Z</time>
      </trkpt>
      <trkpt lat="45.52975" lon="6.83653">
        <ele>2700</ele>
        <time>2021-03-30T13:02:37Z</time>
      </trkpt>
      <trkpt lat="45.52976" lon="6.83642">
        <ele>2698.8</ele>
        <time>2021-03-30T13:02:38Z</time>
      </trkpt>
      <trkpt lat="45.52977" lon="6.83631">
        <ele>2698.1</ele>
        <time>2021-03-30T13:02:39Z</time>
      </trkpt>
      <trkpt lat="45.52971" lon="6.83627">
        <ele>2695.3</ele>
        <time>2021-03-30T13:02:40Z</time>
      </trkpt>
      <trkpt lat="45.52966" lon="6.83626">
        <ele>2693</ele>
        <time>2021-03-30T13:02:41Z</time>
      </trkpt>
      <trkpt lat="45.52962" lon="6.83622">
        <ele>2691.1</ele>
        <time>2021-03-30T13:02:42Z</time>
      </trkpt>
      <trkpt lat="45.52957" lon="6.83618">
        <ele>2688.3</ele>
        <time>2021-03-30T13:02:43Z</time>
      </trkpt>
      <trkpt lat="45.52954" lon="6.83613">
        <ele>2686.6</ele>
        <time>2021-03-30T13:02:44Z</time>
      </trkpt>
      <trkpt lat="45.52951" lon="6.83606">
        <ele>2684</ele>
        <time>2021-03-30T13:02:45Z</time>
      </trkpt>
      <trkpt lat="45.52946" lon="6.83605">
        <ele>2681.6</ele>
        <time>2021-03-30T13:02:46Z</time>
      </trkpt>
      <trkpt lat="45.5294" lon="6.83603">
        <ele>2677.5</ele>
        <time>2021-03-30T13:02:47Z</time>
      </trkpt>
      <trkpt lat="45.52938" lon="6.83598">
        <ele>2675.5</ele>
        <time>2021-03-30T13:02:48Z</time>
      </trkpt>
      <trkpt lat="45.5294" lon="6.8359">
        <ele>2674.7</ele>
        <time>2021-03-30T13:02:49Z</time>
      </trkpt>
      <trkpt lat="45.52941" lon="6.83585">
        <ele>2673.8</ele>
        <time>2021-03-30T13:02:50Z</time>
      </trkpt>
      <trkpt lat="45.52942" lon="6.83579">
        <ele>2674.2</ele>
        <time>2021-03-30T13:02:51Z</time>
      </trkpt>
      <trkpt lat="45.52943" lon="6.83577">
        <ele>2673.4</ele>
        <time>2021-03-30T13:02:52Z</time>
      </trkpt>
      <trkpt lat="45.52943" lon="6.83576">
        <ele>2673.4</ele>
        <time>2021-03-30T13:02:53Z</time>
      </trkpt>
      <trkpt lat="45.52944" lon="6.8358">
        <ele>2674.2</ele>
        <time>2021-03-30T13:02:54Z</time>
      </trkpt>
      <trkpt lat="45.52944" lon="6.8358">
        <ele>2674.2</ele>
        <time>2021-03-30T13:02:55Z</time>
      </trkpt>
      <trkpt lat="45.52944" lon="6.8358">
        <ele>2674.2</ele>
        <time>2021-03-30T13:02:56Z</time>
      </trkpt>
      <trkpt lat="45.52944" lon="6.8358">
        <ele>2674.2</ele>
        <time>2021-03-30T13:02:57Z</time>
      </trkpt>
      <trkpt lat="45.52944" lon="6.8358">
        <ele>2674.2</ele>
        <time>2021-03-30T13:02:58Z</time>
      </trkpt>
      <trkpt lat="45.52944" lon="6.8358">
        <ele>2674.2</ele>
        <time>2021-03-30T13:02:59Z</time>
      </trkpt>
      <trkpt lat="45.52944" lon="6.8358">
        <ele>2674.2</ele>
        <time>2021-03-30T13:03:00Z</time>
      </trkpt>
      <trkpt lat="45.52944" lon="6.83581">
        <ele>2674.2</ele>
        <time>2021-03-30T13:03:01Z</time>
      </trkpt>
      <trkpt lat="45.52944" lon="6.83582">
        <ele>2677.3</ele>
        <time>2021-03-30T13:03:02Z</time>
      </trkpt>
      <trkpt lat="45.52943" lon="6.83583">
        <ele>2675.1</ele>
        <time>2021-03-30T13:03:03Z</time>
      </trkpt>
      <trkpt lat="45.52941" lon="6.83584">
        <ele>2675.1</ele>
        <time>2021-03-30T13:03:04Z</time>
      </trkpt>
      <trkpt lat="45.5294" lon="6.83585">
        <ele>2673.8</ele>
        <time>2021-03-30T13:03:05Z</time>
      </trkpt>
      <trkpt lat="45.52937" lon="6.83594">
        <ele>2675.5</ele>
        <time>2021-03-30T13:03:06Z</time>
      </trkpt>
      <trkpt lat="45.52935" lon="6.836">
        <ele>2675.5</ele>
        <time>2021-03-30T13:03:07Z</time>
      </trkpt>
      <trkpt lat="45.5293" lon="6.83602">
        <ele>2674.5</ele>
        <time>2021-03-30T13:03:08Z</time>
      </trkpt>
      <trkpt lat="45.52928" lon="6.83598">
        <ele>2672.6</ele>
        <time>2021-03-30T13:03:09Z</time>
      </trkpt>
      <trkpt lat="45.5293" lon="6.83586">
        <ele>2671.6</ele>
        <time>2021-03-30T13:03:10Z</time>
      </trkpt>
      <trkpt lat="45.5293" lon="6.83582">
        <ele>2670.6</ele>
        <time>2021-03-30T13:03:11Z</time>
      </trkpt>
      <trkpt lat="45.52928" lon="6.83578">
        <ele>2668.6</ele>
        <time>2021-03-30T13:03:12Z</time>
      </trkpt>
      <trkpt lat="45.52923" lon="6.83578">
        <ele>2666.3</ele>
        <time>2021-03-30T13:03:13Z</time>
      </trkpt>
      <trkpt lat="45.52919" lon="6.83576">
        <ele>2664.2</ele>
        <time>2021-03-30T13:03:14Z</time>
      </trkpt>
      <trkpt lat="45.52914" lon="6.83572">
        <ele>2662</ele>
        <time>2021-03-30T13:03:15Z</time>
      </trkpt>
      <trkpt lat="45.52915" lon="6.83564">
        <ele>2660</ele>
        <time>2021-03-30T13:03:16Z</time>
      </trkpt>
      <trkpt lat="45.52917" lon="6.83559">
        <ele>2660.4</ele>
        <time>2021-03-30T13:03:17Z</time>
      </trkpt>
      <trkpt lat="45.5292" lon="6.83556">
        <ele>2660.4</ele>
        <time>2021-03-30T13:03:18Z</time>
      </trkpt>
      <trkpt lat="45.52922" lon="6.83549">
        <ele>2659.9</ele>
        <time>2021-03-30T13:03:19Z</time>
      </trkpt>
      <trkpt lat="45.52923" lon="6.83543">
        <ele>2659</ele>
        <time>2021-03-30T13:03:20Z</time>
      </trkpt>
      <trkpt lat="45.52924" lon="6.83536">
        <ele>2658.7</ele>
        <time>2021-03-30T13:03:21Z</time>
      </trkpt>
      <trkpt lat="45.52924" lon="6.8353">
        <ele>2657.9</ele>
        <time>2021-03-30T13:03:22Z</time>
      </trkpt>
      <trkpt lat="45.52925" lon="6.83525">
        <ele>2656.3</ele>
        <time>2021-03-30T13:03:23Z</time>
      </trkpt>
      <trkpt lat="45.52926" lon="6.83521">
        <ele>2656.7</ele>
        <time>2021-03-30T13:03:24Z</time>
      </trkpt>
      <trkpt lat="45.52927" lon="6.83516">
        <ele>2655.8</ele>
        <time>2021-03-30T13:03:25Z</time>
      </trkpt>
      <trkpt lat="45.52928" lon="6.83515">
        <ele>2655.8</ele>
        <time>2021-03-30T13:03:26Z</time>
      </trkpt>
      <trkpt lat="45.52929" lon="6.83511">
        <ele>2655</ele>
        <time>2021-03-30T13:03:27Z</time>
      </trkpt>
      <trkpt lat="45.52929" lon="6.83504">
        <ele>2653.4</ele>
        <time>2021-03-30T13:03:28Z</time>
      </trkpt>
      <trkpt lat="45.5293" lon="6.83499">
        <ele>2653.8</ele>
        <time>2021-03-30T13:03:29Z</time>
      </trkpt>
      <trkpt lat="45.52932" lon="6.83495">
        <ele>2653.1</ele>
        <time>2021-03-30T13:03:30Z</time>
      </trkpt>
      <trkpt lat="45.52934" lon="6.83491">
        <ele>2654.3</ele>
        <time>2021-03-30T13:03:31Z</time>
      </trkpt>
      <trkpt lat="45.52933" lon="6.83493">
        <ele>2654.3</ele>
        <time>2021-03-30T13:03:32Z</time>
      </trkpt>
      <trkpt lat="45.52934" lon="6.83493">
        <ele>2654.3</ele>
        <time>2021-03-30T13:03:33Z</time>
      </trkpt>
      <trkpt lat="45.52934" lon="6.83492">
        <ele>2654.3</ele>
        <time>2021-03-30T13:03:34Z</time>
      </trkpt>
      <trkpt lat="45.52934" lon="6.83492">
        <ele>2654.3</ele>
        <time>2021-03-30T13:03:35Z</time>
      </trkpt>
      <trkpt lat="45.52934" lon="6.83492">
        <ele>2654.3</ele>
        <time>2021-03-30T13:03:36Z</time>
      </trkpt>
      <trkpt lat="45.52934" lon="6.83492">
        <ele>2654.3</ele>
        <time>2021-03-30T13:03:37Z</time>
      </trkpt>
      <trkpt lat="45.52934" lon="6.83492">
        <ele>2654.3</ele>
        <time>2021-03-30T13:03:38Z</time>
      </trkpt>
      <trkpt lat="45.52934" lon="6.83492">
        <ele>2654.3</ele>
        <time>2021-03-30T13:03:39Z</time>
      </trkpt>
      <trkpt lat="45.52934" lon="6.83492">
        <ele>2654.3</ele>
        <time>2021-03-30T13:03:40Z</time>
      </trkpt>
      <trkpt lat="45.52935" lon="6.83496">
        <ele>2654.3</ele>
        <time>2021-03-30T13:03:41Z</time>
      </trkpt>
      <trkpt lat="45.52935" lon="6.83496">
        <ele>2654.9</ele>
        <time>2021-03-30T13:03:42Z</time>
      </trkpt>
      <trkpt lat="45.52936" lon="6.83497">
        <ele>2656.2</ele>
        <time>2021-03-30T13:03:43Z</time>
      </trkpt>
      <trkpt lat="45.52936" lon="6.83501">
        <ele>2656.9</ele>
        <time>2021-03-30T13:03:45Z</time>
      </trkpt>
      <trkpt lat="45.52936" lon="6.835">
        <ele>2656.9</ele>
        <time>2021-03-30T13:03:46Z</time>
      </trkpt>
      <trkpt lat="45.52935" lon="6.835">
        <ele>2656.2</ele>
        <time>2021-03-30T13:03:47Z</time>
      </trkpt>
      <trkpt lat="45.52935" lon="6.83498">
        <ele>2656.2</ele>
        <time>2021-03-30T13:03:48Z</time>
      </trkpt>
      <trkpt lat="45.52935" lon="6.83498">
        <ele>2656.2</ele>
        <time>2021-03-30T13:03:49Z</time>
      </trkpt>
      <trkpt lat="45.52935" lon="6.83498">
        <ele>2656.2</ele>
        <time>2021-03-30T13:03:50Z</time>
      </trkpt>
      <trkpt lat="45.52935" lon="6.83498">
        <ele>2656.2</ele>
        <time>2021-03-30T13:03:51Z</time>
      </trkpt>
      <trkpt lat="45.52934" lon="6.83498">
        <ele>2654.9</ele>
        <time>2021-03-30T13:03:52Z</time>
      </trkpt>
      <trkpt lat="45.52933" lon="6.83499">
        <ele>2654.9</ele>
        <time>2021-03-30T13:03:53Z</time>
      </trkpt>
      <trkpt lat="45.52933" lon="6.83496">
        <ele>2654.3</ele>
        <time>2021-03-30T13:03:54Z</time>
      </trkpt>
      <trkpt lat="45.52932" lon="6.83492">
        <ele>2653.1</ele>
        <time>2021-03-30T13:03:55Z</time>
      </trkpt>
      <trkpt lat="45.52931" lon="6.83489">
        <ele>2652.5</ele>
        <time>2021-03-30T13:03:56Z</time>
      </trkpt>
      <trkpt lat="45.52931" lon="6.83486">
        <ele>2651.9</ele>
        <time>2021-03-30T13:04:49Z</time>
      </trkpt>
      <trkpt lat="45.5293" lon="6.83483">
        <ele>2651.9</ele>
        <time>2021-03-30T13:04:50Z</time>
      </trkpt>
      <trkpt lat="45.52926" lon="6.83478">
        <ele>2649.6</ele>
        <time>2021-03-30T13:04:51Z</time>
      </trkpt>
      <trkpt lat="45.52921" lon="6.83475">
        <ele>2647</ele>
        <time>2021-03-30T13:04:52Z</time>
      </trkpt>
      <trkpt lat="45.52916" lon="6.83471">
        <ele>2643.6</ele>
        <time>2021-03-30T13:04:53Z</time>
      </trkpt>
      <trkpt lat="45.52916" lon="6.83461">
        <ele>2641.4</ele>
        <time>2021-03-30T13:04:54Z</time>
      </trkpt>
      <trkpt lat="45.52915" lon="6.83451">
        <ele>2639.9</ele>
        <time>2021-03-30T13:04:55Z</time>
      </trkpt>
      <trkpt lat="45.52916" lon="6.83444">
        <ele>2639.2</ele>
        <time>2021-03-30T13:04:56Z</time>
      </trkpt>
      <trkpt lat="45.52913" lon="6.83439">
        <ele>2636.3</ele>
        <time>2021-03-30T13:04:57Z</time>
      </trkpt>
      <trkpt lat="45.5291" lon="6.83436">
        <ele>2635.1</ele>
        <time>2021-03-30T13:04:58Z</time>
      </trkpt>
      <trkpt lat="45.52907" lon="6.83428">
        <ele>2632</ele>
        <time>2021-03-30T13:04:59Z</time>
      </trkpt>
      <trkpt lat="45.52905" lon="6.83421">
        <ele>2629.8</ele>
        <time>2021-03-30T13:05:00Z</time>
      </trkpt>
      <trkpt lat="45.52905" lon="6.83415">
        <ele>2627.2</ele>
        <time>2021-03-30T13:05:01Z</time>
      </trkpt>
      <trkpt lat="45.52906" lon="6.8341">
        <ele>2627.4</ele>
        <time>2021-03-30T13:05:02Z</time>
      </trkpt>
      <trkpt lat="45.52908" lon="6.83411">
        <ele>2628.8</ele>
        <time>2021-03-30T13:05:03Z</time>
      </trkpt>
      <trkpt lat="45.52905" lon="6.83406">
        <ele>2626.2</ele>
        <time>2021-03-30T13:05:04Z</time>
      </trkpt>
      <trkpt lat="45.52902" lon="6.83401">
        <ele>2622.4</ele>
        <time>2021-03-30T13:05:05Z</time>
      </trkpt>
      <trkpt lat="45.52902" lon="6.83395">
        <ele>2619.7</ele>
        <time>2021-03-30T13:05:06Z</time>
      </trkpt>
      <trkpt lat="45.529" lon="6.83393">
        <ele>2619.7</ele>
        <time>2021-03-30T13:05:07Z</time>
      </trkpt>
      <trkpt lat="45.52895" lon="6.83386">
        <ele>2614</ele>
        <time>2021-03-30T13:05:08Z</time>
      </trkpt>
      <trkpt lat="45.52892" lon="6.83382">
        <ele>2611.1</ele>
        <time>2021-03-30T13:05:09Z</time>
      </trkpt>
      <trkpt lat="45.52888" lon="6.83377">
        <ele>2608.2</ele>
        <time>2021-03-30T13:05:10Z</time>
      </trkpt>
      <trkpt lat="45.52881" lon="6.83371">
        <ele>2602.3</ele>
        <time>2021-03-30T13:05:11Z</time>
      </trkpt>
      <trkpt lat="45.52873" lon="6.83372">
        <ele>2599.7</ele>
        <time>2021-03-30T13:05:12Z</time>
      </trkpt>
      <trkpt lat="45.52874" lon="6.83367">
        <ele>2598.5</ele>
        <time>2021-03-30T13:05:13Z</time>
      </trkpt>
      <trkpt lat="45.52882" lon="6.83365">
        <ele>2601.5</ele>
        <time>2021-03-30T13:05:14Z</time>
      </trkpt>
      <trkpt lat="45.52884" lon="6.83359">
        <ele>2602.1</ele>
        <time>2021-03-30T13:05:15Z</time>
      </trkpt>
      <trkpt lat="45.52885" lon="6.83356">
        <ele>2601.1</ele>
        <time>2021-03-30T13:05:16Z</time>
      </trkpt>
      <trkpt lat="45.52885" lon="6.83353">
        <ele>2600.2</ele>
        <time>2021-03-30T13:05:17Z</time>
      </trkpt>
      <trkpt lat="45.52887" lon="6.83347">
        <ele>2598.8</ele>
        <time>2021-03-30T13:05:18Z</time>
      </trkpt>
      <trkpt lat="45.52888" lon="6.83344">
        <ele>2599.6</ele>
        <time>2021-03-30T13:05:19Z</time>
      </trkpt>
      <trkpt lat="45.52885" lon="6.83339">
        <ele>2597</ele>
        <time>2021-03-30T13:05:20Z</time>
      </trkpt>
      <trkpt lat="45.52881" lon="6.83335">
        <ele>2594.5</ele>
        <time>2021-03-30T13:05:21Z</time>
      </trkpt>
      <trkpt lat="45.52876" lon="6.83335">
        <ele>2591.6</ele>
        <time>2021-03-30T13:05:22Z</time>
      </trkpt>
      <trkpt lat="45.52872" lon="6.83332">
        <ele>2588.2</ele>
        <time>2021-03-30T13:05:23Z</time>
      </trkpt>
      <trkpt lat="45.5287" lon="6.83328">
        <ele>2587.4</ele>
        <time>2021-03-30T13:05:24Z</time>
      </trkpt>
      <trkpt lat="45.52869" lon="6.83324">
        <ele>2587.4</ele>
        <time>2021-03-30T13:05:25Z</time>
      </trkpt>
      <trkpt lat="45.52869" lon="6.83322">
        <ele>2586.6</ele>
        <time>2021-03-30T13:05:26Z</time>
      </trkpt>
      <trkpt lat="45.52865" lon="6.83318">
        <ele>2583.4</ele>
        <time>2021-03-30T13:05:27Z</time>
      </trkpt>
      <trkpt lat="45.52863" lon="6.83319">
        <ele>2583.4</ele>
        <time>2021-03-30T13:05:28Z</time>
      </trkpt>
      <trkpt lat="45.52865" lon="6.83313">
        <ele>2582.8</ele>
        <time>2021-03-30T13:05:29Z</time>
      </trkpt>
      <trkpt lat="45.52865" lon="6.83308">
        <ele>2582.2</ele>
        <time>2021-03-30T13:05:30Z</time>
      </trkpt>
      <trkpt lat="45.52861" lon="6.83307">
        <ele>2580.9</ele>
        <time>2021-03-30T13:05:31Z</time>
      </trkpt>
      <trkpt lat="45.52859" lon="6.83305">
        <ele>2578.9</ele>
        <time>2021-03-30T13:05:32Z</time>
      </trkpt>
      <trkpt lat="45.52851" lon="6.83303">
        <ele>2575.6</ele>
        <time>2021-03-30T13:05:33Z</time>
      </trkpt>
      <trkpt lat="45.52845" lon="6.83306">
        <ele>2574.7</ele>
        <time>2021-03-30T13:05:34Z</time>
      </trkpt>
      <trkpt lat="45.52841" lon="6.83302">
        <ele>2572</ele>
        <time>2021-03-30T13:05:35Z</time>
      </trkpt>
      <trkpt lat="45.52832" lon="6.83302">
        <ele>2568.4</ele>
        <time>2021-03-30T13:05:36Z</time>
      </trkpt>
      <trkpt lat="45.52829" lon="6.83297">
        <ele>2566.4</ele>
        <time>2021-03-30T13:05:37Z</time>
      </trkpt>
      <trkpt lat="45.52826" lon="6.83294">
        <ele>2564.4</ele>
        <time>2021-03-30T13:05:38Z</time>
      </trkpt>
      <trkpt lat="45.52827" lon="6.83287">
        <ele>2563.4</ele>
        <time>2021-03-30T13:05:39Z</time>
      </trkpt>
      <trkpt lat="45.52833" lon="6.83282">
        <ele>2566</ele>
        <time>2021-03-30T13:05:40Z</time>
      </trkpt>
      <trkpt lat="45.5284" lon="6.83278">
        <ele>2567.7</ele>
        <time>2021-03-30T13:05:41Z</time>
      </trkpt>
      <trkpt lat="45.52843" lon="6.83278">
        <ele>2568.9</ele>
        <time>2021-03-30T13:05:42Z</time>
      </trkpt>
      <trkpt lat="45.52846" lon="6.83276">
        <ele>2569</ele>
        <time>2021-03-30T13:05:43Z</time>
      </trkpt>
      <trkpt lat="45.52847" lon="6.83276">
        <ele>2569</ele>
        <time>2021-03-30T13:05:44Z</time>
      </trkpt>
      <trkpt lat="45.52845" lon="6.83275">
        <ele>2569</ele>
        <time>2021-03-30T13:05:45Z</time>
      </trkpt>
      <trkpt lat="45.52843" lon="6.83278">
        <ele>2568.9</ele>
        <time>2021-03-30T13:05:46Z</time>
      </trkpt>
      <trkpt lat="45.52843" lon="6.83277">
        <ele>2568.9</ele>
        <time>2021-03-30T13:05:47Z</time>
      </trkpt>
      <trkpt lat="45.52844" lon="6.83276">
        <ele>2567.9</ele>
        <time>2021-03-30T13:05:48Z</time>
      </trkpt>
      <trkpt lat="45.52844" lon="6.83275">
        <ele>2567.9</ele>
        <time>2021-03-30T13:05:49Z</time>
      </trkpt>
      <trkpt lat="45.52844" lon="6.83274">
        <ele>2567.9</ele>
        <time>2021-03-30T13:05:50Z</time>
      </trkpt>
      <trkpt lat="45.52845" lon="6.83273">
        <ele>2567.9</ele>
        <time>2021-03-30T13:05:51Z</time>
      </trkpt>
      <trkpt lat="45.52847" lon="6.8327">
        <ele>2568.1</ele>
        <time>2021-03-30T13:05:52Z</time>
      </trkpt>
      <trkpt lat="45.52848" lon="6.83266">
        <ele>2568.2</ele>
        <time>2021-03-30T13:05:53Z</time>
      </trkpt>
      <trkpt lat="45.52849" lon="6.83263">
        <ele>2567.3</ele>
        <time>2021-03-30T13:05:54Z</time>
      </trkpt>
      <trkpt lat="45.5285" lon="6.83258">
        <ele>2566.3</ele>
        <time>2021-03-30T13:05:55Z</time>
      </trkpt>
      <trkpt lat="45.52851" lon="6.83253">
        <ele>2566.3</ele>
        <time>2021-03-30T13:05:56Z</time>
      </trkpt>
      <trkpt lat="45.52852" lon="6.83248">
        <ele>2565.1</ele>
        <time>2021-03-30T13:05:57Z</time>
      </trkpt>
      <trkpt lat="45.52852" lon="6.83244">
        <ele>2563.9</ele>
        <time>2021-03-30T13:05:58Z</time>
      </trkpt>
      <trkpt lat="45.5285" lon="6.83238">
        <ele>2561.5</ele>
        <time>2021-03-30T13:05:59Z</time>
      </trkpt>
      <trkpt lat="45.5284" lon="6.8323">
        <ele>2555.1</ele>
        <time>2021-03-30T13:06:00Z</time>
      </trkpt>
      <trkpt lat="45.52844" lon="6.8322">
        <ele>2553.1</ele>
        <time>2021-03-30T13:06:01Z</time>
      </trkpt>
      <trkpt lat="45.52844" lon="6.83216">
        <ele>2552</ele>
        <time>2021-03-30T13:06:02Z</time>
      </trkpt>
      <trkpt lat="45.52846" lon="6.83212">
        <ele>2552.3</ele>
        <time>2021-03-30T13:06:03Z</time>
      </trkpt>
      <trkpt lat="45.52847" lon="6.83209">
        <ele>2552.3</ele>
        <time>2021-03-30T13:06:04Z</time>
      </trkpt>
      <trkpt lat="45.52849" lon="6.83209">
        <ele>2553.7</ele>
        <time>2021-03-30T13:06:05Z</time>
      </trkpt>
      <trkpt lat="45.52848" lon="6.8321">
        <ele>2553.7</ele>
        <time>2021-03-30T13:06:06Z</time>
      </trkpt>
      <trkpt lat="45.52849" lon="6.83209">
        <ele>2553.7</ele>
        <time>2021-03-30T13:06:07Z</time>
      </trkpt>
      <trkpt lat="45.52849" lon="6.83208">
        <ele>2552.5</ele>
        <time>2021-03-30T13:06:08Z</time>
      </trkpt>
      <trkpt lat="45.52849" lon="6.83207">
        <ele>2552.5</ele>
        <time>2021-03-30T13:06:09Z</time>
      </trkpt>
      <trkpt lat="45.52849" lon="6.83206">
        <ele>2552.5</ele>
        <time>2021-03-30T13:06:10Z</time>
      </trkpt>
      <trkpt lat="45.52849" lon="6.83206">
        <ele>2552.5</ele>
        <time>2021-03-30T13:06:11Z</time>
      </trkpt>
      <trkpt lat="45.52849" lon="6.83205">
        <ele>2552.5</ele>
        <time>2021-03-30T13:06:12Z</time>
      </trkpt>
      <trkpt lat="45.52849" lon="6.83204">
        <ele>2552.5</ele>
        <time>2021-03-30T13:06:13Z</time>
      </trkpt>
      <trkpt lat="45.52849" lon="6.83203">
        <ele>2551.3</ele>
        <time>2021-03-30T13:06:14Z</time>
      </trkpt>
      <trkpt lat="45.52849" lon="6.83202">
        <ele>2551.3</ele>
        <time>2021-03-30T13:06:15Z</time>
      </trkpt>
      <trkpt lat="45.5285" lon="6.83202">
        <ele>2551.3</ele>
        <time>2021-03-30T13:06:16Z</time>
      </trkpt>
      <trkpt lat="45.5285" lon="6.83201">
        <ele>2551.3</ele>
        <time>2021-03-30T13:06:21Z</time>
      </trkpt>
      <trkpt lat="45.5285" lon="6.832">
        <ele>2551.3</ele>
        <time>2021-03-30T13:06:22Z</time>
      </trkpt>
      <trkpt lat="45.5285" lon="6.83193">
        <ele>2548.8</ele>
        <time>2021-03-30T13:06:23Z</time>
      </trkpt>
      <trkpt lat="45.52848" lon="6.83185">
        <ele>2544.9</ele>
        <time>2021-03-30T13:06:24Z</time>
      </trkpt>
      <trkpt lat="45.52847" lon="6.83179">
        <ele>2543.9</ele>
        <time>2021-03-30T13:06:25Z</time>
      </trkpt>
      <trkpt lat="45.52845" lon="6.83173">
        <ele>2541.9</ele>
        <time>2021-03-30T13:06:26Z</time>
      </trkpt>
      <trkpt lat="45.52844" lon="6.83166">
        <ele>2539.2</ele>
        <time>2021-03-30T13:06:27Z</time>
      </trkpt>
      <trkpt lat="45.52844" lon="6.83161">
        <ele>2538.1</ele>
        <time>2021-03-30T13:06:28Z</time>
      </trkpt>
      <trkpt lat="45.52843" lon="6.83156">
        <ele>2535.7</ele>
        <time>2021-03-30T13:06:29Z</time>
      </trkpt>
      <trkpt lat="45.52841" lon="6.83151">
        <ele>2532.4</ele>
        <time>2021-03-30T13:06:30Z</time>
      </trkpt>
      <trkpt lat="45.52837" lon="6.83144">
        <ele>2529</ele>
        <time>2021-03-30T13:06:31Z</time>
      </trkpt>
      <trkpt lat="45.52835" lon="6.8314">
        <ele>2525.4</ele>
        <time>2021-03-30T13:06:32Z</time>
      </trkpt>
      <trkpt lat="45.52833" lon="6.83135">
        <ele>2521.9</ele>
        <time>2021-03-30T13:06:33Z</time>
      </trkpt>
      <trkpt lat="45.52828" lon="6.83132">
        <ele>2518.6</ele>
        <time>2021-03-30T13:06:34Z</time>
      </trkpt>
      <trkpt lat="45.52824" lon="6.8313">
        <ele>2515.5</ele>
        <time>2021-03-30T13:06:35Z</time>
      </trkpt>
      <trkpt lat="45.52823" lon="6.83125">
        <ele>2512.3</ele>
        <time>2021-03-30T13:06:36Z</time>
      </trkpt>
      <trkpt lat="45.52825" lon="6.83124">
        <ele>2514</ele>
        <time>2021-03-30T13:06:37Z</time>
      </trkpt>
      <trkpt lat="45.52825" lon="6.83122">
        <ele>2512.4</ele>
        <time>2021-03-30T13:06:38Z</time>
      </trkpt>
      <trkpt lat="45.52823" lon="6.83124">
        <ele>2512.3</ele>
        <time>2021-03-30T13:06:39Z</time>
      </trkpt>
      <trkpt lat="45.5282" lon="6.83127">
        <ele>2512.1</ele>
        <time>2021-03-30T13:06:40Z</time>
      </trkpt>
      <trkpt lat="45.52817" lon="6.83133">
        <ele>2511.9</ele>
        <time>2021-03-30T13:06:41Z</time>
      </trkpt>
      <trkpt lat="45.52816" lon="6.83136">
        <ele>2513.4</ele>
        <time>2021-03-30T13:06:42Z</time>
      </trkpt>
      <trkpt lat="45.52814" lon="6.83139">
        <ele>2511.6</ele>
        <time>2021-03-30T13:06:43Z</time>
      </trkpt>
      <trkpt lat="45.52811" lon="6.83142">
        <ele>2511.3</ele>
        <time>2021-03-30T13:06:44Z</time>
      </trkpt>
      <trkpt lat="45.52809" lon="6.83146">
        <ele>2512.8</ele>
        <time>2021-03-30T13:06:45Z</time>
      </trkpt>
      <trkpt lat="45.52807" lon="6.8315">
        <ele>2512.6</ele>
        <time>2021-03-30T13:06:46Z</time>
      </trkpt>
      <trkpt lat="45.52805" lon="6.83153">
        <ele>2512.4</ele>
        <time>2021-03-30T13:06:47Z</time>
      </trkpt>
      <trkpt lat="45.52803" lon="6.83157">
        <ele>2513.9</ele>
        <time>2021-03-30T13:06:48Z</time>
      </trkpt>
      <trkpt lat="45.52802" lon="6.83161">
        <ele>2512.2</ele>
        <time>2021-03-30T13:06:49Z</time>
      </trkpt>
      <trkpt lat="45.52801" lon="6.83163">
        <ele>2513.7</ele>
        <time>2021-03-30T13:06:50Z</time>
      </trkpt>
      <trkpt lat="45.52801" lon="6.83163">
        <ele>2513.7</ele>
        <time>2021-03-30T13:06:51Z</time>
      </trkpt>
      <trkpt lat="45.52801" lon="6.83163">
        <ele>2513.7</ele>
        <time>2021-03-30T13:06:52Z</time>
      </trkpt>
      <trkpt lat="45.52801" lon="6.83163">
        <ele>2513.7</ele>
        <time>2021-03-30T13:06:53Z</time>
      </trkpt>
      <trkpt lat="45.52801" lon="6.83163">
        <ele>2513.7</ele>
        <time>2021-03-30T13:06:54Z</time>
      </trkpt>
      <trkpt lat="45.52801" lon="6.83163">
        <ele>2513.7</ele>
        <time>2021-03-30T13:06:55Z</time>
      </trkpt>
      <trkpt lat="45.52801" lon="6.83163">
        <ele>2513.7</ele>
        <time>2021-03-30T13:06:56Z</time>
      </trkpt>
      <trkpt lat="45.52801" lon="6.83163">
        <ele>2513.7</ele>
        <time>2021-03-30T13:06:57Z</time>
      </trkpt>
      <trkpt lat="45.52801" lon="6.83163">
        <ele>2513.7</ele>
        <time>2021-03-30T13:06:58Z</time>
      </trkpt>
      <trkpt lat="45.52801" lon="6.83163">
        <ele>2513.7</ele>
        <time>2021-03-30T13:06:59Z</time>
      </trkpt>
      <trkpt lat="45.52801" lon="6.83163">
        <ele>2513.7</ele>
        <time>2021-03-30T13:07:00Z</time>
      </trkpt>
      <trkpt lat="45.52797" lon="6.83162">
        <ele>2512</ele>
        <time>2021-03-30T13:07:08Z</time>
      </trkpt>
      <trkpt lat="45.52795" lon="6.83157">
        <ele>2508.9</ele>
        <time>2021-03-30T13:07:09Z</time>
      </trkpt>
      <trkpt lat="45.52795" lon="6.83151">
        <ele>2505.7</ele>
        <time>2021-03-30T13:07:10Z</time>
      </trkpt>
      <trkpt lat="45.52796" lon="6.83145">
        <ele>2504.1</ele>
        <time>2021-03-30T13:07:11Z</time>
      </trkpt>
      <trkpt lat="45.52796" lon="6.83139">
        <ele>2500.9</ele>
        <time>2021-03-30T13:07:12Z</time>
      </trkpt>
      <trkpt lat="45.52796" lon="6.83135">
        <ele>2499.4</ele>
        <time>2021-03-30T13:07:13Z</time>
      </trkpt>
      <trkpt lat="45.52797" lon="6.8313">
        <ele>2499.5</ele>
        <time>2021-03-30T13:07:14Z</time>
      </trkpt>
      <trkpt lat="45.52797" lon="6.83129">
        <ele>2499.5</ele>
        <time>2021-03-30T13:07:15Z</time>
      </trkpt>
      <trkpt lat="45.52798" lon="6.83124">
        <ele>2498</ele>
        <time>2021-03-30T13:07:16Z</time>
      </trkpt>
      <trkpt lat="45.52798" lon="6.83122">
        <ele>2496.5</ele>
        <time>2021-03-30T13:07:17Z</time>
      </trkpt>
      <trkpt lat="45.52798" lon="6.83117">
        <ele>2494.9</ele>
        <time>2021-03-30T13:07:18Z</time>
      </trkpt>
      <trkpt lat="45.52797" lon="6.83116">
        <ele>2494.9</ele>
        <time>2021-03-30T13:07:19Z</time>
      </trkpt>
      <trkpt lat="45.52796" lon="6.83116">
        <ele>2493.2</ele>
        <time>2021-03-30T13:07:20Z</time>
      </trkpt>
      <trkpt lat="45.52796" lon="6.83116">
        <ele>2493.2</ele>
        <time>2021-03-30T13:07:21Z</time>
      </trkpt>
      <trkpt lat="45.52795" lon="6.83116">
        <ele>2493.2</ele>
        <time>2021-03-30T13:07:22Z</time>
      </trkpt>
      <trkpt lat="45.52795" lon="6.83117">
        <ele>2493.2</ele>
        <time>2021-03-30T13:07:23Z</time>
      </trkpt>
      <trkpt lat="45.52794" lon="6.83117">
        <ele>2493.2</ele>
        <time>2021-03-30T13:07:24Z</time>
      </trkpt>
      <trkpt lat="45.52794" lon="6.83117">
        <ele>2493.2</ele>
        <time>2021-03-30T13:07:25Z</time>
      </trkpt>
      <trkpt lat="45.52793" lon="6.83117">
        <ele>2491.7</ele>
        <time>2021-03-30T13:07:26Z</time>
      </trkpt>
      <trkpt lat="45.52793" lon="6.83117">
        <ele>2491.7</ele>
        <time>2021-03-30T13:07:27Z</time>
      </trkpt>
      <trkpt lat="45.52792" lon="6.83117">
        <ele>2491.7</ele>
        <time>2021-03-30T13:07:28Z</time>
      </trkpt>
      <trkpt lat="45.52792" lon="6.83117">
        <ele>2491.7</ele>
        <time>2021-03-30T13:07:35Z</time>
      </trkpt>
      <trkpt lat="45.52791" lon="6.83117">
        <ele>2491.7</ele>
        <time>2021-03-30T13:07:36Z</time>
      </trkpt>
      <trkpt lat="45.5279" lon="6.83117">
        <ele>2490.2</ele>
        <time>2021-03-30T13:07:37Z</time>
      </trkpt>
      <trkpt lat="45.52789" lon="6.83116">
        <ele>2490.2</ele>
        <time>2021-03-30T13:07:38Z</time>
      </trkpt>
      <trkpt lat="45.52789" lon="6.83116">
        <ele>2490.2</ele>
        <time>2021-03-30T13:07:39Z</time>
      </trkpt>
      <trkpt lat="45.52788" lon="6.83116">
        <ele>2490.2</ele>
        <time>2021-03-30T13:07:40Z</time>
      </trkpt>
      <trkpt lat="45.52787" lon="6.83115">
        <ele>2488.8</ele>
        <time>2021-03-30T13:07:41Z</time>
      </trkpt>
      <trkpt lat="45.52787" lon="6.83114">
        <ele>2488.8</ele>
        <time>2021-03-30T13:07:42Z</time>
      </trkpt>
      <trkpt lat="45.52787" lon="6.83111">
        <ele>2487.1</ele>
        <time>2021-03-30T13:07:43Z</time>
      </trkpt>
      <trkpt lat="45.52788" lon="6.83107">
        <ele>2486.8</ele>
        <time>2021-03-30T13:07:44Z</time>
      </trkpt>
      <trkpt lat="45.52789" lon="6.83106">
        <ele>2486.8</ele>
        <time>2021-03-30T13:07:45Z</time>
      </trkpt>
      <trkpt lat="45.52789" lon="6.83104">
        <ele>2485</ele>
        <time>2021-03-30T13:07:46Z</time>
      </trkpt>
      <trkpt lat="45.52788" lon="6.83101">
        <ele>2485</ele>
        <time>2021-03-30T13:07:47Z</time>
      </trkpt>
      <trkpt lat="45.52786" lon="6.831">
        <ele>2481.8</ele>
        <time>2021-03-30T13:07:48Z</time>
      </trkpt>
      <trkpt lat="45.52785" lon="6.83099">
        <ele>2480.3</ele>
        <time>2021-03-30T13:07:49Z</time>
      </trkpt>
      <trkpt lat="45.52783" lon="6.83099">
        <ele>2480.3</ele>
        <time>2021-03-30T13:07:50Z</time>
      </trkpt>
      <trkpt lat="45.52782" lon="6.83099">
        <ele>2478.6</ele>
        <time>2021-03-30T13:07:51Z</time>
      </trkpt>
      <trkpt lat="45.52781" lon="6.83098">
        <ele>2478.6</ele>
        <time>2021-03-30T13:07:52Z</time>
      </trkpt>
      <trkpt lat="45.5278" lon="6.83096">
        <ele>2476.9</ele>
        <time>2021-03-30T13:07:53Z</time>
      </trkpt>
      <trkpt lat="45.52779" lon="6.83094">
        <ele>2476.9</ele>
        <time>2021-03-30T13:07:54Z</time>
      </trkpt>
      <trkpt lat="45.52779" lon="6.83094">
        <ele>2476.9</ele>
        <time>2021-03-30T13:07:55Z</time>
      </trkpt>
      <trkpt lat="45.52779" lon="6.83094">
        <ele>2475.2</ele>
        <time>2021-03-30T13:07:56Z</time>
      </trkpt>
      <trkpt lat="45.52779" lon="6.83094">
        <ele>2475.2</ele>
        <time>2021-03-30T13:07:57Z</time>
      </trkpt>
      <trkpt lat="45.52778" lon="6.83094">
        <ele>2475.2</ele>
        <time>2021-03-30T13:07:58Z</time>
      </trkpt>
      <trkpt lat="45.52778" lon="6.83094">
        <ele>2475.2</ele>
        <time>2021-03-30T13:07:59Z</time>
      </trkpt>
      <trkpt lat="45.52778" lon="6.83094">
        <ele>2475.2</ele>
        <time>2021-03-30T13:08:00Z</time>
      </trkpt>
      <trkpt lat="45.52778" lon="6.83094">
        <ele>2475.2</ele>
        <time>2021-03-30T13:08:01Z</time>
      </trkpt>
      <trkpt lat="45.52778" lon="6.83094">
        <ele>2475.2</ele>
        <time>2021-03-30T13:08:02Z</time>
      </trkpt>
      <trkpt lat="45.52777" lon="6.83094">
        <ele>2475.2</ele>
        <time>2021-03-30T13:08:03Z</time>
      </trkpt>
      <trkpt lat="45.52777" lon="6.83094">
        <ele>2475.2</ele>
        <time>2021-03-30T13:08:04Z</time>
      </trkpt>
      <trkpt lat="45.52777" lon="6.83094">
        <ele>2475.2</ele>
        <time>2021-03-30T13:08:06Z</time>
      </trkpt>
      <trkpt lat="45.52777" lon="6.83094">
        <ele>2475.2</ele>
        <time>2021-03-30T13:08:07Z</time>
      </trkpt>
      <trkpt lat="45.52777" lon="6.83094">
        <ele>2475.2</ele>
        <time>2021-03-30T13:08:08Z</time>
      </trkpt>
      <trkpt lat="45.52777" lon="6.83094">
        <ele>2475.2</ele>
        <time>2021-03-30T13:08:09Z</time>
      </trkpt>
      <trkpt lat="45.52776" lon="6.83094">
        <ele>2475.2</ele>
        <time>2021-03-30T13:08:10Z</time>
      </trkpt>
      <trkpt lat="45.52776" lon="6.83093">
        <ele>2475.2</ele>
        <time>2021-03-30T13:08:11Z</time>
      </trkpt>
      <trkpt lat="45.52777" lon="6.83089">
        <ele>2473.5</ele>
        <time>2021-03-30T13:08:12Z</time>
      </trkpt>
      <trkpt lat="45.52777" lon="6.83087">
        <ele>2471.9</ele>
        <time>2021-03-30T13:08:13Z</time>
      </trkpt>
      <trkpt lat="45.52776" lon="6.83083">
        <ele>2470.3</ele>
        <time>2021-03-30T13:08:14Z</time>
      </trkpt>
      <trkpt lat="45.52776" lon="6.83081">
        <ele>2470.3</ele>
        <time>2021-03-30T13:08:15Z</time>
      </trkpt>
      <trkpt lat="45.52775" lon="6.83076">
        <ele>2467</ele>
        <time>2021-03-30T13:08:16Z</time>
      </trkpt>
      <trkpt lat="45.52775" lon="6.83075">
        <ele>2465.4</ele>
        <time>2021-03-30T13:08:17Z</time>
      </trkpt>
      <trkpt lat="45.52775" lon="6.8307">
        <ele>2463.7</ele>
        <time>2021-03-30T13:08:18Z</time>
      </trkpt>
      <trkpt lat="45.52775" lon="6.83068">
        <ele>2463.7</ele>
        <time>2021-03-30T13:08:19Z</time>
      </trkpt>
      <trkpt lat="45.52775" lon="6.83066">
        <ele>2462</ele>
        <time>2021-03-30T13:08:20Z</time>
      </trkpt>
      <trkpt lat="45.52776" lon="6.83064">
        <ele>2462</ele>
        <time>2021-03-30T13:08:21Z</time>
      </trkpt>
      <trkpt lat="45.52776" lon="6.83063">
        <ele>2463.6</ele>
        <time>2021-03-30T13:08:22Z</time>
      </trkpt>
      <trkpt lat="45.52774" lon="6.8306">
        <ele>2460.3</ele>
        <time>2021-03-30T13:08:23Z</time>
      </trkpt>
      <trkpt lat="45.52771" lon="6.83057">
        <ele>2457.2</ele>
        <time>2021-03-30T13:08:24Z</time>
      </trkpt>
      <trkpt lat="45.52767" lon="6.83056">
        <ele>2455.9</ele>
        <time>2021-03-30T13:08:25Z</time>
      </trkpt>
      <trkpt lat="45.52764" lon="6.83056">
        <ele>2453.7</ele>
        <time>2021-03-30T13:08:26Z</time>
      </trkpt>
      <trkpt lat="45.52761" lon="6.83058">
        <ele>2453.7</ele>
        <time>2021-03-30T13:08:27Z</time>
      </trkpt>
      <trkpt lat="45.52758" lon="6.8306">
        <ele>2454.3</ele>
        <time>2021-03-30T13:08:28Z</time>
      </trkpt>
      <trkpt lat="45.52758" lon="6.83061">
        <ele>2454.3</ele>
        <time>2021-03-30T13:08:29Z</time>
      </trkpt>
      <trkpt lat="45.52758" lon="6.83061">
        <ele>2453</ele>
        <time>2021-03-30T13:08:30Z</time>
      </trkpt>
      <trkpt lat="45.52757" lon="6.83062">
        <ele>2453</ele>
        <time>2021-03-30T13:08:31Z</time>
      </trkpt>
      <trkpt lat="45.52756" lon="6.83061">
        <ele>2453</ele>
        <time>2021-03-30T13:08:32Z</time>
      </trkpt>
      <trkpt lat="45.52755" lon="6.83061">
        <ele>2451.7</ele>
        <time>2021-03-30T13:08:33Z</time>
      </trkpt>
      <trkpt lat="45.52754" lon="6.8306">
        <ele>2451.7</ele>
        <time>2021-03-30T13:08:34Z</time>
      </trkpt>
      <trkpt lat="45.52753" lon="6.83058">
        <ele>2451.7</ele>
        <time>2021-03-30T13:08:35Z</time>
      </trkpt>
      <trkpt lat="45.52753" lon="6.83057">
        <ele>2450.1</ele>
        <time>2021-03-30T13:08:36Z</time>
      </trkpt>
      <trkpt lat="45.52754" lon="6.83055">
        <ele>2450.1</ele>
        <time>2021-03-30T13:08:37Z</time>
      </trkpt>
      <trkpt lat="45.52754" lon="6.83053">
        <ele>2448.5</ele>
        <time>2021-03-30T13:08:38Z</time>
      </trkpt>
      <trkpt lat="45.52753" lon="6.8305">
        <ele>2448.5</ele>
        <time>2021-03-30T13:08:39Z</time>
      </trkpt>
      <trkpt lat="45.5275" lon="6.83047">
        <ele>2445.6</ele>
        <time>2021-03-30T13:08:40Z</time>
      </trkpt>
      <trkpt lat="45.52747" lon="6.83046">
        <ele>2444.3</ele>
        <time>2021-03-30T13:08:41Z</time>
      </trkpt>
      <trkpt lat="45.52744" lon="6.83046">
        <ele>2443.1</ele>
        <time>2021-03-30T13:08:42Z</time>
      </trkpt>
      <trkpt lat="45.52741" lon="6.83046">
        <ele>2442</ele>
        <time>2021-03-30T13:08:43Z</time>
      </trkpt>
      <trkpt lat="45.52739" lon="6.83042">
        <ele>2439.5</ele>
        <time>2021-03-30T13:08:44Z</time>
      </trkpt>
      <trkpt lat="45.52739" lon="6.83041">
        <ele>2439.5</ele>
        <time>2021-03-30T13:08:45Z</time>
      </trkpt>
      <trkpt lat="45.52739" lon="6.83038">
        <ele>2438.2</ele>
        <time>2021-03-30T13:08:46Z</time>
      </trkpt>
      <trkpt lat="45.52741" lon="6.83037">
        <ele>2439.2</ele>
        <time>2021-03-30T13:08:47Z</time>
      </trkpt>
      <trkpt lat="45.52742" lon="6.83035">
        <ele>2437.8</ele>
        <time>2021-03-30T13:08:48Z</time>
      </trkpt>
      <trkpt lat="45.52743" lon="6.83034">
        <ele>2438.9</ele>
        <time>2021-03-30T13:08:49Z</time>
      </trkpt>
      <trkpt lat="45.52745" lon="6.8303">
        <ele>2437.4</ele>
        <time>2021-03-30T13:08:50Z</time>
      </trkpt>
      <trkpt lat="45.52746" lon="6.83029">
        <ele>2437.4</ele>
        <time>2021-03-30T13:08:51Z</time>
      </trkpt>
      <trkpt lat="45.52747" lon="6.83026">
        <ele>2436.9</ele>
        <time>2021-03-30T13:08:52Z</time>
      </trkpt>
      <trkpt lat="45.52748" lon="6.83025">
        <ele>2436.9</ele>
        <time>2021-03-30T13:08:53Z</time>
      </trkpt>
      <trkpt lat="45.5275" lon="6.8302">
        <ele>2436.5</ele>
        <time>2021-03-30T13:08:54Z</time>
      </trkpt>
      <trkpt lat="45.52751" lon="6.83018">
        <ele>2434.8</ele>
        <time>2021-03-30T13:08:55Z</time>
      </trkpt>
      <trkpt lat="45.52752" lon="6.83014">
        <ele>2434.3</ele>
        <time>2021-03-30T13:08:56Z</time>
      </trkpt>
      <trkpt lat="45.52753" lon="6.83009">
        <ele>2432.6</ele>
        <time>2021-03-30T13:08:57Z</time>
      </trkpt>
      <trkpt lat="45.52755" lon="6.83005">
        <ele>2431</ele>
        <time>2021-03-30T13:08:58Z</time>
      </trkpt>
      <trkpt lat="45.52755" lon="6.83001">
        <ele>2430.6</ele>
        <time>2021-03-30T13:08:59Z</time>
      </trkpt>
      <trkpt lat="45.52752" lon="6.82998">
        <ele>2429.4</ele>
        <time>2021-03-30T13:09:00Z</time>
      </trkpt>
      <trkpt lat="45.52751" lon="6.82998">
        <ele>2428.3</ele>
        <time>2021-03-30T13:09:01Z</time>
      </trkpt>
      <trkpt lat="45.52748" lon="6.83">
        <ele>2427.2</ele>
        <time>2021-03-30T13:09:02Z</time>
      </trkpt>
      <trkpt lat="45.52745" lon="6.83002">
        <ele>2426.1</ele>
        <time>2021-03-30T13:09:03Z</time>
      </trkpt>
      <trkpt lat="45.52743" lon="6.83002">
        <ele>2427.7</ele>
        <time>2021-03-30T13:09:04Z</time>
      </trkpt>
      <trkpt lat="45.5274" lon="6.83002">
        <ele>2426.7</ele>
        <time>2021-03-30T13:09:05Z</time>
      </trkpt>
      <trkpt lat="45.52738" lon="6.82999">
        <ele>2424.1</ele>
        <time>2021-03-30T13:09:06Z</time>
      </trkpt>
      <trkpt lat="45.52738" lon="6.82997">
        <ele>2422.6</ele>
        <time>2021-03-30T13:09:07Z</time>
      </trkpt>
      <trkpt lat="45.5274" lon="6.82992">
        <ele>2422.1</ele>
        <time>2021-03-30T13:09:08Z</time>
      </trkpt>
      <trkpt lat="45.52742" lon="6.82987">
        <ele>2420.5</ele>
        <time>2021-03-30T13:09:09Z</time>
      </trkpt>
      <trkpt lat="45.52745" lon="6.82982">
        <ele>2419.9</ele>
        <time>2021-03-30T13:09:10Z</time>
      </trkpt>
      <trkpt lat="45.52747" lon="6.82977">
        <ele>2419.2</ele>
        <time>2021-03-30T13:09:11Z</time>
      </trkpt>
      <trkpt lat="45.52749" lon="6.82973">
        <ele>2418.5</ele>
        <time>2021-03-30T13:09:12Z</time>
      </trkpt>
      <trkpt lat="45.52751" lon="6.82969">
        <ele>2416.6</ele>
        <time>2021-03-30T13:09:13Z</time>
      </trkpt>
      <trkpt lat="45.52754" lon="6.82965">
        <ele>2415.8</ele>
        <time>2021-03-30T13:09:14Z</time>
      </trkpt>
      <trkpt lat="45.52756" lon="6.82961">
        <ele>2415</ele>
        <time>2021-03-30T13:09:15Z</time>
      </trkpt>
      <trkpt lat="45.52759" lon="6.82957">
        <ele>2414.2</ele>
        <time>2021-03-30T13:09:16Z</time>
      </trkpt>
      <trkpt lat="45.52761" lon="6.82953">
        <ele>2413.4</ele>
        <time>2021-03-30T13:09:17Z</time>
      </trkpt>
      <trkpt lat="45.52764" lon="6.8295">
        <ele>2412.5</ele>
        <time>2021-03-30T13:09:18Z</time>
      </trkpt>
      <trkpt lat="45.52767" lon="6.82946">
        <ele>2411.7</ele>
        <time>2021-03-30T13:09:19Z</time>
      </trkpt>
      <trkpt lat="45.5277" lon="6.82942">
        <ele>2412.4</ele>
        <time>2021-03-30T13:09:20Z</time>
      </trkpt>
      <trkpt lat="45.52775" lon="6.82938">
        <ele>2411.7</ele>
        <time>2021-03-30T13:09:21Z</time>
      </trkpt>
      <trkpt lat="45.52782" lon="6.82926">
        <ele>2408.9</ele>
        <time>2021-03-30T13:09:22Z</time>
      </trkpt>
      <trkpt lat="45.52788" lon="6.82919">
        <ele>2406.1</ele>
        <time>2021-03-30T13:09:23Z</time>
      </trkpt>
      <trkpt lat="45.52791" lon="6.82914">
        <ele>2405</ele>
        <time>2021-03-30T13:09:24Z</time>
      </trkpt>
      <trkpt lat="45.52794" lon="6.82908">
        <ele>2404.6</ele>
        <time>2021-03-30T13:09:25Z</time>
      </trkpt>
      <trkpt lat="45.52797" lon="6.82903">
        <ele>2402.4</ele>
        <time>2021-03-30T13:09:26Z</time>
      </trkpt>
      <trkpt lat="45.528" lon="6.829">
        <ele>2403</ele>
        <time>2021-03-30T13:09:27Z</time>
      </trkpt>
      <trkpt lat="45.52804" lon="6.82897">
        <ele>2402.3</ele>
        <time>2021-03-30T13:09:28Z</time>
      </trkpt>
      <trkpt lat="45.52808" lon="6.82894">
        <ele>2401.5</ele>
        <time>2021-03-30T13:09:29Z</time>
      </trkpt>
      <trkpt lat="45.52811" lon="6.8289">
        <ele>2400.7</ele>
        <time>2021-03-30T13:09:30Z</time>
      </trkpt>
      <trkpt lat="45.52814" lon="6.82884">
        <ele>2399.8</ele>
        <time>2021-03-30T13:09:31Z</time>
      </trkpt>
      <trkpt lat="45.52817" lon="6.82879">
        <ele>2398.9</ele>
        <time>2021-03-30T13:09:32Z</time>
      </trkpt>
      <trkpt lat="45.52821" lon="6.82875">
        <ele>2398.5</ele>
        <time>2021-03-30T13:09:33Z</time>
      </trkpt>
      <trkpt lat="45.52826" lon="6.82871">
        <ele>2397.6</ele>
        <time>2021-03-30T13:09:34Z</time>
      </trkpt>
      <trkpt lat="45.52825" lon="6.82866">
        <ele>2396.4</ele>
        <time>2021-03-30T13:09:35Z</time>
      </trkpt>
      <trkpt lat="45.52828" lon="6.82856">
        <ele>2393.3</ele>
        <time>2021-03-30T13:09:36Z</time>
      </trkpt>
      <trkpt lat="45.52829" lon="6.8285">
        <ele>2392.2</ele>
        <time>2021-03-30T13:09:37Z</time>
      </trkpt>
      <trkpt lat="45.52832" lon="6.82843">
        <ele>2390.4</ele>
        <time>2021-03-30T13:09:38Z</time>
      </trkpt>
      <trkpt lat="45.52835" lon="6.8284">
        <ele>2390.8</ele>
        <time>2021-03-30T13:09:39Z</time>
      </trkpt>
      <trkpt lat="45.52837" lon="6.82837">
        <ele>2390.2</ele>
        <time>2021-03-30T13:09:40Z</time>
      </trkpt>
      <trkpt lat="45.52837" lon="6.82837">
        <ele>2390.2</ele>
        <time>2021-03-30T13:09:41Z</time>
      </trkpt>
      <trkpt lat="45.52838" lon="6.82837">
        <ele>2390.2</ele>
        <time>2021-03-30T13:09:42Z</time>
      </trkpt>
      <trkpt lat="45.52839" lon="6.82837">
        <ele>2390.2</ele>
        <time>2021-03-30T13:09:43Z</time>
      </trkpt>
      <trkpt lat="45.52839" lon="6.82837">
        <ele>2390.2</ele>
        <time>2021-03-30T13:09:44Z</time>
      </trkpt>
      <trkpt lat="45.5284" lon="6.82838">
        <ele>2390.6</ele>
        <time>2021-03-30T13:09:45Z</time>
      </trkpt>
      <trkpt lat="45.52842" lon="6.82838">
        <ele>2390.6</ele>
        <time>2021-03-30T13:09:46Z</time>
      </trkpt>
      <trkpt lat="45.52842" lon="6.82837">
        <ele>2391</ele>
        <time>2021-03-30T13:09:47Z</time>
      </trkpt>
      <trkpt lat="45.52844" lon="6.82837">
        <ele>2391</ele>
        <time>2021-03-30T13:09:48Z</time>
      </trkpt>
      <trkpt lat="45.52845" lon="6.82836">
        <ele>2391.4</ele>
        <time>2021-03-30T13:09:49Z</time>
      </trkpt>
      <trkpt lat="45.52846" lon="6.82836">
        <ele>2391.4</ele>
        <time>2021-03-30T13:09:50Z</time>
      </trkpt>
      <trkpt lat="45.52849" lon="6.82835">
        <ele>2391.8</ele>
        <time>2021-03-30T13:09:51Z</time>
      </trkpt>
      <trkpt lat="45.5285" lon="6.82835">
        <ele>2391.8</ele>
        <time>2021-03-30T13:09:52Z</time>
      </trkpt>
      <trkpt lat="45.52852" lon="6.82834">
        <ele>2390.9</ele>
        <time>2021-03-30T13:09:53Z</time>
      </trkpt>
      <trkpt lat="45.52853" lon="6.82834">
        <ele>2390.9</ele>
        <time>2021-03-30T13:09:54Z</time>
      </trkpt>
      <trkpt lat="45.52853" lon="6.82833">
        <ele>2390.9</ele>
        <time>2021-03-30T13:09:55Z</time>
      </trkpt>
      <trkpt lat="45.52854" lon="6.82833">
        <ele>2391.3</ele>
        <time>2021-03-30T13:09:56Z</time>
      </trkpt>
      <trkpt lat="45.52855" lon="6.82832">
        <ele>2391.3</ele>
        <time>2021-03-30T13:09:57Z</time>
      </trkpt>
      <trkpt lat="45.52856" lon="6.82832">
        <ele>2391.3</ele>
        <time>2021-03-30T13:09:58Z</time>
      </trkpt>
      <trkpt lat="45.52858" lon="6.82832">
        <ele>2391.7</ele>
        <time>2021-03-30T13:09:59Z</time>
      </trkpt>
      <trkpt lat="45.52859" lon="6.82831">
        <ele>2391.7</ele>
        <time>2021-03-30T13:10:00Z</time>
      </trkpt>
      <trkpt lat="45.5286" lon="6.82831">
        <ele>2391.7</ele>
        <time>2021-03-30T13:10:01Z</time>
      </trkpt>
      <trkpt lat="45.52863" lon="6.82831">
        <ele>2392.2</ele>
        <time>2021-03-30T13:10:02Z</time>
      </trkpt>
      <trkpt lat="45.52864" lon="6.8283">
        <ele>2391.5</ele>
        <time>2021-03-30T13:10:03Z</time>
      </trkpt>
      <trkpt lat="45.52868" lon="6.82828">
        <ele>2391.9</ele>
        <time>2021-03-30T13:10:04Z</time>
      </trkpt>
      <trkpt lat="45.52872" lon="6.82823">
        <ele>2391.2</ele>
        <time>2021-03-30T13:10:05Z</time>
      </trkpt>
      <trkpt lat="45.52879" lon="6.82811">
        <ele>2389.3</ele>
        <time>2021-03-30T13:10:06Z</time>
      </trkpt>
      <trkpt lat="45.52886" lon="6.82805">
        <ele>2389</ele>
        <time>2021-03-30T13:10:07Z</time>
      </trkpt>
      <trkpt lat="45.5289" lon="6.82801">
        <ele>2388.3</ele>
        <time>2021-03-30T13:10:08Z</time>
      </trkpt>
      <trkpt lat="45.52894" lon="6.828">
        <ele>2387.8</ele>
        <time>2021-03-30T13:10:09Z</time>
      </trkpt>
      <trkpt lat="45.52896" lon="6.82799">
        <ele>2388.1</ele>
        <time>2021-03-30T13:10:10Z</time>
      </trkpt>
      <trkpt lat="45.52903" lon="6.82796">
        <ele>2387.5</ele>
        <time>2021-03-30T13:10:11Z</time>
      </trkpt>
      <trkpt lat="45.52908" lon="6.82792">
        <ele>2387.8</ele>
        <time>2021-03-30T13:10:12Z</time>
      </trkpt>
      <trkpt lat="45.52911" lon="6.82792">
        <ele>2388.4</ele>
        <time>2021-03-30T13:10:13Z</time>
      </trkpt>
      <trkpt lat="45.52915" lon="6.82788">
        <ele>2387.7</ele>
        <time>2021-03-30T13:10:14Z</time>
      </trkpt>
      <trkpt lat="45.52919" lon="6.82786">
        <ele>2386.9</ele>
        <time>2021-03-30T13:10:15Z</time>
      </trkpt>
      <trkpt lat="45.52923" lon="6.82782">
        <ele>2386.2</ele>
        <time>2021-03-30T13:10:16Z</time>
      </trkpt>
      <trkpt lat="45.52926" lon="6.82776">
        <ele>2385.6</ele>
        <time>2021-03-30T13:10:17Z</time>
      </trkpt>
      <trkpt lat="45.5293" lon="6.82773">
        <ele>2385.2</ele>
        <time>2021-03-30T13:10:18Z</time>
      </trkpt>
      <trkpt lat="45.52933" lon="6.82769">
        <ele>2384.5</ele>
        <time>2021-03-30T13:10:19Z</time>
      </trkpt>
      <trkpt lat="45.52937" lon="6.82764">
        <ele>2383.8</ele>
        <time>2021-03-30T13:10:20Z</time>
      </trkpt>
      <trkpt lat="45.52936" lon="6.82758">
        <ele>2382.8</ele>
        <time>2021-03-30T13:10:21Z</time>
      </trkpt>
      <trkpt lat="45.52938" lon="6.82752">
        <ele>2380.9</ele>
        <time>2021-03-30T13:10:22Z</time>
      </trkpt>
      <trkpt lat="45.52936" lon="6.82745">
        <ele>2379.9</ele>
        <time>2021-03-30T13:10:23Z</time>
      </trkpt>
      <trkpt lat="45.52935" lon="6.8274">
        <ele>2378.1</ele>
        <time>2021-03-30T13:10:24Z</time>
      </trkpt>
      <trkpt lat="45.52933" lon="6.82735">
        <ele>2377.1</ele>
        <time>2021-03-30T13:10:25Z</time>
      </trkpt>
      <trkpt lat="45.52931" lon="6.82731">
        <ele>2376.2</ele>
        <time>2021-03-30T13:10:26Z</time>
      </trkpt>
      <trkpt lat="45.52931" lon="6.8273">
        <ele>2376.2</ele>
        <time>2021-03-30T13:10:27Z</time>
      </trkpt>
      <trkpt lat="45.5293" lon="6.82728">
        <ele>2376.2</ele>
        <time>2021-03-30T13:10:28Z</time>
      </trkpt>
      <trkpt lat="45.52929" lon="6.82726">
        <ele>2375.4</ele>
        <time>2021-03-30T13:10:29Z</time>
      </trkpt>
      <trkpt lat="45.52929" lon="6.82725">
        <ele>2375.4</ele>
        <time>2021-03-30T13:10:30Z</time>
      </trkpt>
      <trkpt lat="45.52928" lon="6.82725">
        <ele>2375.4</ele>
        <time>2021-03-30T13:10:31Z</time>
      </trkpt>
      <trkpt lat="45.52927" lon="6.82724">
        <ele>2375.4</ele>
        <time>2021-03-30T13:10:32Z</time>
      </trkpt>
      <trkpt lat="45.52926" lon="6.82722">
        <ele>2374.6</ele>
        <time>2021-03-30T13:10:33Z</time>
      </trkpt>
      <trkpt lat="45.52925" lon="6.82721">
        <ele>2374.6</ele>
        <time>2021-03-30T13:10:34Z</time>
      </trkpt>
      <trkpt lat="45.52924" lon="6.82719">
        <ele>2374.6</ele>
        <time>2021-03-30T13:10:35Z</time>
      </trkpt>
      <trkpt lat="45.52924" lon="6.82719">
        <ele>2374</ele>
        <time>2021-03-30T13:10:36Z</time>
      </trkpt>
      <trkpt lat="45.52924" lon="6.82718">
        <ele>2374</ele>
        <time>2021-03-30T13:10:37Z</time>
      </trkpt>
      <trkpt lat="45.52924" lon="6.82717">
        <ele>2374</ele>
        <time>2021-03-30T13:10:38Z</time>
      </trkpt>
      <trkpt lat="45.52924" lon="6.82717">
        <ele>2374</ele>
        <time>2021-03-30T13:10:39Z</time>
      </trkpt>
      <trkpt lat="45.52924" lon="6.82716">
        <ele>2374</ele>
        <time>2021-03-30T13:10:40Z</time>
      </trkpt>
      <trkpt lat="45.52924" lon="6.82716">
        <ele>2374</ele>
        <time>2021-03-30T13:10:41Z</time>
      </trkpt>
      <trkpt lat="45.52924" lon="6.82715">
        <ele>2374</ele>
        <time>2021-03-30T13:10:42Z</time>
      </trkpt>
      <trkpt lat="45.52924" lon="6.82714">
        <ele>2373.5</ele>
        <time>2021-03-30T13:10:43Z</time>
      </trkpt>
      <trkpt lat="45.52924" lon="6.82714">
        <ele>2373.5</ele>
        <time>2021-03-30T13:10:44Z</time>
      </trkpt>
      <trkpt lat="45.52924" lon="6.82713">
        <ele>2373.5</ele>
        <time>2021-03-30T13:10:45Z</time>
      </trkpt>
      <trkpt lat="45.52924" lon="6.82713">
        <ele>2373.5</ele>
        <time>2021-03-30T13:10:46Z</time>
      </trkpt>
      <trkpt lat="45.52924" lon="6.82712">
        <ele>2373.5</ele>
        <time>2021-03-30T13:19:30Z</time>
      </trkpt>
      <trkpt lat="45.52924" lon="6.82711">
        <ele>2373.5</ele>
        <time>2021-03-30T13:19:31Z</time>
      </trkpt>
      <trkpt lat="45.52924" lon="6.82711">
        <ele>2373.5</ele>
        <time>2021-03-30T13:19:32Z</time>
      </trkpt>
      <trkpt lat="45.52924" lon="6.8271">
        <ele>2373.5</ele>
        <time>2021-03-30T13:19:33Z</time>
      </trkpt>
      <trkpt lat="45.52924" lon="6.8271">
        <ele>2372.9</ele>
        <time>2021-03-30T13:19:34Z</time>
      </trkpt>
      <trkpt lat="45.52924" lon="6.82709">
        <ele>2372.9</ele>
        <time>2021-03-30T13:19:35Z</time>
      </trkpt>
      <trkpt lat="45.52924" lon="6.82708">
        <ele>2372.9</ele>
        <time>2021-03-30T13:19:36Z</time>
      </trkpt>
      <trkpt lat="45.52924" lon="6.82708">
        <ele>2372.9</ele>
        <time>2021-03-30T13:19:37Z</time>
      </trkpt>
      <trkpt lat="45.52924" lon="6.82707">
        <ele>2372.9</ele>
        <time>2021-03-30T13:19:38Z</time>
      </trkpt>
      <trkpt lat="45.52924" lon="6.82707">
        <ele>2372.9</ele>
        <time>2021-03-30T13:19:39Z</time>
      </trkpt>
      <trkpt lat="45.52924" lon="6.82706">
        <ele>2372.9</ele>
        <time>2021-03-30T13:19:59Z</time>
      </trkpt>
      <trkpt lat="45.52924" lon="6.82705">
        <ele>2372.4</ele>
        <time>2021-03-30T13:20:00Z</time>
      </trkpt>
      <trkpt lat="45.52924" lon="6.82705">
        <ele>2372.4</ele>
        <time>2021-03-30T13:20:01Z</time>
      </trkpt>
      <trkpt lat="45.52924" lon="6.82704">
        <ele>2372.4</ele>
        <time>2021-03-30T13:20:02Z</time>
      </trkpt>
      <trkpt lat="45.52924" lon="6.82704">
        <ele>2372.4</ele>
        <time>2021-03-30T13:20:03Z</time>
      </trkpt>
      <trkpt lat="45.52925" lon="6.82703">
        <ele>2372.4</ele>
        <time>2021-03-30T13:20:04Z</time>
      </trkpt>
      <trkpt lat="45.52925" lon="6.82702">
        <ele>2372.4</ele>
        <time>2021-03-30T13:20:05Z</time>
      </trkpt>
      <trkpt lat="45.52926" lon="6.82702">
        <ele>2372.4</ele>
        <time>2021-03-30T13:20:06Z</time>
      </trkpt>
      <trkpt lat="45.52926" lon="6.82701">
        <ele>2372.2</ele>
        <time>2021-03-30T13:20:07Z</time>
      </trkpt>
      <trkpt lat="45.52926" lon="6.82701">
        <ele>2372.2</ele>
        <time>2021-03-30T13:20:08Z</time>
      </trkpt>
      <trkpt lat="45.52927" lon="6.82701">
        <ele>2372.2</ele>
        <time>2021-03-30T13:20:09Z</time>
      </trkpt>
      <trkpt lat="45.52928" lon="6.82701">
        <ele>2372.2</ele>
        <time>2021-03-30T13:20:10Z</time>
      </trkpt>
      <trkpt lat="45.52928" lon="6.827">
        <ele>2372.2</ele>
        <time>2021-03-30T13:20:11Z</time>
      </trkpt>
      <trkpt lat="45.52928" lon="6.827">
        <ele>2372.2</ele>
        <time>2021-03-30T13:20:12Z</time>
      </trkpt>
      <trkpt lat="45.52929" lon="6.827">
        <ele>2372.2</ele>
        <time>2021-03-30T13:20:13Z</time>
      </trkpt>
      <trkpt lat="45.5293" lon="6.827">
        <ele>2372.4</ele>
        <time>2021-03-30T13:20:14Z</time>
      </trkpt>
      <trkpt lat="45.52931" lon="6.82701">
        <ele>2372.4</ele>
        <time>2021-03-30T13:20:15Z</time>
      </trkpt>
      <trkpt lat="45.52932" lon="6.82701">
        <ele>2372.6</ele>
        <time>2021-03-30T13:20:17Z</time>
      </trkpt>
      <trkpt lat="45.52933" lon="6.82701">
        <ele>2372.6</ele>
        <time>2021-03-30T13:20:18Z</time>
      </trkpt>
      <trkpt lat="45.52934" lon="6.82702">
        <ele>2372.6</ele>
        <time>2021-03-30T13:20:19Z</time>
      </trkpt>
      <trkpt lat="45.52935" lon="6.82702">
        <ele>2373.3</ele>
        <time>2021-03-30T13:20:20Z</time>
      </trkpt>
      <trkpt lat="45.52937" lon="6.82703">
        <ele>2373.3</ele>
        <time>2021-03-30T13:20:21Z</time>
      </trkpt>
      <trkpt lat="45.52938" lon="6.82703">
        <ele>2373.6</ele>
        <time>2021-03-30T13:20:22Z</time>
      </trkpt>
      <trkpt lat="45.52939" lon="6.82703">
        <ele>2373.6</ele>
        <time>2021-03-30T13:20:23Z</time>
      </trkpt>
      <trkpt lat="45.5294" lon="6.82703">
        <ele>2373.6</ele>
        <time>2021-03-30T13:20:24Z</time>
      </trkpt>
      <trkpt lat="45.52941" lon="6.82703">
        <ele>2374</ele>
        <time>2021-03-30T13:20:25Z</time>
      </trkpt>
      <trkpt lat="45.52942" lon="6.82703">
        <ele>2374</ele>
        <time>2021-03-30T13:20:26Z</time>
      </trkpt>
      <trkpt lat="45.52943" lon="6.82704">
        <ele>2374</ele>
        <time>2021-03-30T13:20:27Z</time>
      </trkpt>
      <trkpt lat="45.52944" lon="6.82704">
        <ele>2374</ele>
        <time>2021-03-30T13:20:28Z</time>
      </trkpt>
      <trkpt lat="45.52944" lon="6.82704">
        <ele>2374.7</ele>
        <time>2021-03-30T13:20:29Z</time>
      </trkpt>
      <trkpt lat="45.52945" lon="6.82704">
        <ele>2374.7</ele>
        <time>2021-03-30T13:20:30Z</time>
      </trkpt>
      <trkpt lat="45.52946" lon="6.82705">
        <ele>2374.7</ele>
        <time>2021-03-30T13:20:31Z</time>
      </trkpt>
      <trkpt lat="45.52946" lon="6.82705">
        <ele>2374.7</ele>
        <time>2021-03-30T13:20:32Z</time>
      </trkpt>
      <trkpt lat="45.52947" lon="6.82705">
        <ele>2374.7</ele>
        <time>2021-03-30T13:20:33Z</time>
      </trkpt>
      <trkpt lat="45.52947" lon="6.82706">
        <ele>2375.7</ele>
        <time>2021-03-30T13:20:34Z</time>
      </trkpt>
      <trkpt lat="45.52948" lon="6.82707">
        <ele>2375.7</ele>
        <time>2021-03-30T13:20:35Z</time>
      </trkpt>
      <trkpt lat="45.52948" lon="6.82707">
        <ele>2375.7</ele>
        <time>2021-03-30T13:20:36Z</time>
      </trkpt>
      <trkpt lat="45.52949" lon="6.82707">
        <ele>2375.7</ele>
        <time>2021-03-30T13:20:37Z</time>
      </trkpt>
      <trkpt lat="45.5295" lon="6.82708">
        <ele>2375.7</ele>
        <time>2021-03-30T13:20:38Z</time>
      </trkpt>
      <trkpt lat="45.5295" lon="6.82708">
        <ele>2375.7</ele>
        <time>2021-03-30T13:20:39Z</time>
      </trkpt>
      <trkpt lat="45.5295" lon="6.82708">
        <ele>2376.1</ele>
        <time>2021-03-30T13:20:40Z</time>
      </trkpt>
      <trkpt lat="45.52951" lon="6.82708">
        <ele>2376.1</ele>
        <time>2021-03-30T13:20:41Z</time>
      </trkpt>
      <trkpt lat="45.52952" lon="6.82707">
        <ele>2376.1</ele>
        <time>2021-03-30T13:20:42Z</time>
      </trkpt>
      <trkpt lat="45.52952" lon="6.82707">
        <ele>2376.1</ele>
        <time>2021-03-30T13:20:43Z</time>
      </trkpt>
      <trkpt lat="45.52953" lon="6.82707">
        <ele>2376.1</ele>
        <time>2021-03-30T13:20:44Z</time>
      </trkpt>
      <trkpt lat="45.52954" lon="6.82707">
        <ele>2376.6</ele>
        <time>2021-03-30T13:20:45Z</time>
      </trkpt>
      <trkpt lat="45.52954" lon="6.82707">
        <ele>2376.6</ele>
        <time>2021-03-30T13:20:46Z</time>
      </trkpt>
      <trkpt lat="45.52955" lon="6.82708">
        <ele>2376.6</ele>
        <time>2021-03-30T13:20:47Z</time>
      </trkpt>
      <trkpt lat="45.52955" lon="6.82708">
        <ele>2376.6</ele>
        <time>2021-03-30T13:20:48Z</time>
      </trkpt>
      <trkpt lat="45.52956" lon="6.82708">
        <ele>2376.6</ele>
        <time>2021-03-30T13:20:49Z</time>
      </trkpt>
      <trkpt lat="45.52957" lon="6.82708">
        <ele>2377</ele>
        <time>2021-03-30T13:20:50Z</time>
      </trkpt>
      <trkpt lat="45.52957" lon="6.82708">
        <ele>2377</ele>
        <time>2021-03-30T13:20:51Z</time>
      </trkpt>
      <trkpt lat="45.52958" lon="6.82708">
        <ele>2377</ele>
        <time>2021-03-30T13:20:52Z</time>
      </trkpt>
      <trkpt lat="45.52959" lon="6.82708">
        <ele>2377</ele>
        <time>2021-03-30T13:20:53Z</time>
      </trkpt>
      <trkpt lat="45.52959" lon="6.82708">
        <ele>2377.5</ele>
        <time>2021-03-30T13:20:54Z</time>
      </trkpt>
      <trkpt lat="45.5296" lon="6.82707">
        <ele>2377.5</ele>
        <time>2021-03-30T13:20:55Z</time>
      </trkpt>
      <trkpt lat="45.52961" lon="6.82707">
        <ele>2377.5</ele>
        <time>2021-03-30T13:20:56Z</time>
      </trkpt>
      <trkpt lat="45.52962" lon="6.82707">
        <ele>2377.5</ele>
        <time>2021-03-30T13:20:57Z</time>
      </trkpt>
      <trkpt lat="45.52963" lon="6.82707">
        <ele>2378.1</ele>
        <time>2021-03-30T13:20:58Z</time>
      </trkpt>
      <trkpt lat="45.52963" lon="6.82707">
        <ele>2378.1</ele>
        <time>2021-03-30T13:20:59Z</time>
      </trkpt>
      <trkpt lat="45.52964" lon="6.82707">
        <ele>2378.1</ele>
        <time>2021-03-30T13:21:00Z</time>
      </trkpt>
      <trkpt lat="45.52965" lon="6.82707">
        <ele>2378.6</ele>
        <time>2021-03-30T13:21:01Z</time>
      </trkpt>
      <trkpt lat="45.52966" lon="6.82707">
        <ele>2378.6</ele>
        <time>2021-03-30T13:21:02Z</time>
      </trkpt>
      <trkpt lat="45.52968" lon="6.82707">
        <ele>2378.6</ele>
        <time>2021-03-30T13:21:03Z</time>
      </trkpt>
      <trkpt lat="45.52969" lon="6.82707">
        <ele>2379.2</ele>
        <time>2021-03-30T13:21:04Z</time>
      </trkpt>
      <trkpt lat="45.52969" lon="6.82707">
        <ele>2379.2</ele>
        <time>2021-03-30T13:21:05Z</time>
      </trkpt>
      <trkpt lat="45.5297" lon="6.82707">
        <ele>2379.2</ele>
        <time>2021-03-30T13:21:06Z</time>
      </trkpt>
      <trkpt lat="45.52971" lon="6.82706">
        <ele>2379.2</ele>
        <time>2021-03-30T13:21:07Z</time>
      </trkpt>
      <trkpt lat="45.52971" lon="6.82705">
        <ele>2378.6</ele>
        <time>2021-03-30T13:21:08Z</time>
      </trkpt>
      <trkpt lat="45.52972" lon="6.82704">
        <ele>2379.2</ele>
        <time>2021-03-30T13:21:09Z</time>
      </trkpt>
      <trkpt lat="45.52972" lon="6.82704">
        <ele>2379.2</ele>
        <time>2021-03-30T13:21:10Z</time>
      </trkpt>
      <trkpt lat="45.52973" lon="6.82704">
        <ele>2379.2</ele>
        <time>2021-03-30T13:21:11Z</time>
      </trkpt>
      <trkpt lat="45.52973" lon="6.82704">
        <ele>2379.2</ele>
        <time>2021-03-30T13:21:12Z</time>
      </trkpt>
      <trkpt lat="45.52974" lon="6.82704">
        <ele>2379.2</ele>
        <time>2021-03-30T13:21:13Z</time>
      </trkpt>
      <trkpt lat="45.52974" lon="6.82704">
        <ele>2379.2</ele>
        <time>2021-03-30T13:21:14Z</time>
      </trkpt>
      <trkpt lat="45.52974" lon="6.82704">
        <ele>2379.7</ele>
        <time>2021-03-30T13:21:15Z</time>
      </trkpt>
      <trkpt lat="45.52975" lon="6.82704">
        <ele>2379.7</ele>
        <time>2021-03-30T13:21:16Z</time>
      </trkpt>
      <trkpt lat="45.52975" lon="6.82704">
        <ele>2379.7</ele>
        <time>2021-03-30T13:21:17Z</time>
      </trkpt>
      <trkpt lat="45.52975" lon="6.82704">
        <ele>2379.7</ele>
        <time>2021-03-30T13:21:18Z</time>
      </trkpt>
      <trkpt lat="45.52976" lon="6.82704">
        <ele>2379.7</ele>
        <time>2021-03-30T13:21:19Z</time>
      </trkpt>
      <trkpt lat="45.52976" lon="6.82704">
        <ele>2379.7</ele>
        <time>2021-03-30T13:21:20Z</time>
      </trkpt>
      <trkpt lat="45.52976" lon="6.82704">
        <ele>2379.7</ele>
        <time>2021-03-30T13:21:49Z</time>
      </trkpt>
      <trkpt lat="45.52977" lon="6.82704">
        <ele>2379.7</ele>
        <time>2021-03-30T13:21:50Z</time>
      </trkpt>
      <trkpt lat="45.52977" lon="6.82704">
        <ele>2379.7</ele>
        <time>2021-03-30T13:21:51Z</time>
      </trkpt>
      <trkpt lat="45.52977" lon="6.82704">
        <ele>2380.3</ele>
        <time>2021-03-30T13:21:52Z</time>
      </trkpt>
      <trkpt lat="45.52978" lon="6.82704">
        <ele>2380.3</ele>
        <time>2021-03-30T13:21:53Z</time>
      </trkpt>
      <trkpt lat="45.52979" lon="6.82704">
        <ele>2380.3</ele>
        <time>2021-03-30T13:21:54Z</time>
      </trkpt>
      <trkpt lat="45.52979" lon="6.82705">
        <ele>2380.3</ele>
        <time>2021-03-30T13:21:55Z</time>
      </trkpt>
      <trkpt lat="45.5298" lon="6.82706">
        <ele>2381.5</ele>
        <time>2021-03-30T13:21:56Z</time>
      </trkpt>
      <trkpt lat="45.52981" lon="6.82707">
        <ele>2381.5</ele>
        <time>2021-03-30T13:21:57Z</time>
      </trkpt>
      <trkpt lat="45.52981" lon="6.82707">
        <ele>2381.5</ele>
        <time>2021-03-30T13:21:58Z</time>
      </trkpt>
      <trkpt lat="45.52982" lon="6.82708">
        <ele>2381.5</ele>
        <time>2021-03-30T13:21:59Z</time>
      </trkpt>
      <trkpt lat="45.52983" lon="6.82708">
        <ele>2382</ele>
        <time>2021-03-30T13:22:00Z</time>
      </trkpt>
      <trkpt lat="45.52985" lon="6.82707">
        <ele>2382</ele>
        <time>2021-03-30T13:22:01Z</time>
      </trkpt>
      <trkpt lat="45.52986" lon="6.82707">
        <ele>2382</ele>
        <time>2021-03-30T13:22:02Z</time>
      </trkpt>
      <trkpt lat="45.52987" lon="6.82707">
        <ele>2382.6</ele>
        <time>2021-03-30T13:22:03Z</time>
      </trkpt>
      <trkpt lat="45.52988" lon="6.82706">
        <ele>2382.6</ele>
        <time>2021-03-30T13:22:04Z</time>
      </trkpt>
      <trkpt lat="45.5299" lon="6.82707">
        <ele>2383.1</ele>
        <time>2021-03-30T13:22:05Z</time>
      </trkpt>
      <trkpt lat="45.52991" lon="6.82707">
        <ele>2383.1</ele>
        <time>2021-03-30T13:22:06Z</time>
      </trkpt>
      <trkpt lat="45.52991" lon="6.82707">
        <ele>2383.1</ele>
        <time>2021-03-30T13:22:07Z</time>
      </trkpt>
      <trkpt lat="45.52992" lon="6.82707">
        <ele>2383.1</ele>
        <time>2021-03-30T13:22:08Z</time>
      </trkpt>
      <trkpt lat="45.52993" lon="6.82707">
        <ele>2383.7</ele>
        <time>2021-03-30T13:22:09Z</time>
      </trkpt>
      <trkpt lat="45.52994" lon="6.82707">
        <ele>2383.7</ele>
        <time>2021-03-30T13:22:10Z</time>
      </trkpt>
      <trkpt lat="45.52995" lon="6.82707">
        <ele>2383.7</ele>
        <time>2021-03-30T13:22:11Z</time>
      </trkpt>
      <trkpt lat="45.52996" lon="6.82706">
        <ele>2384.2</ele>
        <time>2021-03-30T13:22:12Z</time>
      </trkpt>
      <trkpt lat="45.52997" lon="6.82706">
        <ele>2383.6</ele>
        <time>2021-03-30T13:22:13Z</time>
      </trkpt>
      <trkpt lat="45.52999" lon="6.82705">
        <ele>2384.1</ele>
        <time>2021-03-30T13:22:14Z</time>
      </trkpt>
      <trkpt lat="45.53" lon="6.82705">
        <ele>2384.1</ele>
        <time>2021-03-30T13:22:15Z</time>
      </trkpt>
      <trkpt lat="45.53002" lon="6.82705">
        <ele>2384.6</ele>
        <time>2021-03-30T13:22:16Z</time>
      </trkpt>
      <trkpt lat="45.53003" lon="6.82705">
        <ele>2384.6</ele>
        <time>2021-03-30T13:22:17Z</time>
      </trkpt>
      <trkpt lat="45.53004" lon="6.82705">
        <ele>2384.6</ele>
        <time>2021-03-30T13:22:18Z</time>
      </trkpt>
      <trkpt lat="45.53005" lon="6.82705">
        <ele>2385.1</ele>
        <time>2021-03-30T13:22:19Z</time>
      </trkpt>
      <trkpt lat="45.53005" lon="6.82704">
        <ele>2385.1</ele>
        <time>2021-03-30T13:22:20Z</time>
      </trkpt>
      <trkpt lat="45.53006" lon="6.82704">
        <ele>2385.1</ele>
        <time>2021-03-30T13:22:21Z</time>
      </trkpt>
      <trkpt lat="45.53007" lon="6.82703">
        <ele>2385.1</ele>
        <time>2021-03-30T13:22:22Z</time>
      </trkpt>
      <trkpt lat="45.53008" lon="6.82703">
        <ele>2385.6</ele>
        <time>2021-03-30T13:22:23Z</time>
      </trkpt>
      <trkpt lat="45.53009" lon="6.82702">
        <ele>2384.9</ele>
        <time>2021-03-30T13:22:24Z</time>
      </trkpt>
      <trkpt lat="45.5301" lon="6.82701">
        <ele>2384.9</ele>
        <time>2021-03-30T13:22:25Z</time>
      </trkpt>
      <trkpt lat="45.53011" lon="6.82701">
        <ele>2385.4</ele>
        <time>2021-03-30T13:22:26Z</time>
      </trkpt>
      <trkpt lat="45.53012" lon="6.82701">
        <ele>2385.4</ele>
        <time>2021-03-30T13:22:27Z</time>
      </trkpt>
      <trkpt lat="45.53013" lon="6.82701">
        <ele>2385.4</ele>
        <time>2021-03-30T13:22:28Z</time>
      </trkpt>
      <trkpt lat="45.53014" lon="6.827">
        <ele>2385.8</ele>
        <time>2021-03-30T13:22:29Z</time>
      </trkpt>
      <trkpt lat="45.53015" lon="6.82699">
        <ele>2385.8</ele>
        <time>2021-03-30T13:22:30Z</time>
      </trkpt>
      <trkpt lat="45.53016" lon="6.82699">
        <ele>2385.8</ele>
        <time>2021-03-30T13:22:31Z</time>
      </trkpt>
      <trkpt lat="45.53017" lon="6.82699">
        <ele>2386.1</ele>
        <time>2021-03-30T13:22:32Z</time>
      </trkpt>
      <trkpt lat="45.53018" lon="6.82699">
        <ele>2386.1</ele>
        <time>2021-03-30T13:22:33Z</time>
      </trkpt>
      <trkpt lat="45.53018" lon="6.82699">
        <ele>2386.1</ele>
        <time>2021-03-30T13:22:34Z</time>
      </trkpt>
      <trkpt lat="45.53019" lon="6.827">
        <ele>2386.1</ele>
        <time>2021-03-30T13:22:35Z</time>
      </trkpt>
      <trkpt lat="45.5302" lon="6.827">
        <ele>2386.5</ele>
        <time>2021-03-30T13:22:36Z</time>
      </trkpt>
      <trkpt lat="45.53021" lon="6.827">
        <ele>2386.5</ele>
        <time>2021-03-30T13:22:37Z</time>
      </trkpt>
      <trkpt lat="45.53022" lon="6.827">
        <ele>2386.5</ele>
        <time>2021-03-30T13:22:38Z</time>
      </trkpt>
      <trkpt lat="45.53023" lon="6.827">
        <ele>2386.9</ele>
        <time>2021-03-30T13:22:39Z</time>
      </trkpt>
      <trkpt lat="45.53024" lon="6.82701">
        <ele>2386.9</ele>
        <time>2021-03-30T13:22:40Z</time>
      </trkpt>
      <trkpt lat="45.53026" lon="6.82701">
        <ele>2387.2</ele>
        <time>2021-03-30T13:22:41Z</time>
      </trkpt>
      <trkpt lat="45.53027" lon="6.82702">
        <ele>2387.9</ele>
        <time>2021-03-30T13:22:42Z</time>
      </trkpt>
      <trkpt lat="45.53028" lon="6.82703">
        <ele>2388.3</ele>
        <time>2021-03-30T13:22:43Z</time>
      </trkpt>
      <trkpt lat="45.53029" lon="6.82703">
        <ele>2388.3</ele>
        <time>2021-03-30T13:22:44Z</time>
      </trkpt>
      <trkpt lat="45.5303" lon="6.82704">
        <ele>2388.3</ele>
        <time>2021-03-30T13:22:45Z</time>
      </trkpt>
      <trkpt lat="45.5303" lon="6.82704">
        <ele>2388.3</ele>
        <time>2021-03-30T13:22:46Z</time>
      </trkpt>
      <trkpt lat="45.53032" lon="6.82704">
        <ele>2388.6</ele>
        <time>2021-03-30T13:22:47Z</time>
      </trkpt>
      <trkpt lat="45.53033" lon="6.82704">
        <ele>2388.6</ele>
        <time>2021-03-30T13:22:48Z</time>
      </trkpt>
      <trkpt lat="45.53033" lon="6.82704">
        <ele>2388.6</ele>
        <time>2021-03-30T13:22:49Z</time>
      </trkpt>
      <trkpt lat="45.53034" lon="6.82704">
        <ele>2388.6</ele>
        <time>2021-03-30T13:22:50Z</time>
      </trkpt>
      <trkpt lat="45.53035" lon="6.82704">
        <ele>2388.9</ele>
        <time>2021-03-30T13:22:51Z</time>
      </trkpt>
      <trkpt lat="45.53036" lon="6.82704">
        <ele>2388.9</ele>
        <time>2021-03-30T13:22:52Z</time>
      </trkpt>
      <trkpt lat="45.53036" lon="6.82704">
        <ele>2388.9</ele>
        <time>2021-03-30T13:22:53Z</time>
      </trkpt>
      <trkpt lat="45.53037" lon="6.82704">
        <ele>2389.1</ele>
        <time>2021-03-30T13:22:54Z</time>
      </trkpt>
      <trkpt lat="45.53038" lon="6.82704">
        <ele>2389.1</ele>
        <time>2021-03-30T13:22:55Z</time>
      </trkpt>
      <trkpt lat="45.53039" lon="6.82704">
        <ele>2389.1</ele>
        <time>2021-03-30T13:22:56Z</time>
      </trkpt>
      <trkpt lat="45.5304" lon="6.82704">
        <ele>2389.1</ele>
        <time>2021-03-30T13:22:57Z</time>
      </trkpt>
      <trkpt lat="45.53041" lon="6.82704">
        <ele>2389.3</ele>
        <time>2021-03-30T13:22:58Z</time>
      </trkpt>
      <trkpt lat="45.53041" lon="6.82704">
        <ele>2389.3</ele>
        <time>2021-03-30T13:22:59Z</time>
      </trkpt>
      <trkpt lat="45.53042" lon="6.82704">
        <ele>2389.3</ele>
        <time>2021-03-30T13:23:00Z</time>
      </trkpt>
      <trkpt lat="45.53043" lon="6.82704">
        <ele>2389.3</ele>
        <time>2021-03-30T13:23:01Z</time>
      </trkpt>
      <trkpt lat="45.53043" lon="6.82704">
        <ele>2389.5</ele>
        <time>2021-03-30T13:23:02Z</time>
      </trkpt>
      <trkpt lat="45.53045" lon="6.82705">
        <ele>2389.5</ele>
        <time>2021-03-30T13:23:03Z</time>
      </trkpt>
      <trkpt lat="45.53046" lon="6.82705">
        <ele>2389.5</ele>
        <time>2021-03-30T13:23:04Z</time>
      </trkpt>
      <trkpt lat="45.53047" lon="6.82706">
        <ele>2389.7</ele>
        <time>2021-03-30T13:23:05Z</time>
      </trkpt>
      <trkpt lat="45.53048" lon="6.82706">
        <ele>2389.7</ele>
        <time>2021-03-30T13:23:06Z</time>
      </trkpt>
      <trkpt lat="45.53048" lon="6.82706">
        <ele>2390.4</ele>
        <time>2021-03-30T13:23:07Z</time>
      </trkpt>
      <trkpt lat="45.53049" lon="6.82706">
        <ele>2390.4</ele>
        <time>2021-03-30T13:23:08Z</time>
      </trkpt>
      <trkpt lat="45.5305" lon="6.82707">
        <ele>2390.7</ele>
        <time>2021-03-30T13:23:09Z</time>
      </trkpt>
      <trkpt lat="45.53051" lon="6.82707">
        <ele>2390.7</ele>
        <time>2021-03-30T13:23:10Z</time>
      </trkpt>
      <trkpt lat="45.53052" lon="6.82707">
        <ele>2390.7</ele>
        <time>2021-03-30T13:23:11Z</time>
      </trkpt>
      <trkpt lat="45.53053" lon="6.82707">
        <ele>2390.9</ele>
        <time>2021-03-30T13:23:12Z</time>
      </trkpt>
      <trkpt lat="45.53054" lon="6.82706">
        <ele>2390.9</ele>
        <time>2021-03-30T13:23:13Z</time>
      </trkpt>
      <trkpt lat="45.53054" lon="6.82706">
        <ele>2390.9</ele>
        <time>2021-03-30T13:23:14Z</time>
      </trkpt>
      <trkpt lat="45.53055" lon="6.82706">
        <ele>2390.9</ele>
        <time>2021-03-30T13:23:15Z</time>
      </trkpt>
      <trkpt lat="45.53055" lon="6.82706">
        <ele>2390.9</ele>
        <time>2021-03-30T13:23:16Z</time>
      </trkpt>
      <trkpt lat="45.53056" lon="6.82706">
        <ele>2391.1</ele>
        <time>2021-03-30T13:23:17Z</time>
      </trkpt>
      <trkpt lat="45.53056" lon="6.82706">
        <ele>2391.1</ele>
        <time>2021-03-30T13:23:18Z</time>
      </trkpt>
      <trkpt lat="45.53057" lon="6.82706">
        <ele>2390.3</ele>
        <time>2021-03-30T13:23:19Z</time>
      </trkpt>
      <trkpt lat="45.53058" lon="6.82705">
        <ele>2390.3</ele>
        <time>2021-03-30T13:23:20Z</time>
      </trkpt>
      <trkpt lat="45.53058" lon="6.82705">
        <ele>2390.5</ele>
        <time>2021-03-30T13:23:21Z</time>
      </trkpt>
      <trkpt lat="45.53059" lon="6.82705">
        <ele>2390.5</ele>
        <time>2021-03-30T13:23:22Z</time>
      </trkpt>
      <trkpt lat="45.53061" lon="6.82704">
        <ele>2390.5</ele>
        <time>2021-03-30T13:23:23Z</time>
      </trkpt>
      <trkpt lat="45.53062" lon="6.82703">
        <ele>2390.6</ele>
        <time>2021-03-30T13:23:24Z</time>
      </trkpt>
      <trkpt lat="45.53062" lon="6.82703">
        <ele>2390.6</ele>
        <time>2021-03-30T13:23:25Z</time>
      </trkpt>
      <trkpt lat="45.53064" lon="6.82703">
        <ele>2390.6</ele>
        <time>2021-03-30T13:23:26Z</time>
      </trkpt>
      <trkpt lat="45.53064" lon="6.82703">
        <ele>2390.7</ele>
        <time>2021-03-30T13:23:27Z</time>
      </trkpt>
      <trkpt lat="45.53065" lon="6.82702">
        <ele>2390.7</ele>
        <time>2021-03-30T13:23:28Z</time>
      </trkpt>
      <trkpt lat="45.53066" lon="6.82702">
        <ele>2390.7</ele>
        <time>2021-03-30T13:23:29Z</time>
      </trkpt>
      <trkpt lat="45.53067" lon="6.82702">
        <ele>2390.7</ele>
        <time>2021-03-30T13:23:30Z</time>
      </trkpt>
      <trkpt lat="45.53068" lon="6.82702">
        <ele>2390.8</ele>
        <time>2021-03-30T13:23:31Z</time>
      </trkpt>
      <trkpt lat="45.53068" lon="6.82702">
        <ele>2390.8</ele>
        <time>2021-03-30T13:23:32Z</time>
      </trkpt>
      <trkpt lat="45.53069" lon="6.82702">
        <ele>2390.8</ele>
        <time>2021-03-30T13:23:33Z</time>
      </trkpt>
      <trkpt lat="45.5307" lon="6.82702">
        <ele>2390.8</ele>
        <time>2021-03-30T13:23:34Z</time>
      </trkpt>
      <trkpt lat="45.53071" lon="6.82703">
        <ele>2390.9</ele>
        <time>2021-03-30T13:23:35Z</time>
      </trkpt>
      <trkpt lat="45.53071" lon="6.82703">
        <ele>2390.9</ele>
        <time>2021-03-30T13:23:36Z</time>
      </trkpt>
      <trkpt lat="45.53072" lon="6.82703">
        <ele>2390.9</ele>
        <time>2021-03-30T13:23:37Z</time>
      </trkpt>
      <trkpt lat="45.53072" lon="6.82703">
        <ele>2390.9</ele>
        <time>2021-03-30T13:23:38Z</time>
      </trkpt>
      <trkpt lat="45.53073" lon="6.82703">
        <ele>2390.9</ele>
        <time>2021-03-30T13:23:39Z</time>
      </trkpt>
      <trkpt lat="45.53073" lon="6.82704">
        <ele>2390.9</ele>
        <time>2021-03-30T13:23:40Z</time>
      </trkpt>
      <trkpt lat="45.53074" lon="6.82704">
        <ele>2391</ele>
        <time>2021-03-30T13:23:41Z</time>
      </trkpt>
      <trkpt lat="45.53074" lon="6.82704">
        <ele>2391</ele>
        <time>2021-03-30T13:23:42Z</time>
      </trkpt>
      <trkpt lat="45.53075" lon="6.82704">
        <ele>2391</ele>
        <time>2021-03-30T13:23:43Z</time>
      </trkpt>
      <trkpt lat="45.53076" lon="6.82704">
        <ele>2391</ele>
        <time>2021-03-30T13:23:44Z</time>
      </trkpt>
      <trkpt lat="45.53076" lon="6.82705">
        <ele>2391</ele>
        <time>2021-03-30T13:23:45Z</time>
      </trkpt>
      <trkpt lat="45.53076" lon="6.82705">
        <ele>2391.1</ele>
        <time>2021-03-30T13:23:46Z</time>
      </trkpt>
      <trkpt lat="45.53077" lon="6.82705">
        <ele>2391.1</ele>
        <time>2021-03-30T13:23:47Z</time>
      </trkpt>
      <trkpt lat="45.53077" lon="6.82705">
        <ele>2391.1</ele>
        <time>2021-03-30T13:23:48Z</time>
      </trkpt>
      <trkpt lat="45.53078" lon="6.82705">
        <ele>2391.1</ele>
        <time>2021-03-30T13:23:49Z</time>
      </trkpt>
      <trkpt lat="45.53079" lon="6.82705">
        <ele>2391.1</ele>
        <time>2021-03-30T13:23:50Z</time>
      </trkpt>
      <trkpt lat="45.53079" lon="6.82705">
        <ele>2391.1</ele>
        <time>2021-03-30T13:23:51Z</time>
      </trkpt>
      <trkpt lat="45.53079" lon="6.82705">
        <ele>2391.1</ele>
        <time>2021-03-30T13:23:52Z</time>
      </trkpt>
      <trkpt lat="45.53079" lon="6.82705">
        <ele>2391.1</ele>
        <time>2021-03-30T13:23:53Z</time>
      </trkpt>
      <trkpt lat="45.53081" lon="6.82704">
        <ele>2391.2</ele>
        <time>2021-03-30T13:23:54Z</time>
      </trkpt>
      <trkpt lat="45.53082" lon="6.82703">
        <ele>2391.2</ele>
        <time>2021-03-30T13:23:55Z</time>
      </trkpt>
      <trkpt lat="45.53083" lon="6.82703">
        <ele>2391.3</ele>
        <time>2021-03-30T13:23:56Z</time>
      </trkpt>
      <trkpt lat="45.53084" lon="6.82703">
        <ele>2391.3</ele>
        <time>2021-03-30T13:23:57Z</time>
      </trkpt>
      <trkpt lat="45.53085" lon="6.82702">
        <ele>2391.3</ele>
        <time>2021-03-30T13:23:58Z</time>
      </trkpt>
      <trkpt lat="45.53086" lon="6.82702">
        <ele>2391.4</ele>
        <time>2021-03-30T13:23:59Z</time>
      </trkpt>
      <trkpt lat="45.53087" lon="6.82701">
        <ele>2390.5</ele>
        <time>2021-03-30T13:24:00Z</time>
      </trkpt>
      <trkpt lat="45.53088" lon="6.82701">
        <ele>2390.5</ele>
        <time>2021-03-30T13:24:01Z</time>
      </trkpt>
      <trkpt lat="45.53089" lon="6.827">
        <ele>2390.5</ele>
        <time>2021-03-30T13:24:02Z</time>
      </trkpt>
      <trkpt lat="45.5309" lon="6.827">
        <ele>2390.5</ele>
        <time>2021-03-30T13:24:03Z</time>
      </trkpt>
      <trkpt lat="45.53091" lon="6.827">
        <ele>2390.5</ele>
        <time>2021-03-30T13:24:04Z</time>
      </trkpt>
      <trkpt lat="45.53092" lon="6.827">
        <ele>2390.5</ele>
        <time>2021-03-30T13:24:05Z</time>
      </trkpt>
      <trkpt lat="45.53093" lon="6.827">
        <ele>2390.5</ele>
        <time>2021-03-30T13:24:06Z</time>
      </trkpt>
      <trkpt lat="45.53093" lon="6.827">
        <ele>2390.5</ele>
        <time>2021-03-30T13:24:07Z</time>
      </trkpt>
      <trkpt lat="45.53094" lon="6.827">
        <ele>2390.5</ele>
        <time>2021-03-30T13:24:08Z</time>
      </trkpt>
      <trkpt lat="45.53095" lon="6.827">
        <ele>2390.5</ele>
        <time>2021-03-30T13:24:09Z</time>
      </trkpt>
      <trkpt lat="45.53097" lon="6.827">
        <ele>2390.5</ele>
        <time>2021-03-30T13:24:10Z</time>
      </trkpt>
      <trkpt lat="45.53098" lon="6.827">
        <ele>2390.5</ele>
        <time>2021-03-30T13:24:11Z</time>
      </trkpt>
      <trkpt lat="45.53099" lon="6.827">
        <ele>2390.5</ele>
        <time>2021-03-30T13:24:12Z</time>
      </trkpt>
      <trkpt lat="45.53099" lon="6.827">
        <ele>2390.5</ele>
        <time>2021-03-30T13:24:13Z</time>
      </trkpt>
      <trkpt lat="45.531" lon="6.82699">
        <ele>2390.5</ele>
        <time>2021-03-30T13:24:14Z</time>
      </trkpt>
      <trkpt lat="45.53101" lon="6.82699">
        <ele>2390.4</ele>
        <time>2021-03-30T13:24:15Z</time>
      </trkpt>
      <trkpt lat="45.53103" lon="6.82699">
        <ele>2390.4</ele>
        <time>2021-03-30T13:24:16Z</time>
      </trkpt>
      <trkpt lat="45.53104" lon="6.82699">
        <ele>2390.4</ele>
        <time>2021-03-30T13:24:17Z</time>
      </trkpt>
      <trkpt lat="45.53104" lon="6.82699">
        <ele>2390.4</ele>
        <time>2021-03-30T13:24:18Z</time>
      </trkpt>
      <trkpt lat="45.53105" lon="6.82699">
        <ele>2390.4</ele>
        <time>2021-03-30T13:24:19Z</time>
      </trkpt>
      <trkpt lat="45.53106" lon="6.82699">
        <ele>2390.4</ele>
        <time>2021-03-30T13:24:20Z</time>
      </trkpt>
      <trkpt lat="45.53107" lon="6.82699">
        <ele>2390.3</ele>
        <time>2021-03-30T13:24:21Z</time>
      </trkpt>
      <trkpt lat="45.53107" lon="6.82698">
        <ele>2390.3</ele>
        <time>2021-03-30T13:24:22Z</time>
      </trkpt>
      <trkpt lat="45.53108" lon="6.82698">
        <ele>2390.3</ele>
        <time>2021-03-30T13:24:23Z</time>
      </trkpt>
      <trkpt lat="45.53109" lon="6.82698">
        <ele>2390.3</ele>
        <time>2021-03-30T13:24:24Z</time>
      </trkpt>
      <trkpt lat="45.53109" lon="6.82698">
        <ele>2390.3</ele>
        <time>2021-03-30T13:24:25Z</time>
      </trkpt>
      <trkpt lat="45.5311" lon="6.82698">
        <ele>2390.3</ele>
        <time>2021-03-30T13:24:26Z</time>
      </trkpt>
      <trkpt lat="45.53111" lon="6.82698">
        <ele>2390.3</ele>
        <time>2021-03-30T13:24:27Z</time>
      </trkpt>
      <trkpt lat="45.53111" lon="6.82699">
        <ele>2390.3</ele>
        <time>2021-03-30T13:24:28Z</time>
      </trkpt>
      <trkpt lat="45.53111" lon="6.82699">
        <ele>2390.3</ele>
        <time>2021-03-30T13:24:29Z</time>
      </trkpt>
      <trkpt lat="45.53112" lon="6.827">
        <ele>2390.3</ele>
        <time>2021-03-30T13:24:30Z</time>
      </trkpt>
      <trkpt lat="45.53113" lon="6.82701">
        <ele>2390.2</ele>
        <time>2021-03-30T13:24:31Z</time>
      </trkpt>
      <trkpt lat="45.53114" lon="6.82701">
        <ele>2390.2</ele>
        <time>2021-03-30T13:24:32Z</time>
      </trkpt>
      <trkpt lat="45.53114" lon="6.82702">
        <ele>2390.2</ele>
        <time>2021-03-30T13:24:33Z</time>
      </trkpt>
      <trkpt lat="45.53115" lon="6.82702">
        <ele>2391</ele>
        <time>2021-03-30T13:24:34Z</time>
      </trkpt>
      <trkpt lat="45.53116" lon="6.82702">
        <ele>2391</ele>
        <time>2021-03-30T13:24:35Z</time>
      </trkpt>
      <trkpt lat="45.53116" lon="6.82703">
        <ele>2391</ele>
        <time>2021-03-30T13:24:36Z</time>
      </trkpt>
      <trkpt lat="45.53116" lon="6.82703">
        <ele>2391</ele>
        <time>2021-03-30T13:24:37Z</time>
      </trkpt>
      <trkpt lat="45.53117" lon="6.82703">
        <ele>2391</ele>
        <time>2021-03-30T13:24:38Z</time>
      </trkpt>
      <trkpt lat="45.53118" lon="6.82704">
        <ele>2391</ele>
        <time>2021-03-30T13:24:39Z</time>
      </trkpt>
      <trkpt lat="45.53119" lon="6.82704">
        <ele>2390.9</ele>
        <time>2021-03-30T13:24:40Z</time>
      </trkpt>
      <trkpt lat="45.5312" lon="6.82705">
        <ele>2390.9</ele>
        <time>2021-03-30T13:24:41Z</time>
      </trkpt>
      <trkpt lat="45.5312" lon="6.82705">
        <ele>2390.9</ele>
        <time>2021-03-30T13:24:42Z</time>
      </trkpt>
      <trkpt lat="45.5312" lon="6.82706">
        <ele>2390.9</ele>
        <time>2021-03-30T13:24:43Z</time>
      </trkpt>
      <trkpt lat="45.53121" lon="6.82706">
        <ele>2391.8</ele>
        <time>2021-03-30T13:24:44Z</time>
      </trkpt>
      <trkpt lat="45.53121" lon="6.82707">
        <ele>2391.8</ele>
        <time>2021-03-30T13:24:45Z</time>
      </trkpt>
      <trkpt lat="45.53122" lon="6.82707">
        <ele>2391.7</ele>
        <time>2021-03-30T13:24:46Z</time>
      </trkpt>
      <trkpt lat="45.53122" lon="6.82707">
        <ele>2391.7</ele>
        <time>2021-03-30T13:24:47Z</time>
      </trkpt>
      <trkpt lat="45.53123" lon="6.82708">
        <ele>2391.7</ele>
        <time>2021-03-30T13:24:48Z</time>
      </trkpt>
      <trkpt lat="45.53123" lon="6.82708">
        <ele>2391.7</ele>
        <time>2021-03-30T13:24:49Z</time>
      </trkpt>
      <trkpt lat="45.53124" lon="6.82709">
        <ele>2391.7</ele>
        <time>2021-03-30T13:24:50Z</time>
      </trkpt>
      <trkpt lat="45.53125" lon="6.82709">
        <ele>2391.7</ele>
        <time>2021-03-30T13:24:51Z</time>
      </trkpt>
      <trkpt lat="45.53126" lon="6.82711">
        <ele>2392.6</ele>
        <time>2021-03-30T13:24:52Z</time>
      </trkpt>
      <trkpt lat="45.53128" lon="6.82712">
        <ele>2392.6</ele>
        <time>2021-03-30T13:24:53Z</time>
      </trkpt>
      <trkpt lat="45.53129" lon="6.82713">
        <ele>2392.6</ele>
        <time>2021-03-30T13:24:54Z</time>
      </trkpt>
      <trkpt lat="45.53131" lon="6.82714">
        <ele>2392.7</ele>
        <time>2021-03-30T13:24:55Z</time>
      </trkpt>
      <trkpt lat="45.53132" lon="6.82714">
        <ele>2392.7</ele>
        <time>2021-03-30T13:24:56Z</time>
      </trkpt>
      <trkpt lat="45.53136" lon="6.82716">
        <ele>2393.7</ele>
        <time>2021-03-30T13:24:57Z</time>
      </trkpt>
      <trkpt lat="45.53137" lon="6.82717">
        <ele>2393.8</ele>
        <time>2021-03-30T13:24:58Z</time>
      </trkpt>
      <trkpt lat="45.5314" lon="6.82718">
        <ele>2393.9</ele>
        <time>2021-03-30T13:24:59Z</time>
      </trkpt>
      <trkpt lat="45.53143" lon="6.82719">
        <ele>2395</ele>
        <time>2021-03-30T13:25:00Z</time>
      </trkpt>
      <trkpt lat="45.53147" lon="6.8272">
        <ele>2395.1</ele>
        <time>2021-03-30T13:25:01Z</time>
      </trkpt>
      <trkpt lat="45.53151" lon="6.8272">
        <ele>2395.2</ele>
        <time>2021-03-30T13:25:02Z</time>
      </trkpt>
      <trkpt lat="45.53155" lon="6.82719">
        <ele>2395.4</ele>
        <time>2021-03-30T13:25:03Z</time>
      </trkpt>
      <trkpt lat="45.53159" lon="6.82718">
        <ele>2394.5</ele>
        <time>2021-03-30T13:25:04Z</time>
      </trkpt>
      <trkpt lat="45.53162" lon="6.82718">
        <ele>2394.6</ele>
        <time>2021-03-30T13:25:05Z</time>
      </trkpt>
      <trkpt lat="45.53165" lon="6.82718">
        <ele>2394.6</ele>
        <time>2021-03-30T13:25:06Z</time>
      </trkpt>
      <trkpt lat="45.53166" lon="6.82718">
        <ele>2394.6</ele>
        <time>2021-03-30T13:25:07Z</time>
      </trkpt>
      <trkpt lat="45.53168" lon="6.82718">
        <ele>2394.6</ele>
        <time>2021-03-30T13:25:08Z</time>
      </trkpt>
      <trkpt lat="45.53169" lon="6.82718">
        <ele>2394.6</ele>
        <time>2021-03-30T13:25:09Z</time>
      </trkpt>
      <trkpt lat="45.5317" lon="6.82717">
        <ele>2394.6</ele>
        <time>2021-03-30T13:25:10Z</time>
      </trkpt>
      <trkpt lat="45.53171" lon="6.82717">
        <ele>2394.6</ele>
        <time>2021-03-30T13:25:11Z</time>
      </trkpt>
      <trkpt lat="45.53171" lon="6.82717">
        <ele>2394.6</ele>
        <time>2021-03-30T13:25:12Z</time>
      </trkpt>
      <trkpt lat="45.53172" lon="6.82717">
        <ele>2394.6</ele>
        <time>2021-03-30T13:25:13Z</time>
      </trkpt>
      <trkpt lat="45.53173" lon="6.82717">
        <ele>2394.6</ele>
        <time>2021-03-30T13:25:14Z</time>
      </trkpt>
      <trkpt lat="45.53174" lon="6.82717">
        <ele>2394.6</ele>
        <time>2021-03-30T13:25:15Z</time>
      </trkpt>
      <trkpt lat="45.53175" lon="6.82717">
        <ele>2394.6</ele>
        <time>2021-03-30T13:25:16Z</time>
      </trkpt>
      <trkpt lat="45.53175" lon="6.82718">
        <ele>2394.6</ele>
        <time>2021-03-30T13:25:17Z</time>
      </trkpt>
      <trkpt lat="45.53176" lon="6.82718">
        <ele>2394.6</ele>
        <time>2021-03-30T13:25:18Z</time>
      </trkpt>
      <trkpt lat="45.53178" lon="6.82718">
        <ele>2394.6</ele>
        <time>2021-03-30T13:25:19Z</time>
      </trkpt>
      <trkpt lat="45.53179" lon="6.82719">
        <ele>2395.3</ele>
        <time>2021-03-30T13:25:20Z</time>
      </trkpt>
      <trkpt lat="45.5318" lon="6.8272">
        <ele>2395.3</ele>
        <time>2021-03-30T13:25:21Z</time>
      </trkpt>
      <trkpt lat="45.53182" lon="6.82719">
        <ele>2395.2</ele>
        <time>2021-03-30T13:25:22Z</time>
      </trkpt>
      <trkpt lat="45.53186" lon="6.82718">
        <ele>2394.4</ele>
        <time>2021-03-30T13:25:23Z</time>
      </trkpt>
      <trkpt lat="45.53187" lon="6.82717">
        <ele>2394.4</ele>
        <time>2021-03-30T13:25:24Z</time>
      </trkpt>
      <trkpt lat="45.53188" lon="6.82716">
        <ele>2394.3</ele>
        <time>2021-03-30T13:25:25Z</time>
      </trkpt>
      <trkpt lat="45.5319" lon="6.82716">
        <ele>2394.3</ele>
        <time>2021-03-30T13:25:26Z</time>
      </trkpt>
      <trkpt lat="45.53193" lon="6.82716">
        <ele>2394.2</ele>
        <time>2021-03-30T13:25:27Z</time>
      </trkpt>
      <trkpt lat="45.53194" lon="6.82716">
        <ele>2394.1</ele>
        <time>2021-03-30T13:25:28Z</time>
      </trkpt>
      <trkpt lat="45.53196" lon="6.82717">
        <ele>2394.1</ele>
        <time>2021-03-30T13:25:29Z</time>
      </trkpt>
      <trkpt lat="45.53198" lon="6.82716">
        <ele>2394</ele>
        <time>2021-03-30T13:25:30Z</time>
      </trkpt>
      <trkpt lat="45.532" lon="6.82715">
        <ele>2394</ele>
        <time>2021-03-30T13:25:31Z</time>
      </trkpt>
      <trkpt lat="45.532" lon="6.82715">
        <ele>2394</ele>
        <time>2021-03-30T13:25:32Z</time>
      </trkpt>
      <trkpt lat="45.53201" lon="6.82715">
        <ele>2394</ele>
        <time>2021-03-30T13:25:33Z</time>
      </trkpt>
      <trkpt lat="45.53202" lon="6.82714">
        <ele>2393.2</ele>
        <time>2021-03-30T13:25:34Z</time>
      </trkpt>
      <trkpt lat="45.53204" lon="6.82714">
        <ele>2393.1</ele>
        <time>2021-03-30T13:25:35Z</time>
      </trkpt>
      <trkpt lat="45.53205" lon="6.82714">
        <ele>2393.1</ele>
        <time>2021-03-30T13:25:36Z</time>
      </trkpt>
      <trkpt lat="45.53206" lon="6.82715">
        <ele>2393.8</ele>
        <time>2021-03-30T13:25:37Z</time>
      </trkpt>
      <trkpt lat="45.53207" lon="6.82715">
        <ele>2393.8</ele>
        <time>2021-03-30T13:25:38Z</time>
      </trkpt>
      <trkpt lat="45.53208" lon="6.82716">
        <ele>2393.8</ele>
        <time>2021-03-30T13:25:39Z</time>
      </trkpt>
      <trkpt lat="45.53209" lon="6.82717">
        <ele>2393.7</ele>
        <time>2021-03-30T13:25:40Z</time>
      </trkpt>
      <trkpt lat="45.5321" lon="6.82718">
        <ele>2393.7</ele>
        <time>2021-03-30T13:25:41Z</time>
      </trkpt>
      <trkpt lat="45.53211" lon="6.82719">
        <ele>2393.7</ele>
        <time>2021-03-30T13:25:42Z</time>
      </trkpt>
      <trkpt lat="45.53212" lon="6.8272">
        <ele>2394.5</ele>
        <time>2021-03-30T13:25:43Z</time>
      </trkpt>
      <trkpt lat="45.53213" lon="6.8272">
        <ele>2394.5</ele>
        <time>2021-03-30T13:25:44Z</time>
      </trkpt>
      <trkpt lat="45.53214" lon="6.82721">
        <ele>2394.5</ele>
        <time>2021-03-30T13:25:45Z</time>
      </trkpt>
      <trkpt lat="45.53215" lon="6.82721">
        <ele>2394.4</ele>
        <time>2021-03-30T13:25:46Z</time>
      </trkpt>
      <trkpt lat="45.53217" lon="6.82722">
        <ele>2394.4</ele>
        <time>2021-03-30T13:25:47Z</time>
      </trkpt>
      <trkpt lat="45.53218" lon="6.82722">
        <ele>2394.4</ele>
        <time>2021-03-30T13:25:48Z</time>
      </trkpt>
      <trkpt lat="45.53219" lon="6.82723">
        <ele>2394.4</ele>
        <time>2021-03-30T13:25:49Z</time>
      </trkpt>
      <trkpt lat="45.5322" lon="6.82723">
        <ele>2394.4</ele>
        <time>2021-03-30T13:25:50Z</time>
      </trkpt>
      <trkpt lat="45.53221" lon="6.82723">
        <ele>2394.5</ele>
        <time>2021-03-30T13:25:51Z</time>
      </trkpt>
      <trkpt lat="45.53222" lon="6.82722">
        <ele>2394.5</ele>
        <time>2021-03-30T13:25:52Z</time>
      </trkpt>
      <trkpt lat="45.53223" lon="6.82722">
        <ele>2394.5</ele>
        <time>2021-03-30T13:25:53Z</time>
      </trkpt>
      <trkpt lat="45.53224" lon="6.82722">
        <ele>2394.5</ele>
        <time>2021-03-30T13:25:54Z</time>
      </trkpt>
      <trkpt lat="45.53225" lon="6.82721">
        <ele>2394.5</ele>
        <time>2021-03-30T13:25:55Z</time>
      </trkpt>
      <trkpt lat="45.53226" lon="6.8272">
        <ele>2394.5</ele>
        <time>2021-03-30T13:25:56Z</time>
      </trkpt>
      <trkpt lat="45.53227" lon="6.82719">
        <ele>2394.5</ele>
        <time>2021-03-30T13:25:57Z</time>
      </trkpt>
      <trkpt lat="45.53228" lon="6.82718">
        <ele>2393.9</ele>
        <time>2021-03-30T13:25:58Z</time>
      </trkpt>
      <trkpt lat="45.53228" lon="6.82718">
        <ele>2393.9</ele>
        <time>2021-03-30T13:25:59Z</time>
      </trkpt>
      <trkpt lat="45.53229" lon="6.82717">
        <ele>2393.9</ele>
        <time>2021-03-30T13:26:00Z</time>
      </trkpt>
      <trkpt lat="45.5323" lon="6.82716">
        <ele>2393.9</ele>
        <time>2021-03-30T13:26:01Z</time>
      </trkpt>
      <trkpt lat="45.5323" lon="6.82715">
        <ele>2393.9</ele>
        <time>2021-03-30T13:26:02Z</time>
      </trkpt>
      <trkpt lat="45.53231" lon="6.82714">
        <ele>2393.3</ele>
        <time>2021-03-30T13:26:03Z</time>
      </trkpt>
      <trkpt lat="45.53232" lon="6.82713">
        <ele>2393.3</ele>
        <time>2021-03-30T13:26:04Z</time>
      </trkpt>
      <trkpt lat="45.53233" lon="6.82711">
        <ele>2393.4</ele>
        <time>2021-03-30T13:26:05Z</time>
      </trkpt>
      <trkpt lat="45.53233" lon="6.8271">
        <ele>2392.8</ele>
        <time>2021-03-30T13:26:06Z</time>
      </trkpt>
      <trkpt lat="45.53234" lon="6.82708">
        <ele>2392.8</ele>
        <time>2021-03-30T13:26:07Z</time>
      </trkpt>
      <trkpt lat="45.53234" lon="6.82708">
        <ele>2392.8</ele>
        <time>2021-03-30T13:26:08Z</time>
      </trkpt>
      <trkpt lat="45.53234" lon="6.82707">
        <ele>2392.8</ele>
        <time>2021-03-30T13:26:09Z</time>
      </trkpt>
      <trkpt lat="45.53235" lon="6.82706">
        <ele>2392.8</ele>
        <time>2021-03-30T13:26:10Z</time>
      </trkpt>
      <trkpt lat="45.53235" lon="6.82705">
        <ele>2392.1</ele>
        <time>2021-03-30T13:26:11Z</time>
      </trkpt>
      <trkpt lat="45.53235" lon="6.82705">
        <ele>2392.1</ele>
        <time>2021-03-30T13:26:12Z</time>
      </trkpt>
      <trkpt lat="45.53236" lon="6.82704">
        <ele>2392.3</ele>
        <time>2021-03-30T13:26:13Z</time>
      </trkpt>
      <trkpt lat="45.53236" lon="6.82704">
        <ele>2392.3</ele>
        <time>2021-03-30T13:26:14Z</time>
      </trkpt>
      <trkpt lat="45.53237" lon="6.82703">
        <ele>2392.3</ele>
        <time>2021-03-30T13:26:15Z</time>
      </trkpt>
      <trkpt lat="45.53237" lon="6.82703">
        <ele>2392.3</ele>
        <time>2021-03-30T13:26:16Z</time>
      </trkpt>
      <trkpt lat="45.53237" lon="6.82702">
        <ele>2392.3</ele>
        <time>2021-03-30T13:26:17Z</time>
      </trkpt>
      <trkpt lat="45.53238" lon="6.82702">
        <ele>2392.3</ele>
        <time>2021-03-30T13:26:18Z</time>
      </trkpt>
      <trkpt lat="45.53239" lon="6.82701">
        <ele>2391.7</ele>
        <time>2021-03-30T13:26:19Z</time>
      </trkpt>
      <trkpt lat="45.5324" lon="6.82701">
        <ele>2391.9</ele>
        <time>2021-03-30T13:26:20Z</time>
      </trkpt>
      <trkpt lat="45.53241" lon="6.827">
        <ele>2391.9</ele>
        <time>2021-03-30T13:26:21Z</time>
      </trkpt>
      <trkpt lat="45.53242" lon="6.827">
        <ele>2392</ele>
        <time>2021-03-30T13:26:22Z</time>
      </trkpt>
      <trkpt lat="45.53243" lon="6.827">
        <ele>2392</ele>
        <time>2021-03-30T13:26:23Z</time>
      </trkpt>
      <trkpt lat="45.53244" lon="6.82699">
        <ele>2392</ele>
        <time>2021-03-30T13:26:24Z</time>
      </trkpt>
      <trkpt lat="45.53246" lon="6.82699">
        <ele>2392.2</ele>
        <time>2021-03-30T13:26:25Z</time>
      </trkpt>
      <trkpt lat="45.53247" lon="6.82699">
        <ele>2392.2</ele>
        <time>2021-03-30T13:26:26Z</time>
      </trkpt>
      <trkpt lat="45.53247" lon="6.82699">
        <ele>2392.2</ele>
        <time>2021-03-30T13:26:27Z</time>
      </trkpt>
      <trkpt lat="45.5325" lon="6.82699">
        <ele>2392.4</ele>
        <time>2021-03-30T13:26:28Z</time>
      </trkpt>
      <trkpt lat="45.5325" lon="6.82699">
        <ele>2392.4</ele>
        <time>2021-03-30T13:26:29Z</time>
      </trkpt>
      <trkpt lat="45.53251" lon="6.82699">
        <ele>2392.6</ele>
        <time>2021-03-30T13:26:30Z</time>
      </trkpt>
      <trkpt lat="45.53253" lon="6.827">
        <ele>2392.6</ele>
        <time>2021-03-30T13:26:31Z</time>
      </trkpt>
      <trkpt lat="45.53254" lon="6.827">
        <ele>2392.9</ele>
        <time>2021-03-30T13:26:32Z</time>
      </trkpt>
      <trkpt lat="45.53255" lon="6.827">
        <ele>2392.9</ele>
        <time>2021-03-30T13:26:33Z</time>
      </trkpt>
      <trkpt lat="45.53256" lon="6.827">
        <ele>2392.9</ele>
        <time>2021-03-30T13:26:34Z</time>
      </trkpt>
      <trkpt lat="45.53258" lon="6.827">
        <ele>2393.1</ele>
        <time>2021-03-30T13:26:35Z</time>
      </trkpt>
      <trkpt lat="45.53259" lon="6.827">
        <ele>2393.1</ele>
        <time>2021-03-30T13:26:36Z</time>
      </trkpt>
      <trkpt lat="45.5326" lon="6.827">
        <ele>2393.1</ele>
        <time>2021-03-30T13:26:37Z</time>
      </trkpt>
      <trkpt lat="45.53261" lon="6.827">
        <ele>2393.3</ele>
        <time>2021-03-30T13:26:38Z</time>
      </trkpt>
      <trkpt lat="45.53262" lon="6.82699">
        <ele>2393.3</ele>
        <time>2021-03-30T13:26:39Z</time>
      </trkpt>
      <trkpt lat="45.53263" lon="6.82699">
        <ele>2393.6</ele>
        <time>2021-03-30T13:26:40Z</time>
      </trkpt>
      <trkpt lat="45.53263" lon="6.82699">
        <ele>2393.6</ele>
        <time>2021-03-30T13:26:41Z</time>
      </trkpt>
      <trkpt lat="45.53264" lon="6.82698">
        <ele>2393.6</ele>
        <time>2021-03-30T13:26:42Z</time>
      </trkpt>
      <trkpt lat="45.53265" lon="6.82698">
        <ele>2393.6</ele>
        <time>2021-03-30T13:26:43Z</time>
      </trkpt>
      <trkpt lat="45.53267" lon="6.82698">
        <ele>2393.8</ele>
        <time>2021-03-30T13:26:44Z</time>
      </trkpt>
      <trkpt lat="45.53268" lon="6.82698">
        <ele>2393.8</ele>
        <time>2021-03-30T13:26:45Z</time>
      </trkpt>
      <trkpt lat="45.53269" lon="6.82698">
        <ele>2393.8</ele>
        <time>2021-03-30T13:26:46Z</time>
      </trkpt>
      <trkpt lat="45.53269" lon="6.82698">
        <ele>2394.1</ele>
        <time>2021-03-30T13:26:47Z</time>
      </trkpt>
      <trkpt lat="45.5327" lon="6.82698">
        <ele>2394.1</ele>
        <time>2021-03-30T13:26:48Z</time>
      </trkpt>
      <trkpt lat="45.5327" lon="6.82698">
        <ele>2394.1</ele>
        <time>2021-03-30T13:26:49Z</time>
      </trkpt>
      <trkpt lat="45.53271" lon="6.82698">
        <ele>2394.1</ele>
        <time>2021-03-30T13:26:50Z</time>
      </trkpt>
      <trkpt lat="45.53272" lon="6.82698">
        <ele>2394.1</ele>
        <time>2021-03-30T13:26:51Z</time>
      </trkpt>
      <trkpt lat="45.53272" lon="6.82697">
        <ele>2394.4</ele>
        <time>2021-03-30T13:26:52Z</time>
      </trkpt>
      <trkpt lat="45.53273" lon="6.82697">
        <ele>2394</ele>
        <time>2021-03-30T13:26:53Z</time>
      </trkpt>
      <trkpt lat="45.53274" lon="6.82697">
        <ele>2394</ele>
        <time>2021-03-30T13:26:54Z</time>
      </trkpt>
      <trkpt lat="45.53275" lon="6.82696">
        <ele>2394</ele>
        <time>2021-03-30T13:26:55Z</time>
      </trkpt>
      <trkpt lat="45.53275" lon="6.82696">
        <ele>2394.3</ele>
        <time>2021-03-30T13:26:56Z</time>
      </trkpt>
      <trkpt lat="45.53276" lon="6.82696">
        <ele>2394.3</ele>
        <time>2021-03-30T13:26:57Z</time>
      </trkpt>
      <trkpt lat="45.53276" lon="6.82695">
        <ele>2394.3</ele>
        <time>2021-03-30T13:26:58Z</time>
      </trkpt>
      <trkpt lat="45.53277" lon="6.82695">
        <ele>2394.3</ele>
        <time>2021-03-30T13:26:59Z</time>
      </trkpt>
      <trkpt lat="45.53277" lon="6.82695">
        <ele>2394.3</ele>
        <time>2021-03-30T13:27:00Z</time>
      </trkpt>
      <trkpt lat="45.53278" lon="6.82695">
        <ele>2394.7</ele>
        <time>2021-03-30T13:27:01Z</time>
      </trkpt>
      <trkpt lat="45.53279" lon="6.82694">
        <ele>2394.7</ele>
        <time>2021-03-30T13:27:02Z</time>
      </trkpt>
      <trkpt lat="45.53279" lon="6.82694">
        <ele>2394.7</ele>
        <time>2021-03-30T13:27:03Z</time>
      </trkpt>
      <trkpt lat="45.5328" lon="6.82694">
        <ele>2394.7</ele>
        <time>2021-03-30T13:27:04Z</time>
      </trkpt>
      <trkpt lat="45.5328" lon="6.82694">
        <ele>2394.7</ele>
        <time>2021-03-30T13:27:05Z</time>
      </trkpt>
      <trkpt lat="45.53281" lon="6.82694">
        <ele>2395</ele>
        <time>2021-03-30T13:27:06Z</time>
      </trkpt>
      <trkpt lat="45.53282" lon="6.82693">
        <ele>2395</ele>
        <time>2021-03-30T13:27:07Z</time>
      </trkpt>
      <trkpt lat="45.53284" lon="6.82693">
        <ele>2395.1</ele>
        <time>2021-03-30T13:27:08Z</time>
      </trkpt>
      <trkpt lat="45.53286" lon="6.82692">
        <ele>2395.1</ele>
        <time>2021-03-30T13:27:09Z</time>
      </trkpt>
      <trkpt lat="45.53286" lon="6.82691">
        <ele>2395.1</ele>
        <time>2021-03-30T13:27:10Z</time>
      </trkpt>
      <trkpt lat="45.53287" lon="6.82691">
        <ele>2395.1</ele>
        <time>2021-03-30T13:27:11Z</time>
      </trkpt>
      <trkpt lat="45.53288" lon="6.8269">
        <ele>2395.4</ele>
        <time>2021-03-30T13:27:12Z</time>
      </trkpt>
      <trkpt lat="45.53289" lon="6.8269">
        <ele>2395.4</ele>
        <time>2021-03-30T13:27:13Z</time>
      </trkpt>
      <trkpt lat="45.53289" lon="6.8269">
        <ele>2395.4</ele>
        <time>2021-03-30T13:27:14Z</time>
      </trkpt>
      <trkpt lat="45.5329" lon="6.8269">
        <ele>2395.6</ele>
        <time>2021-03-30T13:27:15Z</time>
      </trkpt>
      <trkpt lat="45.53292" lon="6.82689">
        <ele>2395.6</ele>
        <time>2021-03-30T13:27:16Z</time>
      </trkpt>
      <trkpt lat="45.53293" lon="6.82689">
        <ele>2395.9</ele>
        <time>2021-03-30T13:27:17Z</time>
      </trkpt>
      <trkpt lat="45.53294" lon="6.82688">
        <ele>2395.7</ele>
        <time>2021-03-30T13:27:18Z</time>
      </trkpt>
      <trkpt lat="45.53296" lon="6.82688">
        <ele>2395.7</ele>
        <time>2021-03-30T13:27:19Z</time>
      </trkpt>
      <trkpt lat="45.53297" lon="6.82687">
        <ele>2395.9</ele>
        <time>2021-03-30T13:27:20Z</time>
      </trkpt>
      <trkpt lat="45.53298" lon="6.82687">
        <ele>2395.9</ele>
        <time>2021-03-30T13:27:21Z</time>
      </trkpt>
      <trkpt lat="45.53299" lon="6.82687">
        <ele>2396.2</ele>
        <time>2021-03-30T13:27:22Z</time>
      </trkpt>
      <trkpt lat="45.533" lon="6.82686">
        <ele>2396.2</ele>
        <time>2021-03-30T13:27:23Z</time>
      </trkpt>
      <trkpt lat="45.53301" lon="6.82686">
        <ele>2396.2</ele>
        <time>2021-03-30T13:27:24Z</time>
      </trkpt>
      <trkpt lat="45.53301" lon="6.82686">
        <ele>2396.2</ele>
        <time>2021-03-30T13:27:25Z</time>
      </trkpt>
      <trkpt lat="45.53301" lon="6.82685">
        <ele>2396.2</ele>
        <time>2021-03-30T13:27:26Z</time>
      </trkpt>
      <trkpt lat="45.53302" lon="6.82685">
        <ele>2396.5</ele>
        <time>2021-03-30T13:27:27Z</time>
      </trkpt>
      <trkpt lat="45.53303" lon="6.82685">
        <ele>2396.5</ele>
        <time>2021-03-30T13:27:28Z</time>
      </trkpt>
      <trkpt lat="45.53304" lon="6.82685">
        <ele>2396.5</ele>
        <time>2021-03-30T13:27:29Z</time>
      </trkpt>
      <trkpt lat="45.53304" lon="6.82685">
        <ele>2396.5</ele>
        <time>2021-03-30T13:27:30Z</time>
      </trkpt>
      <trkpt lat="45.53304" lon="6.82684">
        <ele>2396.2</ele>
        <time>2021-03-30T13:27:31Z</time>
      </trkpt>
      <trkpt lat="45.53305" lon="6.82684">
        <ele>2396.5</ele>
        <time>2021-03-30T13:27:32Z</time>
      </trkpt>
      <trkpt lat="45.53306" lon="6.82684">
        <ele>2396.5</ele>
        <time>2021-03-30T13:27:33Z</time>
      </trkpt>
      <trkpt lat="45.53307" lon="6.82684">
        <ele>2396.5</ele>
        <time>2021-03-30T13:27:34Z</time>
      </trkpt>
      <trkpt lat="45.53307" lon="6.82684">
        <ele>2396.5</ele>
        <time>2021-03-30T13:27:35Z</time>
      </trkpt>
      <trkpt lat="45.53308" lon="6.82683">
        <ele>2396.5</ele>
        <time>2021-03-30T13:27:36Z</time>
      </trkpt>
      <trkpt lat="45.53308" lon="6.82683">
        <ele>2396.8</ele>
        <time>2021-03-30T13:27:37Z</time>
      </trkpt>
      <trkpt lat="45.53308" lon="6.82683">
        <ele>2396.8</ele>
        <time>2021-03-30T13:27:38Z</time>
      </trkpt>
      <trkpt lat="45.53309" lon="6.82682">
        <ele>2396.8</ele>
        <time>2021-03-30T13:27:39Z</time>
      </trkpt>
      <trkpt lat="45.53309" lon="6.82682">
        <ele>2396.8</ele>
        <time>2021-03-30T13:27:40Z</time>
      </trkpt>
      <trkpt lat="45.5331" lon="6.82682">
        <ele>2396.8</ele>
        <time>2021-03-30T13:27:41Z</time>
      </trkpt>
      <trkpt lat="45.5331" lon="6.82681">
        <ele>2396.8</ele>
        <time>2021-03-30T13:27:42Z</time>
      </trkpt>
      <trkpt lat="45.53311" lon="6.82681">
        <ele>2397.1</ele>
        <time>2021-03-30T13:27:43Z</time>
      </trkpt>
      <trkpt lat="45.53312" lon="6.8268">
        <ele>2397.1</ele>
        <time>2021-03-30T13:27:44Z</time>
      </trkpt>
      <trkpt lat="45.53313" lon="6.8268">
        <ele>2396.9</ele>
        <time>2021-03-30T13:27:45Z</time>
      </trkpt>
      <trkpt lat="45.53314" lon="6.8268">
        <ele>2397.1</ele>
        <time>2021-03-30T13:27:46Z</time>
      </trkpt>
      <trkpt lat="45.53315" lon="6.8268">
        <ele>2397.1</ele>
        <time>2021-03-30T13:27:47Z</time>
      </trkpt>
      <trkpt lat="45.53316" lon="6.82679">
        <ele>2397.1</ele>
        <time>2021-03-30T13:27:48Z</time>
      </trkpt>
      <trkpt lat="45.53317" lon="6.82679">
        <ele>2397.4</ele>
        <time>2021-03-30T13:27:49Z</time>
      </trkpt>
      <trkpt lat="45.53318" lon="6.82679">
        <ele>2397.4</ele>
        <time>2021-03-30T13:27:50Z</time>
      </trkpt>
      <trkpt lat="45.53319" lon="6.82679">
        <ele>2397.4</ele>
        <time>2021-03-30T13:27:51Z</time>
      </trkpt>
      <trkpt lat="45.5332" lon="6.82679">
        <ele>2397.7</ele>
        <time>2021-03-30T13:27:52Z</time>
      </trkpt>
      <trkpt lat="45.53321" lon="6.82678">
        <ele>2397.7</ele>
        <time>2021-03-30T13:27:53Z</time>
      </trkpt>
      <trkpt lat="45.53322" lon="6.82678">
        <ele>2397.7</ele>
        <time>2021-03-30T13:27:54Z</time>
      </trkpt>
      <trkpt lat="45.53323" lon="6.82678">
        <ele>2398</ele>
        <time>2021-03-30T13:27:55Z</time>
      </trkpt>
      <trkpt lat="45.53324" lon="6.82678">
        <ele>2398</ele>
        <time>2021-03-30T13:27:56Z</time>
      </trkpt>
      <trkpt lat="45.53325" lon="6.82679">
        <ele>2398</ele>
        <time>2021-03-30T13:27:57Z</time>
      </trkpt>
      <trkpt lat="45.53326" lon="6.82679">
        <ele>2398</ele>
        <time>2021-03-30T13:27:58Z</time>
      </trkpt>
      <trkpt lat="45.53327" lon="6.82679">
        <ele>2398.4</ele>
        <time>2021-03-30T13:27:59Z</time>
      </trkpt>
      <trkpt lat="45.53328" lon="6.82679">
        <ele>2398.4</ele>
        <time>2021-03-30T13:28:00Z</time>
      </trkpt>
      <trkpt lat="45.53329" lon="6.82679">
        <ele>2398.7</ele>
        <time>2021-03-30T13:28:01Z</time>
      </trkpt>
      <trkpt lat="45.5333" lon="6.82679">
        <ele>2398.7</ele>
        <time>2021-03-30T13:28:02Z</time>
      </trkpt>
      <trkpt lat="45.53331" lon="6.82678">
        <ele>2398.7</ele>
        <time>2021-03-30T13:28:03Z</time>
      </trkpt>
      <trkpt lat="45.53332" lon="6.82678">
        <ele>2398.7</ele>
        <time>2021-03-30T13:28:04Z</time>
      </trkpt>
      <trkpt lat="45.53333" lon="6.82678">
        <ele>2399.1</ele>
        <time>2021-03-30T13:28:05Z</time>
      </trkpt>
      <trkpt lat="45.53334" lon="6.82677">
        <ele>2399.1</ele>
        <time>2021-03-30T13:28:06Z</time>
      </trkpt>
      <trkpt lat="45.53334" lon="6.82677">
        <ele>2399.1</ele>
        <time>2021-03-30T13:28:07Z</time>
      </trkpt>
      <trkpt lat="45.53335" lon="6.82677">
        <ele>2399.1</ele>
        <time>2021-03-30T13:28:08Z</time>
      </trkpt>
      <trkpt lat="45.53336" lon="6.82676">
        <ele>2399.4</ele>
        <time>2021-03-30T13:28:09Z</time>
      </trkpt>
      <trkpt lat="45.53336" lon="6.82675">
        <ele>2399.2</ele>
        <time>2021-03-30T13:28:10Z</time>
      </trkpt>
      <trkpt lat="45.53336" lon="6.82675">
        <ele>2399.2</ele>
        <time>2021-03-30T13:28:11Z</time>
      </trkpt>
      <trkpt lat="45.53337" lon="6.82674">
        <ele>2399.2</ele>
        <time>2021-03-30T13:28:12Z</time>
      </trkpt>
      <trkpt lat="45.53338" lon="6.82674">
        <ele>2399.2</ele>
        <time>2021-03-30T13:28:13Z</time>
      </trkpt>
      <trkpt lat="45.53339" lon="6.82674">
        <ele>2399.5</ele>
        <time>2021-03-30T13:28:14Z</time>
      </trkpt>
      <trkpt lat="45.53339" lon="6.82674">
        <ele>2399.5</ele>
        <time>2021-03-30T13:28:15Z</time>
      </trkpt>
      <trkpt lat="45.5334" lon="6.82674">
        <ele>2399.5</ele>
        <time>2021-03-30T13:28:16Z</time>
      </trkpt>
      <trkpt lat="45.5334" lon="6.82674">
        <ele>2399.5</ele>
        <time>2021-03-30T13:28:17Z</time>
      </trkpt>
      <trkpt lat="45.53341" lon="6.82674">
        <ele>2399.7</ele>
        <time>2021-03-30T13:28:18Z</time>
      </trkpt>
      <trkpt lat="45.53342" lon="6.82674">
        <ele>2399.7</ele>
        <time>2021-03-30T13:28:19Z</time>
      </trkpt>
      <trkpt lat="45.53343" lon="6.82673">
        <ele>2399.7</ele>
        <time>2021-03-30T13:28:20Z</time>
      </trkpt>
      <trkpt lat="45.53345" lon="6.82673">
        <ele>2399.9</ele>
        <time>2021-03-30T13:28:21Z</time>
      </trkpt>
      <trkpt lat="45.53346" lon="6.82672">
        <ele>2399.9</ele>
        <time>2021-03-30T13:28:22Z</time>
      </trkpt>
      <trkpt lat="45.53348" lon="6.82672">
        <ele>2400.1</ele>
        <time>2021-03-30T13:28:23Z</time>
      </trkpt>
      <trkpt lat="45.53349" lon="6.82672">
        <ele>2400.1</ele>
        <time>2021-03-30T13:28:24Z</time>
      </trkpt>
      <trkpt lat="45.53349" lon="6.82672">
        <ele>2400.1</ele>
        <time>2021-03-30T13:28:25Z</time>
      </trkpt>
      <trkpt lat="45.53352" lon="6.82672">
        <ele>2400.3</ele>
        <time>2021-03-30T13:28:26Z</time>
      </trkpt>
      <trkpt lat="45.53352" lon="6.82672">
        <ele>2400.3</ele>
        <time>2021-03-30T13:28:27Z</time>
      </trkpt>
      <trkpt lat="45.53353" lon="6.82672">
        <ele>2400.4</ele>
        <time>2021-03-30T13:28:28Z</time>
      </trkpt>
      <trkpt lat="45.53355" lon="6.82673">
        <ele>2400.4</ele>
        <time>2021-03-30T13:28:29Z</time>
      </trkpt>
      <trkpt lat="45.53356" lon="6.82673">
        <ele>2400.5</ele>
        <time>2021-03-30T13:28:30Z</time>
      </trkpt>
      <trkpt lat="45.53357" lon="6.82673">
        <ele>2400.5</ele>
        <time>2021-03-30T13:28:31Z</time>
      </trkpt>
      <trkpt lat="45.53358" lon="6.82672">
        <ele>2400.5</ele>
        <time>2021-03-30T13:28:32Z</time>
      </trkpt>
      <trkpt lat="45.53359" lon="6.82672">
        <ele>2400.6</ele>
        <time>2021-03-30T13:28:33Z</time>
      </trkpt>
      <trkpt lat="45.5336" lon="6.82672">
        <ele>2400.6</ele>
        <time>2021-03-30T13:28:34Z</time>
      </trkpt>
      <trkpt lat="45.53361" lon="6.82672">
        <ele>2400.6</ele>
        <time>2021-03-30T13:28:35Z</time>
      </trkpt>
      <trkpt lat="45.53362" lon="6.82672">
        <ele>2400.6</ele>
        <time>2021-03-30T13:28:36Z</time>
      </trkpt>
      <trkpt lat="45.53362" lon="6.82672">
        <ele>2400.6</ele>
        <time>2021-03-30T13:28:37Z</time>
      </trkpt>
      <trkpt lat="45.53363" lon="6.82672">
        <ele>2400.4</ele>
        <time>2021-03-30T13:28:38Z</time>
      </trkpt>
      <trkpt lat="45.53363" lon="6.82671">
        <ele>2400.4</ele>
        <time>2021-03-30T13:28:39Z</time>
      </trkpt>
      <trkpt lat="45.53364" lon="6.82671">
        <ele>2400.4</ele>
        <time>2021-03-30T13:28:40Z</time>
      </trkpt>
      <trkpt lat="45.53364" lon="6.82671">
        <ele>2400.4</ele>
        <time>2021-03-30T13:28:41Z</time>
      </trkpt>
      <trkpt lat="45.53365" lon="6.82671">
        <ele>2400.4</ele>
        <time>2021-03-30T13:28:42Z</time>
      </trkpt>
      <trkpt lat="45.53366" lon="6.8267">
        <ele>2400.4</ele>
        <time>2021-03-30T13:28:43Z</time>
      </trkpt>
      <trkpt lat="45.53368" lon="6.8267">
        <ele>2400.4</ele>
        <time>2021-03-30T13:28:44Z</time>
      </trkpt>
      <trkpt lat="45.53369" lon="6.82669">
        <ele>2400.4</ele>
        <time>2021-03-30T13:28:45Z</time>
      </trkpt>
      <trkpt lat="45.5337" lon="6.82669">
        <ele>2400.4</ele>
        <time>2021-03-30T13:28:46Z</time>
      </trkpt>
      <trkpt lat="45.53371" lon="6.82669">
        <ele>2400.5</ele>
        <time>2021-03-30T13:28:47Z</time>
      </trkpt>
      <trkpt lat="45.53373" lon="6.82669">
        <ele>2400.5</ele>
        <time>2021-03-30T13:28:48Z</time>
      </trkpt>
      <trkpt lat="45.53376" lon="6.8267">
        <ele>2400.4</ele>
        <time>2021-03-30T13:28:49Z</time>
      </trkpt>
      <trkpt lat="45.53377" lon="6.8267">
        <ele>2400.4</ele>
        <time>2021-03-30T13:28:50Z</time>
      </trkpt>
      <trkpt lat="45.53379" lon="6.8267">
        <ele>2400.4</ele>
        <time>2021-03-30T13:28:51Z</time>
      </trkpt>
      <trkpt lat="45.5338" lon="6.8267">
        <ele>2400.4</ele>
        <time>2021-03-30T13:28:52Z</time>
      </trkpt>
      <trkpt lat="45.53383" lon="6.8267">
        <ele>2400.4</ele>
        <time>2021-03-30T13:28:53Z</time>
      </trkpt>
      <trkpt lat="45.53384" lon="6.8267">
        <ele>2400.4</ele>
        <time>2021-03-30T13:28:54Z</time>
      </trkpt>
      <trkpt lat="45.53385" lon="6.8267">
        <ele>2400.4</ele>
        <time>2021-03-30T13:28:55Z</time>
      </trkpt>
      <trkpt lat="45.53386" lon="6.8267">
        <ele>2400.3</ele>
        <time>2021-03-30T13:28:56Z</time>
      </trkpt>
      <trkpt lat="45.53388" lon="6.8267">
        <ele>2400.3</ele>
        <time>2021-03-30T13:28:57Z</time>
      </trkpt>
      <trkpt lat="45.5339" lon="6.8267">
        <ele>2400.3</ele>
        <time>2021-03-30T13:28:58Z</time>
      </trkpt>
      <trkpt lat="45.53391" lon="6.8267">
        <ele>2400.3</ele>
        <time>2021-03-30T13:28:59Z</time>
      </trkpt>
      <trkpt lat="45.53392" lon="6.8267">
        <ele>2400.3</ele>
        <time>2021-03-30T13:29:00Z</time>
      </trkpt>
      <trkpt lat="45.53393" lon="6.8267">
        <ele>2400.3</ele>
        <time>2021-03-30T13:29:01Z</time>
      </trkpt>
      <trkpt lat="45.53393" lon="6.8267">
        <ele>2400.3</ele>
        <time>2021-03-30T13:29:02Z</time>
      </trkpt>
      <trkpt lat="45.53394" lon="6.82671">
        <ele>2400.3</ele>
        <time>2021-03-30T13:29:03Z</time>
      </trkpt>
      <trkpt lat="45.53395" lon="6.82672">
        <ele>2400.3</ele>
        <time>2021-03-30T13:29:04Z</time>
      </trkpt>
      <trkpt lat="45.53395" lon="6.82672">
        <ele>2400.4</ele>
        <time>2021-03-30T13:29:05Z</time>
      </trkpt>
      <trkpt lat="45.53396" lon="6.82672">
        <ele>2400.4</ele>
        <time>2021-03-30T13:29:06Z</time>
      </trkpt>
      <trkpt lat="45.53397" lon="6.82673">
        <ele>2400.4</ele>
        <time>2021-03-30T13:29:07Z</time>
      </trkpt>
      <trkpt lat="45.53397" lon="6.82672">
        <ele>2400.4</ele>
        <time>2021-03-30T13:29:08Z</time>
      </trkpt>
      <trkpt lat="45.53399" lon="6.82671">
        <ele>2400.1</ele>
        <time>2021-03-30T13:29:09Z</time>
      </trkpt>
      <trkpt lat="45.534" lon="6.8267">
        <ele>2400.1</ele>
        <time>2021-03-30T13:29:10Z</time>
      </trkpt>
      <trkpt lat="45.53401" lon="6.82669">
        <ele>2400.1</ele>
        <time>2021-03-30T13:29:11Z</time>
      </trkpt>
      <trkpt lat="45.53402" lon="6.82669">
        <ele>2400.1</ele>
        <time>2021-03-30T13:29:12Z</time>
      </trkpt>
      <trkpt lat="45.53403" lon="6.82669">
        <ele>2400.1</ele>
        <time>2021-03-30T13:29:13Z</time>
      </trkpt>
      <trkpt lat="45.53404" lon="6.82669">
        <ele>2400.1</ele>
        <time>2021-03-30T13:29:14Z</time>
      </trkpt>
      <trkpt lat="45.53404" lon="6.8267">
        <ele>2400</ele>
        <time>2021-03-30T13:29:15Z</time>
      </trkpt>
      <trkpt lat="45.53405" lon="6.8267">
        <ele>2400</ele>
        <time>2021-03-30T13:29:16Z</time>
      </trkpt>
      <trkpt lat="45.53406" lon="6.8267">
        <ele>2400</ele>
        <time>2021-03-30T13:29:17Z</time>
      </trkpt>
      <trkpt lat="45.53407" lon="6.8267">
        <ele>2400</ele>
        <time>2021-03-30T13:29:18Z</time>
      </trkpt>
      <trkpt lat="45.53408" lon="6.82671">
        <ele>2400</ele>
        <time>2021-03-30T13:29:19Z</time>
      </trkpt>
      <trkpt lat="45.53409" lon="6.8267">
        <ele>2400</ele>
        <time>2021-03-30T13:29:20Z</time>
      </trkpt>
      <trkpt lat="45.5341" lon="6.8267">
        <ele>2400</ele>
        <time>2021-03-30T13:29:21Z</time>
      </trkpt>
      <trkpt lat="45.53411" lon="6.82671">
        <ele>2399.9</ele>
        <time>2021-03-30T13:29:22Z</time>
      </trkpt>
      <trkpt lat="45.53412" lon="6.82671">
        <ele>2399.9</ele>
        <time>2021-03-30T13:29:23Z</time>
      </trkpt>
      <trkpt lat="45.53413" lon="6.82672">
        <ele>2400.1</ele>
        <time>2021-03-30T13:29:24Z</time>
      </trkpt>
      <trkpt lat="45.53414" lon="6.82673">
        <ele>2400.1</ele>
        <time>2021-03-30T13:29:25Z</time>
      </trkpt>
      <trkpt lat="45.53415" lon="6.82673">
        <ele>2400.1</ele>
        <time>2021-03-30T13:29:26Z</time>
      </trkpt>
      <trkpt lat="45.53416" lon="6.82673">
        <ele>2400.1</ele>
        <time>2021-03-30T13:29:27Z</time>
      </trkpt>
      <trkpt lat="45.53416" lon="6.82673">
        <ele>2400</ele>
        <time>2021-03-30T13:29:28Z</time>
      </trkpt>
      <trkpt lat="45.53417" lon="6.82672">
        <ele>2400</ele>
        <time>2021-03-30T13:29:29Z</time>
      </trkpt>
      <trkpt lat="45.53417" lon="6.82672">
        <ele>2400</ele>
        <time>2021-03-30T13:29:30Z</time>
      </trkpt>
      <trkpt lat="45.53418" lon="6.82671">
        <ele>2399.7</ele>
        <time>2021-03-30T13:29:31Z</time>
      </trkpt>
      <trkpt lat="45.53419" lon="6.82671">
        <ele>2399.7</ele>
        <time>2021-03-30T13:29:32Z</time>
      </trkpt>
      <trkpt lat="45.5342" lon="6.82671">
        <ele>2399.6</ele>
        <time>2021-03-30T13:29:33Z</time>
      </trkpt>
      <trkpt lat="45.53421" lon="6.82671">
        <ele>2399.6</ele>
        <time>2021-03-30T13:29:34Z</time>
      </trkpt>
      <trkpt lat="45.53421" lon="6.82671">
        <ele>2399.6</ele>
        <time>2021-03-30T13:29:35Z</time>
      </trkpt>
      <trkpt lat="45.53422" lon="6.82671">
        <ele>2399.5</ele>
        <time>2021-03-30T13:29:36Z</time>
      </trkpt>
      <trkpt lat="45.53423" lon="6.8267">
        <ele>2399.5</ele>
        <time>2021-03-30T13:29:37Z</time>
      </trkpt>
      <trkpt lat="45.53424" lon="6.8267">
        <ele>2399.5</ele>
        <time>2021-03-30T13:29:38Z</time>
      </trkpt>
      <trkpt lat="45.53425" lon="6.8267">
        <ele>2399.5</ele>
        <time>2021-03-30T13:29:39Z</time>
      </trkpt>
      <trkpt lat="45.53426" lon="6.82671">
        <ele>2399.4</ele>
        <time>2021-03-30T13:29:40Z</time>
      </trkpt>
      <trkpt lat="45.53427" lon="6.82671">
        <ele>2399.4</ele>
        <time>2021-03-30T13:29:41Z</time>
      </trkpt>
      <trkpt lat="45.53429" lon="6.82672">
        <ele>2399.5</ele>
        <time>2021-03-30T13:29:42Z</time>
      </trkpt>
      <trkpt lat="45.5343" lon="6.82672">
        <ele>2399.5</ele>
        <time>2021-03-30T13:29:43Z</time>
      </trkpt>
      <trkpt lat="45.53431" lon="6.82673">
        <ele>2399.4</ele>
        <time>2021-03-30T13:29:44Z</time>
      </trkpt>
      <trkpt lat="45.53432" lon="6.82673">
        <ele>2399.4</ele>
        <time>2021-03-30T13:29:45Z</time>
      </trkpt>
      <trkpt lat="45.53433" lon="6.82673">
        <ele>2399.4</ele>
        <time>2021-03-30T13:29:46Z</time>
      </trkpt>
      <trkpt lat="45.53434" lon="6.82673">
        <ele>2399.4</ele>
        <time>2021-03-30T13:29:47Z</time>
      </trkpt>
      <trkpt lat="45.53435" lon="6.82673">
        <ele>2399.2</ele>
        <time>2021-03-30T13:29:48Z</time>
      </trkpt>
      <trkpt lat="45.53436" lon="6.82673">
        <ele>2399.2</ele>
        <time>2021-03-30T13:29:49Z</time>
      </trkpt>
      <trkpt lat="45.53437" lon="6.82673">
        <ele>2399.2</ele>
        <time>2021-03-30T13:29:50Z</time>
      </trkpt>
      <trkpt lat="45.53437" lon="6.82673">
        <ele>2399.2</ele>
        <time>2021-03-30T13:29:51Z</time>
      </trkpt>
      <trkpt lat="45.53438" lon="6.82673">
        <ele>2399</ele>
        <time>2021-03-30T13:29:52Z</time>
      </trkpt>
      <trkpt lat="45.53439" lon="6.82673">
        <ele>2399</ele>
        <time>2021-03-30T13:29:53Z</time>
      </trkpt>
      <trkpt lat="45.5344" lon="6.82673">
        <ele>2398.9</ele>
        <time>2021-03-30T13:29:54Z</time>
      </trkpt>
      <trkpt lat="45.53441" lon="6.82673">
        <ele>2398.7</ele>
        <time>2021-03-30T13:29:55Z</time>
      </trkpt>
      <trkpt lat="45.53442" lon="6.82673">
        <ele>2398.6</ele>
        <time>2021-03-30T13:29:56Z</time>
      </trkpt>
      <trkpt lat="45.53443" lon="6.82672">
        <ele>2398.6</ele>
        <time>2021-03-30T13:29:57Z</time>
      </trkpt>
      <trkpt lat="45.53444" lon="6.82672">
        <ele>2398.4</ele>
        <time>2021-03-30T13:29:58Z</time>
      </trkpt>
      <trkpt lat="45.53445" lon="6.82671">
        <ele>2398</ele>
        <time>2021-03-30T13:29:59Z</time>
      </trkpt>
      <trkpt lat="45.53446" lon="6.82671">
        <ele>2397.8</ele>
        <time>2021-03-30T13:30:00Z</time>
      </trkpt>
      <trkpt lat="45.53448" lon="6.82671">
        <ele>2397.7</ele>
        <time>2021-03-30T13:30:01Z</time>
      </trkpt>
      <trkpt lat="45.53449" lon="6.82671">
        <ele>2397.6</ele>
        <time>2021-03-30T13:30:02Z</time>
      </trkpt>
      <trkpt lat="45.5345" lon="6.82672">
        <ele>2397.8</ele>
        <time>2021-03-30T13:30:03Z</time>
      </trkpt>
      <trkpt lat="45.53451" lon="6.82672">
        <ele>2397.8</ele>
        <time>2021-03-30T13:30:04Z</time>
      </trkpt>
      <trkpt lat="45.53453" lon="6.82673">
        <ele>2397.6</ele>
        <time>2021-03-30T13:30:05Z</time>
      </trkpt>
      <trkpt lat="45.53454" lon="6.82672">
        <ele>2397.5</ele>
        <time>2021-03-30T13:30:06Z</time>
      </trkpt>
      <trkpt lat="45.53455" lon="6.82672">
        <ele>2397.2</ele>
        <time>2021-03-30T13:30:07Z</time>
      </trkpt>
      <trkpt lat="45.53456" lon="6.82671">
        <ele>2397</ele>
        <time>2021-03-30T13:30:08Z</time>
      </trkpt>
      <trkpt lat="45.53457" lon="6.82671">
        <ele>2397</ele>
        <time>2021-03-30T13:30:09Z</time>
      </trkpt>
      <trkpt lat="45.53458" lon="6.8267">
        <ele>2396.9</ele>
        <time>2021-03-30T13:30:10Z</time>
      </trkpt>
      <trkpt lat="45.53458" lon="6.8267">
        <ele>2396.8</ele>
        <time>2021-03-30T13:30:11Z</time>
      </trkpt>
      <trkpt lat="45.53459" lon="6.8267">
        <ele>2396.8</ele>
        <time>2021-03-30T13:30:12Z</time>
      </trkpt>
      <trkpt lat="45.5346" lon="6.82671">
        <ele>2396.7</ele>
        <time>2021-03-30T13:30:13Z</time>
      </trkpt>
      <trkpt lat="45.53461" lon="6.82671">
        <ele>2396.7</ele>
        <time>2021-03-30T13:30:14Z</time>
      </trkpt>
      <trkpt lat="45.53461" lon="6.82672">
        <ele>2396.5</ele>
        <time>2021-03-30T13:30:15Z</time>
      </trkpt>
      <trkpt lat="45.53462" lon="6.82671">
        <ele>2396.5</ele>
        <time>2021-03-30T13:30:16Z</time>
      </trkpt>
      <trkpt lat="45.53463" lon="6.82671">
        <ele>2396.4</ele>
        <time>2021-03-30T13:30:17Z</time>
      </trkpt>
      <trkpt lat="45.53464" lon="6.82671">
        <ele>2396.3</ele>
        <time>2021-03-30T13:30:18Z</time>
      </trkpt>
      <trkpt lat="45.53465" lon="6.82672">
        <ele>2396.7</ele>
        <time>2021-03-30T13:30:19Z</time>
      </trkpt>
      <trkpt lat="45.53466" lon="6.82672">
        <ele>2396.6</ele>
        <time>2021-03-30T13:30:20Z</time>
      </trkpt>
      <trkpt lat="45.53467" lon="6.82673">
        <ele>2396.6</ele>
        <time>2021-03-30T13:30:21Z</time>
      </trkpt>
      <trkpt lat="45.53468" lon="6.82673">
        <ele>2396.5</ele>
        <time>2021-03-30T13:30:22Z</time>
      </trkpt>
      <trkpt lat="45.53469" lon="6.82674">
        <ele>2396.4</ele>
        <time>2021-03-30T13:30:23Z</time>
      </trkpt>
      <trkpt lat="45.5347" lon="6.82674">
        <ele>2396.4</ele>
        <time>2021-03-30T13:30:24Z</time>
      </trkpt>
      <trkpt lat="45.53471" lon="6.82675">
        <ele>2396.3</ele>
        <time>2021-03-30T13:30:25Z</time>
      </trkpt>
      <trkpt lat="45.53472" lon="6.82676">
        <ele>2396.6</ele>
        <time>2021-03-30T13:30:26Z</time>
      </trkpt>
      <trkpt lat="45.53473" lon="6.82677">
        <ele>2396.5</ele>
        <time>2021-03-30T13:30:27Z</time>
      </trkpt>
      <trkpt lat="45.53474" lon="6.82678">
        <ele>2396.5</ele>
        <time>2021-03-30T13:30:28Z</time>
      </trkpt>
      <trkpt lat="45.53475" lon="6.82678">
        <ele>2396.4</ele>
        <time>2021-03-30T13:30:29Z</time>
      </trkpt>
      <trkpt lat="45.53476" lon="6.82678">
        <ele>2396.3</ele>
        <time>2021-03-30T13:30:30Z</time>
      </trkpt>
      <trkpt lat="45.53478" lon="6.82678">
        <ele>2396.3</ele>
        <time>2021-03-30T13:30:31Z</time>
      </trkpt>
      <trkpt lat="45.53479" lon="6.82679">
        <ele>2396.2</ele>
        <time>2021-03-30T13:30:32Z</time>
      </trkpt>
      <trkpt lat="45.53481" lon="6.8268">
        <ele>2396.2</ele>
        <time>2021-03-30T13:30:33Z</time>
      </trkpt>
      <trkpt lat="45.53482" lon="6.82681">
        <ele>2396.5</ele>
        <time>2021-03-30T13:30:34Z</time>
      </trkpt>
      <trkpt lat="45.53483" lon="6.82682">
        <ele>2396.4</ele>
        <time>2021-03-30T13:30:35Z</time>
      </trkpt>
      <trkpt lat="45.53485" lon="6.82683">
        <ele>2396.3</ele>
        <time>2021-03-30T13:30:36Z</time>
      </trkpt>
      <trkpt lat="45.53486" lon="6.82684">
        <ele>2396.2</ele>
        <time>2021-03-30T13:30:37Z</time>
      </trkpt>
      <trkpt lat="45.53487" lon="6.82685">
        <ele>2396.5</ele>
        <time>2021-03-30T13:30:38Z</time>
      </trkpt>
      <trkpt lat="45.53488" lon="6.82686">
        <ele>2396.5</ele>
        <time>2021-03-30T13:30:39Z</time>
      </trkpt>
      <trkpt lat="45.53489" lon="6.82687">
        <ele>2396.4</ele>
        <time>2021-03-30T13:30:40Z</time>
      </trkpt>
      <trkpt lat="45.53491" lon="6.82689">
        <ele>2396.4</ele>
        <time>2021-03-30T13:30:41Z</time>
      </trkpt>
      <trkpt lat="45.53491" lon="6.82689">
        <ele>2396.8</ele>
        <time>2021-03-30T13:30:42Z</time>
      </trkpt>
      <trkpt lat="45.53492" lon="6.8269">
        <ele>2396.7</ele>
        <time>2021-03-30T13:30:43Z</time>
      </trkpt>
      <trkpt lat="45.53493" lon="6.82691">
        <ele>2396.6</ele>
        <time>2021-03-30T13:30:44Z</time>
      </trkpt>
      <trkpt lat="45.53494" lon="6.82692">
        <ele>2396.6</ele>
        <time>2021-03-30T13:30:45Z</time>
      </trkpt>
      <trkpt lat="45.53495" lon="6.82692">
        <ele>2396.5</ele>
        <time>2021-03-30T13:30:46Z</time>
      </trkpt>
      <trkpt lat="45.53496" lon="6.82692">
        <ele>2396.4</ele>
        <time>2021-03-30T13:30:47Z</time>
      </trkpt>
      <trkpt lat="45.53497" lon="6.82692">
        <ele>2396.4</ele>
        <time>2021-03-30T13:30:48Z</time>
      </trkpt>
      <trkpt lat="45.53498" lon="6.82692">
        <ele>2396.3</ele>
        <time>2021-03-30T13:30:49Z</time>
      </trkpt>
      <trkpt lat="45.535" lon="6.82692">
        <ele>2396.3</ele>
        <time>2021-03-30T13:30:50Z</time>
      </trkpt>
      <trkpt lat="45.53501" lon="6.82692">
        <ele>2396.2</ele>
        <time>2021-03-30T13:30:51Z</time>
      </trkpt>
      <trkpt lat="45.53502" lon="6.82692">
        <ele>2396.2</ele>
        <time>2021-03-30T13:30:52Z</time>
      </trkpt>
      <trkpt lat="45.53503" lon="6.82692">
        <ele>2396.1</ele>
        <time>2021-03-30T13:30:53Z</time>
      </trkpt>
      <trkpt lat="45.53504" lon="6.82692">
        <ele>2396</ele>
        <time>2021-03-30T13:30:54Z</time>
      </trkpt>
      <trkpt lat="45.53505" lon="6.82692">
        <ele>2396</ele>
        <time>2021-03-30T13:30:55Z</time>
      </trkpt>
      <trkpt lat="45.53506" lon="6.82693">
        <ele>2396.6</ele>
        <time>2021-03-30T13:30:56Z</time>
      </trkpt>
      <trkpt lat="45.53507" lon="6.82694">
        <ele>2396.5</ele>
        <time>2021-03-30T13:30:57Z</time>
      </trkpt>
      <trkpt lat="45.53508" lon="6.82695">
        <ele>2396.5</ele>
        <time>2021-03-30T13:30:58Z</time>
      </trkpt>
      <trkpt lat="45.53509" lon="6.82696">
        <ele>2396.4</ele>
        <time>2021-03-30T13:30:59Z</time>
      </trkpt>
      <trkpt lat="45.5351" lon="6.82696">
        <ele>2396.4</ele>
        <time>2021-03-30T13:31:00Z</time>
      </trkpt>
      <trkpt lat="45.53511" lon="6.82697">
        <ele>2396.3</ele>
        <time>2021-03-30T13:31:01Z</time>
      </trkpt>
      <trkpt lat="45.53512" lon="6.82697">
        <ele>2396.3</ele>
        <time>2021-03-30T13:31:02Z</time>
      </trkpt>
      <trkpt lat="45.53513" lon="6.82697">
        <ele>2397</ele>
        <time>2021-03-30T13:31:03Z</time>
      </trkpt>
      <trkpt lat="45.53514" lon="6.82698">
        <ele>2396.9</ele>
        <time>2021-03-30T13:31:04Z</time>
      </trkpt>
      <trkpt lat="45.53515" lon="6.82699">
        <ele>2396.9</ele>
        <time>2021-03-30T13:31:05Z</time>
      </trkpt>
      <trkpt lat="45.53515" lon="6.827">
        <ele>2396.8</ele>
        <time>2021-03-30T13:31:06Z</time>
      </trkpt>
      <trkpt lat="45.53516" lon="6.827">
        <ele>2397</ele>
        <time>2021-03-30T13:31:07Z</time>
      </trkpt>
      <trkpt lat="45.53517" lon="6.827">
        <ele>2396.9</ele>
        <time>2021-03-30T13:31:08Z</time>
      </trkpt>
      <trkpt lat="45.53518" lon="6.82699">
        <ele>2396.9</ele>
        <time>2021-03-30T13:31:09Z</time>
      </trkpt>
      <trkpt lat="45.53519" lon="6.82699">
        <ele>2397.1</ele>
        <time>2021-03-30T13:31:10Z</time>
      </trkpt>
      <trkpt lat="45.5352" lon="6.82698">
        <ele>2397</ele>
        <time>2021-03-30T13:31:11Z</time>
      </trkpt>
      <trkpt lat="45.53521" lon="6.82698">
        <ele>2397</ele>
        <time>2021-03-30T13:31:12Z</time>
      </trkpt>
      <trkpt lat="45.53522" lon="6.82699">
        <ele>2397.2</ele>
        <time>2021-03-30T13:31:13Z</time>
      </trkpt>
      <trkpt lat="45.53523" lon="6.82699">
        <ele>2397.2</ele>
        <time>2021-03-30T13:31:14Z</time>
      </trkpt>
      <trkpt lat="45.53523" lon="6.82699">
        <ele>2397.1</ele>
        <time>2021-03-30T13:31:15Z</time>
      </trkpt>
      <trkpt lat="45.53524" lon="6.827">
        <ele>2397.1</ele>
        <time>2021-03-30T13:31:16Z</time>
      </trkpt>
      <trkpt lat="45.53525" lon="6.827">
        <ele>2397.4</ele>
        <time>2021-03-30T13:31:17Z</time>
      </trkpt>
      <trkpt lat="45.53526" lon="6.82699">
        <ele>2397.3</ele>
        <time>2021-03-30T13:31:18Z</time>
      </trkpt>
      <trkpt lat="45.53527" lon="6.82699">
        <ele>2397.3</ele>
        <time>2021-03-30T13:31:19Z</time>
      </trkpt>
      <trkpt lat="45.53528" lon="6.82699">
        <ele>2397.6</ele>
        <time>2021-03-30T13:31:20Z</time>
      </trkpt>
      <trkpt lat="45.5353" lon="6.82699">
        <ele>2397.6</ele>
        <time>2021-03-30T13:31:21Z</time>
      </trkpt>
      <trkpt lat="45.5353" lon="6.82699">
        <ele>2397.9</ele>
        <time>2021-03-30T13:31:22Z</time>
      </trkpt>
      <trkpt lat="45.53531" lon="6.827">
        <ele>2397.9</ele>
        <time>2021-03-30T13:31:23Z</time>
      </trkpt>
      <trkpt lat="45.53533" lon="6.827">
        <ele>2397.9</ele>
        <time>2021-03-30T13:31:24Z</time>
      </trkpt>
      <trkpt lat="45.53535" lon="6.827">
        <ele>2398.3</ele>
        <time>2021-03-30T13:31:25Z</time>
      </trkpt>
      <trkpt lat="45.53536" lon="6.82701">
        <ele>2398.3</ele>
        <time>2021-03-30T13:31:26Z</time>
      </trkpt>
      <trkpt lat="45.53538" lon="6.82701">
        <ele>2398.7</ele>
        <time>2021-03-30T13:31:27Z</time>
      </trkpt>
      <trkpt lat="45.53539" lon="6.82701">
        <ele>2398.7</ele>
        <time>2021-03-30T13:31:28Z</time>
      </trkpt>
      <trkpt lat="45.53539" lon="6.82701">
        <ele>2399.1</ele>
        <time>2021-03-30T13:31:29Z</time>
      </trkpt>
      <trkpt lat="45.5354" lon="6.82702">
        <ele>2399.1</ele>
        <time>2021-03-30T13:31:30Z</time>
      </trkpt>
      <trkpt lat="45.53541" lon="6.82702">
        <ele>2399.9</ele>
        <time>2021-03-30T13:31:31Z</time>
      </trkpt>
      <trkpt lat="45.53542" lon="6.82703">
        <ele>2399.9</ele>
        <time>2021-03-30T13:31:32Z</time>
      </trkpt>
      <trkpt lat="45.53543" lon="6.82704">
        <ele>2400.3</ele>
        <time>2021-03-30T13:31:33Z</time>
      </trkpt>
      <trkpt lat="45.53544" lon="6.82704">
        <ele>2400.3</ele>
        <time>2021-03-30T13:31:34Z</time>
      </trkpt>
      <trkpt lat="45.53545" lon="6.82705">
        <ele>2400.3</ele>
        <time>2021-03-30T13:31:35Z</time>
      </trkpt>
      <trkpt lat="45.53546" lon="6.82705">
        <ele>2400.8</ele>
        <time>2021-03-30T13:31:36Z</time>
      </trkpt>
      <trkpt lat="45.53547" lon="6.82705">
        <ele>2400.8</ele>
        <time>2021-03-30T13:31:37Z</time>
      </trkpt>
      <trkpt lat="45.53548" lon="6.82705">
        <ele>2400.8</ele>
        <time>2021-03-30T13:31:38Z</time>
      </trkpt>
      <trkpt lat="45.53549" lon="6.82705">
        <ele>2401.3</ele>
        <time>2021-03-30T13:31:39Z</time>
      </trkpt>
      <trkpt lat="45.53551" lon="6.82704">
        <ele>2401.3</ele>
        <time>2021-03-30T13:31:40Z</time>
      </trkpt>
      <trkpt lat="45.53552" lon="6.82704">
        <ele>2401.9</ele>
        <time>2021-03-30T13:31:41Z</time>
      </trkpt>
      <trkpt lat="45.53553" lon="6.82703">
        <ele>2401.9</ele>
        <time>2021-03-30T13:31:42Z</time>
      </trkpt>
      <trkpt lat="45.53554" lon="6.82703">
        <ele>2401.9</ele>
        <time>2021-03-30T13:31:43Z</time>
      </trkpt>
      <trkpt lat="45.53555" lon="6.82703">
        <ele>2402.6</ele>
        <time>2021-03-30T13:31:44Z</time>
      </trkpt>
      <trkpt lat="45.53556" lon="6.82703">
        <ele>2402.6</ele>
        <time>2021-03-30T13:31:45Z</time>
      </trkpt>
      <trkpt lat="45.53557" lon="6.82703">
        <ele>2403.4</ele>
        <time>2021-03-30T13:31:46Z</time>
      </trkpt>
      <trkpt lat="45.53558" lon="6.82703">
        <ele>2403.4</ele>
        <time>2021-03-30T13:31:47Z</time>
      </trkpt>
      <trkpt lat="45.53559" lon="6.82703">
        <ele>2403.4</ele>
        <time>2021-03-30T13:31:48Z</time>
      </trkpt>
      <trkpt lat="45.53561" lon="6.82703">
        <ele>2404.1</ele>
        <time>2021-03-30T13:31:49Z</time>
      </trkpt>
      <trkpt lat="45.53561" lon="6.82704">
        <ele>2404.1</ele>
        <time>2021-03-30T13:31:50Z</time>
      </trkpt>
      <trkpt lat="45.53562" lon="6.82704">
        <ele>2404.1</ele>
        <time>2021-03-30T13:31:51Z</time>
      </trkpt>
      <trkpt lat="45.53563" lon="6.82705">
        <ele>2404.1</ele>
        <time>2021-03-30T13:31:52Z</time>
      </trkpt>
      <trkpt lat="45.53564" lon="6.82705">
        <ele>2404.8</ele>
        <time>2021-03-30T13:31:53Z</time>
      </trkpt>
      <trkpt lat="45.53565" lon="6.82705">
        <ele>2404.8</ele>
        <time>2021-03-30T13:31:54Z</time>
      </trkpt>
      <trkpt lat="45.53566" lon="6.82706">
        <ele>2404.8</ele>
        <time>2021-03-30T13:31:55Z</time>
      </trkpt>
      <trkpt lat="45.53567" lon="6.82706">
        <ele>2406.3</ele>
        <time>2021-03-30T13:31:56Z</time>
      </trkpt>
      <trkpt lat="45.53568" lon="6.82707">
        <ele>2406.3</ele>
        <time>2021-03-30T13:31:57Z</time>
      </trkpt>
      <trkpt lat="45.53569" lon="6.82707">
        <ele>2406.3</ele>
        <time>2021-03-30T13:31:58Z</time>
      </trkpt>
      <trkpt lat="45.5357" lon="6.82707">
        <ele>2407</ele>
        <time>2021-03-30T13:31:59Z</time>
      </trkpt>
      <trkpt lat="45.53571" lon="6.82708">
        <ele>2407</ele>
        <time>2021-03-30T13:32:00Z</time>
      </trkpt>
      <trkpt lat="45.53572" lon="6.82708">
        <ele>2407</ele>
        <time>2021-03-30T13:32:01Z</time>
      </trkpt>
      <trkpt lat="45.53572" lon="6.82708">
        <ele>2407</ele>
        <time>2021-03-30T13:32:02Z</time>
      </trkpt>
      <trkpt lat="45.53573" lon="6.82708">
        <ele>2407.7</ele>
        <time>2021-03-30T13:32:03Z</time>
      </trkpt>
      <trkpt lat="45.53574" lon="6.82709">
        <ele>2407.7</ele>
        <time>2021-03-30T13:32:04Z</time>
      </trkpt>
      <trkpt lat="45.53575" lon="6.82709">
        <ele>2407.7</ele>
        <time>2021-03-30T13:32:05Z</time>
      </trkpt>
      <trkpt lat="45.53576" lon="6.82708">
        <ele>2408.6</ele>
        <time>2021-03-30T13:32:06Z</time>
      </trkpt>
      <trkpt lat="45.53577" lon="6.82709">
        <ele>2408.6</ele>
        <time>2021-03-30T13:32:07Z</time>
      </trkpt>
      <trkpt lat="45.53578" lon="6.82709">
        <ele>2408.6</ele>
        <time>2021-03-30T13:32:08Z</time>
      </trkpt>
      <trkpt lat="45.53578" lon="6.82709">
        <ele>2409.6</ele>
        <time>2021-03-30T13:32:09Z</time>
      </trkpt>
      <trkpt lat="45.53579" lon="6.82709">
        <ele>2409.6</ele>
        <time>2021-03-30T13:32:10Z</time>
      </trkpt>
      <trkpt lat="45.5358" lon="6.82709">
        <ele>2409.6</ele>
        <time>2021-03-30T13:32:11Z</time>
      </trkpt>
      <trkpt lat="45.53581" lon="6.82709">
        <ele>2409.6</ele>
        <time>2021-03-30T13:32:12Z</time>
      </trkpt>
      <trkpt lat="45.53581" lon="6.82709">
        <ele>2409.6</ele>
        <time>2021-03-30T13:32:13Z</time>
      </trkpt>
      <trkpt lat="45.53582" lon="6.82709">
        <ele>2410.6</ele>
        <time>2021-03-30T13:32:14Z</time>
      </trkpt>
      <trkpt lat="45.53584" lon="6.82709">
        <ele>2410.6</ele>
        <time>2021-03-30T13:32:15Z</time>
      </trkpt>
      <trkpt lat="45.53584" lon="6.82708">
        <ele>2410.6</ele>
        <time>2021-03-30T13:32:16Z</time>
      </trkpt>
      <trkpt lat="45.53585" lon="6.82708">
        <ele>2411.7</ele>
        <time>2021-03-30T13:32:17Z</time>
      </trkpt>
      <trkpt lat="45.53586" lon="6.82707">
        <ele>2411.7</ele>
        <time>2021-03-30T13:32:18Z</time>
      </trkpt>
      <trkpt lat="45.53587" lon="6.82706">
        <ele>2411.7</ele>
        <time>2021-03-30T13:32:19Z</time>
      </trkpt>
      <trkpt lat="45.53588" lon="6.82706">
        <ele>2412.1</ele>
        <time>2021-03-30T13:32:20Z</time>
      </trkpt>
      <trkpt lat="45.53589" lon="6.82705">
        <ele>2412.1</ele>
        <time>2021-03-30T13:32:21Z</time>
      </trkpt>
      <trkpt lat="45.5359" lon="6.82705">
        <ele>2412.1</ele>
        <time>2021-03-30T13:32:22Z</time>
      </trkpt>
      <trkpt lat="45.5359" lon="6.82704">
        <ele>2412.1</ele>
        <time>2021-03-30T13:32:23Z</time>
      </trkpt>
      <trkpt lat="45.53591" lon="6.82704">
        <ele>2413.2</ele>
        <time>2021-03-30T13:32:24Z</time>
      </trkpt>
      <trkpt lat="45.53592" lon="6.82703">
        <ele>2413.2</ele>
        <time>2021-03-30T13:32:25Z</time>
      </trkpt>
      <trkpt lat="45.53592" lon="6.82703">
        <ele>2413.2</ele>
        <time>2021-03-30T13:32:26Z</time>
      </trkpt>
      <trkpt lat="45.53593" lon="6.82703">
        <ele>2413.2</ele>
        <time>2021-03-30T13:32:27Z</time>
      </trkpt>
      <trkpt lat="45.53594" lon="6.82702">
        <ele>2414.2</ele>
        <time>2021-03-30T13:32:28Z</time>
      </trkpt>
      <trkpt lat="45.53595" lon="6.82702">
        <ele>2414.2</ele>
        <time>2021-03-30T13:32:29Z</time>
      </trkpt>
      <trkpt lat="45.53596" lon="6.82701">
        <ele>2413.5</ele>
        <time>2021-03-30T13:32:30Z</time>
      </trkpt>
      <trkpt lat="45.53597" lon="6.827">
        <ele>2414.6</ele>
        <time>2021-03-30T13:32:31Z</time>
      </trkpt>
      <trkpt lat="45.53598" lon="6.827">
        <ele>2414.6</ele>
        <time>2021-03-30T13:32:32Z</time>
      </trkpt>
      <trkpt lat="45.53599" lon="6.82699">
        <ele>2414.6</ele>
        <time>2021-03-30T13:32:33Z</time>
      </trkpt>
      <trkpt lat="45.536" lon="6.82699">
        <ele>2415.8</ele>
        <time>2021-03-30T13:32:34Z</time>
      </trkpt>
      <trkpt lat="45.53601" lon="6.82698">
        <ele>2415.8</ele>
        <time>2021-03-30T13:32:35Z</time>
      </trkpt>
      <trkpt lat="45.53602" lon="6.82698">
        <ele>2415.8</ele>
        <time>2021-03-30T13:32:36Z</time>
      </trkpt>
      <trkpt lat="45.53603" lon="6.82697">
        <ele>2416.4</ele>
        <time>2021-03-30T13:32:53Z</time>
      </trkpt>
      <trkpt lat="45.53604" lon="6.82697">
        <ele>2416.4</ele>
        <time>2021-03-30T13:32:54Z</time>
      </trkpt>
      <trkpt lat="45.53605" lon="6.82696">
        <ele>2416.4</ele>
        <time>2021-03-30T13:32:55Z</time>
      </trkpt>
      <trkpt lat="45.53605" lon="6.82696">
        <ele>2416.4</ele>
        <time>2021-03-30T13:32:56Z</time>
      </trkpt>
      <trkpt lat="45.53606" lon="6.82695">
        <ele>2417.7</ele>
        <time>2021-03-30T13:32:57Z</time>
      </trkpt>
      <trkpt lat="45.53607" lon="6.82695">
        <ele>2417.7</ele>
        <time>2021-03-30T13:32:58Z</time>
      </trkpt>
      <trkpt lat="45.53608" lon="6.82694">
        <ele>2417.7</ele>
        <time>2021-03-30T13:32:59Z</time>
      </trkpt>
      <trkpt lat="45.53608" lon="6.82694">
        <ele>2417.7</ele>
        <time>2021-03-30T13:33:00Z</time>
      </trkpt>
      <trkpt lat="45.53609" lon="6.82693">
        <ele>2418.6</ele>
        <time>2021-03-30T13:33:01Z</time>
      </trkpt>
      <trkpt lat="45.5361" lon="6.82692">
        <ele>2418.6</ele>
        <time>2021-03-30T13:33:02Z</time>
      </trkpt>
      <trkpt lat="45.5361" lon="6.82692">
        <ele>2418.6</ele>
        <time>2021-03-30T13:33:03Z</time>
      </trkpt>
      <trkpt lat="45.53611" lon="6.82691">
        <ele>2418.6</ele>
        <time>2021-03-30T13:33:04Z</time>
      </trkpt>
      <trkpt lat="45.53611" lon="6.8269">
        <ele>2418.6</ele>
        <time>2021-03-30T13:33:05Z</time>
      </trkpt>
      <trkpt lat="45.53611" lon="6.8269">
        <ele>2418.6</ele>
        <time>2021-03-30T13:33:06Z</time>
      </trkpt>
      <trkpt lat="45.53612" lon="6.82689">
        <ele>2420</ele>
        <time>2021-03-30T13:33:07Z</time>
      </trkpt>
      <trkpt lat="45.53613" lon="6.82689">
        <ele>2419.6</ele>
        <time>2021-03-30T13:33:08Z</time>
      </trkpt>
      <trkpt lat="45.53613" lon="6.82688">
        <ele>2419.6</ele>
        <time>2021-03-30T13:33:09Z</time>
      </trkpt>
      <trkpt lat="45.53614" lon="6.82687">
        <ele>2419.6</ele>
        <time>2021-03-30T13:33:10Z</time>
      </trkpt>
      <trkpt lat="45.53615" lon="6.82687">
        <ele>2421</ele>
        <time>2021-03-30T13:33:11Z</time>
      </trkpt>
      <trkpt lat="45.53615" lon="6.82686">
        <ele>2421</ele>
        <time>2021-03-30T13:33:12Z</time>
      </trkpt>
      <trkpt lat="45.53616" lon="6.82686">
        <ele>2421</ele>
        <time>2021-03-30T13:33:13Z</time>
      </trkpt>
      <trkpt lat="45.53616" lon="6.82684">
        <ele>2420.7</ele>
        <time>2021-03-30T13:33:14Z</time>
      </trkpt>
      <trkpt lat="45.53617" lon="6.82683">
        <ele>2420.7</ele>
        <time>2021-03-30T13:33:15Z</time>
      </trkpt>
      <trkpt lat="45.53617" lon="6.82683">
        <ele>2420.7</ele>
        <time>2021-03-30T13:33:16Z</time>
      </trkpt>
      <trkpt lat="45.53617" lon="6.82682">
        <ele>2420.7</ele>
        <time>2021-03-30T13:33:17Z</time>
      </trkpt>
      <trkpt lat="45.53618" lon="6.82682">
        <ele>2422.2</ele>
        <time>2021-03-30T13:33:18Z</time>
      </trkpt>
      <trkpt lat="45.53618" lon="6.82681">
        <ele>2422.2</ele>
        <time>2021-03-30T13:33:19Z</time>
      </trkpt>
      <trkpt lat="45.53619" lon="6.82681">
        <ele>2422.2</ele>
        <time>2021-03-30T13:33:20Z</time>
      </trkpt>
      <trkpt lat="45.5362" lon="6.82681">
        <ele>2422.2</ele>
        <time>2021-03-30T13:33:21Z</time>
      </trkpt>
      <trkpt lat="45.5362" lon="6.8268">
        <ele>2422.2</ele>
        <time>2021-03-30T13:33:22Z</time>
      </trkpt>
      <trkpt lat="45.53621" lon="6.8268">
        <ele>2423.4</ele>
        <time>2021-03-30T13:33:23Z</time>
      </trkpt>
      <trkpt lat="45.53621" lon="6.82679">
        <ele>2423.4</ele>
        <time>2021-03-30T13:33:24Z</time>
      </trkpt>
      <trkpt lat="45.53622" lon="6.82678">
        <ele>2423.4</ele>
        <time>2021-03-30T13:33:25Z</time>
      </trkpt>
      <trkpt lat="45.53622" lon="6.82678">
        <ele>2423.4</ele>
        <time>2021-03-30T13:33:26Z</time>
      </trkpt>
      <trkpt lat="45.53623" lon="6.82677">
        <ele>2423.4</ele>
        <time>2021-03-30T13:33:27Z</time>
      </trkpt>
      <trkpt lat="45.53624" lon="6.82676">
        <ele>2424.9</ele>
        <time>2021-03-30T13:33:28Z</time>
      </trkpt>
      <trkpt lat="45.53624" lon="6.82676">
        <ele>2424.6</ele>
        <time>2021-03-30T13:33:29Z</time>
      </trkpt>
      <trkpt lat="45.53625" lon="6.82674">
        <ele>2424.6</ele>
        <time>2021-03-30T13:33:30Z</time>
      </trkpt>
      <trkpt lat="45.53625" lon="6.82673">
        <ele>2424.6</ele>
        <time>2021-03-30T13:33:31Z</time>
      </trkpt>
      <trkpt lat="45.53625" lon="6.82673">
        <ele>2424.6</ele>
        <time>2021-03-30T13:33:32Z</time>
      </trkpt>
      <trkpt lat="45.53626" lon="6.82672">
        <ele>2424.6</ele>
        <time>2021-03-30T13:33:33Z</time>
      </trkpt>
      <trkpt lat="45.53626" lon="6.82671">
        <ele>2424.3</ele>
        <time>2021-03-30T13:33:34Z</time>
      </trkpt>
      <trkpt lat="45.53626" lon="6.8267">
        <ele>2424.3</ele>
        <time>2021-03-30T13:33:35Z</time>
      </trkpt>
      <trkpt lat="45.53626" lon="6.8267">
        <ele>2424.3</ele>
        <time>2021-03-30T13:33:36Z</time>
      </trkpt>
      <trkpt lat="45.53626" lon="6.82669">
        <ele>2424.3</ele>
        <time>2021-03-30T13:33:37Z</time>
      </trkpt>
      <trkpt lat="45.53626" lon="6.82668">
        <ele>2424.3</ele>
        <time>2021-03-30T13:33:38Z</time>
      </trkpt>
      <trkpt lat="45.53627" lon="6.82668">
        <ele>2425.8</ele>
        <time>2021-03-30T13:33:39Z</time>
      </trkpt>
      <trkpt lat="45.53627" lon="6.82667">
        <ele>2425.5</ele>
        <time>2021-03-30T13:33:40Z</time>
      </trkpt>
      <trkpt lat="45.53627" lon="6.82666">
        <ele>2425.5</ele>
        <time>2021-03-30T13:33:41Z</time>
      </trkpt>
      <trkpt lat="45.53627" lon="6.82665">
        <ele>2425.5</ele>
        <time>2021-03-30T13:36:37Z</time>
      </trkpt>
      <trkpt lat="45.53627" lon="6.82665">
        <ele>2425.5</ele>
        <time>2021-03-30T13:36:38Z</time>
      </trkpt>
      <trkpt lat="45.53628" lon="6.82663">
        <ele>2425.2</ele>
        <time>2021-03-30T13:36:39Z</time>
      </trkpt>
      <trkpt lat="45.5363" lon="6.82661">
        <ele>2426.7</ele>
        <time>2021-03-30T13:36:40Z</time>
      </trkpt>
      <trkpt lat="45.53632" lon="6.82657">
        <ele>2426.4</ele>
        <time>2021-03-30T13:36:41Z</time>
      </trkpt>
      <trkpt lat="45.53633" lon="6.82655">
        <ele>2426.4</ele>
        <time>2021-03-30T13:36:42Z</time>
      </trkpt>
      <trkpt lat="45.53634" lon="6.8265">
        <ele>2427.4</ele>
        <time>2021-03-30T13:36:43Z</time>
      </trkpt>
      <trkpt lat="45.53635" lon="6.8265">
        <ele>2427.6</ele>
        <time>2021-03-30T13:36:44Z</time>
      </trkpt>
      <trkpt lat="45.53634" lon="6.82653">
        <ele>2427.6</ele>
        <time>2021-03-30T13:36:45Z</time>
      </trkpt>
      <trkpt lat="45.53634" lon="6.82656">
        <ele>2427.9</ele>
        <time>2021-03-30T13:36:46Z</time>
      </trkpt>
      <trkpt lat="45.53634" lon="6.82656">
        <ele>2427.9</ele>
        <time>2021-03-30T13:36:47Z</time>
      </trkpt>
      <trkpt lat="45.53634" lon="6.82656">
        <ele>2427.9</ele>
        <time>2021-03-30T13:36:48Z</time>
      </trkpt>
      <trkpt lat="45.53634" lon="6.82656">
        <ele>2427.9</ele>
        <time>2021-03-30T13:36:49Z</time>
      </trkpt>
      <trkpt lat="45.53634" lon="6.82656">
        <ele>2427.9</ele>
        <time>2021-03-30T13:36:50Z</time>
      </trkpt>
      <trkpt lat="45.53634" lon="6.82656">
        <ele>2427.9</ele>
        <time>2021-03-30T13:36:51Z</time>
      </trkpt>
      <trkpt lat="45.53634" lon="6.82656">
        <ele>2427.9</ele>
        <time>2021-03-30T13:36:52Z</time>
      </trkpt>
      <trkpt lat="45.53634" lon="6.82656">
        <ele>2427.9</ele>
        <time>2021-03-30T13:36:53Z</time>
      </trkpt>
      <trkpt lat="45.53634" lon="6.82662">
        <ele>2428.2</ele>
        <time>2021-03-30T13:36:54Z</time>
      </trkpt>
      <trkpt lat="45.53635" lon="6.8266">
        <ele>2428.2</ele>
        <time>2021-03-30T13:37:43Z</time>
      </trkpt>
      <trkpt lat="45.53636" lon="6.8266">
        <ele>2429.8</ele>
        <time>2021-03-30T13:37:44Z</time>
      </trkpt>
      <trkpt lat="45.53636" lon="6.82659">
        <ele>2429.8</ele>
        <time>2021-03-30T13:37:45Z</time>
      </trkpt>
      <trkpt lat="45.53636" lon="6.82659">
        <ele>2429.8</ele>
        <time>2021-03-30T13:37:46Z</time>
      </trkpt>
      <trkpt lat="45.53637" lon="6.82658">
        <ele>2429.5</ele>
        <time>2021-03-30T13:37:47Z</time>
      </trkpt>
      <trkpt lat="45.53638" lon="6.82656">
        <ele>2429.5</ele>
        <time>2021-03-30T13:37:48Z</time>
      </trkpt>
      <trkpt lat="45.5364" lon="6.82651">
        <ele>2430.9</ele>
        <time>2021-03-30T13:37:49Z</time>
      </trkpt>
      <trkpt lat="45.5364" lon="6.8265">
        <ele>2430.9</ele>
        <time>2021-03-30T13:37:50Z</time>
      </trkpt>
      <trkpt lat="45.5364" lon="6.82651">
        <ele>2430.9</ele>
        <time>2021-03-30T13:37:51Z</time>
      </trkpt>
      <trkpt lat="45.5364" lon="6.82651">
        <ele>2430.9</ele>
        <time>2021-03-30T13:37:52Z</time>
      </trkpt>
      <trkpt lat="45.53639" lon="6.82651">
        <ele>2430.9</ele>
        <time>2021-03-30T13:37:53Z</time>
      </trkpt>
      <trkpt lat="45.53639" lon="6.82652">
        <ele>2430.9</ele>
        <time>2021-03-30T13:37:54Z</time>
      </trkpt>
      <trkpt lat="45.53639" lon="6.82652">
        <ele>2430.9</ele>
        <time>2021-03-30T13:37:55Z</time>
      </trkpt>
      <trkpt lat="45.53639" lon="6.82652">
        <ele>2430.9</ele>
        <time>2021-03-30T13:37:56Z</time>
      </trkpt>
      <trkpt lat="45.53639" lon="6.82653">
        <ele>2430.9</ele>
        <time>2021-03-30T13:37:57Z</time>
      </trkpt>
      <trkpt lat="45.53638" lon="6.82653">
        <ele>2429.2</ele>
        <time>2021-03-30T13:37:58Z</time>
      </trkpt>
      <trkpt lat="45.53638" lon="6.82653">
        <ele>2429.2</ele>
        <time>2021-03-30T13:37:59Z</time>
      </trkpt>
      <trkpt lat="45.53638" lon="6.82654">
        <ele>2429.2</ele>
        <time>2021-03-30T13:38:32Z</time>
      </trkpt>
      <trkpt lat="45.53638" lon="6.82654">
        <ele>2429.2</ele>
        <time>2021-03-30T13:38:33Z</time>
      </trkpt>
      <trkpt lat="45.53638" lon="6.82654">
        <ele>2429.2</ele>
        <time>2021-03-30T13:38:34Z</time>
      </trkpt>
      <trkpt lat="45.53638" lon="6.82655">
        <ele>2429.5</ele>
        <time>2021-03-30T13:38:35Z</time>
      </trkpt>
      <trkpt lat="45.53637" lon="6.82655">
        <ele>2429.5</ele>
        <time>2021-03-30T13:38:36Z</time>
      </trkpt>
      <trkpt lat="45.53637" lon="6.82655">
        <ele>2429.5</ele>
        <time>2021-03-30T13:38:37Z</time>
      </trkpt>
      <trkpt lat="45.53637" lon="6.82656">
        <ele>2429.5</ele>
        <time>2021-03-30T13:38:38Z</time>
      </trkpt>
      <trkpt lat="45.53637" lon="6.82656">
        <ele>2429.5</ele>
        <time>2021-03-30T13:38:39Z</time>
      </trkpt>
      <trkpt lat="45.53637" lon="6.82656">
        <ele>2429.5</ele>
        <time>2021-03-30T13:38:40Z</time>
      </trkpt>
      <trkpt lat="45.53636" lon="6.82657">
        <ele>2429.5</ele>
        <time>2021-03-30T13:38:41Z</time>
      </trkpt>
      <trkpt lat="45.53636" lon="6.82657">
        <ele>2429.5</ele>
        <time>2021-03-30T13:39:13Z</time>
      </trkpt>
      <trkpt lat="45.53636" lon="6.82657">
        <ele>2429.5</ele>
        <time>2021-03-30T13:39:14Z</time>
      </trkpt>
      <trkpt lat="45.53636" lon="6.82658">
        <ele>2429.5</ele>
        <time>2021-03-30T13:39:15Z</time>
      </trkpt>
      <trkpt lat="45.53636" lon="6.82658">
        <ele>2429.5</ele>
        <time>2021-03-30T13:39:16Z</time>
      </trkpt>
      <trkpt lat="45.53635" lon="6.82658">
        <ele>2427.9</ele>
        <time>2021-03-30T13:39:17Z</time>
      </trkpt>
      <trkpt lat="45.53635" lon="6.82659">
        <ele>2428.2</ele>
        <time>2021-03-30T13:39:18Z</time>
      </trkpt>
      <trkpt lat="45.53635" lon="6.82659">
        <ele>2428.2</ele>
        <time>2021-03-30T13:39:19Z</time>
      </trkpt>
      <trkpt lat="45.53635" lon="6.82659">
        <ele>2428.2</ele>
        <time>2021-03-30T13:39:20Z</time>
      </trkpt>
      <trkpt lat="45.53635" lon="6.8266">
        <ele>2428.2</ele>
        <time>2021-03-30T13:39:21Z</time>
      </trkpt>
      <trkpt lat="45.53634" lon="6.8266">
        <ele>2428.2</ele>
        <time>2021-03-30T13:39:22Z</time>
      </trkpt>
      <trkpt lat="45.53634" lon="6.8266">
        <ele>2428.2</ele>
        <time>2021-03-30T13:39:23Z</time>
      </trkpt>
      <trkpt lat="45.53634" lon="6.82661">
        <ele>2428.2</ele>
        <time>2021-03-30T13:40:56Z</time>
      </trkpt>
      <trkpt lat="45.53634" lon="6.82661">
        <ele>2428.2</ele>
        <time>2021-03-30T13:40:57Z</time>
      </trkpt>
      <trkpt lat="45.53634" lon="6.82661">
        <ele>2428.2</ele>
        <time>2021-03-30T13:40:58Z</time>
      </trkpt>
      <trkpt lat="45.53634" lon="6.82662">
        <ele>2428.2</ele>
        <time>2021-03-30T13:40:59Z</time>
      </trkpt>
      <trkpt lat="45.53633" lon="6.82662">
        <ele>2428.2</ele>
        <time>2021-03-30T13:41:00Z</time>
      </trkpt>
      <trkpt lat="45.53633" lon="6.82662">
        <ele>2428.2</ele>
        <time>2021-03-30T13:41:01Z</time>
      </trkpt>
      <trkpt lat="45.53633" lon="6.82663">
        <ele>2428.2</ele>
        <time>2021-03-30T13:41:02Z</time>
      </trkpt>
      <trkpt lat="45.53633" lon="6.82663">
        <ele>2428.5</ele>
        <time>2021-03-30T13:41:03Z</time>
      </trkpt>
      <trkpt lat="45.53633" lon="6.82664">
        <ele>2428.5</ele>
        <time>2021-03-30T13:41:04Z</time>
      </trkpt>
      <trkpt lat="45.53632" lon="6.82664">
        <ele>2427</ele>
        <time>2021-03-30T13:41:05Z</time>
      </trkpt>
      <trkpt lat="45.53632" lon="6.82664">
        <ele>2427</ele>
        <time>2021-03-30T13:41:35Z</time>
      </trkpt>
      <trkpt lat="45.53632" lon="6.82665">
        <ele>2427</ele>
        <time>2021-03-30T13:41:36Z</time>
      </trkpt>
      <trkpt lat="45.53632" lon="6.82665">
        <ele>2427</ele>
        <time>2021-03-30T13:41:37Z</time>
      </trkpt>
      <trkpt lat="45.53633" lon="6.82665">
        <ele>2428.5</ele>
        <time>2021-03-30T13:41:38Z</time>
      </trkpt>
      <trkpt lat="45.53633" lon="6.82664">
        <ele>2428.5</ele>
        <time>2021-03-30T13:41:39Z</time>
      </trkpt>
      <trkpt lat="45.53634" lon="6.82664">
        <ele>2428.5</ele>
        <time>2021-03-30T13:41:40Z</time>
      </trkpt>
      <trkpt lat="45.53635" lon="6.82663">
        <ele>2428.5</ele>
        <time>2021-03-30T13:41:41Z</time>
      </trkpt>
      <trkpt lat="45.53636" lon="6.82663">
        <ele>2430.1</ele>
        <time>2021-03-30T13:41:42Z</time>
      </trkpt>
      <trkpt lat="45.53637" lon="6.82663">
        <ele>2430.1</ele>
        <time>2021-03-30T13:41:43Z</time>
      </trkpt>
      <trkpt lat="45.53637" lon="6.82663">
        <ele>2430.1</ele>
        <time>2021-03-30T13:41:44Z</time>
      </trkpt>
      <trkpt lat="45.53638" lon="6.82663">
        <ele>2430.1</ele>
        <time>2021-03-30T13:41:45Z</time>
      </trkpt>
      <trkpt lat="45.53639" lon="6.82663">
        <ele>2431.5</ele>
        <time>2021-03-30T13:41:46Z</time>
      </trkpt>
      <trkpt lat="45.5364" lon="6.82663">
        <ele>2431.5</ele>
        <time>2021-03-30T13:41:47Z</time>
      </trkpt>
      <trkpt lat="45.5364" lon="6.82663">
        <ele>2431.8</ele>
        <time>2021-03-30T13:41:48Z</time>
      </trkpt>
      <trkpt lat="45.53641" lon="6.82663">
        <ele>2431.8</ele>
        <time>2021-03-30T13:41:49Z</time>
      </trkpt>
      <trkpt lat="45.53641" lon="6.82664">
        <ele>2431.8</ele>
        <time>2021-03-30T13:41:50Z</time>
      </trkpt>
      <trkpt lat="45.53641" lon="6.82664">
        <ele>2431.8</ele>
        <time>2021-03-30T13:41:51Z</time>
      </trkpt>
      <trkpt lat="45.53641" lon="6.82663">
        <ele>2431.8</ele>
        <time>2021-03-30T13:41:52Z</time>
      </trkpt>
      <trkpt lat="45.53641" lon="6.82663">
        <ele>2431.8</ele>
        <time>2021-03-30T13:41:53Z</time>
      </trkpt>
      <trkpt lat="45.53641" lon="6.82664">
        <ele>2431.8</ele>
        <time>2021-03-30T13:41:54Z</time>
      </trkpt>
      <trkpt lat="45.53641" lon="6.82666">
        <ele>2431.8</ele>
        <time>2021-03-30T13:41:55Z</time>
      </trkpt>
      <trkpt lat="45.53641" lon="6.82668">
        <ele>2432.2</ele>
        <time>2021-03-30T13:41:56Z</time>
      </trkpt>
      <trkpt lat="45.53641" lon="6.8267">
        <ele>2432.2</ele>
        <time>2021-03-30T13:41:57Z</time>
      </trkpt>
      <trkpt lat="45.5364" lon="6.82672">
        <ele>2432.5</ele>
        <time>2021-03-30T13:41:58Z</time>
      </trkpt>
      <trkpt lat="45.5364" lon="6.82674">
        <ele>2432.5</ele>
        <time>2021-03-30T13:41:59Z</time>
      </trkpt>
      <trkpt lat="45.5364" lon="6.82676">
        <ele>2432.5</ele>
        <time>2021-03-30T13:42:13Z</time>
      </trkpt>
      <trkpt lat="45.5364" lon="6.82678">
        <ele>2432.7</ele>
        <time>2021-03-30T13:42:14Z</time>
      </trkpt>
      <trkpt lat="45.53639" lon="6.82679">
        <ele>2432.7</ele>
        <time>2021-03-30T13:42:15Z</time>
      </trkpt>
      <trkpt lat="45.53639" lon="6.82681">
        <ele>2433</ele>
        <time>2021-03-30T13:42:16Z</time>
      </trkpt>
      <trkpt lat="45.53639" lon="6.82683">
        <ele>2433</ele>
        <time>2021-03-30T13:42:17Z</time>
      </trkpt>
      <trkpt lat="45.53639" lon="6.82684">
        <ele>2433</ele>
        <time>2021-03-30T13:42:18Z</time>
      </trkpt>
      <trkpt lat="45.53638" lon="6.82685">
        <ele>2431.6</ele>
        <time>2021-03-30T13:42:19Z</time>
      </trkpt>
      <trkpt lat="45.53638" lon="6.82686">
        <ele>2431.6</ele>
        <time>2021-03-30T13:42:20Z</time>
      </trkpt>
      <trkpt lat="45.53638" lon="6.82687">
        <ele>2431.6</ele>
        <time>2021-03-30T13:42:21Z</time>
      </trkpt>
      <trkpt lat="45.53638" lon="6.82687">
        <ele>2431.6</ele>
        <time>2021-03-30T13:42:22Z</time>
      </trkpt>
      <trkpt lat="45.53638" lon="6.82688">
        <ele>2431.6</ele>
        <time>2021-03-30T13:42:23Z</time>
      </trkpt>
      <trkpt lat="45.53638" lon="6.82689">
        <ele>2432</ele>
        <time>2021-03-30T13:42:24Z</time>
      </trkpt>
      <trkpt lat="45.53638" lon="6.8269">
        <ele>2432</ele>
        <time>2021-03-30T13:42:25Z</time>
      </trkpt>
      <trkpt lat="45.53638" lon="6.82691">
        <ele>2432</ele>
        <time>2021-03-30T13:42:26Z</time>
      </trkpt>
      <trkpt lat="45.53638" lon="6.82691">
        <ele>2432</ele>
        <time>2021-03-30T13:42:27Z</time>
      </trkpt>
      <trkpt lat="45.53638" lon="6.82692">
        <ele>2432</ele>
        <time>2021-03-30T13:42:28Z</time>
      </trkpt>
      <trkpt lat="45.53638" lon="6.82693">
        <ele>2432</ele>
        <time>2021-03-30T13:42:29Z</time>
      </trkpt>
      <trkpt lat="45.53638" lon="6.82694">
        <ele>2432.3</ele>
        <time>2021-03-30T13:42:30Z</time>
      </trkpt>
      <trkpt lat="45.53637" lon="6.82695">
        <ele>2432.3</ele>
        <time>2021-03-30T13:42:31Z</time>
      </trkpt>
      <trkpt lat="45.53637" lon="6.82696">
        <ele>2432.3</ele>
        <time>2021-03-30T13:42:32Z</time>
      </trkpt>
      <trkpt lat="45.53637" lon="6.82697">
        <ele>2432.3</ele>
        <time>2021-03-30T13:42:33Z</time>
      </trkpt>
      <trkpt lat="45.53637" lon="6.82697">
        <ele>2432.8</ele>
        <time>2021-03-30T13:42:34Z</time>
      </trkpt>
      <trkpt lat="45.53637" lon="6.82698">
        <ele>2432.8</ele>
        <time>2021-03-30T13:42:35Z</time>
      </trkpt>
      <trkpt lat="45.53637" lon="6.82698">
        <ele>2432.8</ele>
        <time>2021-03-30T13:42:36Z</time>
      </trkpt>
      <trkpt lat="45.53637" lon="6.82698">
        <ele>2432.8</ele>
        <time>2021-03-30T13:42:37Z</time>
      </trkpt>
      <trkpt lat="45.53638" lon="6.82698">
        <ele>2432.8</ele>
        <time>2021-03-30T13:42:38Z</time>
      </trkpt>
      <trkpt lat="45.53638" lon="6.82697">
        <ele>2432.3</ele>
        <time>2021-03-30T13:42:39Z</time>
      </trkpt>
      <trkpt lat="45.53639" lon="6.82697">
        <ele>2434</ele>
        <time>2021-03-30T13:42:40Z</time>
      </trkpt>
      <trkpt lat="45.53639" lon="6.82696">
        <ele>2434</ele>
        <time>2021-03-30T13:42:41Z</time>
      </trkpt>
      <trkpt lat="45.53639" lon="6.82696">
        <ele>2434</ele>
        <time>2021-03-30T13:42:42Z</time>
      </trkpt>
      <trkpt lat="45.5364" lon="6.82696">
        <ele>2434</ele>
        <time>2021-03-30T13:42:43Z</time>
      </trkpt>
      <trkpt lat="45.5364" lon="6.82695">
        <ele>2434</ele>
        <time>2021-03-30T13:42:44Z</time>
      </trkpt>
      <trkpt lat="45.53641" lon="6.82695">
        <ele>2434</ele>
        <time>2021-03-30T13:42:50Z</time>
      </trkpt>
      <trkpt lat="45.53641" lon="6.82694">
        <ele>2434</ele>
        <time>2021-03-30T13:42:51Z</time>
      </trkpt>
      <trkpt lat="45.53641" lon="6.82694">
        <ele>2434</ele>
        <time>2021-03-30T13:42:52Z</time>
      </trkpt>
      <trkpt lat="45.53642" lon="6.82694">
        <ele>2435.7</ele>
        <time>2021-03-30T13:42:53Z</time>
      </trkpt>
      <trkpt lat="45.53643" lon="6.82693">
        <ele>2435.7</ele>
        <time>2021-03-30T13:42:54Z</time>
      </trkpt>
      <trkpt lat="45.53644" lon="6.82693">
        <ele>2435.4</ele>
        <time>2021-03-30T13:42:55Z</time>
      </trkpt>
      <trkpt lat="45.53644" lon="6.82693">
        <ele>2435.4</ele>
        <time>2021-03-30T13:42:56Z</time>
      </trkpt>
      <trkpt lat="45.53645" lon="6.82692">
        <ele>2437.1</ele>
        <time>2021-03-30T13:42:57Z</time>
      </trkpt>
      <trkpt lat="45.53646" lon="6.82692">
        <ele>2437.1</ele>
        <time>2021-03-30T13:42:58Z</time>
      </trkpt>
      <trkpt lat="45.53647" lon="6.82692">
        <ele>2437.1</ele>
        <time>2021-03-30T13:42:59Z</time>
      </trkpt>
      <trkpt lat="45.53648" lon="6.82692">
        <ele>2437.1</ele>
        <time>2021-03-30T13:43:00Z</time>
      </trkpt>
      <trkpt lat="45.53649" lon="6.82692">
        <ele>2438.6</ele>
        <time>2021-03-30T13:43:01Z</time>
      </trkpt>
      <trkpt lat="45.5365" lon="6.82692">
        <ele>2438.6</ele>
        <time>2021-03-30T13:43:02Z</time>
      </trkpt>
      <trkpt lat="45.5365" lon="6.82692">
        <ele>2438.6</ele>
        <time>2021-03-30T13:43:03Z</time>
      </trkpt>
      <trkpt lat="45.53651" lon="6.82692">
        <ele>2440</ele>
        <time>2021-03-30T13:43:04Z</time>
      </trkpt>
      <trkpt lat="45.53652" lon="6.82692">
        <ele>2440</ele>
        <time>2021-03-30T13:43:05Z</time>
      </trkpt>
      <trkpt lat="45.53653" lon="6.82692">
        <ele>2440</ele>
        <time>2021-03-30T13:43:06Z</time>
      </trkpt>
      <trkpt lat="45.53653" lon="6.82692">
        <ele>2440</ele>
        <time>2021-03-30T13:43:07Z</time>
      </trkpt>
      <trkpt lat="45.53654" lon="6.82692">
        <ele>2441.4</ele>
        <time>2021-03-30T13:43:08Z</time>
      </trkpt>
      <trkpt lat="45.53655" lon="6.82692">
        <ele>2441.4</ele>
        <time>2021-03-30T13:43:09Z</time>
      </trkpt>
      <trkpt lat="45.53656" lon="6.82692">
        <ele>2441.4</ele>
        <time>2021-03-30T13:43:10Z</time>
      </trkpt>
      <trkpt lat="45.53656" lon="6.82692">
        <ele>2441.4</ele>
        <time>2021-03-30T13:43:11Z</time>
      </trkpt>
      <trkpt lat="45.53657" lon="6.82691">
        <ele>2442.7</ele>
        <time>2021-03-30T13:43:12Z</time>
      </trkpt>
      <trkpt lat="45.53657" lon="6.82691">
        <ele>2442.7</ele>
        <time>2021-03-30T13:43:13Z</time>
      </trkpt>
      <trkpt lat="45.53658" lon="6.8269">
        <ele>2442.7</ele>
        <time>2021-03-30T13:43:14Z</time>
      </trkpt>
      <trkpt lat="45.53659" lon="6.82689">
        <ele>2442.7</ele>
        <time>2021-03-30T13:43:15Z</time>
      </trkpt>
      <trkpt lat="45.5366" lon="6.82689">
        <ele>2444.1</ele>
        <time>2021-03-30T13:43:16Z</time>
      </trkpt>
      <trkpt lat="45.5366" lon="6.82689">
        <ele>2444.1</ele>
        <time>2021-03-30T13:43:17Z</time>
      </trkpt>
      <trkpt lat="45.5366" lon="6.82689">
        <ele>2444.1</ele>
        <time>2021-03-30T13:43:18Z</time>
      </trkpt>
      <trkpt lat="45.5366" lon="6.82689">
        <ele>2444.1</ele>
        <time>2021-03-30T13:43:19Z</time>
      </trkpt>
      <trkpt lat="45.5366" lon="6.82689">
        <ele>2444.1</ele>
        <time>2021-03-30T13:43:20Z</time>
      </trkpt>
      <trkpt lat="45.5366" lon="6.8269">
        <ele>2444.1</ele>
        <time>2021-03-30T13:43:21Z</time>
      </trkpt>
      <trkpt lat="45.5366" lon="6.8269">
        <ele>2444.1</ele>
        <time>2021-03-30T13:43:22Z</time>
      </trkpt>
      <trkpt lat="45.5366" lon="6.82691">
        <ele>2444.1</ele>
        <time>2021-03-30T13:43:23Z</time>
      </trkpt>
      <trkpt lat="45.5366" lon="6.82692">
        <ele>2444.1</ele>
        <time>2021-03-30T13:43:24Z</time>
      </trkpt>
      <trkpt lat="45.5366" lon="6.82692">
        <ele>2444.1</ele>
        <time>2021-03-30T13:43:25Z</time>
      </trkpt>
      <trkpt lat="45.5366" lon="6.82693">
        <ele>2444.1</ele>
        <time>2021-03-30T13:43:26Z</time>
      </trkpt>
      <trkpt lat="45.5366" lon="6.82694">
        <ele>2444.4</ele>
        <time>2021-03-30T13:43:27Z</time>
      </trkpt>
      <trkpt lat="45.5366" lon="6.82694">
        <ele>2444.4</ele>
        <time>2021-03-30T13:43:28Z</time>
      </trkpt>
      <trkpt lat="45.53659" lon="6.82695">
        <ele>2443</ele>
        <time>2021-03-30T13:43:29Z</time>
      </trkpt>
      <trkpt lat="45.53659" lon="6.82696">
        <ele>2443</ele>
        <time>2021-03-30T13:43:30Z</time>
      </trkpt>
      <trkpt lat="45.53659" lon="6.82697">
        <ele>2443.4</ele>
        <time>2021-03-30T13:43:31Z</time>
      </trkpt>
      <trkpt lat="45.53658" lon="6.82698">
        <ele>2443.4</ele>
        <time>2021-03-30T13:43:32Z</time>
      </trkpt>
      <trkpt lat="45.53658" lon="6.82699">
        <ele>2443.4</ele>
        <time>2021-03-30T13:43:33Z</time>
      </trkpt>
      <trkpt lat="45.53658" lon="6.827">
        <ele>2443.4</ele>
        <time>2021-03-30T13:43:34Z</time>
      </trkpt>
      <trkpt lat="45.53657" lon="6.82701">
        <ele>2443.4</ele>
        <time>2021-03-30T13:43:35Z</time>
      </trkpt>
      <trkpt lat="45.53657" lon="6.82702">
        <ele>2443.8</ele>
        <time>2021-03-30T13:43:36Z</time>
      </trkpt>
      <trkpt lat="45.53656" lon="6.82702">
        <ele>2442.5</ele>
        <time>2021-03-30T13:43:37Z</time>
      </trkpt>
      <trkpt lat="45.53656" lon="6.82703">
        <ele>2442.5</ele>
        <time>2021-03-30T13:43:38Z</time>
      </trkpt>
      <trkpt lat="45.53655" lon="6.82703">
        <ele>2442.5</ele>
        <time>2021-03-30T13:43:39Z</time>
      </trkpt>
      <trkpt lat="45.53655" lon="6.82704">
        <ele>2442.5</ele>
        <time>2021-03-30T13:43:40Z</time>
      </trkpt>
      <trkpt lat="45.53654" lon="6.82705">
        <ele>2442.5</ele>
        <time>2021-03-30T13:43:41Z</time>
      </trkpt>
      <trkpt lat="45.53654" lon="6.82705">
        <ele>2442.5</ele>
        <time>2021-03-30T13:43:42Z</time>
      </trkpt>
      <trkpt lat="45.53653" lon="6.82706">
        <ele>2441.2</ele>
        <time>2021-03-30T13:43:43Z</time>
      </trkpt>
      <trkpt lat="45.53653" lon="6.82706">
        <ele>2441.6</ele>
        <time>2021-03-30T13:43:44Z</time>
      </trkpt>
      <trkpt lat="45.53652" lon="6.82706">
        <ele>2441.6</ele>
        <time>2021-03-30T13:43:45Z</time>
      </trkpt>
      <trkpt lat="45.53652" lon="6.82707">
        <ele>2441.6</ele>
        <time>2021-03-30T13:43:46Z</time>
      </trkpt>
      <trkpt lat="45.53651" lon="6.82708">
        <ele>2441.6</ele>
        <time>2021-03-30T13:43:47Z</time>
      </trkpt>
      <trkpt lat="45.53651" lon="6.82709">
        <ele>2441.6</ele>
        <time>2021-03-30T13:43:48Z</time>
      </trkpt>
      <trkpt lat="45.5365" lon="6.8271">
        <ele>2440.2</ele>
        <time>2021-03-30T13:43:49Z</time>
      </trkpt>
      <trkpt lat="45.5365" lon="6.8271">
        <ele>2440.7</ele>
        <time>2021-03-30T13:43:50Z</time>
      </trkpt>
      <trkpt lat="45.5365" lon="6.82711">
        <ele>2440.7</ele>
        <time>2021-03-30T13:43:51Z</time>
      </trkpt>
      <trkpt lat="45.53649" lon="6.82712">
        <ele>2440.7</ele>
        <time>2021-03-30T13:43:52Z</time>
      </trkpt>
      <trkpt lat="45.53648" lon="6.82712">
        <ele>2440.7</ele>
        <time>2021-03-30T13:43:53Z</time>
      </trkpt>
      <trkpt lat="45.53647" lon="6.82713">
        <ele>2439.2</ele>
        <time>2021-03-30T13:43:54Z</time>
      </trkpt>
      <trkpt lat="45.53647" lon="6.82714">
        <ele>2439.2</ele>
        <time>2021-03-30T13:43:55Z</time>
      </trkpt>
      <trkpt lat="45.53646" lon="6.82715">
        <ele>2439.7</ele>
        <time>2021-03-30T13:43:56Z</time>
      </trkpt>
      <trkpt lat="45.53646" lon="6.82716">
        <ele>2439.7</ele>
        <time>2021-03-30T13:43:57Z</time>
      </trkpt>
      <trkpt lat="45.53646" lon="6.82717">
        <ele>2439.7</ele>
        <time>2021-03-30T13:43:58Z</time>
      </trkpt>
      <trkpt lat="45.53646" lon="6.82717">
        <ele>2439.7</ele>
        <time>2021-03-30T13:43:59Z</time>
      </trkpt>
      <trkpt lat="45.53647" lon="6.82716">
        <ele>2439.7</ele>
        <time>2021-03-30T13:44:00Z</time>
      </trkpt>
      <trkpt lat="45.53647" lon="6.82716">
        <ele>2439.7</ele>
        <time>2021-03-30T13:44:01Z</time>
      </trkpt>
      <trkpt lat="45.53647" lon="6.82716">
        <ele>2439.7</ele>
        <time>2021-03-30T13:44:02Z</time>
      </trkpt>
      <trkpt lat="45.53647" lon="6.82716">
        <ele>2439.7</ele>
        <time>2021-03-30T13:44:03Z</time>
      </trkpt>
      <trkpt lat="45.53648" lon="6.82716">
        <ele>2441.2</ele>
        <time>2021-03-30T13:44:04Z</time>
      </trkpt>
      <trkpt lat="45.53648" lon="6.82716">
        <ele>2441.2</ele>
        <time>2021-03-30T13:44:05Z</time>
      </trkpt>
      <trkpt lat="45.53648" lon="6.82716">
        <ele>2441.2</ele>
        <time>2021-03-30T13:44:06Z</time>
      </trkpt>
      <trkpt lat="45.53648" lon="6.82716">
        <ele>2441.2</ele>
        <time>2021-03-30T13:44:07Z</time>
      </trkpt>
      <trkpt lat="45.53649" lon="6.82716">
        <ele>2441.2</ele>
        <time>2021-03-30T13:44:08Z</time>
      </trkpt>
      <trkpt lat="45.53649" lon="6.82715">
        <ele>2441.2</ele>
        <time>2021-03-30T13:44:09Z</time>
      </trkpt>
      <trkpt lat="45.53649" lon="6.82715">
        <ele>2441.2</ele>
        <time>2021-03-30T13:44:10Z</time>
      </trkpt>
      <trkpt lat="45.53649" lon="6.82715">
        <ele>2441.2</ele>
        <time>2021-03-30T13:44:12Z</time>
      </trkpt>
      <trkpt lat="45.5365" lon="6.82715">
        <ele>2441.2</ele>
        <time>2021-03-30T13:44:13Z</time>
      </trkpt>
      <trkpt lat="45.5365" lon="6.82715">
        <ele>2441.2</ele>
        <time>2021-03-30T13:44:14Z</time>
      </trkpt>
      <trkpt lat="45.5365" lon="6.82715">
        <ele>2441.2</ele>
        <time>2021-03-30T13:44:15Z</time>
      </trkpt>
      <trkpt lat="45.5365" lon="6.82715">
        <ele>2441.2</ele>
        <time>2021-03-30T13:44:16Z</time>
      </trkpt>
      <trkpt lat="45.53651" lon="6.82715">
        <ele>2442.5</ele>
        <time>2021-03-30T13:44:17Z</time>
      </trkpt>
      <trkpt lat="45.53651" lon="6.82715">
        <ele>2442.5</ele>
        <time>2021-03-30T13:44:18Z</time>
      </trkpt>
      <trkpt lat="45.53651" lon="6.82714">
        <ele>2442.1</ele>
        <time>2021-03-30T13:44:19Z</time>
      </trkpt>
      <trkpt lat="45.53651" lon="6.82714">
        <ele>2442.1</ele>
        <time>2021-03-30T13:44:20Z</time>
      </trkpt>
      <trkpt lat="45.53652" lon="6.82714">
        <ele>2442.1</ele>
        <time>2021-03-30T13:44:21Z</time>
      </trkpt>
      <trkpt lat="45.53652" lon="6.82714">
        <ele>2442.1</ele>
        <time>2021-03-30T13:44:22Z</time>
      </trkpt>
      <trkpt lat="45.53652" lon="6.82714">
        <ele>2442.1</ele>
        <time>2021-03-30T13:44:23Z</time>
      </trkpt>
      <trkpt lat="45.53653" lon="6.82713">
        <ele>2442.1</ele>
        <time>2021-03-30T13:44:24Z</time>
      </trkpt>
      <trkpt lat="45.53654" lon="6.82713">
        <ele>2442.1</ele>
        <time>2021-03-30T13:44:25Z</time>
      </trkpt>
      <trkpt lat="45.53654" lon="6.82713">
        <ele>2443.4</ele>
        <time>2021-03-30T13:44:26Z</time>
      </trkpt>
      <trkpt lat="45.53655" lon="6.82712">
        <ele>2443.4</ele>
        <time>2021-03-30T13:44:27Z</time>
      </trkpt>
      <trkpt lat="45.53655" lon="6.82712">
        <ele>2443.4</ele>
        <time>2021-03-30T13:44:28Z</time>
      </trkpt>
      <trkpt lat="45.53656" lon="6.82712">
        <ele>2443.4</ele>
        <time>2021-03-30T13:44:29Z</time>
      </trkpt>
      <trkpt lat="45.53656" lon="6.82712">
        <ele>2443.4</ele>
        <time>2021-03-30T13:44:30Z</time>
      </trkpt>
      <trkpt lat="45.53657" lon="6.82712">
        <ele>2444.7</ele>
        <time>2021-03-30T13:44:31Z</time>
      </trkpt>
      <trkpt lat="45.53657" lon="6.82712">
        <ele>2444.7</ele>
        <time>2021-03-30T13:44:32Z</time>
      </trkpt>
      <trkpt lat="45.53658" lon="6.82711">
        <ele>2444.7</ele>
        <time>2021-03-30T13:44:33Z</time>
      </trkpt>
      <trkpt lat="45.53659" lon="6.82711">
        <ele>2444.7</ele>
        <time>2021-03-30T13:44:34Z</time>
      </trkpt>
      <trkpt lat="45.53659" lon="6.82711">
        <ele>2444.7</ele>
        <time>2021-03-30T13:44:35Z</time>
      </trkpt>
      <trkpt lat="45.5366" lon="6.82711">
        <ele>2446</ele>
        <time>2021-03-30T13:44:36Z</time>
      </trkpt>
      <trkpt lat="45.53661" lon="6.82711">
        <ele>2446</ele>
        <time>2021-03-30T13:44:37Z</time>
      </trkpt>
      <trkpt lat="45.53661" lon="6.8271">
        <ele>2446</ele>
        <time>2021-03-30T13:44:38Z</time>
      </trkpt>
      <trkpt lat="45.53662" lon="6.8271">
        <ele>2446</ele>
        <time>2021-03-30T13:44:39Z</time>
      </trkpt>
      <trkpt lat="45.53662" lon="6.8271">
        <ele>2446</ele>
        <time>2021-03-30T13:44:40Z</time>
      </trkpt>
      <trkpt lat="45.53663" lon="6.8271">
        <ele>2447.1</ele>
        <time>2021-03-30T13:44:41Z</time>
      </trkpt>
      <trkpt lat="45.53664" lon="6.8271">
        <ele>2447.1</ele>
        <time>2021-03-30T13:44:42Z</time>
      </trkpt>
      <trkpt lat="45.53664" lon="6.8271">
        <ele>2447.1</ele>
        <time>2021-03-30T13:44:43Z</time>
      </trkpt>
      <trkpt lat="45.53665" lon="6.8271">
        <ele>2447.1</ele>
        <time>2021-03-30T13:44:44Z</time>
      </trkpt>
      <trkpt lat="45.53666" lon="6.8271">
        <ele>2448.6</ele>
        <time>2021-03-30T13:44:45Z</time>
      </trkpt>
      <trkpt lat="45.53666" lon="6.82709">
        <ele>2448.6</ele>
        <time>2021-03-30T13:44:46Z</time>
      </trkpt>
      <trkpt lat="45.53667" lon="6.82709">
        <ele>2448.6</ele>
        <time>2021-03-30T13:44:47Z</time>
      </trkpt>
      <trkpt lat="45.53668" lon="6.82708">
        <ele>2448.6</ele>
        <time>2021-03-30T13:44:48Z</time>
      </trkpt>
      <trkpt lat="45.53668" lon="6.82708">
        <ele>2448.6</ele>
        <time>2021-03-30T13:44:49Z</time>
      </trkpt>
      <trkpt lat="45.53669" lon="6.82708">
        <ele>2450.1</ele>
        <time>2021-03-30T13:44:50Z</time>
      </trkpt>
      <trkpt lat="45.53669" lon="6.82707">
        <ele>2450.1</ele>
        <time>2021-03-30T13:44:51Z</time>
      </trkpt>
      <trkpt lat="45.5367" lon="6.82707">
        <ele>2450.1</ele>
        <time>2021-03-30T13:44:52Z</time>
      </trkpt>
      <trkpt lat="45.53671" lon="6.82707">
        <ele>2450.1</ele>
        <time>2021-03-30T13:44:53Z</time>
      </trkpt>
      <trkpt lat="45.53671" lon="6.82708">
        <ele>2450.1</ele>
        <time>2021-03-30T13:44:54Z</time>
      </trkpt>
      <trkpt lat="45.53671" lon="6.82708">
        <ele>2450.1</ele>
        <time>2021-03-30T13:44:55Z</time>
      </trkpt>
      <trkpt lat="45.53672" lon="6.82708">
        <ele>2451.4</ele>
        <time>2021-03-30T13:44:56Z</time>
      </trkpt>
      <trkpt lat="45.53672" lon="6.82708">
        <ele>2451.4</ele>
        <time>2021-03-30T13:44:57Z</time>
      </trkpt>
      <trkpt lat="45.53673" lon="6.82708">
        <ele>2451.4</ele>
        <time>2021-03-30T13:44:58Z</time>
      </trkpt>
      <trkpt lat="45.53674" lon="6.82708">
        <ele>2451.4</ele>
        <time>2021-03-30T13:44:59Z</time>
      </trkpt>
      <trkpt lat="45.53675" lon="6.82708">
        <ele>2451.4</ele>
        <time>2021-03-30T13:45:00Z</time>
      </trkpt>
      <trkpt lat="45.53675" lon="6.82708">
        <ele>2452.7</ele>
        <time>2021-03-30T13:45:01Z</time>
      </trkpt>
      <trkpt lat="45.53676" lon="6.82708">
        <ele>2452.7</ele>
        <time>2021-03-30T13:45:02Z</time>
      </trkpt>
      <trkpt lat="45.53677" lon="6.82707">
        <ele>2452.7</ele>
        <time>2021-03-30T13:45:03Z</time>
      </trkpt>
      <trkpt lat="45.53678" lon="6.82707">
        <ele>2453.8</ele>
        <time>2021-03-30T13:45:04Z</time>
      </trkpt>
      <trkpt lat="45.53679" lon="6.82707">
        <ele>2453.8</ele>
        <time>2021-03-30T13:45:05Z</time>
      </trkpt>
      <trkpt lat="45.53679" lon="6.82707">
        <ele>2453.8</ele>
        <time>2021-03-30T13:45:06Z</time>
      </trkpt>
      <trkpt lat="45.5368" lon="6.82707">
        <ele>2453.8</ele>
        <time>2021-03-30T13:45:07Z</time>
      </trkpt>
      <trkpt lat="45.5368" lon="6.82708">
        <ele>2453.8</ele>
        <time>2021-03-30T13:45:08Z</time>
      </trkpt>
      <trkpt lat="45.53681" lon="6.82708">
        <ele>2455</ele>
        <time>2021-03-30T13:45:09Z</time>
      </trkpt>
      <trkpt lat="45.53681" lon="6.82709">
        <ele>2455</ele>
        <time>2021-03-30T13:45:10Z</time>
      </trkpt>
      <trkpt lat="45.53682" lon="6.82709">
        <ele>2455</ele>
        <time>2021-03-30T13:45:11Z</time>
      </trkpt>
      <trkpt lat="45.53682" lon="6.82709">
        <ele>2455</ele>
        <time>2021-03-30T13:45:12Z</time>
      </trkpt>
      <trkpt lat="45.53682" lon="6.82709">
        <ele>2455</ele>
        <time>2021-03-30T13:45:13Z</time>
      </trkpt>
      <trkpt lat="45.53682" lon="6.82709">
        <ele>2455</ele>
        <time>2021-03-30T13:45:14Z</time>
      </trkpt>
      <trkpt lat="45.53683" lon="6.82709">
        <ele>2455</ele>
        <time>2021-03-30T13:45:15Z</time>
      </trkpt>
      <trkpt lat="45.53683" lon="6.82708">
        <ele>2455</ele>
        <time>2021-03-30T13:45:16Z</time>
      </trkpt>
      <trkpt lat="45.53684" lon="6.82708">
        <ele>2455</ele>
        <time>2021-03-30T13:45:17Z</time>
      </trkpt>
      <trkpt lat="45.53684" lon="6.82708">
        <ele>2456.1</ele>
        <time>2021-03-30T13:45:18Z</time>
      </trkpt>
      <trkpt lat="45.53684" lon="6.82708">
        <ele>2456.1</ele>
        <time>2021-03-30T13:45:19Z</time>
      </trkpt>
      <trkpt lat="45.53685" lon="6.82708">
        <ele>2456.1</ele>
        <time>2021-03-30T13:45:20Z</time>
      </trkpt>
      <trkpt lat="45.53684" lon="6.82709">
        <ele>2456.1</ele>
        <time>2021-03-30T13:45:21Z</time>
      </trkpt>
      <trkpt lat="45.53684" lon="6.8271">
        <ele>2456.1</ele>
        <time>2021-03-30T13:45:22Z</time>
      </trkpt>
      <trkpt lat="45.53684" lon="6.82711">
        <ele>2456.5</ele>
        <time>2021-03-30T13:45:23Z</time>
      </trkpt>
      <trkpt lat="45.53684" lon="6.82711">
        <ele>2455.3</ele>
        <time>2021-03-30T13:45:24Z</time>
      </trkpt>
      <trkpt lat="45.53683" lon="6.82712">
        <ele>2455.3</ele>
        <time>2021-03-30T13:45:25Z</time>
      </trkpt>
      <trkpt lat="45.53683" lon="6.82713">
        <ele>2455.3</ele>
        <time>2021-03-30T13:45:26Z</time>
      </trkpt>
      <trkpt lat="45.53683" lon="6.82714">
        <ele>2455.3</ele>
        <time>2021-03-30T13:45:27Z</time>
      </trkpt>
      <trkpt lat="45.53683" lon="6.82714">
        <ele>2455.3</ele>
        <time>2021-03-30T13:45:28Z</time>
      </trkpt>
      <trkpt lat="45.53682" lon="6.82715">
        <ele>2455.6</ele>
        <time>2021-03-30T13:45:29Z</time>
      </trkpt>
      <trkpt lat="45.53682" lon="6.82716">
        <ele>2455.6</ele>
        <time>2021-03-30T13:45:39Z</time>
      </trkpt>
      <trkpt lat="45.53682" lon="6.82717">
        <ele>2455.6</ele>
        <time>2021-03-30T13:45:40Z</time>
      </trkpt>
      <trkpt lat="45.53682" lon="6.82717">
        <ele>2455.6</ele>
        <time>2021-03-30T13:45:41Z</time>
      </trkpt>
      <trkpt lat="45.53681" lon="6.82718">
        <ele>2455.6</ele>
        <time>2021-03-30T13:45:42Z</time>
      </trkpt>
      <trkpt lat="45.53681" lon="6.82719">
        <ele>2455.6</ele>
        <time>2021-03-30T13:45:43Z</time>
      </trkpt>
      <trkpt lat="45.5368" lon="6.82719">
        <ele>2454.8</ele>
        <time>2021-03-30T13:45:44Z</time>
      </trkpt>
      <trkpt lat="45.5368" lon="6.82719">
        <ele>2454.8</ele>
        <time>2021-03-30T13:45:45Z</time>
      </trkpt>
      <trkpt lat="45.5368" lon="6.82719">
        <ele>2454.8</ele>
        <time>2021-03-30T13:45:46Z</time>
      </trkpt>
      <trkpt lat="45.53679" lon="6.8272">
        <ele>2454.8</ele>
        <time>2021-03-30T13:45:47Z</time>
      </trkpt>
      <trkpt lat="45.53679" lon="6.8272">
        <ele>2454.8</ele>
        <time>2021-03-30T13:45:48Z</time>
      </trkpt>
      <trkpt lat="45.53679" lon="6.8272">
        <ele>2454.8</ele>
        <time>2021-03-30T13:45:49Z</time>
      </trkpt>
      <trkpt lat="45.53678" lon="6.82721">
        <ele>2454.8</ele>
        <time>2021-03-30T13:45:50Z</time>
      </trkpt>
      <trkpt lat="45.53678" lon="6.82721">
        <ele>2454.8</ele>
        <time>2021-03-30T13:45:51Z</time>
      </trkpt>
      <trkpt lat="45.53678" lon="6.82721">
        <ele>2453.7</ele>
        <time>2021-03-30T13:45:52Z</time>
      </trkpt>
      <trkpt lat="45.53677" lon="6.82721">
        <ele>2453.7</ele>
        <time>2021-03-30T13:45:53Z</time>
      </trkpt>
      <trkpt lat="45.53677" lon="6.82722">
        <ele>2453.7</ele>
        <time>2021-03-30T13:45:54Z</time>
      </trkpt>
      <trkpt lat="45.53676" lon="6.82722">
        <ele>2453.7</ele>
        <time>2021-03-30T13:45:55Z</time>
      </trkpt>
      <trkpt lat="45.53676" lon="6.82723">
        <ele>2453.7</ele>
        <time>2021-03-30T13:45:56Z</time>
      </trkpt>
      <trkpt lat="45.53675" lon="6.82724">
        <ele>2454.1</ele>
        <time>2021-03-30T13:45:57Z</time>
      </trkpt>
      <trkpt lat="45.53675" lon="6.82725">
        <ele>2454.1</ele>
        <time>2021-03-30T13:45:58Z</time>
      </trkpt>
      <trkpt lat="45.53675" lon="6.82726">
        <ele>2454.1</ele>
        <time>2021-03-30T13:45:59Z</time>
      </trkpt>
      <trkpt lat="45.53675" lon="6.82726">
        <ele>2454.1</ele>
        <time>2021-03-30T13:46:00Z</time>
      </trkpt>
      <trkpt lat="45.53674" lon="6.82727">
        <ele>2452.9</ele>
        <time>2021-03-30T13:46:01Z</time>
      </trkpt>
      <trkpt lat="45.53674" lon="6.82728">
        <ele>2453.3</ele>
        <time>2021-03-30T13:46:02Z</time>
      </trkpt>
      <trkpt lat="45.53674" lon="6.82729">
        <ele>2453.3</ele>
        <time>2021-03-30T13:46:03Z</time>
      </trkpt>
      <trkpt lat="45.53674" lon="6.8273">
        <ele>2453.3</ele>
        <time>2021-03-30T13:46:04Z</time>
      </trkpt>
      <trkpt lat="45.53673" lon="6.8273">
        <ele>2453.3</ele>
        <time>2021-03-30T13:46:05Z</time>
      </trkpt>
      <trkpt lat="45.53673" lon="6.82731">
        <ele>2453.3</ele>
        <time>2021-03-30T13:46:06Z</time>
      </trkpt>
      <trkpt lat="45.53673" lon="6.82732">
        <ele>2453.3</ele>
        <time>2021-03-30T13:46:07Z</time>
      </trkpt>
      <trkpt lat="45.53672" lon="6.82732">
        <ele>2453.7</ele>
        <time>2021-03-30T13:46:08Z</time>
      </trkpt>
      <trkpt lat="45.53672" lon="6.82733">
        <ele>2452.5</ele>
        <time>2021-03-30T13:46:09Z</time>
      </trkpt>
      <trkpt lat="45.53671" lon="6.82733">
        <ele>2452.5</ele>
        <time>2021-03-30T13:46:10Z</time>
      </trkpt>
      <trkpt lat="45.53671" lon="6.82734">
        <ele>2452.5</ele>
        <time>2021-03-30T13:46:11Z</time>
      </trkpt>
      <trkpt lat="45.5367" lon="6.82734">
        <ele>2452.5</ele>
        <time>2021-03-30T13:46:12Z</time>
      </trkpt>
      <trkpt lat="45.5367" lon="6.82735">
        <ele>2452.5</ele>
        <time>2021-03-30T13:46:13Z</time>
      </trkpt>
      <trkpt lat="45.5367" lon="6.82735">
        <ele>2452.5</ele>
        <time>2021-03-30T13:46:14Z</time>
      </trkpt>
      <trkpt lat="45.5367" lon="6.82736">
        <ele>2452.5</ele>
        <time>2021-03-30T13:46:15Z</time>
      </trkpt>
      <trkpt lat="45.53669" lon="6.82736">
        <ele>2453</ele>
        <time>2021-03-30T13:46:16Z</time>
      </trkpt>
      <trkpt lat="45.53669" lon="6.82737">
        <ele>2453</ele>
        <time>2021-03-30T13:46:17Z</time>
      </trkpt>
      <trkpt lat="45.53668" lon="6.82737">
        <ele>2451.7</ele>
        <time>2021-03-30T13:46:18Z</time>
      </trkpt>
      <trkpt lat="45.53668" lon="6.82738">
        <ele>2451.7</ele>
        <time>2021-03-30T13:46:19Z</time>
      </trkpt>
      <trkpt lat="45.53668" lon="6.82739">
        <ele>2451.7</ele>
        <time>2021-03-30T13:46:20Z</time>
      </trkpt>
      <trkpt lat="45.53667" lon="6.82739">
        <ele>2451.7</ele>
        <time>2021-03-30T13:46:21Z</time>
      </trkpt>
      <trkpt lat="45.53667" lon="6.8274">
        <ele>2451.7</ele>
        <time>2021-03-30T13:46:22Z</time>
      </trkpt>
      <trkpt lat="45.53668" lon="6.8274">
        <ele>2451.7</ele>
        <time>2021-03-30T13:46:23Z</time>
      </trkpt>
      <trkpt lat="45.53669" lon="6.82739">
        <ele>2453</ele>
        <time>2021-03-30T13:46:24Z</time>
      </trkpt>
      <trkpt lat="45.5367" lon="6.82739">
        <ele>2453</ele>
        <time>2021-03-30T13:46:25Z</time>
      </trkpt>
      <trkpt lat="45.53671" lon="6.82739">
        <ele>2453</ele>
        <time>2021-03-30T13:46:26Z</time>
      </trkpt>
      <trkpt lat="45.53673" lon="6.82738">
        <ele>2454.3</ele>
        <time>2021-03-30T13:46:27Z</time>
      </trkpt>
      <trkpt lat="45.53674" lon="6.82738">
        <ele>2454.3</ele>
        <time>2021-03-30T13:46:50Z</time>
      </trkpt>
      <trkpt lat="45.53675" lon="6.82737">
        <ele>2455.4</ele>
        <time>2021-03-30T13:46:51Z</time>
      </trkpt>
      <trkpt lat="45.53677" lon="6.82737">
        <ele>2455.4</ele>
        <time>2021-03-30T13:46:52Z</time>
      </trkpt>
      <trkpt lat="45.53678" lon="6.82736">
        <ele>2456.4</ele>
        <time>2021-03-30T13:46:53Z</time>
      </trkpt>
      <trkpt lat="45.53679" lon="6.82736">
        <ele>2456.4</ele>
        <time>2021-03-30T13:46:54Z</time>
      </trkpt>
      <trkpt lat="45.53679" lon="6.82736">
        <ele>2456.4</ele>
        <time>2021-03-30T13:46:55Z</time>
      </trkpt>
      <trkpt lat="45.5368" lon="6.82736">
        <ele>2456.4</ele>
        <time>2021-03-30T13:46:56Z</time>
      </trkpt>
      <trkpt lat="45.53681" lon="6.82736">
        <ele>2456.4</ele>
        <time>2021-03-30T13:46:57Z</time>
      </trkpt>
      <trkpt lat="45.53681" lon="6.82736">
        <ele>2457.5</ele>
        <time>2021-03-30T13:46:58Z</time>
      </trkpt>
      <trkpt lat="45.53682" lon="6.82736">
        <ele>2457.5</ele>
        <time>2021-03-30T13:46:59Z</time>
      </trkpt>
      <trkpt lat="45.53682" lon="6.82736">
        <ele>2457</ele>
        <time>2021-03-30T13:47:00Z</time>
      </trkpt>
      <trkpt lat="45.53683" lon="6.82736">
        <ele>2457</ele>
        <time>2021-03-30T13:47:01Z</time>
      </trkpt>
      <trkpt lat="45.53683" lon="6.82735">
        <ele>2457</ele>
        <time>2021-03-30T13:47:02Z</time>
      </trkpt>
      <trkpt lat="45.53684" lon="6.82735">
        <ele>2458.1</ele>
        <time>2021-03-30T13:47:03Z</time>
      </trkpt>
      <trkpt lat="45.53685" lon="6.82734">
        <ele>2458.1</ele>
        <time>2021-03-30T13:47:04Z</time>
      </trkpt>
      <trkpt lat="45.53686" lon="6.82734">
        <ele>2458.1</ele>
        <time>2021-03-30T13:47:05Z</time>
      </trkpt>
      <trkpt lat="45.53686" lon="6.82733">
        <ele>2458.1</ele>
        <time>2021-03-30T13:47:06Z</time>
      </trkpt>
      <trkpt lat="45.53687" lon="6.82733">
        <ele>2459.3</ele>
        <time>2021-03-30T13:47:07Z</time>
      </trkpt>
      <trkpt lat="45.53687" lon="6.82732">
        <ele>2459.3</ele>
        <time>2021-03-30T13:47:08Z</time>
      </trkpt>
      <trkpt lat="45.53688" lon="6.82732">
        <ele>2459.3</ele>
        <time>2021-03-30T13:47:09Z</time>
      </trkpt>
      <trkpt lat="45.53689" lon="6.82732">
        <ele>2459.3</ele>
        <time>2021-03-30T13:47:10Z</time>
      </trkpt>
      <trkpt lat="45.5369" lon="6.82732">
        <ele>2460.5</ele>
        <time>2021-03-30T13:47:11Z</time>
      </trkpt>
      <trkpt lat="45.53691" lon="6.82732">
        <ele>2460.5</ele>
        <time>2021-03-30T13:47:12Z</time>
      </trkpt>
      <trkpt lat="45.53692" lon="6.82732">
        <ele>2460.5</ele>
        <time>2021-03-30T13:47:13Z</time>
      </trkpt>
      <trkpt lat="45.53693" lon="6.82732">
        <ele>2461.7</ele>
        <time>2021-03-30T13:47:14Z</time>
      </trkpt>
      <trkpt lat="45.53694" lon="6.82732">
        <ele>2461.7</ele>
        <time>2021-03-30T13:47:15Z</time>
      </trkpt>
      <trkpt lat="45.53694" lon="6.82732">
        <ele>2461.7</ele>
        <time>2021-03-30T13:47:16Z</time>
      </trkpt>
      <trkpt lat="45.53695" lon="6.82732">
        <ele>2461.7</ele>
        <time>2021-03-30T13:47:17Z</time>
      </trkpt>
      <trkpt lat="45.53695" lon="6.82731">
        <ele>2461.3</ele>
        <time>2021-03-30T13:47:18Z</time>
      </trkpt>
      <trkpt lat="45.53696" lon="6.82731">
        <ele>2462.5</ele>
        <time>2021-03-30T13:47:19Z</time>
      </trkpt>
      <trkpt lat="45.53696" lon="6.82731">
        <ele>2462.5</ele>
        <time>2021-03-30T13:47:20Z</time>
      </trkpt>
      <trkpt lat="45.53697" lon="6.8273">
        <ele>2462.5</ele>
        <time>2021-03-30T13:47:21Z</time>
      </trkpt>
      <trkpt lat="45.53697" lon="6.8273">
        <ele>2462.5</ele>
        <time>2021-03-30T13:47:22Z</time>
      </trkpt>
      <trkpt lat="45.53698" lon="6.82729">
        <ele>2462.5</ele>
        <time>2021-03-30T13:47:23Z</time>
      </trkpt>
      <trkpt lat="45.53698" lon="6.82729">
        <ele>2462.5</ele>
        <time>2021-03-30T13:47:24Z</time>
      </trkpt>
      <trkpt lat="45.53699" lon="6.82729">
        <ele>2463.6</ele>
        <time>2021-03-30T13:47:25Z</time>
      </trkpt>
      <trkpt lat="45.53699" lon="6.82729">
        <ele>2463.6</ele>
        <time>2021-03-30T13:47:26Z</time>
      </trkpt>
      <trkpt lat="45.53699" lon="6.82728">
        <ele>2463.6</ele>
        <time>2021-03-30T13:47:27Z</time>
      </trkpt>
      <trkpt lat="45.537" lon="6.82728">
        <ele>2463.6</ele>
        <time>2021-03-30T13:47:28Z</time>
      </trkpt>
      <trkpt lat="45.537" lon="6.82728">
        <ele>2463.6</ele>
        <time>2021-03-30T13:47:29Z</time>
      </trkpt>
      <trkpt lat="45.537" lon="6.82728">
        <ele>2463.6</ele>
        <time>2021-03-30T13:47:30Z</time>
      </trkpt>
      <trkpt lat="45.537" lon="6.82728">
        <ele>2463.6</ele>
        <time>2021-03-30T13:47:31Z</time>
      </trkpt>
      <trkpt lat="45.537" lon="6.82727">
        <ele>2463.4</ele>
        <time>2021-03-30T13:47:32Z</time>
      </trkpt>
      <trkpt lat="45.53701" lon="6.82727">
        <ele>2463.4</ele>
        <time>2021-03-30T13:47:33Z</time>
      </trkpt>
      <trkpt lat="45.53701" lon="6.82726">
        <ele>2463.4</ele>
        <time>2021-03-30T13:47:34Z</time>
      </trkpt>
      <trkpt lat="45.53702" lon="6.82726">
        <ele>2464.5</ele>
        <time>2021-03-30T13:47:35Z</time>
      </trkpt>
      <trkpt lat="45.53702" lon="6.82726">
        <ele>2464.5</ele>
        <time>2021-03-30T13:47:36Z</time>
      </trkpt>
      <trkpt lat="45.53703" lon="6.82726">
        <ele>2464.5</ele>
        <time>2021-03-30T13:47:37Z</time>
      </trkpt>
      <trkpt lat="45.53703" lon="6.82726">
        <ele>2464.5</ele>
        <time>2021-03-30T13:47:38Z</time>
      </trkpt>
      <trkpt lat="45.53703" lon="6.82726">
        <ele>2464.5</ele>
        <time>2021-03-30T13:47:39Z</time>
      </trkpt>
      <trkpt lat="45.53704" lon="6.82726">
        <ele>2464.5</ele>
        <time>2021-03-30T13:47:40Z</time>
      </trkpt>
      <trkpt lat="45.53705" lon="6.82726">
        <ele>2464.5</ele>
        <time>2021-03-30T13:47:41Z</time>
      </trkpt>
      <trkpt lat="45.53705" lon="6.82726">
        <ele>2465.5</ele>
        <time>2021-03-30T13:47:42Z</time>
      </trkpt>
      <trkpt lat="45.53705" lon="6.82726">
        <ele>2465.5</ele>
        <time>2021-03-30T13:47:43Z</time>
      </trkpt>
      <trkpt lat="45.53705" lon="6.82726">
        <ele>2465.5</ele>
        <time>2021-03-30T13:47:44Z</time>
      </trkpt>
      <trkpt lat="45.53706" lon="6.82726">
        <ele>2465.5</ele>
        <time>2021-03-30T13:47:45Z</time>
      </trkpt>
      <trkpt lat="45.53706" lon="6.82726">
        <ele>2465.5</ele>
        <time>2021-03-30T13:47:46Z</time>
      </trkpt>
      <trkpt lat="45.53707" lon="6.82725">
        <ele>2465.5</ele>
        <time>2021-03-30T13:47:47Z</time>
      </trkpt>
      <trkpt lat="45.53707" lon="6.82725">
        <ele>2465.5</ele>
        <time>2021-03-30T13:47:48Z</time>
      </trkpt>
      <trkpt lat="45.53708" lon="6.82725">
        <ele>2466.5</ele>
        <time>2021-03-30T13:47:49Z</time>
      </trkpt>
      <trkpt lat="45.53708" lon="6.82725">
        <ele>2466.5</ele>
        <time>2021-03-30T13:47:50Z</time>
      </trkpt>
      <trkpt lat="45.53709" lon="6.82725">
        <ele>2466.5</ele>
        <time>2021-03-30T13:47:51Z</time>
      </trkpt>
      <trkpt lat="45.5371" lon="6.82725">
        <ele>2466.5</ele>
        <time>2021-03-30T13:47:52Z</time>
      </trkpt>
      <trkpt lat="45.5371" lon="6.82725">
        <ele>2466.5</ele>
        <time>2021-03-30T13:47:53Z</time>
      </trkpt>
      <trkpt lat="45.53711" lon="6.82725">
        <ele>2466.5</ele>
        <time>2021-03-30T13:47:54Z</time>
      </trkpt>
      <trkpt lat="45.53711" lon="6.82724">
        <ele>2467.4</ele>
        <time>2021-03-30T13:47:55Z</time>
      </trkpt>
      <trkpt lat="45.53712" lon="6.82724">
        <ele>2467.4</ele>
        <time>2021-03-30T13:47:56Z</time>
      </trkpt>
      <trkpt lat="45.53712" lon="6.82724">
        <ele>2467.4</ele>
        <time>2021-03-30T13:47:57Z</time>
      </trkpt>
      <trkpt lat="45.53712" lon="6.82723">
        <ele>2467.4</ele>
        <time>2021-03-30T13:47:58Z</time>
      </trkpt>
      <trkpt lat="45.53713" lon="6.82723">
        <ele>2467.3</ele>
        <time>2021-03-30T13:47:59Z</time>
      </trkpt>
      <trkpt lat="45.53713" lon="6.82723">
        <ele>2467.3</ele>
        <time>2021-03-30T13:48:00Z</time>
      </trkpt>
      <trkpt lat="45.53713" lon="6.82723">
        <ele>2467.3</ele>
        <time>2021-03-30T13:48:01Z</time>
      </trkpt>
      <trkpt lat="45.53713" lon="6.82722">
        <ele>2467.3</ele>
        <time>2021-03-30T13:48:02Z</time>
      </trkpt>
      <trkpt lat="45.53713" lon="6.82721">
        <ele>2467.3</ele>
        <time>2021-03-30T13:48:03Z</time>
      </trkpt>
      <trkpt lat="45.53714" lon="6.82721">
        <ele>2468.8</ele>
        <time>2021-03-30T13:48:04Z</time>
      </trkpt>
      <trkpt lat="45.53714" lon="6.82721">
        <ele>2468.8</ele>
        <time>2021-03-30T13:48:05Z</time>
      </trkpt>
      <trkpt lat="45.53715" lon="6.8272">
        <ele>2468.8</ele>
        <time>2021-03-30T13:48:06Z</time>
      </trkpt>
      <trkpt lat="45.53715" lon="6.82719">
        <ele>2468.8</ele>
        <time>2021-03-30T13:48:07Z</time>
      </trkpt>
      <trkpt lat="45.53716" lon="6.82721">
        <ele>2468.8</ele>
        <time>2021-03-30T13:48:08Z</time>
      </trkpt>
      <trkpt lat="45.53717" lon="6.82722">
        <ele>2469.8</ele>
        <time>2021-03-30T13:48:09Z</time>
      </trkpt>
      <trkpt lat="45.53718" lon="6.82724">
        <ele>2469.8</ele>
        <time>2021-03-30T13:48:10Z</time>
      </trkpt>
      <trkpt lat="45.53718" lon="6.82726">
        <ele>2469.8</ele>
        <time>2021-03-30T13:48:11Z</time>
      </trkpt>
      <trkpt lat="45.53719" lon="6.82727">
        <ele>2469.9</ele>
        <time>2021-03-30T13:48:12Z</time>
      </trkpt>
      <trkpt lat="45.5372" lon="6.82729">
        <ele>2470.9</ele>
        <time>2021-03-30T13:48:13Z</time>
      </trkpt>
      <trkpt lat="45.5372" lon="6.82731">
        <ele>2470.9</ele>
        <time>2021-03-30T13:48:48Z</time>
      </trkpt>
      <trkpt lat="45.53721" lon="6.82733">
        <ele>2471.1</ele>
        <time>2021-03-30T13:48:49Z</time>
      </trkpt>
      <trkpt lat="45.53722" lon="6.82734">
        <ele>2471.3</ele>
        <time>2021-03-30T13:48:50Z</time>
      </trkpt>
      <trkpt lat="45.53723" lon="6.82736">
        <ele>2471.5</ele>
        <time>2021-03-30T13:48:51Z</time>
      </trkpt>
      <trkpt lat="45.53723" lon="6.82737">
        <ele>2471.7</ele>
        <time>2021-03-30T13:48:52Z</time>
      </trkpt>
      <trkpt lat="45.53722" lon="6.82738">
        <ele>2471.8</ele>
        <time>2021-03-30T13:48:53Z</time>
      </trkpt>
      <trkpt lat="45.53722" lon="6.82739">
        <ele>2471.9</ele>
        <time>2021-03-30T13:48:54Z</time>
      </trkpt>
      <trkpt lat="45.53722" lon="6.8274">
        <ele>2472</ele>
        <time>2021-03-30T13:48:55Z</time>
      </trkpt>
      <trkpt lat="45.53722" lon="6.82741">
        <ele>2472.2</ele>
        <time>2021-03-30T13:48:56Z</time>
      </trkpt>
      <trkpt lat="45.53722" lon="6.82742">
        <ele>2472.3</ele>
        <time>2021-03-30T13:48:57Z</time>
      </trkpt>
      <trkpt lat="45.53722" lon="6.82743">
        <ele>2472.4</ele>
        <time>2021-03-30T13:48:58Z</time>
      </trkpt>
      <trkpt lat="45.53722" lon="6.82744">
        <ele>2472.5</ele>
        <time>2021-03-30T13:48:59Z</time>
      </trkpt>
      <trkpt lat="45.53722" lon="6.82745">
        <ele>2472.6</ele>
        <time>2021-03-30T13:49:00Z</time>
      </trkpt>
      <trkpt lat="45.53722" lon="6.82746">
        <ele>2472.7</ele>
        <time>2021-03-30T13:49:01Z</time>
      </trkpt>
      <trkpt lat="45.53722" lon="6.82747">
        <ele>2472.8</ele>
        <time>2021-03-30T13:49:02Z</time>
      </trkpt>
      <trkpt lat="45.53722" lon="6.82748">
        <ele>2473</ele>
        <time>2021-03-30T13:49:03Z</time>
      </trkpt>
      <trkpt lat="45.53722" lon="6.82749">
        <ele>2473.1</ele>
        <time>2021-03-30T13:49:04Z</time>
      </trkpt>
      <trkpt lat="45.53722" lon="6.8275">
        <ele>2473.2</ele>
        <time>2021-03-30T13:49:05Z</time>
      </trkpt>
      <trkpt lat="45.53722" lon="6.8275">
        <ele>2473.2</ele>
        <time>2021-03-30T13:49:06Z</time>
      </trkpt>
      <trkpt lat="45.53722" lon="6.82751">
        <ele>2473.3</ele>
        <time>2021-03-30T13:49:07Z</time>
      </trkpt>
      <trkpt lat="45.53723" lon="6.82751">
        <ele>2473.3</ele>
        <time>2021-03-30T13:49:08Z</time>
      </trkpt>
      <trkpt lat="45.53723" lon="6.82751">
        <ele>2473.4</ele>
        <time>2021-03-30T13:49:09Z</time>
      </trkpt>
      <trkpt lat="45.53723" lon="6.82751">
        <ele>2473.4</ele>
        <time>2021-03-30T13:49:10Z</time>
      </trkpt>
      <trkpt lat="45.53723" lon="6.8275">
        <ele>2473.5</ele>
        <time>2021-03-30T13:49:11Z</time>
      </trkpt>
      <trkpt lat="45.53723" lon="6.82749">
        <ele>2473.6</ele>
        <time>2021-03-30T13:49:12Z</time>
      </trkpt>
      <trkpt lat="45.53724" lon="6.82749">
        <ele>2473.7</ele>
        <time>2021-03-30T13:49:13Z</time>
      </trkpt>
      <trkpt lat="45.53724" lon="6.82748">
        <ele>2473.8</ele>
        <time>2021-03-30T13:49:14Z</time>
      </trkpt>
      <trkpt lat="45.53725" lon="6.82748">
        <ele>2473.8</ele>
        <time>2021-03-30T13:49:15Z</time>
      </trkpt>
      <trkpt lat="45.53725" lon="6.82748">
        <ele>2473.9</ele>
        <time>2021-03-30T13:49:16Z</time>
      </trkpt>
      <trkpt lat="45.53725" lon="6.82747">
        <ele>2473.9</ele>
        <time>2021-03-30T13:49:17Z</time>
      </trkpt>
      <trkpt lat="45.53727" lon="6.82746">
        <ele>2474.2</ele>
        <time>2021-03-30T13:49:18Z</time>
      </trkpt>
      <trkpt lat="45.53728" lon="6.82746">
        <ele>2474.4</ele>
        <time>2021-03-30T13:49:19Z</time>
      </trkpt>
      <trkpt lat="45.53729" lon="6.82745">
        <ele>2474.6</ele>
        <time>2021-03-30T13:49:20Z</time>
      </trkpt>
      <trkpt lat="45.5373" lon="6.82744">
        <ele>2474.9</ele>
        <time>2021-03-30T13:49:21Z</time>
      </trkpt>
      <trkpt lat="45.53732" lon="6.82743">
        <ele>2475.1</ele>
        <time>2021-03-30T13:49:22Z</time>
      </trkpt>
      <trkpt lat="45.53733" lon="6.82742">
        <ele>2475.3</ele>
        <time>2021-03-30T13:49:23Z</time>
      </trkpt>
      <trkpt lat="45.53734" lon="6.82741">
        <ele>2475.5</ele>
        <time>2021-03-30T13:49:38Z</time>
      </trkpt>
      <trkpt lat="45.53736" lon="6.8274">
        <ele>2475.7</ele>
        <time>2021-03-30T13:49:39Z</time>
      </trkpt>
      <trkpt lat="45.53737" lon="6.8274">
        <ele>2475.9</ele>
        <time>2021-03-30T13:49:40Z</time>
      </trkpt>
      <trkpt lat="45.53738" lon="6.82739">
        <ele>2476.1</ele>
        <time>2021-03-30T13:49:41Z</time>
      </trkpt>
      <trkpt lat="45.53739" lon="6.82739">
        <ele>2476.3</ele>
        <time>2021-03-30T13:49:42Z</time>
      </trkpt>
      <trkpt lat="45.53739" lon="6.8274">
        <ele>2476.4</ele>
        <time>2021-03-30T13:49:43Z</time>
      </trkpt>
      <trkpt lat="45.5374" lon="6.82741">
        <ele>2476.5</ele>
        <time>2021-03-30T13:49:44Z</time>
      </trkpt>
      <trkpt lat="45.5374" lon="6.82742">
        <ele>2476.6</ele>
        <time>2021-03-30T13:49:45Z</time>
      </trkpt>
      <trkpt lat="45.53741" lon="6.82742">
        <ele>2476.7</ele>
        <time>2021-03-30T13:49:46Z</time>
      </trkpt>
      <trkpt lat="45.53741" lon="6.82743">
        <ele>2476.8</ele>
        <time>2021-03-30T13:49:47Z</time>
      </trkpt>
      <trkpt lat="45.53742" lon="6.82744">
        <ele>2477</ele>
        <time>2021-03-30T13:49:48Z</time>
      </trkpt>
      <trkpt lat="45.53742" lon="6.82745">
        <ele>2477.1</ele>
        <time>2021-03-30T13:49:49Z</time>
      </trkpt>
      <trkpt lat="45.53743" lon="6.82746">
        <ele>2477.2</ele>
        <time>2021-03-30T13:50:53Z</time>
      </trkpt>
      <trkpt lat="45.53743" lon="6.82747">
        <ele>2477.3</ele>
        <time>2021-03-30T13:50:54Z</time>
      </trkpt>
      <trkpt lat="45.53744" lon="6.82748">
        <ele>2477.4</ele>
        <time>2021-03-30T13:50:55Z</time>
      </trkpt>
      <trkpt lat="45.53744" lon="6.82748">
        <ele>2477.6</ele>
        <time>2021-03-30T13:50:56Z</time>
      </trkpt>
      <trkpt lat="45.53745" lon="6.82749">
        <ele>2477.7</ele>
        <time>2021-03-30T13:50:57Z</time>
      </trkpt>
      <trkpt lat="45.53746" lon="6.82749">
        <ele>2477.8</ele>
        <time>2021-03-30T13:50:58Z</time>
      </trkpt>
      <trkpt lat="45.53747" lon="6.82749">
        <ele>2477.9</ele>
        <time>2021-03-30T13:50:59Z</time>
      </trkpt>
      <trkpt lat="45.53747" lon="6.82749">
        <ele>2478</ele>
        <time>2021-03-30T13:51:00Z</time>
      </trkpt>
      <trkpt lat="45.53749" lon="6.82749">
        <ele>2478.3</ele>
        <time>2021-03-30T13:51:01Z</time>
      </trkpt>
      <trkpt lat="45.53749" lon="6.82749">
        <ele>2478.4</ele>
        <time>2021-03-30T13:51:02Z</time>
      </trkpt>
      <trkpt lat="45.5375" lon="6.8275">
        <ele>2478.5</ele>
        <time>2021-03-30T13:51:03Z</time>
      </trkpt>
      <trkpt lat="45.5375" lon="6.8275">
        <ele>2478.6</ele>
        <time>2021-03-30T13:51:04Z</time>
      </trkpt>
      <trkpt lat="45.53751" lon="6.8275">
        <ele>2478.7</ele>
        <time>2021-03-30T13:51:05Z</time>
      </trkpt>
      <trkpt lat="45.53752" lon="6.82751">
        <ele>2479</ele>
        <time>2021-03-30T13:51:06Z</time>
      </trkpt>
      <trkpt lat="45.53753" lon="6.82751">
        <ele>2479.1</ele>
        <time>2021-03-30T13:51:07Z</time>
      </trkpt>
      <trkpt lat="45.53753" lon="6.82751">
        <ele>2479.2</ele>
        <time>2021-03-30T13:51:08Z</time>
      </trkpt>
      <trkpt lat="45.53754" lon="6.82751">
        <ele>2479.2</ele>
        <time>2021-03-30T13:51:09Z</time>
      </trkpt>
      <trkpt lat="45.53754" lon="6.82751">
        <ele>2479.3</ele>
        <time>2021-03-30T13:51:10Z</time>
      </trkpt>
      <trkpt lat="45.53755" lon="6.82751">
        <ele>2479.5</ele>
        <time>2021-03-30T13:51:11Z</time>
      </trkpt>
      <trkpt lat="45.53755" lon="6.82752">
        <ele>2479.5</ele>
        <time>2021-03-30T13:51:12Z</time>
      </trkpt>
      <trkpt lat="45.53755" lon="6.82752">
        <ele>2479.6</ele>
        <time>2021-03-30T13:51:13Z</time>
      </trkpt>
      <trkpt lat="45.53756" lon="6.82752">
        <ele>2479.7</ele>
        <time>2021-03-30T13:51:14Z</time>
      </trkpt>
      <trkpt lat="45.53756" lon="6.82752">
        <ele>2479.8</ele>
        <time>2021-03-30T13:51:15Z</time>
      </trkpt>
      <trkpt lat="45.53757" lon="6.82753">
        <ele>2479.9</ele>
        <time>2021-03-30T13:51:16Z</time>
      </trkpt>
      <trkpt lat="45.53757" lon="6.82754">
        <ele>2480</ele>
        <time>2021-03-30T13:51:17Z</time>
      </trkpt>
      <trkpt lat="45.53758" lon="6.82754">
        <ele>2480.1</ele>
        <time>2021-03-30T13:51:18Z</time>
      </trkpt>
      <trkpt lat="45.53758" lon="6.82754">
        <ele>2480.2</ele>
        <time>2021-03-30T13:51:19Z</time>
      </trkpt>
      <trkpt lat="45.53759" lon="6.82754">
        <ele>2480.3</ele>
        <time>2021-03-30T13:51:20Z</time>
      </trkpt>
      <trkpt lat="45.53759" lon="6.82753">
        <ele>2480.5</ele>
        <time>2021-03-30T13:51:21Z</time>
      </trkpt>
      <trkpt lat="45.5376" lon="6.82754">
        <ele>2480.6</ele>
        <time>2021-03-30T13:51:22Z</time>
      </trkpt>
      <trkpt lat="45.5376" lon="6.82754">
        <ele>2480.7</ele>
        <time>2021-03-30T13:51:23Z</time>
      </trkpt>
      <trkpt lat="45.53761" lon="6.82754">
        <ele>2480.8</ele>
        <time>2021-03-30T13:51:24Z</time>
      </trkpt>
      <trkpt lat="45.53761" lon="6.82755">
        <ele>2480.9</ele>
        <time>2021-03-30T13:51:25Z</time>
      </trkpt>
      <trkpt lat="45.53762" lon="6.82755">
        <ele>2481.1</ele>
        <time>2021-03-30T13:51:26Z</time>
      </trkpt>
      <trkpt lat="45.53762" lon="6.82755">
        <ele>2481.2</ele>
        <time>2021-03-30T13:51:27Z</time>
      </trkpt>
      <trkpt lat="45.53763" lon="6.82755">
        <ele>2481.4</ele>
        <time>2021-03-30T13:51:28Z</time>
      </trkpt>
      <trkpt lat="45.53764" lon="6.82756">
        <ele>2481.5</ele>
        <time>2021-03-30T13:51:29Z</time>
      </trkpt>
      <trkpt lat="45.53764" lon="6.82756">
        <ele>2481.6</ele>
        <time>2021-03-30T13:51:30Z</time>
      </trkpt>
      <trkpt lat="45.53765" lon="6.82756">
        <ele>2481.8</ele>
        <time>2021-03-30T13:51:31Z</time>
      </trkpt>
      <trkpt lat="45.53765" lon="6.82757">
        <ele>2481.9</ele>
        <time>2021-03-30T13:51:32Z</time>
      </trkpt>
      <trkpt lat="45.53766" lon="6.82757">
        <ele>2482</ele>
        <time>2021-03-30T13:51:33Z</time>
      </trkpt>
      <trkpt lat="45.53766" lon="6.82757">
        <ele>2482.2</ele>
        <time>2021-03-30T13:51:34Z</time>
      </trkpt>
      <trkpt lat="45.53767" lon="6.82757">
        <ele>2482.3</ele>
        <time>2021-03-30T13:51:35Z</time>
      </trkpt>
      <trkpt lat="45.53768" lon="6.82758">
        <ele>2482.5</ele>
        <time>2021-03-30T13:51:36Z</time>
      </trkpt>
      <trkpt lat="45.53768" lon="6.82759">
        <ele>2482.7</ele>
        <time>2021-03-30T13:51:37Z</time>
      </trkpt>
      <trkpt lat="45.53769" lon="6.8276">
        <ele>2482.9</ele>
        <time>2021-03-30T13:51:38Z</time>
      </trkpt>
      <trkpt lat="45.53769" lon="6.8276">
        <ele>2483.1</ele>
        <time>2021-03-30T13:51:39Z</time>
      </trkpt>
      <trkpt lat="45.5377" lon="6.82761">
        <ele>2483.3</ele>
        <time>2021-03-30T13:51:40Z</time>
      </trkpt>
      <trkpt lat="45.5377" lon="6.82761">
        <ele>2483.4</ele>
        <time>2021-03-30T13:51:41Z</time>
      </trkpt>
      <trkpt lat="45.53771" lon="6.82762">
        <ele>2483.7</ele>
        <time>2021-03-30T13:51:42Z</time>
      </trkpt>
      <trkpt lat="45.53772" lon="6.82763">
        <ele>2483.9</ele>
        <time>2021-03-30T13:51:43Z</time>
      </trkpt>
      <trkpt lat="45.53772" lon="6.82764">
        <ele>2484.2</ele>
        <time>2021-03-30T13:51:44Z</time>
      </trkpt>
      <trkpt lat="45.53773" lon="6.82765">
        <ele>2484.3</ele>
        <time>2021-03-30T13:51:45Z</time>
      </trkpt>
      <trkpt lat="45.53773" lon="6.82765">
        <ele>2484.5</ele>
        <time>2021-03-30T13:51:46Z</time>
      </trkpt>
      <trkpt lat="45.53774" lon="6.82766">
        <ele>2484.7</ele>
        <time>2021-03-30T13:51:47Z</time>
      </trkpt>
      <trkpt lat="45.53775" lon="6.82767">
        <ele>2484.9</ele>
        <time>2021-03-30T13:51:48Z</time>
      </trkpt>
      <trkpt lat="45.53775" lon="6.82767">
        <ele>2485.1</ele>
        <time>2021-03-30T13:51:49Z</time>
      </trkpt>
      <trkpt lat="45.53776" lon="6.82768">
        <ele>2485.3</ele>
        <time>2021-03-30T13:51:50Z</time>
      </trkpt>
      <trkpt lat="45.53777" lon="6.82769">
        <ele>2485.5</ele>
        <time>2021-03-30T13:51:51Z</time>
      </trkpt>
      <trkpt lat="45.53777" lon="6.82769">
        <ele>2485.7</ele>
        <time>2021-03-30T13:51:52Z</time>
      </trkpt>
      <trkpt lat="45.53778" lon="6.82769">
        <ele>2485.7</ele>
        <time>2021-03-30T13:51:53Z</time>
      </trkpt>
      <trkpt lat="45.53778" lon="6.82769">
        <ele>2485.8</ele>
        <time>2021-03-30T13:51:54Z</time>
      </trkpt>
      <trkpt lat="45.53778" lon="6.8277">
        <ele>2485.9</ele>
        <time>2021-03-30T13:51:55Z</time>
      </trkpt>
      <trkpt lat="45.53779" lon="6.8277">
        <ele>2486.1</ele>
        <time>2021-03-30T13:51:56Z</time>
      </trkpt>
      <trkpt lat="45.53779" lon="6.8277">
        <ele>2486.2</ele>
        <time>2021-03-30T13:51:57Z</time>
      </trkpt>
      <trkpt lat="45.5378" lon="6.82771">
        <ele>2486.4</ele>
        <time>2021-03-30T13:51:58Z</time>
      </trkpt>
      <trkpt lat="45.5378" lon="6.82771">
        <ele>2486.6</ele>
        <time>2021-03-30T13:51:59Z</time>
      </trkpt>
      <trkpt lat="45.53781" lon="6.82772">
        <ele>2486.7</ele>
        <time>2021-03-30T13:52:00Z</time>
      </trkpt>
      <trkpt lat="45.53781" lon="6.82772">
        <ele>2486.9</ele>
        <time>2021-03-30T13:52:01Z</time>
      </trkpt>
      <trkpt lat="45.53782" lon="6.82773">
        <ele>2487</ele>
        <time>2021-03-30T13:52:02Z</time>
      </trkpt>
      <trkpt lat="45.53782" lon="6.82773">
        <ele>2487.1</ele>
        <time>2021-03-30T13:52:03Z</time>
      </trkpt>
      <trkpt lat="45.53783" lon="6.82773">
        <ele>2487.3</ele>
        <time>2021-03-30T13:52:04Z</time>
      </trkpt>
      <trkpt lat="45.53784" lon="6.82773">
        <ele>2487.5</ele>
        <time>2021-03-30T13:52:05Z</time>
      </trkpt>
      <trkpt lat="45.53784" lon="6.82773">
        <ele>2487.6</ele>
        <time>2021-03-30T13:52:06Z</time>
      </trkpt>
      <trkpt lat="45.53785" lon="6.82773">
        <ele>2487.7</ele>
        <time>2021-03-30T13:52:07Z</time>
      </trkpt>
      <trkpt lat="45.53785" lon="6.82773">
        <ele>2487.8</ele>
        <time>2021-03-30T13:52:08Z</time>
      </trkpt>
      <trkpt lat="45.53785" lon="6.82773">
        <ele>2487.8</ele>
        <time>2021-03-30T13:52:09Z</time>
      </trkpt>
      <trkpt lat="45.53786" lon="6.82773">
        <ele>2487.9</ele>
        <time>2021-03-30T13:52:10Z</time>
      </trkpt>
      <trkpt lat="45.53787" lon="6.82774">
        <ele>2488.1</ele>
        <time>2021-03-30T13:52:11Z</time>
      </trkpt>
      <trkpt lat="45.53788" lon="6.82774">
        <ele>2488.4</ele>
        <time>2021-03-30T13:52:12Z</time>
      </trkpt>
      <trkpt lat="45.53788" lon="6.82774">
        <ele>2488.6</ele>
        <time>2021-03-30T13:52:13Z</time>
      </trkpt>
      <trkpt lat="45.53789" lon="6.82775">
        <ele>2488.8</ele>
        <time>2021-03-30T13:52:14Z</time>
      </trkpt>
      <trkpt lat="45.5379" lon="6.82775">
        <ele>2488.9</ele>
        <time>2021-03-30T13:52:15Z</time>
      </trkpt>
      <trkpt lat="45.53791" lon="6.82775">
        <ele>2489.1</ele>
        <time>2021-03-30T13:52:16Z</time>
      </trkpt>
      <trkpt lat="45.53791" lon="6.82775">
        <ele>2489.2</ele>
        <time>2021-03-30T13:52:17Z</time>
      </trkpt>
      <trkpt lat="45.53792" lon="6.82775">
        <ele>2489.3</ele>
        <time>2021-03-30T13:52:18Z</time>
      </trkpt>
      <trkpt lat="45.53792" lon="6.82776">
        <ele>2489.4</ele>
        <time>2021-03-30T13:52:19Z</time>
      </trkpt>
      <trkpt lat="45.53793" lon="6.82776">
        <ele>2489.5</ele>
        <time>2021-03-30T13:52:20Z</time>
      </trkpt>
      <trkpt lat="45.53793" lon="6.82776">
        <ele>2489.7</ele>
        <time>2021-03-30T13:52:21Z</time>
      </trkpt>
      <trkpt lat="45.53794" lon="6.82776">
        <ele>2489.8</ele>
        <time>2021-03-30T13:52:22Z</time>
      </trkpt>
      <trkpt lat="45.53794" lon="6.82777">
        <ele>2489.9</ele>
        <time>2021-03-30T13:52:23Z</time>
      </trkpt>
      <trkpt lat="45.53794" lon="6.82778">
        <ele>2490</ele>
        <time>2021-03-30T13:52:24Z</time>
      </trkpt>
      <trkpt lat="45.53795" lon="6.82778">
        <ele>2490.1</ele>
        <time>2021-03-30T13:52:25Z</time>
      </trkpt>
      <trkpt lat="45.53795" lon="6.82779">
        <ele>2490.2</ele>
        <time>2021-03-30T13:52:26Z</time>
      </trkpt>
      <trkpt lat="45.53796" lon="6.82779">
        <ele>2490.4</ele>
        <time>2021-03-30T13:52:27Z</time>
      </trkpt>
      <trkpt lat="45.53796" lon="6.8278">
        <ele>2490.5</ele>
        <time>2021-03-30T13:52:28Z</time>
      </trkpt>
      <trkpt lat="45.53797" lon="6.8278">
        <ele>2490.7</ele>
        <time>2021-03-30T13:52:29Z</time>
      </trkpt>
      <trkpt lat="45.53798" lon="6.82781">
        <ele>2490.9</ele>
        <time>2021-03-30T13:52:30Z</time>
      </trkpt>
      <trkpt lat="45.53798" lon="6.82782">
        <ele>2491</ele>
        <time>2021-03-30T13:52:31Z</time>
      </trkpt>
      <trkpt lat="45.53799" lon="6.82783">
        <ele>2491.2</ele>
        <time>2021-03-30T13:52:32Z</time>
      </trkpt>
      <trkpt lat="45.53799" lon="6.82784">
        <ele>2491.3</ele>
        <time>2021-03-30T13:52:33Z</time>
      </trkpt>
      <trkpt lat="45.53799" lon="6.82784">
        <ele>2491.3</ele>
        <time>2021-03-30T13:52:34Z</time>
      </trkpt>
      <trkpt lat="45.538" lon="6.82785">
        <ele>2491.6</ele>
        <time>2021-03-30T13:52:35Z</time>
      </trkpt>
      <trkpt lat="45.53801" lon="6.82786">
        <ele>2491.7</ele>
        <time>2021-03-30T13:52:36Z</time>
      </trkpt>
      <trkpt lat="45.53802" lon="6.82786">
        <ele>2491.9</ele>
        <time>2021-03-30T13:52:37Z</time>
      </trkpt>
      <trkpt lat="45.53802" lon="6.82787">
        <ele>2492.1</ele>
        <time>2021-03-30T13:52:38Z</time>
      </trkpt>
      <trkpt lat="45.53803" lon="6.82788">
        <ele>2492.2</ele>
        <time>2021-03-30T13:52:39Z</time>
      </trkpt>
      <trkpt lat="45.53804" lon="6.82788">
        <ele>2492.4</ele>
        <time>2021-03-30T13:52:40Z</time>
      </trkpt>
      <trkpt lat="45.53804" lon="6.82789">
        <ele>2492.5</ele>
        <time>2021-03-30T13:52:41Z</time>
      </trkpt>
      <trkpt lat="45.53805" lon="6.82789">
        <ele>2492.6</ele>
        <time>2021-03-30T13:52:42Z</time>
      </trkpt>
      <trkpt lat="45.53805" lon="6.8279">
        <ele>2492.8</ele>
        <time>2021-03-30T13:52:43Z</time>
      </trkpt>
      <trkpt lat="45.53806" lon="6.82789">
        <ele>2492.9</ele>
        <time>2021-03-30T13:52:44Z</time>
      </trkpt>
      <trkpt lat="45.53807" lon="6.82789">
        <ele>2493.1</ele>
        <time>2021-03-30T13:52:45Z</time>
      </trkpt>
      <trkpt lat="45.53807" lon="6.82789">
        <ele>2493.2</ele>
        <time>2021-03-30T13:52:46Z</time>
      </trkpt>
      <trkpt lat="45.53808" lon="6.82789">
        <ele>2493.3</ele>
        <time>2021-03-30T13:52:47Z</time>
      </trkpt>
      <trkpt lat="45.53808" lon="6.82789">
        <ele>2493.4</ele>
        <time>2021-03-30T13:52:48Z</time>
      </trkpt>
      <trkpt lat="45.53809" lon="6.8279">
        <ele>2493.5</ele>
        <time>2021-03-30T13:52:49Z</time>
      </trkpt>
      <trkpt lat="45.5381" lon="6.8279">
        <ele>2493.6</ele>
        <time>2021-03-30T13:52:50Z</time>
      </trkpt>
      <trkpt lat="45.5381" lon="6.8279">
        <ele>2493.7</ele>
        <time>2021-03-30T13:52:51Z</time>
      </trkpt>
      <trkpt lat="45.5381" lon="6.8279">
        <ele>2493.7</ele>
        <time>2021-03-30T13:52:52Z</time>
      </trkpt>
      <trkpt lat="45.53811" lon="6.82791">
        <ele>2493.9</ele>
        <time>2021-03-30T13:52:53Z</time>
      </trkpt>
      <trkpt lat="45.53811" lon="6.82791">
        <ele>2493.9</ele>
        <time>2021-03-30T13:52:54Z</time>
      </trkpt>
      <trkpt lat="45.53812" lon="6.82791">
        <ele>2494</ele>
        <time>2021-03-30T13:52:55Z</time>
      </trkpt>
      <trkpt lat="45.53812" lon="6.82792">
        <ele>2494.1</ele>
        <time>2021-03-30T13:52:56Z</time>
      </trkpt>
      <trkpt lat="45.53813" lon="6.82792">
        <ele>2494.2</ele>
        <time>2021-03-30T13:52:57Z</time>
      </trkpt>
      <trkpt lat="45.53813" lon="6.82791">
        <ele>2494.3</ele>
        <time>2021-03-30T13:52:58Z</time>
      </trkpt>
      <trkpt lat="45.53814" lon="6.82791">
        <ele>2494.4</ele>
        <time>2021-03-30T13:52:59Z</time>
      </trkpt>
      <trkpt lat="45.53814" lon="6.82792">
        <ele>2494.6</ele>
        <time>2021-03-30T13:53:00Z</time>
      </trkpt>
      <trkpt lat="45.53815" lon="6.82792">
        <ele>2494.6</ele>
        <time>2021-03-30T13:53:01Z</time>
      </trkpt>
      <trkpt lat="45.53815" lon="6.82792">
        <ele>2494.7</ele>
        <time>2021-03-30T13:53:02Z</time>
      </trkpt>
      <trkpt lat="45.53816" lon="6.82793">
        <ele>2494.8</ele>
        <time>2021-03-30T13:53:03Z</time>
      </trkpt>
      <trkpt lat="45.53816" lon="6.82793">
        <ele>2494.8</ele>
        <time>2021-03-30T13:53:04Z</time>
      </trkpt>
      <trkpt lat="45.53816" lon="6.82794">
        <ele>2495</ele>
        <time>2021-03-30T13:53:05Z</time>
      </trkpt>
      <trkpt lat="45.53817" lon="6.82794">
        <ele>2495.1</ele>
        <time>2021-03-30T13:53:06Z</time>
      </trkpt>
      <trkpt lat="45.53817" lon="6.82795">
        <ele>2495.2</ele>
        <time>2021-03-30T13:53:07Z</time>
      </trkpt>
      <trkpt lat="45.53818" lon="6.82795">
        <ele>2495.3</ele>
        <time>2021-03-30T13:53:08Z</time>
      </trkpt>
      <trkpt lat="45.53818" lon="6.82796">
        <ele>2495.4</ele>
        <time>2021-03-30T13:53:09Z</time>
      </trkpt>
      <trkpt lat="45.53818" lon="6.82797">
        <ele>2495.5</ele>
        <time>2021-03-30T13:53:10Z</time>
      </trkpt>
      <trkpt lat="45.53818" lon="6.82797">
        <ele>2495.6</ele>
        <time>2021-03-30T13:53:11Z</time>
      </trkpt>
      <trkpt lat="45.53819" lon="6.82798">
        <ele>2495.7</ele>
        <time>2021-03-30T13:53:12Z</time>
      </trkpt>
      <trkpt lat="45.53819" lon="6.82799">
        <ele>2495.8</ele>
        <time>2021-03-30T13:53:13Z</time>
      </trkpt>
      <trkpt lat="45.5382" lon="6.82799">
        <ele>2496</ele>
        <time>2021-03-30T13:53:14Z</time>
      </trkpt>
      <trkpt lat="45.5382" lon="6.828">
        <ele>2496.1</ele>
        <time>2021-03-30T13:53:15Z</time>
      </trkpt>
      <trkpt lat="45.5382" lon="6.82801">
        <ele>2496.2</ele>
        <time>2021-03-30T13:53:16Z</time>
      </trkpt>
      <trkpt lat="45.53821" lon="6.82801">
        <ele>2496.3</ele>
        <time>2021-03-30T13:53:17Z</time>
      </trkpt>
      <trkpt lat="45.53821" lon="6.82802">
        <ele>2496.4</ele>
        <time>2021-03-30T13:53:18Z</time>
      </trkpt>
      <trkpt lat="45.53822" lon="6.82803">
        <ele>2496.6</ele>
        <time>2021-03-30T13:53:19Z</time>
      </trkpt>
      <trkpt lat="45.53822" lon="6.82803">
        <ele>2496.7</ele>
        <time>2021-03-30T13:53:20Z</time>
      </trkpt>
      <trkpt lat="45.53822" lon="6.82804">
        <ele>2496.8</ele>
        <time>2021-03-30T13:53:21Z</time>
      </trkpt>
      <trkpt lat="45.53823" lon="6.82805">
        <ele>2496.9</ele>
        <time>2021-03-30T13:53:22Z</time>
      </trkpt>
      <trkpt lat="45.53823" lon="6.82806">
        <ele>2497.1</ele>
        <time>2021-03-30T13:53:23Z</time>
      </trkpt>
      <trkpt lat="45.53824" lon="6.82807">
        <ele>2497.2</ele>
        <time>2021-03-30T13:53:24Z</time>
      </trkpt>
      <trkpt lat="45.53824" lon="6.82808">
        <ele>2497.3</ele>
        <time>2021-03-30T13:53:25Z</time>
      </trkpt>
      <trkpt lat="45.53825" lon="6.82809">
        <ele>2497.5</ele>
        <time>2021-03-30T13:53:26Z</time>
      </trkpt>
      <trkpt lat="45.53825" lon="6.82809">
        <ele>2497.6</ele>
        <time>2021-03-30T13:53:27Z</time>
      </trkpt>
      <trkpt lat="45.53825" lon="6.82811">
        <ele>2497.8</ele>
        <time>2021-03-30T13:53:28Z</time>
      </trkpt>
      <trkpt lat="45.53825" lon="6.82812">
        <ele>2497.9</ele>
        <time>2021-03-30T13:53:29Z</time>
      </trkpt>
      <trkpt lat="45.53826" lon="6.82813">
        <ele>2498.1</ele>
        <time>2021-03-30T13:53:30Z</time>
      </trkpt>
      <trkpt lat="45.53826" lon="6.82814">
        <ele>2498.2</ele>
        <time>2021-03-30T13:53:31Z</time>
      </trkpt>
      <trkpt lat="45.53827" lon="6.82815">
        <ele>2498.4</ele>
        <time>2021-03-30T13:53:32Z</time>
      </trkpt>
      <trkpt lat="45.53828" lon="6.82815">
        <ele>2498.5</ele>
        <time>2021-03-30T13:53:33Z</time>
      </trkpt>
      <trkpt lat="45.53829" lon="6.82816">
        <ele>2498.7</ele>
        <time>2021-03-30T13:53:34Z</time>
      </trkpt>
      <trkpt lat="45.53829" lon="6.82817">
        <ele>2498.8</ele>
        <time>2021-03-30T13:53:35Z</time>
      </trkpt>
      <trkpt lat="45.5383" lon="6.82817">
        <ele>2499</ele>
        <time>2021-03-30T13:53:36Z</time>
      </trkpt>
      <trkpt lat="45.5383" lon="6.82818">
        <ele>2499.1</ele>
        <time>2021-03-30T13:53:37Z</time>
      </trkpt>
      <trkpt lat="45.5383" lon="6.82818">
        <ele>2499.1</ele>
        <time>2021-03-30T13:53:38Z</time>
      </trkpt>
      <trkpt lat="45.53831" lon="6.82819">
        <ele>2499.3</ele>
        <time>2021-03-30T13:53:39Z</time>
      </trkpt>
      <trkpt lat="45.53832" lon="6.82819">
        <ele>2499.4</ele>
        <time>2021-03-30T13:53:40Z</time>
      </trkpt>
      <trkpt lat="45.53833" lon="6.82819">
        <ele>2499.5</ele>
        <time>2021-03-30T13:53:41Z</time>
      </trkpt>
      <trkpt lat="45.53833" lon="6.82819">
        <ele>2499.6</ele>
        <time>2021-03-30T13:53:42Z</time>
      </trkpt>
      <trkpt lat="45.53834" lon="6.82819">
        <ele>2499.8</ele>
        <time>2021-03-30T13:53:43Z</time>
      </trkpt>
      <trkpt lat="45.53835" lon="6.82818">
        <ele>2499.9</ele>
        <time>2021-03-30T13:53:44Z</time>
      </trkpt>
      <trkpt lat="45.53835" lon="6.82818">
        <ele>2500.1</ele>
        <time>2021-03-30T13:53:45Z</time>
      </trkpt>
      <trkpt lat="45.53836" lon="6.82817">
        <ele>2500.1</ele>
        <time>2021-03-30T13:53:46Z</time>
      </trkpt>
      <trkpt lat="45.53836" lon="6.82817">
        <ele>2500.2</ele>
        <time>2021-03-30T13:53:47Z</time>
      </trkpt>
      <trkpt lat="45.53837" lon="6.82817">
        <ele>2500.3</ele>
        <time>2021-03-30T13:53:48Z</time>
      </trkpt>
      <trkpt lat="45.53837" lon="6.82817">
        <ele>2500.4</ele>
        <time>2021-03-30T13:53:49Z</time>
      </trkpt>
      <trkpt lat="45.53838" lon="6.82817">
        <ele>2500.5</ele>
        <time>2021-03-30T13:53:50Z</time>
      </trkpt>
      <trkpt lat="45.53838" lon="6.82817">
        <ele>2500.6</ele>
        <time>2021-03-30T13:53:51Z</time>
      </trkpt>
      <trkpt lat="45.53839" lon="6.82817">
        <ele>2500.7</ele>
        <time>2021-03-30T13:53:52Z</time>
      </trkpt>
      <trkpt lat="45.53839" lon="6.82817">
        <ele>2500.8</ele>
        <time>2021-03-30T13:53:53Z</time>
      </trkpt>
      <trkpt lat="45.53839" lon="6.82816">
        <ele>2500.9</ele>
        <time>2021-03-30T13:53:54Z</time>
      </trkpt>
      <trkpt lat="45.5384" lon="6.82816">
        <ele>2500.9</ele>
        <time>2021-03-30T13:53:55Z</time>
      </trkpt>
      <trkpt lat="45.5384" lon="6.82816">
        <ele>2501</ele>
        <time>2021-03-30T13:53:56Z</time>
      </trkpt>
      <trkpt lat="45.53841" lon="6.82816">
        <ele>2501.1</ele>
        <time>2021-03-30T13:53:57Z</time>
      </trkpt>
      <trkpt lat="45.53841" lon="6.82816">
        <ele>2501.2</ele>
        <time>2021-03-30T13:53:58Z</time>
      </trkpt>
      <trkpt lat="45.53842" lon="6.82816">
        <ele>2501.3</ele>
        <time>2021-03-30T13:53:59Z</time>
      </trkpt>
      <trkpt lat="45.53842" lon="6.82816">
        <ele>2501.3</ele>
        <time>2021-03-30T13:54:00Z</time>
      </trkpt>
      <trkpt lat="45.53843" lon="6.82817">
        <ele>2501.5</ele>
        <time>2021-03-30T13:54:01Z</time>
      </trkpt>
      <trkpt lat="45.53843" lon="6.82817">
        <ele>2501.6</ele>
        <time>2021-03-30T13:54:02Z</time>
      </trkpt>
      <trkpt lat="45.53843" lon="6.82817">
        <ele>2501.7</ele>
        <time>2021-03-30T13:54:03Z</time>
      </trkpt>
      <trkpt lat="45.53844" lon="6.82818">
        <ele>2501.8</ele>
        <time>2021-03-30T13:54:04Z</time>
      </trkpt>
      <trkpt lat="45.53844" lon="6.82818">
        <ele>2501.9</ele>
        <time>2021-03-30T13:54:05Z</time>
      </trkpt>
      <trkpt lat="45.53845" lon="6.82819">
        <ele>2502</ele>
        <time>2021-03-30T13:54:06Z</time>
      </trkpt>
      <trkpt lat="45.53845" lon="6.8282">
        <ele>2502.2</ele>
        <time>2021-03-30T13:54:07Z</time>
      </trkpt>
      <trkpt lat="45.53845" lon="6.8282">
        <ele>2502.2</ele>
        <time>2021-03-30T13:54:08Z</time>
      </trkpt>
      <trkpt lat="45.53846" lon="6.8282">
        <ele>2502.3</ele>
        <time>2021-03-30T13:54:09Z</time>
      </trkpt>
      <trkpt lat="45.53846" lon="6.8282">
        <ele>2502.4</ele>
        <time>2021-03-30T13:54:10Z</time>
      </trkpt>
      <trkpt lat="45.53846" lon="6.8282">
        <ele>2502.5</ele>
        <time>2021-03-30T13:54:11Z</time>
      </trkpt>
      <trkpt lat="45.53847" lon="6.8282">
        <ele>2502.5</ele>
        <time>2021-03-30T13:54:12Z</time>
      </trkpt>
      <trkpt lat="45.53847" lon="6.8282">
        <ele>2502.6</ele>
        <time>2021-03-30T13:54:13Z</time>
      </trkpt>
      <trkpt lat="45.53847" lon="6.8282">
        <ele>2502.7</ele>
        <time>2021-03-30T13:54:14Z</time>
      </trkpt>
      <trkpt lat="45.53847" lon="6.82821">
        <ele>2502.8</ele>
        <time>2021-03-30T13:54:15Z</time>
      </trkpt>
      <trkpt lat="45.53848" lon="6.82821">
        <ele>2502.9</ele>
        <time>2021-03-30T13:54:16Z</time>
      </trkpt>
      <trkpt lat="45.53848" lon="6.82822">
        <ele>2503</ele>
        <time>2021-03-30T13:54:17Z</time>
      </trkpt>
      <trkpt lat="45.53848" lon="6.82822">
        <ele>2503.1</ele>
        <time>2021-03-30T13:54:18Z</time>
      </trkpt>
      <trkpt lat="45.53849" lon="6.82823">
        <ele>2503.2</ele>
        <time>2021-03-30T13:54:19Z</time>
      </trkpt>
      <trkpt lat="45.53849" lon="6.82823">
        <ele>2503.3</ele>
        <time>2021-03-30T13:54:20Z</time>
      </trkpt>
      <trkpt lat="45.53849" lon="6.82824">
        <ele>2503.4</ele>
        <time>2021-03-30T13:54:21Z</time>
      </trkpt>
      <trkpt lat="45.53849" lon="6.82824">
        <ele>2503.5</ele>
        <time>2021-03-30T13:54:22Z</time>
      </trkpt>
      <trkpt lat="45.5385" lon="6.82825">
        <ele>2503.6</ele>
        <time>2021-03-30T13:54:23Z</time>
      </trkpt>
      <trkpt lat="45.5385" lon="6.82825">
        <ele>2503.7</ele>
        <time>2021-03-30T13:54:24Z</time>
      </trkpt>
      <trkpt lat="45.5385" lon="6.82825">
        <ele>2503.8</ele>
        <time>2021-03-30T13:54:25Z</time>
      </trkpt>
      <trkpt lat="45.53851" lon="6.82825">
        <ele>2503.9</ele>
        <time>2021-03-30T13:54:26Z</time>
      </trkpt>
      <trkpt lat="45.53851" lon="6.82826">
        <ele>2504</ele>
        <time>2021-03-30T13:54:27Z</time>
      </trkpt>
      <trkpt lat="45.53851" lon="6.82825">
        <ele>2504.1</ele>
        <time>2021-03-30T13:54:28Z</time>
      </trkpt>
      <trkpt lat="45.53851" lon="6.82826">
        <ele>2504.1</ele>
        <time>2021-03-30T13:54:29Z</time>
      </trkpt>
      <trkpt lat="45.53852" lon="6.82826">
        <ele>2504.2</ele>
        <time>2021-03-30T13:54:30Z</time>
      </trkpt>
      <trkpt lat="45.53852" lon="6.82826">
        <ele>2504.3</ele>
        <time>2021-03-30T13:54:31Z</time>
      </trkpt>
      <trkpt lat="45.53853" lon="6.82827">
        <ele>2504.6</ele>
        <time>2021-03-30T13:54:32Z</time>
      </trkpt>
      <trkpt lat="45.53853" lon="6.82828">
        <ele>2504.7</ele>
        <time>2021-03-30T13:54:33Z</time>
      </trkpt>
      <trkpt lat="45.53854" lon="6.82828">
        <ele>2504.9</ele>
        <time>2021-03-30T13:54:34Z</time>
      </trkpt>
      <trkpt lat="45.53854" lon="6.82829">
        <ele>2505.1</ele>
        <time>2021-03-30T13:54:35Z</time>
      </trkpt>
      <trkpt lat="45.53854" lon="6.8283">
        <ele>2505.3</ele>
        <time>2021-03-30T13:54:36Z</time>
      </trkpt>
      <trkpt lat="45.53855" lon="6.82831">
        <ele>2505.5</ele>
        <time>2021-03-30T13:54:37Z</time>
      </trkpt>
      <trkpt lat="45.53855" lon="6.82832">
        <ele>2505.7</ele>
        <time>2021-03-30T13:54:38Z</time>
      </trkpt>
      <trkpt lat="45.53855" lon="6.82833">
        <ele>2505.9</ele>
        <time>2021-03-30T13:54:39Z</time>
      </trkpt>
      <trkpt lat="45.53856" lon="6.82834">
        <ele>2506.1</ele>
        <time>2021-03-30T13:54:40Z</time>
      </trkpt>
      <trkpt lat="45.53856" lon="6.82835">
        <ele>2506.3</ele>
        <time>2021-03-30T13:54:41Z</time>
      </trkpt>
      <trkpt lat="45.53856" lon="6.82836">
        <ele>2506.5</ele>
        <time>2021-03-30T13:54:42Z</time>
      </trkpt>
      <trkpt lat="45.53857" lon="6.82836">
        <ele>2506.6</ele>
        <time>2021-03-30T13:54:43Z</time>
      </trkpt>
      <trkpt lat="45.53857" lon="6.82837">
        <ele>2506.8</ele>
        <time>2021-03-30T13:55:21Z</time>
      </trkpt>
      <trkpt lat="45.53857" lon="6.82838">
        <ele>2507</ele>
        <time>2021-03-30T13:55:22Z</time>
      </trkpt>
      <trkpt lat="45.53858" lon="6.82839">
        <ele>2507.2</ele>
        <time>2021-03-30T13:55:23Z</time>
      </trkpt>
      <trkpt lat="45.53858" lon="6.8284">
        <ele>2507.4</ele>
        <time>2021-03-30T13:55:24Z</time>
      </trkpt>
      <trkpt lat="45.53858" lon="6.82841">
        <ele>2507.6</ele>
        <time>2021-03-30T13:55:25Z</time>
      </trkpt>
      <trkpt lat="45.53859" lon="6.82842">
        <ele>2507.8</ele>
        <time>2021-03-30T13:55:26Z</time>
      </trkpt>
      <trkpt lat="45.53859" lon="6.82842">
        <ele>2508</ele>
        <time>2021-03-30T13:55:27Z</time>
      </trkpt>
      <trkpt lat="45.5386" lon="6.82842">
        <ele>2508.1</ele>
        <time>2021-03-30T13:55:28Z</time>
      </trkpt>
      <trkpt lat="45.5386" lon="6.82843">
        <ele>2508.3</ele>
        <time>2021-03-30T13:55:29Z</time>
      </trkpt>
      <trkpt lat="45.53861" lon="6.82843">
        <ele>2508.4</ele>
        <time>2021-03-30T13:55:30Z</time>
      </trkpt>
      <trkpt lat="45.53862" lon="6.82844">
        <ele>2508.6</ele>
        <time>2021-03-30T13:55:31Z</time>
      </trkpt>
      <trkpt lat="45.53862" lon="6.82844">
        <ele>2508.8</ele>
        <time>2021-03-30T13:55:32Z</time>
      </trkpt>
      <trkpt lat="45.53863" lon="6.82844">
        <ele>2509</ele>
        <time>2021-03-30T13:55:33Z</time>
      </trkpt>
      <trkpt lat="45.53864" lon="6.82845">
        <ele>2509.2</ele>
        <time>2021-03-30T13:55:34Z</time>
      </trkpt>
      <trkpt lat="45.53864" lon="6.82845">
        <ele>2509.4</ele>
        <time>2021-03-30T13:55:35Z</time>
      </trkpt>
      <trkpt lat="45.53865" lon="6.82845">
        <ele>2509.5</ele>
        <time>2021-03-30T13:55:36Z</time>
      </trkpt>
      <trkpt lat="45.53865" lon="6.82846">
        <ele>2509.7</ele>
        <time>2021-03-30T13:55:37Z</time>
      </trkpt>
      <trkpt lat="45.53866" lon="6.82846">
        <ele>2509.8</ele>
        <time>2021-03-30T13:55:38Z</time>
      </trkpt>
      <trkpt lat="45.53866" lon="6.82846">
        <ele>2510</ele>
        <time>2021-03-30T13:55:39Z</time>
      </trkpt>
      <trkpt lat="45.53867" lon="6.82846">
        <ele>2510.1</ele>
        <time>2021-03-30T13:55:40Z</time>
      </trkpt>
      <trkpt lat="45.53867" lon="6.82847">
        <ele>2510.3</ele>
        <time>2021-03-30T13:55:41Z</time>
      </trkpt>
      <trkpt lat="45.53868" lon="6.82847">
        <ele>2510.4</ele>
        <time>2021-03-30T13:55:42Z</time>
      </trkpt>
      <trkpt lat="45.53868" lon="6.82848">
        <ele>2510.6</ele>
        <time>2021-03-30T13:55:43Z</time>
      </trkpt>
      <trkpt lat="45.53869" lon="6.82849">
        <ele>2510.7</ele>
        <time>2021-03-30T13:55:44Z</time>
      </trkpt>
      <trkpt lat="45.53869" lon="6.82849">
        <ele>2510.8</ele>
        <time>2021-03-30T13:55:45Z</time>
      </trkpt>
      <trkpt lat="45.53869" lon="6.82849">
        <ele>2510.9</ele>
        <time>2021-03-30T13:55:46Z</time>
      </trkpt>
      <trkpt lat="45.53869" lon="6.8285">
        <ele>2511</ele>
        <time>2021-03-30T13:55:47Z</time>
      </trkpt>
      <trkpt lat="45.5387" lon="6.8285">
        <ele>2511.2</ele>
        <time>2021-03-30T13:55:48Z</time>
      </trkpt>
      <trkpt lat="45.5387" lon="6.8285">
        <ele>2511.3</ele>
        <time>2021-03-30T13:55:49Z</time>
      </trkpt>
      <trkpt lat="45.53871" lon="6.8285">
        <ele>2511.4</ele>
        <time>2021-03-30T13:55:50Z</time>
      </trkpt>
      <trkpt lat="45.53871" lon="6.8285">
        <ele>2511.5</ele>
        <time>2021-03-30T13:55:51Z</time>
      </trkpt>
      <trkpt lat="45.53872" lon="6.82851">
        <ele>2511.7</ele>
        <time>2021-03-30T13:55:52Z</time>
      </trkpt>
      <trkpt lat="45.53872" lon="6.82852">
        <ele>2511.9</ele>
        <time>2021-03-30T13:55:53Z</time>
      </trkpt>
      <trkpt lat="45.53872" lon="6.82853">
        <ele>2512.1</ele>
        <time>2021-03-30T13:55:54Z</time>
      </trkpt>
      <trkpt lat="45.53873" lon="6.82854">
        <ele>2512.2</ele>
        <time>2021-03-30T13:55:55Z</time>
      </trkpt>
      <trkpt lat="45.53873" lon="6.82854">
        <ele>2512.3</ele>
        <time>2021-03-30T13:55:56Z</time>
      </trkpt>
      <trkpt lat="45.53873" lon="6.82854">
        <ele>2512.5</ele>
        <time>2021-03-30T13:55:57Z</time>
      </trkpt>
      <trkpt lat="45.53874" lon="6.82854">
        <ele>2512.5</ele>
        <time>2021-03-30T13:55:58Z</time>
      </trkpt>
      <trkpt lat="45.53874" lon="6.82855">
        <ele>2512.7</ele>
        <time>2021-03-30T13:55:59Z</time>
      </trkpt>
      <trkpt lat="45.53875" lon="6.82855">
        <ele>2512.8</ele>
        <time>2021-03-30T13:56:00Z</time>
      </trkpt>
      <trkpt lat="45.53875" lon="6.82855">
        <ele>2512.9</ele>
        <time>2021-03-30T13:56:01Z</time>
      </trkpt>
      <trkpt lat="45.53875" lon="6.82856">
        <ele>2513.1</ele>
        <time>2021-03-30T13:56:02Z</time>
      </trkpt>
      <trkpt lat="45.53875" lon="6.82857">
        <ele>2513.2</ele>
        <time>2021-03-30T13:56:03Z</time>
      </trkpt>
      <trkpt lat="45.53876" lon="6.82857">
        <ele>2513.3</ele>
        <time>2021-03-30T13:56:04Z</time>
      </trkpt>
      <trkpt lat="45.53876" lon="6.82858">
        <ele>2513.5</ele>
        <time>2021-03-30T13:56:05Z</time>
      </trkpt>
      <trkpt lat="45.53876" lon="6.82858">
        <ele>2513.6</ele>
        <time>2021-03-30T13:56:06Z</time>
      </trkpt>
      <trkpt lat="45.53877" lon="6.82858">
        <ele>2513.7</ele>
        <time>2021-03-30T13:56:07Z</time>
      </trkpt>
      <trkpt lat="45.53877" lon="6.82859">
        <ele>2513.8</ele>
        <time>2021-03-30T13:56:08Z</time>
      </trkpt>
      <trkpt lat="45.53877" lon="6.82859">
        <ele>2513.9</ele>
        <time>2021-03-30T13:56:09Z</time>
      </trkpt>
      <trkpt lat="45.53878" lon="6.8286">
        <ele>2514.1</ele>
        <time>2021-03-30T13:56:10Z</time>
      </trkpt>
      <trkpt lat="45.53878" lon="6.8286">
        <ele>2514.1</ele>
        <time>2021-03-30T13:56:11Z</time>
      </trkpt>
      <trkpt lat="45.53878" lon="6.82861">
        <ele>2514.3</ele>
        <time>2021-03-30T13:56:12Z</time>
      </trkpt>
      <trkpt lat="45.53878" lon="6.82861">
        <ele>2514.4</ele>
        <time>2021-03-30T13:56:13Z</time>
      </trkpt>
      <trkpt lat="45.53879" lon="6.82862">
        <ele>2514.5</ele>
        <time>2021-03-30T13:56:14Z</time>
      </trkpt>
      <trkpt lat="45.53879" lon="6.82862">
        <ele>2514.7</ele>
        <time>2021-03-30T13:56:15Z</time>
      </trkpt>
      <trkpt lat="45.53879" lon="6.82863">
        <ele>2514.8</ele>
        <time>2021-03-30T13:56:16Z</time>
      </trkpt>
      <trkpt lat="45.5388" lon="6.82864">
        <ele>2515</ele>
        <time>2021-03-30T13:56:17Z</time>
      </trkpt>
      <trkpt lat="45.5388" lon="6.82864">
        <ele>2515.1</ele>
        <time>2021-03-30T13:56:18Z</time>
      </trkpt>
      <trkpt lat="45.53881" lon="6.82865">
        <ele>2515.2</ele>
        <time>2021-03-30T13:56:19Z</time>
      </trkpt>
      <trkpt lat="45.53881" lon="6.82865">
        <ele>2515.4</ele>
        <time>2021-03-30T13:56:20Z</time>
      </trkpt>
      <trkpt lat="45.53881" lon="6.82866">
        <ele>2515.5</ele>
        <time>2021-03-30T13:56:21Z</time>
      </trkpt>
      <trkpt lat="45.53882" lon="6.82867">
        <ele>2515.7</ele>
        <time>2021-03-30T13:56:22Z</time>
      </trkpt>
      <trkpt lat="45.53882" lon="6.82867">
        <ele>2515.8</ele>
        <time>2021-03-30T13:56:23Z</time>
      </trkpt>
      <trkpt lat="45.53882" lon="6.82868">
        <ele>2515.9</ele>
        <time>2021-03-30T13:56:24Z</time>
      </trkpt>
      <trkpt lat="45.53882" lon="6.82868">
        <ele>2516</ele>
        <time>2021-03-30T13:56:25Z</time>
      </trkpt>
      <trkpt lat="45.53883" lon="6.82869">
        <ele>2516.1</ele>
        <time>2021-03-30T13:56:26Z</time>
      </trkpt>
      <trkpt lat="45.53883" lon="6.82869">
        <ele>2516.3</ele>
        <time>2021-03-30T13:56:27Z</time>
      </trkpt>
      <trkpt lat="45.53884" lon="6.8287">
        <ele>2516.4</ele>
        <time>2021-03-30T13:56:28Z</time>
      </trkpt>
      <trkpt lat="45.53884" lon="6.8287">
        <ele>2516.6</ele>
        <time>2021-03-30T13:56:29Z</time>
      </trkpt>
      <trkpt lat="45.53884" lon="6.82871">
        <ele>2516.7</ele>
        <time>2021-03-30T13:56:30Z</time>
      </trkpt>
      <trkpt lat="45.53884" lon="6.82872">
        <ele>2516.9</ele>
        <time>2021-03-30T13:56:31Z</time>
      </trkpt>
      <trkpt lat="45.53885" lon="6.82872">
        <ele>2517</ele>
        <time>2021-03-30T13:56:32Z</time>
      </trkpt>
      <trkpt lat="45.53885" lon="6.82873">
        <ele>2517.2</ele>
        <time>2021-03-30T13:56:33Z</time>
      </trkpt>
      <trkpt lat="45.53885" lon="6.82874">
        <ele>2517.3</ele>
        <time>2021-03-30T13:56:34Z</time>
      </trkpt>
      <trkpt lat="45.53885" lon="6.82875">
        <ele>2517.5</ele>
        <time>2021-03-30T13:56:35Z</time>
      </trkpt>
      <trkpt lat="45.53886" lon="6.82876">
        <ele>2517.7</ele>
        <time>2021-03-30T13:56:36Z</time>
      </trkpt>
      <trkpt lat="45.53886" lon="6.82876">
        <ele>2517.8</ele>
        <time>2021-03-30T13:56:37Z</time>
      </trkpt>
      <trkpt lat="45.53886" lon="6.82877">
        <ele>2518</ele>
        <time>2021-03-30T13:56:38Z</time>
      </trkpt>
      <trkpt lat="45.53887" lon="6.82877">
        <ele>2518.1</ele>
        <time>2021-03-30T13:56:39Z</time>
      </trkpt>
      <trkpt lat="45.53887" lon="6.82877">
        <ele>2518.2</ele>
        <time>2021-03-30T13:56:40Z</time>
      </trkpt>
      <trkpt lat="45.53888" lon="6.82878">
        <ele>2518.3</ele>
        <time>2021-03-30T13:56:41Z</time>
      </trkpt>
      <trkpt lat="45.53888" lon="6.82878">
        <ele>2518.4</ele>
        <time>2021-03-30T13:56:42Z</time>
      </trkpt>
      <trkpt lat="45.53888" lon="6.82878">
        <ele>2518.5</ele>
        <time>2021-03-30T13:56:43Z</time>
      </trkpt>
      <trkpt lat="45.53889" lon="6.82879">
        <ele>2518.7</ele>
        <time>2021-03-30T13:56:44Z</time>
      </trkpt>
      <trkpt lat="45.53889" lon="6.82879">
        <ele>2518.9</ele>
        <time>2021-03-30T13:56:45Z</time>
      </trkpt>
      <trkpt lat="45.5389" lon="6.8288">
        <ele>2519</ele>
        <time>2021-03-30T13:56:46Z</time>
      </trkpt>
      <trkpt lat="45.5389" lon="6.8288">
        <ele>2519.1</ele>
        <time>2021-03-30T13:56:47Z</time>
      </trkpt>
      <trkpt lat="45.5389" lon="6.82881">
        <ele>2519.2</ele>
        <time>2021-03-30T13:56:48Z</time>
      </trkpt>
      <trkpt lat="45.53891" lon="6.82881">
        <ele>2519.4</ele>
        <time>2021-03-30T13:56:49Z</time>
      </trkpt>
      <trkpt lat="45.53891" lon="6.82882">
        <ele>2519.5</ele>
        <time>2021-03-30T13:56:50Z</time>
      </trkpt>
      <trkpt lat="45.53891" lon="6.82882">
        <ele>2519.6</ele>
        <time>2021-03-30T13:56:51Z</time>
      </trkpt>
      <trkpt lat="45.53891" lon="6.82883">
        <ele>2519.8</ele>
        <time>2021-03-30T13:56:52Z</time>
      </trkpt>
      <trkpt lat="45.53892" lon="6.82883">
        <ele>2519.9</ele>
        <time>2021-03-30T13:56:53Z</time>
      </trkpt>
      <trkpt lat="45.53892" lon="6.82884">
        <ele>2520</ele>
        <time>2021-03-30T13:56:54Z</time>
      </trkpt>
      <trkpt lat="45.53892" lon="6.82884">
        <ele>2520.2</ele>
        <time>2021-03-30T13:56:55Z</time>
      </trkpt>
      <trkpt lat="45.53893" lon="6.82885">
        <ele>2520.3</ele>
        <time>2021-03-30T13:56:56Z</time>
      </trkpt>
      <trkpt lat="45.53893" lon="6.82886">
        <ele>2520.4</ele>
        <time>2021-03-30T13:56:57Z</time>
      </trkpt>
      <trkpt lat="45.53893" lon="6.82886">
        <ele>2520.5</ele>
        <time>2021-03-30T13:56:58Z</time>
      </trkpt>
      <trkpt lat="45.53893" lon="6.82887">
        <ele>2520.7</ele>
        <time>2021-03-30T13:56:59Z</time>
      </trkpt>
      <trkpt lat="45.53893" lon="6.82887">
        <ele>2520.8</ele>
        <time>2021-03-30T13:57:00Z</time>
      </trkpt>
      <trkpt lat="45.53894" lon="6.82888">
        <ele>2521</ele>
        <time>2021-03-30T13:57:01Z</time>
      </trkpt>
      <trkpt lat="45.53894" lon="6.82889">
        <ele>2521.1</ele>
        <time>2021-03-30T13:57:02Z</time>
      </trkpt>
      <trkpt lat="45.53894" lon="6.8289">
        <ele>2521.3</ele>
        <time>2021-03-30T13:57:03Z</time>
      </trkpt>
      <trkpt lat="45.53894" lon="6.8289">
        <ele>2521.4</ele>
        <time>2021-03-30T13:57:04Z</time>
      </trkpt>
      <trkpt lat="45.53894" lon="6.82891">
        <ele>2521.6</ele>
        <time>2021-03-30T13:57:05Z</time>
      </trkpt>
      <trkpt lat="45.53894" lon="6.82892">
        <ele>2521.8</ele>
        <time>2021-03-30T13:57:06Z</time>
      </trkpt>
      <trkpt lat="45.53895" lon="6.82893">
        <ele>2522</ele>
        <time>2021-03-30T13:57:07Z</time>
      </trkpt>
      <trkpt lat="45.53895" lon="6.82894">
        <ele>2522.2</ele>
        <time>2021-03-30T13:57:08Z</time>
      </trkpt>
      <trkpt lat="45.53895" lon="6.82895">
        <ele>2522.4</ele>
        <time>2021-03-30T13:57:09Z</time>
      </trkpt>
      <trkpt lat="45.53895" lon="6.82896">
        <ele>2522.5</ele>
        <time>2021-03-30T13:57:10Z</time>
      </trkpt>
      <trkpt lat="45.53896" lon="6.82896">
        <ele>2522.7</ele>
        <time>2021-03-30T13:57:11Z</time>
      </trkpt>
      <trkpt lat="45.53896" lon="6.82897">
        <ele>2522.9</ele>
        <time>2021-03-30T13:57:12Z</time>
      </trkpt>
      <trkpt lat="45.53896" lon="6.82898">
        <ele>2523.1</ele>
        <time>2021-03-30T13:57:13Z</time>
      </trkpt>
      <trkpt lat="45.53897" lon="6.82899">
        <ele>2523.4</ele>
        <time>2021-03-30T13:57:14Z</time>
      </trkpt>
      <trkpt lat="45.53897" lon="6.829">
        <ele>2523.5</ele>
        <time>2021-03-30T13:57:15Z</time>
      </trkpt>
      <trkpt lat="45.53897" lon="6.829">
        <ele>2523.7</ele>
        <time>2021-03-30T13:57:16Z</time>
      </trkpt>
      <trkpt lat="45.53897" lon="6.82901">
        <ele>2523.8</ele>
        <time>2021-03-30T13:57:17Z</time>
      </trkpt>
      <trkpt lat="45.53898" lon="6.82901">
        <ele>2523.9</ele>
        <time>2021-03-30T13:57:18Z</time>
      </trkpt>
      <trkpt lat="45.53898" lon="6.82902">
        <ele>2524</ele>
        <time>2021-03-30T13:57:19Z</time>
      </trkpt>
      <trkpt lat="45.53898" lon="6.82902">
        <ele>2524.2</ele>
        <time>2021-03-30T13:57:20Z</time>
      </trkpt>
      <trkpt lat="45.53899" lon="6.82903">
        <ele>2524.3</ele>
        <time>2021-03-30T13:57:21Z</time>
      </trkpt>
      <trkpt lat="45.53899" lon="6.82904">
        <ele>2524.4</ele>
        <time>2021-03-30T13:57:22Z</time>
      </trkpt>
      <trkpt lat="45.53899" lon="6.82904">
        <ele>2524.6</ele>
        <time>2021-03-30T13:57:23Z</time>
      </trkpt>
      <trkpt lat="45.539" lon="6.82905">
        <ele>2524.9</ele>
        <time>2021-03-30T13:57:24Z</time>
      </trkpt>
      <trkpt lat="45.539" lon="6.82906">
        <ele>2525</ele>
        <time>2021-03-30T13:57:25Z</time>
      </trkpt>
      <trkpt lat="45.539" lon="6.82907">
        <ele>2525.3</ele>
        <time>2021-03-30T13:57:26Z</time>
      </trkpt>
      <trkpt lat="45.53901" lon="6.82908">
        <ele>2525.5</ele>
        <time>2021-03-30T13:57:27Z</time>
      </trkpt>
      <trkpt lat="45.53901" lon="6.82909">
        <ele>2525.7</ele>
        <time>2021-03-30T13:57:28Z</time>
      </trkpt>
      <trkpt lat="45.53902" lon="6.8291">
        <ele>2525.9</ele>
        <time>2021-03-30T13:57:29Z</time>
      </trkpt>
      <trkpt lat="45.53902" lon="6.8291">
        <ele>2526</ele>
        <time>2021-03-30T13:57:30Z</time>
      </trkpt>
      <trkpt lat="45.53902" lon="6.82911">
        <ele>2526.2</ele>
        <time>2021-03-30T13:57:31Z</time>
      </trkpt>
      <trkpt lat="45.53903" lon="6.82911">
        <ele>2526.3</ele>
        <time>2021-03-30T13:57:32Z</time>
      </trkpt>
      <trkpt lat="45.53903" lon="6.82912">
        <ele>2526.5</ele>
        <time>2021-03-30T13:57:33Z</time>
      </trkpt>
      <trkpt lat="45.53903" lon="6.82913">
        <ele>2526.7</ele>
        <time>2021-03-30T13:57:34Z</time>
      </trkpt>
      <trkpt lat="45.53903" lon="6.82914">
        <ele>2526.9</ele>
        <time>2021-03-30T13:57:35Z</time>
      </trkpt>
      <trkpt lat="45.53903" lon="6.82914">
        <ele>2527</ele>
        <time>2021-03-30T13:57:36Z</time>
      </trkpt>
      <trkpt lat="45.53904" lon="6.82915">
        <ele>2527.2</ele>
        <time>2021-03-30T13:57:37Z</time>
      </trkpt>
      <trkpt lat="45.53904" lon="6.82916">
        <ele>2527.3</ele>
        <time>2021-03-30T13:57:38Z</time>
      </trkpt>
      <trkpt lat="45.53904" lon="6.82917">
        <ele>2527.5</ele>
        <time>2021-03-30T13:57:39Z</time>
      </trkpt>
      <trkpt lat="45.53905" lon="6.82917">
        <ele>2527.6</ele>
        <time>2021-03-30T13:57:40Z</time>
      </trkpt>
      <trkpt lat="45.53905" lon="6.82918">
        <ele>2527.8</ele>
        <time>2021-03-30T13:57:41Z</time>
      </trkpt>
      <trkpt lat="45.53905" lon="6.82918">
        <ele>2527.9</ele>
        <time>2021-03-30T13:57:42Z</time>
      </trkpt>
      <trkpt lat="45.53906" lon="6.82919">
        <ele>2528.1</ele>
        <time>2021-03-30T13:57:43Z</time>
      </trkpt>
      <trkpt lat="45.53906" lon="6.82919">
        <ele>2528.2</ele>
        <time>2021-03-30T13:57:44Z</time>
      </trkpt>
      <trkpt lat="45.53907" lon="6.8292">
        <ele>2528.4</ele>
        <time>2021-03-30T13:57:45Z</time>
      </trkpt>
      <trkpt lat="45.53907" lon="6.8292">
        <ele>2528.5</ele>
        <time>2021-03-30T13:57:46Z</time>
      </trkpt>
      <trkpt lat="45.53908" lon="6.8292">
        <ele>2528.6</ele>
        <time>2021-03-30T13:57:47Z</time>
      </trkpt>
      <trkpt lat="45.53908" lon="6.82921">
        <ele>2528.8</ele>
        <time>2021-03-30T13:57:48Z</time>
      </trkpt>
      <trkpt lat="45.53909" lon="6.82921">
        <ele>2529</ele>
        <time>2021-03-30T13:57:49Z</time>
      </trkpt>
      <trkpt lat="45.5391" lon="6.82921">
        <ele>2529.2</ele>
        <time>2021-03-30T13:57:50Z</time>
      </trkpt>
      <trkpt lat="45.5391" lon="6.82922">
        <ele>2529.4</ele>
        <time>2021-03-30T13:57:51Z</time>
      </trkpt>
      <trkpt lat="45.53911" lon="6.82922">
        <ele>2529.7</ele>
        <time>2021-03-30T13:57:52Z</time>
      </trkpt>
      <trkpt lat="45.53912" lon="6.82922">
        <ele>2529.8</ele>
        <time>2021-03-30T13:57:53Z</time>
      </trkpt>
      <trkpt lat="45.53912" lon="6.82922">
        <ele>2530</ele>
        <time>2021-03-30T13:57:54Z</time>
      </trkpt>
      <trkpt lat="45.53913" lon="6.82921">
        <ele>2530.2</ele>
        <time>2021-03-30T13:57:55Z</time>
      </trkpt>
      <trkpt lat="45.53914" lon="6.82921">
        <ele>2530.4</ele>
        <time>2021-03-30T13:57:56Z</time>
      </trkpt>
      <trkpt lat="45.53914" lon="6.82921">
        <ele>2530.6</ele>
        <time>2021-03-30T13:57:57Z</time>
      </trkpt>
      <trkpt lat="45.53915" lon="6.82921">
        <ele>2530.8</ele>
        <time>2021-03-30T13:57:58Z</time>
      </trkpt>
      <trkpt lat="45.53916" lon="6.82921">
        <ele>2531</ele>
        <time>2021-03-30T13:57:59Z</time>
      </trkpt>
      <trkpt lat="45.53916" lon="6.82921">
        <ele>2531.2</ele>
        <time>2021-03-30T13:58:00Z</time>
      </trkpt>
      <trkpt lat="45.53917" lon="6.82922">
        <ele>2531.3</ele>
        <time>2021-03-30T13:58:01Z</time>
      </trkpt>
      <trkpt lat="45.53918" lon="6.82922">
        <ele>2531.5</ele>
        <time>2021-03-30T13:58:02Z</time>
      </trkpt>
      <trkpt lat="45.53918" lon="6.82922">
        <ele>2531.6</ele>
        <time>2021-03-30T13:58:03Z</time>
      </trkpt>
      <trkpt lat="45.53919" lon="6.82922">
        <ele>2531.7</ele>
        <time>2021-03-30T13:58:04Z</time>
      </trkpt>
      <trkpt lat="45.53919" lon="6.82922">
        <ele>2531.8</ele>
        <time>2021-03-30T13:58:05Z</time>
      </trkpt>
      <trkpt lat="45.53919" lon="6.82923">
        <ele>2532</ele>
        <time>2021-03-30T13:58:06Z</time>
      </trkpt>
      <trkpt lat="45.5392" lon="6.82923">
        <ele>2532.1</ele>
        <time>2021-03-30T13:58:07Z</time>
      </trkpt>
      <trkpt lat="45.5392" lon="6.82923">
        <ele>2532.2</ele>
        <time>2021-03-30T13:58:08Z</time>
      </trkpt>
      <trkpt lat="45.53921" lon="6.82923">
        <ele>2532.3</ele>
        <time>2021-03-30T13:58:09Z</time>
      </trkpt>
      <trkpt lat="45.53921" lon="6.82923">
        <ele>2532.5</ele>
        <time>2021-03-30T13:58:10Z</time>
      </trkpt>
      <trkpt lat="45.53921" lon="6.82924">
        <ele>2532.6</ele>
        <time>2021-03-30T13:58:11Z</time>
      </trkpt>
      <trkpt lat="45.53922" lon="6.82924">
        <ele>2532.7</ele>
        <time>2021-03-30T13:58:12Z</time>
      </trkpt>
      <trkpt lat="45.53922" lon="6.82925">
        <ele>2532.9</ele>
        <time>2021-03-30T13:58:13Z</time>
      </trkpt>
      <trkpt lat="45.53923" lon="6.82925">
        <ele>2533</ele>
        <time>2021-03-30T13:58:14Z</time>
      </trkpt>
      <trkpt lat="45.53923" lon="6.82925">
        <ele>2533.1</ele>
        <time>2021-03-30T13:58:15Z</time>
      </trkpt>
      <trkpt lat="45.53924" lon="6.82924">
        <ele>2533.3</ele>
        <time>2021-03-30T13:58:16Z</time>
      </trkpt>
      <trkpt lat="45.53924" lon="6.82925">
        <ele>2533.4</ele>
        <time>2021-03-30T13:58:17Z</time>
      </trkpt>
      <trkpt lat="45.53925" lon="6.82924">
        <ele>2533.6</ele>
        <time>2021-03-30T13:58:18Z</time>
      </trkpt>
      <trkpt lat="45.53925" lon="6.82924">
        <ele>2533.8</ele>
        <time>2021-03-30T13:58:19Z</time>
      </trkpt>
      <trkpt lat="45.53926" lon="6.82924">
        <ele>2533.9</ele>
        <time>2021-03-30T13:58:20Z</time>
      </trkpt>
      <trkpt lat="45.53926" lon="6.82924">
        <ele>2534.1</ele>
        <time>2021-03-30T13:58:21Z</time>
      </trkpt>
      <trkpt lat="45.53927" lon="6.82924">
        <ele>2534.2</ele>
        <time>2021-03-30T13:58:22Z</time>
      </trkpt>
      <trkpt lat="45.53927" lon="6.82924">
        <ele>2534.3</ele>
        <time>2021-03-30T13:58:23Z</time>
      </trkpt>
      <trkpt lat="45.53927" lon="6.82924">
        <ele>2534.4</ele>
        <time>2021-03-30T13:58:24Z</time>
      </trkpt>
      <trkpt lat="45.53928" lon="6.82923">
        <ele>2534.5</ele>
        <time>2021-03-30T13:58:25Z</time>
      </trkpt>
      <trkpt lat="45.53928" lon="6.82923">
        <ele>2534.6</ele>
        <time>2021-03-30T13:58:26Z</time>
      </trkpt>
      <trkpt lat="45.53929" lon="6.82923">
        <ele>2534.8</ele>
        <time>2021-03-30T13:58:27Z</time>
      </trkpt>
      <trkpt lat="45.5393" lon="6.82923">
        <ele>2535</ele>
        <time>2021-03-30T13:58:28Z</time>
      </trkpt>
      <trkpt lat="45.5393" lon="6.82923">
        <ele>2535.1</ele>
        <time>2021-03-30T13:58:29Z</time>
      </trkpt>
      <trkpt lat="45.53931" lon="6.82923">
        <ele>2535.3</ele>
        <time>2021-03-30T13:58:30Z</time>
      </trkpt>
      <trkpt lat="45.53931" lon="6.82922">
        <ele>2535.5</ele>
        <time>2021-03-30T13:58:31Z</time>
      </trkpt>
      <trkpt lat="45.53932" lon="6.82922">
        <ele>2535.6</ele>
        <time>2021-03-30T13:58:32Z</time>
      </trkpt>
      <trkpt lat="45.53932" lon="6.82922">
        <ele>2535.7</ele>
        <time>2021-03-30T13:58:33Z</time>
      </trkpt>
      <trkpt lat="45.53932" lon="6.82921">
        <ele>2535.8</ele>
        <time>2021-03-30T13:58:34Z</time>
      </trkpt>
      <trkpt lat="45.53933" lon="6.82921">
        <ele>2535.9</ele>
        <time>2021-03-30T13:58:35Z</time>
      </trkpt>
      <trkpt lat="45.53933" lon="6.8292">
        <ele>2536.1</ele>
        <time>2021-03-30T13:58:36Z</time>
      </trkpt>
      <trkpt lat="45.53934" lon="6.8292">
        <ele>2536.2</ele>
        <time>2021-03-30T13:58:37Z</time>
      </trkpt>
      <trkpt lat="45.53935" lon="6.8292">
        <ele>2536.4</ele>
        <time>2021-03-30T13:58:38Z</time>
      </trkpt>
      <trkpt lat="45.53935" lon="6.8292">
        <ele>2536.5</ele>
        <time>2021-03-30T13:58:39Z</time>
      </trkpt>
      <trkpt lat="45.53936" lon="6.82919">
        <ele>2536.7</ele>
        <time>2021-03-30T13:58:40Z</time>
      </trkpt>
      <trkpt lat="45.53937" lon="6.82919">
        <ele>2536.9</ele>
        <time>2021-03-30T13:58:41Z</time>
      </trkpt>
      <trkpt lat="45.53938" lon="6.82919">
        <ele>2537.1</ele>
        <time>2021-03-30T13:58:42Z</time>
      </trkpt>
      <trkpt lat="45.53938" lon="6.82919">
        <ele>2537.3</ele>
        <time>2021-03-30T13:58:43Z</time>
      </trkpt>
      <trkpt lat="45.53939" lon="6.82919">
        <ele>2537.5</ele>
        <time>2021-03-30T13:58:44Z</time>
      </trkpt>
      <trkpt lat="45.5394" lon="6.82919">
        <ele>2537.7</ele>
        <time>2021-03-30T13:58:45Z</time>
      </trkpt>
      <trkpt lat="45.53941" lon="6.82919">
        <ele>2537.9</ele>
        <time>2021-03-30T13:58:46Z</time>
      </trkpt>
      <trkpt lat="45.53942" lon="6.82919">
        <ele>2538.2</ele>
        <time>2021-03-30T13:58:47Z</time>
      </trkpt>
      <trkpt lat="45.53943" lon="6.82918">
        <ele>2538.3</ele>
        <time>2021-03-30T13:58:48Z</time>
      </trkpt>
      <trkpt lat="45.53943" lon="6.82918">
        <ele>2538.4</ele>
        <time>2021-03-30T13:58:49Z</time>
      </trkpt>
      <trkpt lat="45.53944" lon="6.82918">
        <ele>2538.5</ele>
        <time>2021-03-30T13:58:50Z</time>
      </trkpt>
      <trkpt lat="45.53944" lon="6.82917">
        <ele>2538.6</ele>
        <time>2021-03-30T13:58:51Z</time>
      </trkpt>
      <trkpt lat="45.53945" lon="6.82917">
        <ele>2538.7</ele>
        <time>2021-03-30T13:58:52Z</time>
      </trkpt>
      <trkpt lat="45.53945" lon="6.82917">
        <ele>2538.8</ele>
        <time>2021-03-30T13:58:53Z</time>
      </trkpt>
      <trkpt lat="45.53946" lon="6.82916">
        <ele>2539</ele>
        <time>2021-03-30T13:58:54Z</time>
      </trkpt>
      <trkpt lat="45.53946" lon="6.82916">
        <ele>2539.1</ele>
        <time>2021-03-30T13:58:55Z</time>
      </trkpt>
      <trkpt lat="45.53947" lon="6.82916">
        <ele>2539.1</ele>
        <time>2021-03-30T13:58:56Z</time>
      </trkpt>
      <trkpt lat="45.53947" lon="6.82916">
        <ele>2539.2</ele>
        <time>2021-03-30T13:58:57Z</time>
      </trkpt>
      <trkpt lat="45.53947" lon="6.82916">
        <ele>2539.2</ele>
        <time>2021-03-30T13:58:58Z</time>
      </trkpt>
      <trkpt lat="45.53947" lon="6.82916">
        <ele>2539.3</ele>
        <time>2021-03-30T13:58:59Z</time>
      </trkpt>
      <trkpt lat="45.53948" lon="6.82917">
        <ele>2539.4</ele>
        <time>2021-03-30T13:59:00Z</time>
      </trkpt>
      <trkpt lat="45.53948" lon="6.82918">
        <ele>2539.5</ele>
        <time>2021-03-30T13:59:01Z</time>
      </trkpt>
      <trkpt lat="45.53949" lon="6.82918">
        <ele>2539.6</ele>
        <time>2021-03-30T13:59:02Z</time>
      </trkpt>
      <trkpt lat="45.53949" lon="6.82918">
        <ele>2539.6</ele>
        <time>2021-03-30T13:59:03Z</time>
      </trkpt>
      <trkpt lat="45.53949" lon="6.82919">
        <ele>2539.7</ele>
        <time>2021-03-30T13:59:04Z</time>
      </trkpt>
      <trkpt lat="45.53949" lon="6.82919">
        <ele>2539.8</ele>
        <time>2021-03-30T13:59:05Z</time>
      </trkpt>
      <trkpt lat="45.5395" lon="6.82919">
        <ele>2539.8</ele>
        <time>2021-03-30T13:59:06Z</time>
      </trkpt>
      <trkpt lat="45.5395" lon="6.82919">
        <ele>2539.9</ele>
        <time>2021-03-30T13:59:07Z</time>
      </trkpt>
      <trkpt lat="45.53951" lon="6.82919">
        <ele>2540</ele>
        <time>2021-03-30T13:59:08Z</time>
      </trkpt>
      <trkpt lat="45.53951" lon="6.82919">
        <ele>2540.1</ele>
        <time>2021-03-30T13:59:09Z</time>
      </trkpt>
      <trkpt lat="45.53952" lon="6.82919">
        <ele>2540.2</ele>
        <time>2021-03-30T13:59:10Z</time>
      </trkpt>
      <trkpt lat="45.53952" lon="6.82919">
        <ele>2540.2</ele>
        <time>2021-03-30T13:59:11Z</time>
      </trkpt>
      <trkpt lat="45.53952" lon="6.82919">
        <ele>2540.2</ele>
        <time>2021-03-30T13:59:12Z</time>
      </trkpt>
      <trkpt lat="45.53953" lon="6.82919">
        <ele>2540.3</ele>
        <time>2021-03-30T13:59:13Z</time>
      </trkpt>
      <trkpt lat="45.53954" lon="6.82918">
        <ele>2540.5</ele>
        <time>2021-03-30T13:59:14Z</time>
      </trkpt>
      <trkpt lat="45.53954" lon="6.82919">
        <ele>2540.5</ele>
        <time>2021-03-30T13:59:15Z</time>
      </trkpt>
      <trkpt lat="45.53954" lon="6.82919">
        <ele>2540.6</ele>
        <time>2021-03-30T13:59:16Z</time>
      </trkpt>
      <trkpt lat="45.53955" lon="6.8292">
        <ele>2540.7</ele>
        <time>2021-03-30T13:59:17Z</time>
      </trkpt>
      <trkpt lat="45.53955" lon="6.8292">
        <ele>2540.8</ele>
        <time>2021-03-30T13:59:18Z</time>
      </trkpt>
      <trkpt lat="45.53956" lon="6.82921">
        <ele>2540.9</ele>
        <time>2021-03-30T13:59:19Z</time>
      </trkpt>
      <trkpt lat="45.53956" lon="6.82922">
        <ele>2541</ele>
        <time>2021-03-30T13:59:20Z</time>
      </trkpt>
      <trkpt lat="45.53956" lon="6.82922">
        <ele>2541</ele>
        <time>2021-03-30T13:59:21Z</time>
      </trkpt>
      <trkpt lat="45.53956" lon="6.82922">
        <ele>2541</ele>
        <time>2021-03-30T13:59:22Z</time>
      </trkpt>
      <trkpt lat="45.53957" lon="6.82922">
        <ele>2541.1</ele>
        <time>2021-03-30T13:59:23Z</time>
      </trkpt>
      <trkpt lat="45.53958" lon="6.82922">
        <ele>2541.2</ele>
        <time>2021-03-30T13:59:24Z</time>
      </trkpt>
      <trkpt lat="45.53958" lon="6.82922">
        <ele>2541.3</ele>
        <time>2021-03-30T13:59:25Z</time>
      </trkpt>
      <trkpt lat="45.53959" lon="6.82922">
        <ele>2541.4</ele>
        <time>2021-03-30T13:59:26Z</time>
      </trkpt>
      <trkpt lat="45.53959" lon="6.82923">
        <ele>2541.5</ele>
        <time>2021-03-30T13:59:27Z</time>
      </trkpt>
      <trkpt lat="45.5396" lon="6.82924">
        <ele>2541.6</ele>
        <time>2021-03-30T13:59:28Z</time>
      </trkpt>
      <trkpt lat="45.5396" lon="6.82925">
        <ele>2541.7</ele>
        <time>2021-03-30T13:59:29Z</time>
      </trkpt>
      <trkpt lat="45.53961" lon="6.82926">
        <ele>2541.8</ele>
        <time>2021-03-30T13:59:30Z</time>
      </trkpt>
      <trkpt lat="45.53961" lon="6.82927">
        <ele>2541.9</ele>
        <time>2021-03-30T13:59:31Z</time>
      </trkpt>
      <trkpt lat="45.53962" lon="6.82927">
        <ele>2542</ele>
        <time>2021-03-30T13:59:32Z</time>
      </trkpt>
      <trkpt lat="45.53962" lon="6.82928">
        <ele>2542.1</ele>
        <time>2021-03-30T13:59:33Z</time>
      </trkpt>
      <trkpt lat="45.53963" lon="6.82928">
        <ele>2542.3</ele>
        <time>2021-03-30T13:59:34Z</time>
      </trkpt>
      <trkpt lat="45.53964" lon="6.82929">
        <ele>2542.4</ele>
        <time>2021-03-30T13:59:35Z</time>
      </trkpt>
      <trkpt lat="45.53965" lon="6.82929">
        <ele>2542.5</ele>
        <time>2021-03-30T13:59:36Z</time>
      </trkpt>
      <trkpt lat="45.53966" lon="6.82929">
        <ele>2542.7</ele>
        <time>2021-03-30T13:59:37Z</time>
      </trkpt>
      <trkpt lat="45.53966" lon="6.82929">
        <ele>2542.8</ele>
        <time>2021-03-30T13:59:38Z</time>
      </trkpt>
      <trkpt lat="45.53967" lon="6.82929">
        <ele>2542.9</ele>
        <time>2021-03-30T13:59:39Z</time>
      </trkpt>
      <trkpt lat="45.53968" lon="6.8293">
        <ele>2543</ele>
        <time>2021-03-30T13:59:40Z</time>
      </trkpt>
      <trkpt lat="45.53969" lon="6.8293">
        <ele>2543.1</ele>
        <time>2021-03-30T13:59:41Z</time>
      </trkpt>
      <trkpt lat="45.53969" lon="6.82931">
        <ele>2543.3</ele>
        <time>2021-03-30T13:59:42Z</time>
      </trkpt>
      <trkpt lat="45.5397" lon="6.82932">
        <ele>2543.5</ele>
        <time>2021-03-30T13:59:43Z</time>
      </trkpt>
      <trkpt lat="45.53971" lon="6.82933">
        <ele>2543.7</ele>
        <time>2021-03-30T13:59:44Z</time>
      </trkpt>
      <trkpt lat="45.53971" lon="6.82933">
        <ele>2543.8</ele>
        <time>2021-03-30T13:59:45Z</time>
      </trkpt>
      <trkpt lat="45.53972" lon="6.82934">
        <ele>2543.9</ele>
        <time>2021-03-30T13:59:46Z</time>
      </trkpt>
      <trkpt lat="45.53973" lon="6.82935">
        <ele>2544.1</ele>
        <time>2021-03-30T13:59:47Z</time>
      </trkpt>
      <trkpt lat="45.53974" lon="6.82936">
        <ele>2544.3</ele>
        <time>2021-03-30T13:59:48Z</time>
      </trkpt>
      <trkpt lat="45.53975" lon="6.82937">
        <ele>2544.5</ele>
        <time>2021-03-30T13:59:49Z</time>
      </trkpt>
      <trkpt lat="45.53975" lon="6.82937">
        <ele>2544.6</ele>
        <time>2021-03-30T13:59:50Z</time>
      </trkpt>
      <trkpt lat="45.53976" lon="6.82938">
        <ele>2544.8</ele>
        <time>2021-03-30T13:59:51Z</time>
      </trkpt>
      <trkpt lat="45.53977" lon="6.82938">
        <ele>2544.9</ele>
        <time>2021-03-30T13:59:52Z</time>
      </trkpt>
      <trkpt lat="45.53978" lon="6.82939">
        <ele>2545.1</ele>
        <time>2021-03-30T13:59:53Z</time>
      </trkpt>
      <trkpt lat="45.53978" lon="6.82939">
        <ele>2545.2</ele>
        <time>2021-03-30T13:59:54Z</time>
      </trkpt>
      <trkpt lat="45.53979" lon="6.82939">
        <ele>2545.3</ele>
        <time>2021-03-30T13:59:55Z</time>
      </trkpt>
      <trkpt lat="45.5398" lon="6.8294">
        <ele>2545.5</ele>
        <time>2021-03-30T13:59:56Z</time>
      </trkpt>
      <trkpt lat="45.5398" lon="6.8294">
        <ele>2545.6</ele>
        <time>2021-03-30T13:59:57Z</time>
      </trkpt>
      <trkpt lat="45.53981" lon="6.82941">
        <ele>2545.7</ele>
        <time>2021-03-30T13:59:58Z</time>
      </trkpt>
      <trkpt lat="45.53981" lon="6.82941">
        <ele>2545.8</ele>
        <time>2021-03-30T13:59:59Z</time>
      </trkpt>
      <trkpt lat="45.53982" lon="6.82941">
        <ele>2545.9</ele>
        <time>2021-03-30T14:00:00Z</time>
      </trkpt>
      <trkpt lat="45.53983" lon="6.82942">
        <ele>2546.1</ele>
        <time>2021-03-30T14:00:01Z</time>
      </trkpt>
      <trkpt lat="45.53984" lon="6.82943">
        <ele>2546.2</ele>
        <time>2021-03-30T14:00:02Z</time>
      </trkpt>
      <trkpt lat="45.53984" lon="6.82944">
        <ele>2546.3</ele>
        <time>2021-03-30T14:00:03Z</time>
      </trkpt>
      <trkpt lat="45.53985" lon="6.82944">
        <ele>2546.4</ele>
        <time>2021-03-30T14:00:04Z</time>
      </trkpt>
      <trkpt lat="45.53985" lon="6.82945">
        <ele>2546.5</ele>
        <time>2021-03-30T14:00:05Z</time>
      </trkpt>
      <trkpt lat="45.53986" lon="6.82946">
        <ele>2546.6</ele>
        <time>2021-03-30T14:00:06Z</time>
      </trkpt>
      <trkpt lat="45.53986" lon="6.82946">
        <ele>2546.6</ele>
        <time>2021-03-30T14:00:07Z</time>
      </trkpt>
      <trkpt lat="45.53986" lon="6.82947">
        <ele>2546.7</ele>
        <time>2021-03-30T14:00:08Z</time>
      </trkpt>
      <trkpt lat="45.53987" lon="6.82947">
        <ele>2546.8</ele>
        <time>2021-03-30T14:00:09Z</time>
      </trkpt>
      <trkpt lat="45.53987" lon="6.82948">
        <ele>2546.9</ele>
        <time>2021-03-30T14:00:10Z</time>
      </trkpt>
      <trkpt lat="45.53988" lon="6.82948">
        <ele>2546.9</ele>
        <time>2021-03-30T14:00:11Z</time>
      </trkpt>
      <trkpt lat="45.53989" lon="6.82949">
        <ele>2547</ele>
        <time>2021-03-30T14:00:12Z</time>
      </trkpt>
      <trkpt lat="45.5399" lon="6.8295">
        <ele>2547.1</ele>
        <time>2021-03-30T14:00:13Z</time>
      </trkpt>
      <trkpt lat="45.5399" lon="6.8295">
        <ele>2547.3</ele>
        <time>2021-03-30T14:00:14Z</time>
      </trkpt>
      <trkpt lat="45.53991" lon="6.8295">
        <ele>2547.3</ele>
        <time>2021-03-30T14:00:15Z</time>
      </trkpt>
      <trkpt lat="45.53992" lon="6.82951">
        <ele>2547.4</ele>
        <time>2021-03-30T14:00:16Z</time>
      </trkpt>
      <trkpt lat="45.53993" lon="6.82951">
        <ele>2547.5</ele>
        <time>2021-03-30T14:00:17Z</time>
      </trkpt>
      <trkpt lat="45.53993" lon="6.82951">
        <ele>2547.5</ele>
        <time>2021-03-30T14:00:18Z</time>
      </trkpt>
      <trkpt lat="45.53994" lon="6.82951">
        <ele>2547.6</ele>
        <time>2021-03-30T14:00:19Z</time>
      </trkpt>
      <trkpt lat="45.53994" lon="6.82951">
        <ele>2547.6</ele>
        <time>2021-03-30T14:00:20Z</time>
      </trkpt>
      <trkpt lat="45.53995" lon="6.82952">
        <ele>2547.7</ele>
        <time>2021-03-30T14:00:21Z</time>
      </trkpt>
      <trkpt lat="45.53995" lon="6.82952">
        <ele>2547.8</ele>
        <time>2021-03-30T14:00:22Z</time>
      </trkpt>
      <trkpt lat="45.53996" lon="6.82953">
        <ele>2547.8</ele>
        <time>2021-03-30T14:00:23Z</time>
      </trkpt>
      <trkpt lat="45.53996" lon="6.82954">
        <ele>2547.9</ele>
        <time>2021-03-30T14:00:24Z</time>
      </trkpt>
      <trkpt lat="45.53997" lon="6.82954">
        <ele>2548</ele>
        <time>2021-03-30T14:00:25Z</time>
      </trkpt>
      <trkpt lat="45.53997" lon="6.82955">
        <ele>2548</ele>
        <time>2021-03-30T14:00:26Z</time>
      </trkpt>
      <trkpt lat="45.53997" lon="6.82956">
        <ele>2548.1</ele>
        <time>2021-03-30T14:00:27Z</time>
      </trkpt>
      <trkpt lat="45.53998" lon="6.82955">
        <ele>2548.1</ele>
        <time>2021-03-30T14:00:28Z</time>
      </trkpt>
      <trkpt lat="45.53999" lon="6.82955">
        <ele>2548.2</ele>
        <time>2021-03-30T14:00:29Z</time>
      </trkpt>
      <trkpt lat="45.53999" lon="6.82956">
        <ele>2548.3</ele>
        <time>2021-03-30T14:00:30Z</time>
      </trkpt>
      <trkpt lat="45.54" lon="6.82956">
        <ele>2548.3</ele>
        <time>2021-03-30T14:00:31Z</time>
      </trkpt>
      <trkpt lat="45.54001" lon="6.82956">
        <ele>2548.4</ele>
        <time>2021-03-30T14:00:32Z</time>
      </trkpt>
      <trkpt lat="45.54001" lon="6.82956">
        <ele>2548.5</ele>
        <time>2021-03-30T14:00:33Z</time>
      </trkpt>
      <trkpt lat="45.54002" lon="6.82956">
        <ele>2548.5</ele>
        <time>2021-03-30T14:00:34Z</time>
      </trkpt>
      <trkpt lat="45.54003" lon="6.82957">
        <ele>2548.6</ele>
        <time>2021-03-30T14:00:35Z</time>
      </trkpt>
      <trkpt lat="45.54003" lon="6.82958">
        <ele>2548.7</ele>
        <time>2021-03-30T14:00:36Z</time>
      </trkpt>
      <trkpt lat="45.54004" lon="6.82958">
        <ele>2548.8</ele>
        <time>2021-03-30T14:00:37Z</time>
      </trkpt>
      <trkpt lat="45.54004" lon="6.82959">
        <ele>2548.8</ele>
        <time>2021-03-30T14:00:38Z</time>
      </trkpt>
      <trkpt lat="45.54005" lon="6.8296">
        <ele>2548.9</ele>
        <time>2021-03-30T14:00:39Z</time>
      </trkpt>
      <trkpt lat="45.54005" lon="6.82961">
        <ele>2549</ele>
        <time>2021-03-30T14:00:40Z</time>
      </trkpt>
      <trkpt lat="45.54006" lon="6.82961">
        <ele>2549</ele>
        <time>2021-03-30T14:00:41Z</time>
      </trkpt>
      <trkpt lat="45.54006" lon="6.82962">
        <ele>2549.1</ele>
        <time>2021-03-30T14:00:42Z</time>
      </trkpt>
      <trkpt lat="45.54007" lon="6.82962">
        <ele>2549.1</ele>
        <time>2021-03-30T14:00:43Z</time>
      </trkpt>
      <trkpt lat="45.54007" lon="6.82963">
        <ele>2549.2</ele>
        <time>2021-03-30T14:00:44Z</time>
      </trkpt>
      <trkpt lat="45.54008" lon="6.82963">
        <ele>2549.3</ele>
        <time>2021-03-30T14:00:45Z</time>
      </trkpt>
      <trkpt lat="45.54009" lon="6.82964">
        <ele>2549.4</ele>
        <time>2021-03-30T14:00:46Z</time>
      </trkpt>
      <trkpt lat="45.54009" lon="6.82964">
        <ele>2549.4</ele>
        <time>2021-03-30T14:00:47Z</time>
      </trkpt>
      <trkpt lat="45.5401" lon="6.82964">
        <ele>2549.5</ele>
        <time>2021-03-30T14:00:48Z</time>
      </trkpt>
      <trkpt lat="45.54011" lon="6.82964">
        <ele>2549.5</ele>
        <time>2021-03-30T14:00:49Z</time>
      </trkpt>
      <trkpt lat="45.54012" lon="6.82964">
        <ele>2549.6</ele>
        <time>2021-03-30T14:00:50Z</time>
      </trkpt>
      <trkpt lat="45.54013" lon="6.82965">
        <ele>2549.7</ele>
        <time>2021-03-30T14:00:51Z</time>
      </trkpt>
      <trkpt lat="45.54014" lon="6.82965">
        <ele>2549.8</ele>
        <time>2021-03-30T14:00:52Z</time>
      </trkpt>
      <trkpt lat="45.54014" lon="6.82966">
        <ele>2549.8</ele>
        <time>2021-03-30T14:00:53Z</time>
      </trkpt>
      <trkpt lat="45.54015" lon="6.82966">
        <ele>2549.9</ele>
        <time>2021-03-30T14:00:54Z</time>
      </trkpt>
      <trkpt lat="45.54016" lon="6.82966">
        <ele>2550</ele>
        <time>2021-03-30T14:00:55Z</time>
      </trkpt>
      <trkpt lat="45.54016" lon="6.82966">
        <ele>2550</ele>
        <time>2021-03-30T14:00:56Z</time>
      </trkpt>
      <trkpt lat="45.54017" lon="6.82967">
        <ele>2550.1</ele>
        <time>2021-03-30T14:00:57Z</time>
      </trkpt>
      <trkpt lat="45.54017" lon="6.82967">
        <ele>2550.1</ele>
        <time>2021-03-30T14:00:58Z</time>
      </trkpt>
      <trkpt lat="45.54018" lon="6.82967">
        <ele>2550.2</ele>
        <time>2021-03-30T14:00:59Z</time>
      </trkpt>
      <trkpt lat="45.54018" lon="6.82967">
        <ele>2550.2</ele>
        <time>2021-03-30T14:01:00Z</time>
      </trkpt>
      <trkpt lat="45.54019" lon="6.82967">
        <ele>2550.3</ele>
        <time>2021-03-30T14:01:01Z</time>
      </trkpt>
      <trkpt lat="45.5402" lon="6.82967">
        <ele>2550.3</ele>
        <time>2021-03-30T14:01:02Z</time>
      </trkpt>
      <trkpt lat="45.5402" lon="6.82968">
        <ele>2550.4</ele>
        <time>2021-03-30T14:01:03Z</time>
      </trkpt>
      <trkpt lat="45.54021" lon="6.82968">
        <ele>2550.4</ele>
        <time>2021-03-30T14:01:04Z</time>
      </trkpt>
      <trkpt lat="45.54021" lon="6.82968">
        <ele>2550.5</ele>
        <time>2021-03-30T14:01:05Z</time>
      </trkpt>
      <trkpt lat="45.54022" lon="6.82968">
        <ele>2550.6</ele>
        <time>2021-03-30T14:01:06Z</time>
      </trkpt>
      <trkpt lat="45.54023" lon="6.82969">
        <ele>2550.6</ele>
        <time>2021-03-30T14:01:07Z</time>
      </trkpt>
      <trkpt lat="45.54024" lon="6.82969">
        <ele>2550.7</ele>
        <time>2021-03-30T14:01:08Z</time>
      </trkpt>
      <trkpt lat="45.54024" lon="6.8297">
        <ele>2550.8</ele>
        <time>2021-03-30T14:01:09Z</time>
      </trkpt>
      <trkpt lat="45.54025" lon="6.82971">
        <ele>2550.9</ele>
        <time>2021-03-30T14:01:10Z</time>
      </trkpt>
      <trkpt lat="45.54026" lon="6.82971">
        <ele>2551</ele>
        <time>2021-03-30T14:01:11Z</time>
      </trkpt>
      <trkpt lat="45.54027" lon="6.82972">
        <ele>2551.1</ele>
        <time>2021-03-30T14:01:12Z</time>
      </trkpt>
      <trkpt lat="45.54028" lon="6.82973">
        <ele>2551.2</ele>
        <time>2021-03-30T14:01:13Z</time>
      </trkpt>
      <trkpt lat="45.54029" lon="6.82973">
        <ele>2551.2</ele>
        <time>2021-03-30T14:01:14Z</time>
      </trkpt>
      <trkpt lat="45.54029" lon="6.82973">
        <ele>2551.2</ele>
        <time>2021-03-30T14:01:15Z</time>
      </trkpt>
      <trkpt lat="45.5403" lon="6.82973">
        <ele>2551.3</ele>
        <time>2021-03-30T14:01:16Z</time>
      </trkpt>
      <trkpt lat="45.54031" lon="6.82974">
        <ele>2551.4</ele>
        <time>2021-03-30T14:01:17Z</time>
      </trkpt>
      <trkpt lat="45.54031" lon="6.82974">
        <ele>2551.4</ele>
        <time>2021-03-30T14:01:18Z</time>
      </trkpt>
      <trkpt lat="45.54032" lon="6.82974">
        <ele>2551.5</ele>
        <time>2021-03-30T14:01:19Z</time>
      </trkpt>
      <trkpt lat="45.54033" lon="6.82974">
        <ele>2551.5</ele>
        <time>2021-03-30T14:01:20Z</time>
      </trkpt>
      <trkpt lat="45.54034" lon="6.82974">
        <ele>2551.6</ele>
        <time>2021-03-30T14:01:21Z</time>
      </trkpt>
      <trkpt lat="45.54034" lon="6.82975">
        <ele>2551.7</ele>
        <time>2021-03-30T14:01:22Z</time>
      </trkpt>
      <trkpt lat="45.54035" lon="6.82975">
        <ele>2551.8</ele>
        <time>2021-03-30T14:01:23Z</time>
      </trkpt>
      <trkpt lat="45.54036" lon="6.82975">
        <ele>2551.8</ele>
        <time>2021-03-30T14:01:24Z</time>
      </trkpt>
      <trkpt lat="45.54036" lon="6.82975">
        <ele>2551.9</ele>
        <time>2021-03-30T14:01:25Z</time>
      </trkpt>
      <trkpt lat="45.54037" lon="6.82975">
        <ele>2552</ele>
        <time>2021-03-30T14:01:26Z</time>
      </trkpt>
      <trkpt lat="45.54038" lon="6.82975">
        <ele>2552</ele>
        <time>2021-03-30T14:01:27Z</time>
      </trkpt>
      <trkpt lat="45.54039" lon="6.82975">
        <ele>2552.1</ele>
        <time>2021-03-30T14:01:28Z</time>
      </trkpt>
      <trkpt lat="45.5404" lon="6.82975">
        <ele>2552.2</ele>
        <time>2021-03-30T14:01:29Z</time>
      </trkpt>
      <trkpt lat="45.54041" lon="6.82975">
        <ele>2552.3</ele>
        <time>2021-03-30T14:01:30Z</time>
      </trkpt>
      <trkpt lat="45.54042" lon="6.82976">
        <ele>2552.5</ele>
        <time>2021-03-30T14:01:31Z</time>
      </trkpt>
      <trkpt lat="45.54043" lon="6.82976">
        <ele>2552.6</ele>
        <time>2021-03-30T14:01:32Z</time>
      </trkpt>
      <trkpt lat="45.54044" lon="6.82976">
        <ele>2552.8</ele>
        <time>2021-03-30T14:01:33Z</time>
      </trkpt>
      <trkpt lat="45.54045" lon="6.82976">
        <ele>2552.9</ele>
        <time>2021-03-30T14:01:34Z</time>
      </trkpt>
      <trkpt lat="45.54045" lon="6.82975">
        <ele>2552.9</ele>
        <time>2021-03-30T14:01:35Z</time>
      </trkpt>
      <trkpt lat="45.54046" lon="6.82975">
        <ele>2553</ele>
        <time>2021-03-30T14:01:36Z</time>
      </trkpt>
      <trkpt lat="45.54047" lon="6.82975">
        <ele>2553.1</ele>
        <time>2021-03-30T14:01:37Z</time>
      </trkpt>
      <trkpt lat="45.54048" lon="6.82975">
        <ele>2553.3</ele>
        <time>2021-03-30T14:01:38Z</time>
      </trkpt>
      <trkpt lat="45.54049" lon="6.82975">
        <ele>2553.4</ele>
        <time>2021-03-30T14:01:39Z</time>
      </trkpt>
      <trkpt lat="45.5405" lon="6.82975">
        <ele>2553.5</ele>
        <time>2021-03-30T14:01:40Z</time>
      </trkpt>
      <trkpt lat="45.5405" lon="6.82975">
        <ele>2553.8</ele>
        <time>2021-03-30T14:01:41Z</time>
      </trkpt>
      <trkpt lat="45.54051" lon="6.82976">
        <ele>2553.8</ele>
        <time>2021-03-30T14:01:42Z</time>
      </trkpt>
      <trkpt lat="45.54052" lon="6.82976">
        <ele>2553.8</ele>
        <time>2021-03-30T14:01:43Z</time>
      </trkpt>
      <trkpt lat="45.54053" lon="6.82976">
        <ele>2553.8</ele>
        <time>2021-03-30T14:01:44Z</time>
      </trkpt>
      <trkpt lat="45.54053" lon="6.82976">
        <ele>2553.9</ele>
        <time>2021-03-30T14:01:45Z</time>
      </trkpt>
      <trkpt lat="45.54054" lon="6.82977">
        <ele>2553.9</ele>
        <time>2021-03-30T14:01:46Z</time>
      </trkpt>
      <trkpt lat="45.54055" lon="6.82977">
        <ele>2554</ele>
        <time>2021-03-30T14:01:47Z</time>
      </trkpt>
      <trkpt lat="45.54056" lon="6.82978">
        <ele>2554</ele>
        <time>2021-03-30T14:01:48Z</time>
      </trkpt>
      <trkpt lat="45.54057" lon="6.82978">
        <ele>2554.2</ele>
        <time>2021-03-30T14:01:49Z</time>
      </trkpt>
      <trkpt lat="45.54057" lon="6.82979">
        <ele>2554.3</ele>
        <time>2021-03-30T14:01:50Z</time>
      </trkpt>
      <trkpt lat="45.54058" lon="6.82979">
        <ele>2554.3</ele>
        <time>2021-03-30T14:01:51Z</time>
      </trkpt>
      <trkpt lat="45.54059" lon="6.82979">
        <ele>2554.3</ele>
        <time>2021-03-30T14:01:52Z</time>
      </trkpt>
      <trkpt lat="45.5406" lon="6.82979">
        <ele>2554.6</ele>
        <time>2021-03-30T14:01:53Z</time>
      </trkpt>
      <trkpt lat="45.5406" lon="6.82979">
        <ele>2554.6</ele>
        <time>2021-03-30T14:01:54Z</time>
      </trkpt>
      <trkpt lat="45.54061" lon="6.82979">
        <ele>2554.6</ele>
        <time>2021-03-30T14:01:55Z</time>
      </trkpt>
      <trkpt lat="45.54061" lon="6.82979">
        <ele>2554.6</ele>
        <time>2021-03-30T14:01:56Z</time>
      </trkpt>
      <trkpt lat="45.54062" lon="6.82979">
        <ele>2554.6</ele>
        <time>2021-03-30T14:01:57Z</time>
      </trkpt>
      <trkpt lat="45.54062" lon="6.8298">
        <ele>2554.6</ele>
        <time>2021-03-30T14:01:58Z</time>
      </trkpt>
      <trkpt lat="45.54063" lon="6.8298">
        <ele>2554.9</ele>
        <time>2021-03-30T14:01:59Z</time>
      </trkpt>
      <trkpt lat="45.54064" lon="6.8298">
        <ele>2554.9</ele>
        <time>2021-03-30T14:02:00Z</time>
      </trkpt>
      <trkpt lat="45.54064" lon="6.82981">
        <ele>2554.6</ele>
        <time>2021-03-30T14:02:01Z</time>
      </trkpt>
      <trkpt lat="45.54065" lon="6.82981">
        <ele>2554.6</ele>
        <time>2021-03-30T14:02:02Z</time>
      </trkpt>
      <trkpt lat="45.54066" lon="6.82982">
        <ele>2554.9</ele>
        <time>2021-03-30T14:02:03Z</time>
      </trkpt>
      <trkpt lat="45.54066" lon="6.82982">
        <ele>2554.9</ele>
        <time>2021-03-30T14:02:04Z</time>
      </trkpt>
      <trkpt lat="45.54067" lon="6.82983">
        <ele>2554.9</ele>
        <time>2021-03-30T14:02:05Z</time>
      </trkpt>
      <trkpt lat="45.54068" lon="6.82984">
        <ele>2554.9</ele>
        <time>2021-03-30T14:02:06Z</time>
      </trkpt>
      <trkpt lat="45.54068" lon="6.82984">
        <ele>2554.9</ele>
        <time>2021-03-30T14:02:07Z</time>
      </trkpt>
      <trkpt lat="45.54069" lon="6.82985">
        <ele>2555.2</ele>
        <time>2021-03-30T14:02:08Z</time>
      </trkpt>
      <trkpt lat="45.54069" lon="6.82985">
        <ele>2555.2</ele>
        <time>2021-03-30T14:02:09Z</time>
      </trkpt>
      <trkpt lat="45.5407" lon="6.82985">
        <ele>2555</ele>
        <time>2021-03-30T14:02:10Z</time>
      </trkpt>
      <trkpt lat="45.54071" lon="6.82985">
        <ele>2555</ele>
        <time>2021-03-30T14:02:11Z</time>
      </trkpt>
      <trkpt lat="45.54071" lon="6.82986">
        <ele>2555.3</ele>
        <time>2021-03-30T14:02:12Z</time>
      </trkpt>
      <trkpt lat="45.54072" lon="6.82986">
        <ele>2555.3</ele>
        <time>2021-03-30T14:02:13Z</time>
      </trkpt>
      <trkpt lat="45.54073" lon="6.82987">
        <ele>2555.3</ele>
        <time>2021-03-30T14:02:14Z</time>
      </trkpt>
      <trkpt lat="45.54074" lon="6.82988">
        <ele>2555.3</ele>
        <time>2021-03-30T14:02:15Z</time>
      </trkpt>
      <trkpt lat="45.54074" lon="6.82989">
        <ele>2555.6</ele>
        <time>2021-03-30T14:02:16Z</time>
      </trkpt>
      <trkpt lat="45.54075" lon="6.82989">
        <ele>2555.4</ele>
        <time>2021-03-30T14:02:17Z</time>
      </trkpt>
      <trkpt lat="45.54076" lon="6.8299">
        <ele>2555.4</ele>
        <time>2021-03-30T14:02:18Z</time>
      </trkpt>
      <trkpt lat="45.54076" lon="6.82991">
        <ele>2555.4</ele>
        <time>2021-03-30T14:02:19Z</time>
      </trkpt>
      <trkpt lat="45.54077" lon="6.82991">
        <ele>2555.4</ele>
        <time>2021-03-30T14:02:20Z</time>
      </trkpt>
      <trkpt lat="45.54077" lon="6.82992">
        <ele>2555.7</ele>
        <time>2021-03-30T14:02:21Z</time>
      </trkpt>
      <trkpt lat="45.54078" lon="6.82992">
        <ele>2555.7</ele>
        <time>2021-03-30T14:02:22Z</time>
      </trkpt>
      <trkpt lat="45.54079" lon="6.82993">
        <ele>2555.7</ele>
        <time>2021-03-30T14:02:23Z</time>
      </trkpt>
      <trkpt lat="45.54079" lon="6.82994">
        <ele>2555.5</ele>
        <time>2021-03-30T14:02:24Z</time>
      </trkpt>
      <trkpt lat="45.5408" lon="6.82995">
        <ele>2555.5</ele>
        <time>2021-03-30T14:02:25Z</time>
      </trkpt>
      <trkpt lat="45.54081" lon="6.82997">
        <ele>2555.8</ele>
        <time>2021-03-30T14:02:26Z</time>
      </trkpt>
      <trkpt lat="45.54082" lon="6.82998">
        <ele>2555.8</ele>
        <time>2021-03-30T14:02:27Z</time>
      </trkpt>
      <trkpt lat="45.54082" lon="6.82999">
        <ele>2555.6</ele>
        <time>2021-03-30T14:02:28Z</time>
      </trkpt>
      <trkpt lat="45.54083" lon="6.83">
        <ele>2555.6</ele>
        <time>2021-03-30T14:02:29Z</time>
      </trkpt>
      <trkpt lat="45.54084" lon="6.83001">
        <ele>2555.8</ele>
        <time>2021-03-30T14:02:30Z</time>
      </trkpt>
      <trkpt lat="45.54085" lon="6.83002">
        <ele>2555.9</ele>
        <time>2021-03-30T14:02:31Z</time>
      </trkpt>
      <trkpt lat="45.54085" lon="6.83002">
        <ele>2555.7</ele>
        <time>2021-03-30T14:02:32Z</time>
      </trkpt>
      <trkpt lat="45.54086" lon="6.83003">
        <ele>2555.7</ele>
        <time>2021-03-30T14:02:33Z</time>
      </trkpt>
      <trkpt lat="45.54087" lon="6.83004">
        <ele>2555.9</ele>
        <time>2021-03-30T14:02:34Z</time>
      </trkpt>
      <trkpt lat="45.54087" lon="6.83005">
        <ele>2555.9</ele>
        <time>2021-03-30T14:02:35Z</time>
      </trkpt>
      <trkpt lat="45.54088" lon="6.83006">
        <ele>2555.9</ele>
        <time>2021-03-30T14:02:36Z</time>
      </trkpt>
      <trkpt lat="45.54088" lon="6.83006">
        <ele>2556</ele>
        <time>2021-03-30T14:02:37Z</time>
      </trkpt>
      <trkpt lat="45.54089" lon="6.83007">
        <ele>2555.8</ele>
        <time>2021-03-30T14:02:38Z</time>
      </trkpt>
      <trkpt lat="45.54089" lon="6.83007">
        <ele>2555.9</ele>
        <time>2021-03-30T14:02:39Z</time>
      </trkpt>
      <trkpt lat="45.5409" lon="6.83008">
        <ele>2556</ele>
        <time>2021-03-30T14:02:40Z</time>
      </trkpt>
      <trkpt lat="45.54091" lon="6.83009">
        <ele>2556</ele>
        <time>2021-03-30T14:02:41Z</time>
      </trkpt>
      <trkpt lat="45.54091" lon="6.83009">
        <ele>2556</ele>
        <time>2021-03-30T14:02:42Z</time>
      </trkpt>
      <trkpt lat="45.54092" lon="6.8301">
        <ele>2556</ele>
        <time>2021-03-30T14:02:43Z</time>
      </trkpt>
      <trkpt lat="45.54093" lon="6.83011">
        <ele>2556.2</ele>
        <time>2021-03-30T14:02:44Z</time>
      </trkpt>
      <trkpt lat="45.54094" lon="6.83011">
        <ele>2556.1</ele>
        <time>2021-03-30T14:02:45Z</time>
      </trkpt>
      <trkpt lat="45.54094" lon="6.83012">
        <ele>2556.1</ele>
        <time>2021-03-30T14:02:46Z</time>
      </trkpt>
      <trkpt lat="45.54095" lon="6.83012">
        <ele>2556.1</ele>
        <time>2021-03-30T14:02:47Z</time>
      </trkpt>
      <trkpt lat="45.54096" lon="6.83012">
        <ele>2556.2</ele>
        <time>2021-03-30T14:02:48Z</time>
      </trkpt>
      <trkpt lat="45.54097" lon="6.83012">
        <ele>2556.2</ele>
        <time>2021-03-30T14:02:49Z</time>
      </trkpt>
      <trkpt lat="45.54097" lon="6.83013">
        <ele>2556.2</ele>
        <time>2021-03-30T14:02:50Z</time>
      </trkpt>
      <trkpt lat="45.54098" lon="6.83013">
        <ele>2556.2</ele>
        <time>2021-03-30T14:02:51Z</time>
      </trkpt>
      <trkpt lat="45.54099" lon="6.83014">
        <ele>2556.3</ele>
        <time>2021-03-30T14:02:52Z</time>
      </trkpt>
      <trkpt lat="45.54099" lon="6.83015">
        <ele>2556.3</ele>
        <time>2021-03-30T14:02:53Z</time>
      </trkpt>
      <trkpt lat="45.541" lon="6.83016">
        <ele>2556.2</ele>
        <time>2021-03-30T14:02:54Z</time>
      </trkpt>
      <trkpt lat="45.54101" lon="6.83017">
        <ele>2556.2</ele>
        <time>2021-03-30T14:02:55Z</time>
      </trkpt>
      <trkpt lat="45.54101" lon="6.83017">
        <ele>2556.2</ele>
        <time>2021-03-30T14:02:56Z</time>
      </trkpt>
      <trkpt lat="45.54102" lon="6.83018">
        <ele>2556.3</ele>
        <time>2021-03-30T14:02:57Z</time>
      </trkpt>
      <trkpt lat="45.54103" lon="6.83018">
        <ele>2556.3</ele>
        <time>2021-03-30T14:02:58Z</time>
      </trkpt>
      <trkpt lat="45.54104" lon="6.83019">
        <ele>2556.3</ele>
        <time>2021-03-30T14:02:59Z</time>
      </trkpt>
      <trkpt lat="45.54105" lon="6.83019">
        <ele>2556.3</ele>
        <time>2021-03-30T14:03:00Z</time>
      </trkpt>
      <trkpt lat="45.54105" lon="6.8302">
        <ele>2556.3</ele>
        <time>2021-03-30T14:03:01Z</time>
      </trkpt>
      <trkpt lat="45.54106" lon="6.8302">
        <ele>2556.3</ele>
        <time>2021-03-30T14:03:02Z</time>
      </trkpt>
      <trkpt lat="45.54107" lon="6.83021">
        <ele>2556.3</ele>
        <time>2021-03-30T14:03:03Z</time>
      </trkpt>
      <trkpt lat="45.54107" lon="6.83021">
        <ele>2556.4</ele>
        <time>2021-03-30T14:03:04Z</time>
      </trkpt>
      <trkpt lat="45.54108" lon="6.83021">
        <ele>2556.4</ele>
        <time>2021-03-30T14:03:05Z</time>
      </trkpt>
      <trkpt lat="45.54109" lon="6.83022">
        <ele>2556.4</ele>
        <time>2021-03-30T14:03:06Z</time>
      </trkpt>
      <trkpt lat="45.54109" lon="6.83022">
        <ele>2556.5</ele>
        <time>2021-03-30T14:03:07Z</time>
      </trkpt>
      <trkpt lat="45.5411" lon="6.83022">
        <ele>2556.5</ele>
        <time>2021-03-30T14:03:08Z</time>
      </trkpt>
      <trkpt lat="45.54111" lon="6.83022">
        <ele>2556.6</ele>
        <time>2021-03-30T14:03:09Z</time>
      </trkpt>
      <trkpt lat="45.54112" lon="6.83022">
        <ele>2556.6</ele>
        <time>2021-03-30T14:03:10Z</time>
      </trkpt>
      <trkpt lat="45.54112" lon="6.83022">
        <ele>2556.6</ele>
        <time>2021-03-30T14:03:11Z</time>
      </trkpt>
      <trkpt lat="45.54113" lon="6.83021">
        <ele>2556.6</ele>
        <time>2021-03-30T14:03:12Z</time>
      </trkpt>
      <trkpt lat="45.54114" lon="6.83021">
        <ele>2556.7</ele>
        <time>2021-03-30T14:03:13Z</time>
      </trkpt>
      <trkpt lat="45.54115" lon="6.83021">
        <ele>2556.7</ele>
        <time>2021-03-30T14:03:14Z</time>
      </trkpt>
      <trkpt lat="45.54116" lon="6.83022">
        <ele>2556.7</ele>
        <time>2021-03-30T14:03:15Z</time>
      </trkpt>
      <trkpt lat="45.54117" lon="6.83022">
        <ele>2556.8</ele>
        <time>2021-03-30T14:03:16Z</time>
      </trkpt>
      <trkpt lat="45.54118" lon="6.83022">
        <ele>2556.8</ele>
        <time>2021-03-30T14:03:17Z</time>
      </trkpt>
      <trkpt lat="45.54119" lon="6.83023">
        <ele>2556.8</ele>
        <time>2021-03-30T14:03:18Z</time>
      </trkpt>
      <trkpt lat="45.54121" lon="6.83023">
        <ele>2556.9</ele>
        <time>2021-03-30T14:03:19Z</time>
      </trkpt>
      <trkpt lat="45.54121" lon="6.83024">
        <ele>2557</ele>
        <time>2021-03-30T14:03:20Z</time>
      </trkpt>
      <trkpt lat="45.54122" lon="6.83024">
        <ele>2557</ele>
        <time>2021-03-30T14:03:21Z</time>
      </trkpt>
      <trkpt lat="45.54123" lon="6.83024">
        <ele>2557.1</ele>
        <time>2021-03-30T14:03:22Z</time>
      </trkpt>
      <trkpt lat="45.54124" lon="6.83024">
        <ele>2557.1</ele>
        <time>2021-03-30T14:03:23Z</time>
      </trkpt>
      <trkpt lat="45.54124" lon="6.83025">
        <ele>2557.1</ele>
        <time>2021-03-30T14:03:24Z</time>
      </trkpt>
      <trkpt lat="45.54125" lon="6.83025">
        <ele>2557.2</ele>
        <time>2021-03-30T14:03:25Z</time>
      </trkpt>
      <trkpt lat="45.54126" lon="6.83024">
        <ele>2557.3</ele>
        <time>2021-03-30T14:03:26Z</time>
      </trkpt>
      <trkpt lat="45.54127" lon="6.83024">
        <ele>2557.3</ele>
        <time>2021-03-30T14:03:27Z</time>
      </trkpt>
      <trkpt lat="45.54128" lon="6.83025">
        <ele>2557.3</ele>
        <time>2021-03-30T14:03:28Z</time>
      </trkpt>
      <trkpt lat="45.54129" lon="6.83025">
        <ele>2557.5</ele>
        <time>2021-03-30T14:03:29Z</time>
      </trkpt>
      <trkpt lat="45.5413" lon="6.83025">
        <ele>2557.5</ele>
        <time>2021-03-30T14:03:30Z</time>
      </trkpt>
      <trkpt lat="45.54131" lon="6.83026">
        <ele>2557.5</ele>
        <time>2021-03-30T14:03:31Z</time>
      </trkpt>
      <trkpt lat="45.54131" lon="6.83026">
        <ele>2557.6</ele>
        <time>2021-03-30T14:03:32Z</time>
      </trkpt>
      <trkpt lat="45.54132" lon="6.83026">
        <ele>2557.8</ele>
        <time>2021-03-30T14:03:33Z</time>
      </trkpt>
      <trkpt lat="45.54133" lon="6.83026">
        <ele>2557.8</ele>
        <time>2021-03-30T14:03:34Z</time>
      </trkpt>
      <trkpt lat="45.54133" lon="6.83026">
        <ele>2557.8</ele>
        <time>2021-03-30T14:03:35Z</time>
      </trkpt>
      <trkpt lat="45.54134" lon="6.83026">
        <ele>2557.8</ele>
        <time>2021-03-30T14:03:36Z</time>
      </trkpt>
      <trkpt lat="45.54134" lon="6.83026">
        <ele>2557.8</ele>
        <time>2021-03-30T14:03:37Z</time>
      </trkpt>
      <trkpt lat="45.54135" lon="6.83026">
        <ele>2558.1</ele>
        <time>2021-03-30T14:03:38Z</time>
      </trkpt>
      <trkpt lat="45.54136" lon="6.83026">
        <ele>2558.1</ele>
        <time>2021-03-30T14:03:39Z</time>
      </trkpt>
      <trkpt lat="45.54137" lon="6.83027">
        <ele>2558.1</ele>
        <time>2021-03-30T14:03:40Z</time>
      </trkpt>
      <trkpt lat="45.54137" lon="6.83028">
        <ele>2558.1</ele>
        <time>2021-03-30T14:03:41Z</time>
      </trkpt>
      <trkpt lat="45.54138" lon="6.83028">
        <ele>2558.6</ele>
        <time>2021-03-30T14:03:42Z</time>
      </trkpt>
      <trkpt lat="45.54139" lon="6.83028">
        <ele>2558.6</ele>
        <time>2021-03-30T14:03:43Z</time>
      </trkpt>
      <trkpt lat="45.5414" lon="6.83028">
        <ele>2558.6</ele>
        <time>2021-03-30T14:03:44Z</time>
      </trkpt>
      <trkpt lat="45.5414" lon="6.83028">
        <ele>2558.6</ele>
        <time>2021-03-30T14:03:45Z</time>
      </trkpt>
      <trkpt lat="45.54141" lon="6.83028">
        <ele>2558.9</ele>
        <time>2021-03-30T14:03:46Z</time>
      </trkpt>
      <trkpt lat="45.54142" lon="6.83028">
        <ele>2558.9</ele>
        <time>2021-03-30T14:03:47Z</time>
      </trkpt>
      <trkpt lat="45.54142" lon="6.83029">
        <ele>2559</ele>
        <time>2021-03-30T14:03:48Z</time>
      </trkpt>
      <trkpt lat="45.54143" lon="6.83029">
        <ele>2559</ele>
        <time>2021-03-30T14:03:49Z</time>
      </trkpt>
      <trkpt lat="45.54143" lon="6.83029">
        <ele>2559</ele>
        <time>2021-03-30T14:03:50Z</time>
      </trkpt>
      <trkpt lat="45.54144" lon="6.8303">
        <ele>2559.3</ele>
        <time>2021-03-30T14:03:51Z</time>
      </trkpt>
      <trkpt lat="45.54144" lon="6.83031">
        <ele>2559.3</ele>
        <time>2021-03-30T14:03:52Z</time>
      </trkpt>
      <trkpt lat="45.54145" lon="6.83032">
        <ele>2559.3</ele>
        <time>2021-03-30T14:03:53Z</time>
      </trkpt>
      <trkpt lat="45.54145" lon="6.83033">
        <ele>2559.6</ele>
        <time>2021-03-30T14:03:54Z</time>
      </trkpt>
      <trkpt lat="45.54146" lon="6.83033">
        <ele>2559.6</ele>
        <time>2021-03-30T14:03:55Z</time>
      </trkpt>
      <trkpt lat="45.54146" lon="6.83033">
        <ele>2559.6</ele>
        <time>2021-03-30T14:03:56Z</time>
      </trkpt>
      <trkpt lat="45.54147" lon="6.83034">
        <ele>2559.9</ele>
        <time>2021-03-30T14:03:57Z</time>
      </trkpt>
      <trkpt lat="45.54147" lon="6.83035">
        <ele>2560</ele>
        <time>2021-03-30T14:03:58Z</time>
      </trkpt>
      <trkpt lat="45.54148" lon="6.83035">
        <ele>2560</ele>
        <time>2021-03-30T14:03:59Z</time>
      </trkpt>
      <trkpt lat="45.54148" lon="6.83036">
        <ele>2560</ele>
        <time>2021-03-30T14:04:00Z</time>
      </trkpt>
      <trkpt lat="45.54149" lon="6.83037">
        <ele>2560.2</ele>
        <time>2021-03-30T14:04:01Z</time>
      </trkpt>
      <trkpt lat="45.54149" lon="6.83037">
        <ele>2560.2</ele>
        <time>2021-03-30T14:04:02Z</time>
      </trkpt>
      <trkpt lat="45.54149" lon="6.83038">
        <ele>2560.3</ele>
        <time>2021-03-30T14:04:03Z</time>
      </trkpt>
      <trkpt lat="45.5415" lon="6.83039">
        <ele>2560.6</ele>
        <time>2021-03-30T14:04:04Z</time>
      </trkpt>
      <trkpt lat="45.5415" lon="6.83039">
        <ele>2560.6</ele>
        <time>2021-03-30T14:04:05Z</time>
      </trkpt>
      <trkpt lat="45.54151" lon="6.8304">
        <ele>2560.6</ele>
        <time>2021-03-30T14:04:06Z</time>
      </trkpt>
      <trkpt lat="45.54151" lon="6.83041">
        <ele>2560.9</ele>
        <time>2021-03-30T14:04:07Z</time>
      </trkpt>
      <trkpt lat="45.54151" lon="6.83042">
        <ele>2560.9</ele>
        <time>2021-03-30T14:04:08Z</time>
      </trkpt>
      <trkpt lat="45.54152" lon="6.83042">
        <ele>2560.9</ele>
        <time>2021-03-30T14:04:09Z</time>
      </trkpt>
      <trkpt lat="45.54153" lon="6.83042">
        <ele>2561.3</ele>
        <time>2021-03-30T14:04:10Z</time>
      </trkpt>
      <trkpt lat="45.54153" lon="6.83043">
        <ele>2561.3</ele>
        <time>2021-03-30T14:04:11Z</time>
      </trkpt>
      <trkpt lat="45.54154" lon="6.83043">
        <ele>2561.3</ele>
        <time>2021-03-30T14:04:12Z</time>
      </trkpt>
      <trkpt lat="45.54155" lon="6.83043">
        <ele>2561.3</ele>
        <time>2021-03-30T14:04:13Z</time>
      </trkpt>
      <trkpt lat="45.54155" lon="6.83044">
        <ele>2561.3</ele>
        <time>2021-03-30T14:04:14Z</time>
      </trkpt>
      <trkpt lat="45.54155" lon="6.83045">
        <ele>2561.3</ele>
        <time>2021-03-30T14:04:15Z</time>
      </trkpt>
      <trkpt lat="45.54155" lon="6.83045">
        <ele>2561.5</ele>
        <time>2021-03-30T14:04:16Z</time>
      </trkpt>
      <trkpt lat="45.54156" lon="6.83046">
        <ele>2561.6</ele>
        <time>2021-03-30T14:04:17Z</time>
      </trkpt>
      <trkpt lat="45.54156" lon="6.83046">
        <ele>2561.9</ele>
        <time>2021-03-30T14:04:18Z</time>
      </trkpt>
      <trkpt lat="45.54156" lon="6.83046">
        <ele>2561.9</ele>
        <time>2021-03-30T14:04:19Z</time>
      </trkpt>
      <trkpt lat="45.54157" lon="6.83046">
        <ele>2562</ele>
        <time>2021-03-30T14:04:20Z</time>
      </trkpt>
      <trkpt lat="45.54158" lon="6.83046">
        <ele>2562</ele>
        <time>2021-03-30T14:04:21Z</time>
      </trkpt>
      <trkpt lat="45.54159" lon="6.83046">
        <ele>2562.3</ele>
        <time>2021-03-30T14:04:22Z</time>
      </trkpt>
      <trkpt lat="45.54159" lon="6.83047">
        <ele>2562.3</ele>
        <time>2021-03-30T14:04:23Z</time>
      </trkpt>
      <trkpt lat="45.5416" lon="6.83047">
        <ele>2562.4</ele>
        <time>2021-03-30T14:04:24Z</time>
      </trkpt>
      <trkpt lat="45.54161" lon="6.83047">
        <ele>2562.4</ele>
        <time>2021-03-30T14:04:25Z</time>
      </trkpt>
      <trkpt lat="45.54162" lon="6.83047">
        <ele>2562.7</ele>
        <time>2021-03-30T14:04:26Z</time>
      </trkpt>
      <trkpt lat="45.54163" lon="6.83048">
        <ele>2562.8</ele>
        <time>2021-03-30T14:04:27Z</time>
      </trkpt>
      <trkpt lat="45.54163" lon="6.83048">
        <ele>2562.8</ele>
        <time>2021-03-30T14:04:28Z</time>
      </trkpt>
      <trkpt lat="45.54164" lon="6.83048">
        <ele>2562.8</ele>
        <time>2021-03-30T14:04:29Z</time>
      </trkpt>
      <trkpt lat="45.54165" lon="6.83048">
        <ele>2563.1</ele>
        <time>2021-03-30T14:04:30Z</time>
      </trkpt>
      <trkpt lat="45.54166" lon="6.83047">
        <ele>2563.2</ele>
        <time>2021-03-30T14:04:31Z</time>
      </trkpt>
      <trkpt lat="45.54166" lon="6.83047">
        <ele>2563.2</ele>
        <time>2021-03-30T14:04:32Z</time>
      </trkpt>
      <trkpt lat="45.54167" lon="6.83047">
        <ele>2563.2</ele>
        <time>2021-03-30T14:04:33Z</time>
      </trkpt>
      <trkpt lat="45.54168" lon="6.83046">
        <ele>2563.2</ele>
        <time>2021-03-30T14:04:34Z</time>
      </trkpt>
      <trkpt lat="45.54168" lon="6.83046">
        <ele>2563.5</ele>
        <time>2021-03-30T14:04:35Z</time>
      </trkpt>
      <trkpt lat="45.54169" lon="6.83047">
        <ele>2563.6</ele>
        <time>2021-03-30T14:04:36Z</time>
      </trkpt>
      <trkpt lat="45.54169" lon="6.83048">
        <ele>2563.6</ele>
        <time>2021-03-30T14:04:37Z</time>
      </trkpt>
      <trkpt lat="45.5417" lon="6.83048">
        <ele>2563.6</ele>
        <time>2021-03-30T14:04:38Z</time>
      </trkpt>
      <trkpt lat="45.54171" lon="6.83048">
        <ele>2563.6</ele>
        <time>2021-03-30T14:04:39Z</time>
      </trkpt>
      <trkpt lat="45.54171" lon="6.83048">
        <ele>2563.9</ele>
        <time>2021-03-30T14:04:40Z</time>
      </trkpt>
      <trkpt lat="45.54172" lon="6.83049">
        <ele>2563.9</ele>
        <time>2021-03-30T14:04:41Z</time>
      </trkpt>
      <trkpt lat="45.54172" lon="6.8305">
        <ele>2564.1</ele>
        <time>2021-03-30T14:04:42Z</time>
      </trkpt>
      <trkpt lat="45.54173" lon="6.8305">
        <ele>2564.1</ele>
        <time>2021-03-30T14:04:43Z</time>
      </trkpt>
      <trkpt lat="45.54174" lon="6.83051">
        <ele>2564.1</ele>
        <time>2021-03-30T14:04:44Z</time>
      </trkpt>
      <trkpt lat="45.54174" lon="6.83051">
        <ele>2564.4</ele>
        <time>2021-03-30T14:04:45Z</time>
      </trkpt>
      <trkpt lat="45.54175" lon="6.83051">
        <ele>2564.5</ele>
        <time>2021-03-30T14:04:46Z</time>
      </trkpt>
      <trkpt lat="45.54175" lon="6.83052">
        <ele>2564.5</ele>
        <time>2021-03-30T14:04:47Z</time>
      </trkpt>
      <trkpt lat="45.54176" lon="6.83052">
        <ele>2564.5</ele>
        <time>2021-03-30T14:04:48Z</time>
      </trkpt>
      <trkpt lat="45.54176" lon="6.83052">
        <ele>2564.5</ele>
        <time>2021-03-30T14:04:49Z</time>
      </trkpt>
      <trkpt lat="45.54177" lon="6.83052">
        <ele>2564.5</ele>
        <time>2021-03-30T14:04:50Z</time>
      </trkpt>
      <trkpt lat="45.54177" lon="6.83052">
        <ele>2564.8</ele>
        <time>2021-03-30T14:04:51Z</time>
      </trkpt>
      <trkpt lat="45.54178" lon="6.83052">
        <ele>2564.8</ele>
        <time>2021-03-30T14:04:52Z</time>
      </trkpt>
      <trkpt lat="45.54178" lon="6.83052">
        <ele>2564.8</ele>
        <time>2021-03-30T14:04:53Z</time>
      </trkpt>
      <trkpt lat="45.54178" lon="6.83052">
        <ele>2564.8</ele>
        <time>2021-03-30T14:04:54Z</time>
      </trkpt>
      <trkpt lat="45.54179" lon="6.83052">
        <ele>2564.8</ele>
        <time>2021-03-30T14:04:55Z</time>
      </trkpt>
      <trkpt lat="45.54179" lon="6.83052">
        <ele>2564.8</ele>
        <time>2021-03-30T14:04:56Z</time>
      </trkpt>
      <trkpt lat="45.54179" lon="6.83052">
        <ele>2564.9</ele>
        <time>2021-03-30T14:04:57Z</time>
      </trkpt>
      <trkpt lat="45.5418" lon="6.83053">
        <ele>2564.9</ele>
        <time>2021-03-30T14:04:58Z</time>
      </trkpt>
      <trkpt lat="45.5418" lon="6.83053">
        <ele>2565.1</ele>
        <time>2021-03-30T14:04:59Z</time>
      </trkpt>
      <trkpt lat="45.5418" lon="6.83053">
        <ele>2565.1</ele>
        <time>2021-03-30T14:05:00Z</time>
      </trkpt>
      <trkpt lat="45.54181" lon="6.83053">
        <ele>2565.1</ele>
        <time>2021-03-30T14:13:28Z</time>
      </trkpt>
      <trkpt lat="45.54181" lon="6.83053">
        <ele>2565.1</ele>
        <time>2021-03-30T14:13:29Z</time>
      </trkpt>
      <trkpt lat="45.54181" lon="6.83053">
        <ele>2565.2</ele>
        <time>2021-03-30T14:13:30Z</time>
      </trkpt>
      <trkpt lat="45.54182" lon="6.83053">
        <ele>2565.2</ele>
        <time>2021-03-30T14:13:31Z</time>
      </trkpt>
      <trkpt lat="45.54182" lon="6.83053">
        <ele>2565.2</ele>
        <time>2021-03-30T14:13:32Z</time>
      </trkpt>
      <trkpt lat="45.54182" lon="6.83054">
        <ele>2565.3</ele>
        <time>2021-03-30T14:13:33Z</time>
      </trkpt>
      <trkpt lat="45.54183" lon="6.83054">
        <ele>2565.3</ele>
        <time>2021-03-30T14:13:34Z</time>
      </trkpt>
      <trkpt lat="45.54183" lon="6.83054">
        <ele>2565.5</ele>
        <time>2021-03-30T14:13:35Z</time>
      </trkpt>
      <trkpt lat="45.54183" lon="6.83054">
        <ele>2565.5</ele>
        <time>2021-03-30T14:13:36Z</time>
      </trkpt>
      <trkpt lat="45.54184" lon="6.83054">
        <ele>2565.6</ele>
        <time>2021-03-30T14:13:37Z</time>
      </trkpt>
      <trkpt lat="45.54184" lon="6.83054">
        <ele>2565.6</ele>
        <time>2021-03-30T14:14:44Z</time>
      </trkpt>
      <trkpt lat="45.54184" lon="6.83054">
        <ele>2565.6</ele>
        <time>2021-03-30T14:14:45Z</time>
      </trkpt>
      <trkpt lat="45.54185" lon="6.83055">
        <ele>2565.6</ele>
        <time>2021-03-30T14:14:46Z</time>
      </trkpt>
      <trkpt lat="45.54185" lon="6.83055">
        <ele>2565.6</ele>
        <time>2021-03-30T14:14:47Z</time>
      </trkpt>
      <trkpt lat="45.54185" lon="6.83055">
        <ele>2565.6</ele>
        <time>2021-03-30T14:14:48Z</time>
      </trkpt>
      <trkpt lat="45.54186" lon="6.83055">
        <ele>2565.6</ele>
        <time>2021-03-30T14:14:49Z</time>
      </trkpt>
      <trkpt lat="45.54186" lon="6.83055">
        <ele>2565.8</ele>
        <time>2021-03-30T14:14:50Z</time>
      </trkpt>
      <trkpt lat="45.54186" lon="6.83055">
        <ele>2565.8</ele>
        <time>2021-03-30T14:14:51Z</time>
      </trkpt>
      <trkpt lat="45.54187" lon="6.83055">
        <ele>2565.8</ele>
        <time>2021-03-30T14:14:52Z</time>
      </trkpt>
      <trkpt lat="45.54187" lon="6.83055">
        <ele>2565.8</ele>
        <time>2021-03-30T14:14:53Z</time>
      </trkpt>
      <trkpt lat="45.54187" lon="6.83056">
        <ele>2565.9</ele>
        <time>2021-03-30T14:18:07Z</time>
      </trkpt>
      <trkpt lat="45.54188" lon="6.83056">
        <ele>2565.9</ele>
        <time>2021-03-30T14:18:08Z</time>
      </trkpt>
      <trkpt lat="45.54188" lon="6.83056">
        <ele>2565.9</ele>
        <time>2021-03-30T14:18:09Z</time>
      </trkpt>
      <trkpt lat="45.54189" lon="6.83056">
        <ele>2566</ele>
        <time>2021-03-30T14:18:10Z</time>
      </trkpt>
      <trkpt lat="45.54189" lon="6.83056">
        <ele>2566</ele>
        <time>2021-03-30T14:18:11Z</time>
      </trkpt>
      <trkpt lat="45.5419" lon="6.83055">
        <ele>2566</ele>
        <time>2021-03-30T14:18:12Z</time>
      </trkpt>
      <trkpt lat="45.5419" lon="6.83055">
        <ele>2566.1</ele>
        <time>2021-03-30T14:18:13Z</time>
      </trkpt>
      <trkpt lat="45.54191" lon="6.83055">
        <ele>2566.1</ele>
        <time>2021-03-30T14:18:14Z</time>
      </trkpt>
      <trkpt lat="45.54192" lon="6.83054">
        <ele>2566.1</ele>
        <time>2021-03-30T14:18:15Z</time>
      </trkpt>
      <trkpt lat="45.54192" lon="6.83054">
        <ele>2566.2</ele>
        <time>2021-03-30T14:18:16Z</time>
      </trkpt>
      <trkpt lat="45.54193" lon="6.83054">
        <ele>2566.2</ele>
        <time>2021-03-30T14:18:17Z</time>
      </trkpt>
      <trkpt lat="45.54193" lon="6.83054">
        <ele>2566.2</ele>
        <time>2021-03-30T14:18:18Z</time>
      </trkpt>
      <trkpt lat="45.54194" lon="6.83053">
        <ele>2566.1</ele>
        <time>2021-03-30T14:18:19Z</time>
      </trkpt>
      <trkpt lat="45.54194" lon="6.83053">
        <ele>2566.2</ele>
        <time>2021-03-30T14:18:28Z</time>
      </trkpt>
      <trkpt lat="45.54195" lon="6.83053">
        <ele>2566.2</ele>
        <time>2021-03-30T14:18:29Z</time>
      </trkpt>
      <trkpt lat="45.54196" lon="6.83052">
        <ele>2566.3</ele>
        <time>2021-03-30T14:18:30Z</time>
      </trkpt>
      <trkpt lat="45.54196" lon="6.83053">
        <ele>2566.3</ele>
        <time>2021-03-30T14:18:31Z</time>
      </trkpt>
      <trkpt lat="45.54197" lon="6.83053">
        <ele>2566.3</ele>
        <time>2021-03-30T14:18:32Z</time>
      </trkpt>
      <trkpt lat="45.54198" lon="6.83054">
        <ele>2566.4</ele>
        <time>2021-03-30T14:18:33Z</time>
      </trkpt>
      <trkpt lat="45.54199" lon="6.83054">
        <ele>2566.4</ele>
        <time>2021-03-30T14:18:34Z</time>
      </trkpt>
      <trkpt lat="45.54201" lon="6.83054">
        <ele>2566.4</ele>
        <time>2021-03-30T14:18:35Z</time>
      </trkpt>
      <trkpt lat="45.54204" lon="6.83055">
        <ele>2566.4</ele>
        <time>2021-03-30T14:18:36Z</time>
      </trkpt>
      <trkpt lat="45.54206" lon="6.83055">
        <ele>2566.4</ele>
        <time>2021-03-30T14:18:37Z</time>
      </trkpt>
      <trkpt lat="45.54208" lon="6.83055">
        <ele>2566.4</ele>
        <time>2021-03-30T14:18:38Z</time>
      </trkpt>
      <trkpt lat="45.54212" lon="6.83056">
        <ele>2566.3</ele>
        <time>2021-03-30T14:18:39Z</time>
      </trkpt>
      <trkpt lat="45.54215" lon="6.83057">
        <ele>2566.3</ele>
        <time>2021-03-30T14:18:40Z</time>
      </trkpt>
      <trkpt lat="45.54219" lon="6.83058">
        <ele>2566.2</ele>
        <time>2021-03-30T14:18:41Z</time>
      </trkpt>
      <trkpt lat="45.54224" lon="6.8306">
        <ele>2566.1</ele>
        <time>2021-03-30T14:18:42Z</time>
      </trkpt>
      <trkpt lat="45.54229" lon="6.8306">
        <ele>2565.9</ele>
        <time>2021-03-30T14:18:43Z</time>
      </trkpt>
      <trkpt lat="45.54234" lon="6.8306">
        <ele>2565.6</ele>
        <time>2021-03-30T14:18:44Z</time>
      </trkpt>
      <trkpt lat="45.5424" lon="6.83062">
        <ele>2565.4</ele>
        <time>2021-03-30T14:18:45Z</time>
      </trkpt>
      <trkpt lat="45.54247" lon="6.83063">
        <ele>2565.2</ele>
        <time>2021-03-30T14:18:46Z</time>
      </trkpt>
      <trkpt lat="45.54253" lon="6.83065">
        <ele>2565</ele>
        <time>2021-03-30T14:18:47Z</time>
      </trkpt>
      <trkpt lat="45.54258" lon="6.83066">
        <ele>2564.8</ele>
        <time>2021-03-30T14:18:48Z</time>
      </trkpt>
      <trkpt lat="45.54264" lon="6.83066">
        <ele>2564.7</ele>
        <time>2021-03-30T14:18:49Z</time>
      </trkpt>
      <trkpt lat="45.54266" lon="6.83068">
        <ele>2564.7</ele>
        <time>2021-03-30T14:18:50Z</time>
      </trkpt>
      <trkpt lat="45.5427" lon="6.8307">
        <ele>2564.4</ele>
        <time>2021-03-30T14:18:51Z</time>
      </trkpt>
      <trkpt lat="45.54273" lon="6.83071">
        <ele>2564.3</ele>
        <time>2021-03-30T14:18:52Z</time>
      </trkpt>
      <trkpt lat="45.54274" lon="6.83071">
        <ele>2564.3</ele>
        <time>2021-03-30T14:18:53Z</time>
      </trkpt>
      <trkpt lat="45.54276" lon="6.83073">
        <ele>2564.3</ele>
        <time>2021-03-30T14:18:54Z</time>
      </trkpt>
      <trkpt lat="45.54277" lon="6.83074">
        <ele>2564.3</ele>
        <time>2021-03-30T14:18:55Z</time>
      </trkpt>
      <trkpt lat="45.54279" lon="6.83075">
        <ele>2564.3</ele>
        <time>2021-03-30T14:18:56Z</time>
      </trkpt>
      <trkpt lat="45.5428" lon="6.83076">
        <ele>2564.3</ele>
        <time>2021-03-30T14:18:57Z</time>
      </trkpt>
      <trkpt lat="45.54281" lon="6.83077">
        <ele>2564.3</ele>
        <time>2021-03-30T14:18:58Z</time>
      </trkpt>
      <trkpt lat="45.54283" lon="6.83077">
        <ele>2564.3</ele>
        <time>2021-03-30T14:18:59Z</time>
      </trkpt>
      <trkpt lat="45.54285" lon="6.83078">
        <ele>2564.3</ele>
        <time>2021-03-30T14:19:00Z</time>
      </trkpt>
      <trkpt lat="45.54286" lon="6.83079">
        <ele>2564.3</ele>
        <time>2021-03-30T14:19:01Z</time>
      </trkpt>
      <trkpt lat="45.54288" lon="6.8308">
        <ele>2564.3</ele>
        <time>2021-03-30T14:19:02Z</time>
      </trkpt>
      <trkpt lat="45.54289" lon="6.83081">
        <ele>2564.3</ele>
        <time>2021-03-30T14:19:03Z</time>
      </trkpt>
      <trkpt lat="45.54291" lon="6.83081">
        <ele>2564.3</ele>
        <time>2021-03-30T14:19:04Z</time>
      </trkpt>
      <trkpt lat="45.54292" lon="6.83082">
        <ele>2564.3</ele>
        <time>2021-03-30T14:19:05Z</time>
      </trkpt>
      <trkpt lat="45.54293" lon="6.83082">
        <ele>2564.3</ele>
        <time>2021-03-30T14:19:06Z</time>
      </trkpt>
      <trkpt lat="45.54294" lon="6.83082">
        <ele>2564.3</ele>
        <time>2021-03-30T14:19:07Z</time>
      </trkpt>
      <trkpt lat="45.54295" lon="6.83082">
        <ele>2564.3</ele>
        <time>2021-03-30T14:19:08Z</time>
      </trkpt>
      <trkpt lat="45.54296" lon="6.83082">
        <ele>2564.3</ele>
        <time>2021-03-30T14:19:09Z</time>
      </trkpt>
      <trkpt lat="45.54297" lon="6.83082">
        <ele>2564.3</ele>
        <time>2021-03-30T14:19:10Z</time>
      </trkpt>
      <trkpt lat="45.54299" lon="6.83083">
        <ele>2564.3</ele>
        <time>2021-03-30T14:19:11Z</time>
      </trkpt>
      <trkpt lat="45.543" lon="6.83083">
        <ele>2564.3</ele>
        <time>2021-03-30T14:19:12Z</time>
      </trkpt>
      <trkpt lat="45.54302" lon="6.83084">
        <ele>2564.3</ele>
        <time>2021-03-30T14:19:13Z</time>
      </trkpt>
      <trkpt lat="45.54303" lon="6.83084">
        <ele>2564.3</ele>
        <time>2021-03-30T14:19:14Z</time>
      </trkpt>
      <trkpt lat="45.54305" lon="6.83085">
        <ele>2564.3</ele>
        <time>2021-03-30T14:19:15Z</time>
      </trkpt>
      <trkpt lat="45.54306" lon="6.83085">
        <ele>2564.3</ele>
        <time>2021-03-30T14:19:16Z</time>
      </trkpt>
      <trkpt lat="45.54308" lon="6.83085">
        <ele>2564.3</ele>
        <time>2021-03-30T14:19:17Z</time>
      </trkpt>
      <trkpt lat="45.54309" lon="6.83085">
        <ele>2564.3</ele>
        <time>2021-03-30T14:19:18Z</time>
      </trkpt>
      <trkpt lat="45.5431" lon="6.83086">
        <ele>2564.2</ele>
        <time>2021-03-30T14:19:19Z</time>
      </trkpt>
      <trkpt lat="45.54312" lon="6.83086">
        <ele>2564.2</ele>
        <time>2021-03-30T14:19:20Z</time>
      </trkpt>
      <trkpt lat="45.54313" lon="6.83086">
        <ele>2564.2</ele>
        <time>2021-03-30T14:19:21Z</time>
      </trkpt>
      <trkpt lat="45.54315" lon="6.83087">
        <ele>2564.2</ele>
        <time>2021-03-30T14:19:22Z</time>
      </trkpt>
      <trkpt lat="45.54316" lon="6.83088">
        <ele>2564.1</ele>
        <time>2021-03-30T14:19:23Z</time>
      </trkpt>
      <trkpt lat="45.54317" lon="6.83088">
        <ele>2564.1</ele>
        <time>2021-03-30T14:19:24Z</time>
      </trkpt>
      <trkpt lat="45.54319" lon="6.83088">
        <ele>2564.1</ele>
        <time>2021-03-30T14:19:25Z</time>
      </trkpt>
      <trkpt lat="45.5432" lon="6.83088">
        <ele>2564</ele>
        <time>2021-03-30T14:19:26Z</time>
      </trkpt>
      <trkpt lat="45.54322" lon="6.83089">
        <ele>2564</ele>
        <time>2021-03-30T14:19:27Z</time>
      </trkpt>
      <trkpt lat="45.54323" lon="6.83089">
        <ele>2563.9</ele>
        <time>2021-03-30T14:19:28Z</time>
      </trkpt>
      <trkpt lat="45.54325" lon="6.8309">
        <ele>2563.9</ele>
        <time>2021-03-30T14:19:29Z</time>
      </trkpt>
      <trkpt lat="45.54326" lon="6.8309">
        <ele>2563.8</ele>
        <time>2021-03-30T14:19:30Z</time>
      </trkpt>
      <trkpt lat="45.54328" lon="6.8309">
        <ele>2563.7</ele>
        <time>2021-03-30T14:19:31Z</time>
      </trkpt>
      <trkpt lat="45.5433" lon="6.8309">
        <ele>2563.7</ele>
        <time>2021-03-30T14:19:32Z</time>
      </trkpt>
      <trkpt lat="45.54331" lon="6.83091">
        <ele>2563.6</ele>
        <time>2021-03-30T14:19:33Z</time>
      </trkpt>
      <trkpt lat="45.54333" lon="6.83091">
        <ele>2563.5</ele>
        <time>2021-03-30T14:19:34Z</time>
      </trkpt>
      <trkpt lat="45.54334" lon="6.83092">
        <ele>2563.4</ele>
        <time>2021-03-30T14:19:35Z</time>
      </trkpt>
      <trkpt lat="45.54337" lon="6.83092">
        <ele>2563.3</ele>
        <time>2021-03-30T14:19:36Z</time>
      </trkpt>
      <trkpt lat="45.54338" lon="6.83093">
        <ele>2563.2</ele>
        <time>2021-03-30T14:19:37Z</time>
      </trkpt>
      <trkpt lat="45.5434" lon="6.83093">
        <ele>2563.2</ele>
        <time>2021-03-30T14:19:38Z</time>
      </trkpt>
      <trkpt lat="45.54341" lon="6.83093">
        <ele>2563.1</ele>
        <time>2021-03-30T14:19:39Z</time>
      </trkpt>
      <trkpt lat="45.54343" lon="6.83093">
        <ele>2563</ele>
        <time>2021-03-30T14:19:40Z</time>
      </trkpt>
      <trkpt lat="45.54344" lon="6.83093">
        <ele>2562.9</ele>
        <time>2021-03-30T14:19:41Z</time>
      </trkpt>
      <trkpt lat="45.54346" lon="6.83093">
        <ele>2562.8</ele>
        <time>2021-03-30T14:19:42Z</time>
      </trkpt>
      <trkpt lat="45.54348" lon="6.83093">
        <ele>2562.6</ele>
        <time>2021-03-30T14:19:43Z</time>
      </trkpt>
      <trkpt lat="45.5435" lon="6.83094">
        <ele>2562.5</ele>
        <time>2021-03-30T14:19:44Z</time>
      </trkpt>
      <trkpt lat="45.54351" lon="6.83094">
        <ele>2562.4</ele>
        <time>2021-03-30T14:19:45Z</time>
      </trkpt>
      <trkpt lat="45.54354" lon="6.83095">
        <ele>2562.2</ele>
        <time>2021-03-30T14:19:46Z</time>
      </trkpt>
      <trkpt lat="45.54355" lon="6.83096">
        <ele>2562.2</ele>
        <time>2021-03-30T14:19:47Z</time>
      </trkpt>
      <trkpt lat="45.54357" lon="6.83096">
        <ele>2562.1</ele>
        <time>2021-03-30T14:19:48Z</time>
      </trkpt>
      <trkpt lat="45.54359" lon="6.83096">
        <ele>2562</ele>
        <time>2021-03-30T14:19:49Z</time>
      </trkpt>
      <trkpt lat="45.5436" lon="6.83096">
        <ele>2562</ele>
        <time>2021-03-30T14:19:50Z</time>
      </trkpt>
      <trkpt lat="45.54362" lon="6.83096">
        <ele>2562</ele>
        <time>2021-03-30T14:19:51Z</time>
      </trkpt>
      <trkpt lat="45.54363" lon="6.83096">
        <ele>2561.9</ele>
        <time>2021-03-30T14:19:52Z</time>
      </trkpt>
      <trkpt lat="45.54365" lon="6.83096">
        <ele>2561.9</ele>
        <time>2021-03-30T14:19:53Z</time>
      </trkpt>
      <trkpt lat="45.54366" lon="6.83096">
        <ele>2561.9</ele>
        <time>2021-03-30T14:19:54Z</time>
      </trkpt>
      <trkpt lat="45.54368" lon="6.83096">
        <ele>2561.9</ele>
        <time>2021-03-30T14:19:55Z</time>
      </trkpt>
      <trkpt lat="45.5437" lon="6.83096">
        <ele>2561.9</ele>
        <time>2021-03-30T14:19:56Z</time>
      </trkpt>
      <trkpt lat="45.54371" lon="6.83096">
        <ele>2561.9</ele>
        <time>2021-03-30T14:19:57Z</time>
      </trkpt>
      <trkpt lat="45.54372" lon="6.83096">
        <ele>2561.9</ele>
        <time>2021-03-30T14:19:58Z</time>
      </trkpt>
      <trkpt lat="45.54373" lon="6.83096">
        <ele>2561.9</ele>
        <time>2021-03-30T14:19:59Z</time>
      </trkpt>
      <trkpt lat="45.54375" lon="6.83096">
        <ele>2561.9</ele>
        <time>2021-03-30T14:20:00Z</time>
      </trkpt>
      <trkpt lat="45.54377" lon="6.83096">
        <ele>2561.9</ele>
        <time>2021-03-30T14:20:01Z</time>
      </trkpt>
      <trkpt lat="45.54378" lon="6.83096">
        <ele>2561.9</ele>
        <time>2021-03-30T14:20:02Z</time>
      </trkpt>
      <trkpt lat="45.54381" lon="6.83097">
        <ele>2561.9</ele>
        <time>2021-03-30T14:20:03Z</time>
      </trkpt>
      <trkpt lat="45.54382" lon="6.83097">
        <ele>2561.9</ele>
        <time>2021-03-30T14:20:04Z</time>
      </trkpt>
      <trkpt lat="45.54384" lon="6.83098">
        <ele>2562</ele>
        <time>2021-03-30T14:20:05Z</time>
      </trkpt>
      <trkpt lat="45.54385" lon="6.83099">
        <ele>2562</ele>
        <time>2021-03-30T14:20:06Z</time>
      </trkpt>
      <trkpt lat="45.54387" lon="6.831">
        <ele>2562</ele>
        <time>2021-03-30T14:20:07Z</time>
      </trkpt>
      <trkpt lat="45.54388" lon="6.831">
        <ele>2562</ele>
        <time>2021-03-30T14:20:08Z</time>
      </trkpt>
      <trkpt lat="45.54389" lon="6.831">
        <ele>2562</ele>
        <time>2021-03-30T14:20:09Z</time>
      </trkpt>
      <trkpt lat="45.5439" lon="6.831">
        <ele>2562</ele>
        <time>2021-03-30T14:20:10Z</time>
      </trkpt>
      <trkpt lat="45.54391" lon="6.83099">
        <ele>2562</ele>
        <time>2021-03-30T14:20:11Z</time>
      </trkpt>
      <trkpt lat="45.54393" lon="6.83098">
        <ele>2562</ele>
        <time>2021-03-30T14:20:12Z</time>
      </trkpt>
      <trkpt lat="45.54394" lon="6.83098">
        <ele>2562</ele>
        <time>2021-03-30T14:20:13Z</time>
      </trkpt>
      <trkpt lat="45.54395" lon="6.83098">
        <ele>2562</ele>
        <time>2021-03-30T14:20:14Z</time>
      </trkpt>
      <trkpt lat="45.54396" lon="6.83097">
        <ele>2562</ele>
        <time>2021-03-30T14:20:15Z</time>
      </trkpt>
      <trkpt lat="45.54398" lon="6.83097">
        <ele>2562</ele>
        <time>2021-03-30T14:20:16Z</time>
      </trkpt>
      <trkpt lat="45.54399" lon="6.83098">
        <ele>2562</ele>
        <time>2021-03-30T14:20:17Z</time>
      </trkpt>
      <trkpt lat="45.544" lon="6.83098">
        <ele>2562</ele>
        <time>2021-03-30T14:20:18Z</time>
      </trkpt>
      <trkpt lat="45.54403" lon="6.83097">
        <ele>2561.9</ele>
        <time>2021-03-30T14:20:19Z</time>
      </trkpt>
      <trkpt lat="45.54403" lon="6.83097">
        <ele>2561.9</ele>
        <time>2021-03-30T14:20:20Z</time>
      </trkpt>
      <trkpt lat="45.54404" lon="6.83097">
        <ele>2561.9</ele>
        <time>2021-03-30T14:20:21Z</time>
      </trkpt>
      <trkpt lat="45.54405" lon="6.83097">
        <ele>2561.9</ele>
        <time>2021-03-30T14:20:22Z</time>
      </trkpt>
      <trkpt lat="45.54407" lon="6.83097">
        <ele>2561.8</ele>
        <time>2021-03-30T14:20:23Z</time>
      </trkpt>
      <trkpt lat="45.54408" lon="6.83097">
        <ele>2561.8</ele>
        <time>2021-03-30T14:20:24Z</time>
      </trkpt>
      <trkpt lat="45.5441" lon="6.83098">
        <ele>2561.7</ele>
        <time>2021-03-30T14:20:25Z</time>
      </trkpt>
      <trkpt lat="45.54411" lon="6.83098">
        <ele>2561.7</ele>
        <time>2021-03-30T14:20:26Z</time>
      </trkpt>
      <trkpt lat="45.54412" lon="6.83098">
        <ele>2561.7</ele>
        <time>2021-03-30T14:20:27Z</time>
      </trkpt>
      <trkpt lat="45.54413" lon="6.83098">
        <ele>2561.7</ele>
        <time>2021-03-30T14:20:28Z</time>
      </trkpt>
      <trkpt lat="45.54414" lon="6.83098">
        <ele>2561.7</ele>
        <time>2021-03-30T14:20:29Z</time>
      </trkpt>
      <trkpt lat="45.54416" lon="6.83098">
        <ele>2561.6</ele>
        <time>2021-03-30T14:20:30Z</time>
      </trkpt>
      <trkpt lat="45.54416" lon="6.83098">
        <ele>2561.6</ele>
        <time>2021-03-30T14:20:31Z</time>
      </trkpt>
      <trkpt lat="45.54416" lon="6.83098">
        <ele>2561.6</ele>
        <time>2021-03-30T14:20:32Z</time>
      </trkpt>
      <trkpt lat="45.54417" lon="6.83098">
        <ele>2561.6</ele>
        <time>2021-03-30T14:20:33Z</time>
      </trkpt>
      <trkpt lat="45.54417" lon="6.83099">
        <ele>2561.6</ele>
        <time>2021-03-30T14:20:34Z</time>
      </trkpt>
      <trkpt lat="45.54418" lon="6.83099">
        <ele>2561.6</ele>
        <time>2021-03-30T14:20:35Z</time>
      </trkpt>
      <trkpt lat="45.54419" lon="6.831">
        <ele>2561.6</ele>
        <time>2021-03-30T14:20:36Z</time>
      </trkpt>
      <trkpt lat="45.5442" lon="6.831">
        <ele>2561.6</ele>
        <time>2021-03-30T14:20:37Z</time>
      </trkpt>
      <trkpt lat="45.54421" lon="6.831">
        <ele>2561.6</ele>
        <time>2021-03-30T14:20:38Z</time>
      </trkpt>
      <trkpt lat="45.54421" lon="6.831">
        <ele>2561.6</ele>
        <time>2021-03-30T14:20:39Z</time>
      </trkpt>
      <trkpt lat="45.54422" lon="6.831">
        <ele>2561.7</ele>
        <time>2021-03-30T14:20:40Z</time>
      </trkpt>
      <trkpt lat="45.54422" lon="6.831">
        <ele>2561.7</ele>
        <time>2021-03-30T14:20:41Z</time>
      </trkpt>
      <trkpt lat="45.54423" lon="6.831">
        <ele>2561.7</ele>
        <time>2021-03-30T14:20:42Z</time>
      </trkpt>
      <trkpt lat="45.54423" lon="6.831">
        <ele>2561.7</ele>
        <time>2021-03-30T14:20:43Z</time>
      </trkpt>
      <trkpt lat="45.54424" lon="6.831">
        <ele>2561.7</ele>
        <time>2021-03-30T14:20:44Z</time>
      </trkpt>
      <trkpt lat="45.54424" lon="6.831">
        <ele>2561.7</ele>
        <time>2021-03-30T14:20:45Z</time>
      </trkpt>
      <trkpt lat="45.54425" lon="6.83099">
        <ele>2561.7</ele>
        <time>2021-03-30T14:20:46Z</time>
      </trkpt>
      <trkpt lat="45.54425" lon="6.83099">
        <ele>2561.7</ele>
        <time>2021-03-30T14:20:47Z</time>
      </trkpt>
      <trkpt lat="45.54426" lon="6.83099">
        <ele>2561.7</ele>
        <time>2021-03-30T14:20:48Z</time>
      </trkpt>
      <trkpt lat="45.54426" lon="6.83099">
        <ele>2561.7</ele>
        <time>2021-03-30T14:20:49Z</time>
      </trkpt>
      <trkpt lat="45.54427" lon="6.83099">
        <ele>2561.7</ele>
        <time>2021-03-30T14:20:50Z</time>
      </trkpt>
      <trkpt lat="45.54427" lon="6.83099">
        <ele>2561.7</ele>
        <time>2021-03-30T14:20:51Z</time>
      </trkpt>
      <trkpt lat="45.54428" lon="6.83099">
        <ele>2561.7</ele>
        <time>2021-03-30T14:20:52Z</time>
      </trkpt>
      <trkpt lat="45.54429" lon="6.83099">
        <ele>2561.7</ele>
        <time>2021-03-30T14:20:53Z</time>
      </trkpt>
      <trkpt lat="45.5443" lon="6.83098">
        <ele>2561.7</ele>
        <time>2021-03-30T14:20:54Z</time>
      </trkpt>
      <trkpt lat="45.54431" lon="6.83098">
        <ele>2561.6</ele>
        <time>2021-03-30T14:20:55Z</time>
      </trkpt>
      <trkpt lat="45.54431" lon="6.83098">
        <ele>2561.6</ele>
        <time>2021-03-30T14:20:56Z</time>
      </trkpt>
      <trkpt lat="45.54432" lon="6.83098">
        <ele>2561.6</ele>
        <time>2021-03-30T14:20:57Z</time>
      </trkpt>
      <trkpt lat="45.54433" lon="6.83098">
        <ele>2561.5</ele>
        <time>2021-03-30T14:20:58Z</time>
      </trkpt>
      <trkpt lat="45.54434" lon="6.83098">
        <ele>2561.5</ele>
        <time>2021-03-30T14:20:59Z</time>
      </trkpt>
      <trkpt lat="45.54435" lon="6.83097">
        <ele>2561.4</ele>
        <time>2021-03-30T14:21:00Z</time>
      </trkpt>
      <trkpt lat="45.54436" lon="6.83098">
        <ele>2561.3</ele>
        <time>2021-03-30T14:21:01Z</time>
      </trkpt>
      <trkpt lat="45.54437" lon="6.83098">
        <ele>2561.2</ele>
        <time>2021-03-30T14:21:02Z</time>
      </trkpt>
      <trkpt lat="45.54439" lon="6.83098">
        <ele>2561.1</ele>
        <time>2021-03-30T14:21:03Z</time>
      </trkpt>
      <trkpt lat="45.54439" lon="6.83098">
        <ele>2561</ele>
        <time>2021-03-30T14:21:04Z</time>
      </trkpt>
      <trkpt lat="45.5444" lon="6.83098">
        <ele>2561</ele>
        <time>2021-03-30T14:21:05Z</time>
      </trkpt>
      <trkpt lat="45.5444" lon="6.83098">
        <ele>2560.9</ele>
        <time>2021-03-30T14:21:06Z</time>
      </trkpt>
      <trkpt lat="45.54441" lon="6.83098">
        <ele>2560.9</ele>
        <time>2021-03-30T14:21:07Z</time>
      </trkpt>
      <trkpt lat="45.54442" lon="6.83098">
        <ele>2560.8</ele>
        <time>2021-03-30T14:21:08Z</time>
      </trkpt>
      <trkpt lat="45.54442" lon="6.83098">
        <ele>2560.7</ele>
        <time>2021-03-30T14:21:09Z</time>
      </trkpt>
      <trkpt lat="45.54443" lon="6.83098">
        <ele>2560.7</ele>
        <time>2021-03-30T14:21:10Z</time>
      </trkpt>
      <trkpt lat="45.54443" lon="6.83098">
        <ele>2560.6</ele>
        <time>2021-03-30T14:21:11Z</time>
      </trkpt>
      <trkpt lat="45.54444" lon="6.83098">
        <ele>2560.5</ele>
        <time>2021-03-30T14:21:12Z</time>
      </trkpt>
      <trkpt lat="45.54444" lon="6.83097">
        <ele>2560.5</ele>
        <time>2021-03-30T14:21:51Z</time>
      </trkpt>
      <trkpt lat="45.54445" lon="6.83097">
        <ele>2560.4</ele>
        <time>2021-03-30T14:21:52Z</time>
      </trkpt>
      <trkpt lat="45.54446" lon="6.83097">
        <ele>2560.3</ele>
        <time>2021-03-30T14:21:53Z</time>
      </trkpt>
      <trkpt lat="45.54447" lon="6.83099">
        <ele>2560.1</ele>
        <time>2021-03-30T14:21:54Z</time>
      </trkpt>
      <trkpt lat="45.54448" lon="6.831">
        <ele>2560</ele>
        <time>2021-03-30T14:21:55Z</time>
      </trkpt>
      <trkpt lat="45.54448" lon="6.831">
        <ele>2559.9</ele>
        <time>2021-03-30T14:21:56Z</time>
      </trkpt>
      <trkpt lat="45.54449" lon="6.83101">
        <ele>2559.8</ele>
        <time>2021-03-30T14:21:57Z</time>
      </trkpt>
      <trkpt lat="45.54449" lon="6.83102">
        <ele>2559.7</ele>
        <time>2021-03-30T14:21:58Z</time>
      </trkpt>
      <trkpt lat="45.5445" lon="6.83103">
        <ele>2559.6</ele>
        <time>2021-03-30T14:21:59Z</time>
      </trkpt>
      <trkpt lat="45.54451" lon="6.83104">
        <ele>2559.5</ele>
        <time>2021-03-30T14:22:00Z</time>
      </trkpt>
      <trkpt lat="45.54451" lon="6.83105">
        <ele>2559.4</ele>
        <time>2021-03-30T14:22:01Z</time>
      </trkpt>
      <trkpt lat="45.54452" lon="6.83105">
        <ele>2559.3</ele>
        <time>2021-03-30T14:22:02Z</time>
      </trkpt>
      <trkpt lat="45.54452" lon="6.83106">
        <ele>2553.3</ele>
        <time>2021-03-30T14:22:03Z</time>
      </trkpt>
      <trkpt lat="45.54453" lon="6.83107">
        <ele>2553.1</ele>
        <time>2021-03-30T14:22:04Z</time>
      </trkpt>
      <trkpt lat="45.54453" lon="6.83108">
        <ele>2552.9</ele>
        <time>2021-03-30T14:22:05Z</time>
      </trkpt>
      <trkpt lat="45.54454" lon="6.83109">
        <ele>2552.7</ele>
        <time>2021-03-30T14:22:11Z</time>
      </trkpt>
      <trkpt lat="45.54455" lon="6.83109">
        <ele>2552.5</ele>
        <time>2021-03-30T14:22:12Z</time>
      </trkpt>
      <trkpt lat="45.54457" lon="6.83114">
        <ele>2551.5</ele>
        <time>2021-03-30T14:22:13Z</time>
      </trkpt>
      <trkpt lat="45.54459" lon="6.83118">
        <ele>2550.6</ele>
        <time>2021-03-30T14:22:14Z</time>
      </trkpt>
      <trkpt lat="45.54462" lon="6.83121">
        <ele>2549.9</ele>
        <time>2021-03-30T14:22:15Z</time>
      </trkpt>
      <trkpt lat="45.54465" lon="6.83122">
        <ele>2549.2</ele>
        <time>2021-03-30T14:22:16Z</time>
      </trkpt>
      <trkpt lat="45.54468" lon="6.83123">
        <ele>2548.5</ele>
        <time>2021-03-30T14:22:17Z</time>
      </trkpt>
      <trkpt lat="45.54471" lon="6.83124">
        <ele>2547.8</ele>
        <time>2021-03-30T14:22:18Z</time>
      </trkpt>
      <trkpt lat="45.54475" lon="6.83125">
        <ele>2547</ele>
        <time>2021-03-30T14:22:19Z</time>
      </trkpt>
      <trkpt lat="45.54478" lon="6.83126">
        <ele>2546.3</ele>
        <time>2021-03-30T14:22:20Z</time>
      </trkpt>
      <trkpt lat="45.54481" lon="6.83127">
        <ele>2545.5</ele>
        <time>2021-03-30T14:22:21Z</time>
      </trkpt>
      <trkpt lat="45.54485" lon="6.83129">
        <ele>2544.8</ele>
        <time>2021-03-30T14:22:22Z</time>
      </trkpt>
      <trkpt lat="45.54488" lon="6.83129">
        <ele>2544.1</ele>
        <time>2021-03-30T14:22:23Z</time>
      </trkpt>
      <trkpt lat="45.54491" lon="6.8313">
        <ele>2543.4</ele>
        <time>2021-03-30T14:22:24Z</time>
      </trkpt>
      <trkpt lat="45.54494" lon="6.83131">
        <ele>2542.7</ele>
        <time>2021-03-30T14:22:25Z</time>
      </trkpt>
      <trkpt lat="45.54497" lon="6.83132">
        <ele>2542</ele>
        <time>2021-03-30T14:22:26Z</time>
      </trkpt>
      <trkpt lat="45.54501" lon="6.83135">
        <ele>2541.1</ele>
        <time>2021-03-30T14:22:27Z</time>
      </trkpt>
      <trkpt lat="45.54505" lon="6.83137">
        <ele>2540.1</ele>
        <time>2021-03-30T14:22:28Z</time>
      </trkpt>
      <trkpt lat="45.54508" lon="6.83141">
        <ele>2539.2</ele>
        <time>2021-03-30T14:22:29Z</time>
      </trkpt>
      <trkpt lat="45.54512" lon="6.83144">
        <ele>2538.5</ele>
        <time>2021-03-30T14:22:30Z</time>
      </trkpt>
      <trkpt lat="45.54515" lon="6.83146">
        <ele>2537.9</ele>
        <time>2021-03-30T14:22:31Z</time>
      </trkpt>
      <trkpt lat="45.54515" lon="6.83147">
        <ele>2537.8</ele>
        <time>2021-03-30T14:22:32Z</time>
      </trkpt>
      <trkpt lat="45.54516" lon="6.83148">
        <ele>2537.6</ele>
        <time>2021-03-30T14:22:33Z</time>
      </trkpt>
      <trkpt lat="45.54516" lon="6.8315">
        <ele>2537.4</ele>
        <time>2021-03-30T14:22:34Z</time>
      </trkpt>
      <trkpt lat="45.54517" lon="6.83151">
        <ele>2537.2</ele>
        <time>2021-03-30T14:22:35Z</time>
      </trkpt>
      <trkpt lat="45.5452" lon="6.83156">
        <ele>2536.6</ele>
        <time>2021-03-30T14:22:36Z</time>
      </trkpt>
      <trkpt lat="45.54521" lon="6.83158">
        <ele>2536.3</ele>
        <time>2021-03-30T14:22:37Z</time>
      </trkpt>
      <trkpt lat="45.54526" lon="6.83162">
        <ele>2535.4</ele>
        <time>2021-03-30T14:22:38Z</time>
      </trkpt>
      <trkpt lat="45.54531" lon="6.83165">
        <ele>2534.6</ele>
        <time>2021-03-30T14:22:39Z</time>
      </trkpt>
      <trkpt lat="45.54535" lon="6.83167">
        <ele>2533.7</ele>
        <time>2021-03-30T14:22:40Z</time>
      </trkpt>
      <trkpt lat="45.5454" lon="6.83167">
        <ele>2532.9</ele>
        <time>2021-03-30T14:22:41Z</time>
      </trkpt>
      <trkpt lat="45.54545" lon="6.83167">
        <ele>2532.1</ele>
        <time>2021-03-30T14:22:42Z</time>
      </trkpt>
      <trkpt lat="45.5455" lon="6.83164">
        <ele>2531.3</ele>
        <time>2021-03-30T14:22:43Z</time>
      </trkpt>
      <trkpt lat="45.54554" lon="6.83162">
        <ele>2530.5</ele>
        <time>2021-03-30T14:22:44Z</time>
      </trkpt>
      <trkpt lat="45.54559" lon="6.83158">
        <ele>2529.7</ele>
        <time>2021-03-30T14:22:45Z</time>
      </trkpt>
      <trkpt lat="45.54563" lon="6.83155">
        <ele>2529</ele>
        <time>2021-03-30T14:22:46Z</time>
      </trkpt>
      <trkpt lat="45.54568" lon="6.8315">
        <ele>2528.2</ele>
        <time>2021-03-30T14:22:47Z</time>
      </trkpt>
      <trkpt lat="45.54573" lon="6.8314">
        <ele>2527</ele>
        <time>2021-03-30T14:22:48Z</time>
      </trkpt>
      <trkpt lat="45.54577" lon="6.83135">
        <ele>2526.3</ele>
        <time>2021-03-30T14:22:49Z</time>
      </trkpt>
      <trkpt lat="45.5458" lon="6.83132">
        <ele>2525.8</ele>
        <time>2021-03-30T14:22:50Z</time>
      </trkpt>
      <trkpt lat="45.54584" lon="6.83131">
        <ele>2525.2</ele>
        <time>2021-03-30T14:22:51Z</time>
      </trkpt>
      <trkpt lat="45.54588" lon="6.83129">
        <ele>2524.7</ele>
        <time>2021-03-30T14:22:52Z</time>
      </trkpt>
      <trkpt lat="45.54592" lon="6.83127">
        <ele>2524.2</ele>
        <time>2021-03-30T14:22:53Z</time>
      </trkpt>
      <trkpt lat="45.54594" lon="6.83122">
        <ele>2523.7</ele>
        <time>2021-03-30T14:22:54Z</time>
      </trkpt>
      <trkpt lat="45.54598" lon="6.83121">
        <ele>2523.2</ele>
        <time>2021-03-30T14:22:55Z</time>
      </trkpt>
      <trkpt lat="45.546" lon="6.8312">
        <ele>2522.8</ele>
        <time>2021-03-30T14:22:56Z</time>
      </trkpt>
      <trkpt lat="45.54603" lon="6.83119">
        <ele>2522.4</ele>
        <time>2021-03-30T14:22:57Z</time>
      </trkpt>
      <trkpt lat="45.54608" lon="6.83118">
        <ele>2521.8</ele>
        <time>2021-03-30T14:22:58Z</time>
      </trkpt>
      <trkpt lat="45.54609" lon="6.83118">
        <ele>2521.5</ele>
        <time>2021-03-30T14:22:59Z</time>
      </trkpt>
      <trkpt lat="45.54612" lon="6.83117">
        <ele>2521</ele>
        <time>2021-03-30T14:23:00Z</time>
      </trkpt>
      <trkpt lat="45.54615" lon="6.83116">
        <ele>2520.5</ele>
        <time>2021-03-30T14:23:01Z</time>
      </trkpt>
      <trkpt lat="45.54618" lon="6.83114">
        <ele>2520</ele>
        <time>2021-03-30T14:23:02Z</time>
      </trkpt>
      <trkpt lat="45.54616" lon="6.83109">
        <ele>2519.2</ele>
        <time>2021-03-30T14:23:03Z</time>
      </trkpt>
      <trkpt lat="45.54611" lon="6.83103">
        <ele>2517.9</ele>
        <time>2021-03-30T14:23:04Z</time>
      </trkpt>
      <trkpt lat="45.54606" lon="6.83097">
        <ele>2516.7</ele>
        <time>2021-03-30T14:23:05Z</time>
      </trkpt>
      <trkpt lat="45.54609" lon="6.83092">
        <ele>2515.8</ele>
        <time>2021-03-30T14:23:06Z</time>
      </trkpt>
      <trkpt lat="45.54613" lon="6.83089">
        <ele>2514.9</ele>
        <time>2021-03-30T14:23:07Z</time>
      </trkpt>
      <trkpt lat="45.54618" lon="6.83085">
        <ele>2513.9</ele>
        <time>2021-03-30T14:23:08Z</time>
      </trkpt>
      <trkpt lat="45.5462" lon="6.83079">
        <ele>2512.9</ele>
        <time>2021-03-30T14:23:09Z</time>
      </trkpt>
      <trkpt lat="45.54617" lon="6.8307">
        <ele>2510.5</ele>
        <time>2021-03-30T14:23:10Z</time>
      </trkpt>
      <trkpt lat="45.54612" lon="6.83061">
        <ele>2508.5</ele>
        <time>2021-03-30T14:23:11Z</time>
      </trkpt>
      <trkpt lat="45.54607" lon="6.83054">
        <ele>2507.6</ele>
        <time>2021-03-30T14:23:12Z</time>
      </trkpt>
      <trkpt lat="45.54606" lon="6.83047">
        <ele>2505.6</ele>
        <time>2021-03-30T14:23:13Z</time>
      </trkpt>
      <trkpt lat="45.54613" lon="6.83039">
        <ele>2501.9</ele>
        <time>2021-03-30T14:23:14Z</time>
      </trkpt>
      <trkpt lat="45.5462" lon="6.83029">
        <ele>2498.6</ele>
        <time>2021-03-30T14:23:15Z</time>
      </trkpt>
      <trkpt lat="45.54627" lon="6.83019">
        <ele>2494.4</ele>
        <time>2021-03-30T14:23:16Z</time>
      </trkpt>
      <trkpt lat="45.54635" lon="6.83006">
        <ele>2490.4</ele>
        <time>2021-03-30T14:23:17Z</time>
      </trkpt>
      <trkpt lat="45.54641" lon="6.82995">
        <ele>2488.1</ele>
        <time>2021-03-30T14:23:18Z</time>
      </trkpt>
      <trkpt lat="45.54646" lon="6.82979">
        <ele>2484.7</ele>
        <time>2021-03-30T14:23:19Z</time>
      </trkpt>
      <trkpt lat="45.54656" lon="6.82957">
        <ele>2480</ele>
        <time>2021-03-30T14:23:20Z</time>
      </trkpt>
      <trkpt lat="45.54664" lon="6.82941">
        <ele>2477.8</ele>
        <time>2021-03-30T14:23:21Z</time>
      </trkpt>
      <trkpt lat="45.54672" lon="6.82927">
        <ele>2477.8</ele>
        <time>2021-03-30T14:23:22Z</time>
      </trkpt>
      <trkpt lat="45.54678" lon="6.8291">
        <ele>2478.8</ele>
        <time>2021-03-30T14:23:23Z</time>
      </trkpt>
      <trkpt lat="45.54686" lon="6.82897">
        <ele>2478.9</ele>
        <time>2021-03-30T14:23:24Z</time>
      </trkpt>
      <trkpt lat="45.54691" lon="6.82883">
        <ele>2477.9</ele>
        <time>2021-03-30T14:23:25Z</time>
      </trkpt>
      <trkpt lat="45.54696" lon="6.82866">
        <ele>2476.8</ele>
        <time>2021-03-30T14:23:26Z</time>
      </trkpt>
      <trkpt lat="45.54701" lon="6.82852">
        <ele>2475.2</ele>
        <time>2021-03-30T14:23:27Z</time>
      </trkpt>
      <trkpt lat="45.54707" lon="6.82839">
        <ele>2474.1</ele>
        <time>2021-03-30T14:23:28Z</time>
      </trkpt>
      <trkpt lat="45.54712" lon="6.82827">
        <ele>2473.6</ele>
        <time>2021-03-30T14:23:29Z</time>
      </trkpt>
      <trkpt lat="45.54717" lon="6.82817">
        <ele>2473.6</ele>
        <time>2021-03-30T14:23:30Z</time>
      </trkpt>
      <trkpt lat="45.54722" lon="6.82806">
        <ele>2474</ele>
        <time>2021-03-30T14:23:31Z</time>
      </trkpt>
      <trkpt lat="45.54726" lon="6.82798">
        <ele>2474.2</ele>
        <time>2021-03-30T14:23:32Z</time>
      </trkpt>
      <trkpt lat="45.5473" lon="6.8279">
        <ele>2474.5</ele>
        <time>2021-03-30T14:23:33Z</time>
      </trkpt>
      <trkpt lat="45.54735" lon="6.82782">
        <ele>2474.4</ele>
        <time>2021-03-30T14:23:34Z</time>
      </trkpt>
      <trkpt lat="45.54738" lon="6.82776">
        <ele>2474.4</ele>
        <time>2021-03-30T14:23:35Z</time>
      </trkpt>
      <trkpt lat="45.5474" lon="6.82771">
        <ele>2474.4</ele>
        <time>2021-03-30T14:23:36Z</time>
      </trkpt>
      <trkpt lat="45.54742" lon="6.82768">
        <ele>2474.5</ele>
        <time>2021-03-30T14:23:37Z</time>
      </trkpt>
      <trkpt lat="45.54743" lon="6.82763">
        <ele>2474.2</ele>
        <time>2021-03-30T14:23:38Z</time>
      </trkpt>
      <trkpt lat="45.54744" lon="6.82759">
        <ele>2473.9</ele>
        <time>2021-03-30T14:23:39Z</time>
      </trkpt>
      <trkpt lat="45.54745" lon="6.82755">
        <ele>2473.9</ele>
        <time>2021-03-30T14:23:40Z</time>
      </trkpt>
      <trkpt lat="45.54746" lon="6.82754">
        <ele>2473.9</ele>
        <time>2021-03-30T14:23:41Z</time>
      </trkpt>
      <trkpt lat="45.54747" lon="6.8275">
        <ele>2473.5</ele>
        <time>2021-03-30T14:23:42Z</time>
      </trkpt>
      <trkpt lat="45.54747" lon="6.82749">
        <ele>2473.1</ele>
        <time>2021-03-30T14:23:43Z</time>
      </trkpt>
      <trkpt lat="45.54747" lon="6.82745">
        <ele>2473</ele>
        <time>2021-03-30T14:23:44Z</time>
      </trkpt>
      <trkpt lat="45.54749" lon="6.82745">
        <ele>2473.3</ele>
        <time>2021-03-30T14:23:45Z</time>
      </trkpt>
      <trkpt lat="45.5475" lon="6.82744">
        <ele>2472.8</ele>
        <time>2021-03-30T14:23:46Z</time>
      </trkpt>
      <trkpt lat="45.54752" lon="6.82742">
        <ele>2473</ele>
        <time>2021-03-30T14:23:47Z</time>
      </trkpt>
      <trkpt lat="45.54753" lon="6.8274">
        <ele>2472.5</ele>
        <time>2021-03-30T14:23:48Z</time>
      </trkpt>
      <trkpt lat="45.54753" lon="6.82739">
        <ele>2472.4</ele>
        <time>2021-03-30T14:23:49Z</time>
      </trkpt>
      <trkpt lat="45.54754" lon="6.82738">
        <ele>2472.6</ele>
        <time>2021-03-30T14:23:50Z</time>
      </trkpt>
      <trkpt lat="45.54755" lon="6.82736">
        <ele>2472.5</ele>
        <time>2021-03-30T14:23:51Z</time>
      </trkpt>
      <trkpt lat="45.54756" lon="6.82734">
        <ele>2472</ele>
        <time>2021-03-30T14:23:52Z</time>
      </trkpt>
      <trkpt lat="45.54757" lon="6.82732">
        <ele>2472.1</ele>
        <time>2021-03-30T14:23:53Z</time>
      </trkpt>
      <trkpt lat="45.54758" lon="6.82731">
        <ele>2471.5</ele>
        <time>2021-03-30T14:23:54Z</time>
      </trkpt>
      <trkpt lat="45.54759" lon="6.82728">
        <ele>2471.5</ele>
        <time>2021-03-30T14:23:55Z</time>
      </trkpt>
      <trkpt lat="45.54759" lon="6.82726">
        <ele>2470.9</ele>
        <time>2021-03-30T14:23:56Z</time>
      </trkpt>
      <trkpt lat="45.54759" lon="6.82725">
        <ele>2470.8</ele>
        <time>2021-03-30T14:23:57Z</time>
      </trkpt>
      <trkpt lat="45.54761" lon="6.82721">
        <ele>2470.3</ele>
        <time>2021-03-30T14:23:58Z</time>
      </trkpt>
      <trkpt lat="45.54762" lon="6.8272">
        <ele>2470.3</ele>
        <time>2021-03-30T14:23:59Z</time>
      </trkpt>
      <trkpt lat="45.54764" lon="6.82717">
        <ele>2469.7</ele>
        <time>2021-03-30T14:24:00Z</time>
      </trkpt>
      <trkpt lat="45.54766" lon="6.82713">
        <ele>2469</ele>
        <time>2021-03-30T14:24:01Z</time>
      </trkpt>
      <trkpt lat="45.54766" lon="6.82711">
        <ele>2469</ele>
        <time>2021-03-30T14:24:02Z</time>
      </trkpt>
      <trkpt lat="45.54768" lon="6.82708">
        <ele>2468.3</ele>
        <time>2021-03-30T14:24:03Z</time>
      </trkpt>
      <trkpt lat="45.54769" lon="6.82707">
        <ele>2468.2</ele>
        <time>2021-03-30T14:24:04Z</time>
      </trkpt>
      <trkpt lat="45.54771" lon="6.82703">
        <ele>2467.5</ele>
        <time>2021-03-30T14:24:05Z</time>
      </trkpt>
      <trkpt lat="45.54772" lon="6.827">
        <ele>2466.7</ele>
        <time>2021-03-30T14:24:06Z</time>
      </trkpt>
      <trkpt lat="45.54774" lon="6.82695">
        <ele>2465.9</ele>
        <time>2021-03-30T14:24:07Z</time>
      </trkpt>
      <trkpt lat="45.54775" lon="6.82689">
        <ele>2465</ele>
        <time>2021-03-30T14:24:08Z</time>
      </trkpt>
      <trkpt lat="45.54777" lon="6.82684">
        <ele>2463.5</ele>
        <time>2021-03-30T14:24:09Z</time>
      </trkpt>
      <trkpt lat="45.54779" lon="6.82678">
        <ele>2462.6</ele>
        <time>2021-03-30T14:24:10Z</time>
      </trkpt>
      <trkpt lat="45.54783" lon="6.82672">
        <ele>2461.5</ele>
        <time>2021-03-30T14:24:11Z</time>
      </trkpt>
      <trkpt lat="45.54786" lon="6.82666">
        <ele>2459.5</ele>
        <time>2021-03-30T14:24:12Z</time>
      </trkpt>
      <trkpt lat="45.54789" lon="6.82661">
        <ele>2458.2</ele>
        <time>2021-03-30T14:24:13Z</time>
      </trkpt>
      <trkpt lat="45.54793" lon="6.82656">
        <ele>2456.5</ele>
        <time>2021-03-30T14:24:14Z</time>
      </trkpt>
      <trkpt lat="45.54796" lon="6.82651">
        <ele>2455.5</ele>
        <time>2021-03-30T14:24:15Z</time>
      </trkpt>
      <trkpt lat="45.54794" lon="6.82646">
        <ele>2453.6</ele>
        <time>2021-03-30T14:24:16Z</time>
      </trkpt>
      <trkpt lat="45.54799" lon="6.82641">
        <ele>2452.3</ele>
        <time>2021-03-30T14:24:17Z</time>
      </trkpt>
      <trkpt lat="45.548" lon="6.82633">
        <ele>2451</ele>
        <time>2021-03-30T14:24:18Z</time>
      </trkpt>
      <trkpt lat="45.54802" lon="6.82625">
        <ele>2449.4</ele>
        <time>2021-03-30T14:24:19Z</time>
      </trkpt>
      <trkpt lat="45.54803" lon="6.82619">
        <ele>2447.3</ele>
        <time>2021-03-30T14:24:20Z</time>
      </trkpt>
      <trkpt lat="45.54807" lon="6.82613">
        <ele>2445.9</ele>
        <time>2021-03-30T14:24:21Z</time>
      </trkpt>
      <trkpt lat="45.5481" lon="6.82607">
        <ele>2443.6</ele>
        <time>2021-03-30T14:24:22Z</time>
      </trkpt>
      <trkpt lat="45.54814" lon="6.82598">
        <ele>2441.6</ele>
        <time>2021-03-30T14:24:23Z</time>
      </trkpt>
      <trkpt lat="45.54816" lon="6.82588">
        <ele>2439.7</ele>
        <time>2021-03-30T14:24:24Z</time>
      </trkpt>
      <trkpt lat="45.54819" lon="6.82579">
        <ele>2438.2</ele>
        <time>2021-03-30T14:24:25Z</time>
      </trkpt>
      <trkpt lat="45.54825" lon="6.82573">
        <ele>2436.6</ele>
        <time>2021-03-30T14:24:26Z</time>
      </trkpt>
      <trkpt lat="45.54829" lon="6.82566">
        <ele>2434.8</ele>
        <time>2021-03-30T14:24:27Z</time>
      </trkpt>
      <trkpt lat="45.54836" lon="6.82566">
        <ele>2434.1</ele>
        <time>2021-03-30T14:24:28Z</time>
      </trkpt>
      <trkpt lat="45.54843" lon="6.82562">
        <ele>2433.5</ele>
        <time>2021-03-30T14:24:29Z</time>
      </trkpt>
      <trkpt lat="45.54849" lon="6.82559">
        <ele>2433.1</ele>
        <time>2021-03-30T14:24:30Z</time>
      </trkpt>
      <trkpt lat="45.54854" lon="6.8256">
        <ele>2432.8</ele>
        <time>2021-03-30T14:24:31Z</time>
      </trkpt>
      <trkpt lat="45.54859" lon="6.82557">
        <ele>2432.6</ele>
        <time>2021-03-30T14:24:32Z</time>
      </trkpt>
      <trkpt lat="45.54865" lon="6.82557">
        <ele>2432.3</ele>
        <time>2021-03-30T14:24:33Z</time>
      </trkpt>
      <trkpt lat="45.54868" lon="6.82561">
        <ele>2432.1</ele>
        <time>2021-03-30T14:24:34Z</time>
      </trkpt>
      <trkpt lat="45.54872" lon="6.82565">
        <ele>2431.9</ele>
        <time>2021-03-30T14:24:35Z</time>
      </trkpt>
      <trkpt lat="45.54875" lon="6.82567">
        <ele>2431.8</ele>
        <time>2021-03-30T14:24:36Z</time>
      </trkpt>
      <trkpt lat="45.54878" lon="6.8257">
        <ele>2431.6</ele>
        <time>2021-03-30T14:24:37Z</time>
      </trkpt>
      <trkpt lat="45.54881" lon="6.82572">
        <ele>2431.5</ele>
        <time>2021-03-30T14:24:38Z</time>
      </trkpt>
      <trkpt lat="45.54882" lon="6.82577">
        <ele>2431.2</ele>
        <time>2021-03-30T14:24:39Z</time>
      </trkpt>
      <trkpt lat="45.54883" lon="6.82579">
        <ele>2431.1</ele>
        <time>2021-03-30T14:24:40Z</time>
      </trkpt>
      <trkpt lat="45.54885" lon="6.82582">
        <ele>2430.9</ele>
        <time>2021-03-30T14:24:41Z</time>
      </trkpt>
      <trkpt lat="45.54886" lon="6.82583">
        <ele>2430.8</ele>
        <time>2021-03-30T14:24:42Z</time>
      </trkpt>
      <trkpt lat="45.54888" lon="6.82587">
        <ele>2430.6</ele>
        <time>2021-03-30T14:24:43Z</time>
      </trkpt>
      <trkpt lat="45.54889" lon="6.82592">
        <ele>2430.3</ele>
        <time>2021-03-30T14:24:44Z</time>
      </trkpt>
      <trkpt lat="45.54889" lon="6.82593">
        <ele>2430.2</ele>
        <time>2021-03-30T14:24:45Z</time>
      </trkpt>
      <trkpt lat="45.54892" lon="6.82597">
        <ele>2429.9</ele>
        <time>2021-03-30T14:24:46Z</time>
      </trkpt>
      <trkpt lat="45.54895" lon="6.82601">
        <ele>2429.5</ele>
        <time>2021-03-30T14:24:47Z</time>
      </trkpt>
      <trkpt lat="45.54898" lon="6.82606">
        <ele>2429.1</ele>
        <time>2021-03-30T14:24:48Z</time>
      </trkpt>
      <trkpt lat="45.54901" lon="6.82616">
        <ele>2428.2</ele>
        <time>2021-03-30T14:24:49Z</time>
      </trkpt>
      <trkpt lat="45.54905" lon="6.82625">
        <ele>2427.3</ele>
        <time>2021-03-30T14:24:50Z</time>
      </trkpt>
      <trkpt lat="45.54907" lon="6.82633">
        <ele>2426.5</ele>
        <time>2021-03-30T14:24:51Z</time>
      </trkpt>
      <trkpt lat="45.5491" lon="6.82643">
        <ele>2425.6</ele>
        <time>2021-03-30T14:24:52Z</time>
      </trkpt>
      <trkpt lat="45.54913" lon="6.82649">
        <ele>2424.9</ele>
        <time>2021-03-30T14:24:53Z</time>
      </trkpt>
      <trkpt lat="45.54917" lon="6.82656">
        <ele>2424.2</ele>
        <time>2021-03-30T14:24:54Z</time>
      </trkpt>
      <trkpt lat="45.5492" lon="6.82664">
        <ele>2423.4</ele>
        <time>2021-03-30T14:24:55Z</time>
      </trkpt>
      <trkpt lat="45.54922" lon="6.82671">
        <ele>2422.7</ele>
        <time>2021-03-30T14:24:56Z</time>
      </trkpt>
      <trkpt lat="45.54927" lon="6.82678">
        <ele>2421.7</ele>
        <time>2021-03-30T14:24:57Z</time>
      </trkpt>
      <trkpt lat="45.5493" lon="6.82682">
        <ele>2421.2</ele>
        <time>2021-03-30T14:24:58Z</time>
      </trkpt>
      <trkpt lat="45.54932" lon="6.82686">
        <ele>2420.7</ele>
        <time>2021-03-30T14:24:59Z</time>
      </trkpt>
      <trkpt lat="45.54932" lon="6.82688">
        <ele>2420.5</ele>
        <time>2021-03-30T14:25:00Z</time>
      </trkpt>
      <trkpt lat="45.54931" lon="6.82687">
        <ele>2420.5</ele>
        <time>2021-03-30T14:25:01Z</time>
      </trkpt>
      <trkpt lat="45.54931" lon="6.82688">
        <ele>2420.4</ele>
        <time>2021-03-30T14:25:02Z</time>
      </trkpt>
      <trkpt lat="45.54931" lon="6.82688">
        <ele>2420.4</ele>
        <time>2021-03-30T14:25:03Z</time>
      </trkpt>
      <trkpt lat="45.54932" lon="6.82685">
        <ele>2420.2</ele>
        <time>2021-03-30T14:25:04Z</time>
      </trkpt>
      <trkpt lat="45.54932" lon="6.82689">
        <ele>2419.8</ele>
        <time>2021-03-30T14:25:05Z</time>
      </trkpt>
      <trkpt lat="45.54933" lon="6.82691">
        <ele>2419.6</ele>
        <time>2021-03-30T14:25:06Z</time>
      </trkpt>
      <trkpt lat="45.54937" lon="6.82694">
        <ele>2419</ele>
        <time>2021-03-30T14:25:07Z</time>
      </trkpt>
      <trkpt lat="45.54939" lon="6.82695">
        <ele>2418.6</ele>
        <time>2021-03-30T14:25:08Z</time>
      </trkpt>
      <trkpt lat="45.54943" lon="6.82696">
        <ele>2418.1</ele>
        <time>2021-03-30T14:25:09Z</time>
      </trkpt>
      <trkpt lat="45.54946" lon="6.82699">
        <ele>2417.6</ele>
        <time>2021-03-30T14:25:10Z</time>
      </trkpt>
      <trkpt lat="45.5495" lon="6.82706">
        <ele>2416.8</ele>
        <time>2021-03-30T14:25:11Z</time>
      </trkpt>
      <trkpt lat="45.54953" lon="6.82706">
        <ele>2416.4</ele>
        <time>2021-03-30T14:25:12Z</time>
      </trkpt>
      <trkpt lat="45.54954" lon="6.82708">
        <ele>2416.1</ele>
        <time>2021-03-30T14:25:13Z</time>
      </trkpt>
      <trkpt lat="45.54957" lon="6.82711">
        <ele>2415.6</ele>
        <time>2021-03-30T14:25:14Z</time>
      </trkpt>
      <trkpt lat="45.54959" lon="6.82712">
        <ele>2415.4</ele>
        <time>2021-03-30T14:25:15Z</time>
      </trkpt>
      <trkpt lat="45.54964" lon="6.82716">
        <ele>2414.6</ele>
        <time>2021-03-30T14:25:16Z</time>
      </trkpt>
      <trkpt lat="45.54968" lon="6.82721">
        <ele>2413.9</ele>
        <time>2021-03-30T14:25:17Z</time>
      </trkpt>
      <trkpt lat="45.54971" lon="6.82728">
        <ele>2413.1</ele>
        <time>2021-03-30T14:25:18Z</time>
      </trkpt>
      <trkpt lat="45.54976" lon="6.82732">
        <ele>2412.4</ele>
        <time>2021-03-30T14:25:19Z</time>
      </trkpt>
      <trkpt lat="45.54982" lon="6.82736">
        <ele>2411.5</ele>
        <time>2021-03-30T14:25:20Z</time>
      </trkpt>
      <trkpt lat="45.54987" lon="6.82743">
        <ele>2410.6</ele>
        <time>2021-03-30T14:25:21Z</time>
      </trkpt>
      <trkpt lat="45.54992" lon="6.82747">
        <ele>2409.8</ele>
        <time>2021-03-30T14:25:22Z</time>
      </trkpt>
      <trkpt lat="45.54997" lon="6.82749">
        <ele>2409.1</ele>
        <time>2021-03-30T14:25:23Z</time>
      </trkpt>
      <trkpt lat="45.55001" lon="6.82751">
        <ele>2408.5</ele>
        <time>2021-03-30T14:25:24Z</time>
      </trkpt>
      <trkpt lat="45.55007" lon="6.82751">
        <ele>2407.7</ele>
        <time>2021-03-30T14:25:25Z</time>
      </trkpt>
      <trkpt lat="45.55012" lon="6.82754">
        <ele>2407.1</ele>
        <time>2021-03-30T14:25:26Z</time>
      </trkpt>
      <trkpt lat="45.55015" lon="6.82755">
        <ele>2406.5</ele>
        <time>2021-03-30T14:25:27Z</time>
      </trkpt>
      <trkpt lat="45.55019" lon="6.82756">
        <ele>2406</ele>
        <time>2021-03-30T14:25:28Z</time>
      </trkpt>
      <trkpt lat="45.55021" lon="6.82756">
        <ele>2405.8</ele>
        <time>2021-03-30T14:25:29Z</time>
      </trkpt>
      <trkpt lat="45.55025" lon="6.82758">
        <ele>2405.1</ele>
        <time>2021-03-30T14:25:30Z</time>
      </trkpt>
      <trkpt lat="45.55031" lon="6.82758">
        <ele>2404.3</ele>
        <time>2021-03-30T14:25:31Z</time>
      </trkpt>
      <trkpt lat="45.55036" lon="6.82758">
        <ele>2403.6</ele>
        <time>2021-03-30T14:25:32Z</time>
      </trkpt>
      <trkpt lat="45.5504" lon="6.82757">
        <ele>2403</ele>
        <time>2021-03-30T14:25:33Z</time>
      </trkpt>
      <trkpt lat="45.55044" lon="6.82756">
        <ele>2402.3</ele>
        <time>2021-03-30T14:25:34Z</time>
      </trkpt>
      <trkpt lat="45.55049" lon="6.82754">
        <ele>2401.6</ele>
        <time>2021-03-30T14:25:35Z</time>
      </trkpt>
      <trkpt lat="45.55055" lon="6.82752">
        <ele>2400.8</ele>
        <time>2021-03-30T14:25:36Z</time>
      </trkpt>
      <trkpt lat="45.55061" lon="6.82747">
        <ele>2399.8</ele>
        <time>2021-03-30T14:25:37Z</time>
      </trkpt>
      <trkpt lat="45.55069" lon="6.82741">
        <ele>2398.7</ele>
        <time>2021-03-30T14:25:38Z</time>
      </trkpt>
      <trkpt lat="45.55077" lon="6.82734">
        <ele>2397.4</ele>
        <time>2021-03-30T14:25:39Z</time>
      </trkpt>
      <trkpt lat="45.55084" lon="6.82729">
        <ele>2396.2</ele>
        <time>2021-03-30T14:25:40Z</time>
      </trkpt>
      <trkpt lat="45.55092" lon="6.82728">
        <ele>2395.1</ele>
        <time>2021-03-30T14:25:41Z</time>
      </trkpt>
      <trkpt lat="45.55099" lon="6.82729">
        <ele>2394.1</ele>
        <time>2021-03-30T14:25:42Z</time>
      </trkpt>
      <trkpt lat="45.55108" lon="6.82727">
        <ele>2392.8</ele>
        <time>2021-03-30T14:25:43Z</time>
      </trkpt>
      <trkpt lat="45.55115" lon="6.82723">
        <ele>2391.5</ele>
        <time>2021-03-30T14:25:44Z</time>
      </trkpt>
      <trkpt lat="45.55122" lon="6.82719">
        <ele>2390.1</ele>
        <time>2021-03-30T14:25:45Z</time>
      </trkpt>
      <trkpt lat="45.5513" lon="6.82716">
        <ele>2388.8</ele>
        <time>2021-03-30T14:25:46Z</time>
      </trkpt>
      <trkpt lat="45.55138" lon="6.82712">
        <ele>2387.3</ele>
        <time>2021-03-30T14:25:47Z</time>
      </trkpt>
      <trkpt lat="45.55147" lon="6.82709">
        <ele>2385.7</ele>
        <time>2021-03-30T14:25:48Z</time>
      </trkpt>
      <trkpt lat="45.55155" lon="6.82703">
        <ele>2384.1</ele>
        <time>2021-03-30T14:25:49Z</time>
      </trkpt>
      <trkpt lat="45.55163" lon="6.82694">
        <ele>2382.2</ele>
        <time>2021-03-30T14:25:50Z</time>
      </trkpt>
      <trkpt lat="45.55172" lon="6.82687">
        <ele>2380.4</ele>
        <time>2021-03-30T14:25:51Z</time>
      </trkpt>
      <trkpt lat="45.55181" lon="6.82682">
        <ele>2378.6</ele>
        <time>2021-03-30T14:25:52Z</time>
      </trkpt>
      <trkpt lat="45.5519" lon="6.82671">
        <ele>2376.6</ele>
        <time>2021-03-30T14:25:53Z</time>
      </trkpt>
      <trkpt lat="45.55198" lon="6.82663">
        <ele>2374.8</ele>
        <time>2021-03-30T14:25:54Z</time>
      </trkpt>
      <trkpt lat="45.55206" lon="6.82654">
        <ele>2372.9</ele>
        <time>2021-03-30T14:25:55Z</time>
      </trkpt>
      <trkpt lat="45.55212" lon="6.82645">
        <ele>2371.3</ele>
        <time>2021-03-30T14:25:56Z</time>
      </trkpt>
      <trkpt lat="45.55219" lon="6.82638">
        <ele>2369.8</ele>
        <time>2021-03-30T14:25:57Z</time>
      </trkpt>
      <trkpt lat="45.55227" lon="6.82631">
        <ele>2368.3</ele>
        <time>2021-03-30T14:25:58Z</time>
      </trkpt>
      <trkpt lat="45.55234" lon="6.82618">
        <ele>2366.6</ele>
        <time>2021-03-30T14:25:59Z</time>
      </trkpt>
      <trkpt lat="45.5524" lon="6.82609">
        <ele>2365.4</ele>
        <time>2021-03-30T14:26:00Z</time>
      </trkpt>
      <trkpt lat="45.55246" lon="6.82601">
        <ele>2364.4</ele>
        <time>2021-03-30T14:26:01Z</time>
      </trkpt>
      <trkpt lat="45.55253" lon="6.82595">
        <ele>2363.4</ele>
        <time>2021-03-30T14:26:02Z</time>
      </trkpt>
      <trkpt lat="45.55259" lon="6.82587">
        <ele>2362.6</ele>
        <time>2021-03-30T14:26:03Z</time>
      </trkpt>
      <trkpt lat="45.55265" lon="6.82579">
        <ele>2361.7</ele>
        <time>2021-03-30T14:26:04Z</time>
      </trkpt>
      <trkpt lat="45.55269" lon="6.82569">
        <ele>2360.9</ele>
        <time>2021-03-30T14:26:05Z</time>
      </trkpt>
      <trkpt lat="45.55274" lon="6.82564">
        <ele>2360.2</ele>
        <time>2021-03-30T14:26:06Z</time>
      </trkpt>
      <trkpt lat="45.55279" lon="6.8256">
        <ele>2359.6</ele>
        <time>2021-03-30T14:26:07Z</time>
      </trkpt>
      <trkpt lat="45.55283" lon="6.82553">
        <ele>2358.9</ele>
        <time>2021-03-30T14:26:08Z</time>
      </trkpt>
      <trkpt lat="45.55286" lon="6.82547">
        <ele>2358.3</ele>
        <time>2021-03-30T14:26:09Z</time>
      </trkpt>
      <trkpt lat="45.5529" lon="6.82543">
        <ele>2357.9</ele>
        <time>2021-03-30T14:26:10Z</time>
      </trkpt>
      <trkpt lat="45.55294" lon="6.82536">
        <ele>2357.3</ele>
        <time>2021-03-30T14:26:11Z</time>
      </trkpt>
      <trkpt lat="45.55297" lon="6.82533">
        <ele>2357</ele>
        <time>2021-03-30T14:26:12Z</time>
      </trkpt>
      <trkpt lat="45.553" lon="6.8253">
        <ele>2356.6</ele>
        <time>2021-03-30T14:26:13Z</time>
      </trkpt>
      <trkpt lat="45.55303" lon="6.82524">
        <ele>2356.2</ele>
        <time>2021-03-30T14:26:14Z</time>
      </trkpt>
      <trkpt lat="45.55306" lon="6.82523">
        <ele>2355.9</ele>
        <time>2021-03-30T14:26:15Z</time>
      </trkpt>
      <trkpt lat="45.55307" lon="6.82517">
        <ele>2355.5</ele>
        <time>2021-03-30T14:26:16Z</time>
      </trkpt>
      <trkpt lat="45.55308" lon="6.82513">
        <ele>2355.3</ele>
        <time>2021-03-30T14:26:17Z</time>
      </trkpt>
      <trkpt lat="45.55309" lon="6.82509">
        <ele>2355.1</ele>
        <time>2021-03-30T14:26:18Z</time>
      </trkpt>
      <trkpt lat="45.5531" lon="6.82504">
        <ele>2354.8</ele>
        <time>2021-03-30T14:26:19Z</time>
      </trkpt>
      <trkpt lat="45.55313" lon="6.825">
        <ele>2354.6</ele>
        <time>2021-03-30T14:26:20Z</time>
      </trkpt>
      <trkpt lat="45.55314" lon="6.82499">
        <ele>2354.5</ele>
        <time>2021-03-30T14:26:21Z</time>
      </trkpt>
      <trkpt lat="45.55317" lon="6.82495">
        <ele>2354.1</ele>
        <time>2021-03-30T14:26:22Z</time>
      </trkpt>
      <trkpt lat="45.55317" lon="6.82494">
        <ele>2354</ele>
        <time>2021-03-30T14:26:23Z</time>
      </trkpt>
      <trkpt lat="45.5532" lon="6.8249">
        <ele>2353.8</ele>
        <time>2021-03-30T14:26:24Z</time>
      </trkpt>
      <trkpt lat="45.5532" lon="6.82488">
        <ele>2353.7</ele>
        <time>2021-03-30T14:26:25Z</time>
      </trkpt>
      <trkpt lat="45.55322" lon="6.82485">
        <ele>2353.4</ele>
        <time>2021-03-30T14:26:26Z</time>
      </trkpt>
      <trkpt lat="45.55322" lon="6.82483">
        <ele>2353.3</ele>
        <time>2021-03-30T14:26:27Z</time>
      </trkpt>
      <trkpt lat="45.55325" lon="6.8248">
        <ele>2353</ele>
        <time>2021-03-30T14:26:28Z</time>
      </trkpt>
      <trkpt lat="45.55326" lon="6.82478">
        <ele>2352.9</ele>
        <time>2021-03-30T14:26:29Z</time>
      </trkpt>
      <trkpt lat="45.55328" lon="6.82475">
        <ele>2352.7</ele>
        <time>2021-03-30T14:26:30Z</time>
      </trkpt>
      <trkpt lat="45.5533" lon="6.82472">
        <ele>2352.5</ele>
        <time>2021-03-30T14:26:31Z</time>
      </trkpt>
      <trkpt lat="45.55332" lon="6.8247">
        <ele>2352.2</ele>
        <time>2021-03-30T14:26:32Z</time>
      </trkpt>
      <trkpt lat="45.55335" lon="6.82468">
        <ele>2352.1</ele>
        <time>2021-03-30T14:26:33Z</time>
      </trkpt>
      <trkpt lat="45.55337" lon="6.82465">
        <ele>2352</ele>
        <time>2021-03-30T14:26:34Z</time>
      </trkpt>
      <trkpt lat="45.55339" lon="6.82463">
        <ele>2351.9</ele>
        <time>2021-03-30T14:26:35Z</time>
      </trkpt>
      <trkpt lat="45.55341" lon="6.8246">
        <ele>2352</ele>
        <time>2021-03-30T14:26:36Z</time>
      </trkpt>
      <trkpt lat="45.55344" lon="6.82456">
        <ele>2352.1</ele>
        <time>2021-03-30T14:26:37Z</time>
      </trkpt>
      <trkpt lat="45.55345" lon="6.82455">
        <ele>2352.2</ele>
        <time>2021-03-30T14:26:38Z</time>
      </trkpt>
      <trkpt lat="45.55348" lon="6.82451">
        <ele>2352.6</ele>
        <time>2021-03-30T14:26:39Z</time>
      </trkpt>
      <trkpt lat="45.55349" lon="6.8245">
        <ele>2352.7</ele>
        <time>2021-03-30T14:26:40Z</time>
      </trkpt>
      <trkpt lat="45.5535" lon="6.82447">
        <ele>2353</ele>
        <time>2021-03-30T14:26:41Z</time>
      </trkpt>
      <trkpt lat="45.55352" lon="6.82444">
        <ele>2353.4</ele>
        <time>2021-03-30T14:26:42Z</time>
      </trkpt>
      <trkpt lat="45.55355" lon="6.82442">
        <ele>2353.7</ele>
        <time>2021-03-30T14:26:43Z</time>
      </trkpt>
      <trkpt lat="45.55357" lon="6.82439">
        <ele>2354</ele>
        <time>2021-03-30T14:26:44Z</time>
      </trkpt>
      <trkpt lat="45.55359" lon="6.82436">
        <ele>2354.3</ele>
        <time>2021-03-30T14:26:45Z</time>
      </trkpt>
      <trkpt lat="45.55362" lon="6.82433">
        <ele>2354</ele>
        <time>2021-03-30T14:26:46Z</time>
      </trkpt>
      <trkpt lat="45.55364" lon="6.8243">
        <ele>2353.7</ele>
        <time>2021-03-30T14:26:47Z</time>
      </trkpt>
      <trkpt lat="45.55367" lon="6.82427">
        <ele>2353.7</ele>
        <time>2021-03-30T14:26:48Z</time>
      </trkpt>
      <trkpt lat="45.55369" lon="6.82424">
        <ele>2353.4</ele>
        <time>2021-03-30T14:26:49Z</time>
      </trkpt>
      <trkpt lat="45.55371" lon="6.8242">
        <ele>2353.1</ele>
        <time>2021-03-30T14:26:50Z</time>
      </trkpt>
      <trkpt lat="45.55374" lon="6.82417">
        <ele>2352.8</ele>
        <time>2021-03-30T14:26:51Z</time>
      </trkpt>
      <trkpt lat="45.55376" lon="6.82414">
        <ele>2352.6</ele>
        <time>2021-03-30T14:26:52Z</time>
      </trkpt>
      <trkpt lat="45.55378" lon="6.8241">
        <ele>2352.6</ele>
        <time>2021-03-30T14:26:53Z</time>
      </trkpt>
      <trkpt lat="45.55381" lon="6.82407">
        <ele>2352.3</ele>
        <time>2021-03-30T14:26:54Z</time>
      </trkpt>
      <trkpt lat="45.55383" lon="6.82404">
        <ele>2352</ele>
        <time>2021-03-30T14:26:55Z</time>
      </trkpt>
      <trkpt lat="45.55386" lon="6.82401">
        <ele>2351.7</ele>
        <time>2021-03-30T14:26:56Z</time>
      </trkpt>
      <trkpt lat="45.55388" lon="6.82397">
        <ele>2351.7</ele>
        <time>2021-03-30T14:26:57Z</time>
      </trkpt>
      <trkpt lat="45.5539" lon="6.82394">
        <ele>2351.4</ele>
        <time>2021-03-30T14:26:58Z</time>
      </trkpt>
      <trkpt lat="45.55392" lon="6.8239">
        <ele>2351</ele>
        <time>2021-03-30T14:26:59Z</time>
      </trkpt>
      <trkpt lat="45.55395" lon="6.82386">
        <ele>2350.6</ele>
        <time>2021-03-30T14:27:00Z</time>
      </trkpt>
      <trkpt lat="45.55397" lon="6.82381">
        <ele>2350.2</ele>
        <time>2021-03-30T14:27:01Z</time>
      </trkpt>
      <trkpt lat="45.55401" lon="6.82376">
        <ele>2349.8</ele>
        <time>2021-03-30T14:27:02Z</time>
      </trkpt>
      <trkpt lat="45.55405" lon="6.82369">
        <ele>2349</ele>
        <time>2021-03-30T14:27:03Z</time>
      </trkpt>
      <trkpt lat="45.55408" lon="6.82365">
        <ele>2348.6</ele>
        <time>2021-03-30T14:27:04Z</time>
      </trkpt>
      <trkpt lat="45.55411" lon="6.82359">
        <ele>2348.2</ele>
        <time>2021-03-30T14:27:05Z</time>
      </trkpt>
      <trkpt lat="45.55414" lon="6.82353">
        <ele>2347.2</ele>
        <time>2021-03-30T14:27:06Z</time>
      </trkpt>
      <trkpt lat="45.55417" lon="6.82346">
        <ele>2346.6</ele>
        <time>2021-03-30T14:27:07Z</time>
      </trkpt>
      <trkpt lat="45.5542" lon="6.82341">
        <ele>2345.5</ele>
        <time>2021-03-30T14:27:08Z</time>
      </trkpt>
      <trkpt lat="45.55424" lon="6.82335">
        <ele>2344.9</ele>
        <time>2021-03-30T14:27:09Z</time>
      </trkpt>
      <trkpt lat="45.55428" lon="6.8233">
        <ele>2344.4</ele>
        <time>2021-03-30T14:27:10Z</time>
      </trkpt>
      <trkpt lat="45.55431" lon="6.82321">
        <ele>2343.4</ele>
        <time>2021-03-30T14:27:11Z</time>
      </trkpt>
      <trkpt lat="45.55437" lon="6.82316">
        <ele>2342.8</ele>
        <time>2021-03-30T14:27:12Z</time>
      </trkpt>
      <trkpt lat="45.55443" lon="6.8231">
        <ele>2341.6</ele>
        <time>2021-03-30T14:27:13Z</time>
      </trkpt>
      <trkpt lat="45.55448" lon="6.82304">
        <ele>2340.9</ele>
        <time>2021-03-30T14:27:14Z</time>
      </trkpt>
      <trkpt lat="45.55453" lon="6.82297">
        <ele>2339.4</ele>
        <time>2021-03-30T14:27:15Z</time>
      </trkpt>
      <trkpt lat="45.5546" lon="6.82291">
        <ele>2338.5</ele>
        <time>2021-03-30T14:27:16Z</time>
      </trkpt>
      <trkpt lat="45.55467" lon="6.82287">
        <ele>2337.7</ele>
        <time>2021-03-30T14:27:17Z</time>
      </trkpt>
      <trkpt lat="45.55474" lon="6.82282">
        <ele>2336.8</ele>
        <time>2021-03-30T14:27:18Z</time>
      </trkpt>
      <trkpt lat="45.55481" lon="6.82278">
        <ele>2336.1</ele>
        <time>2021-03-30T14:27:19Z</time>
      </trkpt>
      <trkpt lat="45.55488" lon="6.82264">
        <ele>2333.7</ele>
        <time>2021-03-30T14:27:20Z</time>
      </trkpt>
      <trkpt lat="45.55495" lon="6.82258">
        <ele>2332.1</ele>
        <time>2021-03-30T14:27:21Z</time>
      </trkpt>
      <trkpt lat="45.55502" lon="6.82252">
        <ele>2331.1</ele>
        <time>2021-03-30T14:27:22Z</time>
      </trkpt>
      <trkpt lat="45.5551" lon="6.82245">
        <ele>2329</ele>
        <time>2021-03-30T14:27:23Z</time>
      </trkpt>
      <trkpt lat="45.55515" lon="6.82239">
        <ele>2328.4</ele>
        <time>2021-03-30T14:27:24Z</time>
      </trkpt>
      <trkpt lat="45.55524" lon="6.82235">
        <ele>2327.7</ele>
        <time>2021-03-30T14:27:25Z</time>
      </trkpt>
      <trkpt lat="45.55532" lon="6.82232">
        <ele>2327</ele>
        <time>2021-03-30T14:27:26Z</time>
      </trkpt>
      <trkpt lat="45.55537" lon="6.82226">
        <ele>2326.2</ele>
        <time>2021-03-30T14:27:27Z</time>
      </trkpt>
      <trkpt lat="45.55542" lon="6.82223">
        <ele>2325.4</ele>
        <time>2021-03-30T14:27:28Z</time>
      </trkpt>
      <trkpt lat="45.55547" lon="6.8222">
        <ele>2324.5</ele>
        <time>2021-03-30T14:27:29Z</time>
      </trkpt>
      <trkpt lat="45.55551" lon="6.82218">
        <ele>2324.5</ele>
        <time>2021-03-30T14:27:30Z</time>
      </trkpt>
      <trkpt lat="45.55553" lon="6.82211">
        <ele>2322.8</ele>
        <time>2021-03-30T14:27:31Z</time>
      </trkpt>
      <trkpt lat="45.55557" lon="6.82207">
        <ele>2321.9</ele>
        <time>2021-03-30T14:27:32Z</time>
      </trkpt>
      <trkpt lat="45.5556" lon="6.82208">
        <ele>2322.7</ele>
        <time>2021-03-30T14:27:33Z</time>
      </trkpt>
      <trkpt lat="45.55565" lon="6.82209">
        <ele>2322.7</ele>
        <time>2021-03-30T14:27:34Z</time>
      </trkpt>
      <trkpt lat="45.55572" lon="6.82211">
        <ele>2322.6</ele>
        <time>2021-03-30T14:27:35Z</time>
      </trkpt>
      <trkpt lat="45.55572" lon="6.82203">
        <ele>2321.1</ele>
        <time>2021-03-30T14:27:36Z</time>
      </trkpt>
      <trkpt lat="45.55574" lon="6.82196">
        <ele>2320.3</ele>
        <time>2021-03-30T14:27:37Z</time>
      </trkpt>
      <trkpt lat="45.55577" lon="6.82192">
        <ele>2319.6</ele>
        <time>2021-03-30T14:27:38Z</time>
      </trkpt>
      <trkpt lat="45.5558" lon="6.82188">
        <ele>2318.9</ele>
        <time>2021-03-30T14:27:39Z</time>
      </trkpt>
      <trkpt lat="45.55583" lon="6.82184">
        <ele>2318.2</ele>
        <time>2021-03-30T14:27:40Z</time>
      </trkpt>
      <trkpt lat="45.55589" lon="6.8218">
        <ele>2317.4</ele>
        <time>2021-03-30T14:27:41Z</time>
      </trkpt>
      <trkpt lat="45.55596" lon="6.82179">
        <ele>2317.3</ele>
        <time>2021-03-30T14:27:42Z</time>
      </trkpt>
      <trkpt lat="45.55601" lon="6.82176">
        <ele>2316.5</ele>
        <time>2021-03-30T14:27:43Z</time>
      </trkpt>
      <trkpt lat="45.55604" lon="6.82161">
        <ele>2313.6</ele>
        <time>2021-03-30T14:27:44Z</time>
      </trkpt>
      <trkpt lat="45.55607" lon="6.8215">
        <ele>2312.2</ele>
        <time>2021-03-30T14:27:45Z</time>
      </trkpt>
      <trkpt lat="45.55611" lon="6.82144">
        <ele>2311.1</ele>
        <time>2021-03-30T14:27:46Z</time>
      </trkpt>
      <trkpt lat="45.55617" lon="6.82139">
        <ele>2309.9</ele>
        <time>2021-03-30T14:27:47Z</time>
      </trkpt>
      <trkpt lat="45.55623" lon="6.82135">
        <ele>2308.1</ele>
        <time>2021-03-30T14:27:48Z</time>
      </trkpt>
      <trkpt lat="45.5563" lon="6.82134">
        <ele>2307.5</ele>
        <time>2021-03-30T14:27:49Z</time>
      </trkpt>
      <trkpt lat="45.55638" lon="6.82136">
        <ele>2306.9</ele>
        <time>2021-03-30T14:27:50Z</time>
      </trkpt>
      <trkpt lat="45.55644" lon="6.82133">
        <ele>2305.4</ele>
        <time>2021-03-30T14:27:51Z</time>
      </trkpt>
      <trkpt lat="45.55649" lon="6.8213">
        <ele>2303.9</ele>
        <time>2021-03-30T14:27:52Z</time>
      </trkpt>
      <trkpt lat="45.55654" lon="6.82124">
        <ele>2302.7</ele>
        <time>2021-03-30T14:27:53Z</time>
      </trkpt>
      <trkpt lat="45.55659" lon="6.82117">
        <ele>2300.2</ele>
        <time>2021-03-30T14:27:54Z</time>
      </trkpt>
      <trkpt lat="45.55664" lon="6.8211">
        <ele>2298.3</ele>
        <time>2021-03-30T14:27:55Z</time>
      </trkpt>
      <trkpt lat="45.55669" lon="6.82095">
        <ele>2295.3</ele>
        <time>2021-03-30T14:27:56Z</time>
      </trkpt>
      <trkpt lat="45.55676" lon="6.82087">
        <ele>2292.9</ele>
        <time>2021-03-30T14:27:57Z</time>
      </trkpt>
      <trkpt lat="45.55695" lon="6.82107">
        <ele>2290.8</ele>
        <time>2021-03-30T14:27:58Z</time>
      </trkpt>
      <trkpt lat="45.557" lon="6.82109">
        <ele>2290</ele>
        <time>2021-03-30T14:27:59Z</time>
      </trkpt>
      <trkpt lat="45.5571" lon="6.82108">
        <ele>2287.2</ele>
        <time>2021-03-30T14:28:00Z</time>
      </trkpt>
      <trkpt lat="45.55719" lon="6.82108">
        <ele>2285.1</ele>
        <time>2021-03-30T14:28:01Z</time>
      </trkpt>
      <trkpt lat="45.55729" lon="6.82103">
        <ele>2282.4</ele>
        <time>2021-03-30T14:28:02Z</time>
      </trkpt>
      <trkpt lat="45.55738" lon="6.82099">
        <ele>2280.2</ele>
        <time>2021-03-30T14:28:03Z</time>
      </trkpt>
      <trkpt lat="45.55749" lon="6.82103">
        <ele>2278.8</ele>
        <time>2021-03-30T14:28:04Z</time>
      </trkpt>
      <trkpt lat="45.55758" lon="6.82105">
        <ele>2277.7</ele>
        <time>2021-03-30T14:28:05Z</time>
      </trkpt>
      <trkpt lat="45.55767" lon="6.82098">
        <ele>2276.5</ele>
        <time>2021-03-30T14:28:06Z</time>
      </trkpt>
      <trkpt lat="45.55776" lon="6.82095">
        <ele>2275.4</ele>
        <time>2021-03-30T14:28:07Z</time>
      </trkpt>
      <trkpt lat="45.55788" lon="6.82095">
        <ele>2274.5</ele>
        <time>2021-03-30T14:28:08Z</time>
      </trkpt>
      <trkpt lat="45.558" lon="6.82096">
        <ele>2273.6</ele>
        <time>2021-03-30T14:28:09Z</time>
      </trkpt>
      <trkpt lat="45.55809" lon="6.821">
        <ele>2272.7</ele>
        <time>2021-03-30T14:28:10Z</time>
      </trkpt>
      <trkpt lat="45.55818" lon="6.82095">
        <ele>2271.8</ele>
        <time>2021-03-30T14:28:11Z</time>
      </trkpt>
      <trkpt lat="45.55827" lon="6.82092">
        <ele>2271.1</ele>
        <time>2021-03-30T14:28:12Z</time>
      </trkpt>
      <trkpt lat="45.55835" lon="6.82088">
        <ele>2270.4</ele>
        <time>2021-03-30T14:28:13Z</time>
      </trkpt>
      <trkpt lat="45.55844" lon="6.82084">
        <ele>2269.8</ele>
        <time>2021-03-30T14:28:14Z</time>
      </trkpt>
      <trkpt lat="45.55849" lon="6.82087">
        <ele>2269.4</ele>
        <time>2021-03-30T14:28:15Z</time>
      </trkpt>
      <trkpt lat="45.55856" lon="6.82087">
        <ele>2268.9</ele>
        <time>2021-03-30T14:28:16Z</time>
      </trkpt>
      <trkpt lat="45.55864" lon="6.82091">
        <ele>2268.3</ele>
        <time>2021-03-30T14:28:17Z</time>
      </trkpt>
      <trkpt lat="45.5587" lon="6.82094">
        <ele>2267.6</ele>
        <time>2021-03-30T14:28:18Z</time>
      </trkpt>
      <trkpt lat="45.55878" lon="6.82095">
        <ele>2266.6</ele>
        <time>2021-03-30T14:28:19Z</time>
      </trkpt>
      <trkpt lat="45.55884" lon="6.82095">
        <ele>2265.8</ele>
        <time>2021-03-30T14:28:20Z</time>
      </trkpt>
      <trkpt lat="45.55891" lon="6.82096">
        <ele>2264.9</ele>
        <time>2021-03-30T14:28:21Z</time>
      </trkpt>
      <trkpt lat="45.55897" lon="6.82092">
        <ele>2264.2</ele>
        <time>2021-03-30T14:28:22Z</time>
      </trkpt>
      <trkpt lat="45.55906" lon="6.82091">
        <ele>2263.1</ele>
        <time>2021-03-30T14:28:23Z</time>
      </trkpt>
      <trkpt lat="45.55912" lon="6.82098">
        <ele>2262.4</ele>
        <time>2021-03-30T14:28:24Z</time>
      </trkpt>
      <trkpt lat="45.55918" lon="6.82102">
        <ele>2261.6</ele>
        <time>2021-03-30T14:28:25Z</time>
      </trkpt>
      <trkpt lat="45.55922" lon="6.82112">
        <ele>2260.7</ele>
        <time>2021-03-30T14:28:26Z</time>
      </trkpt>
      <trkpt lat="45.55927" lon="6.8212">
        <ele>2260</ele>
        <time>2021-03-30T14:28:27Z</time>
      </trkpt>
      <trkpt lat="45.55932" lon="6.82128">
        <ele>2259.3</ele>
        <time>2021-03-30T14:28:28Z</time>
      </trkpt>
      <trkpt lat="45.55936" lon="6.82132">
        <ele>2258.9</ele>
        <time>2021-03-30T14:28:29Z</time>
      </trkpt>
      <trkpt lat="45.55941" lon="6.8214">
        <ele>2258.3</ele>
        <time>2021-03-30T14:28:30Z</time>
      </trkpt>
      <trkpt lat="45.55946" lon="6.82146">
        <ele>2257.8</ele>
        <time>2021-03-30T14:28:31Z</time>
      </trkpt>
      <trkpt lat="45.5595" lon="6.82151">
        <ele>2257.4</ele>
        <time>2021-03-30T14:28:32Z</time>
      </trkpt>
      <trkpt lat="45.55957" lon="6.82156">
        <ele>2256.9</ele>
        <time>2021-03-30T14:28:33Z</time>
      </trkpt>
      <trkpt lat="45.55961" lon="6.82158">
        <ele>2256.5</ele>
        <time>2021-03-30T14:28:34Z</time>
      </trkpt>
      <trkpt lat="45.55965" lon="6.82163">
        <ele>2256.1</ele>
        <time>2021-03-30T14:28:35Z</time>
      </trkpt>
      <trkpt lat="45.55969" lon="6.82167">
        <ele>2255.6</ele>
        <time>2021-03-30T14:28:36Z</time>
      </trkpt>
      <trkpt lat="45.55972" lon="6.82174">
        <ele>2255</ele>
        <time>2021-03-30T14:28:37Z</time>
      </trkpt>
      <trkpt lat="45.55975" lon="6.8218">
        <ele>2254.4</ele>
        <time>2021-03-30T14:28:38Z</time>
      </trkpt>
      <trkpt lat="45.5598" lon="6.82186">
        <ele>2253.7</ele>
        <time>2021-03-30T14:28:39Z</time>
      </trkpt>
      <trkpt lat="45.55988" lon="6.8219">
        <ele>2252.5</ele>
        <time>2021-03-30T14:28:40Z</time>
      </trkpt>
      <trkpt lat="45.55993" lon="6.822">
        <ele>2251.2</ele>
        <time>2021-03-30T14:28:41Z</time>
      </trkpt>
      <trkpt lat="45.55998" lon="6.82208">
        <ele>2250</ele>
        <time>2021-03-30T14:28:42Z</time>
      </trkpt>
      <trkpt lat="45.56005" lon="6.82216">
        <ele>2248.6</ele>
        <time>2021-03-30T14:28:43Z</time>
      </trkpt>
      <trkpt lat="45.56012" lon="6.82222">
        <ele>2247.2</ele>
        <time>2021-03-30T14:28:44Z</time>
      </trkpt>
      <trkpt lat="45.56019" lon="6.82229">
        <ele>2245.8</ele>
        <time>2021-03-30T14:28:45Z</time>
      </trkpt>
      <trkpt lat="45.56023" lon="6.82241">
        <ele>2244.2</ele>
        <time>2021-03-30T14:28:46Z</time>
      </trkpt>
      <trkpt lat="45.56028" lon="6.82251">
        <ele>2242.6</ele>
        <time>2021-03-30T14:28:47Z</time>
      </trkpt>
      <trkpt lat="45.56035" lon="6.82261">
        <ele>2240.9</ele>
        <time>2021-03-30T14:28:48Z</time>
      </trkpt>
      <trkpt lat="45.5604" lon="6.82274">
        <ele>2239.9</ele>
        <time>2021-03-30T14:28:49Z</time>
      </trkpt>
      <trkpt lat="45.56046" lon="6.82285">
        <ele>2238.9</ele>
        <time>2021-03-30T14:28:50Z</time>
      </trkpt>
      <trkpt lat="45.56045" lon="6.82298">
        <ele>2238.6</ele>
        <time>2021-03-30T14:28:51Z</time>
      </trkpt>
      <trkpt lat="45.56049" lon="6.82309">
        <ele>2237.6</ele>
        <time>2021-03-30T14:28:52Z</time>
      </trkpt>
      <trkpt lat="45.56055" lon="6.8232">
        <ele>2236.7</ele>
        <time>2021-03-30T14:28:53Z</time>
      </trkpt>
      <trkpt lat="45.56061" lon="6.82329">
        <ele>2236</ele>
        <time>2021-03-30T14:28:54Z</time>
      </trkpt>
      <trkpt lat="45.56067" lon="6.82338">
        <ele>2234.7</ele>
        <time>2021-03-30T14:28:55Z</time>
      </trkpt>
      <trkpt lat="45.56071" lon="6.82351">
        <ele>2234</ele>
        <time>2021-03-30T14:28:56Z</time>
      </trkpt>
      <trkpt lat="45.56076" lon="6.82362">
        <ele>2233.3</ele>
        <time>2021-03-30T14:28:57Z</time>
      </trkpt>
      <trkpt lat="45.56085" lon="6.8237">
        <ele>2231.4</ele>
        <time>2021-03-30T14:28:58Z</time>
      </trkpt>
      <trkpt lat="45.56089" lon="6.82381">
        <ele>2229.8</ele>
        <time>2021-03-30T14:28:59Z</time>
      </trkpt>
      <trkpt lat="45.56096" lon="6.82391">
        <ele>2228.4</ele>
        <time>2021-03-30T14:29:00Z</time>
      </trkpt>
      <trkpt lat="45.56107" lon="6.82398">
        <ele>2225.7</ele>
        <time>2021-03-30T14:29:01Z</time>
      </trkpt>
      <trkpt lat="45.56115" lon="6.82407">
        <ele>2224.1</ele>
        <time>2021-03-30T14:29:02Z</time>
      </trkpt>
      <trkpt lat="45.56126" lon="6.82414">
        <ele>2221.2</ele>
        <time>2021-03-30T14:29:03Z</time>
      </trkpt>
      <trkpt lat="45.56135" lon="6.82418">
        <ele>2219</ele>
        <time>2021-03-30T14:29:04Z</time>
      </trkpt>
      <trkpt lat="45.56145" lon="6.82422">
        <ele>2216.5</ele>
        <time>2021-03-30T14:29:05Z</time>
      </trkpt>
      <trkpt lat="45.56154" lon="6.82429">
        <ele>2213.6</ele>
        <time>2021-03-30T14:29:06Z</time>
      </trkpt>
      <trkpt lat="45.56165" lon="6.82434">
        <ele>2211.4</ele>
        <time>2021-03-30T14:29:07Z</time>
      </trkpt>
      <trkpt lat="45.56174" lon="6.82438">
        <ele>2209.3</ele>
        <time>2021-03-30T14:29:08Z</time>
      </trkpt>
      <trkpt lat="45.56181" lon="6.82446">
        <ele>2208</ele>
        <time>2021-03-30T14:29:09Z</time>
      </trkpt>
      <trkpt lat="45.56189" lon="6.82452">
        <ele>2206.4</ele>
        <time>2021-03-30T14:29:10Z</time>
      </trkpt>
      <trkpt lat="45.56198" lon="6.82451">
        <ele>2205</ele>
        <time>2021-03-30T14:29:11Z</time>
      </trkpt>
      <trkpt lat="45.56204" lon="6.82455">
        <ele>2204.1</ele>
        <time>2021-03-30T14:29:12Z</time>
      </trkpt>
      <trkpt lat="45.56214" lon="6.82457">
        <ele>2203.1</ele>
        <time>2021-03-30T14:29:13Z</time>
      </trkpt>
      <trkpt lat="45.56221" lon="6.82458">
        <ele>2202</ele>
        <time>2021-03-30T14:29:14Z</time>
      </trkpt>
      <trkpt lat="45.5623" lon="6.8246">
        <ele>2200.9</ele>
        <time>2021-03-30T14:29:15Z</time>
      </trkpt>
      <trkpt lat="45.56237" lon="6.82462">
        <ele>2200.2</ele>
        <time>2021-03-30T14:29:16Z</time>
      </trkpt>
      <trkpt lat="45.56244" lon="6.82462">
        <ele>2199.5</ele>
        <time>2021-03-30T14:29:17Z</time>
      </trkpt>
      <trkpt lat="45.56252" lon="6.82464">
        <ele>2198.4</ele>
        <time>2021-03-30T14:29:18Z</time>
      </trkpt>
      <trkpt lat="45.5626" lon="6.82466">
        <ele>2197.4</ele>
        <time>2021-03-30T14:29:19Z</time>
      </trkpt>
      <trkpt lat="45.56269" lon="6.82467">
        <ele>2196.6</ele>
        <time>2021-03-30T14:29:20Z</time>
      </trkpt>
      <trkpt lat="45.56278" lon="6.82468">
        <ele>2195.8</ele>
        <time>2021-03-30T14:29:21Z</time>
      </trkpt>
      <trkpt lat="45.56286" lon="6.82465">
        <ele>2195.1</ele>
        <time>2021-03-30T14:29:22Z</time>
      </trkpt>
      <trkpt lat="45.56295" lon="6.82463">
        <ele>2194.3</ele>
        <time>2021-03-30T14:29:23Z</time>
      </trkpt>
      <trkpt lat="45.56303" lon="6.82464">
        <ele>2193.6</ele>
        <time>2021-03-30T14:29:24Z</time>
      </trkpt>
      <trkpt lat="45.56312" lon="6.82464">
        <ele>2192.9</ele>
        <time>2021-03-30T14:29:25Z</time>
      </trkpt>
      <trkpt lat="45.56321" lon="6.82464">
        <ele>2192.3</ele>
        <time>2021-03-30T14:29:26Z</time>
      </trkpt>
      <trkpt lat="45.5633" lon="6.82465">
        <ele>2191.7</ele>
        <time>2021-03-30T14:29:27Z</time>
      </trkpt>
      <trkpt lat="45.56337" lon="6.82464">
        <ele>2191.3</ele>
        <time>2021-03-30T14:29:28Z</time>
      </trkpt>
      <trkpt lat="45.56345" lon="6.82463">
        <ele>2190.7</ele>
        <time>2021-03-30T14:29:29Z</time>
      </trkpt>
      <trkpt lat="45.56353" lon="6.82465">
        <ele>2190.2</ele>
        <time>2021-03-30T14:29:30Z</time>
      </trkpt>
      <trkpt lat="45.5636" lon="6.82464">
        <ele>2189.8</ele>
        <time>2021-03-30T14:29:31Z</time>
      </trkpt>
      <trkpt lat="45.56366" lon="6.82464">
        <ele>2189.4</ele>
        <time>2021-03-30T14:29:32Z</time>
      </trkpt>
      <trkpt lat="45.56372" lon="6.82463">
        <ele>2189</ele>
        <time>2021-03-30T14:29:33Z</time>
      </trkpt>
      <trkpt lat="45.56377" lon="6.82464">
        <ele>2188.6</ele>
        <time>2021-03-30T14:29:34Z</time>
      </trkpt>
      <trkpt lat="45.56382" lon="6.82465">
        <ele>2188.3</ele>
        <time>2021-03-30T14:29:35Z</time>
      </trkpt>
      <trkpt lat="45.56387" lon="6.82461">
        <ele>2187.8</ele>
        <time>2021-03-30T14:29:36Z</time>
      </trkpt>
      <trkpt lat="45.56394" lon="6.82459">
        <ele>2187.2</ele>
        <time>2021-03-30T14:29:37Z</time>
      </trkpt>
      <trkpt lat="45.56399" lon="6.8246">
        <ele>2186.8</ele>
        <time>2021-03-30T14:29:38Z</time>
      </trkpt>
      <trkpt lat="45.56403" lon="6.8246">
        <ele>2186.3</ele>
        <time>2021-03-30T14:29:39Z</time>
      </trkpt>
      <trkpt lat="45.56409" lon="6.82459">
        <ele>2185.7</ele>
        <time>2021-03-30T14:29:40Z</time>
      </trkpt>
      <trkpt lat="45.56415" lon="6.82458">
        <ele>2185.1</ele>
        <time>2021-03-30T14:29:41Z</time>
      </trkpt>
      <trkpt lat="45.5642" lon="6.82463">
        <ele>2184.5</ele>
        <time>2021-03-30T14:29:42Z</time>
      </trkpt>
      <trkpt lat="45.56424" lon="6.82465">
        <ele>2184</ele>
        <time>2021-03-30T14:29:43Z</time>
      </trkpt>
      <trkpt lat="45.5643" lon="6.82465">
        <ele>2183.4</ele>
        <time>2021-03-30T14:29:44Z</time>
      </trkpt>
      <trkpt lat="45.56434" lon="6.82465">
        <ele>2183</ele>
        <time>2021-03-30T14:29:45Z</time>
      </trkpt>
      <trkpt lat="45.56441" lon="6.82468">
        <ele>2182.2</ele>
        <time>2021-03-30T14:29:46Z</time>
      </trkpt>
      <trkpt lat="45.56448" lon="6.82472">
        <ele>2181.4</ele>
        <time>2021-03-30T14:29:47Z</time>
      </trkpt>
      <trkpt lat="45.56454" lon="6.82476">
        <ele>2180.7</ele>
        <time>2021-03-30T14:29:48Z</time>
      </trkpt>
      <trkpt lat="45.56461" lon="6.82484">
        <ele>2180.7</ele>
        <time>2021-03-30T14:29:49Z</time>
      </trkpt>
      <trkpt lat="45.56467" lon="6.82489">
        <ele>2180.6</ele>
        <time>2021-03-30T14:29:50Z</time>
      </trkpt>
      <trkpt lat="45.56473" lon="6.82495">
        <ele>2180.5</ele>
        <time>2021-03-30T14:29:51Z</time>
      </trkpt>
      <trkpt lat="45.56478" lon="6.82499">
        <ele>2180.3</ele>
        <time>2021-03-30T14:29:52Z</time>
      </trkpt>
      <trkpt lat="45.56482" lon="6.82502">
        <ele>2180.2</ele>
        <time>2021-03-30T14:29:53Z</time>
      </trkpt>
      <trkpt lat="45.56486" lon="6.82507">
        <ele>2180</ele>
        <time>2021-03-30T14:29:54Z</time>
      </trkpt>
      <trkpt lat="45.56493" lon="6.82508">
        <ele>2179.8</ele>
        <time>2021-03-30T14:29:55Z</time>
      </trkpt>
      <trkpt lat="45.56498" lon="6.82511">
        <ele>2179.6</ele>
        <time>2021-03-30T14:29:56Z</time>
      </trkpt>
      <trkpt lat="45.56502" lon="6.82512">
        <ele>2179.5</ele>
        <time>2021-03-30T14:29:57Z</time>
      </trkpt>
      <trkpt lat="45.56504" lon="6.82516">
        <ele>2179.4</ele>
        <time>2021-03-30T14:29:58Z</time>
      </trkpt>
      <trkpt lat="45.56507" lon="6.82519">
        <ele>2179.3</ele>
        <time>2021-03-30T14:29:59Z</time>
      </trkpt>
      <trkpt lat="45.5651" lon="6.82521">
        <ele>2179.2</ele>
        <time>2021-03-30T14:30:00Z</time>
      </trkpt>
      <trkpt lat="45.56513" lon="6.82526">
        <ele>2179.1</ele>
        <time>2021-03-30T14:30:01Z</time>
      </trkpt>
      <trkpt lat="45.56517" lon="6.82527">
        <ele>2179</ele>
        <time>2021-03-30T14:30:02Z</time>
      </trkpt>
      <trkpt lat="45.5652" lon="6.8253">
        <ele>2178.9</ele>
        <time>2021-03-30T14:30:03Z</time>
      </trkpt>
      <trkpt lat="45.56523" lon="6.82533">
        <ele>2178.8</ele>
        <time>2021-03-30T14:30:04Z</time>
      </trkpt>
      <trkpt lat="45.56528" lon="6.82535">
        <ele>2178.7</ele>
        <time>2021-03-30T14:30:05Z</time>
      </trkpt>
      <trkpt lat="45.5653" lon="6.82539">
        <ele>2178.6</ele>
        <time>2021-03-30T14:30:06Z</time>
      </trkpt>
      <trkpt lat="45.56533" lon="6.82542">
        <ele>2178.5</ele>
        <time>2021-03-30T14:30:07Z</time>
      </trkpt>
      <trkpt lat="45.56536" lon="6.82545">
        <ele>2178.4</ele>
        <time>2021-03-30T14:30:08Z</time>
      </trkpt>
      <trkpt lat="45.56539" lon="6.82548">
        <ele>2178.3</ele>
        <time>2021-03-30T14:30:09Z</time>
      </trkpt>
      <trkpt lat="45.56542" lon="6.82551">
        <ele>2178.3</ele>
        <time>2021-03-30T14:30:10Z</time>
      </trkpt>
      <trkpt lat="45.56545" lon="6.82554">
        <ele>2178.2</ele>
        <time>2021-03-30T14:30:11Z</time>
      </trkpt>
      <trkpt lat="45.56548" lon="6.82556">
        <ele>2178.1</ele>
        <time>2021-03-30T14:30:12Z</time>
      </trkpt>
      <trkpt lat="45.56551" lon="6.82559">
        <ele>2178.1</ele>
        <time>2021-03-30T14:30:13Z</time>
      </trkpt>
      <trkpt lat="45.56554" lon="6.82562">
        <ele>2178</ele>
        <time>2021-03-30T14:30:14Z</time>
      </trkpt>
      <trkpt lat="45.56557" lon="6.82564">
        <ele>2178</ele>
        <time>2021-03-30T14:30:15Z</time>
      </trkpt>
      <trkpt lat="45.5656" lon="6.82566">
        <ele>2177.9</ele>
        <time>2021-03-30T14:30:16Z</time>
      </trkpt>
      <trkpt lat="45.56563" lon="6.82568">
        <ele>2177.9</ele>
        <time>2021-03-30T14:30:17Z</time>
      </trkpt>
      <trkpt lat="45.56566" lon="6.8257">
        <ele>2177.8</ele>
        <time>2021-03-30T14:30:18Z</time>
      </trkpt>
      <trkpt lat="45.56568" lon="6.82572">
        <ele>2177.8</ele>
        <time>2021-03-30T14:30:19Z</time>
      </trkpt>
      <trkpt lat="45.56571" lon="6.82574">
        <ele>2177.7</ele>
        <time>2021-03-30T14:30:20Z</time>
      </trkpt>
      <trkpt lat="45.56574" lon="6.82576">
        <ele>2177.7</ele>
        <time>2021-03-30T14:30:21Z</time>
      </trkpt>
      <trkpt lat="45.56577" lon="6.82579">
        <ele>2177.6</ele>
        <time>2021-03-30T14:30:22Z</time>
      </trkpt>
      <trkpt lat="45.5658" lon="6.82581">
        <ele>2177.6</ele>
        <time>2021-03-30T14:30:23Z</time>
      </trkpt>
      <trkpt lat="45.56583" lon="6.82584">
        <ele>2177.5</ele>
        <time>2021-03-30T14:30:24Z</time>
      </trkpt>
      <trkpt lat="45.56585" lon="6.82587">
        <ele>2177.5</ele>
        <time>2021-03-30T14:30:25Z</time>
      </trkpt>
      <trkpt lat="45.56588" lon="6.82589">
        <ele>2177.4</ele>
        <time>2021-03-30T14:30:26Z</time>
      </trkpt>
      <trkpt lat="45.56589" lon="6.82589">
        <ele>2177.4</ele>
        <time>2021-03-30T14:30:27Z</time>
      </trkpt>
      <trkpt lat="45.5659" lon="6.8259">
        <ele>2177.4</ele>
        <time>2021-03-30T14:30:28Z</time>
      </trkpt>
      <trkpt lat="45.56591" lon="6.8259">
        <ele>2177.4</ele>
        <time>2021-03-30T14:30:29Z</time>
      </trkpt>
      <trkpt lat="45.56591" lon="6.82591">
        <ele>2177.4</ele>
        <time>2021-03-30T14:30:30Z</time>
      </trkpt>
      <trkpt lat="45.56591" lon="6.82591">
        <ele>2177.4</ele>
        <time>2021-03-30T14:30:31Z</time>
      </trkpt>
      <trkpt lat="45.56591" lon="6.82591">
        <ele>2177.4</ele>
        <time>2021-03-30T14:30:32Z</time>
      </trkpt>
      <trkpt lat="45.56591" lon="6.82591">
        <ele>2177.4</ele>
        <time>2021-03-30T14:30:33Z</time>
      </trkpt>
      <trkpt lat="45.56592" lon="6.82592">
        <ele>2177.4</ele>
        <time>2021-03-30T14:30:34Z</time>
      </trkpt>
      <trkpt lat="45.56592" lon="6.82592">
        <ele>2177.4</ele>
        <time>2021-03-30T14:30:35Z</time>
      </trkpt>
      <trkpt lat="45.56592" lon="6.82592">
        <ele>2177.4</ele>
        <time>2021-03-30T14:30:36Z</time>
      </trkpt>
      <trkpt lat="45.56592" lon="6.82592">
        <ele>2177.4</ele>
        <time>2021-03-30T14:30:37Z</time>
      </trkpt>
      <trkpt lat="45.56593" lon="6.82593">
        <ele>2177.4</ele>
        <time>2021-03-30T14:30:38Z</time>
      </trkpt>
      <trkpt lat="45.56593" lon="6.82593">
        <ele>2177.4</ele>
        <time>2021-03-30T14:30:39Z</time>
      </trkpt>
      <trkpt lat="45.56593" lon="6.82593">
        <ele>2177.4</ele>
        <time>2021-03-30T14:30:40Z</time>
      </trkpt>
      <trkpt lat="45.56593" lon="6.82593">
        <ele>2177.4</ele>
        <time>2021-03-30T14:30:41Z</time>
      </trkpt>
      <trkpt lat="45.56593" lon="6.82594">
        <ele>2177.4</ele>
        <time>2021-03-30T14:30:42Z</time>
      </trkpt>
      <trkpt lat="45.56594" lon="6.82594">
        <ele>2177.3</ele>
        <time>2021-03-30T14:30:43Z</time>
      </trkpt>
      <trkpt lat="45.56594" lon="6.82594">
        <ele>2177.3</ele>
        <time>2021-03-30T14:30:44Z</time>
      </trkpt>
      <trkpt lat="45.56594" lon="6.82594">
        <ele>2177.3</ele>
        <time>2021-03-30T14:30:45Z</time>
      </trkpt>
      <trkpt lat="45.56594" lon="6.82594">
        <ele>2177.3</ele>
        <time>2021-03-30T14:30:46Z</time>
      </trkpt>
      <trkpt lat="45.56594" lon="6.82595">
        <ele>2177.3</ele>
        <time>2021-03-30T14:30:47Z</time>
      </trkpt>
      <trkpt lat="45.56595" lon="6.82595">
        <ele>2177.3</ele>
        <time>2021-03-30T14:30:48Z</time>
      </trkpt>
      <trkpt lat="45.56595" lon="6.82595">
        <ele>2177.3</ele>
        <time>2021-03-30T14:30:56Z</time>
      </trkpt>
      <trkpt lat="45.56595" lon="6.82595">
        <ele>2177.3</ele>
        <time>2021-03-30T14:30:57Z</time>
      </trkpt>
      <trkpt lat="45.56596" lon="6.826">
        <ele>2177.3</ele>
        <time>2021-03-30T14:30:58Z</time>
      </trkpt>
      <trkpt lat="45.56597" lon="6.82601">
        <ele>2177.3</ele>
        <time>2021-03-30T14:30:59Z</time>
      </trkpt>
      <trkpt lat="45.56598" lon="6.82605">
        <ele>2177.2</ele>
        <time>2021-03-30T14:31:00Z</time>
      </trkpt>
      <trkpt lat="45.56599" lon="6.82606">
        <ele>2177.2</ele>
        <time>2021-03-30T14:31:01Z</time>
      </trkpt>
      <trkpt lat="45.56601" lon="6.82609">
        <ele>2177.2</ele>
        <time>2021-03-30T14:31:02Z</time>
      </trkpt>
      <trkpt lat="45.56601" lon="6.82611">
        <ele>2177.2</ele>
        <time>2021-03-30T14:31:03Z</time>
      </trkpt>
      <trkpt lat="45.56603" lon="6.82612">
        <ele>2177.2</ele>
        <time>2021-03-30T14:31:04Z</time>
      </trkpt>
      <trkpt lat="45.56604" lon="6.82613">
        <ele>2177.2</ele>
        <time>2021-03-30T14:31:05Z</time>
      </trkpt>
      <trkpt lat="45.56605" lon="6.82615">
        <ele>2177.1</ele>
        <time>2021-03-30T14:31:06Z</time>
      </trkpt>
      <trkpt lat="45.56606" lon="6.82616">
        <ele>2177.1</ele>
        <time>2021-03-30T14:31:07Z</time>
      </trkpt>
      <trkpt lat="45.56607" lon="6.82617">
        <ele>2177.1</ele>
        <time>2021-03-30T14:31:08Z</time>
      </trkpt>
      <trkpt lat="45.56608" lon="6.82619">
        <ele>2177.1</ele>
        <time>2021-03-30T14:31:09Z</time>
      </trkpt>
      <trkpt lat="45.56608" lon="6.82621">
        <ele>2177.1</ele>
        <time>2021-03-30T14:31:10Z</time>
      </trkpt>
      <trkpt lat="45.56611" lon="6.82624">
        <ele>2177.1</ele>
        <time>2021-03-30T14:31:11Z</time>
      </trkpt>
      <trkpt lat="45.56612" lon="6.82625">
        <ele>2177.1</ele>
        <time>2021-03-30T14:31:12Z</time>
      </trkpt>
      <trkpt lat="45.56614" lon="6.82628">
        <ele>2177</ele>
        <time>2021-03-30T14:31:13Z</time>
      </trkpt>
      <trkpt lat="45.56617" lon="6.82631">
        <ele>2177</ele>
        <time>2021-03-30T14:31:14Z</time>
      </trkpt>
      <trkpt lat="45.5662" lon="6.82635">
        <ele>2176.9</ele>
        <time>2021-03-30T14:31:15Z</time>
      </trkpt>
      <trkpt lat="45.56623" lon="6.82639">
        <ele>2176.9</ele>
        <time>2021-03-30T14:31:16Z</time>
      </trkpt>
      <trkpt lat="45.56626" lon="6.82643">
        <ele>2176.8</ele>
        <time>2021-03-30T14:31:17Z</time>
      </trkpt>
      <trkpt lat="45.5663" lon="6.82647">
        <ele>2176.7</ele>
        <time>2021-03-30T14:31:18Z</time>
      </trkpt>
      <trkpt lat="45.56633" lon="6.82651">
        <ele>2176.7</ele>
        <time>2021-03-30T14:31:19Z</time>
      </trkpt>
      <trkpt lat="45.56636" lon="6.82656">
        <ele>2176.5</ele>
        <time>2021-03-30T14:31:20Z</time>
      </trkpt>
      <trkpt lat="45.5664" lon="6.8266">
        <ele>2176.4</ele>
        <time>2021-03-30T14:31:21Z</time>
      </trkpt>
      <trkpt lat="45.56643" lon="6.82664">
        <ele>2176.3</ele>
        <time>2021-03-30T14:31:22Z</time>
      </trkpt>
      <trkpt lat="45.56646" lon="6.82669">
        <ele>2176.1</ele>
        <time>2021-03-30T14:31:23Z</time>
      </trkpt>
      <trkpt lat="45.56648" lon="6.82674">
        <ele>2175.9</ele>
        <time>2021-03-30T14:31:24Z</time>
      </trkpt>
      <trkpt lat="45.56649" lon="6.82679">
        <ele>2175.7</ele>
        <time>2021-03-30T14:31:25Z</time>
      </trkpt>
      <trkpt lat="45.56651" lon="6.82685">
        <ele>2175.4</ele>
        <time>2021-03-30T14:31:26Z</time>
      </trkpt>
      <trkpt lat="45.56652" lon="6.82692">
        <ele>2175.1</ele>
        <time>2021-03-30T14:31:27Z</time>
      </trkpt>
      <trkpt lat="45.56653" lon="6.82699">
        <ele>2174.8</ele>
        <time>2021-03-30T14:31:28Z</time>
      </trkpt>
      <trkpt lat="45.56653" lon="6.82706">
        <ele>2174.3</ele>
        <time>2021-03-30T14:31:29Z</time>
      </trkpt>
      <trkpt lat="45.56654" lon="6.82715">
        <ele>2173.9</ele>
        <time>2021-03-30T14:31:30Z</time>
      </trkpt>
      <trkpt lat="45.56655" lon="6.8272">
        <ele>2173.6</ele>
        <time>2021-03-30T14:31:31Z</time>
      </trkpt>
      <trkpt lat="45.56656" lon="6.82726">
        <ele>2173.4</ele>
        <time>2021-03-30T14:31:32Z</time>
      </trkpt>
      <trkpt lat="45.56655" lon="6.82734">
        <ele>2173</ele>
        <time>2021-03-30T14:31:33Z</time>
      </trkpt>
      <trkpt lat="45.56653" lon="6.8274">
        <ele>2172.8</ele>
        <time>2021-03-30T14:31:34Z</time>
      </trkpt>
      <trkpt lat="45.56653" lon="6.82747">
        <ele>2172.5</ele>
        <time>2021-03-30T14:31:35Z</time>
      </trkpt>
      <trkpt lat="45.56652" lon="6.82754">
        <ele>2172.1</ele>
        <time>2021-03-30T14:31:36Z</time>
      </trkpt>
      <trkpt lat="45.56651" lon="6.82762">
        <ele>2171.7</ele>
        <time>2021-03-30T14:31:37Z</time>
      </trkpt>
      <trkpt lat="45.5665" lon="6.82769">
        <ele>2171.3</ele>
        <time>2021-03-30T14:31:38Z</time>
      </trkpt>
      <trkpt lat="45.56649" lon="6.82777">
        <ele>2170.9</ele>
        <time>2021-03-30T14:31:39Z</time>
      </trkpt>
      <trkpt lat="45.56649" lon="6.82785">
        <ele>2170.5</ele>
        <time>2021-03-30T14:31:40Z</time>
      </trkpt>
      <trkpt lat="45.5665" lon="6.82791">
        <ele>2169.9</ele>
        <time>2021-03-30T14:31:41Z</time>
      </trkpt>
      <trkpt lat="45.56651" lon="6.82796">
        <ele>2169.5</ele>
        <time>2021-03-30T14:31:42Z</time>
      </trkpt>
      <trkpt lat="45.56653" lon="6.82802">
        <ele>2169.1</ele>
        <time>2021-03-30T14:31:43Z</time>
      </trkpt>
      <trkpt lat="45.56655" lon="6.82809">
        <ele>2168.6</ele>
        <time>2021-03-30T14:31:44Z</time>
      </trkpt>
      <trkpt lat="45.56657" lon="6.82814">
        <ele>2168.2</ele>
        <time>2021-03-30T14:31:45Z</time>
      </trkpt>
      <trkpt lat="45.56659" lon="6.8282">
        <ele>2167.8</ele>
        <time>2021-03-30T14:31:46Z</time>
      </trkpt>
      <trkpt lat="45.56661" lon="6.82825">
        <ele>2167.4</ele>
        <time>2021-03-30T14:31:47Z</time>
      </trkpt>
      <trkpt lat="45.56664" lon="6.8283">
        <ele>2167.1</ele>
        <time>2021-03-30T14:31:48Z</time>
      </trkpt>
      <trkpt lat="45.56667" lon="6.82834">
        <ele>2166.7</ele>
        <time>2021-03-30T14:31:49Z</time>
      </trkpt>
      <trkpt lat="45.56671" lon="6.82838">
        <ele>2166.4</ele>
        <time>2021-03-30T14:31:50Z</time>
      </trkpt>
      <trkpt lat="45.56675" lon="6.82841">
        <ele>2166.1</ele>
        <time>2021-03-30T14:31:51Z</time>
      </trkpt>
      <trkpt lat="45.56678" lon="6.82844">
        <ele>2165.7</ele>
        <time>2021-03-30T14:31:52Z</time>
      </trkpt>
      <trkpt lat="45.56681" lon="6.82847">
        <ele>2165.4</ele>
        <time>2021-03-30T14:31:53Z</time>
      </trkpt>
      <trkpt lat="45.56684" lon="6.8285">
        <ele>2165.2</ele>
        <time>2021-03-30T14:31:54Z</time>
      </trkpt>
      <trkpt lat="45.56688" lon="6.82852">
        <ele>2164.9</ele>
        <time>2021-03-30T14:31:55Z</time>
      </trkpt>
      <trkpt lat="45.56691" lon="6.82855">
        <ele>2164.7</ele>
        <time>2021-03-30T14:31:56Z</time>
      </trkpt>
      <trkpt lat="45.56694" lon="6.82857">
        <ele>2164.5</ele>
        <time>2021-03-30T14:31:57Z</time>
      </trkpt>
      <trkpt lat="45.56697" lon="6.82859">
        <ele>2164.3</ele>
        <time>2021-03-30T14:31:58Z</time>
      </trkpt>
      <trkpt lat="45.56699" lon="6.82861">
        <ele>2164.1</ele>
        <time>2021-03-30T14:31:59Z</time>
      </trkpt>
      <trkpt lat="45.56702" lon="6.82863">
        <ele>2164</ele>
        <time>2021-03-30T14:32:00Z</time>
      </trkpt>
      <trkpt lat="45.56704" lon="6.82865">
        <ele>2163.8</ele>
        <time>2021-03-30T14:32:01Z</time>
      </trkpt>
      <trkpt lat="45.56707" lon="6.82867">
        <ele>2163.7</ele>
        <time>2021-03-30T14:32:02Z</time>
      </trkpt>
      <trkpt lat="45.5671" lon="6.82869">
        <ele>2163.5</ele>
        <time>2021-03-30T14:32:03Z</time>
      </trkpt>
      <trkpt lat="45.56712" lon="6.82871">
        <ele>2163.3</ele>
        <time>2021-03-30T14:32:04Z</time>
      </trkpt>
      <trkpt lat="45.56715" lon="6.82873">
        <ele>2163.1</ele>
        <time>2021-03-30T14:32:05Z</time>
      </trkpt>
      <trkpt lat="45.56717" lon="6.82875">
        <ele>2163</ele>
        <time>2021-03-30T14:32:06Z</time>
      </trkpt>
      <trkpt lat="45.5672" lon="6.82878">
        <ele>2162.8</ele>
        <time>2021-03-30T14:32:07Z</time>
      </trkpt>
      <trkpt lat="45.56723" lon="6.82881">
        <ele>2162.5</ele>
        <time>2021-03-30T14:32:08Z</time>
      </trkpt>
      <trkpt lat="45.56726" lon="6.82884">
        <ele>2162.3</ele>
        <time>2021-03-30T14:32:09Z</time>
      </trkpt>
      <trkpt lat="45.5673" lon="6.82887">
        <ele>2162</ele>
        <time>2021-03-30T14:32:10Z</time>
      </trkpt>
      <trkpt lat="45.56733" lon="6.82891">
        <ele>2161.8</ele>
        <time>2021-03-30T14:32:11Z</time>
      </trkpt>
      <trkpt lat="45.56737" lon="6.82895">
        <ele>2161.5</ele>
        <time>2021-03-30T14:32:12Z</time>
      </trkpt>
      <trkpt lat="45.5674" lon="6.829">
        <ele>2161.2</ele>
        <time>2021-03-30T14:32:13Z</time>
      </trkpt>
      <trkpt lat="45.56742" lon="6.82902">
        <ele>2161.1</ele>
        <time>2021-03-30T14:32:14Z</time>
      </trkpt>
      <trkpt lat="45.56743" lon="6.82907">
        <ele>2160.9</ele>
        <time>2021-03-30T14:32:15Z</time>
      </trkpt>
      <trkpt lat="45.56744" lon="6.82915">
        <ele>2160.6</ele>
        <time>2021-03-30T14:32:16Z</time>
      </trkpt>
      <trkpt lat="45.56746" lon="6.8292">
        <ele>2160.3</ele>
        <time>2021-03-30T14:32:17Z</time>
      </trkpt>
      <trkpt lat="45.56744" lon="6.82929">
        <ele>2159.8</ele>
        <time>2021-03-30T14:32:18Z</time>
      </trkpt>
      <trkpt lat="45.56746" lon="6.82935">
        <ele>2159.4</ele>
        <time>2021-03-30T14:32:19Z</time>
      </trkpt>
      <trkpt lat="45.56747" lon="6.82942">
        <ele>2159</ele>
        <time>2021-03-30T14:32:20Z</time>
      </trkpt>
      <trkpt lat="45.56745" lon="6.82951">
        <ele>2158.5</ele>
        <time>2021-03-30T14:32:21Z</time>
      </trkpt>
      <trkpt lat="45.56745" lon="6.8296">
        <ele>2158</ele>
        <time>2021-03-30T14:32:22Z</time>
      </trkpt>
      <trkpt lat="45.56746" lon="6.82968">
        <ele>2157.6</ele>
        <time>2021-03-30T14:32:23Z</time>
      </trkpt>
      <trkpt lat="45.56745" lon="6.82977">
        <ele>2157.1</ele>
        <time>2021-03-30T14:32:24Z</time>
      </trkpt>
      <trkpt lat="45.56744" lon="6.82986">
        <ele>2156.6</ele>
        <time>2021-03-30T14:32:25Z</time>
      </trkpt>
      <trkpt lat="45.56747" lon="6.82993">
        <ele>2156.2</ele>
        <time>2021-03-30T14:32:26Z</time>
      </trkpt>
      <trkpt lat="45.56749" lon="6.83">
        <ele>2156.1</ele>
        <time>2021-03-30T14:32:27Z</time>
      </trkpt>
      <trkpt lat="45.56754" lon="6.83001">
        <ele>2156.1</ele>
        <time>2021-03-30T14:32:28Z</time>
      </trkpt>
      <trkpt lat="45.56757" lon="6.83007">
        <ele>2156.1</ele>
        <time>2021-03-30T14:32:29Z</time>
      </trkpt>
      <trkpt lat="45.5676" lon="6.8301">
        <ele>2155.9</ele>
        <time>2021-03-30T14:32:30Z</time>
      </trkpt>
      <trkpt lat="45.56761" lon="6.83015">
        <ele>2155.6</ele>
        <time>2021-03-30T14:32:31Z</time>
      </trkpt>
      <trkpt lat="45.56763" lon="6.83018">
        <ele>2155.4</ele>
        <time>2021-03-30T14:32:32Z</time>
      </trkpt>
      <trkpt lat="45.56766" lon="6.83022">
        <ele>2155.2</ele>
        <time>2021-03-30T14:32:33Z</time>
      </trkpt>
      <trkpt lat="45.56766" lon="6.83024">
        <ele>2155.1</ele>
        <time>2021-03-30T14:32:34Z</time>
      </trkpt>
      <trkpt lat="45.56769" lon="6.83027">
        <ele>2154.9</ele>
        <time>2021-03-30T14:32:35Z</time>
      </trkpt>
      <trkpt lat="45.56774" lon="6.83031">
        <ele>2154.5</ele>
        <time>2021-03-30T14:32:36Z</time>
      </trkpt>
      <trkpt lat="45.56776" lon="6.83034">
        <ele>2154.3</ele>
        <time>2021-03-30T14:32:37Z</time>
      </trkpt>
      <trkpt lat="45.56778" lon="6.83038">
        <ele>2154</ele>
        <time>2021-03-30T14:32:38Z</time>
      </trkpt>
      <trkpt lat="45.56781" lon="6.83041">
        <ele>2153.8</ele>
        <time>2021-03-30T14:32:39Z</time>
      </trkpt>
      <trkpt lat="45.56783" lon="6.83044">
        <ele>2153.5</ele>
        <time>2021-03-30T14:32:40Z</time>
      </trkpt>
      <trkpt lat="45.56786" lon="6.83047">
        <ele>2153.3</ele>
        <time>2021-03-30T14:32:41Z</time>
      </trkpt>
      <trkpt lat="45.56788" lon="6.8305">
        <ele>2153</ele>
        <time>2021-03-30T14:32:42Z</time>
      </trkpt>
      <trkpt lat="45.56791" lon="6.83054">
        <ele>2152.7</ele>
        <time>2021-03-30T14:32:43Z</time>
      </trkpt>
      <trkpt lat="45.56793" lon="6.83057">
        <ele>2152.4</ele>
        <time>2021-03-30T14:32:44Z</time>
      </trkpt>
      <trkpt lat="45.56796" lon="6.8306">
        <ele>2152.1</ele>
        <time>2021-03-30T14:32:45Z</time>
      </trkpt>
      <trkpt lat="45.568" lon="6.83063">
        <ele>2151.8</ele>
        <time>2021-03-30T14:32:46Z</time>
      </trkpt>
      <trkpt lat="45.56803" lon="6.83065">
        <ele>2151.5</ele>
        <time>2021-03-30T14:32:47Z</time>
      </trkpt>
      <trkpt lat="45.56808" lon="6.83065">
        <ele>2151.1</ele>
        <time>2021-03-30T14:32:48Z</time>
      </trkpt>
      <trkpt lat="45.56812" lon="6.83068">
        <ele>2150.6</ele>
        <time>2021-03-30T14:32:49Z</time>
      </trkpt>
      <trkpt lat="45.56818" lon="6.8307">
        <ele>2150.1</ele>
        <time>2021-03-30T14:32:50Z</time>
      </trkpt>
      <trkpt lat="45.56823" lon="6.83073">
        <ele>2149.7</ele>
        <time>2021-03-30T14:32:51Z</time>
      </trkpt>
      <trkpt lat="45.56828" lon="6.83075">
        <ele>2149.2</ele>
        <time>2021-03-30T14:32:52Z</time>
      </trkpt>
      <trkpt lat="45.56832" lon="6.83077">
        <ele>2148.8</ele>
        <time>2021-03-30T14:32:53Z</time>
      </trkpt>
      <trkpt lat="45.56835" lon="6.83082">
        <ele>2148.4</ele>
        <time>2021-03-30T14:32:54Z</time>
      </trkpt>
      <trkpt lat="45.5684" lon="6.83084">
        <ele>2147.9</ele>
        <time>2021-03-30T14:32:55Z</time>
      </trkpt>
      <trkpt lat="45.56845" lon="6.83086">
        <ele>2147.5</ele>
        <time>2021-03-30T14:32:56Z</time>
      </trkpt>
      <trkpt lat="45.56852" lon="6.83086">
        <ele>2147</ele>
        <time>2021-03-30T14:32:57Z</time>
      </trkpt>
      <trkpt lat="45.56857" lon="6.83089">
        <ele>2146.6</ele>
        <time>2021-03-30T14:32:58Z</time>
      </trkpt>
      <trkpt lat="45.56862" lon="6.83091">
        <ele>2146.2</ele>
        <time>2021-03-30T14:32:59Z</time>
      </trkpt>
      <trkpt lat="45.56866" lon="6.83093">
        <ele>2145.8</ele>
        <time>2021-03-30T14:33:00Z</time>
      </trkpt>
      <trkpt lat="45.56871" lon="6.83092">
        <ele>2145.4</ele>
        <time>2021-03-30T14:33:01Z</time>
      </trkpt>
      <trkpt lat="45.56874" lon="6.83095">
        <ele>2145.2</ele>
        <time>2021-03-30T14:33:02Z</time>
      </trkpt>
      <trkpt lat="45.56879" lon="6.83096">
        <ele>2144.8</ele>
        <time>2021-03-30T14:33:03Z</time>
      </trkpt>
      <trkpt lat="45.56883" lon="6.83097">
        <ele>2144.5</ele>
        <time>2021-03-30T14:33:04Z</time>
      </trkpt>
      <trkpt lat="45.56886" lon="6.831">
        <ele>2144.2</ele>
        <time>2021-03-30T14:33:05Z</time>
      </trkpt>
      <trkpt lat="45.56889" lon="6.83103">
        <ele>2143.9</ele>
        <time>2021-03-30T14:33:06Z</time>
      </trkpt>
      <trkpt lat="45.56893" lon="6.83105">
        <ele>2143.5</ele>
        <time>2021-03-30T14:33:07Z</time>
      </trkpt>
      <trkpt lat="45.56898" lon="6.83105">
        <ele>2143.1</ele>
        <time>2021-03-30T14:33:08Z</time>
      </trkpt>
      <trkpt lat="45.56902" lon="6.83106">
        <ele>2142.8</ele>
        <time>2021-03-30T14:33:09Z</time>
      </trkpt>
      <trkpt lat="45.56905" lon="6.83114">
        <ele>2142.2</ele>
        <time>2021-03-30T14:33:10Z</time>
      </trkpt>
      <trkpt lat="45.5691" lon="6.83115">
        <ele>2141.8</ele>
        <time>2021-03-30T14:33:11Z</time>
      </trkpt>
      <trkpt lat="45.56915" lon="6.83115">
        <ele>2141.4</ele>
        <time>2021-03-30T14:33:12Z</time>
      </trkpt>
      <trkpt lat="45.5692" lon="6.83116">
        <ele>2140.9</ele>
        <time>2021-03-30T14:33:13Z</time>
      </trkpt>
      <trkpt lat="45.56924" lon="6.8312">
        <ele>2140.4</ele>
        <time>2021-03-30T14:33:14Z</time>
      </trkpt>
      <trkpt lat="45.56929" lon="6.83123">
        <ele>2139.8</ele>
        <time>2021-03-30T14:33:15Z</time>
      </trkpt>
      <trkpt lat="45.56935" lon="6.83125">
        <ele>2139.4</ele>
        <time>2021-03-30T14:33:16Z</time>
      </trkpt>
      <trkpt lat="45.56938" lon="6.83123">
        <ele>2139.1</ele>
        <time>2021-03-30T14:33:17Z</time>
      </trkpt>
      <trkpt lat="45.56943" lon="6.83126">
        <ele>2138.8</ele>
        <time>2021-03-30T14:33:18Z</time>
      </trkpt>
      <trkpt lat="45.56947" lon="6.8313">
        <ele>2138.5</ele>
        <time>2021-03-30T14:33:19Z</time>
      </trkpt>
      <trkpt lat="45.56954" lon="6.83131">
        <ele>2138</ele>
        <time>2021-03-30T14:33:20Z</time>
      </trkpt>
      <trkpt lat="45.56959" lon="6.8313">
        <ele>2137.7</ele>
        <time>2021-03-30T14:33:21Z</time>
      </trkpt>
      <trkpt lat="45.56963" lon="6.83132">
        <ele>2137.4</ele>
        <time>2021-03-30T14:33:22Z</time>
      </trkpt>
      <trkpt lat="45.56966" lon="6.83133">
        <ele>2137.2</ele>
        <time>2021-03-30T14:33:23Z</time>
      </trkpt>
      <trkpt lat="45.56971" lon="6.83135">
        <ele>2136.8</ele>
        <time>2021-03-30T14:33:24Z</time>
      </trkpt>
      <trkpt lat="45.56974" lon="6.83137">
        <ele>2136.6</ele>
        <time>2021-03-30T14:33:25Z</time>
      </trkpt>
      <trkpt lat="45.56976" lon="6.8314">
        <ele>2136.4</ele>
        <time>2021-03-30T14:33:26Z</time>
      </trkpt>
      <trkpt lat="45.56977" lon="6.83142">
        <ele>2136.3</ele>
        <time>2021-03-30T14:33:27Z</time>
      </trkpt>
      <trkpt lat="45.56982" lon="6.83145">
        <ele>2135.9</ele>
        <time>2021-03-30T14:33:28Z</time>
      </trkpt>
      <trkpt lat="45.56985" lon="6.83148">
        <ele>2135.6</ele>
        <time>2021-03-30T14:33:29Z</time>
      </trkpt>
      <trkpt lat="45.56989" lon="6.8315">
        <ele>2135.4</ele>
        <time>2021-03-30T14:33:30Z</time>
      </trkpt>
      <trkpt lat="45.56992" lon="6.83153">
        <ele>2135.2</ele>
        <time>2021-03-30T14:33:31Z</time>
      </trkpt>
      <trkpt lat="45.56995" lon="6.83157">
        <ele>2134.9</ele>
        <time>2021-03-30T14:33:32Z</time>
      </trkpt>
      <trkpt lat="45.57" lon="6.83161">
        <ele>2134.5</ele>
        <time>2021-03-30T14:33:33Z</time>
      </trkpt>
      <trkpt lat="45.57004" lon="6.83165">
        <ele>2134.2</ele>
        <time>2021-03-30T14:33:34Z</time>
      </trkpt>
      <trkpt lat="45.57007" lon="6.83169">
        <ele>2134</ele>
        <time>2021-03-30T14:33:35Z</time>
      </trkpt>
      <trkpt lat="45.57013" lon="6.8317">
        <ele>2133.6</ele>
        <time>2021-03-30T14:33:36Z</time>
      </trkpt>
      <trkpt lat="45.57017" lon="6.83172">
        <ele>2133.4</ele>
        <time>2021-03-30T14:33:37Z</time>
      </trkpt>
      <trkpt lat="45.57017" lon="6.83172">
        <ele>2133.3</ele>
        <time>2021-03-30T14:33:38Z</time>
      </trkpt>
      <trkpt lat="45.5702" lon="6.83173">
        <ele>2133.1</ele>
        <time>2021-03-30T14:33:39Z</time>
      </trkpt>
      <trkpt lat="45.57023" lon="6.83174">
        <ele>2132.9</ele>
        <time>2021-03-30T14:33:40Z</time>
      </trkpt>
      <trkpt lat="45.57026" lon="6.83171">
        <ele>2132.7</ele>
        <time>2021-03-30T14:33:41Z</time>
      </trkpt>
      <trkpt lat="45.57028" lon="6.83172">
        <ele>2132.5</ele>
        <time>2021-03-30T14:33:42Z</time>
      </trkpt>
      <trkpt lat="45.57032" lon="6.83172">
        <ele>2132.3</ele>
        <time>2021-03-30T14:33:43Z</time>
      </trkpt>
      <trkpt lat="45.57034" lon="6.8317">
        <ele>2132.3</ele>
        <time>2021-03-30T14:33:44Z</time>
      </trkpt>
      <trkpt lat="45.57038" lon="6.8317">
        <ele>2132.2</ele>
        <time>2021-03-30T14:33:45Z</time>
      </trkpt>
      <trkpt lat="45.57041" lon="6.8317">
        <ele>2132.2</ele>
        <time>2021-03-30T14:33:46Z</time>
      </trkpt>
      <trkpt lat="45.57045" lon="6.8317">
        <ele>2132.2</ele>
        <time>2021-03-30T14:33:47Z</time>
      </trkpt>
      <trkpt lat="45.57049" lon="6.8317">
        <ele>2132.2</ele>
        <time>2021-03-30T14:33:48Z</time>
      </trkpt>
      <trkpt lat="45.57051" lon="6.8317">
        <ele>2132.2</ele>
        <time>2021-03-30T14:33:49Z</time>
      </trkpt>
      <trkpt lat="45.57055" lon="6.83171">
        <ele>2132.2</ele>
        <time>2021-03-30T14:33:50Z</time>
      </trkpt>
      <trkpt lat="45.57056" lon="6.83171">
        <ele>2132.2</ele>
        <time>2021-03-30T14:33:51Z</time>
      </trkpt>
      <trkpt lat="45.5706" lon="6.83174">
        <ele>2132.2</ele>
        <time>2021-03-30T14:33:52Z</time>
      </trkpt>
      <trkpt lat="45.57061" lon="6.83175">
        <ele>2132.3</ele>
        <time>2021-03-30T14:33:53Z</time>
      </trkpt>
      <trkpt lat="45.57064" lon="6.83179">
        <ele>2132.6</ele>
        <time>2021-03-30T14:33:54Z</time>
      </trkpt>
      <trkpt lat="45.57065" lon="6.8318">
        <ele>2132.7</ele>
        <time>2021-03-30T14:33:55Z</time>
      </trkpt>
      <trkpt lat="45.57066" lon="6.83184">
        <ele>2132.9</ele>
        <time>2021-03-30T14:33:56Z</time>
      </trkpt>
      <trkpt lat="45.57068" lon="6.83187">
        <ele>2133.1</ele>
        <time>2021-03-30T14:33:57Z</time>
      </trkpt>
      <trkpt lat="45.57069" lon="6.83191">
        <ele>2133.3</ele>
        <time>2021-03-30T14:33:58Z</time>
      </trkpt>
      <trkpt lat="45.57071" lon="6.83194">
        <ele>2133.5</ele>
        <time>2021-03-30T14:33:59Z</time>
      </trkpt>
      <trkpt lat="45.57072" lon="6.83198">
        <ele>2133.7</ele>
        <time>2021-03-30T14:34:00Z</time>
      </trkpt>
      <trkpt lat="45.57074" lon="6.83202">
        <ele>2134</ele>
        <time>2021-03-30T14:34:01Z</time>
      </trkpt>
      <trkpt lat="45.57075" lon="6.83204">
        <ele>2134</ele>
        <time>2021-03-30T14:34:02Z</time>
      </trkpt>
      <trkpt lat="45.57076" lon="6.83207">
        <ele>2134.2</ele>
        <time>2021-03-30T14:34:03Z</time>
      </trkpt>
      <trkpt lat="45.57077" lon="6.83208">
        <ele>2134.3</ele>
        <time>2021-03-30T14:34:04Z</time>
      </trkpt>
      <trkpt lat="45.57079" lon="6.83212">
        <ele>2134.5</ele>
        <time>2021-03-30T14:34:05Z</time>
      </trkpt>
      <trkpt lat="45.5708" lon="6.83213">
        <ele>2134.6</ele>
        <time>2021-03-30T14:34:06Z</time>
      </trkpt>
      <trkpt lat="45.57082" lon="6.83216">
        <ele>2134.7</ele>
        <time>2021-03-30T14:34:07Z</time>
      </trkpt>
      <trkpt lat="45.57083" lon="6.83217">
        <ele>2134.8</ele>
        <time>2021-03-30T14:34:08Z</time>
      </trkpt>
      <trkpt lat="45.57085" lon="6.83219">
        <ele>2135</ele>
        <time>2021-03-30T14:34:09Z</time>
      </trkpt>
      <trkpt lat="45.57086" lon="6.83221">
        <ele>2135</ele>
        <time>2021-03-30T14:34:10Z</time>
      </trkpt>
      <trkpt lat="45.57088" lon="6.83224">
        <ele>2135.2</ele>
        <time>2021-03-30T14:34:11Z</time>
      </trkpt>
      <trkpt lat="45.57089" lon="6.83225">
        <ele>2135.3</ele>
        <time>2021-03-30T14:34:12Z</time>
      </trkpt>
      <trkpt lat="45.5709" lon="6.83227">
        <ele>2135.4</ele>
        <time>2021-03-30T14:34:13Z</time>
      </trkpt>
      <trkpt lat="45.57092" lon="6.83228">
        <ele>2135.5</ele>
        <time>2021-03-30T14:34:14Z</time>
      </trkpt>
      <trkpt lat="45.57093" lon="6.8323">
        <ele>2135.6</ele>
        <time>2021-03-30T14:34:15Z</time>
      </trkpt>
      <trkpt lat="45.57094" lon="6.83231">
        <ele>2135.6</ele>
        <time>2021-03-30T14:34:16Z</time>
      </trkpt>
      <trkpt lat="45.57096" lon="6.83232">
        <ele>2135.7</ele>
        <time>2021-03-30T14:34:17Z</time>
      </trkpt>
      <trkpt lat="45.57097" lon="6.83233">
        <ele>2135.8</ele>
        <time>2021-03-30T14:34:18Z</time>
      </trkpt>
      <trkpt lat="45.57098" lon="6.83233">
        <ele>2135.9</ele>
        <time>2021-03-30T14:34:19Z</time>
      </trkpt>
      <trkpt lat="45.57099" lon="6.83234">
        <ele>2136</ele>
        <time>2021-03-30T14:34:20Z</time>
      </trkpt>
      <trkpt lat="45.571" lon="6.83235">
        <ele>2136</ele>
        <time>2021-03-30T14:34:21Z</time>
      </trkpt>
      <trkpt lat="45.571" lon="6.83235">
        <ele>2136</ele>
        <time>2021-03-30T14:34:22Z</time>
      </trkpt>
      <trkpt lat="45.571" lon="6.83235">
        <ele>2136</ele>
        <time>2021-03-30T14:34:23Z</time>
      </trkpt>
      <trkpt lat="45.571" lon="6.83235">
        <ele>2136</ele>
        <time>2021-03-30T14:34:24Z</time>
      </trkpt>
      <trkpt lat="45.571" lon="6.83235">
        <ele>2136</ele>
        <time>2021-03-30T14:34:25Z</time>
      </trkpt>
      <trkpt lat="45.571" lon="6.83235">
        <ele>2136</ele>
        <time>2021-03-30T14:34:26Z</time>
      </trkpt>
      <trkpt lat="45.571" lon="6.83235">
        <ele>2136</ele>
        <time>2021-03-30T14:34:27Z</time>
      </trkpt>
      <trkpt lat="45.571" lon="6.83235">
        <ele>2136</ele>
        <time>2021-03-30T14:34:28Z</time>
      </trkpt>
      <trkpt lat="45.571" lon="6.83235">
        <ele>2136</ele>
        <time>2021-03-30T14:34:29Z</time>
      </trkpt>
      <trkpt lat="45.571" lon="6.83235">
        <ele>2136</ele>
        <time>2021-03-30T14:34:30Z</time>
      </trkpt>
      <trkpt lat="45.571" lon="6.83235">
        <ele>2136</ele>
        <time>2021-03-30T14:34:31Z</time>
      </trkpt>
    </trkseg>
  </trk>
</gpx>